<?xml version='1.0' encoding='UTF-8'?><gpx version="1.1" creator="JPX - https://github.com/jenetics/jpx" xmlns="http://www.topografix.com/GPX/1/1"><trk><trkseg><trkpt lat="43.2254704" lon="13.1995201"><ele>315.0</ele><time>2026-05-01T07:44:28.839Z</time></trkpt><trkpt lat="43.2254093" lon="13.199541"><ele>315.0</ele><time>2026-05-01T07:44:31.839Z</time></trkpt><trkpt lat="43.2253732" lon="13.1994551"><ele>315.0</ele><time>2026-05-01T07:44:35.838Z</time></trkpt><trkpt lat="43.2253341" lon="13.199339"><ele>315.0</ele><time>2026-05-01T07:44:38.84Z</time></trkpt><trkpt lat="43.2253016" lon="13.1992645"><ele>315.0</ele><time>2026-05-01T07:44:40.839Z</time></trkpt><trkpt lat="43.2252613" lon="13.1991932"><ele>315.0</ele><time>2026-05-01T07:44:42.839Z</time></trkpt><trkpt lat="43.2252229" lon="13.1991219"><ele>315.0</ele><time>2026-05-01T07:44:44.838Z</time></trkpt><trkpt lat="43.225183" lon="13.1990423"><ele>314.2</ele><time>2026-05-01T07:44:46.839Z</time></trkpt><trkpt lat="43.2250953" lon="13.1989569"><ele>313.4</ele><time>2026-05-01T07:44:48.839Z</time></trkpt><trkpt lat="43.2250228" lon="13.1988347"><ele>312.6</ele><time>2026-05-01T07:44:50.838Z</time></trkpt><trkpt lat="43.2249543" lon="13.1987147"><ele>311.8</ele><time>2026-05-01T07:44:52.839Z</time></trkpt><trkpt lat="43.2249047" lon="13.1986607"><ele>311.0</ele><time>2026-05-01T07:44:53.84Z</time></trkpt><trkpt lat="43.2248127" lon="13.1985354"><ele>311.2857142857143</ele><time>2026-05-01T07:44:55.838Z</time></trkpt><trkpt lat="43.2247667" lon="13.1984691"><ele>311.5714285714286</ele><time>2026-05-01T07:44:56.839Z</time></trkpt><trkpt lat="43.2247173" lon="13.1983983"><ele>311.8571428571429</ele><time>2026-05-01T07:44:57.84Z</time></trkpt><trkpt lat="43.2246726" lon="13.1983251"><ele>312.1428571428571</ele><time>2026-05-01T07:44:58.839Z</time></trkpt><trkpt lat="43.2246309" lon="13.19825"><ele>312.42857142857144</ele><time>2026-05-01T07:44:59.839Z</time></trkpt><trkpt lat="43.2245902" lon="13.1981714"><ele>312.7142857142857</ele><time>2026-05-01T07:45:00.838Z</time></trkpt><trkpt lat="43.2245526" lon="13.1980922"><ele>313.0</ele><time>2026-05-01T07:45:01.839Z</time></trkpt><trkpt lat="43.2245153" lon="13.1980151"><ele>313.3333333333333</ele><time>2026-05-01T07:45:02.838Z</time></trkpt><trkpt lat="43.2244733" lon="13.1979451"><ele>313.66666666666663</ele><time>2026-05-01T07:45:03.838Z</time></trkpt><trkpt lat="43.2243809" lon="13.1978384"><ele>314.0</ele><time>2026-05-01T07:45:05.839Z</time></trkpt><trkpt lat="43.2243278" lon="13.1977882"><ele>314.3333333333333</ele><time>2026-05-01T07:45:06.838Z</time></trkpt><trkpt lat="43.2242284" lon="13.1976935"><ele>314.6666666666667</ele><time>2026-05-01T07:45:08.838Z</time></trkpt><trkpt lat="43.2241768" lon="13.1976285"><ele>315.0</ele><time>2026-05-01T07:45:09.839Z</time></trkpt><trkpt lat="43.2241261" lon="13.1975613"><ele>315.0</ele><time>2026-05-01T07:45:10.84Z</time></trkpt><trkpt lat="43.2240803" lon="13.1975002"><ele>315.0</ele><time>2026-05-01T07:45:11.838Z</time></trkpt><trkpt lat="43.2240343" lon="13.1974254"><ele>315.0</ele><time>2026-05-01T07:45:12.839Z</time></trkpt><trkpt lat="43.2239886" lon="13.197347"><ele>315.0</ele><time>2026-05-01T07:45:13.838Z</time></trkpt><trkpt lat="43.2239473" lon="13.1972643"><ele>315.0</ele><time>2026-05-01T07:45:14.838Z</time></trkpt><trkpt lat="43.2239084" lon="13.1971811"><ele>315.0</ele><time>2026-05-01T07:45:15.838Z</time></trkpt><trkpt lat="43.2238705" lon="13.197105"><ele>315.0</ele><time>2026-05-01T07:45:16.839Z</time></trkpt><trkpt lat="43.2238306" lon="13.1970319"><ele>315.3333333333333</ele><time>2026-05-01T07:45:17.838Z</time></trkpt><trkpt lat="43.2237938" lon="13.1969477"><ele>315.6666666666667</ele><time>2026-05-01T07:45:18.838Z</time></trkpt><trkpt lat="43.2237571" lon="13.1968662"><ele>316.0</ele><time>2026-05-01T07:45:19.839Z</time></trkpt><trkpt lat="43.2237154" lon="13.1967937"><ele>316.33333333333337</ele><time>2026-05-01T07:45:20.838Z</time></trkpt><trkpt lat="43.2236756" lon="13.1967207"><ele>316.6666666666667</ele><time>2026-05-01T07:45:21.838Z</time></trkpt><trkpt lat="43.2236224" lon="13.1966663"><ele>317.0</ele><time>2026-05-01T07:45:22.839Z</time></trkpt><trkpt lat="43.2235256" lon="13.1965803"><ele>317.0</ele><time>2026-05-01T07:45:24.838Z</time></trkpt><trkpt lat="43.2234278" lon="13.196608"><ele>317.0</ele><time>2026-05-01T07:45:26.838Z</time></trkpt><trkpt lat="43.2233644" lon="13.1966028"><ele>317.0</ele><time>2026-05-01T07:45:28.838Z</time></trkpt><trkpt lat="43.2233418" lon="13.1964716"><ele>317.0</ele><time>2026-05-01T07:45:31.838Z</time></trkpt><trkpt lat="43.2233123" lon="13.1963074"><ele>317.0</ele><time>2026-05-01T07:45:33.839Z</time></trkpt><trkpt lat="43.2232818" lon="13.1962164"><ele>317.1666666666667</ele><time>2026-05-01T07:45:34.839Z</time></trkpt><trkpt lat="43.2232488" lon="13.1961285"><ele>317.33333333333337</ele><time>2026-05-01T07:45:35.839Z</time></trkpt><trkpt lat="43.2232111" lon="13.1960368"><ele>317.5</ele><time>2026-05-01T07:45:36.84Z</time></trkpt><trkpt lat="43.2231778" lon="13.1959401"><ele>317.6666666666667</ele><time>2026-05-01T07:45:37.84Z</time></trkpt><trkpt lat="43.2231416" lon="13.1958423"><ele>317.8333333333333</ele><time>2026-05-01T07:45:38.838Z</time></trkpt><trkpt lat="43.2231034" lon="13.1957412"><ele>318.0</ele><time>2026-05-01T07:45:39.839Z</time></trkpt><trkpt lat="43.2230622" lon="13.1956408"><ele>317.1666666666667</ele><time>2026-05-01T07:45:40.839Z</time></trkpt><trkpt lat="43.2230187" lon="13.1955382"><ele>316.3333333333333</ele><time>2026-05-01T07:45:41.84Z</time></trkpt><trkpt lat="43.2229758" lon="13.1954378"><ele>315.5</ele><time>2026-05-01T07:45:42.839Z</time></trkpt><trkpt lat="43.2229306" lon="13.195337"><ele>314.66666666666663</ele><time>2026-05-01T07:45:43.839Z</time></trkpt><trkpt lat="43.2228845" lon="13.1952374"><ele>313.8333333333333</ele><time>2026-05-01T07:45:44.839Z</time></trkpt><trkpt lat="43.2228407" lon="13.1951364"><ele>313.0</ele><time>2026-05-01T07:45:45.839Z</time></trkpt><trkpt lat="43.2227935" lon="13.1950332"><ele>313.0</ele><time>2026-05-01T07:45:46.839Z</time></trkpt><trkpt lat="43.2227397" lon="13.1949295"><ele>313.0</ele><time>2026-05-01T07:45:47.839Z</time></trkpt><trkpt lat="43.2226921" lon="13.1948222"><ele>313.0</ele><time>2026-05-01T07:45:48.84Z</time></trkpt><trkpt lat="43.2226544" lon="13.1947108"><ele>313.0</ele><time>2026-05-01T07:45:49.839Z</time></trkpt><trkpt lat="43.2226295" lon="13.1945892"><ele>313.0</ele><time>2026-05-01T07:45:50.839Z</time></trkpt><trkpt lat="43.2226131" lon="13.19446"><ele>311.8</ele><time>2026-05-01T07:45:51.839Z</time></trkpt><trkpt lat="43.2225952" lon="13.1943256"><ele>310.6</ele><time>2026-05-01T07:45:52.839Z</time></trkpt><trkpt lat="43.2225727" lon="13.1941952"><ele>309.4</ele><time>2026-05-01T07:45:53.839Z</time></trkpt><trkpt lat="43.2225396" lon="13.1940741"><ele>308.2</ele><time>2026-05-01T07:45:54.839Z</time></trkpt><trkpt lat="43.2224886" lon="13.1939678"><ele>307.0</ele><time>2026-05-01T07:45:55.839Z</time></trkpt><trkpt lat="43.2224264" lon="13.1938785"><ele>307.66666666666663</ele><time>2026-05-01T07:45:56.839Z</time></trkpt><trkpt lat="43.2223584" lon="13.1938093"><ele>308.3333333333333</ele><time>2026-05-01T07:45:57.839Z</time></trkpt><trkpt lat="43.2222892" lon="13.193748"><ele>309.0</ele><time>2026-05-01T07:45:58.839Z</time></trkpt><trkpt lat="43.2222461" lon="13.1936687"><ele>309.6666666666667</ele><time>2026-05-01T07:45:59.838Z</time></trkpt><trkpt lat="43.2222485" lon="13.193581"><ele>310.33333333333337</ele><time>2026-05-01T07:46:00.839Z</time></trkpt><trkpt lat="43.2223576" lon="13.1935291"><ele>311.0</ele><time>2026-05-01T07:46:02.839Z</time></trkpt><trkpt lat="43.2224178" lon="13.1935785"><ele>308.40000000000003</ele><time>2026-05-01T07:46:03.838Z</time></trkpt><trkpt lat="43.2224816" lon="13.1936471"><ele>305.8</ele><time>2026-05-01T07:46:04.84Z</time></trkpt><trkpt lat="43.2225597" lon="13.1937117"><ele>303.20000000000005</ele><time>2026-05-01T07:46:05.839Z</time></trkpt><trkpt lat="43.2226488" lon="13.1937655"><ele>300.6</ele><time>2026-05-01T07:46:06.84Z</time></trkpt><trkpt lat="43.2227431" lon="13.1938185"><ele>298.0</ele><time>2026-05-01T07:46:07.839Z</time></trkpt><trkpt lat="43.222843" lon="13.1938592"><ele>298.0</ele><time>2026-05-01T07:46:08.839Z</time></trkpt><trkpt lat="43.222943" lon="13.1938903"><ele>298.0</ele><time>2026-05-01T07:46:09.84Z</time></trkpt><trkpt lat="43.2230493" lon="13.1939072"><ele>298.0</ele><time>2026-05-01T07:46:10.839Z</time></trkpt><trkpt lat="43.2231564" lon="13.1939099"><ele>298.0</ele><time>2026-05-01T07:46:11.838Z</time></trkpt><trkpt lat="43.2232631" lon="13.1938954"><ele>298.0</ele><time>2026-05-01T07:46:12.839Z</time></trkpt><trkpt lat="43.2233645" lon="13.19386"><ele>295.6</ele><time>2026-05-01T07:46:13.838Z</time></trkpt><trkpt lat="43.2234663" lon="13.1938098"><ele>293.20000000000005</ele><time>2026-05-01T07:46:14.838Z</time></trkpt><trkpt lat="43.2235634" lon="13.1937492"><ele>290.8</ele><time>2026-05-01T07:46:15.839Z</time></trkpt><trkpt lat="43.2236625" lon="13.1936847"><ele>288.40000000000003</ele><time>2026-05-01T07:46:16.84Z</time></trkpt><trkpt lat="43.2237587" lon="13.193625"><ele>286.0</ele><time>2026-05-01T07:46:17.839Z</time></trkpt><trkpt lat="43.2238566" lon="13.193563"><ele>286.0</ele><time>2026-05-01T07:46:18.838Z</time></trkpt><trkpt lat="43.2239605" lon="13.1934966"><ele>286.0</ele><time>2026-05-01T07:46:19.839Z</time></trkpt><trkpt lat="43.2240702" lon="13.1934472"><ele>286.0</ele><time>2026-05-01T07:46:20.838Z</time></trkpt><trkpt lat="43.2241881" lon="13.1934079"><ele>286.0</ele><time>2026-05-01T07:46:21.84Z</time></trkpt><trkpt lat="43.2243089" lon="13.1933967"><ele>285.5</ele><time>2026-05-01T07:46:22.839Z</time></trkpt><trkpt lat="43.2244325" lon="13.1934082"><ele>285.0</ele><time>2026-05-01T07:46:23.838Z</time></trkpt><trkpt lat="43.2245509" lon="13.1934398"><ele>284.5</ele><time>2026-05-01T07:46:24.839Z</time></trkpt><trkpt lat="43.2246714" lon="13.1934856"><ele>284.0</ele><time>2026-05-01T07:46:25.839Z</time></trkpt><trkpt lat="43.2247878" lon="13.1935391"><ele>282.0</ele><time>2026-05-01T07:46:26.839Z</time></trkpt><trkpt lat="43.2249015" lon="13.1935881"><ele>280.0</ele><time>2026-05-01T07:46:27.838Z</time></trkpt><trkpt lat="43.2250154" lon="13.1936336"><ele>278.0</ele><time>2026-05-01T07:46:28.838Z</time></trkpt><trkpt lat="43.2251286" lon="13.1936833"><ele>276.0</ele><time>2026-05-01T07:46:29.84Z</time></trkpt><trkpt lat="43.2252361" lon="13.1937348"><ele>276.0</ele><time>2026-05-01T07:46:30.838Z</time></trkpt><trkpt lat="43.2253449" lon="13.1937712"><ele>276.0</ele><time>2026-05-01T07:46:31.838Z</time></trkpt><trkpt lat="43.2254543" lon="13.1937683"><ele>276.0</ele><time>2026-05-01T07:46:32.839Z</time></trkpt><trkpt lat="43.2255537" lon="13.1937191"><ele>276.0</ele><time>2026-05-01T07:46:33.839Z</time></trkpt><trkpt lat="43.2256408" lon="13.1936248"><ele>276.0</ele><time>2026-05-01T07:46:34.839Z</time></trkpt><trkpt lat="43.2257053" lon="13.1935"><ele>273.25</ele><time>2026-05-01T07:46:35.839Z</time></trkpt><trkpt lat="43.2257482" lon="13.1933529"><ele>270.5</ele><time>2026-05-01T07:46:36.838Z</time></trkpt><trkpt lat="43.2257682" lon="13.1931951"><ele>267.75</ele><time>2026-05-01T07:46:37.84Z</time></trkpt><trkpt lat="43.2257639" lon="13.1930372"><ele>265.0</ele><time>2026-05-01T07:46:38.839Z</time></trkpt><trkpt lat="43.2257297" lon="13.192898"><ele>265.2</ele><time>2026-05-01T07:46:39.839Z</time></trkpt><trkpt lat="43.2256653" lon="13.1927825"><ele>265.4</ele><time>2026-05-01T07:46:40.838Z</time></trkpt><trkpt lat="43.225574" lon="13.1926991"><ele>265.6</ele><time>2026-05-01T07:46:41.838Z</time></trkpt><trkpt lat="43.2254658" lon="13.1926529"><ele>265.8</ele><time>2026-05-01T07:46:42.839Z</time></trkpt><trkpt lat="43.2253535" lon="13.1926329"><ele>266.0</ele><time>2026-05-01T07:46:43.84Z</time></trkpt><trkpt lat="43.2252402" lon="13.19262"><ele>266.0</ele><time>2026-05-01T07:46:44.838Z</time></trkpt><trkpt lat="43.2251304" lon="13.1926059"><ele>266.0</ele><time>2026-05-01T07:46:45.838Z</time></trkpt><trkpt lat="43.2250189" lon="13.1925917"><ele>266.0</ele><time>2026-05-01T07:46:46.839Z</time></trkpt><trkpt lat="43.2249071" lon="13.1925685"><ele>266.0</ele><time>2026-05-01T07:46:47.839Z</time></trkpt><trkpt lat="43.224803" lon="13.1925269"><ele>266.0</ele><time>2026-05-01T07:46:48.838Z</time></trkpt><trkpt lat="43.2247097" lon="13.1924593"><ele>266.40000000000003</ele><time>2026-05-01T07:46:49.839Z</time></trkpt><trkpt lat="43.2246294" lon="13.1923672"><ele>266.8</ele><time>2026-05-01T07:46:50.839Z</time></trkpt><trkpt lat="43.2245697" lon="13.1922508"><ele>267.20000000000005</ele><time>2026-05-01T07:46:51.838Z</time></trkpt><trkpt lat="43.2245254" lon="13.1921223"><ele>267.6</ele><time>2026-05-01T07:46:52.838Z</time></trkpt><trkpt lat="43.2245001" lon="13.1919865"><ele>268.0</ele><time>2026-05-01T07:46:53.84Z</time></trkpt><trkpt lat="43.2244851" lon="13.1918572"><ele>268.0</ele><time>2026-05-01T07:46:54.838Z</time></trkpt><trkpt lat="43.2244906" lon="13.1917248"><ele>268.0</ele><time>2026-05-01T07:46:55.838Z</time></trkpt><trkpt lat="43.2245153" lon="13.191595"><ele>268.0</ele><time>2026-05-01T07:46:56.839Z</time></trkpt><trkpt lat="43.2245598" lon="13.1914724"><ele>268.0</ele><time>2026-05-01T07:46:57.839Z</time></trkpt><trkpt lat="43.2246176" lon="13.1913572"><ele>268.0</ele><time>2026-05-01T07:46:58.839Z</time></trkpt><trkpt lat="43.2246784" lon="13.1912405"><ele>268.6</ele><time>2026-05-01T07:46:59.838Z</time></trkpt><trkpt lat="43.2247441" lon="13.1911222"><ele>269.20000000000005</ele><time>2026-05-01T07:47:00.839Z</time></trkpt><trkpt lat="43.2248098" lon="13.1910053"><ele>269.8</ele><time>2026-05-01T07:47:01.839Z</time></trkpt><trkpt lat="43.2248756" lon="13.1908815"><ele>270.40000000000003</ele><time>2026-05-01T07:47:02.839Z</time></trkpt><trkpt lat="43.2249429" lon="13.1907542"><ele>271.0</ele><time>2026-05-01T07:47:03.839Z</time></trkpt><trkpt lat="43.2250101" lon="13.1906347"><ele>269.0</ele><time>2026-05-01T07:47:04.839Z</time></trkpt><trkpt lat="43.2250787" lon="13.1905175"><ele>267.0</ele><time>2026-05-01T07:47:05.838Z</time></trkpt><trkpt lat="43.2251447" lon="13.1903974"><ele>265.0</ele><time>2026-05-01T07:47:06.84Z</time></trkpt><trkpt lat="43.2252127" lon="13.190279"><ele>263.0</ele><time>2026-05-01T07:47:07.838Z</time></trkpt><trkpt lat="43.2252813" lon="13.1901591"><ele>261.0</ele><time>2026-05-01T07:47:08.839Z</time></trkpt><trkpt lat="43.2253492" lon="13.1900389"><ele>261.0</ele><time>2026-05-01T07:47:09.838Z</time></trkpt><trkpt lat="43.2254153" lon="13.1899227"><ele>261.0</ele><time>2026-05-01T07:47:10.838Z</time></trkpt><trkpt lat="43.2254812" lon="13.1898057"><ele>261.0</ele><time>2026-05-01T07:47:11.838Z</time></trkpt><trkpt lat="43.225547" lon="13.1896921"><ele>261.0</ele><time>2026-05-01T07:47:12.839Z</time></trkpt><trkpt lat="43.2256134" lon="13.1895793"><ele>261.0</ele><time>2026-05-01T07:47:13.84Z</time></trkpt><trkpt lat="43.2256805" lon="13.1894656"><ele>258.8</ele><time>2026-05-01T07:47:14.839Z</time></trkpt><trkpt lat="43.225748" lon="13.1893523"><ele>256.6</ele><time>2026-05-01T07:47:15.838Z</time></trkpt><trkpt lat="43.2258118" lon="13.1892309"><ele>254.4</ele><time>2026-05-01T07:47:16.839Z</time></trkpt><trkpt lat="43.2258805" lon="13.1891102"><ele>252.2</ele><time>2026-05-01T07:47:17.839Z</time></trkpt><trkpt lat="43.2259529" lon="13.1889897"><ele>250.0</ele><time>2026-05-01T07:47:18.838Z</time></trkpt><trkpt lat="43.2260206" lon="13.1888614"><ele>250.0</ele><time>2026-05-01T07:47:19.838Z</time></trkpt><trkpt lat="43.2260886" lon="13.1887337"><ele>250.0</ele><time>2026-05-01T07:47:20.839Z</time></trkpt><trkpt lat="43.2261554" lon="13.1886112"><ele>250.0</ele><time>2026-05-01T07:47:21.839Z</time></trkpt><trkpt lat="43.2262268" lon="13.1884869"><ele>250.0</ele><time>2026-05-01T07:47:22.839Z</time></trkpt><trkpt lat="43.2262976" lon="13.1883615"><ele>250.0</ele><time>2026-05-01T07:47:23.839Z</time></trkpt><trkpt lat="43.2263686" lon="13.1882334"><ele>250.0</ele><time>2026-05-01T07:47:24.839Z</time></trkpt><trkpt lat="43.2264396" lon="13.1881097"><ele>250.0</ele><time>2026-05-01T07:47:25.838Z</time></trkpt><trkpt lat="43.2265106" lon="13.1879803"><ele>250.0</ele><time>2026-05-01T07:47:26.838Z</time></trkpt><trkpt lat="43.2265802" lon="13.1878515"><ele>248.0</ele><time>2026-05-01T07:47:27.839Z</time></trkpt><trkpt lat="43.2266514" lon="13.1877265"><ele>246.0</ele><time>2026-05-01T07:47:28.838Z</time></trkpt><trkpt lat="43.2267236" lon="13.1875997"><ele>244.0</ele><time>2026-05-01T07:47:29.838Z</time></trkpt><trkpt lat="43.2267963" lon="13.1874722"><ele>242.0</ele><time>2026-05-01T07:47:30.839Z</time></trkpt><trkpt lat="43.2268713" lon="13.1873471"><ele>242.0</ele><time>2026-05-01T07:47:31.839Z</time></trkpt><trkpt lat="43.226943" lon="13.1872227"><ele>242.0</ele><time>2026-05-01T07:47:32.839Z</time></trkpt><trkpt lat="43.2270124" lon="13.1871001"><ele>242.0</ele><time>2026-05-01T07:47:33.839Z</time></trkpt><trkpt lat="43.2270821" lon="13.1869819"><ele>242.0</ele><time>2026-05-01T07:47:34.838Z</time></trkpt><trkpt lat="43.2271499" lon="13.1868688"><ele>242.0</ele><time>2026-05-01T07:47:35.839Z</time></trkpt><trkpt lat="43.2272171" lon="13.1867564"><ele>242.0</ele><time>2026-05-01T07:47:36.839Z</time></trkpt><trkpt lat="43.2272813" lon="13.186643"><ele>242.0</ele><time>2026-05-01T07:47:37.839Z</time></trkpt><trkpt lat="43.2273429" lon="13.1865299"><ele>242.0</ele><time>2026-05-01T07:47:38.839Z</time></trkpt><trkpt lat="43.2274058" lon="13.1864152"><ele>242.0</ele><time>2026-05-01T07:47:39.839Z</time></trkpt><trkpt lat="43.2274692" lon="13.1863036"><ele>242.0</ele><time>2026-05-01T07:47:40.84Z</time></trkpt><trkpt lat="43.2275345" lon="13.1861935"><ele>241.8</ele><time>2026-05-01T07:47:41.839Z</time></trkpt><trkpt lat="43.2275976" lon="13.1860834"><ele>241.6</ele><time>2026-05-01T07:47:42.838Z</time></trkpt><trkpt lat="43.2276611" lon="13.1859726"><ele>241.40000000000003</ele><time>2026-05-01T07:47:43.839Z</time></trkpt><trkpt lat="43.2277228" lon="13.1858594"><ele>241.20000000000002</ele><time>2026-05-01T07:47:44.839Z</time></trkpt><trkpt lat="43.2277865" lon="13.1857465"><ele>241.0</ele><time>2026-05-01T07:47:45.839Z</time></trkpt><trkpt lat="43.2278526" lon="13.1856359"><ele>241.0</ele><time>2026-05-01T07:47:46.839Z</time></trkpt><trkpt lat="43.2279117" lon="13.1855262"><ele>241.00000000000003</ele><time>2026-05-01T07:47:47.838Z</time></trkpt><trkpt lat="43.2279672" lon="13.1854211"><ele>241.00000000000003</ele><time>2026-05-01T07:47:48.838Z</time></trkpt><trkpt lat="43.2280217" lon="13.1853204"><ele>241.0</ele><time>2026-05-01T07:47:49.839Z</time></trkpt><trkpt lat="43.2280721" lon="13.1852256"><ele>241.0</ele><time>2026-05-01T07:47:50.838Z</time></trkpt><trkpt lat="43.2281262" lon="13.1851429"><ele>240.66666666666666</ele><time>2026-05-01T07:47:51.839Z</time></trkpt><trkpt lat="43.228183" lon="13.1850845"><ele>240.33333333333331</ele><time>2026-05-01T07:47:52.84Z</time></trkpt><trkpt lat="43.2282524" lon="13.1850588"><ele>240.0</ele><time>2026-05-01T07:47:53.838Z</time></trkpt><trkpt lat="43.2283285" lon="13.1850705"><ele>239.66666666666669</ele><time>2026-05-01T07:47:54.839Z</time></trkpt><trkpt lat="43.2283858" lon="13.1851113"><ele>239.33333333333334</ele><time>2026-05-01T07:47:55.839Z</time></trkpt><trkpt lat="43.228443" lon="13.1852216"><ele>239.0</ele><time>2026-05-01T07:47:57.839Z</time></trkpt><trkpt lat="43.2284769" lon="13.1853421"><ele>239.0</ele><time>2026-05-01T07:47:59.839Z</time></trkpt><trkpt lat="43.2285091" lon="13.1854644"><ele>238.99999999999997</ele><time>2026-05-01T07:48:01.839Z</time></trkpt><trkpt lat="43.2285386" lon="13.1856227"><ele>238.99999999999997</ele><time>2026-05-01T07:48:03.838Z</time></trkpt><trkpt lat="43.2285292" lon="13.185727"><ele>239.0</ele><time>2026-05-01T07:48:04.838Z</time></trkpt><trkpt lat="43.2285106" lon="13.1858333"><ele>239.0</ele><time>2026-05-01T07:48:05.838Z</time></trkpt><trkpt lat="43.2284864" lon="13.1859456"><ele>238.79999999999998</ele><time>2026-05-01T07:48:06.838Z</time></trkpt><trkpt lat="43.2284628" lon="13.1860677"><ele>238.59999999999997</ele><time>2026-05-01T07:48:07.838Z</time></trkpt><trkpt lat="43.2284393" lon="13.1861891"><ele>238.4</ele><time>2026-05-01T07:48:08.838Z</time></trkpt><trkpt lat="43.2284082" lon="13.1863115"><ele>238.2</ele><time>2026-05-01T07:48:09.839Z</time></trkpt><trkpt lat="43.2283825" lon="13.1864339"><ele>238.0</ele><time>2026-05-01T07:48:10.839Z</time></trkpt><trkpt lat="43.2283615" lon="13.1865551"><ele>237.33333333333331</ele><time>2026-05-01T07:48:11.839Z</time></trkpt><trkpt lat="43.228339" lon="13.1866726"><ele>236.66666666666666</ele><time>2026-05-01T07:48:12.839Z</time></trkpt><trkpt lat="43.2283195" lon="13.1867918"><ele>236.0</ele><time>2026-05-01T07:48:13.838Z</time></trkpt><trkpt lat="43.228298" lon="13.1869091"><ele>235.33333333333331</ele><time>2026-05-01T07:48:14.839Z</time></trkpt><trkpt lat="43.2282732" lon="13.1870248"><ele>234.66666666666666</ele><time>2026-05-01T07:48:15.838Z</time></trkpt><trkpt lat="43.2282459" lon="13.1871296"><ele>234.0</ele><time>2026-05-01T07:48:16.839Z</time></trkpt><trkpt lat="43.228213" lon="13.1872341"><ele>234.0</ele><time>2026-05-01T07:48:17.84Z</time></trkpt><trkpt lat="43.2281762" lon="13.1873416"><ele>234.0</ele><time>2026-05-01T07:48:18.838Z</time></trkpt><trkpt lat="43.2281382" lon="13.1874461"><ele>234.0</ele><time>2026-05-01T07:48:19.839Z</time></trkpt><trkpt lat="43.2281107" lon="13.1875612"><ele>234.0</ele><time>2026-05-01T07:48:20.838Z</time></trkpt><trkpt lat="43.2280998" lon="13.1876881"><ele>234.0</ele><time>2026-05-01T07:48:21.839Z</time></trkpt><trkpt lat="43.2280975" lon="13.1878174"><ele>234.0</ele><time>2026-05-01T07:48:22.839Z</time></trkpt><trkpt lat="43.2280883" lon="13.187952"><ele>234.6</ele><time>2026-05-01T07:48:23.84Z</time></trkpt><trkpt lat="43.2280713" lon="13.1880895"><ele>235.2</ele><time>2026-05-01T07:48:24.838Z</time></trkpt><trkpt lat="43.2280552" lon="13.1882218"><ele>235.79999999999998</ele><time>2026-05-01T07:48:25.838Z</time></trkpt><trkpt lat="43.2280428" lon="13.1883653"><ele>236.39999999999998</ele><time>2026-05-01T07:48:26.839Z</time></trkpt><trkpt lat="43.2280353" lon="13.1885058"><ele>237.0</ele><time>2026-05-01T07:48:27.839Z</time></trkpt><trkpt lat="43.2280397" lon="13.1886495"><ele>237.0</ele><time>2026-05-01T07:48:28.839Z</time></trkpt><trkpt lat="43.2280444" lon="13.1887868"><ele>237.0</ele><time>2026-05-01T07:48:29.838Z</time></trkpt><trkpt lat="43.2280626" lon="13.1889285"><ele>237.0</ele><time>2026-05-01T07:48:30.839Z</time></trkpt><trkpt lat="43.2280815" lon="13.1890633"><ele>237.0</ele><time>2026-05-01T07:48:31.839Z</time></trkpt><trkpt lat="43.2281049" lon="13.1891896"><ele>237.0</ele><time>2026-05-01T07:48:32.84Z</time></trkpt><trkpt lat="43.228134" lon="13.1893165"><ele>235.6</ele><time>2026-05-01T07:48:33.839Z</time></trkpt><trkpt lat="43.228163" lon="13.1894405"><ele>234.2</ele><time>2026-05-01T07:48:34.838Z</time></trkpt><trkpt lat="43.2281955" lon="13.1895642"><ele>232.8</ele><time>2026-05-01T07:48:35.838Z</time></trkpt><trkpt lat="43.228232" lon="13.1896815"><ele>231.4</ele><time>2026-05-01T07:48:36.838Z</time></trkpt><trkpt lat="43.2282698" lon="13.1897979"><ele>230.0</ele><time>2026-05-01T07:48:37.838Z</time></trkpt><trkpt lat="43.2283186" lon="13.1899075"><ele>230.0</ele><time>2026-05-01T07:48:38.839Z</time></trkpt><trkpt lat="43.2283737" lon="13.1900133"><ele>230.0</ele><time>2026-05-01T07:48:39.839Z</time></trkpt><trkpt lat="43.2284325" lon="13.190115"><ele>230.0</ele><time>2026-05-01T07:48:40.839Z</time></trkpt><trkpt lat="43.2284941" lon="13.1902192"><ele>230.0</ele><time>2026-05-01T07:48:41.839Z</time></trkpt><trkpt lat="43.2285576" lon="13.19032"><ele>230.0</ele><time>2026-05-01T07:48:42.839Z</time></trkpt><trkpt lat="43.2286213" lon="13.190417"><ele>230.0</ele><time>2026-05-01T07:48:43.839Z</time></trkpt><trkpt lat="43.2286843" lon="13.190515"><ele>230.0</ele><time>2026-05-01T07:48:44.839Z</time></trkpt><trkpt lat="43.2287494" lon="13.1906148"><ele>230.0</ele><time>2026-05-01T07:48:45.838Z</time></trkpt><trkpt lat="43.228818" lon="13.1907132"><ele>230.0</ele><time>2026-05-01T07:48:46.838Z</time></trkpt><trkpt lat="43.2288861" lon="13.1908139"><ele>230.0</ele><time>2026-05-01T07:48:47.84Z</time></trkpt><trkpt lat="43.2289504" lon="13.190922"><ele>229.0</ele><time>2026-05-01T07:48:48.839Z</time></trkpt><trkpt lat="43.2290153" lon="13.1910341"><ele>228.0</ele><time>2026-05-01T07:48:49.838Z</time></trkpt><trkpt lat="43.2290747" lon="13.1911555"><ele>227.0</ele><time>2026-05-01T07:48:50.838Z</time></trkpt><trkpt lat="43.2291265" lon="13.1912871"><ele>226.0</ele><time>2026-05-01T07:48:51.838Z</time></trkpt><trkpt lat="43.2291584" lon="13.1914307"><ele>225.0</ele><time>2026-05-01T07:48:52.838Z</time></trkpt><trkpt lat="43.2291887" lon="13.191578"><ele>225.0</ele><time>2026-05-01T07:48:53.839Z</time></trkpt><trkpt lat="43.2292152" lon="13.1917292"><ele>225.0</ele><time>2026-05-01T07:48:54.838Z</time></trkpt><trkpt lat="43.2292341" lon="13.1918846"><ele>225.0</ele><time>2026-05-01T07:48:55.839Z</time></trkpt><trkpt lat="43.229246" lon="13.1920443"><ele>225.0</ele><time>2026-05-01T07:48:56.839Z</time></trkpt><trkpt lat="43.2292618" lon="13.1922075"><ele>225.0</ele><time>2026-05-01T07:48:57.839Z</time></trkpt><trkpt lat="43.2292722" lon="13.1923681"><ele>225.0</ele><time>2026-05-01T07:48:58.839Z</time></trkpt><trkpt lat="43.2292759" lon="13.1925175"><ele>225.0</ele><time>2026-05-01T07:48:59.838Z</time></trkpt><trkpt lat="43.2292935" lon="13.1926623"><ele>225.0</ele><time>2026-05-01T07:49:00.839Z</time></trkpt><trkpt lat="43.2293033" lon="13.1928032"><ele>225.0</ele><time>2026-05-01T07:49:01.839Z</time></trkpt><trkpt lat="43.2292934" lon="13.1929344"><ele>225.0</ele><time>2026-05-01T07:49:02.839Z</time></trkpt><trkpt lat="43.2292741" lon="13.1930672"><ele>225.0</ele><time>2026-05-01T07:49:03.839Z</time></trkpt><trkpt lat="43.2292817" lon="13.1932094"><ele>225.0</ele><time>2026-05-01T07:49:04.84Z</time></trkpt><trkpt lat="43.2293173" lon="13.1933773"><ele>225.0</ele><time>2026-05-01T07:49:05.839Z</time></trkpt><trkpt lat="43.2293537" lon="13.1935707"><ele>224.66666666666669</ele><time>2026-05-01T07:49:06.839Z</time></trkpt><trkpt lat="43.2293774" lon="13.1937852"><ele>224.33333333333334</ele><time>2026-05-01T07:49:07.839Z</time></trkpt><trkpt lat="43.2293957" lon="13.194009"><ele>224.0</ele><time>2026-05-01T07:49:08.838Z</time></trkpt><trkpt lat="43.2294019" lon="13.1942187"><ele>224.0</ele><time>2026-05-01T07:49:09.839Z</time></trkpt><trkpt lat="43.2294148" lon="13.1944186"><ele>224.0</ele><time>2026-05-01T07:49:10.838Z</time></trkpt><trkpt lat="43.2294244" lon="13.194613"><ele>224.0</ele><time>2026-05-01T07:49:11.838Z</time></trkpt><trkpt lat="43.229437" lon="13.1947923"><ele>224.0</ele><time>2026-05-01T07:49:12.839Z</time></trkpt><trkpt lat="43.2294493" lon="13.1949662"><ele>223.75</ele><time>2026-05-01T07:49:13.839Z</time></trkpt><trkpt lat="43.2294623" lon="13.1951318"><ele>223.5</ele><time>2026-05-01T07:49:14.839Z</time></trkpt><trkpt lat="43.2294729" lon="13.1952898"><ele>223.25</ele><time>2026-05-01T07:49:15.839Z</time></trkpt><trkpt lat="43.2294834" lon="13.1954381"><ele>223.0</ele><time>2026-05-01T07:49:16.84Z</time></trkpt><trkpt lat="43.2294989" lon="13.1955871"><ele>223.5</ele><time>2026-05-01T07:49:17.839Z</time></trkpt><trkpt lat="43.2295147" lon="13.195739"><ele>224.0</ele><time>2026-05-01T07:49:18.838Z</time></trkpt><trkpt lat="43.2295332" lon="13.1958897"><ele>224.5</ele><time>2026-05-01T07:49:19.839Z</time></trkpt><trkpt lat="43.2295547" lon="13.1960422"><ele>225.0</ele><time>2026-05-01T07:49:20.839Z</time></trkpt><trkpt lat="43.2295792" lon="13.1962015"><ele>225.0</ele><time>2026-05-01T07:49:21.839Z</time></trkpt><trkpt lat="43.2296034" lon="13.1963609"><ele>225.0</ele><time>2026-05-01T07:49:22.839Z</time></trkpt><trkpt lat="43.2296265" lon="13.1965208"><ele>225.0</ele><time>2026-05-01T07:49:23.839Z</time></trkpt><trkpt lat="43.2296538" lon="13.1966866"><ele>225.0</ele><time>2026-05-01T07:49:24.838Z</time></trkpt><trkpt lat="43.2296847" lon="13.1968498"><ele>224.75</ele><time>2026-05-01T07:49:25.839Z</time></trkpt><trkpt lat="43.229709" lon="13.197021"><ele>224.5</ele><time>2026-05-01T07:49:26.839Z</time></trkpt><trkpt lat="43.229739" lon="13.1971964"><ele>224.25</ele><time>2026-05-01T07:49:27.839Z</time></trkpt><trkpt lat="43.2297705" lon="13.1973759"><ele>224.0</ele><time>2026-05-01T07:49:28.839Z</time></trkpt><trkpt lat="43.2298051" lon="13.1975583"><ele>222.75</ele><time>2026-05-01T07:49:29.839Z</time></trkpt><trkpt lat="43.2298387" lon="13.1977426"><ele>221.5</ele><time>2026-05-01T07:49:30.839Z</time></trkpt><trkpt lat="43.2298711" lon="13.1979305"><ele>220.25</ele><time>2026-05-01T07:49:31.839Z</time></trkpt><trkpt lat="43.2299036" lon="13.1981198"><ele>219.0</ele><time>2026-05-01T07:49:32.839Z</time></trkpt><trkpt lat="43.2299364" lon="13.1983078"><ele>219.0</ele><time>2026-05-01T07:49:33.838Z</time></trkpt><trkpt lat="43.2299677" lon="13.198498"><ele>219.0</ele><time>2026-05-01T07:49:34.839Z</time></trkpt><trkpt lat="43.2299993" lon="13.1986872"><ele>219.0</ele><time>2026-05-01T07:49:35.838Z</time></trkpt><trkpt lat="43.2300331" lon="13.1988745"><ele>219.0</ele><time>2026-05-01T07:49:36.839Z</time></trkpt><trkpt lat="43.2300663" lon="13.1990613"><ele>220.25</ele><time>2026-05-01T07:49:37.84Z</time></trkpt><trkpt lat="43.230098" lon="13.1992485"><ele>221.5</ele><time>2026-05-01T07:49:38.839Z</time></trkpt><trkpt lat="43.2301289" lon="13.1994359"><ele>222.75</ele><time>2026-05-01T07:49:39.839Z</time></trkpt><trkpt lat="43.2301585" lon="13.1996262"><ele>224.0</ele><time>2026-05-01T07:49:40.839Z</time></trkpt><trkpt lat="43.2301848" lon="13.1998142"><ele>224.75</ele><time>2026-05-01T07:49:41.838Z</time></trkpt><trkpt lat="43.2302151" lon="13.2000065"><ele>225.5</ele><time>2026-05-01T07:49:42.839Z</time></trkpt><trkpt lat="43.2302461" lon="13.2002039"><ele>226.25</ele><time>2026-05-01T07:49:43.839Z</time></trkpt><trkpt lat="43.2302744" lon="13.2004097"><ele>227.0</ele><time>2026-05-01T07:49:44.838Z</time></trkpt><trkpt lat="43.2303042" lon="13.2006352"><ele>227.66666666666669</ele><time>2026-05-01T07:49:45.839Z</time></trkpt><trkpt lat="43.2303385" lon="13.2008778"><ele>228.33333333333331</ele><time>2026-05-01T07:49:46.838Z</time></trkpt><trkpt lat="43.230371" lon="13.2011283"><ele>229.0</ele><time>2026-05-01T07:49:47.839Z</time></trkpt><trkpt lat="43.2304019" lon="13.201379"><ele>228.0</ele><time>2026-05-01T07:49:48.839Z</time></trkpt><trkpt lat="43.2304283" lon="13.2016291"><ele>227.0</ele><time>2026-05-01T07:49:49.838Z</time></trkpt><trkpt lat="43.2304536" lon="13.2018736"><ele>226.0</ele><time>2026-05-01T07:49:50.838Z</time></trkpt><trkpt lat="43.2304753" lon="13.2021151"><ele>226.0</ele><time>2026-05-01T07:49:51.838Z</time></trkpt><trkpt lat="43.230501" lon="13.2023536"><ele>226.0</ele><time>2026-05-01T07:49:52.838Z</time></trkpt><trkpt lat="43.2305235" lon="13.2025888"><ele>226.0</ele><time>2026-05-01T07:49:53.839Z</time></trkpt><trkpt lat="43.230542" lon="13.2028259"><ele>226.0</ele><time>2026-05-01T07:49:54.838Z</time></trkpt><trkpt lat="43.2305591" lon="13.2030596"><ele>226.0</ele><time>2026-05-01T07:49:55.839Z</time></trkpt><trkpt lat="43.2305774" lon="13.2032925"><ele>226.0</ele><time>2026-05-01T07:49:56.839Z</time></trkpt><trkpt lat="43.2305933" lon="13.2035278"><ele>227.33333333333331</ele><time>2026-05-01T07:49:57.838Z</time></trkpt><trkpt lat="43.2306049" lon="13.2037609"><ele>228.66666666666669</ele><time>2026-05-01T07:49:58.84Z</time></trkpt><trkpt lat="43.2306143" lon="13.2039868"><ele>230.0</ele><time>2026-05-01T07:49:59.839Z</time></trkpt><trkpt lat="43.2306236" lon="13.2042043"><ele>230.5</ele><time>2026-05-01T07:50:00.838Z</time></trkpt><trkpt lat="43.2306342" lon="13.2044144"><ele>231.0</ele><time>2026-05-01T07:50:01.838Z</time></trkpt><trkpt lat="43.2306446" lon="13.2046092"><ele>231.5</ele><time>2026-05-01T07:50:02.838Z</time></trkpt><trkpt lat="43.2306564" lon="13.2047879"><ele>232.0</ele><time>2026-05-01T07:50:03.838Z</time></trkpt><trkpt lat="43.2306623" lon="13.204956"><ele>232.5</ele><time>2026-05-01T07:50:04.839Z</time></trkpt><trkpt lat="43.2306548" lon="13.2051161"><ele>233.0</ele><time>2026-05-01T07:50:05.838Z</time></trkpt><trkpt lat="43.2306256" lon="13.2052684"><ele>233.5</ele><time>2026-05-01T07:50:06.837Z</time></trkpt><trkpt lat="43.2305763" lon="13.2054133"><ele>234.0</ele><time>2026-05-01T07:50:07.839Z</time></trkpt><trkpt lat="43.2305231" lon="13.2055498"><ele>234.6</ele><time>2026-05-01T07:50:08.839Z</time></trkpt><trkpt lat="43.2304712" lon="13.2056854"><ele>235.2</ele><time>2026-05-01T07:50:09.838Z</time></trkpt><trkpt lat="43.2304258" lon="13.2058128"><ele>235.79999999999998</ele><time>2026-05-01T07:50:10.838Z</time></trkpt><trkpt lat="43.2303799" lon="13.2059373"><ele>236.39999999999998</ele><time>2026-05-01T07:50:11.838Z</time></trkpt><trkpt lat="43.2303365" lon="13.206062"><ele>237.0</ele><time>2026-05-01T07:50:12.837Z</time></trkpt><trkpt lat="43.2302908" lon="13.2061872"><ele>237.0</ele><time>2026-05-01T07:50:13.837Z</time></trkpt><trkpt lat="43.2302395" lon="13.206303"><ele>237.0</ele><time>2026-05-01T07:50:14.838Z</time></trkpt><trkpt lat="43.2301857" lon="13.2064026"><ele>237.0</ele><time>2026-05-01T07:50:15.837Z</time></trkpt><trkpt lat="43.2301257" lon="13.2064826"><ele>237.0</ele><time>2026-05-01T07:50:16.839Z</time></trkpt><trkpt lat="43.2300563" lon="13.2065553"><ele>237.0</ele><time>2026-05-01T07:50:17.838Z</time></trkpt><trkpt lat="43.2299778" lon="13.2066277"><ele>236.8</ele><time>2026-05-01T07:50:18.839Z</time></trkpt><trkpt lat="43.2298961" lon="13.2067041"><ele>236.6</ele><time>2026-05-01T07:50:19.838Z</time></trkpt><trkpt lat="43.2298124" lon="13.2067746"><ele>236.40000000000003</ele><time>2026-05-01T07:50:20.837Z</time></trkpt><trkpt lat="43.2297225" lon="13.2068373"><ele>236.20000000000002</ele><time>2026-05-01T07:50:21.838Z</time></trkpt><trkpt lat="43.2296325" lon="13.2068909"><ele>236.0</ele><time>2026-05-01T07:50:22.837Z</time></trkpt><trkpt lat="43.2295367" lon="13.2069251"><ele>237.20000000000002</ele><time>2026-05-01T07:50:23.837Z</time></trkpt><trkpt lat="43.2294369" lon="13.2069353"><ele>238.40000000000003</ele><time>2026-05-01T07:50:24.838Z</time></trkpt><trkpt lat="43.2293276" lon="13.2069419"><ele>239.6</ele><time>2026-05-01T07:50:25.837Z</time></trkpt><trkpt lat="43.2292155" lon="13.2069459"><ele>240.8</ele><time>2026-05-01T07:50:26.838Z</time></trkpt><trkpt lat="43.2290978" lon="13.2069377"><ele>242.0</ele><time>2026-05-01T07:50:27.838Z</time></trkpt><trkpt lat="43.2289798" lon="13.2069128"><ele>242.0</ele><time>2026-05-01T07:50:28.837Z</time></trkpt><trkpt lat="43.2288573" lon="13.2069133"><ele>242.0</ele><time>2026-05-01T07:50:29.838Z</time></trkpt><trkpt lat="43.2287365" lon="13.2069361"><ele>242.0</ele><time>2026-05-01T07:50:30.838Z</time></trkpt><trkpt lat="43.2286231" lon="13.206975"><ele>242.0</ele><time>2026-05-01T07:50:31.838Z</time></trkpt><trkpt lat="43.2285087" lon="13.2070059"><ele>242.0</ele><time>2026-05-01T07:50:32.838Z</time></trkpt><trkpt lat="43.2283947" lon="13.2070346"><ele>242.0</ele><time>2026-05-01T07:50:33.837Z</time></trkpt><trkpt lat="43.2282895" lon="13.2070593"><ele>242.0</ele><time>2026-05-01T07:50:34.837Z</time></trkpt><trkpt lat="43.2281701" lon="13.2070563"><ele>242.0</ele><time>2026-05-01T07:50:35.838Z</time></trkpt><trkpt lat="43.2280548" lon="13.2070586"><ele>240.75</ele><time>2026-05-01T07:50:36.838Z</time></trkpt><trkpt lat="43.2279411" lon="13.2070615"><ele>239.5</ele><time>2026-05-01T07:50:37.837Z</time></trkpt><trkpt lat="43.2278258" lon="13.2070685"><ele>238.25</ele><time>2026-05-01T07:50:38.838Z</time></trkpt><trkpt lat="43.227709" lon="13.2070576"><ele>237.0</ele><time>2026-05-01T07:50:39.838Z</time></trkpt><trkpt lat="43.227592" lon="13.2070225"><ele>237.0</ele><time>2026-05-01T07:50:40.838Z</time></trkpt><trkpt lat="43.2274777" lon="13.2069715"><ele>237.0</ele><time>2026-05-01T07:50:41.837Z</time></trkpt><trkpt lat="43.2273721" lon="13.2069079"><ele>237.0</ele><time>2026-05-01T07:50:42.838Z</time></trkpt><trkpt lat="43.2272717" lon="13.2068295"><ele>237.0</ele><time>2026-05-01T07:50:43.838Z</time></trkpt><trkpt lat="43.2271681" lon="13.2067742"><ele>237.8</ele><time>2026-05-01T07:50:44.838Z</time></trkpt><trkpt lat="43.2270629" lon="13.2067576"><ele>238.6</ele><time>2026-05-01T07:50:45.837Z</time></trkpt><trkpt lat="43.2269694" lon="13.2067878"><ele>239.40000000000003</ele><time>2026-05-01T07:50:46.838Z</time></trkpt><trkpt lat="43.226891" lon="13.206848"><ele>240.20000000000002</ele><time>2026-05-01T07:50:47.838Z</time></trkpt><trkpt lat="43.2268232" lon="13.2069218"><ele>241.0</ele><time>2026-05-01T07:50:48.837Z</time></trkpt><trkpt lat="43.2267583" lon="13.2069931"><ele>240.99999999999997</ele><time>2026-05-01T07:50:49.838Z</time></trkpt><trkpt lat="43.2266993" lon="13.2070491"><ele>241.0</ele><time>2026-05-01T07:50:50.837Z</time></trkpt><trkpt lat="43.2266356" lon="13.2070953"><ele>241.0</ele><time>2026-05-01T07:50:51.838Z</time></trkpt><trkpt lat="43.2265796" lon="13.2071426"><ele>241.0</ele><time>2026-05-01T07:50:52.837Z</time></trkpt><trkpt lat="43.2265247" lon="13.2071951"><ele>240.99999999999997</ele><time>2026-05-01T07:50:53.837Z</time></trkpt><trkpt lat="43.2264205" lon="13.2072933"><ele>241.0</ele><time>2026-05-01T07:50:55.837Z</time></trkpt><trkpt lat="43.2263166" lon="13.2073775"><ele>240.49999999999997</ele><time>2026-05-01T07:50:57.837Z</time></trkpt><trkpt lat="43.2262542" lon="13.2073922"><ele>240.0</ele><time>2026-05-01T07:50:58.837Z</time></trkpt><trkpt lat="43.2261911" lon="13.2073927"><ele>239.5</ele><time>2026-05-01T07:50:59.839Z</time></trkpt><trkpt lat="43.2261271" lon="13.2073812"><ele>239.0</ele><time>2026-05-01T07:51:00.838Z</time></trkpt><trkpt lat="43.2260629" lon="13.2073555"><ele>238.49999999999997</ele><time>2026-05-01T07:51:01.838Z</time></trkpt><trkpt lat="43.2260023" lon="13.2073204"><ele>238.0</ele><time>2026-05-01T07:51:02.837Z</time></trkpt><trkpt lat="43.2259023" lon="13.2072112"><ele>240.0</ele><time>2026-05-01T07:51:04.837Z</time></trkpt><trkpt lat="43.2258511" lon="13.2071564"><ele>242.0</ele><time>2026-05-01T07:51:05.838Z</time></trkpt><trkpt lat="43.2258013" lon="13.2071034"><ele>244.0</ele><time>2026-05-01T07:51:06.837Z</time></trkpt><trkpt lat="43.2257516" lon="13.2070466"><ele>246.0</ele><time>2026-05-01T07:51:07.839Z</time></trkpt><trkpt lat="43.2256991" lon="13.2069895"><ele>248.0</ele><time>2026-05-01T07:51:08.838Z</time></trkpt><trkpt lat="43.2256455" lon="13.2069324"><ele>250.0</ele><time>2026-05-01T07:51:09.837Z</time></trkpt><trkpt lat="43.2255887" lon="13.2068809"><ele>252.0</ele><time>2026-05-01T07:51:10.838Z</time></trkpt><trkpt lat="43.2255317" lon="13.2068293"><ele>252.8</ele><time>2026-05-01T07:51:11.837Z</time></trkpt><trkpt lat="43.2254795" lon="13.2067764"><ele>253.6</ele><time>2026-05-01T07:51:12.839Z</time></trkpt><trkpt lat="43.2253842" lon="13.2066721"><ele>254.40000000000003</ele><time>2026-05-01T07:51:14.839Z</time></trkpt><trkpt lat="43.2253278" lon="13.2065656"><ele>255.20000000000002</ele><time>2026-05-01T07:51:16.838Z</time></trkpt><trkpt lat="43.2253337" lon="13.2064421"><ele>256.0</ele><time>2026-05-01T07:51:18.839Z</time></trkpt><trkpt lat="43.2253974" lon="13.2063598"><ele>257.8</ele><time>2026-05-01T07:51:20.838Z</time></trkpt><trkpt lat="43.2254733" lon="13.2062727"><ele>259.6</ele><time>2026-05-01T07:51:22.839Z</time></trkpt><trkpt lat="43.2255544" lon="13.2061772"><ele>261.4</ele><time>2026-05-01T07:51:24.837Z</time></trkpt><trkpt lat="43.2256292" lon="13.2060824"><ele>263.2</ele><time>2026-05-01T07:51:26.838Z</time></trkpt><trkpt lat="43.2256986" lon="13.2059802"><ele>265.0</ele><time>2026-05-01T07:51:28.837Z</time></trkpt><trkpt lat="43.2257724" lon="13.2058846"><ele>265.0</ele><time>2026-05-01T07:51:30.838Z</time></trkpt><trkpt lat="43.2258168" lon="13.2057755"><ele>265.0</ele><time>2026-05-01T07:51:32.839Z</time></trkpt><trkpt lat="43.2257751" lon="13.2057042"><ele>265.0</ele><time>2026-05-01T07:51:36.838Z</time></trkpt><trkpt lat="43.2258032" lon="13.2058115"><ele>265.0</ele><time>2026-05-01T07:51:47.838Z</time></trkpt><trkpt lat="43.2257732" lon="13.2058965"><ele>265.0</ele><time>2026-05-01T07:51:49.838Z</time></trkpt><trkpt lat="43.2257048" lon="13.2059752"><ele>265.0</ele><time>2026-05-01T07:51:51.837Z</time></trkpt><trkpt lat="43.2256374" lon="13.206063"><ele>263.5</ele><time>2026-05-01T07:51:53.837Z</time></trkpt><trkpt lat="43.2255723" lon="13.2061519"><ele>262.0</ele><time>2026-05-01T07:51:55.838Z</time></trkpt><trkpt lat="43.2255024" lon="13.206244"><ele>260.5</ele><time>2026-05-01T07:51:57.838Z</time></trkpt><trkpt lat="43.2254313" lon="13.2063312"><ele>259.0</ele><time>2026-05-01T07:51:59.837Z</time></trkpt><trkpt lat="43.2253742" lon="13.206407"><ele>257.5</ele><time>2026-05-01T07:52:01.837Z</time></trkpt><trkpt lat="43.2253419" lon="13.206489"><ele>256.0</ele><time>2026-05-01T07:52:03.838Z</time></trkpt><trkpt lat="43.2253511" lon="13.2065801"><ele>255.99999999999997</ele><time>2026-05-01T07:52:05.839Z</time></trkpt><trkpt lat="43.2253937" lon="13.2066534"><ele>256.0</ele><time>2026-05-01T07:52:07.837Z</time></trkpt><trkpt lat="43.2254472" lon="13.2067135"><ele>256.0</ele><time>2026-05-01T07:52:09.838Z</time></trkpt><trkpt lat="43.2255062" lon="13.2067723"><ele>256.0</ele><time>2026-05-01T07:52:11.838Z</time></trkpt><trkpt lat="43.2255759" lon="13.2068398"><ele>255.99999999999997</ele><time>2026-05-01T07:52:13.837Z</time></trkpt><trkpt lat="43.2256513" lon="13.2069157"><ele>256.0</ele><time>2026-05-01T07:52:15.837Z</time></trkpt><trkpt lat="43.2257195" lon="13.2069967"><ele>255.33333333333331</ele><time>2026-05-01T07:52:17.838Z</time></trkpt><trkpt lat="43.2257846" lon="13.2070707"><ele>254.66666666666666</ele><time>2026-05-01T07:52:19.837Z</time></trkpt><trkpt lat="43.2258462" lon="13.2071376"><ele>254.0</ele><time>2026-05-01T07:52:21.838Z</time></trkpt><trkpt lat="43.2259037" lon="13.2072054"><ele>253.33333333333331</ele><time>2026-05-01T07:52:23.838Z</time></trkpt><trkpt lat="43.2259627" lon="13.2072718"><ele>252.66666666666666</ele><time>2026-05-01T07:52:25.838Z</time></trkpt><trkpt lat="43.226033" lon="13.2073313"><ele>252.0</ele><time>2026-05-01T07:52:27.838Z</time></trkpt><trkpt lat="43.2261145" lon="13.2073641"><ele>252.0</ele><time>2026-05-01T07:52:29.838Z</time></trkpt><trkpt lat="43.2261999" lon="13.2073815"><ele>252.0</ele><time>2026-05-01T07:52:31.838Z</time></trkpt><trkpt lat="43.2262851" lon="13.2073738"><ele>252.0</ele><time>2026-05-01T07:52:33.839Z</time></trkpt><trkpt lat="43.226358" lon="13.2073285"><ele>252.0</ele><time>2026-05-01T07:52:35.839Z</time></trkpt><trkpt lat="43.2264211" lon="13.2072556"><ele>252.0</ele><time>2026-05-01T07:52:37.838Z</time></trkpt><trkpt lat="43.2264986" lon="13.2071834"><ele>252.0</ele><time>2026-05-01T07:52:39.837Z</time></trkpt><trkpt lat="43.2265655" lon="13.2071169"><ele>252.0</ele><time>2026-05-01T07:52:41.838Z</time></trkpt><trkpt lat="43.2266143" lon="13.2071717"><ele>252.0</ele><time>2026-05-01T07:52:46.838Z</time></trkpt><trkpt lat="43.2265392" lon="13.2072133"><ele>252.0</ele><time>2026-05-01T07:52:49.837Z</time></trkpt><trkpt lat="43.2264776" lon="13.2072948"><ele>252.0</ele><time>2026-05-01T07:52:52.838Z</time></trkpt><trkpt lat="43.2264272" lon="13.2073639"><ele>252.0</ele><time>2026-05-01T07:52:54.837Z</time></trkpt><trkpt lat="43.2263684" lon="13.2074343"><ele>252.0</ele><time>2026-05-01T07:52:56.837Z</time></trkpt><trkpt lat="43.2263071" lon="13.2074967"><ele>249.66666666666666</ele><time>2026-05-01T07:52:58.838Z</time></trkpt><trkpt lat="43.2262483" lon="13.207553"><ele>247.33333333333331</ele><time>2026-05-01T07:53:00.837Z</time></trkpt><trkpt lat="43.2261741" lon="13.2075776"><ele>245.0</ele><time>2026-05-01T07:53:29.838Z</time></trkpt><trkpt lat="43.2260975" lon="13.2075404"><ele>242.66666666666666</ele><time>2026-05-01T07:53:32.837Z</time></trkpt><trkpt lat="43.2260288" lon="13.2075219"><ele>240.33333333333331</ele><time>2026-05-01T07:53:34.838Z</time></trkpt><trkpt lat="43.2259442" lon="13.2075006"><ele>238.0</ele><time>2026-05-01T07:53:36.838Z</time></trkpt><trkpt lat="43.2258368" lon="13.2075068"><ele>237.99999999999997</ele><time>2026-05-01T07:53:38.838Z</time></trkpt><trkpt lat="43.2257114" lon="13.2075141"><ele>238.0</ele><time>2026-05-01T07:53:40.837Z</time></trkpt><trkpt lat="43.2256399" lon="13.2075131"><ele>238.0</ele><time>2026-05-01T07:53:41.837Z</time></trkpt><trkpt lat="43.2255634" lon="13.2075101"><ele>238.0</ele><time>2026-05-01T07:53:42.838Z</time></trkpt><trkpt lat="43.2254873" lon="13.207514"><ele>237.99999999999997</ele><time>2026-05-01T07:53:43.838Z</time></trkpt><trkpt lat="43.2254079" lon="13.2075177"><ele>238.0</ele><time>2026-05-01T07:53:44.837Z</time></trkpt><trkpt lat="43.2253305" lon="13.2075245"><ele>238.49999999999997</ele><time>2026-05-01T07:53:45.837Z</time></trkpt><trkpt lat="43.2252523" lon="13.2075313"><ele>239.0</ele><time>2026-05-01T07:53:46.838Z</time></trkpt><trkpt lat="43.2251736" lon="13.2075402"><ele>239.5</ele><time>2026-05-01T07:53:47.838Z</time></trkpt><trkpt lat="43.2250993" lon="13.2075569"><ele>240.0</ele><time>2026-05-01T07:53:48.837Z</time></trkpt><trkpt lat="43.225017" lon="13.2075775"><ele>240.49999999999997</ele><time>2026-05-01T07:53:49.838Z</time></trkpt><trkpt lat="43.2249354" lon="13.207594"><ele>241.0</ele><time>2026-05-01T07:53:50.837Z</time></trkpt><trkpt lat="43.22485" lon="13.2076028"><ele>241.99999999999997</ele><time>2026-05-01T07:53:51.837Z</time></trkpt><trkpt lat="43.2247647" lon="13.2076174"><ele>243.0</ele><time>2026-05-01T07:53:52.837Z</time></trkpt><trkpt lat="43.2246842" lon="13.2076314"><ele>244.0</ele><time>2026-05-01T07:53:53.838Z</time></trkpt><trkpt lat="43.2245984" lon="13.2076487"><ele>245.0</ele><time>2026-05-01T07:53:54.838Z</time></trkpt><trkpt lat="43.2245118" lon="13.2076692"><ele>245.99999999999997</ele><time>2026-05-01T07:53:55.837Z</time></trkpt><trkpt lat="43.224432" lon="13.2076754"><ele>247.0</ele><time>2026-05-01T07:53:56.837Z</time></trkpt><trkpt lat="43.2243476" lon="13.2076757"><ele>246.99999999999997</ele><time>2026-05-01T07:53:57.837Z</time></trkpt><trkpt lat="43.2242618" lon="13.2076741"><ele>247.0</ele><time>2026-05-01T07:53:58.838Z</time></trkpt><trkpt lat="43.2241759" lon="13.207665"><ele>247.0</ele><time>2026-05-01T07:53:59.838Z</time></trkpt><trkpt lat="43.224096" lon="13.2076641"><ele>247.0</ele><time>2026-05-01T07:54:00.838Z</time></trkpt><trkpt lat="43.2239911" lon="13.2076792"><ele>246.99999999999997</ele><time>2026-05-01T07:54:01.838Z</time></trkpt><trkpt lat="43.2239039" lon="13.2077162"><ele>247.0</ele><time>2026-05-01T07:54:02.838Z</time></trkpt><trkpt lat="43.2238126" lon="13.2077515"><ele>247.83333333333331</ele><time>2026-05-01T07:54:03.838Z</time></trkpt><trkpt lat="43.2237298" lon="13.207804"><ele>248.66666666666666</ele><time>2026-05-01T07:54:04.839Z</time></trkpt><trkpt lat="43.2236518" lon="13.2078625"><ele>249.5</ele><time>2026-05-01T07:54:05.837Z</time></trkpt><trkpt lat="43.2235737" lon="13.2079193"><ele>250.33333333333331</ele><time>2026-05-01T07:54:06.837Z</time></trkpt><trkpt lat="43.2234974" lon="13.2079815"><ele>251.16666666666666</ele><time>2026-05-01T07:54:07.837Z</time></trkpt><trkpt lat="43.2234197" lon="13.2080255"><ele>252.0</ele><time>2026-05-01T07:54:08.837Z</time></trkpt><trkpt lat="43.2233342" lon="13.2080424"><ele>252.0</ele><time>2026-05-01T07:54:09.837Z</time></trkpt><trkpt lat="43.223246" lon="13.2080414"><ele>252.0</ele><time>2026-05-01T07:54:10.837Z</time></trkpt><trkpt lat="43.2231591" lon="13.2080206"><ele>252.0</ele><time>2026-05-01T07:54:11.837Z</time></trkpt><trkpt lat="43.2230741" lon="13.2080201"><ele>252.0</ele><time>2026-05-01T07:54:12.837Z</time></trkpt><trkpt lat="43.2230006" lon="13.2080508"><ele>252.0</ele><time>2026-05-01T07:54:13.837Z</time></trkpt><trkpt lat="43.2229315" lon="13.2081036"><ele>252.0</ele><time>2026-05-01T07:54:14.838Z</time></trkpt><trkpt lat="43.222873" lon="13.2081566"><ele>251.14285714285714</ele><time>2026-05-01T07:54:15.837Z</time></trkpt><trkpt lat="43.2228138" lon="13.2082115"><ele>250.28571428571428</ele><time>2026-05-01T07:54:16.837Z</time></trkpt><trkpt lat="43.2227616" lon="13.2082742"><ele>249.42857142857144</ele><time>2026-05-01T07:54:17.837Z</time></trkpt><trkpt lat="43.2227159" lon="13.2083411"><ele>248.57142857142858</ele><time>2026-05-01T07:54:18.838Z</time></trkpt><trkpt lat="43.2226783" lon="13.2084249"><ele>247.71428571428572</ele><time>2026-05-01T07:54:19.838Z</time></trkpt><trkpt lat="43.2226449" lon="13.2085198"><ele>246.8571428571429</ele><time>2026-05-01T07:54:20.837Z</time></trkpt><trkpt lat="43.2226103" lon="13.2086189"><ele>246.00000000000003</ele><time>2026-05-01T07:54:21.837Z</time></trkpt><trkpt lat="43.2225728" lon="13.2087209"><ele>246.0</ele><time>2026-05-01T07:54:22.837Z</time></trkpt><trkpt lat="43.2225278" lon="13.2088244"><ele>246.0</ele><time>2026-05-01T07:54:23.838Z</time></trkpt><trkpt lat="43.2224728" lon="13.2089181"><ele>246.0</ele><time>2026-05-01T07:54:24.838Z</time></trkpt><trkpt lat="43.2224142" lon="13.2089956"><ele>246.0</ele><time>2026-05-01T07:54:25.838Z</time></trkpt><trkpt lat="43.222334" lon="13.2090496"><ele>246.0</ele><time>2026-05-01T07:54:26.837Z</time></trkpt><trkpt lat="43.2222523" lon="13.2090864"><ele>246.0</ele><time>2026-05-01T07:54:27.838Z</time></trkpt><trkpt lat="43.222165" lon="13.2091226"><ele>245.5</ele><time>2026-05-01T07:54:28.838Z</time></trkpt><trkpt lat="43.2220764" lon="13.2091404"><ele>245.0</ele><time>2026-05-01T07:54:29.837Z</time></trkpt><trkpt lat="43.2219919" lon="13.209146"><ele>244.5</ele><time>2026-05-01T07:54:30.837Z</time></trkpt><trkpt lat="43.2219063" lon="13.2091487"><ele>244.0</ele><time>2026-05-01T07:54:31.837Z</time></trkpt><trkpt lat="43.2218162" lon="13.2091537"><ele>243.5</ele><time>2026-05-01T07:54:32.837Z</time></trkpt><trkpt lat="43.2217343" lon="13.2091605"><ele>243.0</ele><time>2026-05-01T07:54:33.838Z</time></trkpt><trkpt lat="43.2216567" lon="13.2091752"><ele>243.0</ele><time>2026-05-01T07:54:34.838Z</time></trkpt><trkpt lat="43.2215773" lon="13.2091978"><ele>243.0</ele><time>2026-05-01T07:54:35.838Z</time></trkpt><trkpt lat="43.2215135" lon="13.2092258"><ele>243.0</ele><time>2026-05-01T07:54:36.838Z</time></trkpt><trkpt lat="43.2214422" lon="13.2092732"><ele>243.0</ele><time>2026-05-01T07:54:37.839Z</time></trkpt><trkpt lat="43.2213832" lon="13.2093194"><ele>243.0</ele><time>2026-05-01T07:54:38.838Z</time></trkpt><trkpt lat="43.2213237" lon="13.2093667"><ele>243.0</ele><time>2026-05-01T07:54:39.838Z</time></trkpt><trkpt lat="43.2212617" lon="13.2094165"><ele>243.0</ele><time>2026-05-01T07:54:40.837Z</time></trkpt><trkpt lat="43.2212034" lon="13.2094684"><ele>243.33333333333334</ele><time>2026-05-01T07:54:41.838Z</time></trkpt><trkpt lat="43.2211446" lon="13.2095243"><ele>243.66666666666669</ele><time>2026-05-01T07:54:42.838Z</time></trkpt><trkpt lat="43.2210743" lon="13.209579"><ele>244.0</ele><time>2026-05-01T07:54:43.837Z</time></trkpt><trkpt lat="43.221007" lon="13.2096328"><ele>244.33333333333334</ele><time>2026-05-01T07:54:44.838Z</time></trkpt><trkpt lat="43.2209384" lon="13.2096989"><ele>244.66666666666669</ele><time>2026-05-01T07:54:45.838Z</time></trkpt><trkpt lat="43.2208619" lon="13.2097656"><ele>245.0</ele><time>2026-05-01T07:54:46.837Z</time></trkpt><trkpt lat="43.220783" lon="13.2098331"><ele>245.4</ele><time>2026-05-01T07:54:47.839Z</time></trkpt><trkpt lat="43.2207087" lon="13.2099014"><ele>245.8</ele><time>2026-05-01T07:54:48.837Z</time></trkpt><trkpt lat="43.2206446" lon="13.209969"><ele>246.2</ele><time>2026-05-01T07:54:49.839Z</time></trkpt><trkpt lat="43.2205751" lon="13.2100386"><ele>246.6</ele><time>2026-05-01T07:54:50.837Z</time></trkpt><trkpt lat="43.2204976" lon="13.2101116"><ele>247.0</ele><time>2026-05-01T07:54:51.839Z</time></trkpt><trkpt lat="43.2204087" lon="13.2101911"><ele>247.0</ele><time>2026-05-01T07:54:52.837Z</time></trkpt><trkpt lat="43.2203199" lon="13.2102799"><ele>247.0</ele><time>2026-05-01T07:54:53.838Z</time></trkpt><trkpt lat="43.2202342" lon="13.2103618"><ele>247.0</ele><time>2026-05-01T07:54:54.838Z</time></trkpt><trkpt lat="43.2201341" lon="13.210435"><ele>247.0</ele><time>2026-05-01T07:54:55.837Z</time></trkpt><trkpt lat="43.2200382" lon="13.2105148"><ele>247.0</ele><time>2026-05-01T07:54:56.838Z</time></trkpt><trkpt lat="43.2199486" lon="13.2105942"><ele>247.8</ele><time>2026-05-01T07:54:57.837Z</time></trkpt><trkpt lat="43.219865" lon="13.2106681"><ele>248.6</ele><time>2026-05-01T07:54:58.839Z</time></trkpt><trkpt lat="43.2197852" lon="13.2107453"><ele>249.40000000000003</ele><time>2026-05-01T07:54:59.837Z</time></trkpt><trkpt lat="43.2197074" lon="13.2108215"><ele>250.20000000000002</ele><time>2026-05-01T07:55:00.838Z</time></trkpt><trkpt lat="43.2196276" lon="13.2108954"><ele>251.0</ele><time>2026-05-01T07:55:01.837Z</time></trkpt><trkpt lat="43.2195495" lon="13.2109674"><ele>252.60000000000002</ele><time>2026-05-01T07:55:02.838Z</time></trkpt><trkpt lat="43.219472" lon="13.2110432"><ele>254.20000000000002</ele><time>2026-05-01T07:55:03.837Z</time></trkpt><trkpt lat="43.219389" lon="13.2111406"><ele>255.79999999999998</ele><time>2026-05-01T07:55:04.838Z</time></trkpt><trkpt lat="43.219306" lon="13.2112564"><ele>257.4</ele><time>2026-05-01T07:55:05.839Z</time></trkpt><trkpt lat="43.2192279" lon="13.2113685"><ele>259.0</ele><time>2026-05-01T07:55:06.838Z</time></trkpt><trkpt lat="43.2191572" lon="13.2114718"><ele>260.59999999999997</ele><time>2026-05-01T07:55:07.838Z</time></trkpt><trkpt lat="43.2190965" lon="13.211565"><ele>262.2</ele><time>2026-05-01T07:55:08.837Z</time></trkpt><trkpt lat="43.2190307" lon="13.2116559"><ele>263.79999999999995</ele><time>2026-05-01T07:55:09.837Z</time></trkpt><trkpt lat="43.2189671" lon="13.2117488"><ele>265.4</ele><time>2026-05-01T07:55:10.838Z</time></trkpt><trkpt lat="43.2188991" lon="13.2118446"><ele>267.0</ele><time>2026-05-01T07:55:11.838Z</time></trkpt><trkpt lat="43.2188357" lon="13.2119392"><ele>268.6</ele><time>2026-05-01T07:55:12.837Z</time></trkpt><trkpt lat="43.2187693" lon="13.212033"><ele>270.2</ele><time>2026-05-01T07:55:13.838Z</time></trkpt><trkpt lat="43.2187095" lon="13.2121232"><ele>271.8</ele><time>2026-05-01T07:55:14.838Z</time></trkpt><trkpt lat="43.2186534" lon="13.212217"><ele>273.4</ele><time>2026-05-01T07:55:15.838Z</time></trkpt><trkpt lat="43.2185988" lon="13.2123153"><ele>275.0</ele><time>2026-05-01T07:55:16.837Z</time></trkpt><trkpt lat="43.21854" lon="13.2124063"><ele>276.6</ele><time>2026-05-01T07:55:17.839Z</time></trkpt><trkpt lat="43.2184882" lon="13.2125038"><ele>278.2</ele><time>2026-05-01T07:55:18.838Z</time></trkpt><trkpt lat="43.2184265" lon="13.2125978"><ele>279.8</ele><time>2026-05-01T07:55:19.839Z</time></trkpt><trkpt lat="43.2183654" lon="13.2126989"><ele>281.4</ele><time>2026-05-01T07:55:20.839Z</time></trkpt><trkpt lat="43.2183067" lon="13.2128045"><ele>283.0</ele><time>2026-05-01T07:55:21.838Z</time></trkpt><trkpt lat="43.2182492" lon="13.2129068"><ele>283.0</ele><time>2026-05-01T07:55:22.838Z</time></trkpt><trkpt lat="43.2181914" lon="13.2130104"><ele>283.0</ele><time>2026-05-01T07:55:23.838Z</time></trkpt><trkpt lat="43.2181341" lon="13.213112"><ele>283.0</ele><time>2026-05-01T07:55:24.838Z</time></trkpt><trkpt lat="43.2180757" lon="13.2132161"><ele>283.0</ele><time>2026-05-01T07:55:25.838Z</time></trkpt><trkpt lat="43.2180197" lon="13.2133185"><ele>283.0</ele><time>2026-05-01T07:55:26.838Z</time></trkpt><trkpt lat="43.2179614" lon="13.2134206"><ele>286.8</ele><time>2026-05-01T07:55:27.838Z</time></trkpt><trkpt lat="43.217905" lon="13.2135178"><ele>290.6</ele><time>2026-05-01T07:55:28.838Z</time></trkpt><trkpt lat="43.2178456" lon="13.2136158"><ele>294.4</ele><time>2026-05-01T07:55:29.839Z</time></trkpt><trkpt lat="43.2177892" lon="13.2137125"><ele>298.2</ele><time>2026-05-01T07:55:30.839Z</time></trkpt><trkpt lat="43.2177387" lon="13.213812"><ele>302.0</ele><time>2026-05-01T07:55:31.838Z</time></trkpt><trkpt lat="43.2176865" lon="13.2139119"><ele>303.5</ele><time>2026-05-01T07:55:32.838Z</time></trkpt><trkpt lat="43.2176348" lon="13.2140104"><ele>305.0</ele><time>2026-05-01T07:55:33.838Z</time></trkpt><trkpt lat="43.2175857" lon="13.2141067"><ele>306.5</ele><time>2026-05-01T07:55:34.838Z</time></trkpt><trkpt lat="43.2175359" lon="13.2142043"><ele>308.0</ele><time>2026-05-01T07:55:35.838Z</time></trkpt><trkpt lat="43.217486" lon="13.2143037"><ele>309.5</ele><time>2026-05-01T07:55:36.837Z</time></trkpt><trkpt lat="43.2174472" lon="13.2144005"><ele>311.0</ele><time>2026-05-01T07:55:37.837Z</time></trkpt><trkpt lat="43.2174002" lon="13.2144987"><ele>311.0</ele><time>2026-05-01T07:55:38.837Z</time></trkpt><trkpt lat="43.2173489" lon="13.2146004"><ele>311.0</ele><time>2026-05-01T07:55:39.838Z</time></trkpt><trkpt lat="43.2172975" lon="13.2146999"><ele>311.0</ele><time>2026-05-01T07:55:40.839Z</time></trkpt><trkpt lat="43.2172414" lon="13.2147959"><ele>311.0</ele><time>2026-05-01T07:55:41.839Z</time></trkpt><trkpt lat="43.2171832" lon="13.2148883"><ele>311.0</ele><time>2026-05-01T07:55:42.837Z</time></trkpt><trkpt lat="43.2171215" lon="13.2149758"><ele>311.0</ele><time>2026-05-01T07:55:43.838Z</time></trkpt><trkpt lat="43.2170603" lon="13.2150626"><ele>314.83333333333337</ele><time>2026-05-01T07:55:44.838Z</time></trkpt><trkpt lat="43.2169976" lon="13.215147"><ele>318.6666666666667</ele><time>2026-05-01T07:55:45.838Z</time></trkpt><trkpt lat="43.2169317" lon="13.2152224"><ele>322.5</ele><time>2026-05-01T07:55:46.837Z</time></trkpt><trkpt lat="43.2168638" lon="13.2152902"><ele>326.3333333333333</ele><time>2026-05-01T07:55:47.837Z</time></trkpt><trkpt lat="43.2167986" lon="13.2153607"><ele>330.16666666666663</ele><time>2026-05-01T07:55:48.839Z</time></trkpt><trkpt lat="43.2167415" lon="13.2154256"><ele>334.0</ele><time>2026-05-01T07:55:49.837Z</time></trkpt><trkpt lat="43.2166958" lon="13.2154875"><ele>334.0</ele><time>2026-05-01T07:55:50.839Z</time></trkpt><trkpt lat="43.2166526" lon="13.2155542"><ele>334.0</ele><time>2026-05-01T07:55:51.837Z</time></trkpt><trkpt lat="43.2166102" lon="13.2156219"><ele>334.0</ele><time>2026-05-01T07:55:52.837Z</time></trkpt><trkpt lat="43.2165649" lon="13.2156877"><ele>334.0</ele><time>2026-05-01T07:55:53.837Z</time></trkpt><trkpt lat="43.2164806" lon="13.2158182"><ele>334.0</ele><time>2026-05-01T07:55:55.838Z</time></trkpt><trkpt lat="43.2163919" lon="13.2159411"><ele>334.0</ele><time>2026-05-01T07:55:57.838Z</time></trkpt><trkpt lat="43.2163453" lon="13.2160032"><ele>337.1428571428571</ele><time>2026-05-01T07:55:58.837Z</time></trkpt><trkpt lat="43.2162935" lon="13.2160647"><ele>340.2857142857143</ele><time>2026-05-01T07:55:59.838Z</time></trkpt><trkpt lat="43.2162378" lon="13.2161167"><ele>343.42857142857144</ele><time>2026-05-01T07:56:00.839Z</time></trkpt><trkpt lat="43.2161774" lon="13.2161637"><ele>346.57142857142856</ele><time>2026-05-01T07:56:01.838Z</time></trkpt><trkpt lat="43.2161136" lon="13.2161944"><ele>349.7142857142857</ele><time>2026-05-01T07:56:02.838Z</time></trkpt><trkpt lat="43.2160483" lon="13.2162088"><ele>352.85714285714283</ele><time>2026-05-01T07:56:03.838Z</time></trkpt><trkpt lat="43.2159865" lon="13.2162282"><ele>356.0</ele><time>2026-05-01T07:56:04.838Z</time></trkpt><trkpt lat="43.2158792" lon="13.216324"><ele>355.99999999999994</ele><time>2026-05-01T07:56:06.838Z</time></trkpt><trkpt lat="43.2158294" lon="13.2163891"><ele>356.0</ele><time>2026-05-01T07:56:07.839Z</time></trkpt><trkpt lat="43.2157761" lon="13.2164549"><ele>356.0</ele><time>2026-05-01T07:56:08.838Z</time></trkpt><trkpt lat="43.2157248" lon="13.2165193"><ele>356.0</ele><time>2026-05-01T07:56:09.837Z</time></trkpt><trkpt lat="43.2156749" lon="13.2165768"><ele>356.0</ele><time>2026-05-01T07:56:10.838Z</time></trkpt><trkpt lat="43.2156256" lon="13.216638"><ele>355.99999999999994</ele><time>2026-05-01T07:56:11.839Z</time></trkpt><trkpt lat="43.2155754" lon="13.2166982"><ele>356.0</ele><time>2026-05-01T07:56:12.838Z</time></trkpt><trkpt lat="43.2155273" lon="13.2167712"><ele>357.5</ele><time>2026-05-01T07:56:13.837Z</time></trkpt><trkpt lat="43.215482" lon="13.2168503"><ele>359.0</ele><time>2026-05-01T07:56:14.837Z</time></trkpt><trkpt lat="43.2154355" lon="13.2169345"><ele>360.5</ele><time>2026-05-01T07:56:15.837Z</time></trkpt><trkpt lat="43.2153861" lon="13.2170285"><ele>362.0</ele><time>2026-05-01T07:56:16.837Z</time></trkpt><trkpt lat="43.2153391" lon="13.2171307"><ele>363.5</ele><time>2026-05-01T07:56:17.838Z</time></trkpt><trkpt lat="43.2152962" lon="13.2172362"><ele>365.0</ele><time>2026-05-01T07:56:18.837Z</time></trkpt><trkpt lat="43.2152502" lon="13.2173379"><ele>365.0</ele><time>2026-05-01T07:56:19.837Z</time></trkpt><trkpt lat="43.2152104" lon="13.217437"><ele>365.0</ele><time>2026-05-01T07:56:20.837Z</time></trkpt><trkpt lat="43.2151721" lon="13.2175306"><ele>365.0</ele><time>2026-05-01T07:56:21.837Z</time></trkpt><trkpt lat="43.2151346" lon="13.2176146"><ele>365.0</ele><time>2026-05-01T07:56:22.837Z</time></trkpt><trkpt lat="43.2150938" lon="13.2176958"><ele>365.0</ele><time>2026-05-01T07:56:23.837Z</time></trkpt><trkpt lat="43.2150441" lon="13.2177748"><ele>365.0</ele><time>2026-05-01T07:56:24.837Z</time></trkpt><trkpt lat="43.2149948" lon="13.2178559"><ele>365.0</ele><time>2026-05-01T07:56:25.838Z</time></trkpt><trkpt lat="43.2149343" lon="13.2179317"><ele>365.0</ele><time>2026-05-01T07:56:26.837Z</time></trkpt><trkpt lat="43.2148687" lon="13.2180151"><ele>365.0</ele><time>2026-05-01T07:56:27.838Z</time></trkpt><trkpt lat="43.2148075" lon="13.2180993"><ele>365.0</ele><time>2026-05-01T07:56:28.839Z</time></trkpt><trkpt lat="43.2147478" lon="13.2181772"><ele>365.0</ele><time>2026-05-01T07:56:29.838Z</time></trkpt><trkpt lat="43.2146864" lon="13.2182583"><ele>365.0</ele><time>2026-05-01T07:56:30.837Z</time></trkpt><trkpt lat="43.2146262" lon="13.2183292"><ele>365.33333333333337</ele><time>2026-05-01T07:56:31.837Z</time></trkpt><trkpt lat="43.2145609" lon="13.2183819"><ele>365.6666666666667</ele><time>2026-05-01T07:56:32.838Z</time></trkpt><trkpt lat="43.2144906" lon="13.2184276"><ele>366.0</ele><time>2026-05-01T07:56:33.838Z</time></trkpt><trkpt lat="43.2144184" lon="13.2184835"><ele>366.3333333333333</ele><time>2026-05-01T07:56:34.838Z</time></trkpt><trkpt lat="43.2143458" lon="13.2185448"><ele>366.66666666666663</ele><time>2026-05-01T07:56:35.838Z</time></trkpt><trkpt lat="43.214269" lon="13.2186097"><ele>367.0</ele><time>2026-05-01T07:56:36.837Z</time></trkpt><trkpt lat="43.2141916" lon="13.2186715"><ele>367.0</ele><time>2026-05-01T07:56:37.839Z</time></trkpt><trkpt lat="43.2141068" lon="13.2187301"><ele>367.0</ele><time>2026-05-01T07:56:38.838Z</time></trkpt><trkpt lat="43.2140262" lon="13.2187724"><ele>367.0</ele><time>2026-05-01T07:56:39.837Z</time></trkpt><trkpt lat="43.2139485" lon="13.2188271"><ele>367.0</ele><time>2026-05-01T07:56:40.838Z</time></trkpt><trkpt lat="43.2138668" lon="13.2188841"><ele>367.0</ele><time>2026-05-01T07:56:41.838Z</time></trkpt><trkpt lat="43.2137894" lon="13.2189475"><ele>365.16666666666663</ele><time>2026-05-01T07:56:42.839Z</time></trkpt><trkpt lat="43.2137215" lon="13.2190236"><ele>363.3333333333333</ele><time>2026-05-01T07:56:43.837Z</time></trkpt><trkpt lat="43.2136552" lon="13.2190917"><ele>361.5</ele><time>2026-05-01T07:56:44.837Z</time></trkpt><trkpt lat="43.2135934" lon="13.2191654"><ele>359.6666666666667</ele><time>2026-05-01T07:56:45.838Z</time></trkpt><trkpt lat="43.2135336" lon="13.2192296"><ele>357.83333333333337</ele><time>2026-05-01T07:56:46.837Z</time></trkpt><trkpt lat="43.2134676" lon="13.2192922"><ele>356.0</ele><time>2026-05-01T07:56:47.838Z</time></trkpt><trkpt lat="43.2133898" lon="13.219341"><ele>356.0</ele><time>2026-05-01T07:56:48.837Z</time></trkpt><trkpt lat="43.2133075" lon="13.2193763"><ele>356.0</ele><time>2026-05-01T07:56:49.837Z</time></trkpt><trkpt lat="43.213228" lon="13.2193983"><ele>356.0</ele><time>2026-05-01T07:56:50.838Z</time></trkpt><trkpt lat="43.2131488" lon="13.219409"><ele>356.0</ele><time>2026-05-01T07:56:51.838Z</time></trkpt><trkpt lat="43.213079" lon="13.219411"><ele>356.0</ele><time>2026-05-01T07:56:52.837Z</time></trkpt><trkpt lat="43.2130072" lon="13.2194135"><ele>356.0</ele><time>2026-05-01T07:56:53.838Z</time></trkpt><trkpt lat="43.2129329" lon="13.2194183"><ele>357.0</ele><time>2026-05-01T07:56:54.838Z</time></trkpt><trkpt lat="43.2128498" lon="13.2194218"><ele>358.0</ele><time>2026-05-01T07:56:55.837Z</time></trkpt><trkpt lat="43.2127646" lon="13.2194214"><ele>359.0</ele><time>2026-05-01T07:56:56.838Z</time></trkpt><trkpt lat="43.2126754" lon="13.2194126"><ele>360.0</ele><time>2026-05-01T07:56:57.838Z</time></trkpt><trkpt lat="43.2125737" lon="13.2194083"><ele>361.0</ele><time>2026-05-01T07:56:58.838Z</time></trkpt><trkpt lat="43.212451" lon="13.2193973"><ele>362.5</ele><time>2026-05-01T07:56:59.838Z</time></trkpt><trkpt lat="43.212311" lon="13.2193963"><ele>364.0</ele><time>2026-05-01T07:57:00.838Z</time></trkpt><trkpt lat="43.2121713" lon="13.219404"><ele>365.5</ele><time>2026-05-01T07:57:01.837Z</time></trkpt><trkpt lat="43.2120307" lon="13.2194149"><ele>367.0</ele><time>2026-05-01T07:57:02.837Z</time></trkpt><trkpt lat="43.2118944" lon="13.219429"><ele>367.0</ele><time>2026-05-01T07:57:03.838Z</time></trkpt><trkpt lat="43.2117592" lon="13.2194414"><ele>367.0</ele><time>2026-05-01T07:57:04.838Z</time></trkpt><trkpt lat="43.2116156" lon="13.2194652"><ele>367.0</ele><time>2026-05-01T07:57:05.838Z</time></trkpt><trkpt lat="43.211484" lon="13.2194917"><ele>367.0</ele><time>2026-05-01T07:57:06.838Z</time></trkpt><trkpt lat="43.2113613" lon="13.2195148"><ele>368.0</ele><time>2026-05-01T07:57:07.838Z</time></trkpt><trkpt lat="43.2112448" lon="13.2195324"><ele>369.0</ele><time>2026-05-01T07:57:08.838Z</time></trkpt><trkpt lat="43.2111413" lon="13.2195469"><ele>370.0</ele><time>2026-05-01T07:57:09.838Z</time></trkpt><trkpt lat="43.2110502" lon="13.2195538"><ele>371.0</ele><time>2026-05-01T07:57:10.838Z</time></trkpt><trkpt lat="43.2109611" lon="13.2195586"><ele>372.0</ele><time>2026-05-01T07:57:11.838Z</time></trkpt><trkpt lat="43.2108742" lon="13.219579"><ele>372.0</ele><time>2026-05-01T07:57:12.837Z</time></trkpt><trkpt lat="43.210792" lon="13.2196203"><ele>372.0</ele><time>2026-05-01T07:57:13.838Z</time></trkpt><trkpt lat="43.2107144" lon="13.2196756"><ele>372.0</ele><time>2026-05-01T07:57:14.839Z</time></trkpt><trkpt lat="43.2106377" lon="13.2197393"><ele>372.0</ele><time>2026-05-01T07:57:15.838Z</time></trkpt><trkpt lat="43.2105624" lon="13.2198116"><ele>372.0</ele><time>2026-05-01T07:57:16.838Z</time></trkpt><trkpt lat="43.21049" lon="13.2198796"><ele>372.0</ele><time>2026-05-01T07:57:17.837Z</time></trkpt><trkpt lat="43.2104294" lon="13.2199389"><ele>372.8333333333333</ele><time>2026-05-01T07:57:18.838Z</time></trkpt><trkpt lat="43.2103744" lon="13.2199897"><ele>373.6666666666667</ele><time>2026-05-01T07:57:19.838Z</time></trkpt><trkpt lat="43.2102942" lon="13.2200351"><ele>374.5</ele><time>2026-05-01T07:57:21.838Z</time></trkpt><trkpt lat="43.2102488" lon="13.2200977"><ele>375.33333333333337</ele><time>2026-05-01T07:57:23.837Z</time></trkpt><trkpt lat="43.2102577" lon="13.2202043"><ele>376.1666666666667</ele><time>2026-05-01T07:57:25.838Z</time></trkpt><trkpt lat="43.2103025" lon="13.2203341"><ele>377.0</ele><time>2026-05-01T07:57:27.838Z</time></trkpt><trkpt lat="43.2103502" lon="13.2204921"><ele>376.99999999999994</ele><time>2026-05-01T07:57:29.838Z</time></trkpt><trkpt lat="43.2103762" lon="13.220575"><ele>377.0</ele><time>2026-05-01T07:57:30.838Z</time></trkpt><trkpt lat="43.2104055" lon="13.2206618"><ele>377.0</ele><time>2026-05-01T07:57:31.838Z</time></trkpt><trkpt lat="43.210433" lon="13.2207499"><ele>377.0</ele><time>2026-05-01T07:57:32.837Z</time></trkpt><trkpt lat="43.2104639" lon="13.2208431"><ele>377.0</ele><time>2026-05-01T07:57:33.838Z</time></trkpt><trkpt lat="43.2104972" lon="13.2209408"><ele>376.99999999999994</ele><time>2026-05-01T07:57:34.837Z</time></trkpt><trkpt lat="43.210537" lon="13.2210436"><ele>377.0</ele><time>2026-05-01T07:57:35.839Z</time></trkpt><trkpt lat="43.2105744" lon="13.2211505"><ele>376.8</ele><time>2026-05-01T07:57:36.838Z</time></trkpt><trkpt lat="43.2106101" lon="13.2212623"><ele>376.6</ele><time>2026-05-01T07:57:37.837Z</time></trkpt><trkpt lat="43.2106475" lon="13.2213795"><ele>376.40000000000003</ele><time>2026-05-01T07:57:38.838Z</time></trkpt><trkpt lat="43.2106844" lon="13.221503"><ele>376.20000000000005</ele><time>2026-05-01T07:57:39.837Z</time></trkpt><trkpt lat="43.2107224" lon="13.2216303"><ele>376.0</ele><time>2026-05-01T07:57:40.837Z</time></trkpt><trkpt lat="43.2107605" lon="13.2217617"><ele>375.75</ele><time>2026-05-01T07:57:41.838Z</time></trkpt><trkpt lat="43.2108071" lon="13.2219028"><ele>375.5</ele><time>2026-05-01T07:57:42.838Z</time></trkpt><trkpt lat="43.2108508" lon="13.2220534"><ele>375.25</ele><time>2026-05-01T07:57:43.838Z</time></trkpt><trkpt lat="43.2108931" lon="13.2222106"><ele>375.0</ele><time>2026-05-01T07:57:44.838Z</time></trkpt><trkpt lat="43.2109382" lon="13.2223668"><ele>375.75</ele><time>2026-05-01T07:57:45.838Z</time></trkpt><trkpt lat="43.2109822" lon="13.2225271"><ele>376.5</ele><time>2026-05-01T07:57:46.837Z</time></trkpt><trkpt lat="43.2110291" lon="13.2226911"><ele>377.25</ele><time>2026-05-01T07:57:47.837Z</time></trkpt><trkpt lat="43.2110752" lon="13.222858"><ele>378.0</ele><time>2026-05-01T07:57:48.837Z</time></trkpt><trkpt lat="43.2111233" lon="13.2230255"><ele>377.5</ele><time>2026-05-01T07:57:49.837Z</time></trkpt><trkpt lat="43.2111708" lon="13.2231894"><ele>377.0</ele><time>2026-05-01T07:57:50.837Z</time></trkpt><trkpt lat="43.2112161" lon="13.2233495"><ele>376.5</ele><time>2026-05-01T07:57:51.837Z</time></trkpt><trkpt lat="43.211264" lon="13.223506"><ele>376.0</ele><time>2026-05-01T07:57:52.837Z</time></trkpt><trkpt lat="43.2113091" lon="13.2236588"><ele>376.0</ele><time>2026-05-01T07:57:53.837Z</time></trkpt><trkpt lat="43.2113511" lon="13.2238014"><ele>376.0</ele><time>2026-05-01T07:57:54.838Z</time></trkpt><trkpt lat="43.211396" lon="13.2239409"><ele>376.0</ele><time>2026-05-01T07:57:55.837Z</time></trkpt><trkpt lat="43.2114411" lon="13.2240739"><ele>376.0</ele><time>2026-05-01T07:57:56.837Z</time></trkpt><trkpt lat="43.2114858" lon="13.2242052"><ele>376.0</ele><time>2026-05-01T07:57:57.837Z</time></trkpt><trkpt lat="43.211528" lon="13.2243338"><ele>377.6</ele><time>2026-05-01T07:57:58.837Z</time></trkpt><trkpt lat="43.2115707" lon="13.2244645"><ele>379.20000000000005</ele><time>2026-05-01T07:57:59.838Z</time></trkpt><trkpt lat="43.2116158" lon="13.2245998"><ele>380.79999999999995</ele><time>2026-05-01T07:58:00.838Z</time></trkpt><trkpt lat="43.2116626" lon="13.224738"><ele>382.4</ele><time>2026-05-01T07:58:01.837Z</time></trkpt><trkpt lat="43.211706" lon="13.2248787"><ele>384.0</ele><time>2026-05-01T07:58:02.838Z</time></trkpt><trkpt lat="43.2117502" lon="13.2250207"><ele>384.0</ele><time>2026-05-01T07:58:03.839Z</time></trkpt><trkpt lat="43.2117931" lon="13.2251684"><ele>384.0</ele><time>2026-05-01T07:58:04.837Z</time></trkpt><trkpt lat="43.2118409" lon="13.225314"><ele>384.0</ele><time>2026-05-01T07:58:05.838Z</time></trkpt><trkpt lat="43.2118898" lon="13.2254551"><ele>384.0</ele><time>2026-05-01T07:58:06.838Z</time></trkpt><trkpt lat="43.2119398" lon="13.2255975"><ele>383.79999999999995</ele><time>2026-05-01T07:58:07.837Z</time></trkpt><trkpt lat="43.2119878" lon="13.2257373"><ele>383.59999999999997</ele><time>2026-05-01T07:58:08.837Z</time></trkpt><trkpt lat="43.212035" lon="13.2258792"><ele>383.4</ele><time>2026-05-01T07:58:09.838Z</time></trkpt><trkpt lat="43.2120808" lon="13.2260172"><ele>383.2</ele><time>2026-05-01T07:58:10.838Z</time></trkpt><trkpt lat="43.2121243" lon="13.2261493"><ele>383.0</ele><time>2026-05-01T07:58:11.837Z</time></trkpt><trkpt lat="43.2121713" lon="13.2262769"><ele>383.0</ele><time>2026-05-01T07:58:12.839Z</time></trkpt><trkpt lat="43.2122158" lon="13.2263993"><ele>383.0</ele><time>2026-05-01T07:58:13.837Z</time></trkpt><trkpt lat="43.2122634" lon="13.2265133"><ele>383.0</ele><time>2026-05-01T07:58:14.839Z</time></trkpt><trkpt lat="43.2123111" lon="13.2266133"><ele>383.0</ele><time>2026-05-01T07:58:15.837Z</time></trkpt><trkpt lat="43.2123613" lon="13.2266983"><ele>383.0</ele><time>2026-05-01T07:58:16.837Z</time></trkpt><trkpt lat="43.2124134" lon="13.2267728"><ele>383.0</ele><time>2026-05-01T07:58:17.838Z</time></trkpt><trkpt lat="43.2124623" lon="13.2268471"><ele>383.85714285714283</ele><time>2026-05-01T07:58:18.838Z</time></trkpt><trkpt lat="43.2124959" lon="13.2269224"><ele>384.71428571428567</ele><time>2026-05-01T07:58:19.837Z</time></trkpt><trkpt lat="43.2125148" lon="13.2270063"><ele>385.57142857142856</ele><time>2026-05-01T07:58:20.838Z</time></trkpt><trkpt lat="43.2125289" lon="13.2271002"><ele>386.42857142857144</ele><time>2026-05-01T07:58:21.838Z</time></trkpt><trkpt lat="43.2125328" lon="13.2272003"><ele>387.2857142857143</ele><time>2026-05-01T07:58:22.838Z</time></trkpt><trkpt lat="43.2125285" lon="13.2273054"><ele>388.14285714285717</ele><time>2026-05-01T07:58:23.838Z</time></trkpt><trkpt lat="43.2125293" lon="13.227413"><ele>389.0</ele><time>2026-05-01T07:58:24.837Z</time></trkpt><trkpt lat="43.2125262" lon="13.2275258"><ele>390.79999999999995</ele><time>2026-05-01T07:58:25.838Z</time></trkpt><trkpt lat="43.2125214" lon="13.2276347"><ele>392.59999999999997</ele><time>2026-05-01T07:58:26.838Z</time></trkpt><trkpt lat="43.2125193" lon="13.2277503"><ele>394.4</ele><time>2026-05-01T07:58:27.838Z</time></trkpt><trkpt lat="43.2125178" lon="13.227877"><ele>396.2</ele><time>2026-05-01T07:58:28.837Z</time></trkpt><trkpt lat="43.2125252" lon="13.2280108"><ele>398.0</ele><time>2026-05-01T07:58:29.837Z</time></trkpt><trkpt lat="43.2125351" lon="13.2281438"><ele>400.0</ele><time>2026-05-01T07:58:30.837Z</time></trkpt><trkpt lat="43.2125508" lon="13.2282702"><ele>402.0</ele><time>2026-05-01T07:58:31.837Z</time></trkpt><trkpt lat="43.2125686" lon="13.2283964"><ele>404.0</ele><time>2026-05-01T07:58:32.837Z</time></trkpt><trkpt lat="43.2125787" lon="13.2285392"><ele>406.0</ele><time>2026-05-01T07:58:33.837Z</time></trkpt><trkpt lat="43.2125872" lon="13.228683"><ele>408.0</ele><time>2026-05-01T07:58:34.837Z</time></trkpt><trkpt lat="43.2125921" lon="13.2288177"><ele>408.0</ele><time>2026-05-01T07:58:35.838Z</time></trkpt><trkpt lat="43.212597" lon="13.2289576"><ele>408.0</ele><time>2026-05-01T07:58:36.837Z</time></trkpt><trkpt lat="43.2126047" lon="13.2290969"><ele>408.0</ele><time>2026-05-01T07:58:37.838Z</time></trkpt><trkpt lat="43.2126086" lon="13.2292337"><ele>408.0</ele><time>2026-05-01T07:58:38.839Z</time></trkpt><trkpt lat="43.2126147" lon="13.2293709"><ele>408.0</ele><time>2026-05-01T07:58:39.837Z</time></trkpt><trkpt lat="43.2126181" lon="13.2294971"><ele>410.0</ele><time>2026-05-01T07:58:40.838Z</time></trkpt><trkpt lat="43.2126384" lon="13.22963"><ele>412.0</ele><time>2026-05-01T07:58:41.838Z</time></trkpt><trkpt lat="43.2126814" lon="13.2297659"><ele>414.0</ele><time>2026-05-01T07:58:42.838Z</time></trkpt><trkpt lat="43.2127214" lon="13.2299052"><ele>416.0</ele><time>2026-05-01T07:58:43.838Z</time></trkpt><trkpt lat="43.2127657" lon="13.2300368"><ele>418.0</ele><time>2026-05-01T07:58:44.838Z</time></trkpt><trkpt lat="43.2128029" lon="13.2301696"><ele>422.0</ele><time>2026-05-01T07:58:45.838Z</time></trkpt><trkpt lat="43.2128325" lon="13.230314"><ele>426.0</ele><time>2026-05-01T07:58:46.838Z</time></trkpt><trkpt lat="43.2128546" lon="13.2304617"><ele>429.99999999999994</ele><time>2026-05-01T07:58:47.838Z</time></trkpt><trkpt lat="43.2128753" lon="13.2306122"><ele>434.0</ele><time>2026-05-01T07:58:48.839Z</time></trkpt><trkpt lat="43.2128929" lon="13.2307643"><ele>438.0</ele><time>2026-05-01T07:58:49.838Z</time></trkpt><trkpt lat="43.2129127" lon="13.2309069"><ele>439.79999999999995</ele><time>2026-05-01T07:58:50.839Z</time></trkpt><trkpt lat="43.2129336" lon="13.231042"><ele>441.59999999999997</ele><time>2026-05-01T07:58:51.838Z</time></trkpt><trkpt lat="43.2129491" lon="13.2311648"><ele>443.40000000000003</ele><time>2026-05-01T07:58:52.838Z</time></trkpt><trkpt lat="43.2129715" lon="13.2312836"><ele>445.20000000000005</ele><time>2026-05-01T07:58:53.837Z</time></trkpt><trkpt lat="43.2129872" lon="13.2314054"><ele>447.0</ele><time>2026-05-01T07:58:54.838Z</time></trkpt><trkpt lat="43.2130033" lon="13.2315326"><ele>447.8</ele><time>2026-05-01T07:58:55.838Z</time></trkpt><trkpt lat="43.21301" lon="13.2316609"><ele>448.6</ele><time>2026-05-01T07:58:56.838Z</time></trkpt><trkpt lat="43.2130143" lon="13.2317747"><ele>449.40000000000003</ele><time>2026-05-01T07:58:57.837Z</time></trkpt><trkpt lat="43.2130179" lon="13.2318634"><ele>450.20000000000005</ele><time>2026-05-01T07:58:58.837Z</time></trkpt><trkpt lat="43.2130297" lon="13.2320098"><ele>451.0</ele><time>2026-05-01T07:59:00.838Z</time></trkpt><trkpt lat="43.2130432" lon="13.2321669"><ele>450.25</ele><time>2026-05-01T07:59:02.837Z</time></trkpt><trkpt lat="43.2130733" lon="13.23232"><ele>449.5</ele><time>2026-05-01T07:59:04.839Z</time></trkpt><trkpt lat="43.2131142" lon="13.2324707"><ele>448.75</ele><time>2026-05-01T07:59:06.838Z</time></trkpt><trkpt lat="43.2131697" lon="13.2326065"><ele>448.0</ele><time>2026-05-01T07:59:08.838Z</time></trkpt><trkpt lat="43.2132212" lon="13.2327307"><ele>447.2</ele><time>2026-05-01T07:59:10.838Z</time></trkpt><trkpt lat="43.2132758" lon="13.2328536"><ele>446.4</ele><time>2026-05-01T07:59:12.837Z</time></trkpt><trkpt lat="43.2133345" lon="13.2329799"><ele>445.59999999999997</ele><time>2026-05-01T07:59:14.837Z</time></trkpt><trkpt lat="43.2133989" lon="13.2331068"><ele>444.79999999999995</ele><time>2026-05-01T07:59:16.837Z</time></trkpt><trkpt lat="43.2134616" lon="13.2332424"><ele>444.0</ele><time>2026-05-01T07:59:18.837Z</time></trkpt><trkpt lat="43.2135263" lon="13.2333821"><ele>443.8333333333333</ele><time>2026-05-01T07:59:20.838Z</time></trkpt><trkpt lat="43.2135939" lon="13.2335333"><ele>443.66666666666663</ele><time>2026-05-01T07:59:22.838Z</time></trkpt><trkpt lat="43.2136312" lon="13.233615"><ele>443.5</ele><time>2026-05-01T07:59:23.837Z</time></trkpt><trkpt lat="43.2136661" lon="13.2337045"><ele>443.3333333333333</ele><time>2026-05-01T07:59:24.838Z</time></trkpt><trkpt lat="43.2137022" lon="13.2337987"><ele>443.16666666666663</ele><time>2026-05-01T07:59:25.838Z</time></trkpt><trkpt lat="43.213738" lon="13.2338933"><ele>443.0</ele><time>2026-05-01T07:59:26.837Z</time></trkpt><trkpt lat="43.2137752" lon="13.2339863"><ele>441.49999999999994</ele><time>2026-05-01T07:59:27.837Z</time></trkpt><trkpt lat="43.2138116" lon="13.2340826"><ele>440.0</ele><time>2026-05-01T07:59:28.838Z</time></trkpt><trkpt lat="43.2138462" lon="13.2341811"><ele>438.5</ele><time>2026-05-01T07:59:29.838Z</time></trkpt><trkpt lat="43.2138804" lon="13.2342788"><ele>437.0</ele><time>2026-05-01T07:59:30.839Z</time></trkpt><trkpt lat="43.2139143" lon="13.2343739"><ele>435.49999999999994</ele><time>2026-05-01T07:59:31.837Z</time></trkpt><trkpt lat="43.2139434" lon="13.234468"><ele>434.0</ele><time>2026-05-01T07:59:32.839Z</time></trkpt><trkpt lat="43.2139724" lon="13.2345574"><ele>433.8333333333333</ele><time>2026-05-01T07:59:33.838Z</time></trkpt><trkpt lat="43.2140005" lon="13.2346506"><ele>433.66666666666663</ele><time>2026-05-01T07:59:34.837Z</time></trkpt><trkpt lat="43.2140288" lon="13.2347463"><ele>433.5</ele><time>2026-05-01T07:59:35.837Z</time></trkpt><trkpt lat="43.2140573" lon="13.2348442"><ele>433.33333333333337</ele><time>2026-05-01T07:59:36.838Z</time></trkpt><trkpt lat="43.2140846" lon="13.2349456"><ele>433.1666666666667</ele><time>2026-05-01T07:59:37.838Z</time></trkpt><trkpt lat="43.2141148" lon="13.23505"><ele>433.0</ele><time>2026-05-01T07:59:38.838Z</time></trkpt><trkpt lat="43.2141463" lon="13.2351566"><ele>433.00000000000006</ele><time>2026-05-01T07:59:39.837Z</time></trkpt><trkpt lat="43.2141785" lon="13.2352654"><ele>433.0</ele><time>2026-05-01T07:59:40.838Z</time></trkpt><trkpt lat="43.214216" lon="13.2353789"><ele>433.0</ele><time>2026-05-01T07:59:41.838Z</time></trkpt><trkpt lat="43.2142517" lon="13.235493"><ele>433.0</ele><time>2026-05-01T07:59:42.839Z</time></trkpt><trkpt lat="43.2142867" lon="13.235607"><ele>433.00000000000006</ele><time>2026-05-01T07:59:43.839Z</time></trkpt><trkpt lat="43.2143179" lon="13.2357256"><ele>433.0</ele><time>2026-05-01T07:59:44.837Z</time></trkpt><trkpt lat="43.2143486" lon="13.235848"><ele>432.4</ele><time>2026-05-01T07:59:45.837Z</time></trkpt><trkpt lat="43.2143783" lon="13.2359744"><ele>431.79999999999995</ele><time>2026-05-01T07:59:46.837Z</time></trkpt><trkpt lat="43.2144095" lon="13.2361001"><ele>431.2</ele><time>2026-05-01T07:59:47.839Z</time></trkpt><trkpt lat="43.2144347" lon="13.2362297"><ele>430.6</ele><time>2026-05-01T07:59:48.837Z</time></trkpt><trkpt lat="43.2144571" lon="13.2363683"><ele>430.0</ele><time>2026-05-01T07:59:49.837Z</time></trkpt><trkpt lat="43.2144802" lon="13.2365083"><ele>429.8</ele><time>2026-05-01T07:59:50.838Z</time></trkpt><trkpt lat="43.2145018" lon="13.2366457"><ele>429.6</ele><time>2026-05-01T07:59:51.838Z</time></trkpt><trkpt lat="43.2145215" lon="13.2367844"><ele>429.4</ele><time>2026-05-01T07:59:52.838Z</time></trkpt><trkpt lat="43.2145369" lon="13.236925"><ele>429.2</ele><time>2026-05-01T07:59:53.837Z</time></trkpt><trkpt lat="43.2145455" lon="13.2370669"><ele>429.0</ele><time>2026-05-01T07:59:54.838Z</time></trkpt><trkpt lat="43.2145471" lon="13.2372108"><ele>428.6</ele><time>2026-05-01T07:59:55.837Z</time></trkpt><trkpt lat="43.2145535" lon="13.2373523"><ele>428.2</ele><time>2026-05-01T07:59:56.837Z</time></trkpt><trkpt lat="43.2145564" lon="13.2374949"><ele>427.80000000000007</ele><time>2026-05-01T07:59:57.838Z</time></trkpt><trkpt lat="43.2145588" lon="13.237634"><ele>427.40000000000003</ele><time>2026-05-01T07:59:58.838Z</time></trkpt><trkpt lat="43.2145652" lon="13.2377622"><ele>427.0</ele><time>2026-05-01T07:59:59.838Z</time></trkpt><trkpt lat="43.214585" lon="13.2378775"><ele>427.00000000000006</ele><time>2026-05-01T08:00:00.837Z</time></trkpt><trkpt lat="43.2146227" lon="13.2379728"><ele>427.0</ele><time>2026-05-01T08:00:01.838Z</time></trkpt><trkpt lat="43.2146794" lon="13.2380522"><ele>427.0</ele><time>2026-05-01T08:00:02.838Z</time></trkpt><trkpt lat="43.2147498" lon="13.2381052"><ele>427.0</ele><time>2026-05-01T08:00:03.838Z</time></trkpt><trkpt lat="43.2148266" lon="13.2381356"><ele>427.00000000000006</ele><time>2026-05-01T08:00:04.838Z</time></trkpt><trkpt lat="43.2149015" lon="13.2381525"><ele>427.0</ele><time>2026-05-01T08:00:05.837Z</time></trkpt><trkpt lat="43.2149787" lon="13.2381611"><ele>428.00000000000006</ele><time>2026-05-01T08:00:06.838Z</time></trkpt><trkpt lat="43.2150554" lon="13.2381649"><ele>429.0</ele><time>2026-05-01T08:00:07.838Z</time></trkpt><trkpt lat="43.2151339" lon="13.2381752"><ele>430.0</ele><time>2026-05-01T08:00:08.838Z</time></trkpt><trkpt lat="43.2152115" lon="13.2382033"><ele>431.0</ele><time>2026-05-01T08:00:09.838Z</time></trkpt><trkpt lat="43.2152903" lon="13.2382481"><ele>432.00000000000006</ele><time>2026-05-01T08:00:10.838Z</time></trkpt><trkpt lat="43.2153645" lon="13.2383107"><ele>433.0</ele><time>2026-05-01T08:00:11.838Z</time></trkpt><trkpt lat="43.215439" lon="13.2383794"><ele>433.0</ele><time>2026-05-01T08:00:12.838Z</time></trkpt><trkpt lat="43.2154965" lon="13.2384426"><ele>432.99999999999994</ele><time>2026-05-01T08:00:13.838Z</time></trkpt><trkpt lat="43.215552" lon="13.2385025"><ele>432.99999999999994</ele><time>2026-05-01T08:00:14.839Z</time></trkpt><trkpt lat="43.2156045" lon="13.2385583"><ele>433.0</ele><time>2026-05-01T08:00:15.838Z</time></trkpt><trkpt lat="43.2157022" lon="13.2386644"><ele>433.0</ele><time>2026-05-01T08:00:17.838Z</time></trkpt><trkpt lat="43.2158011" lon="13.238775"><ele>433.00000000000006</ele><time>2026-05-01T08:00:19.837Z</time></trkpt><trkpt lat="43.2158546" lon="13.2388314"><ele>433.0</ele><time>2026-05-01T08:00:20.838Z</time></trkpt><trkpt lat="43.2159073" lon="13.2388921"><ele>433.0</ele><time>2026-05-01T08:00:21.838Z</time></trkpt><trkpt lat="43.2159625" lon="13.2389458"><ele>433.0</ele><time>2026-05-01T08:00:22.837Z</time></trkpt><trkpt lat="43.2160145" lon="13.2390014"><ele>433.00000000000006</ele><time>2026-05-01T08:00:23.837Z</time></trkpt><trkpt lat="43.2160969" lon="13.2391063"><ele>433.0</ele><time>2026-05-01T08:00:25.838Z</time></trkpt><trkpt lat="43.2161576" lon="13.2391728"><ele>433.0</ele><time>2026-05-01T08:00:27.837Z</time></trkpt><trkpt lat="43.2162483" lon="13.2391658"><ele>432.99999999999994</ele><time>2026-05-01T08:00:30.838Z</time></trkpt><trkpt lat="43.2163281" lon="13.2391421"><ele>432.99999999999994</ele><time>2026-05-01T08:00:32.838Z</time></trkpt><trkpt lat="43.2164211" lon="13.2391263"><ele>433.0</ele><time>2026-05-01T08:00:34.837Z</time></trkpt><trkpt lat="43.2165191" lon="13.2391043"><ele>433.0</ele><time>2026-05-01T08:00:36.837Z</time></trkpt><trkpt lat="43.2166173" lon="13.2390665"><ele>429.59999999999997</ele><time>2026-05-01T08:00:38.838Z</time></trkpt><trkpt lat="43.2167097" lon="13.2389982"><ele>426.19999999999993</ele><time>2026-05-01T08:00:40.838Z</time></trkpt><trkpt lat="43.2167929" lon="13.2389082"><ele>422.8</ele><time>2026-05-01T08:00:42.838Z</time></trkpt><trkpt lat="43.216886" lon="13.2388127"><ele>419.4</ele><time>2026-05-01T08:00:44.838Z</time></trkpt><trkpt lat="43.2169833" lon="13.2387113"><ele>416.0</ele><time>2026-05-01T08:00:46.837Z</time></trkpt><trkpt lat="43.2170798" lon="13.2386045"><ele>415.6</ele><time>2026-05-01T08:00:48.839Z</time></trkpt><trkpt lat="43.2171644" lon="13.2385012"><ele>415.20000000000005</ele><time>2026-05-01T08:00:50.837Z</time></trkpt><trkpt lat="43.2172448" lon="13.2384288"><ele>414.79999999999995</ele><time>2026-05-01T08:00:52.839Z</time></trkpt><trkpt lat="43.2173327" lon="13.2384305"><ele>414.4</ele><time>2026-05-01T08:00:54.838Z</time></trkpt><trkpt lat="43.2174139" lon="13.2384958"><ele>414.0</ele><time>2026-05-01T08:00:56.838Z</time></trkpt><trkpt lat="43.2174776" lon="13.2385912"><ele>411.6</ele><time>2026-05-01T08:00:58.837Z</time></trkpt><trkpt lat="43.2175159" lon="13.2387135"><ele>409.2</ele><time>2026-05-01T08:01:00.838Z</time></trkpt><trkpt lat="43.21753" lon="13.23886"><ele>406.8</ele><time>2026-05-01T08:01:02.837Z</time></trkpt><trkpt lat="43.2175218" lon="13.2390223"><ele>404.40000000000003</ele><time>2026-05-01T08:01:04.838Z</time></trkpt><trkpt lat="43.2175054" lon="13.2391766"><ele>402.0</ele><time>2026-05-01T08:01:06.838Z</time></trkpt><trkpt lat="43.2174872" lon="13.2393371"><ele>401.0</ele><time>2026-05-01T08:01:08.838Z</time></trkpt><trkpt lat="43.2174623" lon="13.2394759"><ele>400.0</ele><time>2026-05-01T08:01:10.838Z</time></trkpt><trkpt lat="43.2174342" lon="13.2395729"><ele>399.0</ele><time>2026-05-01T08:01:12.837Z</time></trkpt><trkpt lat="43.2174414" lon="13.2396614"><ele>398.0</ele><time>2026-05-01T08:01:15.837Z</time></trkpt><trkpt lat="43.2175096" lon="13.2396879"><ele>397.0</ele><time>2026-05-01T08:01:19.837Z</time></trkpt><trkpt lat="43.2175757" lon="13.2396594"><ele>396.0</ele><time>2026-05-01T08:01:22.838Z</time></trkpt><trkpt lat="43.2176564" lon="13.2396163"><ele>396.0</ele><time>2026-05-01T08:01:25.839Z</time></trkpt><trkpt lat="43.2177445" lon="13.2395912"><ele>396.0</ele><time>2026-05-01T08:01:28.837Z</time></trkpt><trkpt lat="43.2178136" lon="13.2395645"><ele>396.0</ele><time>2026-05-01T08:01:30.838Z</time></trkpt><trkpt lat="43.2178812" lon="13.2395416"><ele>396.0</ele><time>2026-05-01T08:01:32.837Z</time></trkpt><trkpt lat="43.21795" lon="13.2395242"><ele>396.0</ele><time>2026-05-01T08:01:34.837Z</time></trkpt><trkpt lat="43.2180232" lon="13.2395038"><ele>396.0</ele><time>2026-05-01T08:01:36.838Z</time></trkpt><trkpt lat="43.2181023" lon="13.2394908"><ele>392.3333333333333</ele><time>2026-05-01T08:01:38.837Z</time></trkpt><trkpt lat="43.2181835" lon="13.2394764"><ele>388.6666666666667</ele><time>2026-05-01T08:01:40.837Z</time></trkpt><trkpt lat="43.2182684" lon="13.2394689"><ele>385.0</ele><time>2026-05-01T08:01:42.838Z</time></trkpt><trkpt lat="43.21836" lon="13.2394757"><ele>381.33333333333337</ele><time>2026-05-01T08:01:44.838Z</time></trkpt><trkpt lat="43.2184524" lon="13.2394777"><ele>377.6666666666667</ele><time>2026-05-01T08:01:46.837Z</time></trkpt><trkpt lat="43.218536" lon="13.2394924"><ele>374.0</ele><time>2026-05-01T08:01:48.837Z</time></trkpt><trkpt lat="43.2186197" lon="13.2394858"><ele>374.0</ele><time>2026-05-01T08:01:50.838Z</time></trkpt><trkpt lat="43.2186949" lon="13.2394634"><ele>374.0</ele><time>2026-05-01T08:01:52.837Z</time></trkpt><trkpt lat="43.2187765" lon="13.2394493"><ele>374.0</ele><time>2026-05-01T08:01:54.838Z</time></trkpt><trkpt lat="43.2188735" lon="13.2394493"><ele>374.0</ele><time>2026-05-01T08:01:56.838Z</time></trkpt><trkpt lat="43.2189608" lon="13.239477"><ele>374.0</ele><time>2026-05-01T08:01:58.837Z</time></trkpt><trkpt lat="43.2190468" lon="13.2395232"><ele>374.0</ele><time>2026-05-01T08:02:00.837Z</time></trkpt><trkpt lat="43.2191334" lon="13.2395701"><ele>369.33333333333337</ele><time>2026-05-01T08:02:02.837Z</time></trkpt><trkpt lat="43.2192088" lon="13.2396147"><ele>364.6666666666667</ele><time>2026-05-01T08:02:04.838Z</time></trkpt><trkpt lat="43.2192745" lon="13.239652"><ele>360.0</ele><time>2026-05-01T08:02:07.837Z</time></trkpt><trkpt lat="43.2193652" lon="13.2396983"><ele>355.3333333333333</ele><time>2026-05-01T08:03:02.838Z</time></trkpt><trkpt lat="43.2194559" lon="13.2397389"><ele>350.66666666666663</ele><time>2026-05-01T08:03:04.838Z</time></trkpt><trkpt lat="43.2195332" lon="13.239783"><ele>346.0</ele><time>2026-05-01T08:03:06.838Z</time></trkpt><trkpt lat="43.219611" lon="13.239826"><ele>345.8333333333333</ele><time>2026-05-01T08:03:08.838Z</time></trkpt><trkpt lat="43.2196957" lon="13.2398684"><ele>345.66666666666663</ele><time>2026-05-01T08:03:10.838Z</time></trkpt><trkpt lat="43.2197849" lon="13.239917"><ele>345.5</ele><time>2026-05-01T08:03:12.839Z</time></trkpt><trkpt lat="43.2199004" lon="13.2399725"><ele>345.3333333333333</ele><time>2026-05-01T08:03:14.837Z</time></trkpt><trkpt lat="43.2199603" lon="13.2400071"><ele>345.1666666666667</ele><time>2026-05-01T08:03:15.838Z</time></trkpt><trkpt lat="43.2200219" lon="13.2400446"><ele>345.0</ele><time>2026-05-01T08:03:16.838Z</time></trkpt><trkpt lat="43.2200917" lon="13.2400785"><ele>342.5</ele><time>2026-05-01T08:03:17.838Z</time></trkpt><trkpt lat="43.2201613" lon="13.2401167"><ele>340.0</ele><time>2026-05-01T08:03:18.839Z</time></trkpt><trkpt lat="43.2202265" lon="13.2401439"><ele>337.5</ele><time>2026-05-01T08:03:19.837Z</time></trkpt><trkpt lat="43.2202916" lon="13.2401561"><ele>335.0</ele><time>2026-05-01T08:03:20.838Z</time></trkpt><trkpt lat="43.2204129" lon="13.2401463"><ele>332.5</ele><time>2026-05-01T08:03:22.839Z</time></trkpt><trkpt lat="43.2204767" lon="13.2401378"><ele>330.0</ele><time>2026-05-01T08:03:23.839Z</time></trkpt><trkpt lat="43.2205436" lon="13.2401268"><ele>330.00000000000006</ele><time>2026-05-01T08:03:24.838Z</time></trkpt><trkpt lat="43.2206125" lon="13.2401181"><ele>330.0</ele><time>2026-05-01T08:03:25.838Z</time></trkpt><trkpt lat="43.2206826" lon="13.2401106"><ele>330.0</ele><time>2026-05-01T08:03:26.838Z</time></trkpt><trkpt lat="43.2207497" lon="13.2400981"><ele>330.0</ele><time>2026-05-01T08:03:27.838Z</time></trkpt><trkpt lat="43.220818" lon="13.2400863"><ele>330.0</ele><time>2026-05-01T08:03:28.837Z</time></trkpt><trkpt lat="43.2208837" lon="13.2400736"><ele>330.00000000000006</ele><time>2026-05-01T08:03:29.837Z</time></trkpt><trkpt lat="43.2209502" lon="13.2400595"><ele>330.0</ele><time>2026-05-01T08:03:30.839Z</time></trkpt><trkpt lat="43.2210172" lon="13.240042"><ele>327.5714285714286</ele><time>2026-05-01T08:03:31.838Z</time></trkpt><trkpt lat="43.221084" lon="13.2400162"><ele>325.14285714285717</ele><time>2026-05-01T08:03:32.837Z</time></trkpt><trkpt lat="43.2211521" lon="13.239986"><ele>322.7142857142857</ele><time>2026-05-01T08:03:33.838Z</time></trkpt><trkpt lat="43.221222" lon="13.2399479"><ele>320.28571428571433</ele><time>2026-05-01T08:03:34.838Z</time></trkpt><trkpt lat="43.2212925" lon="13.2399112"><ele>317.8571428571429</ele><time>2026-05-01T08:03:35.838Z</time></trkpt><trkpt lat="43.2213605" lon="13.2398702"><ele>315.42857142857144</ele><time>2026-05-01T08:03:36.839Z</time></trkpt><trkpt lat="43.2214319" lon="13.2398299"><ele>313.0</ele><time>2026-05-01T08:03:37.838Z</time></trkpt><trkpt lat="43.221503" lon="13.2397947"><ele>310.0</ele><time>2026-05-01T08:03:38.838Z</time></trkpt><trkpt lat="43.2215666" lon="13.2397687"><ele>307.0</ele><time>2026-05-01T08:03:39.838Z</time></trkpt><trkpt lat="43.2216775" lon="13.2397768"><ele>304.0</ele><time>2026-05-01T08:03:41.838Z</time></trkpt><trkpt lat="43.2217708" lon="13.2398765"><ele>301.0</ele><time>2026-05-01T08:03:43.838Z</time></trkpt><trkpt lat="43.221825" lon="13.2400243"><ele>298.0</ele><time>2026-05-01T08:03:45.837Z</time></trkpt><trkpt lat="43.2218657" lon="13.2401619"><ele>298.0</ele><time>2026-05-01T08:03:47.836Z</time></trkpt><trkpt lat="43.2219312" lon="13.2402661"><ele>298.0</ele><time>2026-05-01T08:03:49.837Z</time></trkpt><trkpt lat="43.2220171" lon="13.2403335"><ele>298.0</ele><time>2026-05-01T08:03:51.837Z</time></trkpt><trkpt lat="43.2221004" lon="13.240335"><ele>298.0</ele><time>2026-05-01T08:03:53.837Z</time></trkpt><trkpt lat="43.222162" lon="13.2402959"><ele>298.0</ele><time>2026-05-01T08:03:55.836Z</time></trkpt><trkpt lat="43.2222139" lon="13.2402323"><ele>298.0</ele><time>2026-05-01T08:03:57.837Z</time></trkpt><trkpt lat="43.2222748" lon="13.2401578"><ele>295.3333333333333</ele><time>2026-05-01T08:03:59.837Z</time></trkpt><trkpt lat="43.2223399" lon="13.2400771"><ele>292.66666666666663</ele><time>2026-05-01T08:04:01.836Z</time></trkpt><trkpt lat="43.2224112" lon="13.2400062"><ele>290.0</ele><time>2026-05-01T08:04:03.837Z</time></trkpt><trkpt lat="43.2224794" lon="13.239957"><ele>287.3333333333333</ele><time>2026-05-01T08:04:05.837Z</time></trkpt><trkpt lat="43.2225604" lon="13.2399277"><ele>284.6666666666667</ele><time>2026-05-01T08:04:07.836Z</time></trkpt><trkpt lat="43.2226574" lon="13.2399198"><ele>282.0</ele><time>2026-05-01T08:04:09.836Z</time></trkpt><trkpt lat="43.2227591" lon="13.2399319"><ele>282.0</ele><time>2026-05-01T08:04:11.837Z</time></trkpt><trkpt lat="43.2228598" lon="13.2399484"><ele>282.0</ele><time>2026-05-01T08:04:13.837Z</time></trkpt><trkpt lat="43.2229614" lon="13.2399634"><ele>282.0</ele><time>2026-05-01T08:04:15.837Z</time></trkpt><trkpt lat="43.2230583" lon="13.2399812"><ele>282.0</ele><time>2026-05-01T08:04:17.837Z</time></trkpt><trkpt lat="43.2231496" lon="13.2399952"><ele>282.0</ele><time>2026-05-01T08:04:19.836Z</time></trkpt><trkpt lat="43.2232467" lon="13.2400037"><ele>279.8</ele><time>2026-05-01T08:04:21.837Z</time></trkpt><trkpt lat="43.2233383" lon="13.2400087"><ele>277.6</ele><time>2026-05-01T08:04:23.837Z</time></trkpt><trkpt lat="43.2234281" lon="13.2400159"><ele>275.40000000000003</ele><time>2026-05-01T08:04:25.837Z</time></trkpt><trkpt lat="43.2235252" lon="13.240018"><ele>273.2</ele><time>2026-05-01T08:04:27.837Z</time></trkpt><trkpt lat="43.2236247" lon="13.240016"><ele>271.0</ele><time>2026-05-01T08:04:29.836Z</time></trkpt><trkpt lat="43.2237364" lon="13.2400017"><ele>271.0</ele><time>2026-05-01T08:04:31.837Z</time></trkpt><trkpt lat="43.2238537" lon="13.2399769"><ele>271.0</ele><time>2026-05-01T08:04:33.836Z</time></trkpt><trkpt lat="43.2239653" lon="13.239932"><ele>271.0</ele><time>2026-05-01T08:04:35.836Z</time></trkpt><trkpt lat="43.224073" lon="13.2398714"><ele>271.0</ele><time>2026-05-01T08:04:37.837Z</time></trkpt><trkpt lat="43.2241787" lon="13.2398085"><ele>268.0</ele><time>2026-05-01T08:04:39.837Z</time></trkpt><trkpt lat="43.2242956" lon="13.2397657"><ele>265.0</ele><time>2026-05-01T08:04:41.838Z</time></trkpt><trkpt lat="43.2244129" lon="13.2397556"><ele>262.0</ele><time>2026-05-01T08:04:43.837Z</time></trkpt><trkpt lat="43.2245305" lon="13.239742"><ele>259.0</ele><time>2026-05-01T08:04:45.836Z</time></trkpt><trkpt lat="43.2245964" lon="13.2397392"><ele>256.0</ele><time>2026-05-01T08:04:46.838Z</time></trkpt><trkpt lat="43.2246605" lon="13.2397255"><ele>256.0</ele><time>2026-05-01T08:04:47.836Z</time></trkpt><trkpt lat="43.224723" lon="13.2397049"><ele>255.99999999999997</ele><time>2026-05-01T08:04:48.837Z</time></trkpt><trkpt lat="43.2247834" lon="13.2396758"><ele>256.0</ele><time>2026-05-01T08:04:49.837Z</time></trkpt><trkpt lat="43.2248413" lon="13.2396402"><ele>256.0</ele><time>2026-05-01T08:04:50.837Z</time></trkpt><trkpt lat="43.2248998" lon="13.2395979"><ele>255.99999999999997</ele><time>2026-05-01T08:04:51.837Z</time></trkpt><trkpt lat="43.2249557" lon="13.2395519"><ele>256.0</ele><time>2026-05-01T08:04:52.837Z</time></trkpt><trkpt lat="43.2250105" lon="13.2394987"><ele>256.0</ele><time>2026-05-01T08:04:53.837Z</time></trkpt><trkpt lat="43.2250703" lon="13.2394423"><ele>254.99999999999997</ele><time>2026-05-01T08:04:54.838Z</time></trkpt><trkpt lat="43.2251306" lon="13.2393835"><ele>254.0</ele><time>2026-05-01T08:04:55.836Z</time></trkpt><trkpt lat="43.225192" lon="13.2393241"><ele>253.0</ele><time>2026-05-01T08:04:56.837Z</time></trkpt><trkpt lat="43.2252554" lon="13.2392612"><ele>252.0</ele><time>2026-05-01T08:04:57.837Z</time></trkpt><trkpt lat="43.22532" lon="13.2392005"><ele>250.99999999999997</ele><time>2026-05-01T08:04:58.836Z</time></trkpt><trkpt lat="43.225384" lon="13.2391415"><ele>250.0</ele><time>2026-05-01T08:04:59.837Z</time></trkpt><trkpt lat="43.2254471" lon="13.2390748"><ele>249.99999999999997</ele><time>2026-05-01T08:05:00.837Z</time></trkpt><trkpt lat="43.2255139" lon="13.2390179"><ele>250.0</ele><time>2026-05-01T08:05:01.837Z</time></trkpt><trkpt lat="43.2255795" lon="13.238951"><ele>250.0</ele><time>2026-05-01T08:05:02.836Z</time></trkpt><trkpt lat="43.2256477" lon="13.2388839"><ele>250.0</ele><time>2026-05-01T08:05:03.836Z</time></trkpt><trkpt lat="43.2257168" lon="13.2388167"><ele>249.99999999999997</ele><time>2026-05-01T08:05:04.836Z</time></trkpt><trkpt lat="43.2257865" lon="13.2387429"><ele>250.0</ele><time>2026-05-01T08:05:05.837Z</time></trkpt><trkpt lat="43.2258554" lon="13.2386636"><ele>248.0</ele><time>2026-05-01T08:05:06.837Z</time></trkpt><trkpt lat="43.2259247" lon="13.2385819"><ele>246.0</ele><time>2026-05-01T08:05:07.837Z</time></trkpt><trkpt lat="43.2259956" lon="13.2384981"><ele>244.0</ele><time>2026-05-01T08:05:08.836Z</time></trkpt><trkpt lat="43.2260754" lon="13.2384165"><ele>242.0</ele><time>2026-05-01T08:05:09.837Z</time></trkpt><trkpt lat="43.2261589" lon="13.2383284"><ele>240.0</ele><time>2026-05-01T08:05:10.836Z</time></trkpt><trkpt lat="43.2262408" lon="13.2382352"><ele>240.0</ele><time>2026-05-01T08:05:11.837Z</time></trkpt><trkpt lat="43.2263244" lon="13.2381442"><ele>240.0</ele><time>2026-05-01T08:05:12.838Z</time></trkpt><trkpt lat="43.2264078" lon="13.2380496"><ele>240.0</ele><time>2026-05-01T08:05:13.837Z</time></trkpt><trkpt lat="43.2264913" lon="13.2379584"><ele>240.0</ele><time>2026-05-01T08:05:14.836Z</time></trkpt><trkpt lat="43.2265724" lon="13.2378718"><ele>240.0</ele><time>2026-05-01T08:05:15.837Z</time></trkpt><trkpt lat="43.2266524" lon="13.2377866"><ele>238.8</ele><time>2026-05-01T08:05:16.837Z</time></trkpt><trkpt lat="43.226729" lon="13.2377008"><ele>237.6</ele><time>2026-05-01T08:05:17.837Z</time></trkpt><trkpt lat="43.2268101" lon="13.2376162"><ele>236.39999999999998</ele><time>2026-05-01T08:05:18.836Z</time></trkpt><trkpt lat="43.2268889" lon="13.2375319"><ele>235.2</ele><time>2026-05-01T08:05:19.836Z</time></trkpt><trkpt lat="43.2269646" lon="13.237441"><ele>234.0</ele><time>2026-05-01T08:05:20.837Z</time></trkpt><trkpt lat="43.227042" lon="13.2373557"><ele>234.0</ele><time>2026-05-01T08:05:21.836Z</time></trkpt><trkpt lat="43.2271215" lon="13.237269"><ele>233.99999999999997</ele><time>2026-05-01T08:05:22.837Z</time></trkpt><trkpt lat="43.2272006" lon="13.2371795"><ele>233.99999999999997</ele><time>2026-05-01T08:05:23.836Z</time></trkpt><trkpt lat="43.2272783" lon="13.2370896"><ele>234.0</ele><time>2026-05-01T08:05:24.837Z</time></trkpt><trkpt lat="43.2273569" lon="13.2370005"><ele>234.0</ele><time>2026-05-01T08:05:25.837Z</time></trkpt><trkpt lat="43.2274294" lon="13.2369161"><ele>233.0</ele><time>2026-05-01T08:05:26.836Z</time></trkpt><trkpt lat="43.2275021" lon="13.2368267"><ele>231.99999999999997</ele><time>2026-05-01T08:05:27.836Z</time></trkpt><trkpt lat="43.2275729" lon="13.236749"><ele>230.99999999999997</ele><time>2026-05-01T08:05:28.837Z</time></trkpt><trkpt lat="43.2276436" lon="13.2366773"><ele>230.0</ele><time>2026-05-01T08:05:29.837Z</time></trkpt><trkpt lat="43.2277135" lon="13.2366017"><ele>229.0</ele><time>2026-05-01T08:05:30.837Z</time></trkpt><trkpt lat="43.2277893" lon="13.2365239"><ele>228.2</ele><time>2026-05-01T08:05:31.838Z</time></trkpt><trkpt lat="43.2278656" lon="13.236444"><ele>227.39999999999998</ele><time>2026-05-01T08:05:32.837Z</time></trkpt><trkpt lat="43.2279478" lon="13.2363551"><ele>226.6</ele><time>2026-05-01T08:05:33.836Z</time></trkpt><trkpt lat="43.2280328" lon="13.236253"><ele>225.8</ele><time>2026-05-01T08:05:34.836Z</time></trkpt><trkpt lat="43.228119" lon="13.2361363"><ele>225.0</ele><time>2026-05-01T08:05:35.838Z</time></trkpt><trkpt lat="43.2282035" lon="13.2360055"><ele>224.5</ele><time>2026-05-01T08:05:36.836Z</time></trkpt><trkpt lat="43.2282982" lon="13.2358462"><ele>224.0</ele><time>2026-05-01T08:05:37.836Z</time></trkpt><trkpt lat="43.2283889" lon="13.2356951"><ele>223.5</ele><time>2026-05-01T08:05:38.837Z</time></trkpt><trkpt lat="43.2284673" lon="13.2355632"><ele>223.0</ele><time>2026-05-01T08:05:39.837Z</time></trkpt><trkpt lat="43.2285376" lon="13.2354383"><ele>224.4</ele><time>2026-05-01T08:05:40.836Z</time></trkpt><trkpt lat="43.2286007" lon="13.235327"><ele>225.8</ele><time>2026-05-01T08:05:41.837Z</time></trkpt><trkpt lat="43.2286581" lon="13.2352291"><ele>227.2</ele><time>2026-05-01T08:05:42.837Z</time></trkpt><trkpt lat="43.2287119" lon="13.2351318"><ele>228.6</ele><time>2026-05-01T08:05:43.836Z</time></trkpt><trkpt lat="43.2287639" lon="13.2350397"><ele>230.0</ele><time>2026-05-01T08:05:44.837Z</time></trkpt><trkpt lat="43.2288169" lon="13.2349497"><ele>230.00000000000003</ele><time>2026-05-01T08:05:45.838Z</time></trkpt><trkpt lat="43.2288647" lon="13.2348658"><ele>230.0</ele><time>2026-05-01T08:05:46.837Z</time></trkpt><trkpt lat="43.2289139" lon="13.2347798"><ele>230.0</ele><time>2026-05-01T08:05:47.837Z</time></trkpt><trkpt lat="43.2289631" lon="13.234696"><ele>230.0</ele><time>2026-05-01T08:05:48.837Z</time></trkpt><trkpt lat="43.2290118" lon="13.2346145"><ele>230.00000000000003</ele><time>2026-05-01T08:05:49.836Z</time></trkpt><trkpt lat="43.229061" lon="13.234542"><ele>230.0</ele><time>2026-05-01T08:05:50.836Z</time></trkpt><trkpt lat="43.2291043" lon="13.2344668"><ele>229.85714285714283</ele><time>2026-05-01T08:05:51.837Z</time></trkpt><trkpt lat="43.2291458" lon="13.2343866"><ele>229.71428571428572</ele><time>2026-05-01T08:05:52.837Z</time></trkpt><trkpt lat="43.2291897" lon="13.2343059"><ele>229.57142857142856</ele><time>2026-05-01T08:05:53.837Z</time></trkpt><trkpt lat="43.2292354" lon="13.2342243"><ele>229.42857142857142</ele><time>2026-05-01T08:05:54.836Z</time></trkpt><trkpt lat="43.2292808" lon="13.2341419"><ele>229.28571428571428</ele><time>2026-05-01T08:05:55.836Z</time></trkpt><trkpt lat="43.2293254" lon="13.2340571"><ele>229.14285714285714</ele><time>2026-05-01T08:05:56.837Z</time></trkpt><trkpt lat="43.2293728" lon="13.2339764"><ele>229.0</ele><time>2026-05-01T08:05:57.837Z</time></trkpt><trkpt lat="43.2294211" lon="13.2338915"><ele>228.99999999999997</ele><time>2026-05-01T08:05:58.837Z</time></trkpt><trkpt lat="43.2294684" lon="13.2338044"><ele>229.0</ele><time>2026-05-01T08:05:59.837Z</time></trkpt><trkpt lat="43.2295168" lon="13.23372"><ele>229.0</ele><time>2026-05-01T08:06:00.837Z</time></trkpt><trkpt lat="43.2295662" lon="13.2336343"><ele>229.0</ele><time>2026-05-01T08:06:01.836Z</time></trkpt><trkpt lat="43.2296194" lon="13.2335472"><ele>228.99999999999997</ele><time>2026-05-01T08:06:02.836Z</time></trkpt><trkpt lat="43.2296692" lon="13.2334574"><ele>229.0</ele><time>2026-05-01T08:06:03.837Z</time></trkpt><trkpt lat="43.2297214" lon="13.2333638"><ele>228.99999999999997</ele><time>2026-05-01T08:06:04.837Z</time></trkpt><trkpt lat="43.2297738" lon="13.23327"><ele>229.0</ele><time>2026-05-01T08:06:05.836Z</time></trkpt><trkpt lat="43.2298301" lon="13.2331785"><ele>229.0</ele><time>2026-05-01T08:06:06.837Z</time></trkpt><trkpt lat="43.2298879" lon="13.233083"><ele>229.0</ele><time>2026-05-01T08:06:07.837Z</time></trkpt><trkpt lat="43.2299434" lon="13.2329881"><ele>228.99999999999997</ele><time>2026-05-01T08:06:08.838Z</time></trkpt><trkpt lat="43.2299976" lon="13.232894"><ele>229.0</ele><time>2026-05-01T08:06:09.837Z</time></trkpt><trkpt lat="43.2300513" lon="13.2328056"><ele>227.99999999999997</ele><time>2026-05-01T08:06:10.837Z</time></trkpt><trkpt lat="43.2301027" lon="13.2327132"><ele>227.0</ele><time>2026-05-01T08:06:11.836Z</time></trkpt><trkpt lat="43.2301546" lon="13.2326335"><ele>226.0</ele><time>2026-05-01T08:06:12.837Z</time></trkpt><trkpt lat="43.2302038" lon="13.2325564"><ele>225.0</ele><time>2026-05-01T08:06:13.837Z</time></trkpt><trkpt lat="43.2302645" lon="13.2324931"><ele>223.99999999999997</ele><time>2026-05-01T08:06:14.837Z</time></trkpt><trkpt lat="43.2303419" lon="13.2324346"><ele>223.0</ele><time>2026-05-01T08:06:15.838Z</time></trkpt><trkpt lat="43.230432" lon="13.2323965"><ele>223.0</ele><time>2026-05-01T08:06:16.836Z</time></trkpt><trkpt lat="43.2305311" lon="13.2323653"><ele>223.0</ele><time>2026-05-01T08:06:17.837Z</time></trkpt><trkpt lat="43.2306333" lon="13.2323288"><ele>223.0</ele><time>2026-05-01T08:06:18.837Z</time></trkpt><trkpt lat="43.2307415" lon="13.2322973"><ele>223.0</ele><time>2026-05-01T08:06:19.837Z</time></trkpt><trkpt lat="43.2308495" lon="13.2322739"><ele>223.0</ele><time>2026-05-01T08:06:20.837Z</time></trkpt><trkpt lat="43.230953" lon="13.2322526"><ele>224.75</ele><time>2026-05-01T08:06:21.836Z</time></trkpt><trkpt lat="43.2310561" lon="13.2322354"><ele>226.5</ele><time>2026-05-01T08:06:22.836Z</time></trkpt><trkpt lat="43.231162" lon="13.2322104"><ele>228.25</ele><time>2026-05-01T08:06:23.836Z</time></trkpt><trkpt lat="43.2312853" lon="13.2321769"><ele>230.0</ele><time>2026-05-01T08:06:24.836Z</time></trkpt><trkpt lat="43.2314061" lon="13.2321466"><ele>229.4</ele><time>2026-05-01T08:06:25.836Z</time></trkpt><trkpt lat="43.2315182" lon="13.2321163"><ele>228.8</ele><time>2026-05-01T08:06:26.836Z</time></trkpt><trkpt lat="43.2316233" lon="13.2320931"><ele>228.2</ele><time>2026-05-01T08:06:27.836Z</time></trkpt><trkpt lat="43.2317226" lon="13.2320618"><ele>227.6</ele><time>2026-05-01T08:06:28.837Z</time></trkpt><trkpt lat="43.2318176" lon="13.2320322"><ele>227.0</ele><time>2026-05-01T08:06:29.836Z</time></trkpt><trkpt lat="43.2319126" lon="13.2319968"><ele>227.0</ele><time>2026-05-01T08:06:30.836Z</time></trkpt><trkpt lat="43.2320083" lon="13.2319562"><ele>227.0</ele><time>2026-05-01T08:06:31.837Z</time></trkpt><trkpt lat="43.2321044" lon="13.231916"><ele>227.0</ele><time>2026-05-01T08:06:32.836Z</time></trkpt><trkpt lat="43.2322009" lon="13.2318749"><ele>227.0</ele><time>2026-05-01T08:06:33.837Z</time></trkpt><trkpt lat="43.2322964" lon="13.2318384"><ele>227.0</ele><time>2026-05-01T08:06:34.836Z</time></trkpt><trkpt lat="43.2323909" lon="13.231803"><ele>226.25</ele><time>2026-05-01T08:06:35.836Z</time></trkpt><trkpt lat="43.232495" lon="13.2317721"><ele>225.5</ele><time>2026-05-01T08:06:36.836Z</time></trkpt><trkpt lat="43.2326044" lon="13.2317309"><ele>224.75</ele><time>2026-05-01T08:06:37.838Z</time></trkpt><trkpt lat="43.2327186" lon="13.2316864"><ele>224.0</ele><time>2026-05-01T08:06:38.837Z</time></trkpt><trkpt lat="43.2328367" lon="13.2316379"><ele>224.0</ele><time>2026-05-01T08:06:39.836Z</time></trkpt><trkpt lat="43.2329586" lon="13.2315917"><ele>224.0</ele><time>2026-05-01T08:06:40.836Z</time></trkpt><trkpt lat="43.2330788" lon="13.2315437"><ele>224.0</ele><time>2026-05-01T08:06:41.838Z</time></trkpt><trkpt lat="43.2332007" lon="13.2314943"><ele>224.0</ele><time>2026-05-01T08:06:42.837Z</time></trkpt><trkpt lat="43.2333221" lon="13.2314425"><ele>224.5</ele><time>2026-05-01T08:06:43.837Z</time></trkpt><trkpt lat="43.2334389" lon="13.2313953"><ele>225.0</ele><time>2026-05-01T08:06:44.836Z</time></trkpt><trkpt lat="43.2335576" lon="13.2313457"><ele>225.5</ele><time>2026-05-01T08:06:45.837Z</time></trkpt><trkpt lat="43.2336776" lon="13.2312995"><ele>226.0</ele><time>2026-05-01T08:06:46.837Z</time></trkpt><trkpt lat="43.2337919" lon="13.2312601"><ele>226.0</ele><time>2026-05-01T08:06:47.836Z</time></trkpt><trkpt lat="43.2339023" lon="13.2312237"><ele>226.0</ele><time>2026-05-01T08:06:48.837Z</time></trkpt><trkpt lat="43.2340089" lon="13.2311889"><ele>226.0</ele><time>2026-05-01T08:06:49.837Z</time></trkpt><trkpt lat="43.2341181" lon="13.2311478"><ele>226.0</ele><time>2026-05-01T08:06:50.837Z</time></trkpt><trkpt lat="43.2342275" lon="13.2311031"><ele>225.25</ele><time>2026-05-01T08:06:51.836Z</time></trkpt><trkpt lat="43.2343342" lon="13.2310563"><ele>224.5</ele><time>2026-05-01T08:06:52.837Z</time></trkpt><trkpt lat="43.2344445" lon="13.2310135"><ele>223.75</ele><time>2026-05-01T08:06:53.837Z</time></trkpt><trkpt lat="43.234557" lon="13.2309799"><ele>223.0</ele><time>2026-05-01T08:06:54.838Z</time></trkpt><trkpt lat="43.2346665" lon="13.2309608"><ele>223.0</ele><time>2026-05-01T08:06:55.837Z</time></trkpt><trkpt lat="43.2347758" lon="13.2309578"><ele>223.0</ele><time>2026-05-01T08:06:56.837Z</time></trkpt><trkpt lat="43.2348766" lon="13.2309564"><ele>223.0</ele><time>2026-05-01T08:06:57.837Z</time></trkpt><trkpt lat="43.2349759" lon="13.2309723"><ele>223.0</ele><time>2026-05-01T08:06:58.836Z</time></trkpt><trkpt lat="43.2350726" lon="13.230991"><ele>223.0</ele><time>2026-05-01T08:06:59.837Z</time></trkpt><trkpt lat="43.2351689" lon="13.2310072"><ele>222.2</ele><time>2026-05-01T08:07:00.837Z</time></trkpt><trkpt lat="43.2352641" lon="13.2310212"><ele>221.4</ele><time>2026-05-01T08:07:01.837Z</time></trkpt><trkpt lat="43.2353632" lon="13.2310294"><ele>220.59999999999997</ele><time>2026-05-01T08:07:02.837Z</time></trkpt><trkpt lat="43.2354591" lon="13.2310301"><ele>219.79999999999998</ele><time>2026-05-01T08:07:03.836Z</time></trkpt><trkpt lat="43.2355562" lon="13.2310365"><ele>219.0</ele><time>2026-05-01T08:07:04.836Z</time></trkpt><trkpt lat="43.2356556" lon="13.2310442"><ele>218.16666666666666</ele><time>2026-05-01T08:07:05.836Z</time></trkpt><trkpt lat="43.2357554" lon="13.2310456"><ele>217.33333333333331</ele><time>2026-05-01T08:07:06.837Z</time></trkpt><trkpt lat="43.2358474" lon="13.2310502"><ele>216.5</ele><time>2026-05-01T08:07:07.836Z</time></trkpt><trkpt lat="43.2359376" lon="13.2310586"><ele>215.66666666666666</ele><time>2026-05-01T08:07:08.837Z</time></trkpt><trkpt lat="43.23602" lon="13.2310671"><ele>214.83333333333331</ele><time>2026-05-01T08:07:09.838Z</time></trkpt><trkpt lat="43.2360998" lon="13.2310698"><ele>214.0</ele><time>2026-05-01T08:07:10.836Z</time></trkpt><trkpt lat="43.236179" lon="13.2310693"><ele>213.99999999999997</ele><time>2026-05-01T08:07:11.838Z</time></trkpt><trkpt lat="43.2362465" lon="13.2310692"><ele>214.0</ele><time>2026-05-01T08:07:12.838Z</time></trkpt><trkpt lat="43.2363426" lon="13.2310935"><ele>214.0</ele><time>2026-05-01T08:07:14.836Z</time></trkpt><trkpt lat="43.2363634" lon="13.2312027"><ele>214.0</ele><time>2026-05-01T08:07:17.837Z</time></trkpt><trkpt lat="43.2363208" lon="13.2313105"><ele>213.99999999999997</ele><time>2026-05-01T08:07:19.837Z</time></trkpt><trkpt lat="43.2362673" lon="13.2314292"><ele>214.0</ele><time>2026-05-01T08:07:21.836Z</time></trkpt><trkpt lat="43.2362104" lon="13.2315661"><ele>213.33333333333331</ele><time>2026-05-01T08:07:23.836Z</time></trkpt><trkpt lat="43.2361764" lon="13.2316397"><ele>212.66666666666666</ele><time>2026-05-01T08:07:24.837Z</time></trkpt><trkpt lat="43.2361365" lon="13.2317202"><ele>212.0</ele><time>2026-05-01T08:07:25.836Z</time></trkpt><trkpt lat="43.2360967" lon="13.2318046"><ele>211.33333333333331</ele><time>2026-05-01T08:07:26.837Z</time></trkpt><trkpt lat="43.2360523" lon="13.2318949"><ele>210.66666666666666</ele><time>2026-05-01T08:07:27.837Z</time></trkpt><trkpt lat="43.2360034" lon="13.231998"><ele>210.0</ele><time>2026-05-01T08:07:28.837Z</time></trkpt><trkpt lat="43.2359499" lon="13.2321091"><ele>210.0</ele><time>2026-05-01T08:07:29.837Z</time></trkpt><trkpt lat="43.2358925" lon="13.2322306"><ele>210.0</ele><time>2026-05-01T08:07:30.837Z</time></trkpt><trkpt lat="43.2358311" lon="13.2323555"><ele>210.0</ele><time>2026-05-01T08:07:31.836Z</time></trkpt><trkpt lat="43.2357672" lon="13.2324869"><ele>210.0</ele><time>2026-05-01T08:07:32.838Z</time></trkpt><trkpt lat="43.235701" lon="13.2326241"><ele>212.0</ele><time>2026-05-01T08:07:33.836Z</time></trkpt><trkpt lat="43.2356365" lon="13.2327632"><ele>214.0</ele><time>2026-05-01T08:07:34.836Z</time></trkpt><trkpt lat="43.2355647" lon="13.2329091"><ele>216.0</ele><time>2026-05-01T08:07:35.836Z</time></trkpt><trkpt lat="43.2354931" lon="13.2330655"><ele>218.0</ele><time>2026-05-01T08:07:36.837Z</time></trkpt><trkpt lat="43.2354425" lon="13.2332311"><ele>219.5</ele><time>2026-05-01T08:07:37.836Z</time></trkpt><trkpt lat="43.235409" lon="13.233407"><ele>221.0</ele><time>2026-05-01T08:07:38.836Z</time></trkpt><trkpt lat="43.2354001" lon="13.2335831"><ele>222.5</ele><time>2026-05-01T08:07:39.837Z</time></trkpt><trkpt lat="43.2354047" lon="13.2337513"><ele>224.0</ele><time>2026-05-01T08:07:40.837Z</time></trkpt><trkpt lat="43.2353958" lon="13.2339187"><ele>225.0</ele><time>2026-05-01T08:07:41.837Z</time></trkpt><trkpt lat="43.2353522" lon="13.2340817"><ele>226.0</ele><time>2026-05-01T08:07:42.837Z</time></trkpt><trkpt lat="43.2352742" lon="13.2342201"><ele>227.0</ele><time>2026-05-01T08:07:43.836Z</time></trkpt><trkpt lat="43.2351795" lon="13.2343145"><ele>228.0</ele><time>2026-05-01T08:07:44.838Z</time></trkpt><trkpt lat="43.2350669" lon="13.2343473"><ele>228.0</ele><time>2026-05-01T08:07:45.838Z</time></trkpt><trkpt lat="43.2349602" lon="13.2343091"><ele>228.0</ele><time>2026-05-01T08:07:46.836Z</time></trkpt><trkpt lat="43.2348661" lon="13.2342157"><ele>228.0</ele><time>2026-05-01T08:07:47.837Z</time></trkpt><trkpt lat="43.2347736" lon="13.2341045"><ele>228.0</ele><time>2026-05-01T08:07:48.836Z</time></trkpt><trkpt lat="43.2346813" lon="13.2339942"><ele>229.25</ele><time>2026-05-01T08:07:49.836Z</time></trkpt><trkpt lat="43.2345869" lon="13.2338879"><ele>230.5</ele><time>2026-05-01T08:07:50.838Z</time></trkpt><trkpt lat="43.2344906" lon="13.2337899"><ele>231.75</ele><time>2026-05-01T08:07:51.836Z</time></trkpt><trkpt lat="43.2343916" lon="13.2337016"><ele>233.0</ele><time>2026-05-01T08:07:52.836Z</time></trkpt><trkpt lat="43.2342857" lon="13.2336304"><ele>233.0</ele><time>2026-05-01T08:07:53.836Z</time></trkpt><trkpt lat="43.2341753" lon="13.2335785"><ele>233.0</ele><time>2026-05-01T08:07:54.837Z</time></trkpt><trkpt lat="43.2340599" lon="13.2335467"><ele>233.0</ele><time>2026-05-01T08:07:55.836Z</time></trkpt><trkpt lat="43.2339428" lon="13.2335399"><ele>233.0</ele><time>2026-05-01T08:07:56.837Z</time></trkpt><trkpt lat="43.2338317" lon="13.2335714"><ele>234.0</ele><time>2026-05-01T08:07:57.837Z</time></trkpt><trkpt lat="43.2337339" lon="13.2336511"><ele>235.0</ele><time>2026-05-01T08:07:58.837Z</time></trkpt><trkpt lat="43.2336686" lon="13.2337677"><ele>236.0</ele><time>2026-05-01T08:07:59.837Z</time></trkpt><trkpt lat="43.2336335" lon="13.2339094"><ele>237.0</ele><time>2026-05-01T08:08:00.837Z</time></trkpt><trkpt lat="43.2336242" lon="13.2340601"><ele>238.0</ele><time>2026-05-01T08:08:01.836Z</time></trkpt><trkpt lat="43.2336297" lon="13.2342171"><ele>238.0</ele><time>2026-05-01T08:08:02.837Z</time></trkpt><trkpt lat="43.2336312" lon="13.2343786"><ele>238.0</ele><time>2026-05-01T08:08:03.836Z</time></trkpt><trkpt lat="43.2336101" lon="13.2345244"><ele>238.0</ele><time>2026-05-01T08:08:04.838Z</time></trkpt><trkpt lat="43.2335565" lon="13.2346463"><ele>238.0</ele><time>2026-05-01T08:08:05.837Z</time></trkpt><trkpt lat="43.2334699" lon="13.2347225"><ele>238.0</ele><time>2026-05-01T08:08:06.836Z</time></trkpt><trkpt lat="43.2333641" lon="13.2347516"><ele>238.0</ele><time>2026-05-01T08:08:07.836Z</time></trkpt><trkpt lat="43.23325" lon="13.2347359"><ele>238.0</ele><time>2026-05-01T08:08:08.836Z</time></trkpt><trkpt lat="43.2331368" lon="13.2347088"><ele>238.0</ele><time>2026-05-01T08:08:09.836Z</time></trkpt><trkpt lat="43.2330225" lon="13.234699"><ele>238.0</ele><time>2026-05-01T08:08:10.837Z</time></trkpt><trkpt lat="43.2329058" lon="13.2347173"><ele>237.5</ele><time>2026-05-01T08:08:11.836Z</time></trkpt><trkpt lat="43.2327934" lon="13.2347677"><ele>237.0</ele><time>2026-05-01T08:08:12.837Z</time></trkpt><trkpt lat="43.2326925" lon="13.2348533"><ele>236.5</ele><time>2026-05-01T08:08:13.836Z</time></trkpt><trkpt lat="43.2326081" lon="13.2349676"><ele>236.0</ele><time>2026-05-01T08:08:14.837Z</time></trkpt><trkpt lat="43.2325557" lon="13.2351025"><ele>238.75</ele><time>2026-05-01T08:08:15.837Z</time></trkpt><trkpt lat="43.2325364" lon="13.2352572"><ele>241.5</ele><time>2026-05-01T08:08:16.836Z</time></trkpt><trkpt lat="43.2325433" lon="13.2354192"><ele>244.25</ele><time>2026-05-01T08:08:17.837Z</time></trkpt><trkpt lat="43.2325647" lon="13.2355821"><ele>247.0</ele><time>2026-05-01T08:08:18.837Z</time></trkpt><trkpt lat="43.232598" lon="13.2357497"><ele>248.5</ele><time>2026-05-01T08:08:19.837Z</time></trkpt><trkpt lat="43.2326323" lon="13.2359191"><ele>250.0</ele><time>2026-05-01T08:08:20.836Z</time></trkpt><trkpt lat="43.2326592" lon="13.2360966"><ele>251.5</ele><time>2026-05-01T08:08:21.837Z</time></trkpt><trkpt lat="43.2326881" lon="13.2362803"><ele>253.0</ele><time>2026-05-01T08:08:22.836Z</time></trkpt><trkpt lat="43.2327154" lon="13.23647"><ele>254.66666666666666</ele><time>2026-05-01T08:08:23.837Z</time></trkpt><trkpt lat="43.2327363" lon="13.2366743"><ele>256.3333333333333</ele><time>2026-05-01T08:08:24.837Z</time></trkpt><trkpt lat="43.232752" lon="13.2368939"><ele>258.0</ele><time>2026-05-01T08:08:25.838Z</time></trkpt><trkpt lat="43.2327673" lon="13.237127"><ele>260.0</ele><time>2026-05-01T08:08:26.836Z</time></trkpt><trkpt lat="43.2327791" lon="13.2373578"><ele>262.0</ele><time>2026-05-01T08:08:27.837Z</time></trkpt><trkpt lat="43.2327829" lon="13.2375851"><ele>264.0</ele><time>2026-05-01T08:08:28.837Z</time></trkpt><trkpt lat="43.23278" lon="13.2378066"><ele>264.0</ele><time>2026-05-01T08:08:29.836Z</time></trkpt><trkpt lat="43.2327707" lon="13.2380199"><ele>264.0</ele><time>2026-05-01T08:08:30.837Z</time></trkpt><trkpt lat="43.2327507" lon="13.2382148"><ele>264.0</ele><time>2026-05-01T08:08:31.837Z</time></trkpt><trkpt lat="43.2327174" lon="13.2384061"><ele>264.0</ele><time>2026-05-01T08:08:32.837Z</time></trkpt><trkpt lat="43.2326853" lon="13.2385897"><ele>266.0</ele><time>2026-05-01T08:08:33.838Z</time></trkpt><trkpt lat="43.2326521" lon="13.2387695"><ele>268.0</ele><time>2026-05-01T08:08:34.837Z</time></trkpt><trkpt lat="43.2326238" lon="13.2389433"><ele>270.0</ele><time>2026-05-01T08:08:35.836Z</time></trkpt><trkpt lat="43.2325932" lon="13.2391121"><ele>272.0</ele><time>2026-05-01T08:08:36.836Z</time></trkpt><trkpt lat="43.2325588" lon="13.2392747"><ele>272.75</ele><time>2026-05-01T08:08:37.836Z</time></trkpt><trkpt lat="43.232524" lon="13.2394309"><ele>273.5</ele><time>2026-05-01T08:08:38.837Z</time></trkpt><trkpt lat="43.2324601" lon="13.2395664"><ele>274.25</ele><time>2026-05-01T08:08:39.838Z</time></trkpt><trkpt lat="43.2323746" lon="13.2396779"><ele>275.0</ele><time>2026-05-01T08:08:40.836Z</time></trkpt><trkpt lat="43.2322767" lon="13.2397634"><ele>276.5</ele><time>2026-05-01T08:08:41.836Z</time></trkpt><trkpt lat="43.2321692" lon="13.2398333"><ele>278.0</ele><time>2026-05-01T08:08:42.837Z</time></trkpt><trkpt lat="43.2320586" lon="13.2398963"><ele>279.5</ele><time>2026-05-01T08:08:43.837Z</time></trkpt><trkpt lat="43.2319477" lon="13.2399652"><ele>281.0</ele><time>2026-05-01T08:08:44.836Z</time></trkpt><trkpt lat="43.2318427" lon="13.2400382"><ele>281.0</ele><time>2026-05-01T08:08:45.837Z</time></trkpt><trkpt lat="43.2317408" lon="13.2401198"><ele>281.0</ele><time>2026-05-01T08:08:46.838Z</time></trkpt><trkpt lat="43.2316488" lon="13.2402233"><ele>281.0</ele><time>2026-05-01T08:08:47.836Z</time></trkpt><trkpt lat="43.231562" lon="13.2403431"><ele>281.0</ele><time>2026-05-01T08:08:48.836Z</time></trkpt><trkpt lat="43.2314857" lon="13.2404747"><ele>280.0</ele><time>2026-05-01T08:08:49.836Z</time></trkpt><trkpt lat="43.2314195" lon="13.2406104"><ele>279.0</ele><time>2026-05-01T08:08:50.838Z</time></trkpt><trkpt lat="43.2313676" lon="13.2407528"><ele>278.0</ele><time>2026-05-01T08:08:51.836Z</time></trkpt><trkpt lat="43.2313348" lon="13.240901"><ele>277.0</ele><time>2026-05-01T08:08:52.836Z</time></trkpt><trkpt lat="43.2313214" lon="13.241051"><ele>277.0</ele><time>2026-05-01T08:08:53.836Z</time></trkpt><trkpt lat="43.2313279" lon="13.2412028"><ele>277.0</ele><time>2026-05-01T08:08:54.836Z</time></trkpt><trkpt lat="43.2313509" lon="13.2413532"><ele>277.0</ele><time>2026-05-01T08:08:55.838Z</time></trkpt><trkpt lat="43.2313859" lon="13.2415072"><ele>277.0</ele><time>2026-05-01T08:08:56.836Z</time></trkpt><trkpt lat="43.2314157" lon="13.2416682"><ele>278.25</ele><time>2026-05-01T08:08:57.837Z</time></trkpt><trkpt lat="43.231429" lon="13.2418399"><ele>279.5</ele><time>2026-05-01T08:08:58.837Z</time></trkpt><trkpt lat="43.2314332" lon="13.2420158"><ele>280.75</ele><time>2026-05-01T08:08:59.837Z</time></trkpt><trkpt lat="43.2314263" lon="13.2421923"><ele>282.0</ele><time>2026-05-01T08:09:00.836Z</time></trkpt><trkpt lat="43.2314022" lon="13.242368"><ele>284.0</ele><time>2026-05-01T08:09:01.837Z</time></trkpt><trkpt lat="43.2313568" lon="13.2425368"><ele>286.0</ele><time>2026-05-01T08:09:02.836Z</time></trkpt><trkpt lat="43.2313007" lon="13.2426958"><ele>288.0</ele><time>2026-05-01T08:09:03.836Z</time></trkpt><trkpt lat="43.2312302" lon="13.2428469"><ele>290.0</ele><time>2026-05-01T08:09:04.836Z</time></trkpt><trkpt lat="43.2311452" lon="13.242983"><ele>290.0</ele><time>2026-05-01T08:09:05.837Z</time></trkpt><trkpt lat="43.2310532" lon="13.2431125"><ele>290.0</ele><time>2026-05-01T08:09:06.836Z</time></trkpt><trkpt lat="43.2309623" lon="13.2432448"><ele>290.0</ele><time>2026-05-01T08:09:07.837Z</time></trkpt><trkpt lat="43.2308675" lon="13.243373"><ele>290.0</ele><time>2026-05-01T08:09:08.836Z</time></trkpt><trkpt lat="43.2307656" lon="13.2434913"><ele>291.5</ele><time>2026-05-01T08:09:09.837Z</time></trkpt><trkpt lat="43.2306583" lon="13.2435925"><ele>293.0</ele><time>2026-05-01T08:09:10.837Z</time></trkpt><trkpt lat="43.2305467" lon="13.2436733"><ele>294.5</ele><time>2026-05-01T08:09:11.836Z</time></trkpt><trkpt lat="43.2304326" lon="13.2437353"><ele>296.0</ele><time>2026-05-01T08:09:12.837Z</time></trkpt><trkpt lat="43.2303255" lon="13.2437965"><ele>296.0</ele><time>2026-05-01T08:09:13.836Z</time></trkpt><trkpt lat="43.230229" lon="13.2438836"><ele>296.0</ele><time>2026-05-01T08:09:14.838Z</time></trkpt><trkpt lat="43.2301567" lon="13.2440035"><ele>296.0</ele><time>2026-05-01T08:09:15.837Z</time></trkpt><trkpt lat="43.2301104" lon="13.2441463"><ele>296.0</ele><time>2026-05-01T08:09:16.837Z</time></trkpt><trkpt lat="43.2300815" lon="13.2442983"><ele>298.75</ele><time>2026-05-01T08:09:17.837Z</time></trkpt><trkpt lat="43.2300474" lon="13.2444534"><ele>301.5</ele><time>2026-05-01T08:09:18.836Z</time></trkpt><trkpt lat="43.2299914" lon="13.2445975"><ele>304.25</ele><time>2026-05-01T08:09:19.837Z</time></trkpt><trkpt lat="43.2299211" lon="13.2447251"><ele>307.0</ele><time>2026-05-01T08:09:20.836Z</time></trkpt><trkpt lat="43.2298383" lon="13.244838"><ele>309.75</ele><time>2026-05-01T08:09:21.836Z</time></trkpt><trkpt lat="43.2297376" lon="13.2449276"><ele>312.5</ele><time>2026-05-01T08:09:22.836Z</time></trkpt><trkpt lat="43.2296228" lon="13.2449811"><ele>315.25</ele><time>2026-05-01T08:09:23.837Z</time></trkpt><trkpt lat="43.2295002" lon="13.244992"><ele>318.0</ele><time>2026-05-01T08:09:24.837Z</time></trkpt><trkpt lat="43.2293777" lon="13.2449609"><ele>318.0</ele><time>2026-05-01T08:09:25.837Z</time></trkpt><trkpt lat="43.2292512" lon="13.2449269"><ele>318.0</ele><time>2026-05-01T08:09:26.836Z</time></trkpt><trkpt lat="43.229121" lon="13.2449004"><ele>318.0</ele><time>2026-05-01T08:09:27.836Z</time></trkpt><trkpt lat="43.2289908" lon="13.2448543"><ele>318.0</ele><time>2026-05-01T08:09:28.836Z</time></trkpt><trkpt lat="43.2288617" lon="13.2448105"><ele>316.5</ele><time>2026-05-01T08:09:29.836Z</time></trkpt><trkpt lat="43.2287369" lon="13.2447683"><ele>315.0</ele><time>2026-05-01T08:09:30.837Z</time></trkpt><trkpt lat="43.2286095" lon="13.2447379"><ele>313.5</ele><time>2026-05-01T08:09:31.836Z</time></trkpt><trkpt lat="43.2284866" lon="13.244736"><ele>312.0</ele><time>2026-05-01T08:09:32.837Z</time></trkpt><trkpt lat="43.2283727" lon="13.2447695"><ele>314.8</ele><time>2026-05-01T08:09:33.837Z</time></trkpt><trkpt lat="43.2282814" lon="13.2448538"><ele>317.6</ele><time>2026-05-01T08:09:34.836Z</time></trkpt><trkpt lat="43.2282254" lon="13.2449696"><ele>320.40000000000003</ele><time>2026-05-01T08:09:35.837Z</time></trkpt><trkpt lat="43.2282041" lon="13.2451101"><ele>323.2</ele><time>2026-05-01T08:09:36.836Z</time></trkpt><trkpt lat="43.2281893" lon="13.2452596"><ele>326.0</ele><time>2026-05-01T08:09:37.837Z</time></trkpt><trkpt lat="43.2281551" lon="13.2454082"><ele>326.4</ele><time>2026-05-01T08:09:38.837Z</time></trkpt><trkpt lat="43.2280839" lon="13.2455284"><ele>326.8</ele><time>2026-05-01T08:09:39.838Z</time></trkpt><trkpt lat="43.2279907" lon="13.2456075"><ele>327.2</ele><time>2026-05-01T08:09:40.836Z</time></trkpt><trkpt lat="43.2278946" lon="13.2456837"><ele>327.59999999999997</ele><time>2026-05-01T08:09:41.837Z</time></trkpt><trkpt lat="43.2278034" lon="13.2457717"><ele>328.0</ele><time>2026-05-01T08:09:42.837Z</time></trkpt><trkpt lat="43.2277171" lon="13.2458746"><ele>328.0</ele><time>2026-05-01T08:09:43.836Z</time></trkpt><trkpt lat="43.2276521" lon="13.2460071"><ele>328.0</ele><time>2026-05-01T08:09:44.836Z</time></trkpt><trkpt lat="43.2276225" lon="13.2461657"><ele>328.0</ele><time>2026-05-01T08:09:45.838Z</time></trkpt><trkpt lat="43.2276253" lon="13.2463341"><ele>328.0</ele><time>2026-05-01T08:09:46.837Z</time></trkpt><trkpt lat="43.2276418" lon="13.2465085"><ele>330.0</ele><time>2026-05-01T08:09:47.836Z</time></trkpt><trkpt lat="43.2276582" lon="13.2466904"><ele>332.0</ele><time>2026-05-01T08:09:48.836Z</time></trkpt><trkpt lat="43.2276548" lon="13.2468781"><ele>334.0</ele><time>2026-05-01T08:09:49.836Z</time></trkpt><trkpt lat="43.2276094" lon="13.2470526"><ele>336.0</ele><time>2026-05-01T08:09:50.837Z</time></trkpt><trkpt lat="43.2275271" lon="13.2471873"><ele>336.0</ele><time>2026-05-01T08:09:51.836Z</time></trkpt><trkpt lat="43.2274243" lon="13.2472895"><ele>336.0</ele><time>2026-05-01T08:09:52.837Z</time></trkpt><trkpt lat="43.227323" lon="13.2473871"><ele>336.0</ele><time>2026-05-01T08:09:53.837Z</time></trkpt><trkpt lat="43.2272285" lon="13.2474982"><ele>336.0</ele><time>2026-05-01T08:09:54.838Z</time></trkpt><trkpt lat="43.2271419" lon="13.2476231"><ele>336.75</ele><time>2026-05-01T08:09:55.836Z</time></trkpt><trkpt lat="43.2270589" lon="13.2477564"><ele>337.5</ele><time>2026-05-01T08:09:56.838Z</time></trkpt><trkpt lat="43.2269753" lon="13.2478905"><ele>338.25</ele><time>2026-05-01T08:09:57.837Z</time></trkpt><trkpt lat="43.2268926" lon="13.2480164"><ele>339.0</ele><time>2026-05-01T08:09:58.837Z</time></trkpt><trkpt lat="43.2268144" lon="13.2481483"><ele>341.2</ele><time>2026-05-01T08:09:59.837Z</time></trkpt><trkpt lat="43.2267508" lon="13.2482819"><ele>343.4</ele><time>2026-05-01T08:10:00.836Z</time></trkpt><trkpt lat="43.226703" lon="13.2484209"><ele>345.6</ele><time>2026-05-01T08:10:01.837Z</time></trkpt><trkpt lat="43.2266665" lon="13.248556"><ele>347.8</ele><time>2026-05-01T08:10:02.838Z</time></trkpt><trkpt lat="43.2266413" lon="13.2486802"><ele>350.0</ele><time>2026-05-01T08:10:03.837Z</time></trkpt><trkpt lat="43.2266119" lon="13.248784"><ele>350.0</ele><time>2026-05-01T08:10:04.837Z</time></trkpt><trkpt lat="43.2265923" lon="13.2488741"><ele>350.0</ele><time>2026-05-01T08:10:05.837Z</time></trkpt><trkpt lat="43.2266426" lon="13.2490243"><ele>350.0</ele><time>2026-05-01T08:10:07.837Z</time></trkpt><trkpt lat="43.2266936" lon="13.2490833"><ele>350.0</ele><time>2026-05-01T08:10:08.837Z</time></trkpt><trkpt lat="43.2267452" lon="13.2491462"><ele>350.0</ele><time>2026-05-01T08:10:09.836Z</time></trkpt><trkpt lat="43.2268014" lon="13.2492198"><ele>350.0</ele><time>2026-05-01T08:10:10.837Z</time></trkpt><trkpt lat="43.2268598" lon="13.2493018"><ele>351.5</ele><time>2026-05-01T08:10:11.836Z</time></trkpt><trkpt lat="43.2269183" lon="13.2493923"><ele>353.0</ele><time>2026-05-01T08:10:12.836Z</time></trkpt><trkpt lat="43.2269621" lon="13.249498"><ele>354.5</ele><time>2026-05-01T08:10:13.836Z</time></trkpt><trkpt lat="43.2269793" lon="13.2496139"><ele>356.0</ele><time>2026-05-01T08:10:14.836Z</time></trkpt><trkpt lat="43.2269655" lon="13.2497339"><ele>357.5</ele><time>2026-05-01T08:10:15.837Z</time></trkpt><trkpt lat="43.226924" lon="13.2498531"><ele>359.0</ele><time>2026-05-01T08:10:16.837Z</time></trkpt><trkpt lat="43.2268628" lon="13.2499682"><ele>361.75</ele><time>2026-05-01T08:10:17.837Z</time></trkpt><trkpt lat="43.2267908" lon="13.250086"><ele>364.5</ele><time>2026-05-01T08:10:18.836Z</time></trkpt><trkpt lat="43.2267138" lon="13.2502058"><ele>367.25</ele><time>2026-05-01T08:10:19.837Z</time></trkpt><trkpt lat="43.2266265" lon="13.2503259"><ele>370.0</ele><time>2026-05-01T08:10:20.837Z</time></trkpt><trkpt lat="43.2265293" lon="13.2504446"><ele>369.0</ele><time>2026-05-01T08:10:21.836Z</time></trkpt><trkpt lat="43.22643" lon="13.2505596"><ele>368.0</ele><time>2026-05-01T08:10:22.836Z</time></trkpt><trkpt lat="43.2263358" lon="13.2506749"><ele>367.0</ele><time>2026-05-01T08:10:23.837Z</time></trkpt><trkpt lat="43.2262543" lon="13.2507977"><ele>366.0</ele><time>2026-05-01T08:10:24.837Z</time></trkpt><trkpt lat="43.2261824" lon="13.2509287"><ele>368.5</ele><time>2026-05-01T08:10:25.836Z</time></trkpt><trkpt lat="43.2261211" lon="13.251065"><ele>371.0</ele><time>2026-05-01T08:10:26.837Z</time></trkpt><trkpt lat="43.2260613" lon="13.2512026"><ele>373.5</ele><time>2026-05-01T08:10:27.837Z</time></trkpt><trkpt lat="43.2259967" lon="13.251339"><ele>376.0</ele><time>2026-05-01T08:10:28.836Z</time></trkpt><trkpt lat="43.2259227" lon="13.2514617"><ele>377.75</ele><time>2026-05-01T08:10:29.836Z</time></trkpt><trkpt lat="43.2258425" lon="13.2515769"><ele>379.5</ele><time>2026-05-01T08:10:30.837Z</time></trkpt><trkpt lat="43.225757" lon="13.2516947"><ele>381.25</ele><time>2026-05-01T08:10:31.836Z</time></trkpt><trkpt lat="43.2256724" lon="13.2518142"><ele>383.0</ele><time>2026-05-01T08:10:32.836Z</time></trkpt><trkpt lat="43.2255802" lon="13.2519285"><ele>384.0</ele><time>2026-05-01T08:10:33.837Z</time></trkpt><trkpt lat="43.2254932" lon="13.252049"><ele>385.0</ele><time>2026-05-01T08:10:34.836Z</time></trkpt><trkpt lat="43.2254074" lon="13.2521719"><ele>386.0</ele><time>2026-05-01T08:10:35.836Z</time></trkpt><trkpt lat="43.225322" lon="13.2522916"><ele>387.0</ele><time>2026-05-01T08:10:36.837Z</time></trkpt><trkpt lat="43.2252372" lon="13.2524118"><ele>390.0</ele><time>2026-05-01T08:10:37.837Z</time></trkpt><trkpt lat="43.2251505" lon="13.2525332"><ele>393.0</ele><time>2026-05-01T08:10:38.837Z</time></trkpt><trkpt lat="43.2250637" lon="13.2526488"><ele>396.0</ele><time>2026-05-01T08:10:39.836Z</time></trkpt><trkpt lat="43.2249738" lon="13.2527647"><ele>399.0</ele><time>2026-05-01T08:10:40.836Z</time></trkpt><trkpt lat="43.2248906" lon="13.2528761"><ele>398.5</ele><time>2026-05-01T08:10:41.837Z</time></trkpt><trkpt lat="43.2248095" lon="13.2530066"><ele>398.0</ele><time>2026-05-01T08:10:42.836Z</time></trkpt><trkpt lat="43.2247402" lon="13.253142"><ele>397.5</ele><time>2026-05-01T08:10:43.837Z</time></trkpt><trkpt lat="43.2246928" lon="13.2532876"><ele>397.0</ele><time>2026-05-01T08:10:44.836Z</time></trkpt><trkpt lat="43.2246731" lon="13.2534369"><ele>399.5</ele><time>2026-05-01T08:10:45.836Z</time></trkpt><trkpt lat="43.2246872" lon="13.2535895"><ele>402.0</ele><time>2026-05-01T08:10:46.837Z</time></trkpt><trkpt lat="43.2247249" lon="13.2537335"><ele>404.5</ele><time>2026-05-01T08:10:47.837Z</time></trkpt><trkpt lat="43.2247865" lon="13.253867"><ele>407.0</ele><time>2026-05-01T08:10:48.836Z</time></trkpt><trkpt lat="43.2248667" lon="13.2539919"><ele>407.0</ele><time>2026-05-01T08:10:49.837Z</time></trkpt><trkpt lat="43.2249583" lon="13.2541186"><ele>407.0</ele><time>2026-05-01T08:10:50.838Z</time></trkpt><trkpt lat="43.2250558" lon="13.2542506"><ele>407.0</ele><time>2026-05-01T08:10:51.838Z</time></trkpt><trkpt lat="43.2251535" lon="13.25438"><ele>407.0</ele><time>2026-05-01T08:10:52.836Z</time></trkpt><trkpt lat="43.2252573" lon="13.2545033"><ele>407.0</ele><time>2026-05-01T08:10:53.837Z</time></trkpt><trkpt lat="43.2253636" lon="13.254624"><ele>407.0</ele><time>2026-05-01T08:10:54.837Z</time></trkpt><trkpt lat="43.2254709" lon="13.254749"><ele>407.0</ele><time>2026-05-01T08:10:55.836Z</time></trkpt><trkpt lat="43.2255706" lon="13.254882"><ele>407.0</ele><time>2026-05-01T08:10:56.838Z</time></trkpt><trkpt lat="43.2256753" lon="13.2550248"><ele>405.75</ele><time>2026-05-01T08:10:57.837Z</time></trkpt><trkpt lat="43.2257726" lon="13.2551622"><ele>404.5</ele><time>2026-05-01T08:10:58.836Z</time></trkpt><trkpt lat="43.2258675" lon="13.2553024"><ele>403.25</ele><time>2026-05-01T08:10:59.837Z</time></trkpt><trkpt lat="43.2259616" lon="13.2554456"><ele>402.0</ele><time>2026-05-01T08:11:00.838Z</time></trkpt><trkpt lat="43.2260571" lon="13.2555872"><ele>401.25</ele><time>2026-05-01T08:11:01.837Z</time></trkpt><trkpt lat="43.2261564" lon="13.255731"><ele>400.5</ele><time>2026-05-01T08:11:02.837Z</time></trkpt><trkpt lat="43.2262617" lon="13.2558745"><ele>399.75</ele><time>2026-05-01T08:11:03.837Z</time></trkpt><trkpt lat="43.2263709" lon="13.2560076"><ele>399.0</ele><time>2026-05-01T08:11:04.836Z</time></trkpt><trkpt lat="43.2264855" lon="13.2561352"><ele>399.0</ele><time>2026-05-01T08:11:05.837Z</time></trkpt><trkpt lat="43.2266026" lon="13.2562579"><ele>399.0</ele><time>2026-05-01T08:11:06.837Z</time></trkpt><trkpt lat="43.2267197" lon="13.2563866"><ele>399.0</ele><time>2026-05-01T08:11:07.837Z</time></trkpt><trkpt lat="43.2268312" lon="13.2565201"><ele>399.0</ele><time>2026-05-01T08:11:08.836Z</time></trkpt><trkpt lat="43.2269393" lon="13.2566592"><ele>399.0</ele><time>2026-05-01T08:11:09.837Z</time></trkpt><trkpt lat="43.227034" lon="13.2568089"><ele>399.0</ele><time>2026-05-01T08:11:10.838Z</time></trkpt><trkpt lat="43.2271229" lon="13.2569657"><ele>399.0</ele><time>2026-05-01T08:11:11.837Z</time></trkpt><trkpt lat="43.2272118" lon="13.257126"><ele>399.0</ele><time>2026-05-01T08:11:12.836Z</time></trkpt><trkpt lat="43.2272965" lon="13.257289"><ele>400.0</ele><time>2026-05-01T08:11:13.837Z</time></trkpt><trkpt lat="43.2273785" lon="13.2574556"><ele>401.0</ele><time>2026-05-01T08:11:14.837Z</time></trkpt><trkpt lat="43.2274601" lon="13.2576211"><ele>402.0</ele><time>2026-05-01T08:11:15.836Z</time></trkpt><trkpt lat="43.2275392" lon="13.257784"><ele>403.0</ele><time>2026-05-01T08:11:16.837Z</time></trkpt><trkpt lat="43.2276159" lon="13.2579458"><ele>403.0</ele><time>2026-05-01T08:11:17.837Z</time></trkpt><trkpt lat="43.2276886" lon="13.2581126"><ele>403.0</ele><time>2026-05-01T08:11:18.836Z</time></trkpt><trkpt lat="43.2277574" lon="13.2582814"><ele>403.0</ele><time>2026-05-01T08:11:19.838Z</time></trkpt><trkpt lat="43.2278223" lon="13.258452"><ele>403.0</ele><time>2026-05-01T08:11:20.837Z</time></trkpt><trkpt lat="43.2278899" lon="13.258626"><ele>402.75</ele><time>2026-05-01T08:11:21.838Z</time></trkpt><trkpt lat="43.2279582" lon="13.2587989"><ele>402.5</ele><time>2026-05-01T08:11:22.838Z</time></trkpt><trkpt lat="43.2280232" lon="13.2589696"><ele>402.25</ele><time>2026-05-01T08:11:23.836Z</time></trkpt><trkpt lat="43.228086" lon="13.2591405"><ele>402.0</ele><time>2026-05-01T08:11:24.837Z</time></trkpt><trkpt lat="43.2281518" lon="13.2593098"><ele>402.0</ele><time>2026-05-01T08:11:25.837Z</time></trkpt><trkpt lat="43.2282183" lon="13.2594847"><ele>402.0</ele><time>2026-05-01T08:11:26.837Z</time></trkpt><trkpt lat="43.2282842" lon="13.2596637"><ele>402.0</ele><time>2026-05-01T08:11:27.836Z</time></trkpt><trkpt lat="43.2283504" lon="13.2598431"><ele>402.0</ele><time>2026-05-01T08:11:28.836Z</time></trkpt><trkpt lat="43.2284179" lon="13.2600257"><ele>400.75</ele><time>2026-05-01T08:11:29.837Z</time></trkpt><trkpt lat="43.2284867" lon="13.2602055"><ele>399.5</ele><time>2026-05-01T08:11:30.836Z</time></trkpt><trkpt lat="43.2285513" lon="13.2603913"><ele>398.25</ele><time>2026-05-01T08:11:31.836Z</time></trkpt><trkpt lat="43.2286136" lon="13.2605771"><ele>397.0</ele><time>2026-05-01T08:11:32.837Z</time></trkpt><trkpt lat="43.2286773" lon="13.260761"><ele>395.5</ele><time>2026-05-01T08:11:33.837Z</time></trkpt><trkpt lat="43.228737" lon="13.2609396"><ele>394.0</ele><time>2026-05-01T08:11:34.837Z</time></trkpt><trkpt lat="43.228797" lon="13.2611105"><ele>392.5</ele><time>2026-05-01T08:11:35.838Z</time></trkpt><trkpt lat="43.2288561" lon="13.2612783"><ele>391.0</ele><time>2026-05-01T08:11:36.837Z</time></trkpt><trkpt lat="43.2289142" lon="13.2614397"><ele>392.0</ele><time>2026-05-01T08:11:37.837Z</time></trkpt><trkpt lat="43.2289703" lon="13.2615997"><ele>393.0</ele><time>2026-05-01T08:11:38.836Z</time></trkpt><trkpt lat="43.2290268" lon="13.2617508"><ele>394.0</ele><time>2026-05-01T08:11:39.836Z</time></trkpt><trkpt lat="43.2290853" lon="13.2619051"><ele>395.0</ele><time>2026-05-01T08:11:40.838Z</time></trkpt><trkpt lat="43.2291426" lon="13.2620581"><ele>395.0</ele><time>2026-05-01T08:11:41.836Z</time></trkpt><trkpt lat="43.2292028" lon="13.2622098"><ele>395.0</ele><time>2026-05-01T08:11:42.838Z</time></trkpt><trkpt lat="43.2292694" lon="13.2623529"><ele>395.0</ele><time>2026-05-01T08:11:43.836Z</time></trkpt><trkpt lat="43.2293431" lon="13.2624939"><ele>395.0</ele><time>2026-05-01T08:11:44.836Z</time></trkpt><trkpt lat="43.2294176" lon="13.2626304"><ele>394.25</ele><time>2026-05-01T08:11:45.837Z</time></trkpt><trkpt lat="43.2294961" lon="13.2627616"><ele>393.5</ele><time>2026-05-01T08:11:46.836Z</time></trkpt><trkpt lat="43.2295775" lon="13.2628857"><ele>392.75</ele><time>2026-05-01T08:11:47.837Z</time></trkpt><trkpt lat="43.2296592" lon="13.2630032"><ele>392.0</ele><time>2026-05-01T08:11:48.837Z</time></trkpt><trkpt lat="43.2297385" lon="13.2631158"><ele>390.0</ele><time>2026-05-01T08:11:49.837Z</time></trkpt><trkpt lat="43.2298261" lon="13.2632304"><ele>388.0</ele><time>2026-05-01T08:11:50.838Z</time></trkpt><trkpt lat="43.2299174" lon="13.2633527"><ele>386.0</ele><time>2026-05-01T08:11:51.837Z</time></trkpt><trkpt lat="43.2300141" lon="13.2634785"><ele>384.0</ele><time>2026-05-01T08:11:52.837Z</time></trkpt><trkpt lat="43.2301142" lon="13.26361"><ele>384.0</ele><time>2026-05-01T08:11:53.836Z</time></trkpt><trkpt lat="43.2302143" lon="13.263747"><ele>384.0</ele><time>2026-05-01T08:11:54.836Z</time></trkpt><trkpt lat="43.2303148" lon="13.2638853"><ele>384.0</ele><time>2026-05-01T08:11:55.837Z</time></trkpt><trkpt lat="43.2304127" lon="13.2640252"><ele>384.0</ele><time>2026-05-01T08:11:56.836Z</time></trkpt><trkpt lat="43.2305057" lon="13.2641662"><ele>383.25</ele><time>2026-05-01T08:11:57.836Z</time></trkpt><trkpt lat="43.2305983" lon="13.2643091"><ele>382.5</ele><time>2026-05-01T08:11:58.837Z</time></trkpt><trkpt lat="43.2306906" lon="13.2644525"><ele>381.75</ele><time>2026-05-01T08:11:59.836Z</time></trkpt><trkpt lat="43.2307759" lon="13.2646029"><ele>381.0</ele><time>2026-05-01T08:12:00.837Z</time></trkpt><trkpt lat="43.2308573" lon="13.2647533"><ele>382.75</ele><time>2026-05-01T08:12:01.836Z</time></trkpt><trkpt lat="43.230928" lon="13.2649077"><ele>384.5</ele><time>2026-05-01T08:12:02.837Z</time></trkpt><trkpt lat="43.2309972" lon="13.2650646"><ele>386.25</ele><time>2026-05-01T08:12:03.836Z</time></trkpt><trkpt lat="43.2310603" lon="13.2652248"><ele>388.0</ele><time>2026-05-01T08:12:04.837Z</time></trkpt><trkpt lat="43.2311172" lon="13.2653853"><ele>388.0</ele><time>2026-05-01T08:12:05.837Z</time></trkpt><trkpt lat="43.231169" lon="13.2655496"><ele>388.0</ele><time>2026-05-01T08:12:06.836Z</time></trkpt><trkpt lat="43.2312157" lon="13.2657175"><ele>388.0</ele><time>2026-05-01T08:12:07.836Z</time></trkpt><trkpt lat="43.2312606" lon="13.2658832"><ele>388.0</ele><time>2026-05-01T08:12:08.837Z</time></trkpt><trkpt lat="43.2313082" lon="13.2660492"><ele>388.25</ele><time>2026-05-01T08:12:09.837Z</time></trkpt><trkpt lat="43.2313656" lon="13.266209"><ele>388.5</ele><time>2026-05-01T08:12:10.836Z</time></trkpt><trkpt lat="43.2314364" lon="13.2663619"><ele>388.75</ele><time>2026-05-01T08:12:11.837Z</time></trkpt><trkpt lat="43.2315136" lon="13.2665039"><ele>389.0</ele><time>2026-05-01T08:12:12.836Z</time></trkpt><trkpt lat="43.2316009" lon="13.2666332"><ele>389.0</ele><time>2026-05-01T08:12:13.837Z</time></trkpt><trkpt lat="43.2316969" lon="13.2667565"><ele>389.0</ele><time>2026-05-01T08:12:14.838Z</time></trkpt><trkpt lat="43.2317823" lon="13.266888"><ele>389.0</ele><time>2026-05-01T08:12:15.836Z</time></trkpt><trkpt lat="43.2318698" lon="13.2670205"><ele>389.0</ele><time>2026-05-01T08:12:16.837Z</time></trkpt><trkpt lat="43.2319523" lon="13.2671576"><ele>388.5</ele><time>2026-05-01T08:12:17.837Z</time></trkpt><trkpt lat="43.232016" lon="13.2673126"><ele>388.0</ele><time>2026-05-01T08:12:18.837Z</time></trkpt><trkpt lat="43.2320622" lon="13.2674807"><ele>387.5</ele><time>2026-05-01T08:12:19.837Z</time></trkpt><trkpt lat="43.2320894" lon="13.2676577"><ele>387.0</ele><time>2026-05-01T08:12:20.836Z</time></trkpt><trkpt lat="43.2320984" lon="13.2678372"><ele>387.0</ele><time>2026-05-01T08:12:21.837Z</time></trkpt><trkpt lat="43.2321063" lon="13.2680163"><ele>387.0</ele><time>2026-05-01T08:12:22.838Z</time></trkpt><trkpt lat="43.2321273" lon="13.2681932"><ele>387.0</ele><time>2026-05-01T08:12:23.837Z</time></trkpt><trkpt lat="43.2321563" lon="13.2683612"><ele>387.0</ele><time>2026-05-01T08:12:24.837Z</time></trkpt><trkpt lat="43.2321884" lon="13.2685232"><ele>387.0</ele><time>2026-05-01T08:12:25.836Z</time></trkpt><trkpt lat="43.2322189" lon="13.2686687"><ele>387.0</ele><time>2026-05-01T08:12:26.836Z</time></trkpt><trkpt lat="43.2322458" lon="13.268791"><ele>387.0</ele><time>2026-05-01T08:12:27.836Z</time></trkpt><trkpt lat="43.2322715" lon="13.2688887"><ele>387.0</ele><time>2026-05-01T08:12:28.836Z</time></trkpt><trkpt lat="43.2323351" lon="13.2690209"><ele>387.0</ele><time>2026-05-01T08:12:30.837Z</time></trkpt><trkpt lat="43.2323952" lon="13.2689163"><ele>389.0</ele><time>2026-05-01T08:12:32.837Z</time></trkpt><trkpt lat="43.2324623" lon="13.2687742"><ele>391.0</ele><time>2026-05-01T08:12:34.838Z</time></trkpt><trkpt lat="43.2325129" lon="13.2686903"><ele>393.0</ele><time>2026-05-01T08:12:35.837Z</time></trkpt><trkpt lat="43.2325698" lon="13.2685968"><ele>395.0</ele><time>2026-05-01T08:12:36.837Z</time></trkpt><trkpt lat="43.2326331" lon="13.2684952"><ele>397.0</ele><time>2026-05-01T08:12:37.836Z</time></trkpt><trkpt lat="43.2327005" lon="13.2683861"><ele>397.0</ele><time>2026-05-01T08:12:38.837Z</time></trkpt><trkpt lat="43.2327759" lon="13.2682681"><ele>397.0</ele><time>2026-05-01T08:12:39.837Z</time></trkpt><trkpt lat="43.2328634" lon="13.2681496"><ele>397.0</ele><time>2026-05-01T08:12:40.837Z</time></trkpt><trkpt lat="43.2329544" lon="13.2680541"><ele>397.0</ele><time>2026-05-01T08:12:41.836Z</time></trkpt><trkpt lat="43.233057" lon="13.2679831"><ele>395.20000000000005</ele><time>2026-05-01T08:12:42.837Z</time></trkpt><trkpt lat="43.233162" lon="13.2679262"><ele>393.4</ele><time>2026-05-01T08:12:43.836Z</time></trkpt><trkpt lat="43.2332629" lon="13.2678683"><ele>391.6</ele><time>2026-05-01T08:12:44.837Z</time></trkpt><trkpt lat="43.233364" lon="13.2678106"><ele>389.79999999999995</ele><time>2026-05-01T08:12:45.837Z</time></trkpt><trkpt lat="43.2334751" lon="13.2677685"><ele>388.0</ele><time>2026-05-01T08:12:46.837Z</time></trkpt><trkpt lat="43.2335874" lon="13.2677392"><ele>388.0</ele><time>2026-05-01T08:12:47.838Z</time></trkpt><trkpt lat="43.2337104" lon="13.2677143"><ele>388.0</ele><time>2026-05-01T08:12:48.836Z</time></trkpt><trkpt lat="43.2338414" lon="13.2676921"><ele>388.0</ele><time>2026-05-01T08:12:49.837Z</time></trkpt><trkpt lat="43.233973" lon="13.2676677"><ele>388.0</ele><time>2026-05-01T08:12:50.837Z</time></trkpt><trkpt lat="43.2341087" lon="13.2676455"><ele>386.5</ele><time>2026-05-01T08:12:51.836Z</time></trkpt><trkpt lat="43.2342412" lon="13.2676281"><ele>385.0</ele><time>2026-05-01T08:12:52.837Z</time></trkpt><trkpt lat="43.2343708" lon="13.2676153"><ele>383.5</ele><time>2026-05-01T08:12:53.836Z</time></trkpt><trkpt lat="43.2344994" lon="13.2676225"><ele>382.0</ele><time>2026-05-01T08:12:54.837Z</time></trkpt><trkpt lat="43.2346197" lon="13.2676323"><ele>382.0</ele><time>2026-05-01T08:12:55.836Z</time></trkpt><trkpt lat="43.2347342" lon="13.2676169"><ele>382.0</ele><time>2026-05-01T08:12:56.837Z</time></trkpt><trkpt lat="43.234838" lon="13.2675625"><ele>382.0</ele><time>2026-05-01T08:12:57.837Z</time></trkpt><trkpt lat="43.2349335" lon="13.2674903"><ele>382.0</ele><time>2026-05-01T08:12:58.836Z</time></trkpt><trkpt lat="43.2350227" lon="13.2674107"><ele>382.0</ele><time>2026-05-01T08:12:59.837Z</time></trkpt><trkpt lat="43.235117" lon="13.2673389"><ele>381.6</ele><time>2026-05-01T08:13:00.836Z</time></trkpt><trkpt lat="43.2352186" lon="13.2672899"><ele>381.20000000000005</ele><time>2026-05-01T08:13:01.836Z</time></trkpt><trkpt lat="43.235321" lon="13.2672502"><ele>380.8</ele><time>2026-05-01T08:13:02.838Z</time></trkpt><trkpt lat="43.235427" lon="13.2672336"><ele>380.4</ele><time>2026-05-01T08:13:03.836Z</time></trkpt><trkpt lat="43.2355343" lon="13.2672374"><ele>380.0</ele><time>2026-05-01T08:13:04.837Z</time></trkpt><trkpt lat="43.2356398" lon="13.2672627"><ele>379.8</ele><time>2026-05-01T08:13:05.837Z</time></trkpt><trkpt lat="43.2357391" lon="13.267305"><ele>379.6</ele><time>2026-05-01T08:13:06.837Z</time></trkpt><trkpt lat="43.235838" lon="13.2673562"><ele>379.4</ele><time>2026-05-01T08:13:07.838Z</time></trkpt><trkpt lat="43.2359349" lon="13.2674009"><ele>379.2</ele><time>2026-05-01T08:13:08.837Z</time></trkpt><trkpt lat="43.2360318" lon="13.2674517"><ele>379.0</ele><time>2026-05-01T08:13:09.837Z</time></trkpt><trkpt lat="43.2361309" lon="13.267511"><ele>379.0</ele><time>2026-05-01T08:13:10.838Z</time></trkpt><trkpt lat="43.2362302" lon="13.2675701"><ele>379.0</ele><time>2026-05-01T08:13:11.837Z</time></trkpt><trkpt lat="43.2363323" lon="13.2676306"><ele>379.0</ele><time>2026-05-01T08:13:12.836Z</time></trkpt><trkpt lat="43.2364368" lon="13.2676982"><ele>379.0</ele><time>2026-05-01T08:13:13.838Z</time></trkpt><trkpt lat="43.2365391" lon="13.2677656"><ele>379.0</ele><time>2026-05-01T08:13:14.837Z</time></trkpt><trkpt lat="43.2366431" lon="13.2678324"><ele>380.0</ele><time>2026-05-01T08:13:15.837Z</time></trkpt><trkpt lat="43.2367443" lon="13.2678968"><ele>381.0</ele><time>2026-05-01T08:13:16.836Z</time></trkpt><trkpt lat="43.2368441" lon="13.2679617"><ele>382.0</ele><time>2026-05-01T08:13:17.836Z</time></trkpt><trkpt lat="43.2369412" lon="13.2680258"><ele>383.0</ele><time>2026-05-01T08:13:18.837Z</time></trkpt><trkpt lat="43.2370394" lon="13.2680805"><ele>384.0</ele><time>2026-05-01T08:13:19.836Z</time></trkpt><trkpt lat="43.2371346" lon="13.2681298"><ele>382.4</ele><time>2026-05-01T08:13:20.837Z</time></trkpt><trkpt lat="43.2372315" lon="13.2681761"><ele>380.79999999999995</ele><time>2026-05-01T08:13:21.836Z</time></trkpt><trkpt lat="43.2373308" lon="13.2682187"><ele>379.20000000000005</ele><time>2026-05-01T08:13:22.837Z</time></trkpt><trkpt lat="43.2374275" lon="13.2682614"><ele>377.6</ele><time>2026-05-01T08:13:23.837Z</time></trkpt><trkpt lat="43.2375239" lon="13.2683073"><ele>376.0</ele><time>2026-05-01T08:13:24.836Z</time></trkpt><trkpt lat="43.2376183" lon="13.2683517"><ele>376.0</ele><time>2026-05-01T08:13:25.836Z</time></trkpt><trkpt lat="43.2377118" lon="13.2683985"><ele>376.0</ele><time>2026-05-01T08:13:26.836Z</time></trkpt><trkpt lat="43.237801" lon="13.2684556"><ele>376.0</ele><time>2026-05-01T08:13:27.837Z</time></trkpt><trkpt lat="43.2378868" lon="13.2685231"><ele>376.0</ele><time>2026-05-01T08:13:28.836Z</time></trkpt><trkpt lat="43.2379687" lon="13.2685971"><ele>376.0</ele><time>2026-05-01T08:13:29.837Z</time></trkpt><trkpt lat="43.2380524" lon="13.2686742"><ele>376.20000000000005</ele><time>2026-05-01T08:13:30.837Z</time></trkpt><trkpt lat="43.2381349" lon="13.2687531"><ele>376.40000000000003</ele><time>2026-05-01T08:13:31.837Z</time></trkpt><trkpt lat="43.2382205" lon="13.2688345"><ele>376.6</ele><time>2026-05-01T08:13:32.837Z</time></trkpt><trkpt lat="43.2383037" lon="13.2689206"><ele>376.8</ele><time>2026-05-01T08:13:33.838Z</time></trkpt><trkpt lat="43.2383849" lon="13.2690113"><ele>377.0</ele><time>2026-05-01T08:13:34.838Z</time></trkpt><trkpt lat="43.2384685" lon="13.2691017"><ele>373.5</ele><time>2026-05-01T08:13:35.837Z</time></trkpt><trkpt lat="43.238554" lon="13.2691956"><ele>370.0</ele><time>2026-05-01T08:13:36.836Z</time></trkpt><trkpt lat="43.2386454" lon="13.2692849"><ele>366.5</ele><time>2026-05-01T08:13:37.836Z</time></trkpt><trkpt lat="43.2387415" lon="13.269363"><ele>363.0</ele><time>2026-05-01T08:13:38.837Z</time></trkpt><trkpt lat="43.2388465" lon="13.269436"><ele>363.0</ele><time>2026-05-01T08:13:39.837Z</time></trkpt><trkpt lat="43.238946" lon="13.2695057"><ele>363.0</ele><time>2026-05-01T08:13:40.836Z</time></trkpt><trkpt lat="43.2390514" lon="13.2695727"><ele>363.0</ele><time>2026-05-01T08:13:41.837Z</time></trkpt><trkpt lat="43.2391551" lon="13.2696343"><ele>363.0</ele><time>2026-05-01T08:13:42.836Z</time></trkpt><trkpt lat="43.2392556" lon="13.2696844"><ele>363.0</ele><time>2026-05-01T08:13:43.837Z</time></trkpt><trkpt lat="43.239359" lon="13.2697101"><ele>363.4</ele><time>2026-05-01T08:13:44.836Z</time></trkpt><trkpt lat="43.2394613" lon="13.2697058"><ele>363.79999999999995</ele><time>2026-05-01T08:13:45.836Z</time></trkpt><trkpt lat="43.2395565" lon="13.2696708"><ele>364.2</ele><time>2026-05-01T08:13:46.836Z</time></trkpt><trkpt lat="43.2396458" lon="13.2696138"><ele>364.6</ele><time>2026-05-01T08:13:47.837Z</time></trkpt><trkpt lat="43.2397331" lon="13.2695451"><ele>365.0</ele><time>2026-05-01T08:13:48.837Z</time></trkpt><trkpt lat="43.2398176" lon="13.2694835"><ele>365.0</ele><time>2026-05-01T08:13:49.837Z</time></trkpt><trkpt lat="43.2399068" lon="13.2694356"><ele>365.0</ele><time>2026-05-01T08:13:50.838Z</time></trkpt><trkpt lat="43.2400052" lon="13.2693931"><ele>365.0</ele><time>2026-05-01T08:13:51.838Z</time></trkpt><trkpt lat="43.2401045" lon="13.2693718"><ele>365.0</ele><time>2026-05-01T08:13:52.836Z</time></trkpt><trkpt lat="43.2402081" lon="13.269357"><ele>365.0</ele><time>2026-05-01T08:13:53.836Z</time></trkpt><trkpt lat="43.2403103" lon="13.2693274"><ele>365.0</ele><time>2026-05-01T08:13:54.837Z</time></trkpt><trkpt lat="43.2404078" lon="13.2692667"><ele>365.0</ele><time>2026-05-01T08:13:55.837Z</time></trkpt><trkpt lat="43.2404982" lon="13.2691973"><ele>365.0</ele><time>2026-05-01T08:13:56.836Z</time></trkpt><trkpt lat="43.240587" lon="13.2691238"><ele>365.0</ele><time>2026-05-01T08:13:57.837Z</time></trkpt><trkpt lat="43.2406792" lon="13.2690541"><ele>365.0</ele><time>2026-05-01T08:13:58.837Z</time></trkpt><trkpt lat="43.2407713" lon="13.2689878"><ele>364.8</ele><time>2026-05-01T08:13:59.837Z</time></trkpt><trkpt lat="43.2408655" lon="13.268935"><ele>364.6</ele><time>2026-05-01T08:14:00.836Z</time></trkpt><trkpt lat="43.2409631" lon="13.2688928"><ele>364.4</ele><time>2026-05-01T08:14:01.836Z</time></trkpt><trkpt lat="43.2410692" lon="13.2688601"><ele>364.2</ele><time>2026-05-01T08:14:02.837Z</time></trkpt><trkpt lat="43.2411746" lon="13.2688389"><ele>364.0</ele><time>2026-05-01T08:14:03.836Z</time></trkpt><trkpt lat="43.2412807" lon="13.2688367"><ele>364.0</ele><time>2026-05-01T08:14:04.836Z</time></trkpt><trkpt lat="43.2413879" lon="13.2688542"><ele>364.0</ele><time>2026-05-01T08:14:05.836Z</time></trkpt><trkpt lat="43.2414958" lon="13.268892"><ele>364.0</ele><time>2026-05-01T08:14:06.836Z</time></trkpt><trkpt lat="43.2416025" lon="13.2689444"><ele>364.0</ele><time>2026-05-01T08:14:07.838Z</time></trkpt><trkpt lat="43.2417054" lon="13.2690082"><ele>364.0</ele><time>2026-05-01T08:14:08.836Z</time></trkpt><trkpt lat="43.2418021" lon="13.2690826"><ele>361.2</ele><time>2026-05-01T08:14:09.836Z</time></trkpt><trkpt lat="43.241895" lon="13.2691654"><ele>358.4</ele><time>2026-05-01T08:14:10.836Z</time></trkpt><trkpt lat="43.2419886" lon="13.2692501"><ele>355.6</ele><time>2026-05-01T08:14:11.837Z</time></trkpt><trkpt lat="43.2420835" lon="13.2693322"><ele>352.8</ele><time>2026-05-01T08:14:12.837Z</time></trkpt><trkpt lat="43.2421807" lon="13.2694071"><ele>350.0</ele><time>2026-05-01T08:14:13.836Z</time></trkpt><trkpt lat="43.2422798" lon="13.269472"><ele>350.4</ele><time>2026-05-01T08:14:14.837Z</time></trkpt><trkpt lat="43.2423741" lon="13.2695401"><ele>350.8</ele><time>2026-05-01T08:14:15.837Z</time></trkpt><trkpt lat="43.2424704" lon="13.2695985"><ele>351.20000000000005</ele><time>2026-05-01T08:14:16.836Z</time></trkpt><trkpt lat="43.2425644" lon="13.2696481"><ele>351.6</ele><time>2026-05-01T08:14:17.836Z</time></trkpt><trkpt lat="43.2426562" lon="13.2696857"><ele>352.0</ele><time>2026-05-01T08:14:18.838Z</time></trkpt><trkpt lat="43.2427409" lon="13.2697179"><ele>352.0</ele><time>2026-05-01T08:14:19.837Z</time></trkpt><trkpt lat="43.2428322" lon="13.2697357"><ele>352.0</ele><time>2026-05-01T08:14:20.836Z</time></trkpt><trkpt lat="43.2429241" lon="13.2697404"><ele>352.0</ele><time>2026-05-01T08:14:21.836Z</time></trkpt><trkpt lat="43.243019" lon="13.2697346"><ele>352.0</ele><time>2026-05-01T08:14:22.837Z</time></trkpt><trkpt lat="43.2431139" lon="13.2697077"><ele>352.0</ele><time>2026-05-01T08:14:23.837Z</time></trkpt><trkpt lat="43.2432058" lon="13.2696699"><ele>351.0</ele><time>2026-05-01T08:14:24.837Z</time></trkpt><trkpt lat="43.2432964" lon="13.2696265"><ele>350.0</ele><time>2026-05-01T08:14:25.837Z</time></trkpt><trkpt lat="43.2433835" lon="13.2695778"><ele>349.0</ele><time>2026-05-01T08:14:26.837Z</time></trkpt><trkpt lat="43.2434702" lon="13.2695258"><ele>348.0</ele><time>2026-05-01T08:14:27.836Z</time></trkpt><trkpt lat="43.243562" lon="13.2694764"><ele>347.0</ele><time>2026-05-01T08:14:28.836Z</time></trkpt><trkpt lat="43.2436527" lon="13.2694258"><ele>347.0</ele><time>2026-05-01T08:14:29.836Z</time></trkpt><trkpt lat="43.2437436" lon="13.269375"><ele>347.0</ele><time>2026-05-01T08:14:30.837Z</time></trkpt><trkpt lat="43.2438381" lon="13.2693271"><ele>347.0</ele><time>2026-05-01T08:14:31.837Z</time></trkpt><trkpt lat="43.2439297" lon="13.2692841"><ele>347.0</ele><time>2026-05-01T08:14:32.836Z</time></trkpt><trkpt lat="43.2440254" lon="13.2692458"><ele>347.0</ele><time>2026-05-01T08:14:33.837Z</time></trkpt><trkpt lat="43.2441196" lon="13.269231"><ele>345.1666666666667</ele><time>2026-05-01T08:14:34.836Z</time></trkpt><trkpt lat="43.2442112" lon="13.2692268"><ele>343.33333333333337</ele><time>2026-05-01T08:14:35.837Z</time></trkpt><trkpt lat="43.2442993" lon="13.269233"><ele>341.5</ele><time>2026-05-01T08:14:36.837Z</time></trkpt><trkpt lat="43.2443835" lon="13.2692484"><ele>339.6666666666667</ele><time>2026-05-01T08:14:37.836Z</time></trkpt><trkpt lat="43.2444568" lon="13.2692624"><ele>337.8333333333333</ele><time>2026-05-01T08:14:38.837Z</time></trkpt><trkpt lat="43.2445593" lon="13.2693017"><ele>336.0</ele><time>2026-05-01T08:14:40.837Z</time></trkpt><trkpt lat="43.2446247" lon="13.2693071"><ele>336.0</ele><time>2026-05-01T08:14:43.836Z</time></trkpt><trkpt lat="43.2445541" lon="13.2692605"><ele>336.0</ele><time>2026-05-01T08:14:47.836Z</time></trkpt><trkpt lat="43.2444808" lon="13.2692461"><ele>336.0</ele><time>2026-05-01T08:14:49.837Z</time></trkpt><trkpt lat="43.2443735" lon="13.2692367"><ele>336.0</ele><time>2026-05-01T08:14:51.838Z</time></trkpt><trkpt lat="43.2442477" lon="13.2692328"><ele>336.0</ele><time>2026-05-01T08:14:53.837Z</time></trkpt><trkpt lat="43.2441791" lon="13.2692328"><ele>336.0</ele><time>2026-05-01T08:14:54.837Z</time></trkpt><trkpt lat="43.2440316" lon="13.2692473"><ele>336.0</ele><time>2026-05-01T08:14:56.837Z</time></trkpt><trkpt lat="43.2439468" lon="13.269275"><ele>336.0</ele><time>2026-05-01T08:14:57.837Z</time></trkpt><trkpt lat="43.2438609" lon="13.2693132"><ele>336.0</ele><time>2026-05-01T08:14:58.837Z</time></trkpt><trkpt lat="43.243776" lon="13.2693631"><ele>336.0</ele><time>2026-05-01T08:14:59.836Z</time></trkpt><trkpt lat="43.2436872" lon="13.2694126"><ele>337.8333333333333</ele><time>2026-05-01T08:15:00.837Z</time></trkpt><trkpt lat="43.2435977" lon="13.2694612"><ele>339.6666666666667</ele><time>2026-05-01T08:15:01.836Z</time></trkpt><trkpt lat="43.2435115" lon="13.2695043"><ele>341.5</ele><time>2026-05-01T08:15:02.837Z</time></trkpt><trkpt lat="43.2434303" lon="13.269546"><ele>343.33333333333337</ele><time>2026-05-01T08:15:03.836Z</time></trkpt><trkpt lat="43.2433533" lon="13.2695887"><ele>345.1666666666667</ele><time>2026-05-01T08:15:04.837Z</time></trkpt><trkpt lat="43.2432851" lon="13.2696375"><ele>347.0</ele><time>2026-05-01T08:15:05.837Z</time></trkpt><trkpt lat="43.2431842" lon="13.2696872"><ele>347.0</ele><time>2026-05-01T08:15:07.837Z</time></trkpt><trkpt lat="43.2431936" lon="13.2695759"><ele>347.0</ele><time>2026-05-01T08:15:11.837Z</time></trkpt><trkpt lat="43.2432556" lon="13.2694725"><ele>347.0</ele><time>2026-05-01T08:15:13.837Z</time></trkpt><trkpt lat="43.2433289" lon="13.2693453"><ele>347.0</ele><time>2026-05-01T08:15:15.837Z</time></trkpt><trkpt lat="43.2433738" lon="13.2692729"><ele>347.0</ele><time>2026-05-01T08:15:16.837Z</time></trkpt><trkpt lat="43.2434176" lon="13.2692015"><ele>347.0</ele><time>2026-05-01T08:15:17.837Z</time></trkpt><trkpt lat="43.24346" lon="13.2691295"><ele>347.0</ele><time>2026-05-01T08:15:18.836Z</time></trkpt><trkpt lat="43.2435006" lon="13.269049"><ele>347.0</ele><time>2026-05-01T08:15:19.837Z</time></trkpt><trkpt lat="43.2435429" lon="13.2689686"><ele>347.0</ele><time>2026-05-01T08:15:20.836Z</time></trkpt><trkpt lat="43.2435827" lon="13.2688864"><ele>347.0</ele><time>2026-05-01T08:15:21.836Z</time></trkpt><trkpt lat="43.2436259" lon="13.2687993"><ele>347.0</ele><time>2026-05-01T08:15:22.838Z</time></trkpt><trkpt lat="43.243674" lon="13.2687121"><ele>347.0</ele><time>2026-05-01T08:15:23.837Z</time></trkpt><trkpt lat="43.2437316" lon="13.2686174"><ele>346.40000000000003</ele><time>2026-05-01T08:15:24.837Z</time></trkpt><trkpt lat="43.2437775" lon="13.2685241"><ele>345.8</ele><time>2026-05-01T08:15:25.836Z</time></trkpt><trkpt lat="43.2438321" lon="13.2684354"><ele>345.2</ele><time>2026-05-01T08:15:26.836Z</time></trkpt><trkpt lat="43.243896" lon="13.2683367"><ele>344.6</ele><time>2026-05-01T08:15:27.837Z</time></trkpt><trkpt lat="43.2439559" lon="13.268232"><ele>344.0</ele><time>2026-05-01T08:15:28.836Z</time></trkpt><trkpt lat="43.244017" lon="13.2681337"><ele>345.6</ele><time>2026-05-01T08:15:29.836Z</time></trkpt><trkpt lat="43.2440774" lon="13.2680378"><ele>347.2</ele><time>2026-05-01T08:15:30.837Z</time></trkpt><trkpt lat="43.2441347" lon="13.2679402"><ele>348.8</ele><time>2026-05-01T08:15:31.837Z</time></trkpt><trkpt lat="43.244194" lon="13.2678478"><ele>350.40000000000003</ele><time>2026-05-01T08:15:32.837Z</time></trkpt><trkpt lat="43.244251" lon="13.2677547"><ele>352.0</ele><time>2026-05-01T08:15:33.836Z</time></trkpt><trkpt lat="43.2443096" lon="13.2676653"><ele>352.0</ele><time>2026-05-01T08:15:34.836Z</time></trkpt><trkpt lat="43.2443636" lon="13.2675751"><ele>352.0</ele><time>2026-05-01T08:15:35.836Z</time></trkpt><trkpt lat="43.2444122" lon="13.2674793"><ele>352.0</ele><time>2026-05-01T08:15:36.836Z</time></trkpt><trkpt lat="43.2444638" lon="13.2673808"><ele>352.0</ele><time>2026-05-01T08:15:37.837Z</time></trkpt><trkpt lat="43.2445184" lon="13.2672809"><ele>352.0</ele><time>2026-05-01T08:15:38.837Z</time></trkpt><trkpt lat="43.2445699" lon="13.2671765"><ele>352.0</ele><time>2026-05-01T08:15:39.836Z</time></trkpt><trkpt lat="43.2446229" lon="13.2670763"><ele>352.16666666666663</ele><time>2026-05-01T08:15:40.836Z</time></trkpt><trkpt lat="43.2446762" lon="13.2669831"><ele>352.3333333333333</ele><time>2026-05-01T08:15:41.836Z</time></trkpt><trkpt lat="43.2447247" lon="13.2668948"><ele>352.5</ele><time>2026-05-01T08:15:42.836Z</time></trkpt><trkpt lat="43.2447636" lon="13.2668137"><ele>352.6666666666667</ele><time>2026-05-01T08:15:43.837Z</time></trkpt><trkpt lat="43.2448055" lon="13.2666627"><ele>352.83333333333337</ele><time>2026-05-01T08:15:45.837Z</time></trkpt><trkpt lat="43.2447945" lon="13.2665771"><ele>353.0</ele><time>2026-05-01T08:15:46.836Z</time></trkpt><trkpt lat="43.2447652" lon="13.2664911"><ele>353.1666666666667</ele><time>2026-05-01T08:15:47.837Z</time></trkpt><trkpt lat="43.2447269" lon="13.2664102"><ele>353.33333333333337</ele><time>2026-05-01T08:15:48.837Z</time></trkpt><trkpt lat="43.2446786" lon="13.2663305"><ele>353.5</ele><time>2026-05-01T08:15:49.837Z</time></trkpt><trkpt lat="43.244632" lon="13.2662407"><ele>353.6666666666667</ele><time>2026-05-01T08:15:50.836Z</time></trkpt><trkpt lat="43.2445857" lon="13.2661456"><ele>353.8333333333333</ele><time>2026-05-01T08:15:51.836Z</time></trkpt><trkpt lat="43.2445416" lon="13.2660465"><ele>354.0</ele><time>2026-05-01T08:15:52.836Z</time></trkpt><trkpt lat="43.2444911" lon="13.2659508"><ele>354.0</ele><time>2026-05-01T08:15:53.837Z</time></trkpt><trkpt lat="43.2444408" lon="13.2658541"><ele>354.0</ele><time>2026-05-01T08:15:54.837Z</time></trkpt><trkpt lat="43.2443874" lon="13.2657543"><ele>354.0</ele><time>2026-05-01T08:15:55.837Z</time></trkpt><trkpt lat="43.2443324" lon="13.2656513"><ele>354.0</ele><time>2026-05-01T08:15:56.836Z</time></trkpt><trkpt lat="43.2442824" lon="13.2655494"><ele>354.0</ele><time>2026-05-01T08:15:57.837Z</time></trkpt><trkpt lat="43.2442311" lon="13.2654489"><ele>354.0</ele><time>2026-05-01T08:15:58.836Z</time></trkpt><trkpt lat="43.2441855" lon="13.2653483"><ele>354.0</ele><time>2026-05-01T08:15:59.837Z</time></trkpt><trkpt lat="43.2441448" lon="13.2652413"><ele>354.0</ele><time>2026-05-01T08:16:00.836Z</time></trkpt><trkpt lat="43.2441017" lon="13.2651362"><ele>354.0</ele><time>2026-05-01T08:16:01.835Z</time></trkpt><trkpt lat="43.2440575" lon="13.2650409"><ele>354.0</ele><time>2026-05-01T08:16:02.836Z</time></trkpt><trkpt lat="43.2440152" lon="13.2649422"><ele>354.0</ele><time>2026-05-01T08:16:03.836Z</time></trkpt><trkpt lat="43.2439676" lon="13.2648208"><ele>354.0</ele><time>2026-05-01T08:16:04.835Z</time></trkpt><trkpt lat="43.2439147" lon="13.2647056"><ele>353.0</ele><time>2026-05-01T08:16:05.836Z</time></trkpt><trkpt lat="43.2438644" lon="13.26459"><ele>352.0</ele><time>2026-05-01T08:16:06.836Z</time></trkpt><trkpt lat="43.2438163" lon="13.2644741"><ele>351.0</ele><time>2026-05-01T08:16:07.836Z</time></trkpt><trkpt lat="43.2437736" lon="13.2643634"><ele>350.0</ele><time>2026-05-01T08:16:08.836Z</time></trkpt><trkpt lat="43.2437375" lon="13.2642515"><ele>349.0</ele><time>2026-05-01T08:16:09.835Z</time></trkpt><trkpt lat="43.2437089" lon="13.2641355"><ele>349.0</ele><time>2026-05-01T08:16:10.836Z</time></trkpt><trkpt lat="43.2436945" lon="13.264014"><ele>349.0</ele><time>2026-05-01T08:16:11.837Z</time></trkpt><trkpt lat="43.2436922" lon="13.263891"><ele>349.0</ele><time>2026-05-01T08:16:12.835Z</time></trkpt><trkpt lat="43.243705" lon="13.263767"><ele>349.0</ele><time>2026-05-01T08:16:13.836Z</time></trkpt><trkpt lat="43.2437309" lon="13.2636468"><ele>349.0</ele><time>2026-05-01T08:16:14.837Z</time></trkpt><trkpt lat="43.2437613" lon="13.2635268"><ele>349.5</ele><time>2026-05-01T08:16:15.835Z</time></trkpt><trkpt lat="43.2437981" lon="13.2634079"><ele>350.0</ele><time>2026-05-01T08:16:16.835Z</time></trkpt><trkpt lat="43.2438349" lon="13.263297"><ele>350.5</ele><time>2026-05-01T08:16:17.835Z</time></trkpt><trkpt lat="43.2438706" lon="13.2631905"><ele>351.0</ele><time>2026-05-01T08:16:18.837Z</time></trkpt><trkpt lat="43.2439083" lon="13.2630905"><ele>351.5</ele><time>2026-05-01T08:16:19.835Z</time></trkpt><trkpt lat="43.2439462" lon="13.2629873"><ele>352.0</ele><time>2026-05-01T08:16:20.836Z</time></trkpt><trkpt lat="43.2439871" lon="13.2628917"><ele>352.0</ele><time>2026-05-01T08:16:21.836Z</time></trkpt><trkpt lat="43.2440214" lon="13.2628031"><ele>352.0</ele><time>2026-05-01T08:16:22.836Z</time></trkpt><trkpt lat="43.2440546" lon="13.2627201"><ele>352.0</ele><time>2026-05-01T08:16:23.835Z</time></trkpt><trkpt lat="43.2440864" lon="13.262642"><ele>352.0</ele><time>2026-05-01T08:16:24.836Z</time></trkpt><trkpt lat="43.2441141" lon="13.2625572"><ele>352.0</ele><time>2026-05-01T08:16:25.836Z</time></trkpt><trkpt lat="43.244142" lon="13.2624713"><ele>352.0</ele><time>2026-05-01T08:16:26.835Z</time></trkpt><trkpt lat="43.2441662" lon="13.2623841"><ele>352.0</ele><time>2026-05-01T08:16:27.836Z</time></trkpt><trkpt lat="43.2441857" lon="13.2622899"><ele>352.66666666666663</ele><time>2026-05-01T08:16:28.835Z</time></trkpt><trkpt lat="43.2441955" lon="13.2621996"><ele>353.3333333333333</ele><time>2026-05-01T08:16:29.835Z</time></trkpt><trkpt lat="43.2441998" lon="13.2621072"><ele>354.0</ele><time>2026-05-01T08:16:30.836Z</time></trkpt><trkpt lat="43.2442004" lon="13.2620113"><ele>354.6666666666667</ele><time>2026-05-01T08:16:31.836Z</time></trkpt><trkpt lat="43.2442012" lon="13.2619141"><ele>355.33333333333337</ele><time>2026-05-01T08:16:32.836Z</time></trkpt><trkpt lat="43.2442068" lon="13.261818"><ele>356.0</ele><time>2026-05-01T08:16:33.836Z</time></trkpt><trkpt lat="43.2442075" lon="13.261651"><ele>356.0</ele><time>2026-05-01T08:16:35.836Z</time></trkpt><trkpt lat="43.2441897" lon="13.2614845"><ele>356.0</ele><time>2026-05-01T08:16:37.836Z</time></trkpt><trkpt lat="43.2441787" lon="13.2613881"><ele>356.0</ele><time>2026-05-01T08:16:38.836Z</time></trkpt><trkpt lat="43.2441629" lon="13.2612942"><ele>356.0</ele><time>2026-05-01T08:16:39.835Z</time></trkpt><trkpt lat="43.2441532" lon="13.2611699"><ele>356.0</ele><time>2026-05-01T08:16:40.837Z</time></trkpt><trkpt lat="43.2441537" lon="13.2610551"><ele>356.0</ele><time>2026-05-01T08:16:41.836Z</time></trkpt><trkpt lat="43.2441651" lon="13.2609559"><ele>356.71428571428567</ele><time>2026-05-01T08:16:42.835Z</time></trkpt><trkpt lat="43.2441861" lon="13.260866"><ele>357.42857142857144</ele><time>2026-05-01T08:16:43.835Z</time></trkpt><trkpt lat="43.2442118" lon="13.2607839"><ele>358.1428571428571</ele><time>2026-05-01T08:16:44.835Z</time></trkpt><trkpt lat="43.2442292" lon="13.2606968"><ele>358.85714285714283</ele><time>2026-05-01T08:16:45.836Z</time></trkpt><trkpt lat="43.2442359" lon="13.2606108"><ele>359.57142857142856</ele><time>2026-05-01T08:16:46.836Z</time></trkpt><trkpt lat="43.2442162" lon="13.2605265"><ele>360.2857142857143</ele><time>2026-05-01T08:16:47.836Z</time></trkpt><trkpt lat="43.2441452" lon="13.2603941"><ele>361.0</ele><time>2026-05-01T08:16:49.835Z</time></trkpt><trkpt lat="43.2440651" lon="13.2602826"><ele>361.6</ele><time>2026-05-01T08:16:51.836Z</time></trkpt><trkpt lat="43.243992" lon="13.260172"><ele>362.20000000000005</ele><time>2026-05-01T08:16:53.836Z</time></trkpt><trkpt lat="43.2439209" lon="13.2600677"><ele>362.79999999999995</ele><time>2026-05-01T08:16:55.836Z</time></trkpt><trkpt lat="43.2438444" lon="13.2599494"><ele>363.4</ele><time>2026-05-01T08:16:57.835Z</time></trkpt><trkpt lat="43.2437872" lon="13.2598184"><ele>364.0</ele><time>2026-05-01T08:16:59.835Z</time></trkpt><trkpt lat="43.2437383" lon="13.2596899"><ele>360.5</ele><time>2026-05-01T08:17:01.835Z</time></trkpt><trkpt lat="43.2436787" lon="13.2595632"><ele>357.0</ele><time>2026-05-01T08:17:03.835Z</time></trkpt><trkpt lat="43.2436243" lon="13.2594206"><ele>353.5</ele><time>2026-05-01T08:17:05.836Z</time></trkpt><trkpt lat="43.2435632" lon="13.2592805"><ele>350.0</ele><time>2026-05-01T08:17:07.836Z</time></trkpt><trkpt lat="43.2434986" lon="13.259133"><ele>350.0</ele><time>2026-05-01T08:17:09.835Z</time></trkpt><trkpt lat="43.2434702" lon="13.2590492"><ele>350.0</ele><time>2026-05-01T08:17:10.836Z</time></trkpt><trkpt lat="43.2434507" lon="13.2589625"><ele>350.0</ele><time>2026-05-01T08:17:11.835Z</time></trkpt><trkpt lat="43.2434411" lon="13.2588721"><ele>350.0</ele><time>2026-05-01T08:17:12.836Z</time></trkpt><trkpt lat="43.2434435" lon="13.2587788"><ele>350.0</ele><time>2026-05-01T08:17:13.836Z</time></trkpt><trkpt lat="43.2434491" lon="13.2586847"><ele>350.0</ele><time>2026-05-01T08:17:14.835Z</time></trkpt><trkpt lat="43.2434613" lon="13.2585947"><ele>350.0</ele><time>2026-05-01T08:17:15.836Z</time></trkpt><trkpt lat="43.2434662" lon="13.2585063"><ele>350.0</ele><time>2026-05-01T08:17:16.835Z</time></trkpt><trkpt lat="43.2434798" lon="13.2583426"><ele>350.0</ele><time>2026-05-01T08:17:18.835Z</time></trkpt><trkpt lat="43.2435132" lon="13.2581767"><ele>350.0</ele><time>2026-05-01T08:17:20.836Z</time></trkpt><trkpt lat="43.2435472" lon="13.2580941"><ele>350.0</ele><time>2026-05-01T08:17:21.836Z</time></trkpt><trkpt lat="43.2435904" lon="13.258008"><ele>350.0</ele><time>2026-05-01T08:17:22.835Z</time></trkpt><trkpt lat="43.2436418" lon="13.257917"><ele>348.6</ele><time>2026-05-01T08:17:23.836Z</time></trkpt><trkpt lat="43.2436972" lon="13.2578213"><ele>347.2</ele><time>2026-05-01T08:17:24.836Z</time></trkpt><trkpt lat="43.2437581" lon="13.2577191"><ele>345.79999999999995</ele><time>2026-05-01T08:17:25.835Z</time></trkpt><trkpt lat="43.2438202" lon="13.2576153"><ele>344.4</ele><time>2026-05-01T08:17:26.835Z</time></trkpt><trkpt lat="43.2438864" lon="13.2575074"><ele>343.0</ele><time>2026-05-01T08:17:27.835Z</time></trkpt><trkpt lat="43.2439498" lon="13.2573968"><ele>343.4</ele><time>2026-05-01T08:17:28.836Z</time></trkpt><trkpt lat="43.2440093" lon="13.257286"><ele>343.79999999999995</ele><time>2026-05-01T08:17:29.835Z</time></trkpt><trkpt lat="43.2440698" lon="13.2571811"><ele>344.2</ele><time>2026-05-01T08:17:30.836Z</time></trkpt><trkpt lat="43.2441329" lon="13.2570817"><ele>344.6</ele><time>2026-05-01T08:17:31.835Z</time></trkpt><trkpt lat="43.2441904" lon="13.2569799"><ele>345.0</ele><time>2026-05-01T08:17:32.836Z</time></trkpt><trkpt lat="43.2442475" lon="13.2568809"><ele>345.0</ele><time>2026-05-01T08:17:33.835Z</time></trkpt><trkpt lat="43.2443055" lon="13.2567843"><ele>345.0</ele><time>2026-05-01T08:17:34.836Z</time></trkpt><trkpt lat="43.2443613" lon="13.2566822"><ele>345.0</ele><time>2026-05-01T08:17:35.836Z</time></trkpt><trkpt lat="43.2444137" lon="13.2565817"><ele>345.0</ele><time>2026-05-01T08:17:36.835Z</time></trkpt><trkpt lat="43.2444692" lon="13.2564793"><ele>345.0</ele><time>2026-05-01T08:17:37.837Z</time></trkpt><trkpt lat="43.2445223" lon="13.2563816"><ele>345.2</ele><time>2026-05-01T08:17:38.836Z</time></trkpt><trkpt lat="43.2445675" lon="13.2562965"><ele>345.4</ele><time>2026-05-01T08:17:39.835Z</time></trkpt><trkpt lat="43.2446143" lon="13.2562129"><ele>345.6</ele><time>2026-05-01T08:17:40.836Z</time></trkpt><trkpt lat="43.2446647" lon="13.256126"><ele>345.8</ele><time>2026-05-01T08:17:41.836Z</time></trkpt><trkpt lat="43.2447383" lon="13.256001"><ele>346.0</ele><time>2026-05-01T08:17:42.836Z</time></trkpt><trkpt lat="43.2448187" lon="13.2558661"><ele>346.0</ele><time>2026-05-01T08:17:43.836Z</time></trkpt><trkpt lat="43.244896" lon="13.2557475"><ele>346.0</ele><time>2026-05-01T08:17:44.835Z</time></trkpt><trkpt lat="43.2449783" lon="13.2556448"><ele>346.0</ele><time>2026-05-01T08:17:45.835Z</time></trkpt><trkpt lat="43.245057" lon="13.2555547"><ele>346.0</ele><time>2026-05-01T08:17:46.835Z</time></trkpt><trkpt lat="43.2451341" lon="13.2554745"><ele>346.0</ele><time>2026-05-01T08:17:47.836Z</time></trkpt><trkpt lat="43.2452052" lon="13.2554012"><ele>345.20000000000005</ele><time>2026-05-01T08:17:48.835Z</time></trkpt><trkpt lat="43.2452714" lon="13.2553459"><ele>344.40000000000003</ele><time>2026-05-01T08:17:49.836Z</time></trkpt><trkpt lat="43.2453244" lon="13.2552903"><ele>343.6</ele><time>2026-05-01T08:17:50.835Z</time></trkpt><trkpt lat="43.2453719" lon="13.2552234"><ele>342.8</ele><time>2026-05-01T08:17:51.835Z</time></trkpt><trkpt lat="43.2454241" lon="13.2550705"><ele>342.0</ele><time>2026-05-01T08:17:53.835Z</time></trkpt><trkpt lat="43.2454397" lon="13.2549034"><ele>342.0</ele><time>2026-05-01T08:17:55.835Z</time></trkpt><trkpt lat="43.2454388" lon="13.2548095"><ele>342.0</ele><time>2026-05-01T08:17:56.837Z</time></trkpt><trkpt lat="43.245432" lon="13.254709"><ele>342.0</ele><time>2026-05-01T08:17:57.835Z</time></trkpt><trkpt lat="43.2454178" lon="13.2546013"><ele>342.0</ele><time>2026-05-01T08:17:58.835Z</time></trkpt><trkpt lat="43.2454011" lon="13.2544851"><ele>342.0</ele><time>2026-05-01T08:17:59.836Z</time></trkpt><trkpt lat="43.2453877" lon="13.2543623"><ele>342.0</ele><time>2026-05-01T08:18:00.835Z</time></trkpt><trkpt lat="43.2453743" lon="13.2542421"><ele>340.6</ele><time>2026-05-01T08:18:01.835Z</time></trkpt><trkpt lat="43.2453567" lon="13.254122"><ele>339.20000000000005</ele><time>2026-05-01T08:18:02.836Z</time></trkpt><trkpt lat="43.2453459" lon="13.2539974"><ele>337.8</ele><time>2026-05-01T08:18:03.835Z</time></trkpt><trkpt lat="43.2453467" lon="13.25388"><ele>336.4</ele><time>2026-05-01T08:18:04.837Z</time></trkpt><trkpt lat="43.2453674" lon="13.2537467"><ele>335.0</ele><time>2026-05-01T08:18:05.835Z</time></trkpt><trkpt lat="43.2454129" lon="13.2536049"><ele>335.0</ele><time>2026-05-01T08:18:06.835Z</time></trkpt><trkpt lat="43.245478" lon="13.2534591"><ele>335.0</ele><time>2026-05-01T08:18:07.837Z</time></trkpt><trkpt lat="43.2455608" lon="13.2533012"><ele>335.0</ele><time>2026-05-01T08:18:08.837Z</time></trkpt><trkpt lat="43.2456402" lon="13.2531619"><ele>335.0</ele><time>2026-05-01T08:18:09.835Z</time></trkpt><trkpt lat="43.2457102" lon="13.2530381"><ele>336.4</ele><time>2026-05-01T08:18:10.836Z</time></trkpt><trkpt lat="43.2457728" lon="13.2529312"><ele>337.8</ele><time>2026-05-01T08:18:11.836Z</time></trkpt><trkpt lat="43.2458257" lon="13.2528392"><ele>339.20000000000005</ele><time>2026-05-01T08:18:12.836Z</time></trkpt><trkpt lat="43.2458684" lon="13.2527558"><ele>340.6</ele><time>2026-05-01T08:18:13.835Z</time></trkpt><trkpt lat="43.2459277" lon="13.2526423"><ele>342.0</ele><time>2026-05-01T08:18:15.835Z</time></trkpt><trkpt lat="43.2459917" lon="13.2525393"><ele>342.0</ele><time>2026-05-01T08:18:17.836Z</time></trkpt><trkpt lat="43.2460536" lon="13.2524393"><ele>342.0</ele><time>2026-05-01T08:18:19.836Z</time></trkpt><trkpt lat="43.2461023" lon="13.2523249"><ele>342.0</ele><time>2026-05-01T08:18:21.835Z</time></trkpt><trkpt lat="43.2461432" lon="13.2522177"><ele>342.0</ele><time>2026-05-01T08:18:23.835Z</time></trkpt><trkpt lat="43.2461809" lon="13.252107"><ele>342.0</ele><time>2026-05-01T08:18:25.835Z</time></trkpt><trkpt lat="43.246217" lon="13.2519955"><ele>342.8333333333333</ele><time>2026-05-01T08:18:27.835Z</time></trkpt><trkpt lat="43.2462479" lon="13.2519054"><ele>343.6666666666667</ele><time>2026-05-01T08:18:29.835Z</time></trkpt><trkpt lat="43.2462809" lon="13.2518127"><ele>344.5</ele><time>2026-05-01T08:18:31.837Z</time></trkpt><trkpt lat="43.2463118" lon="13.2517012"><ele>345.33333333333337</ele><time>2026-05-01T08:18:33.837Z</time></trkpt><trkpt lat="43.246352" lon="13.2515813"><ele>346.1666666666667</ele><time>2026-05-01T08:18:35.836Z</time></trkpt><trkpt lat="43.2464022" lon="13.2514437"><ele>347.0</ele><time>2026-05-01T08:18:37.835Z</time></trkpt><trkpt lat="43.2464343" lon="13.2513641"><ele>345.2857142857143</ele><time>2026-05-01T08:18:38.836Z</time></trkpt><trkpt lat="43.2464699" lon="13.2512822"><ele>343.57142857142856</ele><time>2026-05-01T08:18:39.836Z</time></trkpt><trkpt lat="43.2465087" lon="13.2512015"><ele>341.85714285714283</ele><time>2026-05-01T08:18:40.836Z</time></trkpt><trkpt lat="43.2465485" lon="13.2511211"><ele>340.1428571428571</ele><time>2026-05-01T08:18:41.836Z</time></trkpt><trkpt lat="43.2465893" lon="13.251046"><ele>338.42857142857144</ele><time>2026-05-01T08:18:42.836Z</time></trkpt><trkpt lat="43.2466304" lon="13.2509739"><ele>336.71428571428567</ele><time>2026-05-01T08:18:43.836Z</time></trkpt><trkpt lat="43.2466782" lon="13.2509029"><ele>335.0</ele><time>2026-05-01T08:18:44.836Z</time></trkpt><trkpt lat="43.2467339" lon="13.2508275"><ele>334.99999999999994</ele><time>2026-05-01T08:18:45.837Z</time></trkpt><trkpt lat="43.2467871" lon="13.2507511"><ele>335.0</ele><time>2026-05-01T08:18:46.835Z</time></trkpt><trkpt lat="43.2468438" lon="13.2506837"><ele>335.0</ele><time>2026-05-01T08:18:47.835Z</time></trkpt><trkpt lat="43.246903" lon="13.2506227"><ele>335.0</ele><time>2026-05-01T08:18:48.836Z</time></trkpt><trkpt lat="43.246963" lon="13.2505636"><ele>335.0</ele><time>2026-05-01T08:18:49.836Z</time></trkpt><trkpt lat="43.2470231" lon="13.2505054"><ele>334.99999999999994</ele><time>2026-05-01T08:18:50.837Z</time></trkpt><trkpt lat="43.247083" lon="13.2504489"><ele>335.0</ele><time>2026-05-01T08:18:51.835Z</time></trkpt><trkpt lat="43.2471412" lon="13.2503869"><ele>336.33333333333337</ele><time>2026-05-01T08:18:52.835Z</time></trkpt><trkpt lat="43.2472062" lon="13.2503265"><ele>337.6666666666667</ele><time>2026-05-01T08:18:53.836Z</time></trkpt><trkpt lat="43.2472748" lon="13.2502655"><ele>339.0</ele><time>2026-05-01T08:18:54.836Z</time></trkpt><trkpt lat="43.2473427" lon="13.2502094"><ele>340.3333333333333</ele><time>2026-05-01T08:18:55.835Z</time></trkpt><trkpt lat="43.2474086" lon="13.2501519"><ele>341.66666666666663</ele><time>2026-05-01T08:18:56.835Z</time></trkpt><trkpt lat="43.247475" lon="13.2500977"><ele>343.0</ele><time>2026-05-01T08:18:57.836Z</time></trkpt><trkpt lat="43.2475393" lon="13.2500452"><ele>340.3333333333333</ele><time>2026-05-01T08:18:58.837Z</time></trkpt><trkpt lat="43.2476079" lon="13.2500088"><ele>337.66666666666663</ele><time>2026-05-01T08:18:59.835Z</time></trkpt><trkpt lat="43.247676" lon="13.2499819"><ele>335.0</ele><time>2026-05-01T08:19:00.835Z</time></trkpt><trkpt lat="43.2477519" lon="13.2499627"><ele>332.3333333333333</ele><time>2026-05-01T08:19:01.836Z</time></trkpt><trkpt lat="43.2478274" lon="13.249935"><ele>329.6666666666667</ele><time>2026-05-01T08:19:02.836Z</time></trkpt><trkpt lat="43.2479034" lon="13.2499114"><ele>327.0</ele><time>2026-05-01T08:19:03.835Z</time></trkpt><trkpt lat="43.2479837" lon="13.2498948"><ele>327.0</ele><time>2026-05-01T08:19:04.835Z</time></trkpt><trkpt lat="43.2480598" lon="13.2498762"><ele>327.0</ele><time>2026-05-01T08:19:05.835Z</time></trkpt><trkpt lat="43.2481306" lon="13.2498612"><ele>327.0</ele><time>2026-05-01T08:19:06.836Z</time></trkpt><trkpt lat="43.2482036" lon="13.2498466"><ele>327.0</ele><time>2026-05-01T08:19:07.836Z</time></trkpt><trkpt lat="43.2482784" lon="13.2498263"><ele>327.0</ele><time>2026-05-01T08:19:08.835Z</time></trkpt><trkpt lat="43.2483567" lon="13.2498046"><ele>327.0</ele><time>2026-05-01T08:19:09.837Z</time></trkpt><trkpt lat="43.2484309" lon="13.2497831"><ele>325.7142857142857</ele><time>2026-05-01T08:19:10.836Z</time></trkpt><trkpt lat="43.2485034" lon="13.2497612"><ele>324.42857142857144</ele><time>2026-05-01T08:19:11.835Z</time></trkpt><trkpt lat="43.2485777" lon="13.2497382"><ele>323.1428571428571</ele><time>2026-05-01T08:19:12.836Z</time></trkpt><trkpt lat="43.2486493" lon="13.2497158"><ele>321.8571428571429</ele><time>2026-05-01T08:19:13.835Z</time></trkpt><trkpt lat="43.2487206" lon="13.2496979"><ele>320.5714285714286</ele><time>2026-05-01T08:19:14.835Z</time></trkpt><trkpt lat="43.2487927" lon="13.2496872"><ele>319.2857142857143</ele><time>2026-05-01T08:19:15.836Z</time></trkpt><trkpt lat="43.2488646" lon="13.2496823"><ele>318.0</ele><time>2026-05-01T08:19:16.835Z</time></trkpt><trkpt lat="43.2489298" lon="13.249685"><ele>318.1666666666667</ele><time>2026-05-01T08:19:17.836Z</time></trkpt><trkpt lat="43.2489939" lon="13.2496998"><ele>318.3333333333333</ele><time>2026-05-01T08:19:18.835Z</time></trkpt><trkpt lat="43.2491202" lon="13.2497425"><ele>318.5</ele><time>2026-05-01T08:19:20.836Z</time></trkpt><trkpt lat="43.2491828" lon="13.2497737"><ele>318.66666666666663</ele><time>2026-05-01T08:19:21.836Z</time></trkpt><trkpt lat="43.2492459" lon="13.2498084"><ele>318.8333333333333</ele><time>2026-05-01T08:19:22.836Z</time></trkpt><trkpt lat="43.2493113" lon="13.2498487"><ele>319.0</ele><time>2026-05-01T08:19:23.836Z</time></trkpt><trkpt lat="43.2493717" lon="13.2498915"><ele>319.0</ele><time>2026-05-01T08:19:24.836Z</time></trkpt><trkpt lat="43.2494317" lon="13.2499462"><ele>319.0</ele><time>2026-05-01T08:19:25.836Z</time></trkpt><trkpt lat="43.2494815" lon="13.2500227"><ele>319.0</ele><time>2026-05-01T08:19:26.836Z</time></trkpt><trkpt lat="43.2495265" lon="13.2501078"><ele>319.0</ele><time>2026-05-01T08:19:27.835Z</time></trkpt><trkpt lat="43.2495696" lon="13.2502018"><ele>319.0</ele><time>2026-05-01T08:19:28.835Z</time></trkpt><trkpt lat="43.2496135" lon="13.2503001"><ele>319.0</ele><time>2026-05-01T08:19:29.835Z</time></trkpt><trkpt lat="43.2496565" lon="13.2504183"><ele>319.0</ele><time>2026-05-01T08:19:30.836Z</time></trkpt><trkpt lat="43.2497058" lon="13.2505395"><ele>319.0</ele><time>2026-05-01T08:19:31.836Z</time></trkpt><trkpt lat="43.2497501" lon="13.2506501"><ele>319.0</ele><time>2026-05-01T08:19:32.835Z</time></trkpt><trkpt lat="43.2497939" lon="13.2507548"><ele>319.0</ele><time>2026-05-01T08:19:33.836Z</time></trkpt><trkpt lat="43.2498387" lon="13.2508558"><ele>319.0</ele><time>2026-05-01T08:19:34.836Z</time></trkpt><trkpt lat="43.2498844" lon="13.2509524"><ele>317.16666666666663</ele><time>2026-05-01T08:19:35.835Z</time></trkpt><trkpt lat="43.2499337" lon="13.2510452"><ele>315.3333333333333</ele><time>2026-05-01T08:19:36.836Z</time></trkpt><trkpt lat="43.2499824" lon="13.2511404"><ele>313.5</ele><time>2026-05-01T08:19:37.836Z</time></trkpt><trkpt lat="43.2500334" lon="13.2512385"><ele>311.6666666666667</ele><time>2026-05-01T08:19:38.836Z</time></trkpt><trkpt lat="43.2500851" lon="13.2513392"><ele>309.83333333333337</ele><time>2026-05-01T08:19:39.835Z</time></trkpt><trkpt lat="43.250139" lon="13.2514389"><ele>308.0</ele><time>2026-05-01T08:19:40.836Z</time></trkpt><trkpt lat="43.2501922" lon="13.2515391"><ele>307.1666666666667</ele><time>2026-05-01T08:19:41.836Z</time></trkpt><trkpt lat="43.2502488" lon="13.2516372"><ele>306.33333333333337</ele><time>2026-05-01T08:19:42.836Z</time></trkpt><trkpt lat="43.2503024" lon="13.2517367"><ele>305.5</ele><time>2026-05-01T08:19:43.835Z</time></trkpt><trkpt lat="43.2503561" lon="13.2518357"><ele>304.6666666666667</ele><time>2026-05-01T08:19:44.835Z</time></trkpt><trkpt lat="43.2504063" lon="13.2519341"><ele>303.8333333333333</ele><time>2026-05-01T08:19:45.835Z</time></trkpt><trkpt lat="43.2504567" lon="13.2520328"><ele>303.0</ele><time>2026-05-01T08:19:46.835Z</time></trkpt><trkpt lat="43.2505061" lon="13.2521277"><ele>303.0</ele><time>2026-05-01T08:19:47.835Z</time></trkpt><trkpt lat="43.2505597" lon="13.2522289"><ele>303.0</ele><time>2026-05-01T08:19:48.836Z</time></trkpt><trkpt lat="43.2506167" lon="13.2523296"><ele>303.0</ele><time>2026-05-01T08:19:49.836Z</time></trkpt><trkpt lat="43.2506725" lon="13.2524258"><ele>303.0</ele><time>2026-05-01T08:19:50.835Z</time></trkpt><trkpt lat="43.2507266" lon="13.2525304"><ele>303.0</ele><time>2026-05-01T08:19:51.836Z</time></trkpt><trkpt lat="43.2507839" lon="13.2526317"><ele>300.4</ele><time>2026-05-01T08:19:52.836Z</time></trkpt><trkpt lat="43.2508423" lon="13.2527339"><ele>297.8</ele><time>2026-05-01T08:19:53.835Z</time></trkpt><trkpt lat="43.2508983" lon="13.2528364"><ele>295.2</ele><time>2026-05-01T08:19:54.835Z</time></trkpt><trkpt lat="43.2509518" lon="13.2529355"><ele>292.6</ele><time>2026-05-01T08:19:55.835Z</time></trkpt><trkpt lat="43.2510008" lon="13.253041"><ele>290.0</ele><time>2026-05-01T08:19:56.835Z</time></trkpt><trkpt lat="43.2510571" lon="13.2531387"><ele>288.75</ele><time>2026-05-01T08:19:57.836Z</time></trkpt><trkpt lat="43.2511306" lon="13.2532455"><ele>287.5</ele><time>2026-05-01T08:19:58.836Z</time></trkpt><trkpt lat="43.2512262" lon="13.253347"><ele>286.25</ele><time>2026-05-01T08:19:59.835Z</time></trkpt><trkpt lat="43.2513494" lon="13.2534429"><ele>285.0</ele><time>2026-05-01T08:20:00.836Z</time></trkpt><trkpt lat="43.2514829" lon="13.2535262"><ele>285.0</ele><time>2026-05-01T08:20:01.836Z</time></trkpt><trkpt lat="43.2516346" lon="13.2536103"><ele>285.0</ele><time>2026-05-01T08:20:02.836Z</time></trkpt><trkpt lat="43.2517688" lon="13.2536895"><ele>285.0</ele><time>2026-05-01T08:20:03.835Z</time></trkpt><trkpt lat="43.2518897" lon="13.2537767"><ele>285.0</ele><time>2026-05-01T08:20:04.835Z</time></trkpt><trkpt lat="43.2519989" lon="13.253865"><ele>285.0</ele><time>2026-05-01T08:20:05.836Z</time></trkpt><trkpt lat="43.2520924" lon="13.2539532"><ele>285.0</ele><time>2026-05-01T08:20:06.835Z</time></trkpt><trkpt lat="43.252177" lon="13.2540473"><ele>285.0</ele><time>2026-05-01T08:20:07.836Z</time></trkpt><trkpt lat="43.252257" lon="13.2541431"><ele>285.0</ele><time>2026-05-01T08:20:08.835Z</time></trkpt><trkpt lat="43.2523345" lon="13.2542414"><ele>285.0</ele><time>2026-05-01T08:20:09.836Z</time></trkpt><trkpt lat="43.252412" lon="13.2543524"><ele>284.75</ele><time>2026-05-01T08:20:10.836Z</time></trkpt><trkpt lat="43.2524966" lon="13.2544656"><ele>284.5</ele><time>2026-05-01T08:20:11.836Z</time></trkpt><trkpt lat="43.2525873" lon="13.2545766"><ele>284.25</ele><time>2026-05-01T08:20:12.835Z</time></trkpt><trkpt lat="43.2526758" lon="13.2546838"><ele>284.0</ele><time>2026-05-01T08:20:13.837Z</time></trkpt><trkpt lat="43.2527653" lon="13.25479"><ele>282.0</ele><time>2026-05-01T08:20:14.836Z</time></trkpt><trkpt lat="43.2528495" lon="13.2548998"><ele>280.0</ele><time>2026-05-01T08:20:15.835Z</time></trkpt><trkpt lat="43.2529356" lon="13.255006"><ele>278.0</ele><time>2026-05-01T08:20:16.835Z</time></trkpt><trkpt lat="43.2530225" lon="13.2551082"><ele>276.0</ele><time>2026-05-01T08:20:17.836Z</time></trkpt><trkpt lat="43.2531087" lon="13.2552148"><ele>276.75</ele><time>2026-05-01T08:20:18.836Z</time></trkpt><trkpt lat="43.2531975" lon="13.2553224"><ele>277.5</ele><time>2026-05-01T08:20:19.836Z</time></trkpt><trkpt lat="43.2532804" lon="13.2554315"><ele>278.25</ele><time>2026-05-01T08:20:20.836Z</time></trkpt><trkpt lat="43.2533597" lon="13.2555314"><ele>279.0</ele><time>2026-05-01T08:20:21.837Z</time></trkpt><trkpt lat="43.2534399" lon="13.2556359"><ele>279.0</ele><time>2026-05-01T08:20:22.836Z</time></trkpt><trkpt lat="43.2535044" lon="13.2557317"><ele>279.0</ele><time>2026-05-01T08:20:23.836Z</time></trkpt><trkpt lat="43.253571" lon="13.2558162"><ele>279.0</ele><time>2026-05-01T08:20:24.836Z</time></trkpt><trkpt lat="43.253632" lon="13.2558909"><ele>279.0</ele><time>2026-05-01T08:20:25.835Z</time></trkpt><trkpt lat="43.253695" lon="13.2559604"><ele>279.0</ele><time>2026-05-01T08:20:26.836Z</time></trkpt><trkpt lat="43.2537579" lon="13.256027"><ele>279.0</ele><time>2026-05-01T08:20:27.835Z</time></trkpt><trkpt lat="43.2538186" lon="13.2560886"><ele>279.0</ele><time>2026-05-01T08:20:28.836Z</time></trkpt><trkpt lat="43.253882" lon="13.2561497"><ele>279.0</ele><time>2026-05-01T08:20:29.836Z</time></trkpt><trkpt lat="43.2539485" lon="13.2562067"><ele>279.0</ele><time>2026-05-01T08:20:30.836Z</time></trkpt><trkpt lat="43.2540168" lon="13.2562629"><ele>279.0</ele><time>2026-05-01T08:20:31.836Z</time></trkpt><trkpt lat="43.2540834" lon="13.2563172"><ele>279.0</ele><time>2026-05-01T08:20:32.836Z</time></trkpt><trkpt lat="43.2541539" lon="13.2563664"><ele>279.0</ele><time>2026-05-01T08:20:33.836Z</time></trkpt><trkpt lat="43.2542272" lon="13.2564097"><ele>277.3333333333333</ele><time>2026-05-01T08:20:34.836Z</time></trkpt><trkpt lat="43.2543019" lon="13.256457"><ele>275.6666666666667</ele><time>2026-05-01T08:20:35.836Z</time></trkpt><trkpt lat="43.2543768" lon="13.2565111"><ele>274.0</ele><time>2026-05-01T08:20:36.836Z</time></trkpt><trkpt lat="43.2544472" lon="13.2565686"><ele>272.33333333333337</ele><time>2026-05-01T08:20:37.836Z</time></trkpt><trkpt lat="43.254517" lon="13.2566251"><ele>270.6666666666667</ele><time>2026-05-01T08:20:38.836Z</time></trkpt><trkpt lat="43.2545825" lon="13.2566871"><ele>269.0</ele><time>2026-05-01T08:20:39.835Z</time></trkpt><trkpt lat="43.2546484" lon="13.2567486"><ele>269.0</ele><time>2026-05-01T08:20:40.836Z</time></trkpt><trkpt lat="43.2547114" lon="13.256819"><ele>269.0</ele><time>2026-05-01T08:20:41.837Z</time></trkpt><trkpt lat="43.2547692" lon="13.2568916"><ele>269.0</ele><time>2026-05-01T08:20:42.837Z</time></trkpt><trkpt lat="43.2548287" lon="13.2569677"><ele>269.0</ele><time>2026-05-01T08:20:43.836Z</time></trkpt><trkpt lat="43.2548856" lon="13.2570383"><ele>269.0</ele><time>2026-05-01T08:20:44.836Z</time></trkpt><trkpt lat="43.2549425" lon="13.2571109"><ele>269.0</ele><time>2026-05-01T08:20:45.837Z</time></trkpt><trkpt lat="43.2549967" lon="13.2571842"><ele>268.1666666666667</ele><time>2026-05-01T08:20:46.836Z</time></trkpt><trkpt lat="43.2550502" lon="13.2572604"><ele>267.33333333333337</ele><time>2026-05-01T08:20:47.836Z</time></trkpt><trkpt lat="43.2551045" lon="13.2573404"><ele>266.5</ele><time>2026-05-01T08:20:48.835Z</time></trkpt><trkpt lat="43.2551582" lon="13.2574201"><ele>265.6666666666667</ele><time>2026-05-01T08:20:49.836Z</time></trkpt><trkpt lat="43.2552164" lon="13.2574996"><ele>264.8333333333333</ele><time>2026-05-01T08:20:50.835Z</time></trkpt><trkpt lat="43.2552748" lon="13.2575779"><ele>264.0</ele><time>2026-05-01T08:20:51.835Z</time></trkpt><trkpt lat="43.2553317" lon="13.257659"><ele>262.5</ele><time>2026-05-01T08:20:52.835Z</time></trkpt><trkpt lat="43.2553864" lon="13.2577446"><ele>261.0</ele><time>2026-05-01T08:20:53.836Z</time></trkpt><trkpt lat="43.2554429" lon="13.2578282"><ele>259.5</ele><time>2026-05-01T08:20:54.836Z</time></trkpt><trkpt lat="43.2554956" lon="13.2579124"><ele>258.0</ele><time>2026-05-01T08:20:55.835Z</time></trkpt><trkpt lat="43.2555485" lon="13.257996"><ele>256.5</ele><time>2026-05-01T08:20:56.837Z</time></trkpt><trkpt lat="43.2555998" lon="13.2580781"><ele>255.0</ele><time>2026-05-01T08:20:57.836Z</time></trkpt><trkpt lat="43.2556444" lon="13.2581637"><ele>252.5</ele><time>2026-05-01T08:20:58.835Z</time></trkpt><trkpt lat="43.2556913" lon="13.2582488"><ele>250.0</ele><time>2026-05-01T08:20:59.835Z</time></trkpt><trkpt lat="43.2557379" lon="13.2583412"><ele>247.5</ele><time>2026-05-01T08:21:00.836Z</time></trkpt><trkpt lat="43.2557814" lon="13.2584326"><ele>245.0</ele><time>2026-05-01T08:21:01.836Z</time></trkpt><trkpt lat="43.2558192" lon="13.2585216"><ele>242.5</ele><time>2026-05-01T08:21:02.835Z</time></trkpt><trkpt lat="43.2558574" lon="13.2586111"><ele>240.0</ele><time>2026-05-01T08:21:03.835Z</time></trkpt><trkpt lat="43.255891" lon="13.2586966"><ele>240.0</ele><time>2026-05-01T08:21:04.837Z</time></trkpt><trkpt lat="43.2559249" lon="13.2587798"><ele>240.0</ele><time>2026-05-01T08:21:05.837Z</time></trkpt><trkpt lat="43.2559614" lon="13.2588609"><ele>240.0</ele><time>2026-05-01T08:21:06.836Z</time></trkpt><trkpt lat="43.2560025" lon="13.2589302"><ele>240.0</ele><time>2026-05-01T08:21:07.837Z</time></trkpt><trkpt lat="43.2560449" lon="13.2589997"><ele>240.0</ele><time>2026-05-01T08:21:08.835Z</time></trkpt><trkpt lat="43.256093" lon="13.2590591"><ele>240.0</ele><time>2026-05-01T08:21:09.836Z</time></trkpt><trkpt lat="43.2561472" lon="13.25911"><ele>240.0</ele><time>2026-05-01T08:21:10.836Z</time></trkpt><trkpt lat="43.2562003" lon="13.2591637"><ele>238.2</ele><time>2026-05-01T08:21:11.836Z</time></trkpt><trkpt lat="43.2562975" lon="13.2592651"><ele>236.4</ele><time>2026-05-01T08:21:13.836Z</time></trkpt><trkpt lat="43.2563837" lon="13.25936"><ele>234.60000000000002</ele><time>2026-05-01T08:21:15.835Z</time></trkpt><trkpt lat="43.2564605" lon="13.2594436"><ele>232.8</ele><time>2026-05-01T08:21:17.835Z</time></trkpt><trkpt lat="43.2565268" lon="13.2595105"><ele>231.0</ele><time>2026-05-01T08:21:19.836Z</time></trkpt><trkpt lat="43.2565912" lon="13.2595848"><ele>229.8</ele><time>2026-05-01T08:21:21.835Z</time></trkpt><trkpt lat="43.2566738" lon="13.2596322"><ele>228.60000000000002</ele><time>2026-05-01T08:21:23.835Z</time></trkpt><trkpt lat="43.2567577" lon="13.2596645"><ele>227.4</ele><time>2026-05-01T08:21:25.836Z</time></trkpt><trkpt lat="43.2568458" lon="13.2596686"><ele>226.2</ele><time>2026-05-01T08:21:27.835Z</time></trkpt><trkpt lat="43.2569367" lon="13.259662"><ele>225.0</ele><time>2026-05-01T08:21:29.836Z</time></trkpt><trkpt lat="43.257033" lon="13.259648"><ele>225.0</ele><time>2026-05-01T08:21:31.836Z</time></trkpt><trkpt lat="43.2571378" lon="13.2596252"><ele>225.0</ele><time>2026-05-01T08:21:33.835Z</time></trkpt><trkpt lat="43.257248" lon="13.2595987"><ele>225.0</ele><time>2026-05-01T08:21:35.835Z</time></trkpt><trkpt lat="43.2573629" lon="13.2595725"><ele>225.0</ele><time>2026-05-01T08:21:37.836Z</time></trkpt><trkpt lat="43.2574832" lon="13.2595496"><ele>222.0</ele><time>2026-05-01T08:21:39.836Z</time></trkpt><trkpt lat="43.2575458" lon="13.2595372"><ele>219.0</ele><time>2026-05-01T08:21:40.836Z</time></trkpt><trkpt lat="43.2576637" lon="13.25952"><ele>216.0</ele><time>2026-05-01T08:21:42.835Z</time></trkpt><trkpt lat="43.2577644" lon="13.2594863"><ele>213.0</ele><time>2026-05-01T08:21:44.835Z</time></trkpt><trkpt lat="43.2578571" lon="13.2594369"><ele>210.0</ele><time>2026-05-01T08:21:46.836Z</time></trkpt><trkpt lat="43.2579511" lon="13.2593846"><ele>210.0</ele><time>2026-05-01T08:21:48.837Z</time></trkpt><trkpt lat="43.258058" lon="13.2593019"><ele>210.0</ele><time>2026-05-01T08:21:50.836Z</time></trkpt><trkpt lat="43.2581607" lon="13.2592086"><ele>210.0</ele><time>2026-05-01T08:21:52.836Z</time></trkpt><trkpt lat="43.2582618" lon="13.2590986"><ele>210.0</ele><time>2026-05-01T08:21:54.836Z</time></trkpt><trkpt lat="43.2583136" lon="13.259037"><ele>210.0</ele><time>2026-05-01T08:21:55.837Z</time></trkpt><trkpt lat="43.2583678" lon="13.2589724"><ele>208.33333333333334</ele><time>2026-05-01T08:21:56.836Z</time></trkpt><trkpt lat="43.2584285" lon="13.2589138"><ele>206.66666666666669</ele><time>2026-05-01T08:21:57.836Z</time></trkpt><trkpt lat="43.2584855" lon="13.2588491"><ele>205.0</ele><time>2026-05-01T08:21:58.835Z</time></trkpt><trkpt lat="43.2585502" lon="13.2587781"><ele>203.33333333333334</ele><time>2026-05-01T08:21:59.836Z</time></trkpt><trkpt lat="43.2586151" lon="13.2587137"><ele>201.66666666666669</ele><time>2026-05-01T08:22:00.836Z</time></trkpt><trkpt lat="43.2586798" lon="13.258651"><ele>200.0</ele><time>2026-05-01T08:22:01.836Z</time></trkpt><trkpt lat="43.2587383" lon="13.2585888"><ele>200.00000000000003</ele><time>2026-05-01T08:22:02.835Z</time></trkpt><trkpt lat="43.2587925" lon="13.258529"><ele>200.0</ele><time>2026-05-01T08:22:03.835Z</time></trkpt><trkpt lat="43.2588415" lon="13.2584676"><ele>200.0</ele><time>2026-05-01T08:22:04.837Z</time></trkpt><trkpt lat="43.2588926" lon="13.2584032"><ele>200.0</ele><time>2026-05-01T08:22:05.835Z</time></trkpt><trkpt lat="43.2589409" lon="13.2583318"><ele>200.0</ele><time>2026-05-01T08:22:06.836Z</time></trkpt><trkpt lat="43.2589893" lon="13.258256"><ele>200.00000000000003</ele><time>2026-05-01T08:22:07.835Z</time></trkpt><trkpt lat="43.2590404" lon="13.2581803"><ele>200.0</ele><time>2026-05-01T08:22:08.835Z</time></trkpt><trkpt lat="43.259097" lon="13.2581076"><ele>198.50000000000003</ele><time>2026-05-01T08:22:09.835Z</time></trkpt><trkpt lat="43.2591514" lon="13.2580354"><ele>197.0</ele><time>2026-05-01T08:22:10.836Z</time></trkpt><trkpt lat="43.2592083" lon="13.2579654"><ele>195.5</ele><time>2026-05-01T08:22:11.835Z</time></trkpt><trkpt lat="43.2592621" lon="13.2579001"><ele>194.0</ele><time>2026-05-01T08:22:12.835Z</time></trkpt><trkpt lat="43.2593151" lon="13.2578374"><ele>192.5</ele><time>2026-05-01T08:22:13.836Z</time></trkpt><trkpt lat="43.2593684" lon="13.2577823"><ele>191.0</ele><time>2026-05-01T08:22:14.836Z</time></trkpt><trkpt lat="43.2594676" lon="13.257677"><ele>191.0</ele><time>2026-05-01T08:22:16.836Z</time></trkpt><trkpt lat="43.2595659" lon="13.2575838"><ele>191.0</ele><time>2026-05-01T08:22:18.835Z</time></trkpt><trkpt lat="43.2596382" lon="13.2575118"><ele>191.0</ele><time>2026-05-01T08:22:20.836Z</time></trkpt><trkpt lat="43.2597056" lon="13.2574682"><ele>191.0</ele><time>2026-05-01T08:22:23.836Z</time></trkpt><trkpt lat="43.2597369" lon="13.2573736"><ele>191.0</ele><time>2026-05-01T08:22:35.836Z</time></trkpt><trkpt lat="43.2597173" lon="13.2572659"><ele>191.0</ele><time>2026-05-01T08:22:37.837Z</time></trkpt><trkpt lat="43.259687" lon="13.257145"><ele>190.5</ele><time>2026-05-01T08:22:39.835Z</time></trkpt><trkpt lat="43.2596562" lon="13.257017"><ele>190.0</ele><time>2026-05-01T08:22:41.836Z</time></trkpt><trkpt lat="43.25962" lon="13.2568745"><ele>189.5</ele><time>2026-05-01T08:22:43.835Z</time></trkpt><trkpt lat="43.2596004" lon="13.2567872"><ele>189.0</ele><time>2026-05-01T08:22:44.836Z</time></trkpt><trkpt lat="43.2595767" lon="13.2566978"><ele>188.5</ele><time>2026-05-01T08:22:45.835Z</time></trkpt><trkpt lat="43.2595542" lon="13.2566068"><ele>188.0</ele><time>2026-05-01T08:22:46.835Z</time></trkpt><trkpt lat="43.2595328" lon="13.2565098"><ele>187.66666666666666</ele><time>2026-05-01T08:22:47.836Z</time></trkpt><trkpt lat="43.2595104" lon="13.2564055"><ele>187.33333333333331</ele><time>2026-05-01T08:22:48.835Z</time></trkpt><trkpt lat="43.2594878" lon="13.2562971"><ele>187.0</ele><time>2026-05-01T08:22:49.836Z</time></trkpt><trkpt lat="43.2594505" lon="13.2561924"><ele>186.66666666666666</ele><time>2026-05-01T08:22:50.835Z</time></trkpt><trkpt lat="43.2594184" lon="13.2560787"><ele>186.33333333333334</ele><time>2026-05-01T08:22:51.836Z</time></trkpt><trkpt lat="43.2593989" lon="13.2559534"><ele>186.0</ele><time>2026-05-01T08:22:52.837Z</time></trkpt><trkpt lat="43.2593667" lon="13.2558335"><ele>186.0</ele><time>2026-05-01T08:22:53.836Z</time></trkpt><trkpt lat="43.2593362" lon="13.2557094"><ele>186.0</ele><time>2026-05-01T08:22:54.836Z</time></trkpt><trkpt lat="43.2593157" lon="13.2555804"><ele>186.0</ele><time>2026-05-01T08:22:55.835Z</time></trkpt><trkpt lat="43.2592767" lon="13.2554603"><ele>186.0</ele><time>2026-05-01T08:22:56.835Z</time></trkpt><trkpt lat="43.2592477" lon="13.2553307"><ele>186.0</ele><time>2026-05-01T08:22:57.836Z</time></trkpt><trkpt lat="43.2592225" lon="13.2551994"><ele>185.0</ele><time>2026-05-01T08:22:58.835Z</time></trkpt><trkpt lat="43.2591913" lon="13.2550694"><ele>184.0</ele><time>2026-05-01T08:22:59.836Z</time></trkpt><trkpt lat="43.2591602" lon="13.2549371"><ele>183.0</ele><time>2026-05-01T08:23:00.836Z</time></trkpt><trkpt lat="43.2591346" lon="13.2548013"><ele>182.0</ele><time>2026-05-01T08:23:01.836Z</time></trkpt><trkpt lat="43.2591153" lon="13.2546682"><ele>181.0</ele><time>2026-05-01T08:23:02.835Z</time></trkpt><trkpt lat="43.2590992" lon="13.2545351"><ele>181.0</ele><time>2026-05-01T08:23:03.835Z</time></trkpt><trkpt lat="43.2590891" lon="13.2544105"><ele>181.0</ele><time>2026-05-01T08:23:04.836Z</time></trkpt><trkpt lat="43.2590837" lon="13.2542803"><ele>181.0</ele><time>2026-05-01T08:23:05.836Z</time></trkpt><trkpt lat="43.2590893" lon="13.2541422"><ele>181.0</ele><time>2026-05-01T08:23:06.836Z</time></trkpt><trkpt lat="43.2591155" lon="13.2540003"><ele>181.0</ele><time>2026-05-01T08:23:07.835Z</time></trkpt><trkpt lat="43.2591613" lon="13.2538673"><ele>180.8</ele><time>2026-05-01T08:23:08.836Z</time></trkpt><trkpt lat="43.2592278" lon="13.2537549"><ele>180.60000000000002</ele><time>2026-05-01T08:23:09.836Z</time></trkpt><trkpt lat="43.2593205" lon="13.2536681"><ele>180.4</ele><time>2026-05-01T08:23:10.836Z</time></trkpt><trkpt lat="43.2594239" lon="13.2536153"><ele>180.2</ele><time>2026-05-01T08:23:11.836Z</time></trkpt><trkpt lat="43.2595312" lon="13.2535831"><ele>180.0</ele><time>2026-05-01T08:23:12.835Z</time></trkpt><trkpt lat="43.2596382" lon="13.2535567"><ele>180.0</ele><time>2026-05-01T08:23:13.836Z</time></trkpt><trkpt lat="43.2597453" lon="13.2535312"><ele>180.0</ele><time>2026-05-01T08:23:14.836Z</time></trkpt><trkpt lat="43.2598517" lon="13.2535016"><ele>180.0</ele><time>2026-05-01T08:23:15.836Z</time></trkpt><trkpt lat="43.2599601" lon="13.2534716"><ele>180.0</ele><time>2026-05-01T08:23:16.836Z</time></trkpt><trkpt lat="43.260075" lon="13.253441"><ele>180.0</ele><time>2026-05-01T08:23:17.835Z</time></trkpt><trkpt lat="43.2602" lon="13.2533994"><ele>179.0</ele><time>2026-05-01T08:23:18.836Z</time></trkpt><trkpt lat="43.2603326" lon="13.2533526"><ele>178.0</ele><time>2026-05-01T08:23:19.835Z</time></trkpt><trkpt lat="43.2604645" lon="13.2532962"><ele>177.0</ele><time>2026-05-01T08:23:20.837Z</time></trkpt><trkpt lat="43.2605969" lon="13.2532296"><ele>176.0</ele><time>2026-05-01T08:23:21.836Z</time></trkpt><trkpt lat="43.2607304" lon="13.2531629"><ele>174.75</ele><time>2026-05-01T08:23:22.836Z</time></trkpt><trkpt lat="43.2608569" lon="13.253098"><ele>173.5</ele><time>2026-05-01T08:23:23.836Z</time></trkpt><trkpt lat="43.2609837" lon="13.2530344"><ele>172.25</ele><time>2026-05-01T08:23:24.836Z</time></trkpt><trkpt lat="43.2611097" lon="13.252976"><ele>171.0</ele><time>2026-05-01T08:23:25.835Z</time></trkpt><trkpt lat="43.2612395" lon="13.2529173"><ele>171.0</ele><time>2026-05-01T08:23:26.836Z</time></trkpt><trkpt lat="43.2613684" lon="13.2528643"><ele>171.0</ele><time>2026-05-01T08:23:27.837Z</time></trkpt><trkpt lat="43.2614955" lon="13.2528138"><ele>171.0</ele><time>2026-05-01T08:23:28.835Z</time></trkpt><trkpt lat="43.2616208" lon="13.2527662"><ele>171.0</ele><time>2026-05-01T08:23:29.836Z</time></trkpt><trkpt lat="43.2617468" lon="13.252713"><ele>172.5</ele><time>2026-05-01T08:23:30.835Z</time></trkpt><trkpt lat="43.261871" lon="13.2526591"><ele>174.0</ele><time>2026-05-01T08:23:31.835Z</time></trkpt><trkpt lat="43.2619989" lon="13.2526022"><ele>175.5</ele><time>2026-05-01T08:23:32.836Z</time></trkpt><trkpt lat="43.2621276" lon="13.2525485"><ele>177.0</ele><time>2026-05-01T08:23:33.836Z</time></trkpt><trkpt lat="43.2622614" lon="13.2524959"><ele>177.5</ele><time>2026-05-01T08:23:34.837Z</time></trkpt><trkpt lat="43.2623903" lon="13.2524426"><ele>178.0</ele><time>2026-05-01T08:23:35.835Z</time></trkpt><trkpt lat="43.2625213" lon="13.252389"><ele>178.5</ele><time>2026-05-01T08:23:36.836Z</time></trkpt><trkpt lat="43.2626493" lon="13.252338"><ele>179.0</ele><time>2026-05-01T08:23:37.835Z</time></trkpt><trkpt lat="43.2627733" lon="13.2522902"><ele>178.25</ele><time>2026-05-01T08:23:38.836Z</time></trkpt><trkpt lat="43.2629015" lon="13.2522421"><ele>177.5</ele><time>2026-05-01T08:23:39.837Z</time></trkpt><trkpt lat="43.2630283" lon="13.2521979"><ele>176.75</ele><time>2026-05-01T08:23:40.836Z</time></trkpt><trkpt lat="43.2631514" lon="13.2521593"><ele>176.0</ele><time>2026-05-01T08:23:41.835Z</time></trkpt><trkpt lat="43.2632707" lon="13.2521174"><ele>177.5</ele><time>2026-05-01T08:23:42.835Z</time></trkpt><trkpt lat="43.2633878" lon="13.2520761"><ele>179.0</ele><time>2026-05-01T08:23:43.836Z</time></trkpt><trkpt lat="43.2635026" lon="13.2520307"><ele>180.5</ele><time>2026-05-01T08:23:44.834Z</time></trkpt><trkpt lat="43.2636146" lon="13.2519895"><ele>182.0</ele><time>2026-05-01T08:23:45.835Z</time></trkpt><trkpt lat="43.2637158" lon="13.2519507"><ele>182.0</ele><time>2026-05-01T08:23:46.834Z</time></trkpt><trkpt lat="43.2638092" lon="13.251916"><ele>182.0</ele><time>2026-05-01T08:23:47.834Z</time></trkpt><trkpt lat="43.2639049" lon="13.2518819"><ele>182.0</ele><time>2026-05-01T08:23:48.835Z</time></trkpt><trkpt lat="43.2639994" lon="13.2518492"><ele>182.0</ele><time>2026-05-01T08:23:49.834Z</time></trkpt><trkpt lat="43.2640931" lon="13.2518101"><ele>182.0</ele><time>2026-05-01T08:23:50.835Z</time></trkpt><trkpt lat="43.2641863" lon="13.2517651"><ele>183.39999999999998</ele><time>2026-05-01T08:23:51.836Z</time></trkpt><trkpt lat="43.2642777" lon="13.2517252"><ele>184.79999999999998</ele><time>2026-05-01T08:23:52.834Z</time></trkpt><trkpt lat="43.2643706" lon="13.2516873"><ele>186.2</ele><time>2026-05-01T08:23:53.834Z</time></trkpt><trkpt lat="43.2644591" lon="13.2516522"><ele>187.6</ele><time>2026-05-01T08:23:54.835Z</time></trkpt><trkpt lat="43.2645422" lon="13.251616"><ele>189.0</ele><time>2026-05-01T08:23:55.835Z</time></trkpt><trkpt lat="43.2646222" lon="13.2515976"><ele>189.0</ele><time>2026-05-01T08:23:56.835Z</time></trkpt><trkpt lat="43.2646934" lon="13.2515907"><ele>189.0</ele><time>2026-05-01T08:23:57.835Z</time></trkpt><trkpt lat="43.2647598" lon="13.2516082"><ele>189.0</ele><time>2026-05-01T08:23:58.834Z</time></trkpt><trkpt lat="43.2648185" lon="13.2516419"><ele>189.0</ele><time>2026-05-01T08:23:59.834Z</time></trkpt><trkpt lat="43.2648971" lon="13.2517259"><ele>189.0</ele><time>2026-05-01T08:24:01.834Z</time></trkpt><trkpt lat="43.2649546" lon="13.2518471"><ele>189.0</ele><time>2026-05-01T08:24:03.835Z</time></trkpt><trkpt lat="43.2649859" lon="13.2519296"><ele>189.33333333333334</ele><time>2026-05-01T08:24:04.835Z</time></trkpt><trkpt lat="43.2650178" lon="13.2520311"><ele>189.66666666666666</ele><time>2026-05-01T08:24:05.836Z</time></trkpt><trkpt lat="43.2650481" lon="13.2521401"><ele>190.0</ele><time>2026-05-01T08:24:06.835Z</time></trkpt><trkpt lat="43.265075" lon="13.252256"><ele>190.33333333333331</ele><time>2026-05-01T08:24:07.834Z</time></trkpt><trkpt lat="43.265104" lon="13.2523763"><ele>190.66666666666666</ele><time>2026-05-01T08:24:08.835Z</time></trkpt><trkpt lat="43.2651384" lon="13.2525003"><ele>191.0</ele><time>2026-05-01T08:24:09.834Z</time></trkpt><trkpt lat="43.2651739" lon="13.2526351"><ele>191.0</ele><time>2026-05-01T08:24:10.836Z</time></trkpt><trkpt lat="43.2652086" lon="13.2527757"><ele>191.0</ele><time>2026-05-01T08:24:11.835Z</time></trkpt><trkpt lat="43.2652413" lon="13.2529179"><ele>191.0</ele><time>2026-05-01T08:24:12.834Z</time></trkpt><trkpt lat="43.265277" lon="13.253061"><ele>191.0</ele><time>2026-05-01T08:24:13.835Z</time></trkpt><trkpt lat="43.2653143" lon="13.2532033"><ele>191.0</ele><time>2026-05-01T08:24:14.835Z</time></trkpt><trkpt lat="43.2653498" lon="13.2533507"><ele>190.8</ele><time>2026-05-01T08:24:15.835Z</time></trkpt><trkpt lat="43.2653849" lon="13.2534967"><ele>190.60000000000002</ele><time>2026-05-01T08:24:16.835Z</time></trkpt><trkpt lat="43.2654216" lon="13.2536363"><ele>190.4</ele><time>2026-05-01T08:24:17.834Z</time></trkpt><trkpt lat="43.2654592" lon="13.2537798"><ele>190.2</ele><time>2026-05-01T08:24:18.835Z</time></trkpt><trkpt lat="43.2654968" lon="13.2539268"><ele>190.0</ele><time>2026-05-01T08:24:19.835Z</time></trkpt><trkpt lat="43.2655333" lon="13.2540764"><ele>190.5</ele><time>2026-05-01T08:24:20.835Z</time></trkpt><trkpt lat="43.265568" lon="13.2542276"><ele>191.0</ele><time>2026-05-01T08:24:21.835Z</time></trkpt><trkpt lat="43.2656041" lon="13.25438"><ele>191.5</ele><time>2026-05-01T08:24:22.834Z</time></trkpt><trkpt lat="43.2656404" lon="13.2545349"><ele>192.0</ele><time>2026-05-01T08:24:23.836Z</time></trkpt><trkpt lat="43.2656789" lon="13.2546909"><ele>192.0</ele><time>2026-05-01T08:24:24.835Z</time></trkpt><trkpt lat="43.2657195" lon="13.2548492"><ele>192.0</ele><time>2026-05-01T08:24:25.835Z</time></trkpt><trkpt lat="43.2657617" lon="13.2550141"><ele>192.0</ele><time>2026-05-01T08:24:26.835Z</time></trkpt><trkpt lat="43.2658057" lon="13.2551829"><ele>192.0</ele><time>2026-05-01T08:24:27.834Z</time></trkpt><trkpt lat="43.2658516" lon="13.2553536"><ele>192.0</ele><time>2026-05-01T08:24:28.834Z</time></trkpt><trkpt lat="43.2658985" lon="13.2555231"><ele>192.0</ele><time>2026-05-01T08:24:29.834Z</time></trkpt><trkpt lat="43.2659441" lon="13.255688"><ele>192.0</ele><time>2026-05-01T08:24:30.836Z</time></trkpt><trkpt lat="43.2659897" lon="13.2558497"><ele>192.0</ele><time>2026-05-01T08:24:31.834Z</time></trkpt><trkpt lat="43.266031" lon="13.2560076"><ele>191.5</ele><time>2026-05-01T08:24:32.835Z</time></trkpt><trkpt lat="43.2660739" lon="13.256165"><ele>191.0</ele><time>2026-05-01T08:24:33.836Z</time></trkpt><trkpt lat="43.2661176" lon="13.2563265"><ele>190.5</ele><time>2026-05-01T08:24:34.834Z</time></trkpt><trkpt lat="43.26616" lon="13.256487"><ele>190.0</ele><time>2026-05-01T08:24:35.835Z</time></trkpt><trkpt lat="43.2662077" lon="13.2566475"><ele>189.25</ele><time>2026-05-01T08:24:36.835Z</time></trkpt><trkpt lat="43.2662548" lon="13.2568116"><ele>188.5</ele><time>2026-05-01T08:24:37.834Z</time></trkpt><trkpt lat="43.2662996" lon="13.2569714"><ele>187.75</ele><time>2026-05-01T08:24:38.835Z</time></trkpt><trkpt lat="43.2663451" lon="13.2571297"><ele>187.0</ele><time>2026-05-01T08:24:39.834Z</time></trkpt><trkpt lat="43.2663881" lon="13.2572852"><ele>186.6</ele><time>2026-05-01T08:24:40.835Z</time></trkpt><trkpt lat="43.266434" lon="13.2574357"><ele>186.2</ele><time>2026-05-01T08:24:41.834Z</time></trkpt><trkpt lat="43.2664765" lon="13.2575817"><ele>185.8</ele><time>2026-05-01T08:24:42.835Z</time></trkpt><trkpt lat="43.266515" lon="13.2577187"><ele>185.4</ele><time>2026-05-01T08:24:43.834Z</time></trkpt><trkpt lat="43.2665511" lon="13.2578381"><ele>185.0</ele><time>2026-05-01T08:24:44.835Z</time></trkpt><trkpt lat="43.2665833" lon="13.2579495"><ele>186.2</ele><time>2026-05-01T08:24:45.834Z</time></trkpt><trkpt lat="43.266613" lon="13.2580491"><ele>187.4</ele><time>2026-05-01T08:24:46.834Z</time></trkpt><trkpt lat="43.2666906" lon="13.2581605"><ele>188.60000000000002</ele><time>2026-05-01T08:24:48.834Z</time></trkpt><trkpt lat="43.2667805" lon="13.2581559"><ele>189.8</ele><time>2026-05-01T08:24:50.834Z</time></trkpt><trkpt lat="43.2668951" lon="13.2581032"><ele>191.0</ele><time>2026-05-01T08:24:52.834Z</time></trkpt><trkpt lat="43.2669705" lon="13.2580776"><ele>191.0</ele><time>2026-05-01T08:24:53.834Z</time></trkpt><trkpt lat="43.2670622" lon="13.2580409"><ele>191.0</ele><time>2026-05-01T08:24:54.835Z</time></trkpt><trkpt lat="43.2671619" lon="13.2579979"><ele>191.0</ele><time>2026-05-01T08:24:55.835Z</time></trkpt><trkpt lat="43.2672806" lon="13.2579411"><ele>191.0</ele><time>2026-05-01T08:24:56.834Z</time></trkpt><trkpt lat="43.2674041" lon="13.2578812"><ele>193.5</ele><time>2026-05-01T08:24:57.834Z</time></trkpt><trkpt lat="43.2675319" lon="13.2578276"><ele>196.0</ele><time>2026-05-01T08:24:58.834Z</time></trkpt><trkpt lat="43.2676522" lon="13.2577883"><ele>198.5</ele><time>2026-05-01T08:24:59.834Z</time></trkpt><trkpt lat="43.2677615" lon="13.2577553"><ele>201.0</ele><time>2026-05-01T08:25:00.836Z</time></trkpt><trkpt lat="43.2678591" lon="13.2577167"><ele>201.0</ele><time>2026-05-01T08:25:01.835Z</time></trkpt><trkpt lat="43.2679475" lon="13.257672"><ele>201.0</ele><time>2026-05-01T08:25:02.835Z</time></trkpt><trkpt lat="43.2680259" lon="13.2576032"><ele>201.0</ele><time>2026-05-01T08:25:03.834Z</time></trkpt><trkpt lat="43.2680902" lon="13.2575101"><ele>201.0</ele><time>2026-05-01T08:25:04.834Z</time></trkpt><trkpt lat="43.268144" lon="13.2573951"><ele>201.0</ele><time>2026-05-01T08:25:05.834Z</time></trkpt><trkpt lat="43.2681976" lon="13.2572696"><ele>205.60000000000002</ele><time>2026-05-01T08:25:06.835Z</time></trkpt><trkpt lat="43.2682568" lon="13.2571487"><ele>210.2</ele><time>2026-05-01T08:25:07.834Z</time></trkpt><trkpt lat="43.2683199" lon="13.2570279"><ele>214.79999999999998</ele><time>2026-05-01T08:25:08.835Z</time></trkpt><trkpt lat="43.2683869" lon="13.2569217"><ele>219.39999999999998</ele><time>2026-05-01T08:25:09.835Z</time></trkpt><trkpt lat="43.2684619" lon="13.2568467"><ele>224.0</ele><time>2026-05-01T08:25:10.835Z</time></trkpt><trkpt lat="43.2685425" lon="13.256814"><ele>224.00000000000003</ele><time>2026-05-01T08:25:11.835Z</time></trkpt><trkpt lat="43.2686236" lon="13.2568243"><ele>224.0</ele><time>2026-05-01T08:25:12.835Z</time></trkpt><trkpt lat="43.2686945" lon="13.2568584"><ele>224.0</ele><time>2026-05-01T08:25:13.835Z</time></trkpt><trkpt lat="43.2687669" lon="13.2568978"><ele>224.0</ele><time>2026-05-01T08:25:14.836Z</time></trkpt><trkpt lat="43.2688415" lon="13.2569465"><ele>224.00000000000003</ele><time>2026-05-01T08:25:15.834Z</time></trkpt><trkpt lat="43.2689203" lon="13.2569836"><ele>224.0</ele><time>2026-05-01T08:25:16.834Z</time></trkpt><trkpt lat="43.2690011" lon="13.2569903"><ele>226.33333333333334</ele><time>2026-05-01T08:25:17.834Z</time></trkpt><trkpt lat="43.2690778" lon="13.2569752"><ele>228.66666666666669</ele><time>2026-05-01T08:25:18.835Z</time></trkpt><trkpt lat="43.2691548" lon="13.2569318"><ele>231.0</ele><time>2026-05-01T08:25:19.835Z</time></trkpt><trkpt lat="43.269234" lon="13.2568725"><ele>233.33333333333331</ele><time>2026-05-01T08:25:20.835Z</time></trkpt><trkpt lat="43.2693122" lon="13.2568102"><ele>235.66666666666666</ele><time>2026-05-01T08:25:21.835Z</time></trkpt><trkpt lat="43.2693984" lon="13.2567507"><ele>238.0</ele><time>2026-05-01T08:25:22.835Z</time></trkpt><trkpt lat="43.2694821" lon="13.2566777"><ele>238.0</ele><time>2026-05-01T08:25:23.834Z</time></trkpt><trkpt lat="43.2695719" lon="13.2566072"><ele>238.0</ele><time>2026-05-01T08:25:24.835Z</time></trkpt><trkpt lat="43.2696685" lon="13.2565411"><ele>238.0</ele><time>2026-05-01T08:25:25.834Z</time></trkpt><trkpt lat="43.2697716" lon="13.2564685"><ele>238.0</ele><time>2026-05-01T08:25:26.835Z</time></trkpt><trkpt lat="43.2698854" lon="13.2563876"><ele>240.25</ele><time>2026-05-01T08:25:27.834Z</time></trkpt><trkpt lat="43.2700064" lon="13.2563185"><ele>242.5</ele><time>2026-05-01T08:25:28.835Z</time></trkpt><trkpt lat="43.2701422" lon="13.2562486"><ele>244.75</ele><time>2026-05-01T08:25:29.836Z</time></trkpt><trkpt lat="43.2702774" lon="13.2561756"><ele>247.0</ele><time>2026-05-01T08:25:30.835Z</time></trkpt><trkpt lat="43.2704107" lon="13.2560914"><ele>247.0</ele><time>2026-05-01T08:25:31.834Z</time></trkpt><trkpt lat="43.2705333" lon="13.2559918"><ele>247.0</ele><time>2026-05-01T08:25:32.836Z</time></trkpt><trkpt lat="43.2706451" lon="13.2559014"><ele>247.0</ele><time>2026-05-01T08:25:33.835Z</time></trkpt><trkpt lat="43.2707524" lon="13.255828"><ele>247.0</ele><time>2026-05-01T08:25:34.835Z</time></trkpt><trkpt lat="43.2708525" lon="13.2557616"><ele>247.8</ele><time>2026-05-01T08:25:35.834Z</time></trkpt><trkpt lat="43.270948" lon="13.255691"><ele>248.6</ele><time>2026-05-01T08:25:36.834Z</time></trkpt><trkpt lat="43.271038" lon="13.2556291"><ele>249.40000000000003</ele><time>2026-05-01T08:25:37.835Z</time></trkpt><trkpt lat="43.2711232" lon="13.2555774"><ele>250.20000000000002</ele><time>2026-05-01T08:25:38.835Z</time></trkpt><trkpt lat="43.2712094" lon="13.2555324"><ele>251.0</ele><time>2026-05-01T08:25:39.834Z</time></trkpt><trkpt lat="43.2712991" lon="13.2554921"><ele>251.00000000000003</ele><time>2026-05-01T08:25:40.835Z</time></trkpt><trkpt lat="43.2713877" lon="13.2554521"><ele>251.0</ele><time>2026-05-01T08:25:41.835Z</time></trkpt><trkpt lat="43.2714714" lon="13.2554137"><ele>251.0</ele><time>2026-05-01T08:25:42.835Z</time></trkpt><trkpt lat="43.2715566" lon="13.2553716"><ele>251.0</ele><time>2026-05-01T08:25:43.834Z</time></trkpt><trkpt lat="43.2716368" lon="13.2553268"><ele>251.00000000000003</ele><time>2026-05-01T08:25:44.834Z</time></trkpt><trkpt lat="43.2717143" lon="13.2552774"><ele>251.0</ele><time>2026-05-01T08:25:45.834Z</time></trkpt><trkpt lat="43.2717894" lon="13.2552192"><ele>252.57142857142856</ele><time>2026-05-01T08:25:46.835Z</time></trkpt><trkpt lat="43.2718592" lon="13.2551606"><ele>254.14285714285714</ele><time>2026-05-01T08:25:47.835Z</time></trkpt><trkpt lat="43.2719181" lon="13.2551067"><ele>255.71428571428572</ele><time>2026-05-01T08:25:48.834Z</time></trkpt><trkpt lat="43.2719733" lon="13.255046"><ele>257.2857142857143</ele><time>2026-05-01T08:25:49.835Z</time></trkpt><trkpt lat="43.272026" lon="13.2549849"><ele>258.8571428571429</ele><time>2026-05-01T08:25:50.834Z</time></trkpt><trkpt lat="43.2720735" lon="13.2549144"><ele>260.42857142857144</ele><time>2026-05-01T08:25:51.835Z</time></trkpt><trkpt lat="43.272125" lon="13.254846"><ele>262.0</ele><time>2026-05-01T08:25:52.834Z</time></trkpt><trkpt lat="43.2721785" lon="13.2547849"><ele>262.0</ele><time>2026-05-01T08:25:53.834Z</time></trkpt><trkpt lat="43.2722319" lon="13.2547242"><ele>262.0</ele><time>2026-05-01T08:25:54.834Z</time></trkpt><trkpt lat="43.2722837" lon="13.2546596"><ele>262.0</ele><time>2026-05-01T08:25:55.835Z</time></trkpt><trkpt lat="43.2723392" lon="13.2545984"><ele>262.0</ele><time>2026-05-01T08:25:56.835Z</time></trkpt><trkpt lat="43.2723955" lon="13.2545383"><ele>262.0</ele><time>2026-05-01T08:25:57.835Z</time></trkpt><trkpt lat="43.2724569" lon="13.2544818"><ele>262.0</ele><time>2026-05-01T08:25:58.835Z</time></trkpt><trkpt lat="43.272516" lon="13.25443"><ele>262.0</ele><time>2026-05-01T08:25:59.835Z</time></trkpt><trkpt lat="43.2725766" lon="13.2543754"><ele>264.66666666666663</ele><time>2026-05-01T08:26:00.836Z</time></trkpt><trkpt lat="43.272639" lon="13.2543163"><ele>267.3333333333333</ele><time>2026-05-01T08:26:01.835Z</time></trkpt><trkpt lat="43.2727057" lon="13.254259"><ele>270.0</ele><time>2026-05-01T08:26:02.835Z</time></trkpt><trkpt lat="43.2727803" lon="13.2542099"><ele>272.6666666666667</ele><time>2026-05-01T08:26:03.835Z</time></trkpt><trkpt lat="43.2728557" lon="13.2541622"><ele>275.33333333333337</ele><time>2026-05-01T08:26:04.835Z</time></trkpt><trkpt lat="43.2729326" lon="13.2541124"><ele>278.0</ele><time>2026-05-01T08:26:05.835Z</time></trkpt><trkpt lat="43.2730116" lon="13.2540602"><ele>278.0</ele><time>2026-05-01T08:26:06.835Z</time></trkpt><trkpt lat="43.2730905" lon="13.2539994"><ele>278.0</ele><time>2026-05-01T08:26:07.835Z</time></trkpt><trkpt lat="43.2731672" lon="13.2539298"><ele>278.0</ele><time>2026-05-01T08:26:08.834Z</time></trkpt><trkpt lat="43.2732416" lon="13.2538554"><ele>278.0</ele><time>2026-05-01T08:26:09.834Z</time></trkpt><trkpt lat="43.2733124" lon="13.2537763"><ele>278.0</ele><time>2026-05-01T08:26:10.834Z</time></trkpt><trkpt lat="43.2733851" lon="13.2537036"><ele>281.0</ele><time>2026-05-01T08:26:11.834Z</time></trkpt><trkpt lat="43.2734625" lon="13.2536336"><ele>284.0</ele><time>2026-05-01T08:26:12.835Z</time></trkpt><trkpt lat="43.2735415" lon="13.2535638"><ele>287.0</ele><time>2026-05-01T08:26:13.835Z</time></trkpt><trkpt lat="43.2736197" lon="13.2534892"><ele>290.0</ele><time>2026-05-01T08:26:14.835Z</time></trkpt><trkpt lat="43.2737011" lon="13.2534146"><ele>293.0</ele><time>2026-05-01T08:26:15.835Z</time></trkpt><trkpt lat="43.2737823" lon="13.2533464"><ele>293.0</ele><time>2026-05-01T08:26:16.834Z</time></trkpt><trkpt lat="43.2738624" lon="13.253279"><ele>293.0</ele><time>2026-05-01T08:26:17.835Z</time></trkpt><trkpt lat="43.2739436" lon="13.253215"><ele>293.0</ele><time>2026-05-01T08:26:18.834Z</time></trkpt><trkpt lat="43.2740251" lon="13.2531516"><ele>293.0</ele><time>2026-05-01T08:26:19.835Z</time></trkpt><trkpt lat="43.2741066" lon="13.2530786"><ele>293.0</ele><time>2026-05-01T08:26:20.834Z</time></trkpt><trkpt lat="43.2741852" lon="13.2530118"><ele>295.6</ele><time>2026-05-01T08:26:21.835Z</time></trkpt><trkpt lat="43.2742622" lon="13.2529512"><ele>298.20000000000005</ele><time>2026-05-01T08:26:22.836Z</time></trkpt><trkpt lat="43.2743413" lon="13.2528899"><ele>300.8</ele><time>2026-05-01T08:26:23.835Z</time></trkpt><trkpt lat="43.2744214" lon="13.2528233"><ele>303.40000000000003</ele><time>2026-05-01T08:26:24.834Z</time></trkpt><trkpt lat="43.2744949" lon="13.2527463"><ele>306.0</ele><time>2026-05-01T08:26:25.834Z</time></trkpt><trkpt lat="43.2745641" lon="13.2526597"><ele>306.0</ele><time>2026-05-01T08:26:26.836Z</time></trkpt><trkpt lat="43.2746276" lon="13.2525641"><ele>306.0</ele><time>2026-05-01T08:26:27.835Z</time></trkpt><trkpt lat="43.2746956" lon="13.2524767"><ele>306.0</ele><time>2026-05-01T08:26:28.836Z</time></trkpt><trkpt lat="43.2747581" lon="13.2523848"><ele>306.0</ele><time>2026-05-01T08:26:29.836Z</time></trkpt><trkpt lat="43.2748176" lon="13.2522928"><ele>306.0</ele><time>2026-05-01T08:26:30.835Z</time></trkpt><trkpt lat="43.2748771" lon="13.2522015"><ele>310.0</ele><time>2026-05-01T08:26:31.835Z</time></trkpt><trkpt lat="43.2749373" lon="13.2521127"><ele>314.0</ele><time>2026-05-01T08:26:32.835Z</time></trkpt><trkpt lat="43.2749933" lon="13.2520221"><ele>318.0</ele><time>2026-05-01T08:26:33.835Z</time></trkpt><trkpt lat="43.2750521" lon="13.2519298"><ele>322.0</ele><time>2026-05-01T08:26:34.834Z</time></trkpt><trkpt lat="43.2751126" lon="13.2518344"><ele>326.0</ele><time>2026-05-01T08:26:35.835Z</time></trkpt><trkpt lat="43.2751758" lon="13.2517358"><ele>326.0</ele><time>2026-05-01T08:26:36.835Z</time></trkpt><trkpt lat="43.2752412" lon="13.2516382"><ele>326.0</ele><time>2026-05-01T08:26:37.835Z</time></trkpt><trkpt lat="43.2753067" lon="13.2515417"><ele>326.0</ele><time>2026-05-01T08:26:38.835Z</time></trkpt><trkpt lat="43.2753715" lon="13.2514465"><ele>326.0</ele><time>2026-05-01T08:26:39.835Z</time></trkpt><trkpt lat="43.2754396" lon="13.2513528"><ele>326.0</ele><time>2026-05-01T08:26:40.835Z</time></trkpt><trkpt lat="43.2755059" lon="13.2512671"><ele>327.1666666666667</ele><time>2026-05-01T08:26:41.835Z</time></trkpt><trkpt lat="43.2755786" lon="13.2511974"><ele>328.33333333333337</ele><time>2026-05-01T08:26:42.835Z</time></trkpt><trkpt lat="43.2756563" lon="13.2511392"><ele>329.5</ele><time>2026-05-01T08:26:43.835Z</time></trkpt><trkpt lat="43.2757407" lon="13.2510964"><ele>330.6666666666667</ele><time>2026-05-01T08:26:44.836Z</time></trkpt><trkpt lat="43.2758088" lon="13.2510627"><ele>331.8333333333333</ele><time>2026-05-01T08:26:45.834Z</time></trkpt><trkpt lat="43.2758712" lon="13.2510257"><ele>333.0</ele><time>2026-05-01T08:26:46.836Z</time></trkpt><trkpt lat="43.2759254" lon="13.2509763"><ele>335.5714285714286</ele><time>2026-05-01T08:26:47.835Z</time></trkpt><trkpt lat="43.2759709" lon="13.2509129"><ele>338.1428571428571</ele><time>2026-05-01T08:26:48.835Z</time></trkpt><trkpt lat="43.2760128" lon="13.2507563"><ele>340.7142857142857</ele><time>2026-05-01T08:26:50.834Z</time></trkpt><trkpt lat="43.2760171" lon="13.2506661"><ele>343.28571428571433</ele><time>2026-05-01T08:26:51.835Z</time></trkpt><trkpt lat="43.2760001" lon="13.2505807"><ele>345.8571428571429</ele><time>2026-05-01T08:26:52.835Z</time></trkpt><trkpt lat="43.2759782" lon="13.2504996"><ele>348.42857142857144</ele><time>2026-05-01T08:26:53.834Z</time></trkpt><trkpt lat="43.2759494" lon="13.2504206"><ele>351.0</ele><time>2026-05-01T08:26:54.835Z</time></trkpt><trkpt lat="43.2759155" lon="13.2503162"><ele>353.4</ele><time>2026-05-01T08:26:56.835Z</time></trkpt><trkpt lat="43.2759589" lon="13.250236"><ele>355.8</ele><time>2026-05-01T08:26:58.834Z</time></trkpt><trkpt lat="43.2760463" lon="13.2502381"><ele>358.2</ele><time>2026-05-01T08:27:00.835Z</time></trkpt><trkpt lat="43.2761508" lon="13.250238"><ele>360.59999999999997</ele><time>2026-05-01T08:27:02.835Z</time></trkpt><trkpt lat="43.2762488" lon="13.2501977"><ele>363.0</ele><time>2026-05-01T08:27:04.834Z</time></trkpt><trkpt lat="43.2763486" lon="13.2501365"><ele>362.99999999999994</ele><time>2026-05-01T08:27:06.836Z</time></trkpt><trkpt lat="43.276408" lon="13.2500953"><ele>363.0</ele><time>2026-05-01T08:27:07.835Z</time></trkpt><trkpt lat="43.2764725" lon="13.2500588"><ele>363.0</ele><time>2026-05-01T08:27:08.835Z</time></trkpt><trkpt lat="43.2765334" lon="13.2500162"><ele>363.0</ele><time>2026-05-01T08:27:09.835Z</time></trkpt><trkpt lat="43.2765879" lon="13.2499678"><ele>363.0</ele><time>2026-05-01T08:27:10.835Z</time></trkpt><trkpt lat="43.276638" lon="13.2499087"><ele>362.99999999999994</ele><time>2026-05-01T08:27:11.835Z</time></trkpt><trkpt lat="43.2766781" lon="13.2498402"><ele>363.0</ele><time>2026-05-01T08:27:12.835Z</time></trkpt><trkpt lat="43.2767095" lon="13.2497634"><ele>366.57142857142856</ele><time>2026-05-01T08:27:13.835Z</time></trkpt><trkpt lat="43.2767336" lon="13.2496806"><ele>370.1428571428571</ele><time>2026-05-01T08:27:14.834Z</time></trkpt><trkpt lat="43.2767544" lon="13.2495955"><ele>373.71428571428567</ele><time>2026-05-01T08:27:15.834Z</time></trkpt><trkpt lat="43.2767762" lon="13.2495092"><ele>377.2857142857143</ele><time>2026-05-01T08:27:16.834Z</time></trkpt><trkpt lat="43.2767982" lon="13.2494205"><ele>380.8571428571429</ele><time>2026-05-01T08:27:17.834Z</time></trkpt><trkpt lat="43.2768246" lon="13.249331"><ele>384.4285714285714</ele><time>2026-05-01T08:27:18.834Z</time></trkpt><trkpt lat="43.2768519" lon="13.2492374"><ele>388.0</ele><time>2026-05-01T08:27:19.835Z</time></trkpt><trkpt lat="43.2768792" lon="13.2491406"><ele>388.0</ele><time>2026-05-01T08:27:20.834Z</time></trkpt><trkpt lat="43.2769053" lon="13.2490448"><ele>388.0</ele><time>2026-05-01T08:27:21.835Z</time></trkpt><trkpt lat="43.2769258" lon="13.2489502"><ele>388.0</ele><time>2026-05-01T08:27:22.835Z</time></trkpt><trkpt lat="43.2769336" lon="13.2488513"><ele>388.0</ele><time>2026-05-01T08:27:23.835Z</time></trkpt><trkpt lat="43.2769252" lon="13.2487573"><ele>388.0</ele><time>2026-05-01T08:27:24.835Z</time></trkpt><trkpt lat="43.2769088" lon="13.24866"><ele>388.0</ele><time>2026-05-01T08:27:25.835Z</time></trkpt><trkpt lat="43.2768819" lon="13.2485516"><ele>388.0</ele><time>2026-05-01T08:27:26.835Z</time></trkpt><trkpt lat="43.276848" lon="13.2484228"><ele>390.2</ele><time>2026-05-01T08:27:27.835Z</time></trkpt><trkpt lat="43.2768122" lon="13.2482758"><ele>392.4</ele><time>2026-05-01T08:27:28.834Z</time></trkpt><trkpt lat="43.2767759" lon="13.2481382"><ele>394.59999999999997</ele><time>2026-05-01T08:27:29.835Z</time></trkpt><trkpt lat="43.2767434" lon="13.2480159"><ele>396.79999999999995</ele><time>2026-05-01T08:27:30.834Z</time></trkpt><trkpt lat="43.2767176" lon="13.2478936"><ele>399.0</ele><time>2026-05-01T08:27:31.834Z</time></trkpt><trkpt lat="43.276697" lon="13.2477805"><ele>400.6666666666667</ele><time>2026-05-01T08:27:32.835Z</time></trkpt><trkpt lat="43.276691" lon="13.2476696"><ele>402.33333333333337</ele><time>2026-05-01T08:27:33.835Z</time></trkpt><trkpt lat="43.2766886" lon="13.247559"><ele>404.0</ele><time>2026-05-01T08:27:34.835Z</time></trkpt><trkpt lat="43.2766958" lon="13.2474424"><ele>405.6666666666667</ele><time>2026-05-01T08:27:35.836Z</time></trkpt><trkpt lat="43.2767122" lon="13.2473302"><ele>407.33333333333337</ele><time>2026-05-01T08:27:36.834Z</time></trkpt><trkpt lat="43.2767366" lon="13.2472219"><ele>409.0</ele><time>2026-05-01T08:27:37.834Z</time></trkpt><trkpt lat="43.2767628" lon="13.2471191"><ele>410.57142857142856</ele><time>2026-05-01T08:27:38.834Z</time></trkpt><trkpt lat="43.2767925" lon="13.2470252"><ele>412.14285714285717</ele><time>2026-05-01T08:27:39.836Z</time></trkpt><trkpt lat="43.2768256" lon="13.2469351"><ele>413.7142857142857</ele><time>2026-05-01T08:27:40.835Z</time></trkpt><trkpt lat="43.2768666" lon="13.2468503"><ele>415.2857142857143</ele><time>2026-05-01T08:27:41.835Z</time></trkpt><trkpt lat="43.2769131" lon="13.2467654"><ele>416.8571428571429</ele><time>2026-05-01T08:27:42.835Z</time></trkpt><trkpt lat="43.276962" lon="13.2466827"><ele>418.42857142857144</ele><time>2026-05-01T08:27:43.835Z</time></trkpt><trkpt lat="43.2770096" lon="13.2466081"><ele>420.0</ele><time>2026-05-01T08:27:44.835Z</time></trkpt><trkpt lat="43.2770532" lon="13.2465427"><ele>422.6</ele><time>2026-05-01T08:27:45.835Z</time></trkpt><trkpt lat="43.2771193" lon="13.2464248"><ele>425.2</ele><time>2026-05-01T08:27:47.835Z</time></trkpt><trkpt lat="43.2771319" lon="13.2463084"><ele>427.79999999999995</ele><time>2026-05-01T08:27:49.834Z</time></trkpt><trkpt lat="43.2770759" lon="13.2462046"><ele>430.4</ele><time>2026-05-01T08:27:51.835Z</time></trkpt><trkpt lat="43.2769915" lon="13.2461121"><ele>433.0</ele><time>2026-05-01T08:27:53.835Z</time></trkpt><trkpt lat="43.2769177" lon="13.2459842"><ele>433.0</ele><time>2026-05-01T08:27:55.834Z</time></trkpt><trkpt lat="43.2768971" lon="13.2458991"><ele>432.99999999999994</ele><time>2026-05-01T08:27:56.834Z</time></trkpt><trkpt lat="43.2768701" lon="13.245743"><ele>432.99999999999994</ele><time>2026-05-01T08:27:58.835Z</time></trkpt><trkpt lat="43.2768835" lon="13.2455967"><ele>433.0</ele><time>2026-05-01T08:28:00.834Z</time></trkpt><trkpt lat="43.2769298" lon="13.2455141"><ele>433.0</ele><time>2026-05-01T08:28:02.834Z</time></trkpt><trkpt lat="43.277017" lon="13.2455344"><ele>434.6666666666667</ele><time>2026-05-01T08:28:04.834Z</time></trkpt><trkpt lat="43.2770985" lon="13.2455997"><ele>436.33333333333337</ele><time>2026-05-01T08:28:06.835Z</time></trkpt><trkpt lat="43.2771702" lon="13.2455871"><ele>438.0</ele><time>2026-05-01T08:28:08.835Z</time></trkpt><trkpt lat="43.2772316" lon="13.2455292"><ele>439.66666666666663</ele><time>2026-05-01T08:28:10.835Z</time></trkpt><trkpt lat="43.2773085" lon="13.2454849"><ele>441.3333333333333</ele><time>2026-05-01T08:28:12.834Z</time></trkpt><trkpt lat="43.2773773" lon="13.2455419"><ele>443.0</ele><time>2026-05-01T08:28:14.835Z</time></trkpt><trkpt lat="43.2774281" lon="13.2456545"><ele>444.2</ele><time>2026-05-01T08:28:16.834Z</time></trkpt><trkpt lat="43.2774789" lon="13.2457653"><ele>445.4</ele><time>2026-05-01T08:28:18.834Z</time></trkpt><trkpt lat="43.2775535" lon="13.2458438"><ele>446.59999999999997</ele><time>2026-05-01T08:28:20.835Z</time></trkpt><trkpt lat="43.2776481" lon="13.2458663"><ele>447.79999999999995</ele><time>2026-05-01T08:28:22.834Z</time></trkpt><trkpt lat="43.2777362" lon="13.2458187"><ele>449.0</ele><time>2026-05-01T08:28:24.834Z</time></trkpt><trkpt lat="43.2777896" lon="13.2457255"><ele>451.4</ele><time>2026-05-01T08:28:26.834Z</time></trkpt><trkpt lat="43.2778161" lon="13.2456112"><ele>453.79999999999995</ele><time>2026-05-01T08:28:28.835Z</time></trkpt><trkpt lat="43.2778295" lon="13.2454959"><ele>456.20000000000005</ele><time>2026-05-01T08:28:30.834Z</time></trkpt><trkpt lat="43.2778466" lon="13.2453639"><ele>458.6</ele><time>2026-05-01T08:28:32.834Z</time></trkpt><trkpt lat="43.2778924" lon="13.2452141"><ele>461.0</ele><time>2026-05-01T08:28:34.835Z</time></trkpt><trkpt lat="43.2779313" lon="13.2451328"><ele>460.99999999999994</ele><time>2026-05-01T08:28:35.835Z</time></trkpt><trkpt lat="43.2779758" lon="13.2450571"><ele>461.0</ele><time>2026-05-01T08:28:36.835Z</time></trkpt><trkpt lat="43.2780234" lon="13.2449891"><ele>461.0</ele><time>2026-05-01T08:28:37.834Z</time></trkpt><trkpt lat="43.2780668" lon="13.2449232"><ele>461.0</ele><time>2026-05-01T08:28:38.835Z</time></trkpt><trkpt lat="43.2781291" lon="13.2447786"><ele>460.99999999999994</ele><time>2026-05-01T08:28:40.834Z</time></trkpt><trkpt lat="43.2781472" lon="13.2446935"><ele>461.0</ele><time>2026-05-01T08:28:41.834Z</time></trkpt><trkpt lat="43.278161" lon="13.2446051"><ele>464.7142857142857</ele><time>2026-05-01T08:28:42.835Z</time></trkpt><trkpt lat="43.2781764" lon="13.2445152"><ele>468.42857142857144</ele><time>2026-05-01T08:28:43.835Z</time></trkpt><trkpt lat="43.2781928" lon="13.2444178"><ele>472.14285714285717</ele><time>2026-05-01T08:28:44.835Z</time></trkpt><trkpt lat="43.2782112" lon="13.2443187"><ele>475.8571428571429</ele><time>2026-05-01T08:28:45.836Z</time></trkpt><trkpt lat="43.2782357" lon="13.2442231"><ele>479.57142857142856</ele><time>2026-05-01T08:28:46.834Z</time></trkpt><trkpt lat="43.278256" lon="13.2441239"><ele>483.28571428571433</ele><time>2026-05-01T08:28:47.834Z</time></trkpt><trkpt lat="43.2782761" lon="13.244025"><ele>487.0</ele><time>2026-05-01T08:28:48.836Z</time></trkpt><trkpt lat="43.2782951" lon="13.2439284"><ele>489.1666666666667</ele><time>2026-05-01T08:28:49.835Z</time></trkpt><trkpt lat="43.2783029" lon="13.2438259"><ele>491.33333333333337</ele><time>2026-05-01T08:28:50.835Z</time></trkpt><trkpt lat="43.2783022" lon="13.2437165"><ele>493.5</ele><time>2026-05-01T08:28:51.834Z</time></trkpt><trkpt lat="43.2783008" lon="13.2435982"><ele>495.66666666666663</ele><time>2026-05-01T08:28:52.836Z</time></trkpt><trkpt lat="43.2782851" lon="13.243478"><ele>497.8333333333333</ele><time>2026-05-01T08:28:53.835Z</time></trkpt><trkpt lat="43.2782666" lon="13.2433599"><ele>500.0</ele><time>2026-05-01T08:28:54.834Z</time></trkpt><trkpt lat="43.2782469" lon="13.2432466"><ele>500.0</ele><time>2026-05-01T08:28:55.835Z</time></trkpt><trkpt lat="43.2782253" lon="13.2431321"><ele>500.0</ele><time>2026-05-01T08:28:56.834Z</time></trkpt><trkpt lat="43.2782159" lon="13.243026"><ele>500.0</ele><time>2026-05-01T08:28:57.834Z</time></trkpt><trkpt lat="43.2782194" lon="13.2429324"><ele>500.0</ele><time>2026-05-01T08:28:58.835Z</time></trkpt><trkpt lat="43.2782368" lon="13.2428443"><ele>500.0</ele><time>2026-05-01T08:28:59.835Z</time></trkpt><trkpt lat="43.2782702" lon="13.2427533"><ele>500.0</ele><time>2026-05-01T08:29:00.836Z</time></trkpt><trkpt lat="43.2783017" lon="13.2426596"><ele>500.0</ele><time>2026-05-01T08:29:01.835Z</time></trkpt><trkpt lat="43.2783165" lon="13.242552"><ele>501.66666666666663</ele><time>2026-05-01T08:29:02.835Z</time></trkpt><trkpt lat="43.2783136" lon="13.2424432"><ele>503.3333333333333</ele><time>2026-05-01T08:29:03.835Z</time></trkpt><trkpt lat="43.2782998" lon="13.2423374"><ele>505.0</ele><time>2026-05-01T08:29:04.834Z</time></trkpt><trkpt lat="43.2782764" lon="13.2422424"><ele>506.66666666666663</ele><time>2026-05-01T08:29:05.834Z</time></trkpt><trkpt lat="43.278252" lon="13.2421489"><ele>508.3333333333333</ele><time>2026-05-01T08:29:06.834Z</time></trkpt><trkpt lat="43.2782284" lon="13.2420474"><ele>510.0</ele><time>2026-05-01T08:29:07.835Z</time></trkpt><trkpt lat="43.2782114" lon="13.2419387"><ele>511.4</ele><time>2026-05-01T08:29:08.835Z</time></trkpt><trkpt lat="43.2782076" lon="13.241826"><ele>512.8</ele><time>2026-05-01T08:29:09.835Z</time></trkpt><trkpt lat="43.2782093" lon="13.2417017"><ele>514.2</ele><time>2026-05-01T08:29:10.835Z</time></trkpt><trkpt lat="43.2782158" lon="13.2415685"><ele>515.6</ele><time>2026-05-01T08:29:11.835Z</time></trkpt><trkpt lat="43.2782236" lon="13.241428"><ele>517.0</ele><time>2026-05-01T08:29:12.834Z</time></trkpt><trkpt lat="43.2782344" lon="13.2412917"><ele>518.8000000000001</ele><time>2026-05-01T08:29:13.835Z</time></trkpt><trkpt lat="43.278251" lon="13.2411624"><ele>520.6</ele><time>2026-05-01T08:29:14.835Z</time></trkpt><trkpt lat="43.2782714" lon="13.2410421"><ele>522.4000000000001</ele><time>2026-05-01T08:29:15.835Z</time></trkpt><trkpt lat="43.27829" lon="13.240943"><ele>524.2</ele><time>2026-05-01T08:29:16.834Z</time></trkpt><trkpt lat="43.2783147" lon="13.2407816"><ele>526.0</ele><time>2026-05-01T08:29:18.835Z</time></trkpt><trkpt lat="43.2783428" lon="13.2406671"><ele>528.2</ele><time>2026-05-01T08:29:20.834Z</time></trkpt><trkpt lat="43.2783767" lon="13.2405421"><ele>530.4000000000001</ele><time>2026-05-01T08:29:23.836Z</time></trkpt><trkpt lat="43.2784081" lon="13.2404231"><ele>532.6</ele><time>2026-05-01T08:29:25.834Z</time></trkpt><trkpt lat="43.2784503" lon="13.240267"><ele>534.8000000000001</ele><time>2026-05-01T08:29:27.835Z</time></trkpt><trkpt lat="43.2784713" lon="13.2401733"><ele>537.0</ele><time>2026-05-01T08:29:28.835Z</time></trkpt><trkpt lat="43.278494" lon="13.2400775"><ele>536.9999999999999</ele><time>2026-05-01T08:29:29.835Z</time></trkpt><trkpt lat="43.278518" lon="13.2399812"><ele>537.0</ele><time>2026-05-01T08:29:30.835Z</time></trkpt><trkpt lat="43.2785396" lon="13.2398922"><ele>537.0</ele><time>2026-05-01T08:29:31.835Z</time></trkpt><trkpt lat="43.2785559" lon="13.2398043"><ele>537.0</ele><time>2026-05-01T08:29:32.835Z</time></trkpt><trkpt lat="43.2785601" lon="13.2397153"><ele>537.0</ele><time>2026-05-01T08:29:33.835Z</time></trkpt><trkpt lat="43.2785384" lon="13.2395965"><ele>536.9999999999999</ele><time>2026-05-01T08:29:34.836Z</time></trkpt><trkpt lat="43.2785193" lon="13.2394854"><ele>537.0</ele><time>2026-05-01T08:29:35.834Z</time></trkpt><trkpt lat="43.2784943" lon="13.2393706"><ele>538.8000000000001</ele><time>2026-05-01T08:29:36.835Z</time></trkpt><trkpt lat="43.278468" lon="13.2392499"><ele>540.6</ele><time>2026-05-01T08:29:37.834Z</time></trkpt><trkpt lat="43.2784464" lon="13.2391294"><ele>542.4000000000001</ele><time>2026-05-01T08:29:38.836Z</time></trkpt><trkpt lat="43.2784252" lon="13.2390091"><ele>544.2</ele><time>2026-05-01T08:29:39.834Z</time></trkpt><trkpt lat="43.278412" lon="13.2388834"><ele>546.0</ele><time>2026-05-01T08:29:40.834Z</time></trkpt><trkpt lat="43.2784037" lon="13.2387559"><ele>547.4</ele><time>2026-05-01T08:29:41.836Z</time></trkpt><trkpt lat="43.2784034" lon="13.238628"><ele>548.8</ele><time>2026-05-01T08:29:42.834Z</time></trkpt><trkpt lat="43.2784063" lon="13.2385003"><ele>550.1999999999999</ele><time>2026-05-01T08:29:43.835Z</time></trkpt><trkpt lat="43.2784182" lon="13.2383748"><ele>551.6</ele><time>2026-05-01T08:29:44.835Z</time></trkpt><trkpt lat="43.2784419" lon="13.2382519"><ele>553.0</ele><time>2026-05-01T08:29:45.835Z</time></trkpt><trkpt lat="43.2784776" lon="13.2381319"><ele>554.4</ele><time>2026-05-01T08:29:46.835Z</time></trkpt><trkpt lat="43.2785059" lon="13.2380021"><ele>555.8</ele><time>2026-05-01T08:29:47.835Z</time></trkpt><trkpt lat="43.2785354" lon="13.2378759"><ele>557.2</ele><time>2026-05-01T08:29:48.835Z</time></trkpt><trkpt lat="43.2785604" lon="13.2377509"><ele>558.6</ele><time>2026-05-01T08:29:49.835Z</time></trkpt><trkpt lat="43.2785818" lon="13.2376366"><ele>560.0</ele><time>2026-05-01T08:29:50.835Z</time></trkpt><trkpt lat="43.2785992" lon="13.237522"><ele>560.0</ele><time>2026-05-01T08:29:51.835Z</time></trkpt><trkpt lat="43.2786164" lon="13.2374188"><ele>560.0</ele><time>2026-05-01T08:29:52.835Z</time></trkpt><trkpt lat="43.2786317" lon="13.237334"><ele>560.0</ele><time>2026-05-01T08:29:53.835Z</time></trkpt><trkpt lat="43.278674" lon="13.2372181"><ele>560.0</ele><time>2026-05-01T08:29:55.835Z</time></trkpt><trkpt lat="43.2787363" lon="13.2371528"><ele>560.0</ele><time>2026-05-01T08:29:58.835Z</time></trkpt><trkpt lat="43.2788039" lon="13.2371523"><ele>560.0</ele><time>2026-05-01T08:30:00.835Z</time></trkpt><trkpt lat="43.2788749" lon="13.2372096"><ele>560.2857142857143</ele><time>2026-05-01T08:30:03.834Z</time></trkpt><trkpt lat="43.2789236" lon="13.2371539"><ele>560.5714285714286</ele><time>2026-05-01T08:30:07.835Z</time></trkpt><trkpt lat="43.2789501" lon="13.2370647"><ele>560.8571428571429</ele><time>2026-05-01T08:54:36.831Z</time></trkpt><trkpt lat="43.2788842" lon="13.2370834"><ele>561.1428571428571</ele><time>2026-05-01T08:54:39.83Z</time></trkpt><trkpt lat="43.2789181" lon="13.2371661"><ele>561.4285714285714</ele><time>2026-05-01T08:54:42.83Z</time></trkpt><trkpt lat="43.2788486" lon="13.2371626"><ele>561.7142857142858</ele><time>2026-05-01T08:54:47.83Z</time></trkpt><trkpt lat="43.2787817" lon="13.2371146"><ele>562.0</ele><time>2026-05-01T08:55:02.831Z</time></trkpt><trkpt lat="43.2786965" lon="13.2370833"><ele>562.0000000000001</ele><time>2026-05-01T08:55:05.832Z</time></trkpt><trkpt lat="43.2786522" lon="13.2370215"><ele>562.0</ele><time>2026-05-01T08:55:07.831Z</time></trkpt><trkpt lat="43.2786149" lon="13.2369472"><ele>562.0</ele><time>2026-05-01T08:55:09.831Z</time></trkpt><trkpt lat="43.2785637" lon="13.2368923"><ele>562.0</ele><time>2026-05-01T08:55:11.831Z</time></trkpt><trkpt lat="43.2785024" lon="13.2368603"><ele>562.0</ele><time>2026-05-01T08:55:13.831Z</time></trkpt><trkpt lat="43.2784297" lon="13.2368232"><ele>562.0000000000001</ele><time>2026-05-01T08:55:15.831Z</time></trkpt><trkpt lat="43.2783612" lon="13.2367798"><ele>562.0</ele><time>2026-05-01T08:55:17.83Z</time></trkpt><trkpt lat="43.2782933" lon="13.2367383"><ele>562.0</ele><time>2026-05-01T08:55:19.83Z</time></trkpt><trkpt lat="43.278226" lon="13.2366913"><ele>562.0</ele><time>2026-05-01T08:55:21.83Z</time></trkpt><trkpt lat="43.2781682" lon="13.2366326"><ele>562.0</ele><time>2026-05-01T08:55:23.831Z</time></trkpt><trkpt lat="43.2781288" lon="13.2365533"><ele>562.0</ele><time>2026-05-01T08:55:25.831Z</time></trkpt><trkpt lat="43.2781099" lon="13.2364552"><ele>562.0</ele><time>2026-05-01T08:55:27.831Z</time></trkpt><trkpt lat="43.2781118" lon="13.2363402"><ele>562.0</ele><time>2026-05-01T08:55:29.831Z</time></trkpt><trkpt lat="43.278124" lon="13.236224"><ele>559.5</ele><time>2026-05-01T08:55:31.83Z</time></trkpt><trkpt lat="43.278143" lon="13.2361203"><ele>557.0</ele><time>2026-05-01T08:55:33.831Z</time></trkpt><trkpt lat="43.2781667" lon="13.2360281"><ele>554.5</ele><time>2026-05-01T08:55:35.831Z</time></trkpt><trkpt lat="43.2781956" lon="13.235937"><ele>552.0</ele><time>2026-05-01T08:55:37.831Z</time></trkpt><trkpt lat="43.2782305" lon="13.2358577"><ele>549.5</ele><time>2026-05-01T08:55:39.831Z</time></trkpt><trkpt lat="43.2782908" lon="13.2357591"><ele>547.0</ele><time>2026-05-01T08:55:42.831Z</time></trkpt><trkpt lat="43.2783568" lon="13.2356671"><ele>542.5</ele><time>2026-05-01T08:55:45.831Z</time></trkpt><trkpt lat="43.2784238" lon="13.2355765"><ele>538.0</ele><time>2026-05-01T08:55:48.831Z</time></trkpt><trkpt lat="43.2784759" lon="13.2355094"><ele>533.5</ele><time>2026-05-01T08:55:51.83Z</time></trkpt><trkpt lat="43.278532" lon="13.2354255"><ele>529.0</ele><time>2026-05-01T08:55:58.83Z</time></trkpt><trkpt lat="43.2785831" lon="13.2353535"><ele>524.5</ele><time>2026-05-01T08:56:00.831Z</time></trkpt><trkpt lat="43.2786329" lon="13.2352769"><ele>520.0</ele><time>2026-05-01T08:56:02.831Z</time></trkpt><trkpt lat="43.2786876" lon="13.235198"><ele>520.0</ele><time>2026-05-01T08:56:04.831Z</time></trkpt><trkpt lat="43.2787423" lon="13.2351218"><ele>520.0</ele><time>2026-05-01T08:56:06.831Z</time></trkpt><trkpt lat="43.2787974" lon="13.2350467"><ele>520.0</ele><time>2026-05-01T08:56:08.831Z</time></trkpt><trkpt lat="43.2788548" lon="13.2349707"><ele>520.0</ele><time>2026-05-01T08:56:10.83Z</time></trkpt><trkpt lat="43.2789134" lon="13.2348983"><ele>520.0</ele><time>2026-05-01T08:56:12.83Z</time></trkpt><trkpt lat="43.2789742" lon="13.2348301"><ele>520.0</ele><time>2026-05-01T08:56:14.832Z</time></trkpt><trkpt lat="43.2790501" lon="13.2347611"><ele>519.0</ele><time>2026-05-01T08:56:16.83Z</time></trkpt><trkpt lat="43.279128" lon="13.2346918"><ele>518.0</ele><time>2026-05-01T08:56:18.83Z</time></trkpt><trkpt lat="43.2792158" lon="13.2346339"><ele>517.0</ele><time>2026-05-01T08:56:20.83Z</time></trkpt><trkpt lat="43.2792977" lon="13.2345668"><ele>516.0</ele><time>2026-05-01T08:56:22.83Z</time></trkpt><trkpt lat="43.279363" lon="13.2344649"><ele>515.0</ele><time>2026-05-01T08:56:24.832Z</time></trkpt><trkpt lat="43.2794158" lon="13.2343608"><ele>515.0</ele><time>2026-05-01T08:56:26.83Z</time></trkpt><trkpt lat="43.2794728" lon="13.234259"><ele>515.0</ele><time>2026-05-01T08:56:28.832Z</time></trkpt><trkpt lat="43.279531" lon="13.2341824"><ele>515.0</ele><time>2026-05-01T08:56:30.831Z</time></trkpt><trkpt lat="43.2795917" lon="13.2341018"><ele>515.0</ele><time>2026-05-01T08:56:32.831Z</time></trkpt><trkpt lat="43.2796336" lon="13.2340098"><ele>515.0</ele><time>2026-05-01T08:56:34.83Z</time></trkpt><trkpt lat="43.279626" lon="13.2339188"><ele>515.0</ele><time>2026-05-01T08:56:36.831Z</time></trkpt><trkpt lat="43.2795799" lon="13.2338518"><ele>511.99999999999994</ele><time>2026-05-01T08:56:38.83Z</time></trkpt><trkpt lat="43.2795207" lon="13.2337901"><ele>509.0</ele><time>2026-05-01T08:56:40.832Z</time></trkpt><trkpt lat="43.27946" lon="13.233718"><ele>506.0</ele><time>2026-05-01T08:56:42.83Z</time></trkpt><trkpt lat="43.2793954" lon="13.2336394"><ele>503.0</ele><time>2026-05-01T08:56:44.83Z</time></trkpt><trkpt lat="43.279337" lon="13.2335628"><ele>499.99999999999994</ele><time>2026-05-01T08:56:46.83Z</time></trkpt><trkpt lat="43.2792753" lon="13.2334856"><ele>497.0</ele><time>2026-05-01T08:56:48.83Z</time></trkpt><trkpt lat="43.2792099" lon="13.2334043"><ele>497.0</ele><time>2026-05-01T08:56:50.831Z</time></trkpt><trkpt lat="43.2791431" lon="13.2333259"><ele>497.00000000000006</ele><time>2026-05-01T08:56:52.83Z</time></trkpt><trkpt lat="43.2790661" lon="13.2332399"><ele>497.00000000000006</ele><time>2026-05-01T08:56:54.83Z</time></trkpt><trkpt lat="43.2789833" lon="13.2331581"><ele>497.0</ele><time>2026-05-01T08:56:56.83Z</time></trkpt><trkpt lat="43.2788954" lon="13.233088"><ele>497.0</ele><time>2026-05-01T08:56:58.83Z</time></trkpt><trkpt lat="43.2788048" lon="13.2330195"><ele>492.6</ele><time>2026-05-01T08:57:00.83Z</time></trkpt><trkpt lat="43.2787063" lon="13.2329597"><ele>488.20000000000005</ele><time>2026-05-01T08:57:02.83Z</time></trkpt><trkpt lat="43.2786094" lon="13.2329063"><ele>483.8</ele><time>2026-05-01T08:57:04.829Z</time></trkpt><trkpt lat="43.2785133" lon="13.2328498"><ele>479.4</ele><time>2026-05-01T08:57:06.83Z</time></trkpt><trkpt lat="43.2784266" lon="13.2327846"><ele>475.0</ele><time>2026-05-01T08:57:08.83Z</time></trkpt><trkpt lat="43.2783541" lon="13.2327058"><ele>475.00000000000006</ele><time>2026-05-01T08:57:10.829Z</time></trkpt><trkpt lat="43.2782809" lon="13.2326235"><ele>475.0</ele><time>2026-05-01T08:57:12.829Z</time></trkpt><trkpt lat="43.2782133" lon="13.2325381"><ele>475.0</ele><time>2026-05-01T08:57:14.829Z</time></trkpt><trkpt lat="43.2781491" lon="13.2324476"><ele>475.0</ele><time>2026-05-01T08:57:16.83Z</time></trkpt><trkpt lat="43.2780911" lon="13.2323646"><ele>475.00000000000006</ele><time>2026-05-01T08:57:18.831Z</time></trkpt><trkpt lat="43.2780365" lon="13.2322786"><ele>475.0</ele><time>2026-05-01T08:57:20.831Z</time></trkpt><trkpt lat="43.2779828" lon="13.2321995"><ele>472.28571428571433</ele><time>2026-05-01T08:57:22.83Z</time></trkpt><trkpt lat="43.2779276" lon="13.2321241"><ele>469.5714285714286</ele><time>2026-05-01T08:57:24.829Z</time></trkpt><trkpt lat="43.2778787" lon="13.2320443"><ele>466.8571428571429</ele><time>2026-05-01T08:57:26.83Z</time></trkpt><trkpt lat="43.2778438" lon="13.2319601"><ele>464.1428571428571</ele><time>2026-05-01T08:57:28.829Z</time></trkpt><trkpt lat="43.2778136" lon="13.2318768"><ele>461.4285714285714</ele><time>2026-05-01T08:57:30.829Z</time></trkpt><trkpt lat="43.2777856" lon="13.2317915"><ele>458.71428571428567</ele><time>2026-05-01T08:57:32.829Z</time></trkpt><trkpt lat="43.2777466" lon="13.2317097"><ele>456.0</ele><time>2026-05-01T08:57:34.829Z</time></trkpt><trkpt lat="43.277701" lon="13.2316239"><ele>456.0</ele><time>2026-05-01T08:57:36.829Z</time></trkpt><trkpt lat="43.2776479" lon="13.2315497"><ele>456.0</ele><time>2026-05-01T08:57:38.831Z</time></trkpt><trkpt lat="43.2775943" lon="13.231485"><ele>456.0</ele><time>2026-05-01T08:57:40.83Z</time></trkpt><trkpt lat="43.2775349" lon="13.2314163"><ele>456.0</ele><time>2026-05-01T08:57:42.829Z</time></trkpt><trkpt lat="43.2774802" lon="13.2313368"><ele>456.0</ele><time>2026-05-01T08:57:44.83Z</time></trkpt><trkpt lat="43.2774343" lon="13.2312595"><ele>456.0</ele><time>2026-05-01T08:57:46.829Z</time></trkpt><trkpt lat="43.2773888" lon="13.2311812"><ele>454.8</ele><time>2026-05-01T08:57:48.83Z</time></trkpt><trkpt lat="43.2773319" lon="13.2311079"><ele>453.6</ele><time>2026-05-01T08:57:50.831Z</time></trkpt><trkpt lat="43.2772757" lon="13.2310249"><ele>452.4</ele><time>2026-05-01T08:57:52.829Z</time></trkpt><trkpt lat="43.2772161" lon="13.2309206"><ele>451.2</ele><time>2026-05-01T08:57:54.83Z</time></trkpt><trkpt lat="43.2771441" lon="13.2308049"><ele>450.0</ele><time>2026-05-01T08:57:56.829Z</time></trkpt><trkpt lat="43.2770594" lon="13.2306873"><ele>447.7142857142858</ele><time>2026-05-01T08:57:58.83Z</time></trkpt><trkpt lat="43.277005" lon="13.2306373"><ele>445.42857142857144</ele><time>2026-05-01T08:57:59.83Z</time></trkpt><trkpt lat="43.2769451" lon="13.2305941"><ele>443.14285714285717</ele><time>2026-05-01T08:58:00.83Z</time></trkpt><trkpt lat="43.2768827" lon="13.2305584"><ele>440.8571428571429</ele><time>2026-05-01T08:58:01.829Z</time></trkpt><trkpt lat="43.2768167" lon="13.230525"><ele>438.57142857142856</ele><time>2026-05-01T08:58:02.829Z</time></trkpt><trkpt lat="43.276751" lon="13.2304874"><ele>436.2857142857143</ele><time>2026-05-01T08:58:03.829Z</time></trkpt><trkpt lat="43.2766842" lon="13.2304556"><ele>434.0</ele><time>2026-05-01T08:58:04.829Z</time></trkpt><trkpt lat="43.2766211" lon="13.2304203"><ele>434.0</ele><time>2026-05-01T08:58:05.83Z</time></trkpt><trkpt lat="43.27656" lon="13.2303782"><ele>434.0</ele><time>2026-05-01T08:58:06.829Z</time></trkpt><trkpt lat="43.2765071" lon="13.2303249"><ele>434.0</ele><time>2026-05-01T08:58:07.829Z</time></trkpt><trkpt lat="43.2764519" lon="13.2302814"><ele>434.0</ele><time>2026-05-01T08:58:08.83Z</time></trkpt><trkpt lat="43.2763947" lon="13.2302348"><ele>434.0</ele><time>2026-05-01T08:58:09.83Z</time></trkpt><trkpt lat="43.2763375" lon="13.2301853"><ele>434.0</ele><time>2026-05-01T08:58:10.83Z</time></trkpt><trkpt lat="43.2762835" lon="13.2301347"><ele>434.0</ele><time>2026-05-01T08:58:11.83Z</time></trkpt><trkpt lat="43.2762325" lon="13.230075"><ele>432.85714285714283</ele><time>2026-05-01T08:58:12.83Z</time></trkpt><trkpt lat="43.276182" lon="13.230007"><ele>431.7142857142857</ele><time>2026-05-01T08:58:13.829Z</time></trkpt><trkpt lat="43.27613" lon="13.2299453"><ele>430.57142857142856</ele><time>2026-05-01T08:58:14.829Z</time></trkpt><trkpt lat="43.2760758" lon="13.2298815"><ele>429.42857142857144</ele><time>2026-05-01T08:58:15.831Z</time></trkpt><trkpt lat="43.2760201" lon="13.2298146"><ele>428.2857142857143</ele><time>2026-05-01T08:58:16.83Z</time></trkpt><trkpt lat="43.2759658" lon="13.2297496"><ele>427.1428571428571</ele><time>2026-05-01T08:58:17.829Z</time></trkpt><trkpt lat="43.2759141" lon="13.2296863"><ele>426.0</ele><time>2026-05-01T08:58:18.83Z</time></trkpt><trkpt lat="43.2758451" lon="13.2296311"><ele>424.8333333333333</ele><time>2026-05-01T08:58:19.829Z</time></trkpt><trkpt lat="43.2757705" lon="13.2295862"><ele>423.66666666666663</ele><time>2026-05-01T08:58:20.829Z</time></trkpt><trkpt lat="43.2756969" lon="13.2295508"><ele>422.5</ele><time>2026-05-01T08:58:21.83Z</time></trkpt><trkpt lat="43.2756261" lon="13.229508"><ele>421.3333333333333</ele><time>2026-05-01T08:58:22.83Z</time></trkpt><trkpt lat="43.275563" lon="13.2294543"><ele>420.16666666666663</ele><time>2026-05-01T08:58:23.829Z</time></trkpt><trkpt lat="43.2755127" lon="13.2293785"><ele>419.0</ele><time>2026-05-01T08:58:24.83Z</time></trkpt><trkpt lat="43.275478" lon="13.2292888"><ele>416.99999999999994</ele><time>2026-05-01T08:58:25.829Z</time></trkpt><trkpt lat="43.2754525" lon="13.2291937"><ele>415.0</ele><time>2026-05-01T08:58:26.831Z</time></trkpt><trkpt lat="43.2754222" lon="13.2290965"><ele>413.0</ele><time>2026-05-01T08:58:27.83Z</time></trkpt><trkpt lat="43.2753842" lon="13.2290075"><ele>411.0</ele><time>2026-05-01T08:58:28.829Z</time></trkpt><trkpt lat="43.2753348" lon="13.2289306"><ele>408.99999999999994</ele><time>2026-05-01T08:58:29.831Z</time></trkpt><trkpt lat="43.2752737" lon="13.2288703"><ele>407.0</ele><time>2026-05-01T08:58:30.83Z</time></trkpt><trkpt lat="43.2752026" lon="13.2288278"><ele>405.8333333333333</ele><time>2026-05-01T08:58:31.829Z</time></trkpt><trkpt lat="43.275128" lon="13.2287919"><ele>404.66666666666663</ele><time>2026-05-01T08:58:32.83Z</time></trkpt><trkpt lat="43.2750482" lon="13.2287583"><ele>403.5</ele><time>2026-05-01T08:58:33.83Z</time></trkpt><trkpt lat="43.274968" lon="13.2287286"><ele>402.33333333333337</ele><time>2026-05-01T08:58:34.829Z</time></trkpt><trkpt lat="43.2748865" lon="13.2286983"><ele>401.1666666666667</ele><time>2026-05-01T08:58:35.831Z</time></trkpt><trkpt lat="43.2748042" lon="13.2286809"><ele>400.0</ele><time>2026-05-01T08:58:36.83Z</time></trkpt><trkpt lat="43.2747208" lon="13.2286679"><ele>398.00000000000006</ele><time>2026-05-01T08:58:37.83Z</time></trkpt><trkpt lat="43.2746335" lon="13.228667"><ele>396.0</ele><time>2026-05-01T08:58:38.83Z</time></trkpt><trkpt lat="43.2745476" lon="13.2286817"><ele>394.0</ele><time>2026-05-01T08:58:39.83Z</time></trkpt><trkpt lat="43.2744708" lon="13.2287191"><ele>392.0</ele><time>2026-05-01T08:58:40.83Z</time></trkpt><trkpt lat="43.2744069" lon="13.2287734"><ele>390.00000000000006</ele><time>2026-05-01T08:58:41.83Z</time></trkpt><trkpt lat="43.2743468" lon="13.2288298"><ele>388.0</ele><time>2026-05-01T08:58:42.829Z</time></trkpt><trkpt lat="43.2742857" lon="13.2288825"><ele>388.00000000000006</ele><time>2026-05-01T08:58:43.829Z</time></trkpt><trkpt lat="43.274222" lon="13.2289186"><ele>388.0</ele><time>2026-05-01T08:58:44.83Z</time></trkpt><trkpt lat="43.2741554" lon="13.2289359"><ele>388.0</ele><time>2026-05-01T08:58:45.831Z</time></trkpt><trkpt lat="43.2740877" lon="13.2289373"><ele>388.0</ele><time>2026-05-01T08:58:46.83Z</time></trkpt><trkpt lat="43.2739857" lon="13.2288983"><ele>388.00000000000006</ele><time>2026-05-01T08:58:48.83Z</time></trkpt><trkpt lat="43.2739425" lon="13.2288051"><ele>388.0</ele><time>2026-05-01T08:58:50.829Z</time></trkpt><trkpt lat="43.2739655" lon="13.2286921"><ele>388.00000000000006</ele><time>2026-05-01T08:58:52.83Z</time></trkpt><trkpt lat="43.2740212" lon="13.2285819"><ele>388.0</ele><time>2026-05-01T08:58:54.83Z</time></trkpt><trkpt lat="43.2740956" lon="13.2284738"><ele>388.0</ele><time>2026-05-01T08:58:56.829Z</time></trkpt><trkpt lat="43.2741421" lon="13.2284145"><ele>388.0</ele><time>2026-05-01T08:58:57.829Z</time></trkpt><trkpt lat="43.2741993" lon="13.2283548"><ele>388.00000000000006</ele><time>2026-05-01T08:58:58.829Z</time></trkpt><trkpt lat="43.2742655" lon="13.2283104"><ele>388.0</ele><time>2026-05-01T08:58:59.83Z</time></trkpt><trkpt lat="43.2743357" lon="13.2282815"><ele>388.00000000000006</ele><time>2026-05-01T08:59:00.83Z</time></trkpt><trkpt lat="43.2744122" lon="13.2282638"><ele>388.0</ele><time>2026-05-01T08:59:01.83Z</time></trkpt><trkpt lat="43.2744926" lon="13.228246"><ele>388.0</ele><time>2026-05-01T08:59:02.83Z</time></trkpt><trkpt lat="43.2745696" lon="13.228216"><ele>388.0</ele><time>2026-05-01T08:59:03.83Z</time></trkpt><trkpt lat="43.2746489" lon="13.2281907"><ele>388.00000000000006</ele><time>2026-05-01T08:59:04.83Z</time></trkpt><trkpt lat="43.2747295" lon="13.2281658"><ele>388.0</ele><time>2026-05-01T08:59:05.83Z</time></trkpt><trkpt lat="43.2748046" lon="13.2281303"><ele>388.1666666666667</ele><time>2026-05-01T08:59:06.829Z</time></trkpt><trkpt lat="43.2748764" lon="13.2280821"><ele>388.33333333333337</ele><time>2026-05-01T08:59:07.829Z</time></trkpt><trkpt lat="43.2749502" lon="13.228016"><ele>388.5</ele><time>2026-05-01T08:59:08.83Z</time></trkpt><trkpt lat="43.2750187" lon="13.2279491"><ele>388.66666666666663</ele><time>2026-05-01T08:59:09.829Z</time></trkpt><trkpt lat="43.2750894" lon="13.2278832"><ele>388.8333333333333</ele><time>2026-05-01T08:59:10.829Z</time></trkpt><trkpt lat="43.2751606" lon="13.2278163"><ele>389.0</ele><time>2026-05-01T08:59:11.83Z</time></trkpt><trkpt lat="43.2752339" lon="13.227752"><ele>388.99999999999994</ele><time>2026-05-01T08:59:12.83Z</time></trkpt><trkpt lat="43.2753086" lon="13.2276969"><ele>389.0</ele><time>2026-05-01T08:59:13.829Z</time></trkpt><trkpt lat="43.2753874" lon="13.2276487"><ele>389.0</ele><time>2026-05-01T08:59:14.829Z</time></trkpt><trkpt lat="43.2754738" lon="13.2276089"><ele>389.0</ele><time>2026-05-01T08:59:15.829Z</time></trkpt><trkpt lat="43.2755608" lon="13.2275762"><ele>388.99999999999994</ele><time>2026-05-01T08:59:16.831Z</time></trkpt><trkpt lat="43.2756515" lon="13.2275383"><ele>389.0</ele><time>2026-05-01T08:59:17.83Z</time></trkpt><trkpt lat="43.2757395" lon="13.2274998"><ele>390.4</ele><time>2026-05-01T08:59:18.829Z</time></trkpt><trkpt lat="43.2758299" lon="13.2274682"><ele>391.79999999999995</ele><time>2026-05-01T08:59:19.829Z</time></trkpt><trkpt lat="43.27592" lon="13.2274465"><ele>393.20000000000005</ele><time>2026-05-01T08:59:20.83Z</time></trkpt><trkpt lat="43.276018" lon="13.2274321"><ele>394.6</ele><time>2026-05-01T08:59:21.831Z</time></trkpt><trkpt lat="43.2761201" lon="13.2274233"><ele>396.0</ele><time>2026-05-01T08:59:22.83Z</time></trkpt><trkpt lat="43.2762213" lon="13.2274168"><ele>396.0</ele><time>2026-05-01T08:59:23.829Z</time></trkpt><trkpt lat="43.2763186" lon="13.2274133"><ele>396.0</ele><time>2026-05-01T08:59:24.829Z</time></trkpt><trkpt lat="43.2764125" lon="13.2274173"><ele>396.0</ele><time>2026-05-01T08:59:25.83Z</time></trkpt><trkpt lat="43.2765034" lon="13.227427"><ele>396.0</ele><time>2026-05-01T08:59:26.829Z</time></trkpt><trkpt lat="43.2765904" lon="13.2274443"><ele>396.0</ele><time>2026-05-01T08:59:27.829Z</time></trkpt><trkpt lat="43.2766786" lon="13.2274542"><ele>396.6</ele><time>2026-05-01T08:59:28.83Z</time></trkpt><trkpt lat="43.2767623" lon="13.2274784"><ele>397.20000000000005</ele><time>2026-05-01T08:59:29.83Z</time></trkpt><trkpt lat="43.2768491" lon="13.2275184"><ele>397.79999999999995</ele><time>2026-05-01T08:59:30.829Z</time></trkpt><trkpt lat="43.2769414" lon="13.2275574"><ele>398.4</ele><time>2026-05-01T08:59:31.829Z</time></trkpt><trkpt lat="43.2770335" lon="13.2275957"><ele>399.0</ele><time>2026-05-01T08:59:32.829Z</time></trkpt><trkpt lat="43.2771346" lon="13.2276361"><ele>399.0</ele><time>2026-05-01T08:59:33.83Z</time></trkpt><trkpt lat="43.2772364" lon="13.227667"><ele>399.0</ele><time>2026-05-01T08:59:34.83Z</time></trkpt><trkpt lat="43.2773451" lon="13.2276842"><ele>399.0</ele><time>2026-05-01T08:59:35.83Z</time></trkpt><trkpt lat="43.2774564" lon="13.2276942"><ele>399.0</ele><time>2026-05-01T08:59:36.83Z</time></trkpt><trkpt lat="43.2775745" lon="13.2276945"><ele>399.0</ele><time>2026-05-01T08:59:37.83Z</time></trkpt><trkpt lat="43.2776873" lon="13.2276928"><ele>398.79999999999995</ele><time>2026-05-01T08:59:38.829Z</time></trkpt><trkpt lat="43.2777981" lon="13.2276939"><ele>398.59999999999997</ele><time>2026-05-01T08:59:39.83Z</time></trkpt><trkpt lat="43.2778992" lon="13.2277002"><ele>398.4</ele><time>2026-05-01T08:59:40.83Z</time></trkpt><trkpt lat="43.2779863" lon="13.2277097"><ele>398.2</ele><time>2026-05-01T08:59:41.83Z</time></trkpt><trkpt lat="43.2780642" lon="13.2277145"><ele>398.0</ele><time>2026-05-01T08:59:42.83Z</time></trkpt><trkpt lat="43.278143" lon="13.227701"><ele>398.49999999999994</ele><time>2026-05-01T08:59:43.83Z</time></trkpt><trkpt lat="43.2782223" lon="13.227672"><ele>399.0</ele><time>2026-05-01T08:59:44.83Z</time></trkpt><trkpt lat="43.2782973" lon="13.2276293"><ele>399.5</ele><time>2026-05-01T08:59:45.829Z</time></trkpt><trkpt lat="43.278374" lon="13.2275799"><ele>400.0</ele><time>2026-05-01T08:59:46.83Z</time></trkpt><trkpt lat="43.2784584" lon="13.2275227"><ele>400.49999999999994</ele><time>2026-05-01T08:59:47.829Z</time></trkpt><trkpt lat="43.2785453" lon="13.2274685"><ele>401.0</ele><time>2026-05-01T08:59:48.83Z</time></trkpt><trkpt lat="43.2786337" lon="13.2274056"><ele>401.0</ele><time>2026-05-01T08:59:49.83Z</time></trkpt><trkpt lat="43.2787222" lon="13.2273383"><ele>401.0</ele><time>2026-05-01T08:59:50.83Z</time></trkpt><trkpt lat="43.2788159" lon="13.2272744"><ele>401.0</ele><time>2026-05-01T08:59:51.83Z</time></trkpt><trkpt lat="43.2789087" lon="13.2272107"><ele>401.0</ele><time>2026-05-01T08:59:52.829Z</time></trkpt><trkpt lat="43.2790013" lon="13.2271426"><ele>401.0</ele><time>2026-05-01T08:59:53.83Z</time></trkpt><trkpt lat="43.2790902" lon="13.2270795"><ele>401.4</ele><time>2026-05-01T08:59:54.83Z</time></trkpt><trkpt lat="43.2791771" lon="13.2270163"><ele>401.8</ele><time>2026-05-01T08:59:55.83Z</time></trkpt><trkpt lat="43.2792627" lon="13.2269524"><ele>402.2</ele><time>2026-05-01T08:59:56.83Z</time></trkpt><trkpt lat="43.2793455" lon="13.22689"><ele>402.59999999999997</ele><time>2026-05-01T08:59:57.829Z</time></trkpt><trkpt lat="43.2794259" lon="13.2268312"><ele>403.0</ele><time>2026-05-01T08:59:58.829Z</time></trkpt><trkpt lat="43.2795138" lon="13.2267848"><ele>403.0</ele><time>2026-05-01T08:59:59.829Z</time></trkpt><trkpt lat="43.2796029" lon="13.2267618"><ele>403.0</ele><time>2026-05-01T09:00:00.83Z</time></trkpt><trkpt lat="43.2796971" lon="13.226754"><ele>403.0</ele><time>2026-05-01T09:00:01.829Z</time></trkpt><trkpt lat="43.2797924" lon="13.2267659"><ele>403.0</ele><time>2026-05-01T09:00:02.829Z</time></trkpt><trkpt lat="43.2798845" lon="13.2268021"><ele>403.0</ele><time>2026-05-01T09:00:03.829Z</time></trkpt><trkpt lat="43.2799731" lon="13.226856"><ele>405.75</ele><time>2026-05-01T09:00:04.829Z</time></trkpt><trkpt lat="43.2800685" lon="13.2269164"><ele>408.5</ele><time>2026-05-01T09:00:05.829Z</time></trkpt><trkpt lat="43.2801658" lon="13.2269836"><ele>411.25</ele><time>2026-05-01T09:00:06.829Z</time></trkpt><trkpt lat="43.2802741" lon="13.2270511"><ele>414.0</ele><time>2026-05-01T09:00:07.83Z</time></trkpt><trkpt lat="43.2803827" lon="13.2271258"><ele>414.0</ele><time>2026-05-01T09:00:08.83Z</time></trkpt><trkpt lat="43.2804943" lon="13.227202"><ele>414.0</ele><time>2026-05-01T09:00:09.83Z</time></trkpt><trkpt lat="43.2805963" lon="13.2272756"><ele>414.0</ele><time>2026-05-01T09:00:10.831Z</time></trkpt><trkpt lat="43.2807198" lon="13.2273613"><ele>414.0</ele><time>2026-05-01T09:00:11.83Z</time></trkpt><trkpt lat="43.2808403" lon="13.2274432"><ele>415.75</ele><time>2026-05-01T09:00:12.829Z</time></trkpt><trkpt lat="43.2809646" lon="13.2275254"><ele>417.5</ele><time>2026-05-01T09:00:13.83Z</time></trkpt><trkpt lat="43.2810902" lon="13.2276066"><ele>419.25</ele><time>2026-05-01T09:00:14.83Z</time></trkpt><trkpt lat="43.2812098" lon="13.2276886"><ele>421.0</ele><time>2026-05-01T09:00:15.83Z</time></trkpt><trkpt lat="43.2813244" lon="13.2277663"><ele>421.0</ele><time>2026-05-01T09:00:16.83Z</time></trkpt><trkpt lat="43.281432" lon="13.2278451"><ele>421.0</ele><time>2026-05-01T09:00:17.83Z</time></trkpt><trkpt lat="43.2815385" lon="13.2279224"><ele>421.0</ele><time>2026-05-01T09:00:18.83Z</time></trkpt><trkpt lat="43.281644" lon="13.2279931"><ele>421.0</ele><time>2026-05-01T09:00:19.83Z</time></trkpt><trkpt lat="43.2817431" lon="13.2280661"><ele>423.20000000000005</ele><time>2026-05-01T09:00:20.83Z</time></trkpt><trkpt lat="43.2818391" lon="13.2281384"><ele>425.40000000000003</ele><time>2026-05-01T09:00:21.829Z</time></trkpt><trkpt lat="43.2819286" lon="13.2282186"><ele>427.6</ele><time>2026-05-01T09:00:22.829Z</time></trkpt><trkpt lat="43.2820078" lon="13.2283108"><ele>429.8</ele><time>2026-05-01T09:00:23.83Z</time></trkpt><trkpt lat="43.2820731" lon="13.2284237"><ele>432.0</ele><time>2026-05-01T09:00:24.83Z</time></trkpt><trkpt lat="43.2821238" lon="13.2285523"><ele>432.0</ele><time>2026-05-01T09:00:25.83Z</time></trkpt><trkpt lat="43.2821637" lon="13.2286919"><ele>432.00000000000006</ele><time>2026-05-01T09:00:26.83Z</time></trkpt><trkpt lat="43.2821939" lon="13.2288404"><ele>432.00000000000006</ele><time>2026-05-01T09:00:27.829Z</time></trkpt><trkpt lat="43.282217" lon="13.2289899"><ele>432.0</ele><time>2026-05-01T09:00:28.829Z</time></trkpt><trkpt lat="43.2822439" lon="13.2291391"><ele>432.0</ele><time>2026-05-01T09:00:29.83Z</time></trkpt><trkpt lat="43.2822707" lon="13.2292876"><ele>432.8</ele><time>2026-05-01T09:00:30.83Z</time></trkpt><trkpt lat="43.2822947" lon="13.2294339"><ele>433.6</ele><time>2026-05-01T09:00:31.83Z</time></trkpt><trkpt lat="43.2823153" lon="13.2295769"><ele>434.40000000000003</ele><time>2026-05-01T09:00:32.83Z</time></trkpt><trkpt lat="43.2823428" lon="13.2297193"><ele>435.20000000000005</ele><time>2026-05-01T09:00:33.829Z</time></trkpt><trkpt lat="43.2823905" lon="13.2298512"><ele>436.0</ele><time>2026-05-01T09:00:34.83Z</time></trkpt><trkpt lat="43.2824572" lon="13.2299741"><ele>437.25</ele><time>2026-05-01T09:00:35.83Z</time></trkpt><trkpt lat="43.2825368" lon="13.2300813"><ele>438.5</ele><time>2026-05-01T09:00:36.829Z</time></trkpt><trkpt lat="43.2826239" lon="13.2301776"><ele>439.75</ele><time>2026-05-01T09:00:37.83Z</time></trkpt><trkpt lat="43.2827157" lon="13.2302667"><ele>441.0</ele><time>2026-05-01T09:00:38.83Z</time></trkpt><trkpt lat="43.2828139" lon="13.2303605"><ele>441.0</ele><time>2026-05-01T09:00:39.829Z</time></trkpt><trkpt lat="43.2829118" lon="13.2304541"><ele>441.0</ele><time>2026-05-01T09:00:40.83Z</time></trkpt><trkpt lat="43.2830065" lon="13.2305539"><ele>441.0</ele><time>2026-05-01T09:00:41.83Z</time></trkpt><trkpt lat="43.2830963" lon="13.2306634"><ele>441.0</ele><time>2026-05-01T09:00:42.831Z</time></trkpt><trkpt lat="43.2831685" lon="13.2307931"><ele>442.0</ele><time>2026-05-01T09:00:43.83Z</time></trkpt><trkpt lat="43.28322" lon="13.2309393"><ele>443.0</ele><time>2026-05-01T09:00:44.83Z</time></trkpt><trkpt lat="43.2832545" lon="13.2310977"><ele>444.0</ele><time>2026-05-01T09:00:45.83Z</time></trkpt><trkpt lat="43.2832804" lon="13.231259"><ele>445.0</ele><time>2026-05-01T09:00:46.831Z</time></trkpt><trkpt lat="43.2833067" lon="13.2314204"><ele>446.5</ele><time>2026-05-01T09:00:47.831Z</time></trkpt><trkpt lat="43.2833435" lon="13.2315804"><ele>448.0</ele><time>2026-05-01T09:00:48.83Z</time></trkpt><trkpt lat="43.2833725" lon="13.2317453"><ele>449.5</ele><time>2026-05-01T09:00:49.831Z</time></trkpt><trkpt lat="43.283403" lon="13.231913"><ele>451.0</ele><time>2026-05-01T09:00:50.829Z</time></trkpt><trkpt lat="43.2834307" lon="13.2320824"><ele>451.0</ele><time>2026-05-01T09:00:51.83Z</time></trkpt><trkpt lat="43.2834561" lon="13.2322512"><ele>451.0</ele><time>2026-05-01T09:00:52.83Z</time></trkpt><trkpt lat="43.2834828" lon="13.2324137"><ele>451.0</ele><time>2026-05-01T09:00:53.829Z</time></trkpt><trkpt lat="43.2835111" lon="13.2325732"><ele>451.0</ele><time>2026-05-01T09:00:54.829Z</time></trkpt><trkpt lat="43.2835431" lon="13.2327312"><ele>452.25</ele><time>2026-05-01T09:00:55.83Z</time></trkpt><trkpt lat="43.2835769" lon="13.2328925"><ele>453.5</ele><time>2026-05-01T09:00:56.83Z</time></trkpt><trkpt lat="43.2836107" lon="13.2330577"><ele>454.75</ele><time>2026-05-01T09:00:57.83Z</time></trkpt><trkpt lat="43.2836411" lon="13.2332281"><ele>456.0</ele><time>2026-05-01T09:00:58.829Z</time></trkpt><trkpt lat="43.2836698" lon="13.233397"><ele>456.0</ele><time>2026-05-01T09:00:59.83Z</time></trkpt><trkpt lat="43.2836965" lon="13.233565"><ele>456.0</ele><time>2026-05-01T09:01:00.829Z</time></trkpt><trkpt lat="43.2837228" lon="13.2337299"><ele>456.0</ele><time>2026-05-01T09:01:01.829Z</time></trkpt><trkpt lat="43.283747" lon="13.2338908"><ele>456.0</ele><time>2026-05-01T09:01:02.829Z</time></trkpt><trkpt lat="43.2837706" lon="13.2340433"><ele>457.20000000000005</ele><time>2026-05-01T09:01:03.829Z</time></trkpt><trkpt lat="43.2837952" lon="13.2341823"><ele>458.40000000000003</ele><time>2026-05-01T09:01:04.831Z</time></trkpt><trkpt lat="43.2838212" lon="13.234326"><ele>459.6</ele><time>2026-05-01T09:01:05.83Z</time></trkpt><trkpt lat="43.2838435" lon="13.2344695"><ele>460.8</ele><time>2026-05-01T09:01:06.83Z</time></trkpt><trkpt lat="43.2838715" lon="13.2346227"><ele>462.0</ele><time>2026-05-01T09:01:07.83Z</time></trkpt><trkpt lat="43.2839009" lon="13.2347725"><ele>462.75</ele><time>2026-05-01T09:01:08.829Z</time></trkpt><trkpt lat="43.2839278" lon="13.2349248"><ele>463.5</ele><time>2026-05-01T09:01:09.83Z</time></trkpt><trkpt lat="43.2839528" lon="13.2350802"><ele>464.25</ele><time>2026-05-01T09:01:10.829Z</time></trkpt><trkpt lat="43.2839788" lon="13.2352307"><ele>465.0</ele><time>2026-05-01T09:01:11.83Z</time></trkpt><trkpt lat="43.284003" lon="13.2353852"><ele>460.25</ele><time>2026-05-01T09:01:12.829Z</time></trkpt><trkpt lat="43.2840232" lon="13.2355379"><ele>455.5</ele><time>2026-05-01T09:01:13.83Z</time></trkpt><trkpt lat="43.2840492" lon="13.235692"><ele>450.75</ele><time>2026-05-01T09:01:14.83Z</time></trkpt><trkpt lat="43.2840691" lon="13.2358466"><ele>446.0</ele><time>2026-05-01T09:01:15.83Z</time></trkpt><trkpt lat="43.2840879" lon="13.2359989"><ele>445.75</ele><time>2026-05-01T09:01:16.83Z</time></trkpt><trkpt lat="43.2841186" lon="13.2361479"><ele>445.5</ele><time>2026-05-01T09:01:17.829Z</time></trkpt><trkpt lat="43.2841465" lon="13.2362992"><ele>445.25</ele><time>2026-05-01T09:01:18.829Z</time></trkpt><trkpt lat="43.2841692" lon="13.2364487"><ele>445.0</ele><time>2026-05-01T09:01:19.829Z</time></trkpt><trkpt lat="43.2842127" lon="13.2365919"><ele>444.75</ele><time>2026-05-01T09:01:20.83Z</time></trkpt><trkpt lat="43.2842647" lon="13.2367309"><ele>444.5</ele><time>2026-05-01T09:01:21.83Z</time></trkpt><trkpt lat="43.2843296" lon="13.2368637"><ele>444.25</ele><time>2026-05-01T09:01:22.83Z</time></trkpt><trkpt lat="43.2844065" lon="13.2369877"><ele>444.0</ele><time>2026-05-01T09:01:23.83Z</time></trkpt><trkpt lat="43.2844839" lon="13.2371051"><ele>444.0</ele><time>2026-05-01T09:01:24.83Z</time></trkpt><trkpt lat="43.2845661" lon="13.2372237"><ele>444.0</ele><time>2026-05-01T09:01:25.829Z</time></trkpt><trkpt lat="43.2846354" lon="13.2373274"><ele>444.0</ele><time>2026-05-01T09:01:26.83Z</time></trkpt><trkpt lat="43.2847021" lon="13.2374445"><ele>444.0</ele><time>2026-05-01T09:01:27.83Z</time></trkpt><trkpt lat="43.2847584" lon="13.2375666"><ele>444.0</ele><time>2026-05-01T09:01:28.829Z</time></trkpt><trkpt lat="43.2848044" lon="13.2376891"><ele>442.0</ele><time>2026-05-01T09:01:29.829Z</time></trkpt><trkpt lat="43.2848395" lon="13.2378155"><ele>440.0</ele><time>2026-05-01T09:01:30.829Z</time></trkpt><trkpt lat="43.2848645" lon="13.237934"><ele>438.0</ele><time>2026-05-01T09:01:31.83Z</time></trkpt><trkpt lat="43.2848785" lon="13.2380672"><ele>436.0</ele><time>2026-05-01T09:01:32.83Z</time></trkpt><trkpt lat="43.2848902" lon="13.2381991"><ele>434.0</ele><time>2026-05-01T09:01:33.83Z</time></trkpt><trkpt lat="43.2849" lon="13.2383298"><ele>434.0</ele><time>2026-05-01T09:01:34.83Z</time></trkpt><trkpt lat="43.2849037" lon="13.2384607"><ele>434.0</ele><time>2026-05-01T09:01:35.83Z</time></trkpt><trkpt lat="43.2849069" lon="13.2385922"><ele>434.0</ele><time>2026-05-01T09:01:36.83Z</time></trkpt><trkpt lat="43.2849097" lon="13.2387282"><ele>434.0</ele><time>2026-05-01T09:01:37.831Z</time></trkpt><trkpt lat="43.2849163" lon="13.238862"><ele>434.0</ele><time>2026-05-01T09:01:38.83Z</time></trkpt><trkpt lat="43.2849266" lon="13.2389987"><ele>433.6</ele><time>2026-05-01T09:01:39.829Z</time></trkpt><trkpt lat="43.2849393" lon="13.2391398"><ele>433.2</ele><time>2026-05-01T09:01:40.83Z</time></trkpt><trkpt lat="43.2849528" lon="13.2392797"><ele>432.80000000000007</ele><time>2026-05-01T09:01:41.829Z</time></trkpt><trkpt lat="43.2849704" lon="13.2394117"><ele>432.40000000000003</ele><time>2026-05-01T09:01:42.829Z</time></trkpt><trkpt lat="43.2849958" lon="13.2395439"><ele>432.0</ele><time>2026-05-01T09:01:43.83Z</time></trkpt><trkpt lat="43.2850283" lon="13.2396776"><ele>430.40000000000003</ele><time>2026-05-01T09:01:44.829Z</time></trkpt><trkpt lat="43.2850701" lon="13.2398093"><ele>428.80000000000007</ele><time>2026-05-01T09:01:45.83Z</time></trkpt><trkpt lat="43.2851221" lon="13.2399454"><ele>427.2</ele><time>2026-05-01T09:01:46.83Z</time></trkpt><trkpt lat="43.2851768" lon="13.2400812"><ele>425.6</ele><time>2026-05-01T09:01:47.829Z</time></trkpt><trkpt lat="43.285237" lon="13.2402187"><ele>424.0</ele><time>2026-05-01T09:01:48.829Z</time></trkpt><trkpt lat="43.2852974" lon="13.240358"><ele>424.0</ele><time>2026-05-01T09:01:49.83Z</time></trkpt><trkpt lat="43.2853568" lon="13.2404971"><ele>424.0</ele><time>2026-05-01T09:01:50.829Z</time></trkpt><trkpt lat="43.285417" lon="13.2406392"><ele>424.0</ele><time>2026-05-01T09:01:51.83Z</time></trkpt><trkpt lat="43.2854655" lon="13.2407866"><ele>424.0</ele><time>2026-05-01T09:01:52.83Z</time></trkpt><trkpt lat="43.2855053" lon="13.2409384"><ele>422.6</ele><time>2026-05-01T09:01:53.829Z</time></trkpt><trkpt lat="43.2855331" lon="13.2410903"><ele>421.2</ele><time>2026-05-01T09:01:54.829Z</time></trkpt><trkpt lat="43.2855592" lon="13.2412398"><ele>419.8</ele><time>2026-05-01T09:01:55.83Z</time></trkpt><trkpt lat="43.285576" lon="13.2413907"><ele>418.40000000000003</ele><time>2026-05-01T09:01:56.829Z</time></trkpt><trkpt lat="43.285586" lon="13.2415434"><ele>417.0</ele><time>2026-05-01T09:01:57.83Z</time></trkpt><trkpt lat="43.2855868" lon="13.2416991"><ele>416.0</ele><time>2026-05-01T09:01:58.831Z</time></trkpt><trkpt lat="43.2855814" lon="13.2418579"><ele>415.0</ele><time>2026-05-01T09:01:59.829Z</time></trkpt><trkpt lat="43.2855819" lon="13.2420157"><ele>414.0</ele><time>2026-05-01T09:02:00.83Z</time></trkpt><trkpt lat="43.2855887" lon="13.2421734"><ele>413.0</ele><time>2026-05-01T09:02:01.83Z</time></trkpt><trkpt lat="43.2856042" lon="13.2423284"><ele>408.25</ele><time>2026-05-01T09:02:02.83Z</time></trkpt><trkpt lat="43.2856275" lon="13.2424791"><ele>403.5</ele><time>2026-05-01T09:02:03.829Z</time></trkpt><trkpt lat="43.2856433" lon="13.2426334"><ele>398.75</ele><time>2026-05-01T09:02:04.83Z</time></trkpt><trkpt lat="43.2856557" lon="13.2427918"><ele>394.0</ele><time>2026-05-01T09:02:05.829Z</time></trkpt><trkpt lat="43.2856643" lon="13.242956"><ele>394.0</ele><time>2026-05-01T09:02:06.83Z</time></trkpt><trkpt lat="43.2856724" lon="13.2431213"><ele>394.0</ele><time>2026-05-01T09:02:07.83Z</time></trkpt><trkpt lat="43.2856816" lon="13.2432862"><ele>394.0</ele><time>2026-05-01T09:02:08.829Z</time></trkpt><trkpt lat="43.2856889" lon="13.2434516"><ele>394.0</ele><time>2026-05-01T09:02:09.829Z</time></trkpt><trkpt lat="43.2856973" lon="13.2436064"><ele>394.0</ele><time>2026-05-01T09:02:10.83Z</time></trkpt><trkpt lat="43.2856989" lon="13.2437533"><ele>394.0</ele><time>2026-05-01T09:02:11.829Z</time></trkpt><trkpt lat="43.2857023" lon="13.2439013"><ele>394.0</ele><time>2026-05-01T09:02:12.829Z</time></trkpt><trkpt lat="43.2857049" lon="13.24405"><ele>394.0</ele><time>2026-05-01T09:02:13.829Z</time></trkpt><trkpt lat="43.2857111" lon="13.2442016"><ele>394.0</ele><time>2026-05-01T09:02:14.829Z</time></trkpt><trkpt lat="43.2857148" lon="13.2443493"><ele>394.0</ele><time>2026-05-01T09:02:15.83Z</time></trkpt><trkpt lat="43.2857163" lon="13.2444974"><ele>394.0</ele><time>2026-05-01T09:02:16.83Z</time></trkpt><trkpt lat="43.2857205" lon="13.2446477"><ele>394.0</ele><time>2026-05-01T09:02:17.83Z</time></trkpt><trkpt lat="43.2857221" lon="13.2447948"><ele>394.0</ele><time>2026-05-01T09:02:18.83Z</time></trkpt><trkpt lat="43.2857203" lon="13.2449394"><ele>394.0</ele><time>2026-05-01T09:02:19.83Z</time></trkpt><trkpt lat="43.2857259" lon="13.2450863"><ele>394.0</ele><time>2026-05-01T09:02:20.83Z</time></trkpt><trkpt lat="43.2857374" lon="13.2452302"><ele>394.0</ele><time>2026-05-01T09:02:21.829Z</time></trkpt><trkpt lat="43.285754" lon="13.2453761"><ele>394.0</ele><time>2026-05-01T09:02:22.829Z</time></trkpt><trkpt lat="43.2857685" lon="13.2455257"><ele>394.0</ele><time>2026-05-01T09:02:23.831Z</time></trkpt><trkpt lat="43.2857828" lon="13.2456784"><ele>394.0</ele><time>2026-05-01T09:02:24.83Z</time></trkpt><trkpt lat="43.2857971" lon="13.2458302"><ele>393.5</ele><time>2026-05-01T09:02:25.83Z</time></trkpt><trkpt lat="43.2858118" lon="13.245986"><ele>393.0</ele><time>2026-05-01T09:02:26.83Z</time></trkpt><trkpt lat="43.2858222" lon="13.2461467"><ele>392.5</ele><time>2026-05-01T09:02:27.83Z</time></trkpt><trkpt lat="43.2858278" lon="13.2463077"><ele>392.0</ele><time>2026-05-01T09:02:28.83Z</time></trkpt><trkpt lat="43.2858229" lon="13.246472"><ele>391.75</ele><time>2026-05-01T09:02:29.83Z</time></trkpt><trkpt lat="43.2858102" lon="13.2466335"><ele>391.5</ele><time>2026-05-01T09:02:30.829Z</time></trkpt><trkpt lat="43.2857969" lon="13.2467957"><ele>391.25</ele><time>2026-05-01T09:02:31.83Z</time></trkpt><trkpt lat="43.2857838" lon="13.2469571"><ele>391.0</ele><time>2026-05-01T09:02:32.83Z</time></trkpt><trkpt lat="43.2857662" lon="13.247111"><ele>391.0</ele><time>2026-05-01T09:02:33.829Z</time></trkpt><trkpt lat="43.2857387" lon="13.2472577"><ele>391.0</ele><time>2026-05-01T09:02:34.83Z</time></trkpt><trkpt lat="43.2857151" lon="13.2474054"><ele>391.0</ele><time>2026-05-01T09:02:35.83Z</time></trkpt><trkpt lat="43.2856933" lon="13.2475474"><ele>391.0</ele><time>2026-05-01T09:02:36.83Z</time></trkpt><trkpt lat="43.2856702" lon="13.2476897"><ele>391.0</ele><time>2026-05-01T09:02:37.83Z</time></trkpt><trkpt lat="43.28565" lon="13.2478252"><ele>390.83333333333337</ele><time>2026-05-01T09:02:38.829Z</time></trkpt><trkpt lat="43.2856356" lon="13.2479533"><ele>390.6666666666667</ele><time>2026-05-01T09:02:39.829Z</time></trkpt><trkpt lat="43.2856226" lon="13.2480666"><ele>390.5</ele><time>2026-05-01T09:02:40.831Z</time></trkpt><trkpt lat="43.285615" lon="13.2481532"><ele>390.33333333333337</ele><time>2026-05-01T09:02:41.83Z</time></trkpt><trkpt lat="43.2856424" lon="13.2482603"><ele>390.1666666666667</ele><time>2026-05-01T09:02:43.829Z</time></trkpt><trkpt lat="43.285708" lon="13.2481833"><ele>390.0</ele><time>2026-05-01T09:02:46.83Z</time></trkpt><trkpt lat="43.2857321" lon="13.2480409"><ele>390.0</ele><time>2026-05-01T09:02:48.831Z</time></trkpt><trkpt lat="43.2858177" lon="13.2479242"><ele>390.0</ele><time>2026-05-01T09:02:50.829Z</time></trkpt><trkpt lat="43.2858819" lon="13.2479118"><ele>390.0</ele><time>2026-05-01T09:02:51.829Z</time></trkpt><trkpt lat="43.2859497" lon="13.2479234"><ele>390.0</ele><time>2026-05-01T09:02:52.83Z</time></trkpt><trkpt lat="43.2860199" lon="13.2479408"><ele>390.0</ele><time>2026-05-01T09:02:53.83Z</time></trkpt><trkpt lat="43.2860913" lon="13.2479593"><ele>390.0</ele><time>2026-05-01T09:02:54.83Z</time></trkpt><trkpt lat="43.2861632" lon="13.2479727"><ele>390.0</ele><time>2026-05-01T09:02:55.829Z</time></trkpt><trkpt lat="43.2862371" lon="13.247998"><ele>390.0</ele><time>2026-05-01T09:02:56.83Z</time></trkpt><trkpt lat="43.2863119" lon="13.2480197"><ele>390.0</ele><time>2026-05-01T09:02:57.829Z</time></trkpt><trkpt lat="43.2863906" lon="13.2480343"><ele>390.0</ele><time>2026-05-01T09:02:58.829Z</time></trkpt><trkpt lat="43.2864698" lon="13.2480567"><ele>390.0</ele><time>2026-05-01T09:02:59.829Z</time></trkpt><trkpt lat="43.2865477" lon="13.2480865"><ele>390.0</ele><time>2026-05-01T09:03:00.83Z</time></trkpt><trkpt lat="43.286623" lon="13.2481265"><ele>387.1666666666667</ele><time>2026-05-01T09:03:01.831Z</time></trkpt><trkpt lat="43.2866934" lon="13.2481754"><ele>384.3333333333333</ele><time>2026-05-01T09:03:02.829Z</time></trkpt><trkpt lat="43.2867596" lon="13.2482334"><ele>381.5</ele><time>2026-05-01T09:03:03.831Z</time></trkpt><trkpt lat="43.2868225" lon="13.2483028"><ele>378.66666666666663</ele><time>2026-05-01T09:03:04.831Z</time></trkpt><trkpt lat="43.2868832" lon="13.2483785"><ele>375.8333333333333</ele><time>2026-05-01T09:03:05.83Z</time></trkpt><trkpt lat="43.2869372" lon="13.2484656"><ele>373.0</ele><time>2026-05-01T09:03:06.83Z</time></trkpt><trkpt lat="43.286985" lon="13.2485669"><ele>373.0</ele><time>2026-05-01T09:03:07.829Z</time></trkpt><trkpt lat="43.2870302" lon="13.2486666"><ele>373.0</ele><time>2026-05-01T09:03:08.83Z</time></trkpt><trkpt lat="43.2870771" lon="13.2487864"><ele>373.0</ele><time>2026-05-01T09:03:09.829Z</time></trkpt><trkpt lat="43.2871212" lon="13.2488982"><ele>373.0</ele><time>2026-05-01T09:03:10.829Z</time></trkpt><trkpt lat="43.287167" lon="13.2490089"><ele>373.0</ele><time>2026-05-01T09:03:11.83Z</time></trkpt><trkpt lat="43.2872126" lon="13.2491165"><ele>372.0</ele><time>2026-05-01T09:03:12.83Z</time></trkpt><trkpt lat="43.2872603" lon="13.2492259"><ele>371.0</ele><time>2026-05-01T09:03:13.83Z</time></trkpt><trkpt lat="43.2873091" lon="13.2493344"><ele>370.0</ele><time>2026-05-01T09:03:14.83Z</time></trkpt><trkpt lat="43.2873542" lon="13.2494466"><ele>369.0</ele><time>2026-05-01T09:03:15.83Z</time></trkpt><trkpt lat="43.2874003" lon="13.2495604"><ele>368.0</ele><time>2026-05-01T09:03:16.83Z</time></trkpt><trkpt lat="43.2874422" lon="13.2496809"><ele>364.59999999999997</ele><time>2026-05-01T09:03:17.831Z</time></trkpt><trkpt lat="43.2874838" lon="13.2498022"><ele>361.2</ele><time>2026-05-01T09:03:18.83Z</time></trkpt><trkpt lat="43.2875275" lon="13.2499271"><ele>357.8</ele><time>2026-05-01T09:03:19.83Z</time></trkpt><trkpt lat="43.2875722" lon="13.2500505"><ele>354.4</ele><time>2026-05-01T09:03:20.83Z</time></trkpt><trkpt lat="43.287613" lon="13.250169"><ele>351.0</ele><time>2026-05-01T09:03:21.83Z</time></trkpt><trkpt lat="43.287649" lon="13.2502781"><ele>351.0</ele><time>2026-05-01T09:03:22.829Z</time></trkpt><trkpt lat="43.2876828" lon="13.2503839"><ele>351.0</ele><time>2026-05-01T09:03:23.83Z</time></trkpt><trkpt lat="43.2877139" lon="13.2504878"><ele>351.0</ele><time>2026-05-01T09:03:24.831Z</time></trkpt><trkpt lat="43.2877424" lon="13.2505977"><ele>351.0</ele><time>2026-05-01T09:03:25.829Z</time></trkpt><trkpt lat="43.2877686" lon="13.2507171"><ele>351.0</ele><time>2026-05-01T09:03:26.829Z</time></trkpt><trkpt lat="43.2877838" lon="13.2508397"><ele>351.0</ele><time>2026-05-01T09:03:27.83Z</time></trkpt><trkpt lat="43.2877949" lon="13.2509654"><ele>348.6</ele><time>2026-05-01T09:03:28.829Z</time></trkpt><trkpt lat="43.2877963" lon="13.2511014"><ele>346.20000000000005</ele><time>2026-05-01T09:03:29.83Z</time></trkpt><trkpt lat="43.2877952" lon="13.2512396"><ele>343.79999999999995</ele><time>2026-05-01T09:03:30.83Z</time></trkpt><trkpt lat="43.287792" lon="13.2513821"><ele>341.4</ele><time>2026-05-01T09:03:31.829Z</time></trkpt><trkpt lat="43.2877883" lon="13.2515213"><ele>339.0</ele><time>2026-05-01T09:03:32.829Z</time></trkpt><trkpt lat="43.2877884" lon="13.2516684"><ele>336.79999999999995</ele><time>2026-05-01T09:03:33.831Z</time></trkpt><trkpt lat="43.2877872" lon="13.2518122"><ele>334.59999999999997</ele><time>2026-05-01T09:03:34.829Z</time></trkpt><trkpt lat="43.2877904" lon="13.2519575"><ele>332.4</ele><time>2026-05-01T09:03:35.83Z</time></trkpt><trkpt lat="43.2877898" lon="13.252092"><ele>330.2</ele><time>2026-05-01T09:03:36.83Z</time></trkpt><trkpt lat="43.2877967" lon="13.2522271"><ele>328.0</ele><time>2026-05-01T09:03:37.829Z</time></trkpt><trkpt lat="43.2878032" lon="13.2523663"><ele>326.2</ele><time>2026-05-01T09:03:38.829Z</time></trkpt><trkpt lat="43.2878099" lon="13.2525102"><ele>324.4</ele><time>2026-05-01T09:03:39.83Z</time></trkpt><trkpt lat="43.2878115" lon="13.2526558"><ele>322.59999999999997</ele><time>2026-05-01T09:03:40.829Z</time></trkpt><trkpt lat="43.2878061" lon="13.2527969"><ele>320.79999999999995</ele><time>2026-05-01T09:03:41.829Z</time></trkpt><trkpt lat="43.2878062" lon="13.2529399"><ele>319.0</ele><time>2026-05-01T09:03:42.83Z</time></trkpt><trkpt lat="43.2878091" lon="13.2530804"><ele>317.8</ele><time>2026-05-01T09:03:43.83Z</time></trkpt><trkpt lat="43.2878113" lon="13.253219"><ele>316.59999999999997</ele><time>2026-05-01T09:03:44.829Z</time></trkpt><trkpt lat="43.2878157" lon="13.2533532"><ele>315.4</ele><time>2026-05-01T09:03:45.829Z</time></trkpt><trkpt lat="43.2878304" lon="13.2534864"><ele>314.2</ele><time>2026-05-01T09:03:46.83Z</time></trkpt><trkpt lat="43.2878576" lon="13.253611"><ele>313.0</ele><time>2026-05-01T09:03:47.831Z</time></trkpt><trkpt lat="43.2879062" lon="13.2537261"><ele>313.0</ele><time>2026-05-01T09:03:48.83Z</time></trkpt><trkpt lat="43.2879742" lon="13.2538233"><ele>313.0</ele><time>2026-05-01T09:03:49.83Z</time></trkpt><trkpt lat="43.2880568" lon="13.2539007"><ele>313.0</ele><time>2026-05-01T09:03:50.83Z</time></trkpt><trkpt lat="43.2881466" lon="13.2539707"><ele>313.0</ele><time>2026-05-01T09:03:51.829Z</time></trkpt><trkpt lat="43.2882308" lon="13.2540512"><ele>313.0</ele><time>2026-05-01T09:03:52.829Z</time></trkpt><trkpt lat="43.2883041" lon="13.2541488"><ele>314.0</ele><time>2026-05-01T09:03:53.83Z</time></trkpt><trkpt lat="43.2883613" lon="13.2542608"><ele>315.0</ele><time>2026-05-01T09:03:54.83Z</time></trkpt><trkpt lat="43.2884" lon="13.2543859"><ele>316.0</ele><time>2026-05-01T09:03:55.83Z</time></trkpt><trkpt lat="43.2884177" lon="13.2545192"><ele>317.0</ele><time>2026-05-01T09:03:56.829Z</time></trkpt><trkpt lat="43.2884161" lon="13.2546546"><ele>318.0</ele><time>2026-05-01T09:03:57.83Z</time></trkpt><trkpt lat="43.2884137" lon="13.2547854"><ele>317.0</ele><time>2026-05-01T09:03:58.829Z</time></trkpt><trkpt lat="43.288425" lon="13.2549138"><ele>316.0</ele><time>2026-05-01T09:03:59.829Z</time></trkpt><trkpt lat="43.2884531" lon="13.2550445"><ele>315.0</ele><time>2026-05-01T09:04:00.83Z</time></trkpt><trkpt lat="43.2884894" lon="13.2551717"><ele>314.0</ele><time>2026-05-01T09:04:01.83Z</time></trkpt><trkpt lat="43.2885285" lon="13.2552977"><ele>313.0</ele><time>2026-05-01T09:04:02.829Z</time></trkpt><trkpt lat="43.2885688" lon="13.2554306"><ele>313.0</ele><time>2026-05-01T09:04:03.829Z</time></trkpt><trkpt lat="43.2886029" lon="13.2555712"><ele>313.0</ele><time>2026-05-01T09:04:04.83Z</time></trkpt><trkpt lat="43.2886216" lon="13.2557203"><ele>313.0</ele><time>2026-05-01T09:04:05.83Z</time></trkpt><trkpt lat="43.288622" lon="13.2558731"><ele>313.0</ele><time>2026-05-01T09:04:06.83Z</time></trkpt><trkpt lat="43.288604" lon="13.2560256"><ele>313.0</ele><time>2026-05-01T09:04:07.829Z</time></trkpt><trkpt lat="43.2885739" lon="13.2561681"><ele>312.8</ele><time>2026-05-01T09:04:08.829Z</time></trkpt><trkpt lat="43.2885424" lon="13.2562929"><ele>312.6</ele><time>2026-05-01T09:04:09.829Z</time></trkpt><trkpt lat="43.2885119" lon="13.2564177"><ele>312.4</ele><time>2026-05-01T09:04:10.83Z</time></trkpt><trkpt lat="43.2884796" lon="13.2565436"><ele>312.2</ele><time>2026-05-01T09:04:11.83Z</time></trkpt><trkpt lat="43.2884479" lon="13.256659"><ele>312.0</ele><time>2026-05-01T09:04:12.831Z</time></trkpt><trkpt lat="43.2884225" lon="13.2567757"><ele>312.0</ele><time>2026-05-01T09:04:13.83Z</time></trkpt><trkpt lat="43.2883992" lon="13.2568917"><ele>312.0</ele><time>2026-05-01T09:04:14.83Z</time></trkpt><trkpt lat="43.2883905" lon="13.2570159"><ele>312.0</ele><time>2026-05-01T09:04:15.831Z</time></trkpt><trkpt lat="43.288388" lon="13.2571436"><ele>312.0</ele><time>2026-05-01T09:04:16.829Z</time></trkpt><trkpt lat="43.2883902" lon="13.2572764"><ele>312.0</ele><time>2026-05-01T09:04:17.829Z</time></trkpt><trkpt lat="43.2883957" lon="13.2574072"><ele>311.0</ele><time>2026-05-01T09:04:18.83Z</time></trkpt><trkpt lat="43.2884008" lon="13.2575392"><ele>310.0</ele><time>2026-05-01T09:04:19.829Z</time></trkpt><trkpt lat="43.2884078" lon="13.2576663"><ele>309.0</ele><time>2026-05-01T09:04:20.829Z</time></trkpt><trkpt lat="43.2884187" lon="13.257796"><ele>308.0</ele><time>2026-05-01T09:04:21.829Z</time></trkpt><trkpt lat="43.2884289" lon="13.2579249"><ele>307.0</ele><time>2026-05-01T09:04:22.829Z</time></trkpt><trkpt lat="43.2884447" lon="13.2580472"><ele>305.8</ele><time>2026-05-01T09:04:23.83Z</time></trkpt><trkpt lat="43.2884624" lon="13.2581683"><ele>304.6</ele><time>2026-05-01T09:04:24.829Z</time></trkpt><trkpt lat="43.2884869" lon="13.2582883"><ele>303.40000000000003</ele><time>2026-05-01T09:04:25.83Z</time></trkpt><trkpt lat="43.288521" lon="13.2584038"><ele>302.2</ele><time>2026-05-01T09:04:26.83Z</time></trkpt><trkpt lat="43.2885578" lon="13.2585154"><ele>301.0</ele><time>2026-05-01T09:04:27.83Z</time></trkpt><trkpt lat="43.2885963" lon="13.2586269"><ele>301.0</ele><time>2026-05-01T09:04:28.829Z</time></trkpt><trkpt lat="43.2886369" lon="13.2587365"><ele>301.0</ele><time>2026-05-01T09:04:29.829Z</time></trkpt><trkpt lat="43.2886753" lon="13.2588487"><ele>301.0</ele><time>2026-05-01T09:04:30.83Z</time></trkpt><trkpt lat="43.2887083" lon="13.258958"><ele>301.0</ele><time>2026-05-01T09:04:31.831Z</time></trkpt><trkpt lat="43.2887454" lon="13.2590694"><ele>301.0</ele><time>2026-05-01T09:04:32.83Z</time></trkpt><trkpt lat="43.2887961" lon="13.2591776"><ele>301.0</ele><time>2026-05-01T09:04:33.83Z</time></trkpt><trkpt lat="43.2888527" lon="13.2592744"><ele>301.16666666666663</ele><time>2026-05-01T09:04:34.829Z</time></trkpt><trkpt lat="43.2889122" lon="13.2593658"><ele>301.3333333333333</ele><time>2026-05-01T09:04:35.829Z</time></trkpt><trkpt lat="43.2889643" lon="13.2594669"><ele>301.5</ele><time>2026-05-01T09:04:36.83Z</time></trkpt><trkpt lat="43.2890048" lon="13.2595731"><ele>301.6666666666667</ele><time>2026-05-01T09:04:37.83Z</time></trkpt><trkpt lat="43.2890381" lon="13.259682"><ele>301.83333333333337</ele><time>2026-05-01T09:04:38.83Z</time></trkpt><trkpt lat="43.2890616" lon="13.2597989"><ele>302.0</ele><time>2026-05-01T09:04:39.83Z</time></trkpt><trkpt lat="43.2890723" lon="13.2599197"><ele>301.2</ele><time>2026-05-01T09:04:40.829Z</time></trkpt><trkpt lat="43.2890731" lon="13.2600433"><ele>300.4</ele><time>2026-05-01T09:04:41.83Z</time></trkpt><trkpt lat="43.289066" lon="13.2601646"><ele>299.6</ele><time>2026-05-01T09:04:42.83Z</time></trkpt><trkpt lat="43.2890526" lon="13.2602896"><ele>298.8</ele><time>2026-05-01T09:04:43.829Z</time></trkpt><trkpt lat="43.2890431" lon="13.2604166"><ele>298.0</ele><time>2026-05-01T09:04:44.829Z</time></trkpt><trkpt lat="43.2890377" lon="13.2605467"><ele>296.8</ele><time>2026-05-01T09:04:45.83Z</time></trkpt><trkpt lat="43.2890334" lon="13.2606812"><ele>295.6</ele><time>2026-05-01T09:04:46.829Z</time></trkpt><trkpt lat="43.2890333" lon="13.2608171"><ele>294.4</ele><time>2026-05-01T09:04:47.83Z</time></trkpt><trkpt lat="43.2890344" lon="13.2609541"><ele>293.2</ele><time>2026-05-01T09:04:48.83Z</time></trkpt><trkpt lat="43.2890354" lon="13.2610908"><ele>292.0</ele><time>2026-05-01T09:04:49.83Z</time></trkpt><trkpt lat="43.2890377" lon="13.2612294"><ele>292.0</ele><time>2026-05-01T09:04:50.83Z</time></trkpt><trkpt lat="43.2890427" lon="13.2613668"><ele>292.0</ele><time>2026-05-01T09:04:51.829Z</time></trkpt><trkpt lat="43.2890447" lon="13.2615078"><ele>292.0</ele><time>2026-05-01T09:04:52.83Z</time></trkpt><trkpt lat="43.2890466" lon="13.2616456"><ele>292.0</ele><time>2026-05-01T09:04:53.831Z</time></trkpt><trkpt lat="43.2890418" lon="13.2617864"><ele>292.0</ele><time>2026-05-01T09:04:54.83Z</time></trkpt><trkpt lat="43.2890333" lon="13.2619249"><ele>291.8</ele><time>2026-05-01T09:04:55.83Z</time></trkpt><trkpt lat="43.2890228" lon="13.2620605"><ele>291.6</ele><time>2026-05-01T09:04:56.829Z</time></trkpt><trkpt lat="43.2890154" lon="13.2621934"><ele>291.40000000000003</ele><time>2026-05-01T09:04:57.829Z</time></trkpt><trkpt lat="43.2890075" lon="13.2623198"><ele>291.2</ele><time>2026-05-01T09:04:58.83Z</time></trkpt><trkpt lat="43.2889997" lon="13.2624449"><ele>291.0</ele><time>2026-05-01T09:04:59.83Z</time></trkpt><trkpt lat="43.28899" lon="13.2625695"><ele>291.0</ele><time>2026-05-01T09:05:00.83Z</time></trkpt><trkpt lat="43.2889819" lon="13.2626998"><ele>291.0</ele><time>2026-05-01T09:05:01.83Z</time></trkpt><trkpt lat="43.2889795" lon="13.262836"><ele>291.0</ele><time>2026-05-01T09:05:02.831Z</time></trkpt><trkpt lat="43.2889737" lon="13.2629736"><ele>291.0</ele><time>2026-05-01T09:05:03.83Z</time></trkpt><trkpt lat="43.2889637" lon="13.2631249"><ele>291.0</ele><time>2026-05-01T09:05:04.83Z</time></trkpt><trkpt lat="43.2889547" lon="13.2632836"><ele>290.5</ele><time>2026-05-01T09:05:05.83Z</time></trkpt><trkpt lat="43.288947" lon="13.2634473"><ele>290.0</ele><time>2026-05-01T09:05:06.83Z</time></trkpt><trkpt lat="43.2889377" lon="13.263619"><ele>289.5</ele><time>2026-05-01T09:05:07.831Z</time></trkpt><trkpt lat="43.2889246" lon="13.2637899"><ele>289.0</ele><time>2026-05-01T09:05:08.829Z</time></trkpt><trkpt lat="43.2889141" lon="13.2639601"><ele>287.25</ele><time>2026-05-01T09:05:09.829Z</time></trkpt><trkpt lat="43.2889021" lon="13.2641281"><ele>285.5</ele><time>2026-05-01T09:05:10.83Z</time></trkpt><trkpt lat="43.2888893" lon="13.2642923"><ele>283.75</ele><time>2026-05-01T09:05:11.829Z</time></trkpt><trkpt lat="43.2888757" lon="13.2644497"><ele>282.0</ele><time>2026-05-01T09:05:12.83Z</time></trkpt><trkpt lat="43.2888654" lon="13.2645994"><ele>282.0</ele><time>2026-05-01T09:05:13.83Z</time></trkpt><trkpt lat="43.2888561" lon="13.2647487"><ele>282.0</ele><time>2026-05-01T09:05:14.83Z</time></trkpt><trkpt lat="43.2888545" lon="13.2648907"><ele>282.0</ele><time>2026-05-01T09:05:15.829Z</time></trkpt><trkpt lat="43.2888571" lon="13.2650319"><ele>282.0</ele><time>2026-05-01T09:05:16.83Z</time></trkpt><trkpt lat="43.2888667" lon="13.2651718"><ele>282.0</ele><time>2026-05-01T09:05:17.829Z</time></trkpt><trkpt lat="43.2888871" lon="13.2653093"><ele>281.4</ele><time>2026-05-01T09:05:18.829Z</time></trkpt><trkpt lat="43.2889176" lon="13.2654455"><ele>280.79999999999995</ele><time>2026-05-01T09:05:19.831Z</time></trkpt><trkpt lat="43.2889521" lon="13.265579"><ele>280.2</ele><time>2026-05-01T09:05:20.83Z</time></trkpt><trkpt lat="43.2889901" lon="13.265724"><ele>279.59999999999997</ele><time>2026-05-01T09:05:21.83Z</time></trkpt><trkpt lat="43.2890338" lon="13.2658868"><ele>279.0</ele><time>2026-05-01T09:05:22.83Z</time></trkpt><trkpt lat="43.2890799" lon="13.2660623"><ele>279.0</ele><time>2026-05-01T09:05:23.828Z</time></trkpt><trkpt lat="43.2891281" lon="13.2662491"><ele>279.0</ele><time>2026-05-01T09:05:24.828Z</time></trkpt><trkpt lat="43.2891786" lon="13.2664408"><ele>279.0</ele><time>2026-05-01T09:05:25.829Z</time></trkpt><trkpt lat="43.2892288" lon="13.2666345"><ele>279.0</ele><time>2026-05-01T09:05:26.828Z</time></trkpt><trkpt lat="43.2892809" lon="13.2668287"><ele>276.6666666666667</ele><time>2026-05-01T09:05:27.828Z</time></trkpt><trkpt lat="43.2893366" lon="13.2670201"><ele>274.33333333333337</ele><time>2026-05-01T09:05:28.828Z</time></trkpt><trkpt lat="43.2893883" lon="13.267217"><ele>272.0</ele><time>2026-05-01T09:05:29.828Z</time></trkpt><trkpt lat="43.2894383" lon="13.2674155"><ele>270.75</ele><time>2026-05-01T09:05:30.829Z</time></trkpt><trkpt lat="43.2894813" lon="13.2676144"><ele>269.5</ele><time>2026-05-01T09:05:31.828Z</time></trkpt><trkpt lat="43.2895128" lon="13.2678108"><ele>268.25</ele><time>2026-05-01T09:05:32.828Z</time></trkpt><trkpt lat="43.2895401" lon="13.2680052"><ele>267.0</ele><time>2026-05-01T09:05:33.829Z</time></trkpt><trkpt lat="43.289564" lon="13.2681957"><ele>265.75</ele><time>2026-05-01T09:05:34.828Z</time></trkpt><trkpt lat="43.2895897" lon="13.2683838"><ele>264.5</ele><time>2026-05-01T09:05:35.829Z</time></trkpt><trkpt lat="43.2896134" lon="13.2685736"><ele>263.25</ele><time>2026-05-01T09:05:36.829Z</time></trkpt><trkpt lat="43.2896359" lon="13.2687638"><ele>262.0</ele><time>2026-05-01T09:05:37.829Z</time></trkpt><trkpt lat="43.2896607" lon="13.2689546"><ele>261.0</ele><time>2026-05-01T09:05:38.829Z</time></trkpt><trkpt lat="43.2896803" lon="13.2691521"><ele>260.0</ele><time>2026-05-01T09:05:39.829Z</time></trkpt><trkpt lat="43.2896985" lon="13.2693511"><ele>259.0</ele><time>2026-05-01T09:05:40.828Z</time></trkpt><trkpt lat="43.2897124" lon="13.2695492"><ele>258.0</ele><time>2026-05-01T09:05:41.83Z</time></trkpt><trkpt lat="43.2897226" lon="13.2697447"><ele>257.75</ele><time>2026-05-01T09:05:42.828Z</time></trkpt><trkpt lat="43.2897333" lon="13.2699389"><ele>257.5</ele><time>2026-05-01T09:05:43.829Z</time></trkpt><trkpt lat="43.2897449" lon="13.2701319"><ele>257.25</ele><time>2026-05-01T09:05:44.828Z</time></trkpt><trkpt lat="43.2897526" lon="13.2703238"><ele>257.0</ele><time>2026-05-01T09:05:45.829Z</time></trkpt><trkpt lat="43.2897627" lon="13.2705145"><ele>257.5</ele><time>2026-05-01T09:05:46.829Z</time></trkpt><trkpt lat="43.2897713" lon="13.2707037"><ele>258.0</ele><time>2026-05-01T09:05:47.828Z</time></trkpt><trkpt lat="43.2897783" lon="13.2708952"><ele>258.5</ele><time>2026-05-01T09:05:48.828Z</time></trkpt><trkpt lat="43.289786" lon="13.2710849"><ele>259.0</ele><time>2026-05-01T09:05:49.828Z</time></trkpt><trkpt lat="43.2897934" lon="13.2712691"><ele>259.0</ele><time>2026-05-01T09:05:50.828Z</time></trkpt><trkpt lat="43.289804" lon="13.2714516"><ele>259.0</ele><time>2026-05-01T09:05:51.828Z</time></trkpt><trkpt lat="43.2898121" lon="13.2716349"><ele>259.0</ele><time>2026-05-01T09:05:52.829Z</time></trkpt><trkpt lat="43.2898182" lon="13.271818"><ele>259.0</ele><time>2026-05-01T09:05:53.828Z</time></trkpt><trkpt lat="43.2898237" lon="13.2720032"><ele>259.0</ele><time>2026-05-01T09:05:54.829Z</time></trkpt><trkpt lat="43.2898249" lon="13.2721822"><ele>259.0</ele><time>2026-05-01T09:05:55.829Z</time></trkpt><trkpt lat="43.2898216" lon="13.2723586"><ele>259.0</ele><time>2026-05-01T09:05:56.829Z</time></trkpt><trkpt lat="43.2898228" lon="13.2725328"><ele>259.0</ele><time>2026-05-01T09:05:57.828Z</time></trkpt><trkpt lat="43.2898258" lon="13.2726998"><ele>259.0</ele><time>2026-05-01T09:05:58.828Z</time></trkpt><trkpt lat="43.2898203" lon="13.2728623"><ele>259.0</ele><time>2026-05-01T09:05:59.829Z</time></trkpt><trkpt lat="43.289797" lon="13.2730067"><ele>259.0</ele><time>2026-05-01T09:06:00.829Z</time></trkpt><trkpt lat="43.2897545" lon="13.2731258"><ele>259.0</ele><time>2026-05-01T09:06:01.83Z</time></trkpt><trkpt lat="43.2896936" lon="13.2732327"><ele>259.0</ele><time>2026-05-01T09:06:02.828Z</time></trkpt><trkpt lat="43.2896023" lon="13.2732728"><ele>259.75</ele><time>2026-05-01T09:06:03.829Z</time></trkpt><trkpt lat="43.2894992" lon="13.2732993"><ele>260.5</ele><time>2026-05-01T09:06:04.828Z</time></trkpt><trkpt lat="43.2893834" lon="13.273308"><ele>261.25</ele><time>2026-05-01T09:06:05.829Z</time></trkpt><trkpt lat="43.2892577" lon="13.2733073"><ele>262.0</ele><time>2026-05-01T09:06:06.828Z</time></trkpt><trkpt lat="43.2891277" lon="13.2732909"><ele>262.0</ele><time>2026-05-01T09:06:07.829Z</time></trkpt><trkpt lat="43.2889975" lon="13.2732665"><ele>262.0</ele><time>2026-05-01T09:06:08.829Z</time></trkpt><trkpt lat="43.2888765" lon="13.2732345"><ele>262.0</ele><time>2026-05-01T09:06:09.829Z</time></trkpt><trkpt lat="43.2887593" lon="13.2731994"><ele>262.0</ele><time>2026-05-01T09:06:10.828Z</time></trkpt><trkpt lat="43.2886509" lon="13.2731684"><ele>262.5</ele><time>2026-05-01T09:06:11.828Z</time></trkpt><trkpt lat="43.2885518" lon="13.2731588"><ele>263.0</ele><time>2026-05-01T09:06:12.828Z</time></trkpt><trkpt lat="43.2884614" lon="13.2731781"><ele>263.5</ele><time>2026-05-01T09:06:13.829Z</time></trkpt><trkpt lat="43.2883881" lon="13.273223"><ele>264.0</ele><time>2026-05-01T09:06:14.829Z</time></trkpt><trkpt lat="43.2883344" lon="13.2732919"><ele>264.5</ele><time>2026-05-01T09:06:15.828Z</time></trkpt><trkpt lat="43.2883071" lon="13.2733809"><ele>265.0</ele><time>2026-05-01T09:06:16.829Z</time></trkpt><trkpt lat="43.2883047" lon="13.2734868"><ele>265.0</ele><time>2026-05-01T09:06:17.829Z</time></trkpt><trkpt lat="43.288316" lon="13.2736042"><ele>265.0</ele><time>2026-05-01T09:06:18.829Z</time></trkpt><trkpt lat="43.2883276" lon="13.2737257"><ele>265.0</ele><time>2026-05-01T09:06:19.828Z</time></trkpt><trkpt lat="43.2883337" lon="13.2738314"><ele>265.0</ele><time>2026-05-01T09:06:20.829Z</time></trkpt><trkpt lat="43.2883245" lon="13.2739433"><ele>265.0</ele><time>2026-05-01T09:06:22.829Z</time></trkpt><trkpt lat="43.2883355" lon="13.274069"><ele>265.0</ele><time>2026-05-01T09:06:25.829Z</time></trkpt><trkpt lat="43.2883736" lon="13.2741934"><ele>264.6</ele><time>2026-05-01T09:06:27.829Z</time></trkpt><trkpt lat="43.2883922" lon="13.2743669"><ele>264.2</ele><time>2026-05-01T09:06:29.828Z</time></trkpt><trkpt lat="43.2883957" lon="13.2744797"><ele>263.8</ele><time>2026-05-01T09:06:30.83Z</time></trkpt><trkpt lat="43.2883924" lon="13.274601"><ele>263.4</ele><time>2026-05-01T09:06:31.828Z</time></trkpt><trkpt lat="43.288398" lon="13.2747338"><ele>263.0</ele><time>2026-05-01T09:06:32.829Z</time></trkpt><trkpt lat="43.2884014" lon="13.2748725"><ele>262.4</ele><time>2026-05-01T09:06:33.829Z</time></trkpt><trkpt lat="43.2884002" lon="13.2750143"><ele>261.8</ele><time>2026-05-01T09:06:34.828Z</time></trkpt><trkpt lat="43.288402" lon="13.2751627"><ele>261.2</ele><time>2026-05-01T09:06:35.828Z</time></trkpt><trkpt lat="43.2884007" lon="13.275299"><ele>260.6</ele><time>2026-05-01T09:06:36.829Z</time></trkpt><trkpt lat="43.2883982" lon="13.275419"><ele>260.0</ele><time>2026-05-01T09:06:37.829Z</time></trkpt><trkpt lat="43.2883954" lon="13.2755273"><ele>259.6666666666667</ele><time>2026-05-01T09:06:38.828Z</time></trkpt><trkpt lat="43.2884028" lon="13.275667"><ele>259.33333333333337</ele><time>2026-05-01T09:06:40.828Z</time></trkpt><trkpt lat="43.2884411" lon="13.2757484"><ele>259.0</ele><time>2026-05-01T09:06:47.829Z</time></trkpt><trkpt lat="43.2885108" lon="13.2757808"><ele>258.6666666666667</ele><time>2026-05-01T09:06:51.83Z</time></trkpt><trkpt lat="43.2885887" lon="13.2758275"><ele>258.3333333333333</ele><time>2026-05-01T09:06:54.828Z</time></trkpt><trkpt lat="43.2886521" lon="13.2758598"><ele>258.0</ele><time>2026-05-01T09:06:59.83Z</time></trkpt><trkpt lat="43.288565" lon="13.2758174"><ele>258.0</ele><time>2026-05-01T09:07:21.828Z</time></trkpt><trkpt lat="43.2884772" lon="13.2757761"><ele>258.0</ele><time>2026-05-01T09:07:23.828Z</time></trkpt><trkpt lat="43.288407" lon="13.2757913"><ele>258.0</ele><time>2026-05-01T09:07:25.829Z</time></trkpt><trkpt lat="43.2883472" lon="13.2759174"><ele>258.0</ele><time>2026-05-01T09:07:27.829Z</time></trkpt><trkpt lat="43.2883174" lon="13.2760047"><ele>258.0</ele><time>2026-05-01T09:07:28.828Z</time></trkpt><trkpt lat="43.288283" lon="13.276096"><ele>258.0</ele><time>2026-05-01T09:07:29.828Z</time></trkpt><trkpt lat="43.2882472" lon="13.2761856"><ele>258.0</ele><time>2026-05-01T09:07:30.829Z</time></trkpt><trkpt lat="43.2882068" lon="13.2762755"><ele>258.0</ele><time>2026-05-01T09:07:31.829Z</time></trkpt><trkpt lat="43.2881666" lon="13.276368"><ele>258.0</ele><time>2026-05-01T09:07:32.829Z</time></trkpt><trkpt lat="43.2881301" lon="13.2764753"><ele>258.0</ele><time>2026-05-01T09:07:33.828Z</time></trkpt><trkpt lat="43.2880934" lon="13.2766072"><ele>258.0</ele><time>2026-05-01T09:07:34.828Z</time></trkpt><trkpt lat="43.2880548" lon="13.2767597"><ele>257.5</ele><time>2026-05-01T09:07:35.828Z</time></trkpt><trkpt lat="43.2879987" lon="13.2769313"><ele>257.0</ele><time>2026-05-01T09:07:36.829Z</time></trkpt><trkpt lat="43.2879352" lon="13.2770984"><ele>256.5</ele><time>2026-05-01T09:07:37.829Z</time></trkpt><trkpt lat="43.287859" lon="13.2772613"><ele>256.0</ele><time>2026-05-01T09:07:38.829Z</time></trkpt><trkpt lat="43.2877695" lon="13.2774013"><ele>256.0</ele><time>2026-05-01T09:07:39.829Z</time></trkpt><trkpt lat="43.2876775" lon="13.2775247"><ele>256.0</ele><time>2026-05-01T09:07:40.83Z</time></trkpt><trkpt lat="43.2875886" lon="13.2776317"><ele>256.0</ele><time>2026-05-01T09:07:41.829Z</time></trkpt><trkpt lat="43.2875102" lon="13.277729"><ele>256.0</ele><time>2026-05-01T09:07:42.829Z</time></trkpt><trkpt lat="43.2874428" lon="13.2778267"><ele>256.0</ele><time>2026-05-01T09:07:43.828Z</time></trkpt><trkpt lat="43.2873791" lon="13.2779221"><ele>256.0</ele><time>2026-05-01T09:07:44.829Z</time></trkpt><trkpt lat="43.2873211" lon="13.2780253"><ele>256.0</ele><time>2026-05-01T09:07:45.829Z</time></trkpt><trkpt lat="43.2872607" lon="13.2781377"><ele>256.0</ele><time>2026-05-01T09:07:46.829Z</time></trkpt><trkpt lat="43.2872044" lon="13.2782599"><ele>256.0</ele><time>2026-05-01T09:07:47.83Z</time></trkpt><trkpt lat="43.2871574" lon="13.2783857"><ele>254.8</ele><time>2026-05-01T09:07:48.829Z</time></trkpt><trkpt lat="43.2871159" lon="13.2785154"><ele>253.60000000000002</ele><time>2026-05-01T09:07:49.829Z</time></trkpt><trkpt lat="43.2870826" lon="13.2786512"><ele>252.4</ele><time>2026-05-01T09:07:50.828Z</time></trkpt><trkpt lat="43.2870568" lon="13.2787945"><ele>251.2</ele><time>2026-05-01T09:07:51.829Z</time></trkpt><trkpt lat="43.2870393" lon="13.2789401"><ele>250.0</ele><time>2026-05-01T09:07:52.828Z</time></trkpt><trkpt lat="43.2870261" lon="13.2790892"><ele>248.25</ele><time>2026-05-01T09:07:53.829Z</time></trkpt><trkpt lat="43.2870036" lon="13.2792451"><ele>246.5</ele><time>2026-05-01T09:07:54.83Z</time></trkpt><trkpt lat="43.2869754" lon="13.2794024"><ele>244.75</ele><time>2026-05-01T09:07:55.829Z</time></trkpt><trkpt lat="43.2869445" lon="13.2795661"><ele>243.0</ele><time>2026-05-01T09:07:56.829Z</time></trkpt><trkpt lat="43.2869086" lon="13.2797333"><ele>241.0</ele><time>2026-05-01T09:07:57.829Z</time></trkpt><trkpt lat="43.2868622" lon="13.2798929"><ele>239.0</ele><time>2026-05-01T09:07:58.829Z</time></trkpt><trkpt lat="43.2868101" lon="13.2800505"><ele>237.0</ele><time>2026-05-01T09:07:59.829Z</time></trkpt><trkpt lat="43.2867521" lon="13.2802007"><ele>235.0</ele><time>2026-05-01T09:08:00.829Z</time></trkpt><trkpt lat="43.2866869" lon="13.2803438"><ele>235.0</ele><time>2026-05-01T09:08:01.828Z</time></trkpt><trkpt lat="43.2866168" lon="13.2804753"><ele>235.0</ele><time>2026-05-01T09:08:02.828Z</time></trkpt><trkpt lat="43.2865435" lon="13.2805967"><ele>235.0</ele><time>2026-05-01T09:08:03.828Z</time></trkpt><trkpt lat="43.2864704" lon="13.2807154"><ele>235.0</ele><time>2026-05-01T09:08:04.829Z</time></trkpt><trkpt lat="43.2863974" lon="13.2808287"><ele>233.6</ele><time>2026-05-01T09:08:05.829Z</time></trkpt><trkpt lat="43.2863265" lon="13.2809411"><ele>232.2</ele><time>2026-05-01T09:08:06.828Z</time></trkpt><trkpt lat="43.2862545" lon="13.2810595"><ele>230.8</ele><time>2026-05-01T09:08:07.83Z</time></trkpt><trkpt lat="43.2861864" lon="13.2811793"><ele>229.4</ele><time>2026-05-01T09:08:08.828Z</time></trkpt><trkpt lat="43.2861269" lon="13.2813064"><ele>228.0</ele><time>2026-05-01T09:08:09.829Z</time></trkpt><trkpt lat="43.286068" lon="13.2814358"><ele>228.0</ele><time>2026-05-01T09:08:10.829Z</time></trkpt><trkpt lat="43.2860106" lon="13.2815649"><ele>228.0</ele><time>2026-05-01T09:08:11.829Z</time></trkpt><trkpt lat="43.2859614" lon="13.2816954"><ele>228.0</ele><time>2026-05-01T09:08:12.829Z</time></trkpt><trkpt lat="43.2859231" lon="13.2818347"><ele>228.0</ele><time>2026-05-01T09:08:13.828Z</time></trkpt><trkpt lat="43.2858807" lon="13.2819675"><ele>228.0</ele><time>2026-05-01T09:08:14.829Z</time></trkpt><trkpt lat="43.2858473" lon="13.2821029"><ele>228.0</ele><time>2026-05-01T09:08:15.829Z</time></trkpt><trkpt lat="43.2858203" lon="13.2822431"><ele>228.0</ele><time>2026-05-01T09:08:16.828Z</time></trkpt><trkpt lat="43.2857893" lon="13.2823824"><ele>228.0</ele><time>2026-05-01T09:08:17.828Z</time></trkpt><trkpt lat="43.2857503" lon="13.2825129"><ele>228.0</ele><time>2026-05-01T09:08:18.829Z</time></trkpt><trkpt lat="43.2857095" lon="13.282639"><ele>228.0</ele><time>2026-05-01T09:08:19.829Z</time></trkpt><trkpt lat="43.2856609" lon="13.2827556"><ele>228.0</ele><time>2026-05-01T09:08:20.828Z</time></trkpt><trkpt lat="43.2856058" lon="13.2828636"><ele>228.0</ele><time>2026-05-01T09:08:21.828Z</time></trkpt><trkpt lat="43.2855509" lon="13.2829592"><ele>228.0</ele><time>2026-05-01T09:08:22.829Z</time></trkpt><trkpt lat="43.2855089" lon="13.2830585"><ele>228.0</ele><time>2026-05-01T09:08:23.828Z</time></trkpt><trkpt lat="43.285496" lon="13.2831625"><ele>228.0</ele><time>2026-05-01T09:08:24.828Z</time></trkpt><trkpt lat="43.2855129" lon="13.2832609"><ele>228.0</ele><time>2026-05-01T09:08:25.829Z</time></trkpt><trkpt lat="43.2855553" lon="13.2833508"><ele>227.4</ele><time>2026-05-01T09:08:26.829Z</time></trkpt><trkpt lat="43.2856133" lon="13.2834334"><ele>226.8</ele><time>2026-05-01T09:08:27.829Z</time></trkpt><trkpt lat="43.2856833" lon="13.2835134"><ele>226.2</ele><time>2026-05-01T09:08:28.828Z</time></trkpt><trkpt lat="43.2857616" lon="13.2835903"><ele>225.6</ele><time>2026-05-01T09:08:29.828Z</time></trkpt><trkpt lat="43.2858434" lon="13.283672"><ele>225.0</ele><time>2026-05-01T09:08:30.829Z</time></trkpt><trkpt lat="43.2859239" lon="13.2837633"><ele>225.0</ele><time>2026-05-01T09:08:31.829Z</time></trkpt><trkpt lat="43.286005" lon="13.2838578"><ele>225.0</ele><time>2026-05-01T09:08:32.828Z</time></trkpt><trkpt lat="43.2860927" lon="13.283951"><ele>225.0</ele><time>2026-05-01T09:08:33.829Z</time></trkpt><trkpt lat="43.2861882" lon="13.2840439"><ele>225.0</ele><time>2026-05-01T09:08:34.829Z</time></trkpt><trkpt lat="43.2862828" lon="13.2841445"><ele>225.0</ele><time>2026-05-01T09:08:35.829Z</time></trkpt><trkpt lat="43.2863736" lon="13.284243"><ele>225.0</ele><time>2026-05-01T09:08:36.828Z</time></trkpt><trkpt lat="43.2864621" lon="13.2843454"><ele>225.0</ele><time>2026-05-01T09:08:37.829Z</time></trkpt><trkpt lat="43.2865481" lon="13.2844488"><ele>225.0</ele><time>2026-05-01T09:08:38.828Z</time></trkpt><trkpt lat="43.2866287" lon="13.2845579"><ele>223.75</ele><time>2026-05-01T09:08:39.829Z</time></trkpt><trkpt lat="43.2867106" lon="13.2846657"><ele>222.5</ele><time>2026-05-01T09:08:40.829Z</time></trkpt><trkpt lat="43.2868001" lon="13.2847683"><ele>221.25</ele><time>2026-05-01T09:08:41.828Z</time></trkpt><trkpt lat="43.2868885" lon="13.2848846"><ele>220.0</ele><time>2026-05-01T09:08:42.829Z</time></trkpt><trkpt lat="43.2869788" lon="13.2849984"><ele>220.0</ele><time>2026-05-01T09:08:43.828Z</time></trkpt><trkpt lat="43.2870799" lon="13.2851149"><ele>220.0</ele><time>2026-05-01T09:08:44.829Z</time></trkpt><trkpt lat="43.2871838" lon="13.2852414"><ele>220.0</ele><time>2026-05-01T09:08:45.83Z</time></trkpt><trkpt lat="43.2872792" lon="13.2853802"><ele>220.0</ele><time>2026-05-01T09:08:46.83Z</time></trkpt><trkpt lat="43.2873746" lon="13.2855154"><ele>216.75</ele><time>2026-05-01T09:08:47.83Z</time></trkpt><trkpt lat="43.2874803" lon="13.2856313"><ele>213.5</ele><time>2026-05-01T09:08:48.829Z</time></trkpt><trkpt lat="43.2875788" lon="13.2857631"><ele>210.25</ele><time>2026-05-01T09:08:49.828Z</time></trkpt><trkpt lat="43.2876747" lon="13.285896"><ele>207.0</ele><time>2026-05-01T09:08:50.828Z</time></trkpt><trkpt lat="43.2877733" lon="13.2860242"><ele>207.0</ele><time>2026-05-01T09:08:51.828Z</time></trkpt><trkpt lat="43.2878679" lon="13.2861464"><ele>207.0</ele><time>2026-05-01T09:08:52.828Z</time></trkpt><trkpt lat="43.2879569" lon="13.2862702"><ele>207.0</ele><time>2026-05-01T09:08:53.829Z</time></trkpt><trkpt lat="43.2880415" lon="13.2863868"><ele>207.0</ele><time>2026-05-01T09:08:54.829Z</time></trkpt><trkpt lat="43.2881172" lon="13.2864886"><ele>206.16666666666666</ele><time>2026-05-01T09:08:55.828Z</time></trkpt><trkpt lat="43.2881845" lon="13.2865785"><ele>205.33333333333331</ele><time>2026-05-01T09:08:56.829Z</time></trkpt><trkpt lat="43.288241" lon="13.2866541"><ele>204.5</ele><time>2026-05-01T09:08:57.829Z</time></trkpt><trkpt lat="43.2883109" lon="13.2867385"><ele>203.66666666666666</ele><time>2026-05-01T09:08:59.829Z</time></trkpt><trkpt lat="43.2883857" lon="13.2867153"><ele>202.83333333333331</ele><time>2026-05-01T09:09:05.829Z</time></trkpt><trkpt lat="43.2884425" lon="13.2866077"><ele>202.0</ele><time>2026-05-01T09:09:07.828Z</time></trkpt><trkpt lat="43.2885172" lon="13.2864695"><ele>202.33333333333331</ele><time>2026-05-01T09:09:09.828Z</time></trkpt><trkpt lat="43.2885615" lon="13.2863885"><ele>202.66666666666666</ele><time>2026-05-01T09:09:10.828Z</time></trkpt><trkpt lat="43.2886102" lon="13.2862928"><ele>203.0</ele><time>2026-05-01T09:09:11.829Z</time></trkpt><trkpt lat="43.2886587" lon="13.2861868"><ele>203.33333333333331</ele><time>2026-05-01T09:09:12.829Z</time></trkpt><trkpt lat="43.2887144" lon="13.2860783"><ele>203.66666666666666</ele><time>2026-05-01T09:09:13.828Z</time></trkpt><trkpt lat="43.2887778" lon="13.2859722"><ele>204.0</ele><time>2026-05-01T09:09:14.829Z</time></trkpt><trkpt lat="43.2888406" lon="13.2858567"><ele>204.0</ele><time>2026-05-01T09:09:15.829Z</time></trkpt><trkpt lat="43.2889082" lon="13.2857282"><ele>204.0</ele><time>2026-05-01T09:09:16.829Z</time></trkpt><trkpt lat="43.2889756" lon="13.2855801"><ele>204.0</ele><time>2026-05-01T09:09:17.829Z</time></trkpt><trkpt lat="43.2890427" lon="13.285389"><ele>204.0</ele><time>2026-05-01T09:09:18.828Z</time></trkpt><trkpt lat="43.2890976" lon="13.2851706"><ele>204.33333333333331</ele><time>2026-05-01T09:09:19.828Z</time></trkpt><trkpt lat="43.289145" lon="13.2849107"><ele>204.66666666666666</ele><time>2026-05-01T09:09:20.829Z</time></trkpt><trkpt lat="43.2891923" lon="13.2846229"><ele>205.0</ele><time>2026-05-01T09:09:21.829Z</time></trkpt><trkpt lat="43.2892394" lon="13.2843187"><ele>205.0</ele><time>2026-05-01T09:09:22.829Z</time></trkpt><trkpt lat="43.2892894" lon="13.28403"><ele>205.0</ele><time>2026-05-01T09:09:23.829Z</time></trkpt><trkpt lat="43.2893438" lon="13.2837578"><ele>205.0</ele><time>2026-05-01T09:09:24.828Z</time></trkpt><trkpt lat="43.2893856" lon="13.2835014"><ele>206.0</ele><time>2026-05-01T09:09:25.829Z</time></trkpt><trkpt lat="43.2894258" lon="13.2832516"><ele>207.0</ele><time>2026-05-01T09:09:26.828Z</time></trkpt><trkpt lat="43.289472" lon="13.2830051"><ele>208.0</ele><time>2026-05-01T09:09:27.829Z</time></trkpt><trkpt lat="43.2895304" lon="13.2827579"><ele>209.33333333333331</ele><time>2026-05-01T09:09:28.829Z</time></trkpt><trkpt lat="43.2895986" lon="13.2825269"><ele>210.66666666666669</ele><time>2026-05-01T09:09:29.828Z</time></trkpt><trkpt lat="43.2896795" lon="13.2823135"><ele>212.0</ele><time>2026-05-01T09:09:30.83Z</time></trkpt><trkpt lat="43.2897708" lon="13.2821176"><ele>212.33333333333334</ele><time>2026-05-01T09:09:31.828Z</time></trkpt><trkpt lat="43.2898632" lon="13.2819365"><ele>212.66666666666669</ele><time>2026-05-01T09:09:32.829Z</time></trkpt><trkpt lat="43.2899528" lon="13.2817611"><ele>213.0</ele><time>2026-05-01T09:09:33.829Z</time></trkpt><trkpt lat="43.2900404" lon="13.2815964"><ele>213.0</ele><time>2026-05-01T09:09:34.828Z</time></trkpt><trkpt lat="43.2901279" lon="13.2814392"><ele>213.0</ele><time>2026-05-01T09:09:35.829Z</time></trkpt><trkpt lat="43.2902172" lon="13.2813038"><ele>213.0</ele><time>2026-05-01T09:09:36.829Z</time></trkpt><trkpt lat="43.2903162" lon="13.2811905"><ele>213.0</ele><time>2026-05-01T09:09:37.828Z</time></trkpt><trkpt lat="43.2904195" lon="13.2810863"><ele>212.25</ele><time>2026-05-01T09:09:38.829Z</time></trkpt><trkpt lat="43.2905262" lon="13.2809753"><ele>211.5</ele><time>2026-05-01T09:09:39.829Z</time></trkpt><trkpt lat="43.2906328" lon="13.2808693"><ele>210.75</ele><time>2026-05-01T09:09:40.829Z</time></trkpt><trkpt lat="43.2907377" lon="13.2807665"><ele>210.0</ele><time>2026-05-01T09:09:41.828Z</time></trkpt><trkpt lat="43.2908385" lon="13.2806653"><ele>211.0</ele><time>2026-05-01T09:09:42.828Z</time></trkpt><trkpt lat="43.2909316" lon="13.2805574"><ele>212.0</ele><time>2026-05-01T09:09:43.829Z</time></trkpt><trkpt lat="43.291014" lon="13.2804378"><ele>213.0</ele><time>2026-05-01T09:09:44.829Z</time></trkpt><trkpt lat="43.2910777" lon="13.2802958"><ele>214.0</ele><time>2026-05-01T09:09:45.829Z</time></trkpt><trkpt lat="43.2911332" lon="13.280149"><ele>214.0</ele><time>2026-05-01T09:09:46.83Z</time></trkpt><trkpt lat="43.2911993" lon="13.2800147"><ele>214.0</ele><time>2026-05-01T09:09:47.829Z</time></trkpt><trkpt lat="43.2912809" lon="13.2798978"><ele>214.0</ele><time>2026-05-01T09:09:48.83Z</time></trkpt><trkpt lat="43.291375" lon="13.2798013"><ele>214.0</ele><time>2026-05-01T09:09:49.83Z</time></trkpt><trkpt lat="43.2914817" lon="13.2797135"><ele>211.0</ele><time>2026-05-01T09:09:50.83Z</time></trkpt><trkpt lat="43.2915868" lon="13.2796414"><ele>208.0</ele><time>2026-05-01T09:09:51.829Z</time></trkpt><trkpt lat="43.291695" lon="13.2795745"><ele>205.0</ele><time>2026-05-01T09:09:52.829Z</time></trkpt><trkpt lat="43.2917994" lon="13.2795187"><ele>202.0</ele><time>2026-05-01T09:09:53.829Z</time></trkpt><trkpt lat="43.2918999" lon="13.2794635"><ele>201.99999999999997</ele><time>2026-05-01T09:09:54.828Z</time></trkpt><trkpt lat="43.2919923" lon="13.2794054"><ele>202.0</ele><time>2026-05-01T09:09:55.828Z</time></trkpt><trkpt lat="43.2920828" lon="13.2793478"><ele>202.0</ele><time>2026-05-01T09:09:56.829Z</time></trkpt><trkpt lat="43.292164" lon="13.2793035"><ele>202.0</ele><time>2026-05-01T09:09:57.83Z</time></trkpt><trkpt lat="43.2922315" lon="13.2792697"><ele>201.99999999999997</ele><time>2026-05-01T09:09:58.828Z</time></trkpt><trkpt lat="43.2922907" lon="13.2792375"><ele>202.0</ele><time>2026-05-01T09:09:59.829Z</time></trkpt><trkpt lat="43.2923809" lon="13.2791922"><ele>201.66666666666666</ele><time>2026-05-01T09:10:01.828Z</time></trkpt><trkpt lat="43.2924478" lon="13.2791692"><ele>201.33333333333331</ele><time>2026-05-01T09:10:03.829Z</time></trkpt><trkpt lat="43.2925224" lon="13.279174"><ele>201.0</ele><time>2026-05-01T09:10:05.828Z</time></trkpt><trkpt lat="43.2925999" lon="13.2791908"><ele>200.66666666666669</ele><time>2026-05-01T09:10:07.829Z</time></trkpt><trkpt lat="43.2926832" lon="13.2792194"><ele>200.33333333333334</ele><time>2026-05-01T09:10:09.829Z</time></trkpt><trkpt lat="43.2927811" lon="13.2792585"><ele>200.0</ele><time>2026-05-01T09:10:11.828Z</time></trkpt><trkpt lat="43.2928991" lon="13.2793134"><ele>200.00000000000003</ele><time>2026-05-01T09:10:13.83Z</time></trkpt><trkpt lat="43.2929611" lon="13.2793513"><ele>200.0</ele><time>2026-05-01T09:10:14.829Z</time></trkpt><trkpt lat="43.2930207" lon="13.2793976"><ele>200.0</ele><time>2026-05-01T09:10:15.828Z</time></trkpt><trkpt lat="43.293077" lon="13.279454"><ele>200.0</ele><time>2026-05-01T09:10:16.83Z</time></trkpt><trkpt lat="43.2931283" lon="13.2795217"><ele>200.0</ele><time>2026-05-01T09:10:17.828Z</time></trkpt><trkpt lat="43.2931704" lon="13.2796016"><ele>200.00000000000003</ele><time>2026-05-01T09:10:18.828Z</time></trkpt><trkpt lat="43.2932033" lon="13.2796931"><ele>200.0</ele><time>2026-05-01T09:10:19.829Z</time></trkpt><trkpt lat="43.2932305" lon="13.279793"><ele>200.00000000000003</ele><time>2026-05-01T09:10:20.828Z</time></trkpt><trkpt lat="43.2932565" lon="13.279903"><ele>200.0</ele><time>2026-05-01T09:10:21.829Z</time></trkpt><trkpt lat="43.2932839" lon="13.2800099"><ele>200.0</ele><time>2026-05-01T09:10:22.828Z</time></trkpt><trkpt lat="43.29331" lon="13.280119"><ele>200.0</ele><time>2026-05-01T09:10:23.829Z</time></trkpt><trkpt lat="43.2933344" lon="13.2802283"><ele>200.00000000000003</ele><time>2026-05-01T09:10:24.83Z</time></trkpt><trkpt lat="43.29336" lon="13.2803339"><ele>200.0</ele><time>2026-05-01T09:10:25.828Z</time></trkpt><trkpt lat="43.2933876" lon="13.2804377"><ele>200.00000000000003</ele><time>2026-05-01T09:10:26.828Z</time></trkpt><trkpt lat="43.293413" lon="13.2805408"><ele>200.0</ele><time>2026-05-01T09:10:27.828Z</time></trkpt><trkpt lat="43.2934308" lon="13.2806459"><ele>200.0</ele><time>2026-05-01T09:10:28.829Z</time></trkpt><trkpt lat="43.2934501" lon="13.2807495"><ele>200.0</ele><time>2026-05-01T09:10:29.828Z</time></trkpt><trkpt lat="43.2934646" lon="13.2808582"><ele>200.00000000000003</ele><time>2026-05-01T09:10:30.83Z</time></trkpt><trkpt lat="43.2934848" lon="13.2809634"><ele>200.0</ele><time>2026-05-01T09:10:31.829Z</time></trkpt><trkpt lat="43.2935199" lon="13.2810593"><ele>200.83333333333334</ele><time>2026-05-01T09:10:32.828Z</time></trkpt><trkpt lat="43.2935739" lon="13.281137"><ele>201.66666666666669</ele><time>2026-05-01T09:10:33.828Z</time></trkpt><trkpt lat="43.2936428" lon="13.2811941"><ele>202.5</ele><time>2026-05-01T09:10:34.829Z</time></trkpt><trkpt lat="43.2937212" lon="13.2812303"><ele>203.33333333333331</ele><time>2026-05-01T09:10:35.828Z</time></trkpt><trkpt lat="43.2938024" lon="13.2812565"><ele>204.16666666666666</ele><time>2026-05-01T09:10:36.829Z</time></trkpt><trkpt lat="43.2938875" lon="13.281279"><ele>205.0</ele><time>2026-05-01T09:10:37.829Z</time></trkpt><trkpt lat="43.2939716" lon="13.2813039"><ele>206.16666666666666</ele><time>2026-05-01T09:10:38.828Z</time></trkpt><trkpt lat="43.2940527" lon="13.2813299"><ele>207.33333333333331</ele><time>2026-05-01T09:10:39.829Z</time></trkpt><trkpt lat="43.2941335" lon="13.2813546"><ele>208.5</ele><time>2026-05-01T09:10:40.83Z</time></trkpt><trkpt lat="43.2942188" lon="13.2813863"><ele>209.66666666666669</ele><time>2026-05-01T09:10:41.829Z</time></trkpt><trkpt lat="43.2943039" lon="13.2814118"><ele>210.83333333333334</ele><time>2026-05-01T09:10:42.828Z</time></trkpt><trkpt lat="43.2943847" lon="13.2814315"><ele>212.0</ele><time>2026-05-01T09:10:43.828Z</time></trkpt><trkpt lat="43.2944804" lon="13.2814495"><ele>213.2</ele><time>2026-05-01T09:10:44.829Z</time></trkpt><trkpt lat="43.294575" lon="13.2814652"><ele>214.39999999999998</ele><time>2026-05-01T09:10:45.828Z</time></trkpt><trkpt lat="43.2946717" lon="13.2814858"><ele>215.60000000000002</ele><time>2026-05-01T09:10:46.829Z</time></trkpt><trkpt lat="43.2947729" lon="13.2815147"><ele>216.8</ele><time>2026-05-01T09:10:47.829Z</time></trkpt><trkpt lat="43.2948783" lon="13.2815477"><ele>218.0</ele><time>2026-05-01T09:10:48.828Z</time></trkpt><trkpt lat="43.2949915" lon="13.2815834"><ele>219.75</ele><time>2026-05-01T09:10:49.828Z</time></trkpt><trkpt lat="43.2951074" lon="13.2816231"><ele>221.5</ele><time>2026-05-01T09:10:50.829Z</time></trkpt><trkpt lat="43.295226" lon="13.2816639"><ele>223.25</ele><time>2026-05-01T09:10:51.828Z</time></trkpt><trkpt lat="43.2953508" lon="13.2817013"><ele>225.0</ele><time>2026-05-01T09:10:52.829Z</time></trkpt><trkpt lat="43.2954804" lon="13.2817359"><ele>226.25</ele><time>2026-05-01T09:10:53.829Z</time></trkpt><trkpt lat="43.2956145" lon="13.281771"><ele>227.5</ele><time>2026-05-01T09:10:54.829Z</time></trkpt><trkpt lat="43.2957511" lon="13.2818041"><ele>228.75</ele><time>2026-05-01T09:10:55.829Z</time></trkpt><trkpt lat="43.2958872" lon="13.2818384"><ele>230.0</ele><time>2026-05-01T09:10:56.828Z</time></trkpt><trkpt lat="43.2960328" lon="13.2818584"><ele>230.0</ele><time>2026-05-01T09:10:57.828Z</time></trkpt><trkpt lat="43.2961861" lon="13.2818687"><ele>230.0</ele><time>2026-05-01T09:10:58.829Z</time></trkpt><trkpt lat="43.2963434" lon="13.281888"><ele>230.0</ele><time>2026-05-01T09:10:59.828Z</time></trkpt><trkpt lat="43.2964996" lon="13.2819139"><ele>231.5</ele><time>2026-05-01T09:11:00.829Z</time></trkpt><trkpt lat="43.2966504" lon="13.2819523"><ele>233.0</ele><time>2026-05-01T09:11:01.828Z</time></trkpt><trkpt lat="43.2967943" lon="13.2820016"><ele>234.5</ele><time>2026-05-01T09:11:02.829Z</time></trkpt><trkpt lat="43.2969312" lon="13.2820513"><ele>236.0</ele><time>2026-05-01T09:11:03.828Z</time></trkpt><trkpt lat="43.2970615" lon="13.282104"><ele>236.0</ele><time>2026-05-01T09:11:04.829Z</time></trkpt><trkpt lat="43.2971837" lon="13.2821551"><ele>236.0</ele><time>2026-05-01T09:11:05.828Z</time></trkpt><trkpt lat="43.2973006" lon="13.2822072"><ele>236.0</ele><time>2026-05-01T09:11:06.829Z</time></trkpt><trkpt lat="43.2974095" lon="13.2822661"><ele>236.0</ele><time>2026-05-01T09:11:07.828Z</time></trkpt><trkpt lat="43.2975183" lon="13.282323"><ele>237.75</ele><time>2026-05-01T09:11:08.828Z</time></trkpt><trkpt lat="43.2976285" lon="13.2823827"><ele>239.5</ele><time>2026-05-01T09:11:09.829Z</time></trkpt><trkpt lat="43.2977457" lon="13.2824285"><ele>241.25</ele><time>2026-05-01T09:11:10.829Z</time></trkpt><trkpt lat="43.2978704" lon="13.2824628"><ele>243.0</ele><time>2026-05-01T09:11:11.828Z</time></trkpt><trkpt lat="43.297999" lon="13.2824923"><ele>242.75</ele><time>2026-05-01T09:11:12.829Z</time></trkpt><trkpt lat="43.2981313" lon="13.2825194"><ele>242.5</ele><time>2026-05-01T09:11:13.828Z</time></trkpt><trkpt lat="43.2982668" lon="13.2825417"><ele>242.25</ele><time>2026-05-01T09:11:14.828Z</time></trkpt><trkpt lat="43.2984066" lon="13.2825662"><ele>242.0</ele><time>2026-05-01T09:11:15.828Z</time></trkpt><trkpt lat="43.2985498" lon="13.2825931"><ele>242.0</ele><time>2026-05-01T09:11:16.829Z</time></trkpt><trkpt lat="43.2986986" lon="13.2826234"><ele>242.0</ele><time>2026-05-01T09:11:17.829Z</time></trkpt><trkpt lat="43.2988451" lon="13.2826366"><ele>242.0</ele><time>2026-05-01T09:11:18.829Z</time></trkpt><trkpt lat="43.2989817" lon="13.2826197"><ele>242.0</ele><time>2026-05-01T09:11:19.828Z</time></trkpt><trkpt lat="43.2991214" lon="13.2825737"><ele>241.66666666666669</ele><time>2026-05-01T09:11:20.828Z</time></trkpt><trkpt lat="43.2992656" lon="13.2825166"><ele>241.33333333333331</ele><time>2026-05-01T09:11:21.83Z</time></trkpt><trkpt lat="43.2994136" lon="13.2824567"><ele>241.0</ele><time>2026-05-01T09:11:22.829Z</time></trkpt><trkpt lat="43.2995628" lon="13.2824002"><ele>241.0</ele><time>2026-05-01T09:11:23.828Z</time></trkpt><trkpt lat="43.2997077" lon="13.2823452"><ele>241.0</ele><time>2026-05-01T09:11:24.829Z</time></trkpt><trkpt lat="43.2998571" lon="13.2822907"><ele>241.0</ele><time>2026-05-01T09:11:25.828Z</time></trkpt><trkpt lat="43.3000102" lon="13.282234"><ele>241.33333333333331</ele><time>2026-05-01T09:11:26.829Z</time></trkpt><trkpt lat="43.3001705" lon="13.2821821"><ele>241.66666666666669</ele><time>2026-05-01T09:11:27.829Z</time></trkpt><trkpt lat="43.3003345" lon="13.2821264"><ele>242.0</ele><time>2026-05-01T09:11:28.829Z</time></trkpt><trkpt lat="43.3005024" lon="13.2820727"><ele>242.0</ele><time>2026-05-01T09:11:29.829Z</time></trkpt><trkpt lat="43.3006657" lon="13.28202"><ele>242.0</ele><time>2026-05-01T09:11:30.829Z</time></trkpt><trkpt lat="43.3008297" lon="13.2819631"><ele>242.0</ele><time>2026-05-01T09:11:31.828Z</time></trkpt><trkpt lat="43.3009898" lon="13.2819059"><ele>242.0</ele><time>2026-05-01T09:11:32.829Z</time></trkpt><trkpt lat="43.3011451" lon="13.281855"><ele>242.0</ele><time>2026-05-01T09:11:33.829Z</time></trkpt><trkpt lat="43.3012932" lon="13.2818144"><ele>242.0</ele><time>2026-05-01T09:11:34.828Z</time></trkpt><trkpt lat="43.3014358" lon="13.2817679"><ele>242.75</ele><time>2026-05-01T09:11:35.829Z</time></trkpt><trkpt lat="43.3015679" lon="13.2817155"><ele>243.5</ele><time>2026-05-01T09:11:36.828Z</time></trkpt><trkpt lat="43.3016985" lon="13.2816679"><ele>244.25</ele><time>2026-05-01T09:11:37.829Z</time></trkpt><trkpt lat="43.3018259" lon="13.2816258"><ele>245.0</ele><time>2026-05-01T09:11:38.829Z</time></trkpt><trkpt lat="43.3019418" lon="13.2815993"><ele>245.0</ele><time>2026-05-01T09:11:39.828Z</time></trkpt><trkpt lat="43.3020549" lon="13.2815943"><ele>245.0</ele><time>2026-05-01T09:11:40.828Z</time></trkpt><trkpt lat="43.3021591" lon="13.2816237"><ele>245.0</ele><time>2026-05-01T09:11:41.828Z</time></trkpt><trkpt lat="43.3022519" lon="13.2816887"><ele>245.0</ele><time>2026-05-01T09:11:42.828Z</time></trkpt><trkpt lat="43.3023481" lon="13.2817616"><ele>245.0</ele><time>2026-05-01T09:11:43.828Z</time></trkpt><trkpt lat="43.3024574" lon="13.2818163"><ele>245.75</ele><time>2026-05-01T09:11:44.828Z</time></trkpt><trkpt lat="43.3025788" lon="13.2818367"><ele>246.5</ele><time>2026-05-01T09:11:45.828Z</time></trkpt><trkpt lat="43.3027089" lon="13.2818351"><ele>247.25</ele><time>2026-05-01T09:11:46.829Z</time></trkpt><trkpt lat="43.3028453" lon="13.2818225"><ele>248.0</ele><time>2026-05-01T09:11:47.829Z</time></trkpt><trkpt lat="43.3029962" lon="13.2818137"><ele>250.0</ele><time>2026-05-01T09:11:48.829Z</time></trkpt><trkpt lat="43.3031561" lon="13.2818068"><ele>252.0</ele><time>2026-05-01T09:11:49.83Z</time></trkpt><trkpt lat="43.3033184" lon="13.2817747"><ele>254.0</ele><time>2026-05-01T09:11:50.829Z</time></trkpt><trkpt lat="43.3034855" lon="13.2817148"><ele>254.0</ele><time>2026-05-01T09:11:51.828Z</time></trkpt><trkpt lat="43.3036569" lon="13.2816555"><ele>254.0</ele><time>2026-05-01T09:11:52.828Z</time></trkpt><trkpt lat="43.3038295" lon="13.281601"><ele>254.0</ele><time>2026-05-01T09:11:53.829Z</time></trkpt><trkpt lat="43.3039981" lon="13.2815453"><ele>257.25</ele><time>2026-05-01T09:11:54.828Z</time></trkpt><trkpt lat="43.3041538" lon="13.2814963"><ele>260.5</ele><time>2026-05-01T09:11:55.83Z</time></trkpt><trkpt lat="43.3042937" lon="13.2814502"><ele>263.75</ele><time>2026-05-01T09:11:56.828Z</time></trkpt><trkpt lat="43.3044196" lon="13.2814107"><ele>267.0</ele><time>2026-05-01T09:11:57.829Z</time></trkpt><trkpt lat="43.3045297" lon="13.2813728"><ele>267.0</ele><time>2026-05-01T09:11:58.829Z</time></trkpt><trkpt lat="43.3046204" lon="13.2813479"><ele>267.0</ele><time>2026-05-01T09:11:59.829Z</time></trkpt><trkpt lat="43.3046942" lon="13.2813339"><ele>267.0</ele><time>2026-05-01T09:12:00.828Z</time></trkpt><trkpt lat="43.3048048" lon="13.2813351"><ele>267.0</ele><time>2026-05-01T09:12:02.83Z</time></trkpt><trkpt lat="43.3048887" lon="13.2813493"><ele>267.0</ele><time>2026-05-01T09:12:05.828Z</time></trkpt><trkpt lat="43.3048698" lon="13.2814465"><ele>267.0</ele><time>2026-05-01T09:12:13.829Z</time></trkpt><trkpt lat="43.3048534" lon="13.2816102"><ele>267.2</ele><time>2026-05-01T09:12:15.828Z</time></trkpt><trkpt lat="43.3048333" lon="13.2817784"><ele>267.4</ele><time>2026-05-01T09:12:17.829Z</time></trkpt><trkpt lat="43.3048065" lon="13.2819548"><ele>267.6</ele><time>2026-05-01T09:12:19.829Z</time></trkpt><trkpt lat="43.3047815" lon="13.282042"><ele>267.8</ele><time>2026-05-01T09:12:20.829Z</time></trkpt><trkpt lat="43.3047507" lon="13.2821305"><ele>268.0</ele><time>2026-05-01T09:12:21.828Z</time></trkpt><trkpt lat="43.3047172" lon="13.28222"><ele>267.0</ele><time>2026-05-01T09:12:22.829Z</time></trkpt><trkpt lat="43.3046847" lon="13.2823118"><ele>266.0</ele><time>2026-05-01T09:12:23.828Z</time></trkpt><trkpt lat="43.3046504" lon="13.2824073"><ele>265.0</ele><time>2026-05-01T09:12:24.829Z</time></trkpt><trkpt lat="43.304613" lon="13.2825023"><ele>264.0</ele><time>2026-05-01T09:12:25.829Z</time></trkpt><trkpt lat="43.3045791" lon="13.2826023"><ele>263.0</ele><time>2026-05-01T09:12:26.83Z</time></trkpt><trkpt lat="43.304543" lon="13.2827018"><ele>262.0</ele><time>2026-05-01T09:12:27.829Z</time></trkpt><trkpt lat="43.3045081" lon="13.2828073"><ele>262.0</ele><time>2026-05-01T09:12:28.828Z</time></trkpt><trkpt lat="43.3044874" lon="13.2829151"><ele>262.0</ele><time>2026-05-01T09:12:29.829Z</time></trkpt><trkpt lat="43.3044753" lon="13.2830216"><ele>262.0</ele><time>2026-05-01T09:12:30.828Z</time></trkpt><trkpt lat="43.3044758" lon="13.2831325"><ele>262.0</ele><time>2026-05-01T09:12:31.829Z</time></trkpt><trkpt lat="43.3044829" lon="13.2832435"><ele>262.0</ele><time>2026-05-01T09:12:32.828Z</time></trkpt><trkpt lat="43.3044898" lon="13.2833571"><ele>262.0</ele><time>2026-05-01T09:12:33.829Z</time></trkpt><trkpt lat="43.3044942" lon="13.2834714"><ele>260.5</ele><time>2026-05-01T09:12:34.829Z</time></trkpt><trkpt lat="43.3044996" lon="13.2835841"><ele>259.0</ele><time>2026-05-01T09:12:35.829Z</time></trkpt><trkpt lat="43.3045039" lon="13.2836961"><ele>257.5</ele><time>2026-05-01T09:12:36.829Z</time></trkpt><trkpt lat="43.3045098" lon="13.2838117"><ele>256.0</ele><time>2026-05-01T09:12:37.828Z</time></trkpt><trkpt lat="43.3045159" lon="13.2839275"><ele>254.49999999999997</ele><time>2026-05-01T09:12:38.828Z</time></trkpt><trkpt lat="43.3045272" lon="13.2840414"><ele>253.0</ele><time>2026-05-01T09:12:39.829Z</time></trkpt><trkpt lat="43.3045493" lon="13.2841535"><ele>253.33333333333331</ele><time>2026-05-01T09:12:40.829Z</time></trkpt><trkpt lat="43.3045817" lon="13.2842638"><ele>253.66666666666666</ele><time>2026-05-01T09:12:41.829Z</time></trkpt><trkpt lat="43.304625" lon="13.2843654"><ele>254.0</ele><time>2026-05-01T09:12:42.828Z</time></trkpt><trkpt lat="43.3046732" lon="13.2844635"><ele>254.33333333333331</ele><time>2026-05-01T09:12:43.828Z</time></trkpt><trkpt lat="43.3047298" lon="13.2845526"><ele>254.66666666666666</ele><time>2026-05-01T09:12:44.828Z</time></trkpt><trkpt lat="43.3047948" lon="13.2846355"><ele>255.0</ele><time>2026-05-01T09:12:45.829Z</time></trkpt><trkpt lat="43.3048689" lon="13.2847007"><ele>253.0</ele><time>2026-05-01T09:12:46.83Z</time></trkpt><trkpt lat="43.3049463" lon="13.2847639"><ele>251.0</ele><time>2026-05-01T09:12:47.828Z</time></trkpt><trkpt lat="43.3050236" lon="13.2848202"><ele>249.0</ele><time>2026-05-01T09:12:48.828Z</time></trkpt><trkpt lat="43.3051036" lon="13.284874"><ele>247.0</ele><time>2026-05-01T09:12:49.829Z</time></trkpt><trkpt lat="43.3051852" lon="13.2849295"><ele>245.0</ele><time>2026-05-01T09:12:50.83Z</time></trkpt><trkpt lat="43.305272" lon="13.2849825"><ele>245.0</ele><time>2026-05-01T09:12:51.829Z</time></trkpt><trkpt lat="43.3053681" lon="13.2850269"><ele>245.0</ele><time>2026-05-01T09:12:52.829Z</time></trkpt><trkpt lat="43.3054778" lon="13.2850644"><ele>245.0</ele><time>2026-05-01T09:12:53.829Z</time></trkpt><trkpt lat="43.3055889" lon="13.2850871"><ele>245.0</ele><time>2026-05-01T09:12:54.829Z</time></trkpt><trkpt lat="43.305702" lon="13.2851164"><ele>245.0</ele><time>2026-05-01T09:12:55.828Z</time></trkpt><trkpt lat="43.3058082" lon="13.2851683"><ele>244.0</ele><time>2026-05-01T09:12:56.829Z</time></trkpt><trkpt lat="43.3059113" lon="13.2852431"><ele>243.0</ele><time>2026-05-01T09:12:57.829Z</time></trkpt><trkpt lat="43.3059967" lon="13.285336"><ele>242.0</ele><time>2026-05-01T09:12:58.828Z</time></trkpt><trkpt lat="43.3060626" lon="13.2854401"><ele>241.0</ele><time>2026-05-01T09:12:59.828Z</time></trkpt><trkpt lat="43.3061034" lon="13.2855488"><ele>240.0</ele><time>2026-05-01T09:13:00.83Z</time></trkpt><trkpt lat="43.306111" lon="13.2856699"><ele>240.0</ele><time>2026-05-01T09:13:01.83Z</time></trkpt><trkpt lat="43.3060901" lon="13.2857955"><ele>240.0</ele><time>2026-05-01T09:13:02.829Z</time></trkpt><trkpt lat="43.3060559" lon="13.2859202"><ele>240.0</ele><time>2026-05-01T09:13:03.829Z</time></trkpt><trkpt lat="43.3059978" lon="13.2860452"><ele>240.0</ele><time>2026-05-01T09:13:04.829Z</time></trkpt><trkpt lat="43.3059245" lon="13.2861702"><ele>240.0</ele><time>2026-05-01T09:13:05.83Z</time></trkpt><trkpt lat="43.3058524" lon="13.2863084"><ele>241.5</ele><time>2026-05-01T09:13:06.829Z</time></trkpt><trkpt lat="43.3057925" lon="13.2864516"><ele>243.0</ele><time>2026-05-01T09:13:07.829Z</time></trkpt><trkpt lat="43.3057386" lon="13.2865982"><ele>244.5</ele><time>2026-05-01T09:13:08.829Z</time></trkpt><trkpt lat="43.3056933" lon="13.2867498"><ele>246.0</ele><time>2026-05-01T09:13:09.829Z</time></trkpt><trkpt lat="43.3056377" lon="13.2868828"><ele>245.0</ele><time>2026-05-01T09:13:10.828Z</time></trkpt><trkpt lat="43.3055701" lon="13.2869937"><ele>244.00000000000003</ele><time>2026-05-01T09:13:11.829Z</time></trkpt><trkpt lat="43.3054862" lon="13.2870803"><ele>243.00000000000003</ele><time>2026-05-01T09:13:12.829Z</time></trkpt><trkpt lat="43.3054049" lon="13.2871632"><ele>242.0</ele><time>2026-05-01T09:13:13.829Z</time></trkpt><trkpt lat="43.3053438" lon="13.2872757"><ele>241.0</ele><time>2026-05-01T09:13:14.829Z</time></trkpt><trkpt lat="43.3053208" lon="13.2873975"><ele>243.4</ele><time>2026-05-01T09:13:15.828Z</time></trkpt><trkpt lat="43.3053446" lon="13.2875194"><ele>245.8</ele><time>2026-05-01T09:13:16.828Z</time></trkpt><trkpt lat="43.305399" lon="13.287637"><ele>248.20000000000002</ele><time>2026-05-01T09:13:17.828Z</time></trkpt><trkpt lat="43.3054675" lon="13.2877627"><ele>250.60000000000002</ele><time>2026-05-01T09:13:18.829Z</time></trkpt><trkpt lat="43.3055331" lon="13.2878856"><ele>253.0</ele><time>2026-05-01T09:13:19.829Z</time></trkpt><trkpt lat="43.3056155" lon="13.2879863"><ele>253.0</ele><time>2026-05-01T09:13:20.829Z</time></trkpt><trkpt lat="43.3057192" lon="13.2880379"><ele>253.0</ele><time>2026-05-01T09:13:21.829Z</time></trkpt><trkpt lat="43.3058366" lon="13.288048"><ele>253.0</ele><time>2026-05-01T09:13:22.829Z</time></trkpt><trkpt lat="43.3059789" lon="13.2880032"><ele>253.0</ele><time>2026-05-01T09:13:23.83Z</time></trkpt><trkpt lat="43.3061329" lon="13.2879614"><ele>253.0</ele><time>2026-05-01T09:13:24.83Z</time></trkpt><trkpt lat="43.3062929" lon="13.287964"><ele>253.0</ele><time>2026-05-01T09:13:25.828Z</time></trkpt><trkpt lat="43.3064541" lon="13.2880059"><ele>253.0</ele><time>2026-05-01T09:13:26.828Z</time></trkpt><trkpt lat="43.3066137" lon="13.2880837"><ele>257.3333333333333</ele><time>2026-05-01T09:13:27.829Z</time></trkpt><trkpt lat="43.306751" lon="13.2881803"><ele>261.6666666666667</ele><time>2026-05-01T09:13:28.828Z</time></trkpt><trkpt lat="43.3068709" lon="13.288328"><ele>266.0</ele><time>2026-05-01T09:13:29.828Z</time></trkpt><trkpt lat="43.3069612" lon="13.2885111"><ele>266.0</ele><time>2026-05-01T09:13:30.828Z</time></trkpt><trkpt lat="43.3070241" lon="13.2886929"><ele>266.0</ele><time>2026-05-01T09:13:31.83Z</time></trkpt><trkpt lat="43.3070736" lon="13.2888512"><ele>266.0</ele><time>2026-05-01T09:13:32.829Z</time></trkpt><trkpt lat="43.3071091" lon="13.2889887"><ele>266.0</ele><time>2026-05-01T09:13:33.828Z</time></trkpt><trkpt lat="43.3071297" lon="13.289105"><ele>265.83333333333337</ele><time>2026-05-01T09:13:34.829Z</time></trkpt><trkpt lat="43.3071384" lon="13.2892149"><ele>265.6666666666667</ele><time>2026-05-01T09:13:35.828Z</time></trkpt><trkpt lat="43.3071421" lon="13.2893301"><ele>265.5</ele><time>2026-05-01T09:13:36.83Z</time></trkpt><trkpt lat="43.3071313" lon="13.2894444"><ele>265.3333333333333</ele><time>2026-05-01T09:13:37.828Z</time></trkpt><trkpt lat="43.3071139" lon="13.2895491"><ele>265.16666666666663</ele><time>2026-05-01T09:13:38.828Z</time></trkpt><trkpt lat="43.3070921" lon="13.2896399"><ele>265.0</ele><time>2026-05-01T09:13:39.829Z</time></trkpt><trkpt lat="43.3070657" lon="13.2897365"><ele>265.2</ele><time>2026-05-01T09:13:41.829Z</time></trkpt><trkpt lat="43.3070487" lon="13.289843"><ele>265.4</ele><time>2026-05-01T09:14:48.828Z</time></trkpt><trkpt lat="43.3070167" lon="13.2899618"><ele>265.6</ele><time>2026-05-01T09:14:50.828Z</time></trkpt><trkpt lat="43.3069655" lon="13.2901228"><ele>265.8</ele><time>2026-05-01T09:14:52.829Z</time></trkpt><trkpt lat="43.306938" lon="13.2902174"><ele>266.0</ele><time>2026-05-01T09:14:53.828Z</time></trkpt><trkpt lat="43.3069096" lon="13.2903349"><ele>266.0</ele><time>2026-05-01T09:14:54.829Z</time></trkpt><trkpt lat="43.3068824" lon="13.2904694"><ele>266.0</ele><time>2026-05-01T09:14:55.828Z</time></trkpt><trkpt lat="43.3068586" lon="13.2906131"><ele>266.0</ele><time>2026-05-01T09:14:56.829Z</time></trkpt><trkpt lat="43.3068361" lon="13.2907683"><ele>266.0</ele><time>2026-05-01T09:14:57.828Z</time></trkpt><trkpt lat="43.3068133" lon="13.2909433"><ele>266.25</ele><time>2026-05-01T09:14:58.829Z</time></trkpt><trkpt lat="43.3067891" lon="13.2911367"><ele>266.5</ele><time>2026-05-01T09:14:59.828Z</time></trkpt><trkpt lat="43.3067569" lon="13.2913359"><ele>266.75</ele><time>2026-05-01T09:15:00.828Z</time></trkpt><trkpt lat="43.306713" lon="13.2915328"><ele>267.0</ele><time>2026-05-01T09:15:01.829Z</time></trkpt><trkpt lat="43.3066568" lon="13.2917252"><ele>266.0</ele><time>2026-05-01T09:15:02.828Z</time></trkpt><trkpt lat="43.3065931" lon="13.2919117"><ele>265.0</ele><time>2026-05-01T09:15:03.828Z</time></trkpt><trkpt lat="43.3065222" lon="13.2920934"><ele>264.0</ele><time>2026-05-01T09:15:04.828Z</time></trkpt><trkpt lat="43.3064448" lon="13.2922695"><ele>262.5</ele><time>2026-05-01T09:15:05.828Z</time></trkpt><trkpt lat="43.3063653" lon="13.2924369"><ele>261.0</ele><time>2026-05-01T09:15:06.829Z</time></trkpt><trkpt lat="43.306286" lon="13.2926001"><ele>259.5</ele><time>2026-05-01T09:15:07.829Z</time></trkpt><trkpt lat="43.3062055" lon="13.2927542"><ele>258.0</ele><time>2026-05-01T09:15:08.829Z</time></trkpt><trkpt lat="43.3061285" lon="13.2928995"><ele>258.0</ele><time>2026-05-01T09:15:09.83Z</time></trkpt><trkpt lat="43.3060507" lon="13.2930346"><ele>258.0</ele><time>2026-05-01T09:15:10.828Z</time></trkpt><trkpt lat="43.3059714" lon="13.2931706"><ele>258.0</ele><time>2026-05-01T09:15:11.828Z</time></trkpt><trkpt lat="43.3058874" lon="13.293301"><ele>258.0</ele><time>2026-05-01T09:15:12.829Z</time></trkpt><trkpt lat="43.3057955" lon="13.2934211"><ele>258.0</ele><time>2026-05-01T09:15:13.828Z</time></trkpt><trkpt lat="43.3057008" lon="13.2935384"><ele>258.0</ele><time>2026-05-01T09:15:14.829Z</time></trkpt><trkpt lat="43.3056075" lon="13.2936603"><ele>258.0</ele><time>2026-05-01T09:15:15.829Z</time></trkpt><trkpt lat="43.3055196" lon="13.2937841"><ele>258.0</ele><time>2026-05-01T09:15:16.828Z</time></trkpt><trkpt lat="43.3054354" lon="13.2939112"><ele>257.75</ele><time>2026-05-01T09:15:17.828Z</time></trkpt><trkpt lat="43.3053554" lon="13.2940404"><ele>257.5</ele><time>2026-05-01T09:15:18.828Z</time></trkpt><trkpt lat="43.3052807" lon="13.2941733"><ele>257.25</ele><time>2026-05-01T09:15:19.829Z</time></trkpt><trkpt lat="43.3052085" lon="13.2943061"><ele>257.0</ele><time>2026-05-01T09:15:20.829Z</time></trkpt><trkpt lat="43.305137" lon="13.2944407"><ele>257.0</ele><time>2026-05-01T09:15:21.828Z</time></trkpt><trkpt lat="43.3050657" lon="13.2945739"><ele>257.0</ele><time>2026-05-01T09:15:22.828Z</time></trkpt><trkpt lat="43.3049916" lon="13.2946991"><ele>257.0</ele><time>2026-05-01T09:15:23.829Z</time></trkpt><trkpt lat="43.3049143" lon="13.2948182"><ele>257.0</ele><time>2026-05-01T09:15:24.829Z</time></trkpt><trkpt lat="43.3048345" lon="13.2949304"><ele>257.75</ele><time>2026-05-01T09:15:25.828Z</time></trkpt><trkpt lat="43.3047538" lon="13.2950408"><ele>258.5</ele><time>2026-05-01T09:15:26.828Z</time></trkpt><trkpt lat="43.3046666" lon="13.2951485"><ele>259.25</ele><time>2026-05-01T09:15:27.829Z</time></trkpt><trkpt lat="43.3045776" lon="13.2952552"><ele>260.0</ele><time>2026-05-01T09:15:28.828Z</time></trkpt><trkpt lat="43.3044899" lon="13.2953639"><ele>259.5</ele><time>2026-05-01T09:15:29.829Z</time></trkpt><trkpt lat="43.3044015" lon="13.295475"><ele>259.0</ele><time>2026-05-01T09:15:30.829Z</time></trkpt><trkpt lat="43.3043113" lon="13.2955825"><ele>258.5</ele><time>2026-05-01T09:15:31.828Z</time></trkpt><trkpt lat="43.304214" lon="13.2956815"><ele>258.0</ele><time>2026-05-01T09:15:32.829Z</time></trkpt><trkpt lat="43.3041165" lon="13.2957793"><ele>258.0</ele><time>2026-05-01T09:15:33.828Z</time></trkpt><trkpt lat="43.3040193" lon="13.2958756"><ele>258.0</ele><time>2026-05-01T09:15:34.829Z</time></trkpt><trkpt lat="43.3039185" lon="13.295972"><ele>258.0</ele><time>2026-05-01T09:15:35.828Z</time></trkpt><trkpt lat="43.3038175" lon="13.2960682"><ele>258.0</ele><time>2026-05-01T09:15:36.828Z</time></trkpt><trkpt lat="43.3037161" lon="13.2961662"><ele>257.5</ele><time>2026-05-01T09:15:37.829Z</time></trkpt><trkpt lat="43.303613" lon="13.2962639"><ele>257.0</ele><time>2026-05-01T09:15:38.829Z</time></trkpt><trkpt lat="43.3035085" lon="13.296362"><ele>256.5</ele><time>2026-05-01T09:15:39.829Z</time></trkpt><trkpt lat="43.3034041" lon="13.2964544"><ele>256.0</ele><time>2026-05-01T09:15:40.828Z</time></trkpt><trkpt lat="43.3033021" lon="13.2965474"><ele>256.0</ele><time>2026-05-01T09:15:41.829Z</time></trkpt><trkpt lat="43.3032083" lon="13.2966333"><ele>256.0</ele><time>2026-05-01T09:15:42.828Z</time></trkpt><trkpt lat="43.3031299" lon="13.2967322"><ele>256.0</ele><time>2026-05-01T09:15:43.829Z</time></trkpt><trkpt lat="43.3030727" lon="13.2968467"><ele>256.0</ele><time>2026-05-01T09:15:44.828Z</time></trkpt><trkpt lat="43.3030437" lon="13.2969624"><ele>256.0</ele><time>2026-05-01T09:15:45.829Z</time></trkpt><trkpt lat="43.3030363" lon="13.2970856"><ele>256.0</ele><time>2026-05-01T09:15:46.828Z</time></trkpt><trkpt lat="43.3030379" lon="13.2972132"><ele>256.0</ele><time>2026-05-01T09:15:47.828Z</time></trkpt><trkpt lat="43.3030444" lon="13.2973411"><ele>256.0</ele><time>2026-05-01T09:15:48.829Z</time></trkpt><trkpt lat="43.3030495" lon="13.2974771"><ele>256.0</ele><time>2026-05-01T09:15:49.829Z</time></trkpt><trkpt lat="43.3030512" lon="13.2976238"><ele>256.0</ele><time>2026-05-01T09:15:50.829Z</time></trkpt><trkpt lat="43.3030568" lon="13.2977782"><ele>256.0</ele><time>2026-05-01T09:15:51.829Z</time></trkpt><trkpt lat="43.3030642" lon="13.2979328"><ele>256.0</ele><time>2026-05-01T09:15:52.829Z</time></trkpt><trkpt lat="43.3030685" lon="13.2980913"><ele>256.0</ele><time>2026-05-01T09:15:53.828Z</time></trkpt><trkpt lat="43.3030727" lon="13.2982522"><ele>256.0</ele><time>2026-05-01T09:15:54.83Z</time></trkpt><trkpt lat="43.3030834" lon="13.2984129"><ele>255.25</ele><time>2026-05-01T09:15:55.83Z</time></trkpt><trkpt lat="43.3030894" lon="13.29858"><ele>254.5</ele><time>2026-05-01T09:15:56.829Z</time></trkpt><trkpt lat="43.3030934" lon="13.2987493"><ele>253.75</ele><time>2026-05-01T09:15:57.83Z</time></trkpt><trkpt lat="43.3030984" lon="13.2989225"><ele>253.0</ele><time>2026-05-01T09:15:58.83Z</time></trkpt><trkpt lat="43.3031055" lon="13.2990888"><ele>252.75</ele><time>2026-05-01T09:15:59.829Z</time></trkpt><trkpt lat="43.3031172" lon="13.2992522"><ele>252.5</ele><time>2026-05-01T09:16:00.828Z</time></trkpt><trkpt lat="43.3031253" lon="13.299413"><ele>252.25</ele><time>2026-05-01T09:16:01.829Z</time></trkpt><trkpt lat="43.3031324" lon="13.2995693"><ele>252.0</ele><time>2026-05-01T09:16:02.829Z</time></trkpt><trkpt lat="43.3031351" lon="13.2997139"><ele>252.39999999999998</ele><time>2026-05-01T09:16:03.829Z</time></trkpt><trkpt lat="43.3031387" lon="13.2998581"><ele>252.79999999999998</ele><time>2026-05-01T09:16:04.829Z</time></trkpt><trkpt lat="43.3031427" lon="13.3000004"><ele>253.2</ele><time>2026-05-01T09:16:05.828Z</time></trkpt><trkpt lat="43.3031501" lon="13.3001446"><ele>253.6</ele><time>2026-05-01T09:16:06.828Z</time></trkpt><trkpt lat="43.3031621" lon="13.3002856"><ele>254.0</ele><time>2026-05-01T09:16:07.829Z</time></trkpt><trkpt lat="43.3031843" lon="13.3004191"><ele>254.00000000000003</ele><time>2026-05-01T09:16:08.829Z</time></trkpt><trkpt lat="43.303217" lon="13.3005387"><ele>254.0</ele><time>2026-05-01T09:16:09.828Z</time></trkpt><trkpt lat="43.3032422" lon="13.3006491"><ele>254.0</ele><time>2026-05-01T09:16:10.828Z</time></trkpt><trkpt lat="43.3032447" lon="13.3007593"><ele>254.0</ele><time>2026-05-01T09:16:11.829Z</time></trkpt><trkpt lat="43.3032157" lon="13.3008675"><ele>254.00000000000003</ele><time>2026-05-01T09:16:12.828Z</time></trkpt><trkpt lat="43.3031549" lon="13.3009533"><ele>254.0</ele><time>2026-05-01T09:16:13.828Z</time></trkpt><trkpt lat="43.3030737" lon="13.3010289"><ele>252.6</ele><time>2026-05-01T09:16:14.829Z</time></trkpt><trkpt lat="43.3029809" lon="13.301097"><ele>251.2</ele><time>2026-05-01T09:16:15.828Z</time></trkpt><trkpt lat="43.3028845" lon="13.3011606"><ele>249.79999999999998</ele><time>2026-05-01T09:16:16.828Z</time></trkpt><trkpt lat="43.3027875" lon="13.301226"><ele>248.39999999999998</ele><time>2026-05-01T09:16:17.829Z</time></trkpt><trkpt lat="43.3026902" lon="13.3012959"><ele>247.0</ele><time>2026-05-01T09:16:18.828Z</time></trkpt><trkpt lat="43.3025998" lon="13.3013761"><ele>244.5</ele><time>2026-05-01T09:16:19.829Z</time></trkpt><trkpt lat="43.3025143" lon="13.3014774"><ele>242.0</ele><time>2026-05-01T09:16:20.828Z</time></trkpt><trkpt lat="43.3024383" lon="13.3015906"><ele>239.5</ele><time>2026-05-01T09:16:21.829Z</time></trkpt><trkpt lat="43.3023658" lon="13.3017104"><ele>237.0</ele><time>2026-05-01T09:16:22.829Z</time></trkpt><trkpt lat="43.3022956" lon="13.301834"><ele>237.0</ele><time>2026-05-01T09:16:23.828Z</time></trkpt><trkpt lat="43.3022339" lon="13.3019589"><ele>237.0</ele><time>2026-05-01T09:16:24.829Z</time></trkpt><trkpt lat="43.3021798" lon="13.3020912"><ele>237.0</ele><time>2026-05-01T09:16:25.829Z</time></trkpt><trkpt lat="43.3021315" lon="13.3022158"><ele>237.0</ele><time>2026-05-01T09:16:26.829Z</time></trkpt><trkpt lat="43.3020859" lon="13.3023382"><ele>237.0</ele><time>2026-05-01T09:16:27.829Z</time></trkpt><trkpt lat="43.3020525" lon="13.3024439"><ele>237.0</ele><time>2026-05-01T09:16:28.83Z</time></trkpt><trkpt lat="43.3020309" lon="13.3025285"><ele>237.0</ele><time>2026-05-01T09:16:29.828Z</time></trkpt><trkpt lat="43.3020334" lon="13.3026757"><ele>237.0</ele><time>2026-05-01T09:16:31.829Z</time></trkpt><trkpt lat="43.3021022" lon="13.3028277"><ele>237.0</ele><time>2026-05-01T09:16:33.828Z</time></trkpt><trkpt lat="43.3021664" lon="13.3029095"><ele>237.0</ele><time>2026-05-01T09:16:34.829Z</time></trkpt><trkpt lat="43.3022436" lon="13.3029979"><ele>232.5</ele><time>2026-05-01T09:16:35.829Z</time></trkpt><trkpt lat="43.3023209" lon="13.3031021"><ele>228.0</ele><time>2026-05-01T09:16:36.829Z</time></trkpt><trkpt lat="43.3024083" lon="13.3032176"><ele>223.5</ele><time>2026-05-01T09:16:37.829Z</time></trkpt><trkpt lat="43.3025021" lon="13.3033372"><ele>219.0</ele><time>2026-05-01T09:16:38.828Z</time></trkpt><trkpt lat="43.3026014" lon="13.3034537"><ele>219.0</ele><time>2026-05-01T09:16:39.828Z</time></trkpt><trkpt lat="43.3026983" lon="13.3035671"><ele>219.0</ele><time>2026-05-01T09:16:40.828Z</time></trkpt><trkpt lat="43.3027914" lon="13.3036765"><ele>219.0</ele><time>2026-05-01T09:16:41.83Z</time></trkpt><trkpt lat="43.3028838" lon="13.3037856"><ele>219.0</ele><time>2026-05-01T09:16:42.829Z</time></trkpt><trkpt lat="43.302974" lon="13.3038926"><ele>217.25</ele><time>2026-05-01T09:16:43.829Z</time></trkpt><trkpt lat="43.3030675" lon="13.3039963"><ele>215.5</ele><time>2026-05-01T09:16:44.829Z</time></trkpt><trkpt lat="43.3031553" lon="13.3040964"><ele>213.75</ele><time>2026-05-01T09:16:45.828Z</time></trkpt><trkpt lat="43.303258" lon="13.3041715"><ele>212.0</ele><time>2026-05-01T09:16:46.83Z</time></trkpt><trkpt lat="43.3033635" lon="13.3042347"><ele>211.75</ele><time>2026-05-01T09:16:47.828Z</time></trkpt><trkpt lat="43.3035034" lon="13.3042657"><ele>211.5</ele><time>2026-05-01T09:16:48.828Z</time></trkpt><trkpt lat="43.3036308" lon="13.3042887"><ele>211.25</ele><time>2026-05-01T09:16:49.829Z</time></trkpt><trkpt lat="43.3037518" lon="13.3043286"><ele>211.0</ele><time>2026-05-01T09:16:50.828Z</time></trkpt><trkpt lat="43.3038678" lon="13.3043695"><ele>209.5</ele><time>2026-05-01T09:16:51.829Z</time></trkpt><trkpt lat="43.303986" lon="13.3043894"><ele>208.0</ele><time>2026-05-01T09:16:52.829Z</time></trkpt><trkpt lat="43.3041074" lon="13.3043771"><ele>206.5</ele><time>2026-05-01T09:16:53.829Z</time></trkpt><trkpt lat="43.304235" lon="13.3043373"><ele>205.0</ele><time>2026-05-01T09:16:54.829Z</time></trkpt><trkpt lat="43.3043632" lon="13.3042987"><ele>205.0</ele><time>2026-05-01T09:16:55.829Z</time></trkpt><trkpt lat="43.3044905" lon="13.3042588"><ele>205.0</ele><time>2026-05-01T09:16:56.829Z</time></trkpt><trkpt lat="43.3046125" lon="13.3042143"><ele>205.0</ele><time>2026-05-01T09:16:57.83Z</time></trkpt><trkpt lat="43.3047337" lon="13.3041762"><ele>205.0</ele><time>2026-05-01T09:16:58.828Z</time></trkpt><trkpt lat="43.3048539" lon="13.3041606"><ele>203.75</ele><time>2026-05-01T09:16:59.829Z</time></trkpt><trkpt lat="43.3049646" lon="13.3041946"><ele>202.5</ele><time>2026-05-01T09:17:00.829Z</time></trkpt><trkpt lat="43.3050637" lon="13.3042712"><ele>201.25</ele><time>2026-05-01T09:17:01.829Z</time></trkpt><trkpt lat="43.3051539" lon="13.3043811"><ele>200.0</ele><time>2026-05-01T09:17:02.829Z</time></trkpt><trkpt lat="43.3052416" lon="13.3045101"><ele>200.0</ele><time>2026-05-01T09:17:03.83Z</time></trkpt><trkpt lat="43.3053353" lon="13.3046429"><ele>200.0</ele><time>2026-05-01T09:17:04.828Z</time></trkpt><trkpt lat="43.3054454" lon="13.3047681"><ele>200.0</ele><time>2026-05-01T09:17:05.828Z</time></trkpt><trkpt lat="43.3055662" lon="13.3048875"><ele>200.0</ele><time>2026-05-01T09:17:06.829Z</time></trkpt><trkpt lat="43.3056896" lon="13.3049933"><ele>202.5</ele><time>2026-05-01T09:17:07.829Z</time></trkpt><trkpt lat="43.3058159" lon="13.3050965"><ele>205.0</ele><time>2026-05-01T09:17:08.829Z</time></trkpt><trkpt lat="43.3059386" lon="13.3051916"><ele>207.5</ele><time>2026-05-01T09:17:09.829Z</time></trkpt><trkpt lat="43.3060625" lon="13.3052823"><ele>210.0</ele><time>2026-05-01T09:17:10.829Z</time></trkpt><trkpt lat="43.3061816" lon="13.3053668"><ele>210.0</ele><time>2026-05-01T09:17:11.829Z</time></trkpt><trkpt lat="43.3062994" lon="13.3054522"><ele>210.0</ele><time>2026-05-01T09:17:12.83Z</time></trkpt><trkpt lat="43.3064182" lon="13.3055325"><ele>210.0</ele><time>2026-05-01T09:17:13.829Z</time></trkpt><trkpt lat="43.3065263" lon="13.3056066"><ele>210.0</ele><time>2026-05-01T09:17:14.828Z</time></trkpt><trkpt lat="43.3066279" lon="13.3056675"><ele>212.4</ele><time>2026-05-01T09:17:15.829Z</time></trkpt><trkpt lat="43.3067128" lon="13.3057189"><ele>214.8</ele><time>2026-05-01T09:17:16.829Z</time></trkpt><trkpt lat="43.3067778" lon="13.3057724"><ele>217.2</ele><time>2026-05-01T09:17:17.829Z</time></trkpt><trkpt lat="43.3068339" lon="13.3059035"><ele>219.6</ele><time>2026-05-01T09:17:19.829Z</time></trkpt><trkpt lat="43.3067569" lon="13.3059702"><ele>222.0</ele><time>2026-05-01T09:17:21.828Z</time></trkpt><trkpt lat="43.3066346" lon="13.3059466"><ele>222.0</ele><time>2026-05-01T09:17:23.829Z</time></trkpt><trkpt lat="43.306568" lon="13.3059319"><ele>222.0</ele><time>2026-05-01T09:17:24.829Z</time></trkpt><trkpt lat="43.3065035" lon="13.3059165"><ele>222.0</ele><time>2026-05-01T09:17:25.828Z</time></trkpt><trkpt lat="43.3064363" lon="13.3058929"><ele>222.0</ele><time>2026-05-01T09:17:26.828Z</time></trkpt><trkpt lat="43.306366" lon="13.3058787"><ele>222.0</ele><time>2026-05-01T09:17:27.829Z</time></trkpt><trkpt lat="43.306296" lon="13.30587"><ele>222.0</ele><time>2026-05-01T09:17:28.829Z</time></trkpt><trkpt lat="43.3062319" lon="13.3058579"><ele>222.0</ele><time>2026-05-01T09:17:29.828Z</time></trkpt><trkpt lat="43.3061626" lon="13.3058914"><ele>222.14285714285714</ele><time>2026-05-01T09:17:30.828Z</time></trkpt><trkpt lat="43.3061033" lon="13.30594"><ele>222.2857142857143</ele><time>2026-05-01T09:17:31.829Z</time></trkpt><trkpt lat="43.3060489" lon="13.306"><ele>222.42857142857144</ele><time>2026-05-01T09:17:32.829Z</time></trkpt><trkpt lat="43.3060348" lon="13.306102"><ele>222.57142857142856</ele><time>2026-05-01T09:17:33.829Z</time></trkpt><trkpt lat="43.3060314" lon="13.3061989"><ele>222.71428571428572</ele><time>2026-05-01T09:17:34.828Z</time></trkpt><trkpt lat="43.3060294" lon="13.3062958"><ele>222.85714285714286</ele><time>2026-05-01T09:17:35.828Z</time></trkpt><trkpt lat="43.3060374" lon="13.306391"><ele>223.0</ele><time>2026-05-01T09:17:36.828Z</time></trkpt><trkpt lat="43.3060435" lon="13.3064861"><ele>224.0</ele><time>2026-05-01T09:17:37.829Z</time></trkpt><trkpt lat="43.3060484" lon="13.3065799"><ele>225.0</ele><time>2026-05-01T09:17:38.829Z</time></trkpt><trkpt lat="43.3060391" lon="13.306676"><ele>226.0</ele><time>2026-05-01T09:17:39.829Z</time></trkpt><trkpt lat="43.3060254" lon="13.3067691"><ele>227.0</ele><time>2026-05-01T09:17:40.829Z</time></trkpt><trkpt lat="43.3060051" lon="13.3068643"><ele>228.0</ele><time>2026-05-01T09:17:41.828Z</time></trkpt><trkpt lat="43.3059785" lon="13.306954"><ele>228.99999999999997</ele><time>2026-05-01T09:17:42.829Z</time></trkpt><trkpt lat="43.3059487" lon="13.3070392"><ele>229.99999999999997</ele><time>2026-05-01T09:17:43.828Z</time></trkpt><trkpt lat="43.3059178" lon="13.3071241"><ele>229.99999999999997</ele><time>2026-05-01T09:17:44.828Z</time></trkpt><trkpt lat="43.3058899" lon="13.3072033"><ele>230.0</ele><time>2026-05-01T09:17:45.828Z</time></trkpt><trkpt lat="43.3058601" lon="13.3072807"><ele>229.99999999999997</ele><time>2026-05-01T09:17:46.829Z</time></trkpt><trkpt lat="43.3058306" lon="13.3073581"><ele>229.99999999999997</ele><time>2026-05-01T09:17:47.829Z</time></trkpt><trkpt lat="43.3058024" lon="13.3074355"><ele>230.0</ele><time>2026-05-01T09:17:48.828Z</time></trkpt><trkpt lat="43.3057747" lon="13.307514"><ele>229.99999999999997</ele><time>2026-05-01T09:17:49.83Z</time></trkpt><trkpt lat="43.3057167" lon="13.3076669"><ele>229.99999999999997</ele><time>2026-05-01T09:17:51.829Z</time></trkpt><trkpt lat="43.3056836" lon="13.3077429"><ele>231.50000000000003</ele><time>2026-05-01T09:17:52.829Z</time></trkpt><trkpt lat="43.3056534" lon="13.3078251"><ele>233.0</ele><time>2026-05-01T09:17:53.828Z</time></trkpt><trkpt lat="43.305636" lon="13.3079172"><ele>234.5</ele><time>2026-05-01T09:17:54.829Z</time></trkpt><trkpt lat="43.3056212" lon="13.3080142"><ele>236.0</ele><time>2026-05-01T09:17:55.828Z</time></trkpt><trkpt lat="43.3056253" lon="13.3081208"><ele>237.50000000000003</ele><time>2026-05-01T09:17:56.828Z</time></trkpt><trkpt lat="43.3056331" lon="13.3082309"><ele>239.0</ele><time>2026-05-01T09:17:57.829Z</time></trkpt><trkpt lat="43.3056518" lon="13.3083454"><ele>240.0</ele><time>2026-05-01T09:17:58.828Z</time></trkpt><trkpt lat="43.305678" lon="13.3084719"><ele>240.99999999999997</ele><time>2026-05-01T09:17:59.829Z</time></trkpt><trkpt lat="43.3057056" lon="13.308613"><ele>241.99999999999997</ele><time>2026-05-01T09:18:00.829Z</time></trkpt><trkpt lat="43.3057253" lon="13.3087599"><ele>243.0</ele><time>2026-05-01T09:18:01.829Z</time></trkpt><trkpt lat="43.3057487" lon="13.3089056"><ele>244.0</ele><time>2026-05-01T09:18:02.828Z</time></trkpt><trkpt lat="43.3057784" lon="13.3090454"><ele>244.79999999999998</ele><time>2026-05-01T09:18:03.829Z</time></trkpt><trkpt lat="43.3058076" lon="13.3091825"><ele>245.59999999999997</ele><time>2026-05-01T09:18:04.828Z</time></trkpt><trkpt lat="43.3058272" lon="13.3093176"><ele>246.4</ele><time>2026-05-01T09:18:05.83Z</time></trkpt><trkpt lat="43.3058431" lon="13.3094552"><ele>247.2</ele><time>2026-05-01T09:18:06.829Z</time></trkpt><trkpt lat="43.3058503" lon="13.3095928"><ele>248.0</ele><time>2026-05-01T09:18:07.829Z</time></trkpt><trkpt lat="43.3058432" lon="13.3097338"><ele>249.4</ele><time>2026-05-01T09:18:08.83Z</time></trkpt><trkpt lat="43.3058383" lon="13.3098675"><ele>250.8</ele><time>2026-05-01T09:18:09.829Z</time></trkpt><trkpt lat="43.3058172" lon="13.3099925"><ele>252.2</ele><time>2026-05-01T09:18:10.829Z</time></trkpt><trkpt lat="43.3058151" lon="13.3101248"><ele>253.6</ele><time>2026-05-01T09:18:11.829Z</time></trkpt><trkpt lat="43.3058409" lon="13.3102484"><ele>255.0</ele><time>2026-05-01T09:18:12.83Z</time></trkpt><trkpt lat="43.3058852" lon="13.3103648"><ele>255.0</ele><time>2026-05-01T09:18:13.829Z</time></trkpt><trkpt lat="43.3059431" lon="13.3104724"><ele>255.0</ele><time>2026-05-01T09:18:14.828Z</time></trkpt><trkpt lat="43.3060009" lon="13.3105702"><ele>255.0</ele><time>2026-05-01T09:18:15.83Z</time></trkpt><trkpt lat="43.3060516" lon="13.3106564"><ele>255.0</ele><time>2026-05-01T09:18:16.828Z</time></trkpt><trkpt lat="43.3060948" lon="13.3107338"><ele>255.0</ele><time>2026-05-01T09:18:17.829Z</time></trkpt><trkpt lat="43.3061476" lon="13.310854"><ele>255.0</ele><time>2026-05-01T09:18:19.828Z</time></trkpt><trkpt lat="43.3062036" lon="13.3109259"><ele>255.6</ele><time>2026-05-01T09:18:31.828Z</time></trkpt><trkpt lat="43.306295" lon="13.3109089"><ele>256.2</ele><time>2026-05-01T09:18:33.828Z</time></trkpt><trkpt lat="43.3063935" lon="13.3108327"><ele>256.8</ele><time>2026-05-01T09:18:35.829Z</time></trkpt><trkpt lat="43.3065223" lon="13.310746"><ele>257.4</ele><time>2026-05-01T09:18:37.828Z</time></trkpt><trkpt lat="43.3065943" lon="13.3106974"><ele>258.0</ele><time>2026-05-01T09:18:38.83Z</time></trkpt><trkpt lat="43.3066733" lon="13.3106428"><ele>258.6</ele><time>2026-05-01T09:18:39.828Z</time></trkpt><trkpt lat="43.3067556" lon="13.3105865"><ele>259.20000000000005</ele><time>2026-05-01T09:18:40.829Z</time></trkpt><trkpt lat="43.3068396" lon="13.3105333"><ele>259.8</ele><time>2026-05-01T09:18:41.828Z</time></trkpt><trkpt lat="43.3069269" lon="13.3104879"><ele>260.40000000000003</ele><time>2026-05-01T09:18:42.828Z</time></trkpt><trkpt lat="43.307021" lon="13.3104588"><ele>261.0</ele><time>2026-05-01T09:18:43.828Z</time></trkpt><trkpt lat="43.3071156" lon="13.3104714"><ele>261.0</ele><time>2026-05-01T09:18:44.829Z</time></trkpt><trkpt lat="43.3072111" lon="13.3105137"><ele>261.0</ele><time>2026-05-01T09:18:45.828Z</time></trkpt><trkpt lat="43.3073052" lon="13.3105692"><ele>261.0</ele><time>2026-05-01T09:18:46.829Z</time></trkpt><trkpt lat="43.3074091" lon="13.3106331"><ele>261.0</ele><time>2026-05-01T09:18:47.829Z</time></trkpt><trkpt lat="43.3075196" lon="13.3107009"><ele>261.0</ele><time>2026-05-01T09:18:48.829Z</time></trkpt><trkpt lat="43.3076266" lon="13.3107727"><ele>263.75</ele><time>2026-05-01T09:18:49.828Z</time></trkpt><trkpt lat="43.3077373" lon="13.310846"><ele>266.5</ele><time>2026-05-01T09:18:50.829Z</time></trkpt><trkpt lat="43.3078472" lon="13.3109192"><ele>269.25</ele><time>2026-05-01T09:18:51.828Z</time></trkpt><trkpt lat="43.3079556" lon="13.3109886"><ele>272.0</ele><time>2026-05-01T09:18:52.829Z</time></trkpt><trkpt lat="43.308059" lon="13.3110635"><ele>271.75</ele><time>2026-05-01T09:18:53.829Z</time></trkpt><trkpt lat="43.3081654" lon="13.3111347"><ele>271.5</ele><time>2026-05-01T09:18:54.828Z</time></trkpt><trkpt lat="43.3082715" lon="13.311199"><ele>271.25</ele><time>2026-05-01T09:18:55.829Z</time></trkpt><trkpt lat="43.3083811" lon="13.3112498"><ele>271.0</ele><time>2026-05-01T09:18:56.829Z</time></trkpt><trkpt lat="43.3084933" lon="13.3112717"><ele>271.0</ele><time>2026-05-01T09:18:57.829Z</time></trkpt><trkpt lat="43.3086058" lon="13.3112528"><ele>271.0</ele><time>2026-05-01T09:18:58.828Z</time></trkpt><trkpt lat="43.3087108" lon="13.3111905"><ele>271.0</ele><time>2026-05-01T09:18:59.828Z</time></trkpt><trkpt lat="43.3088094" lon="13.3111039"><ele>271.0</ele><time>2026-05-01T09:19:00.828Z</time></trkpt><trkpt lat="43.3089061" lon="13.3110055"><ele>272.5</ele><time>2026-05-01T09:19:01.829Z</time></trkpt><trkpt lat="43.3090081" lon="13.3109065"><ele>274.0</ele><time>2026-05-01T09:19:02.829Z</time></trkpt><trkpt lat="43.3091113" lon="13.3108162"><ele>275.5</ele><time>2026-05-01T09:19:03.828Z</time></trkpt><trkpt lat="43.3092136" lon="13.3107188"><ele>277.0</ele><time>2026-05-01T09:19:04.828Z</time></trkpt><trkpt lat="43.3093218" lon="13.3106231"><ele>277.0</ele><time>2026-05-01T09:19:05.828Z</time></trkpt><trkpt lat="43.3094288" lon="13.3105284"><ele>277.0</ele><time>2026-05-01T09:19:06.829Z</time></trkpt><trkpt lat="43.3095348" lon="13.3104439"><ele>277.0</ele><time>2026-05-01T09:19:07.829Z</time></trkpt><trkpt lat="43.3096503" lon="13.3103715"><ele>277.0</ele><time>2026-05-01T09:19:08.828Z</time></trkpt><trkpt lat="43.3097734" lon="13.3103247"><ele>277.0</ele><time>2026-05-01T09:19:09.829Z</time></trkpt><trkpt lat="43.3099023" lon="13.3102903"><ele>277.0</ele><time>2026-05-01T09:19:10.829Z</time></trkpt><trkpt lat="43.3100333" lon="13.3102695"><ele>277.0</ele><time>2026-05-01T09:19:11.828Z</time></trkpt><trkpt lat="43.3101636" lon="13.3102558"><ele>277.0</ele><time>2026-05-01T09:19:12.829Z</time></trkpt><trkpt lat="43.3102928" lon="13.3102406"><ele>277.0</ele><time>2026-05-01T09:19:13.829Z</time></trkpt><trkpt lat="43.3104187" lon="13.3102277"><ele>277.0</ele><time>2026-05-01T09:19:14.829Z</time></trkpt><trkpt lat="43.310543" lon="13.3102136"><ele>277.0</ele><time>2026-05-01T09:19:15.829Z</time></trkpt><trkpt lat="43.3106638" lon="13.3102003"><ele>277.0</ele><time>2026-05-01T09:19:16.829Z</time></trkpt><trkpt lat="43.3107834" lon="13.3101839"><ele>278.0</ele><time>2026-05-01T09:19:17.828Z</time></trkpt><trkpt lat="43.3109019" lon="13.310173"><ele>279.0</ele><time>2026-05-01T09:19:18.828Z</time></trkpt><trkpt lat="43.3110179" lon="13.3101633"><ele>280.0</ele><time>2026-05-01T09:19:19.829Z</time></trkpt><trkpt lat="43.3111353" lon="13.310147"><ele>281.0</ele><time>2026-05-01T09:19:20.829Z</time></trkpt><trkpt lat="43.3112548" lon="13.3101346"><ele>281.0</ele><time>2026-05-01T09:19:21.829Z</time></trkpt><trkpt lat="43.3113734" lon="13.3101222"><ele>281.0</ele><time>2026-05-01T09:19:22.828Z</time></trkpt><trkpt lat="43.3114933" lon="13.3101134"><ele>281.0</ele><time>2026-05-01T09:19:23.829Z</time></trkpt><trkpt lat="43.3116135" lon="13.3101003"><ele>281.0</ele><time>2026-05-01T09:19:24.83Z</time></trkpt><trkpt lat="43.3117329" lon="13.3100812"><ele>282.5</ele><time>2026-05-01T09:19:25.829Z</time></trkpt><trkpt lat="43.3118539" lon="13.3100627"><ele>284.0</ele><time>2026-05-01T09:19:26.829Z</time></trkpt><trkpt lat="43.3119715" lon="13.3100481"><ele>285.5</ele><time>2026-05-01T09:19:27.828Z</time></trkpt><trkpt lat="43.31208" lon="13.3100248"><ele>287.0</ele><time>2026-05-01T09:19:28.829Z</time></trkpt><trkpt lat="43.3121855" lon="13.3100065"><ele>287.8</ele><time>2026-05-01T09:19:29.828Z</time></trkpt><trkpt lat="43.3122882" lon="13.30998"><ele>288.6</ele><time>2026-05-01T09:19:30.828Z</time></trkpt><trkpt lat="43.3123934" lon="13.3099532"><ele>289.40000000000003</ele><time>2026-05-01T09:19:31.828Z</time></trkpt><trkpt lat="43.3124926" lon="13.3099299"><ele>290.2</ele><time>2026-05-01T09:19:32.829Z</time></trkpt><trkpt lat="43.3125696" lon="13.3099118"><ele>291.0</ele><time>2026-05-01T09:19:33.828Z</time></trkpt><trkpt lat="43.3126517" lon="13.3098784"><ele>291.0</ele><time>2026-05-01T09:19:35.829Z</time></trkpt><trkpt lat="43.3127196" lon="13.3098555"><ele>291.0</ele><time>2026-05-01T09:19:37.828Z</time></trkpt><trkpt lat="43.3128153" lon="13.3098409"><ele>291.0</ele><time>2026-05-01T09:19:39.829Z</time></trkpt><trkpt lat="43.3129048" lon="13.3098303"><ele>291.0</ele><time>2026-05-01T09:19:41.829Z</time></trkpt><trkpt lat="43.3128339" lon="13.3098204"><ele>291.0</ele><time>2026-05-01T09:19:52.828Z</time></trkpt><trkpt lat="43.312759" lon="13.3098389"><ele>291.0</ele><time>2026-05-01T09:19:54.829Z</time></trkpt><trkpt lat="43.3126868" lon="13.3098527"><ele>291.0</ele><time>2026-05-01T09:19:56.828Z</time></trkpt><trkpt lat="43.3126212" lon="13.309836"><ele>291.0</ele><time>2026-05-01T09:20:01.829Z</time></trkpt></trkseg><trkseg><trkpt lat="43.3108546" lon="13.3133789"><ele>338.0</ele><time>2026-05-01T12:08:24.817Z</time></trkpt><trkpt lat="43.3108008" lon="13.3133143"><ele>338.0</ele><time>2026-05-01T12:09:09.816Z</time></trkpt><trkpt lat="43.3107498" lon="13.3131926"><ele>338.0</ele><time>2026-05-01T12:09:12.816Z</time></trkpt><trkpt lat="43.3107153" lon="13.3130932"><ele>338.0</ele><time>2026-05-01T12:09:14.816Z</time></trkpt><trkpt lat="43.3106878" lon="13.3130123"><ele>338.0</ele><time>2026-05-01T12:09:16.816Z</time></trkpt><trkpt lat="43.3106536" lon="13.3129314"><ele>338.0</ele><time>2026-05-01T12:09:18.817Z</time></trkpt><trkpt lat="43.3106267" lon="13.3128429"><ele>337.79999999999995</ele><time>2026-05-01T12:09:21.817Z</time></trkpt><trkpt lat="43.3105311" lon="13.3128458"><ele>337.6</ele><time>2026-05-01T12:09:24.816Z</time></trkpt><trkpt lat="43.3104569" lon="13.3129108"><ele>337.4</ele><time>2026-05-01T12:09:26.817Z</time></trkpt><trkpt lat="43.3103757" lon="13.3129763"><ele>337.20000000000005</ele><time>2026-05-01T12:09:28.816Z</time></trkpt><trkpt lat="43.3102961" lon="13.3130455"><ele>337.0</ele><time>2026-05-01T12:09:30.817Z</time></trkpt><trkpt lat="43.3102073" lon="13.313122"><ele>337.0</ele><time>2026-05-01T12:09:32.817Z</time></trkpt><trkpt lat="43.3101204" lon="13.3131901"><ele>337.0</ele><time>2026-05-01T12:09:34.816Z</time></trkpt><trkpt lat="43.3100518" lon="13.3132959"><ele>337.0</ele><time>2026-05-01T12:09:36.817Z</time></trkpt><trkpt lat="43.309988" lon="13.3133671"><ele>337.0</ele><time>2026-05-01T12:09:39.816Z</time></trkpt><trkpt lat="43.309924" lon="13.3134293"><ele>337.0</ele><time>2026-05-01T12:09:41.817Z</time></trkpt><trkpt lat="43.3098595" lon="13.3135009"><ele>337.0</ele><time>2026-05-01T12:09:43.817Z</time></trkpt><trkpt lat="43.3097963" lon="13.3135715"><ele>333.8</ele><time>2026-05-01T12:09:45.817Z</time></trkpt><trkpt lat="43.3097242" lon="13.3136046"><ele>330.6</ele><time>2026-05-01T12:09:47.816Z</time></trkpt><trkpt lat="43.3096277" lon="13.3136219"><ele>327.40000000000003</ele><time>2026-05-01T12:09:49.816Z</time></trkpt><trkpt lat="43.309531" lon="13.313638"><ele>324.20000000000005</ele><time>2026-05-01T12:09:51.816Z</time></trkpt><trkpt lat="43.3094346" lon="13.3136421"><ele>321.0</ele><time>2026-05-01T12:09:53.816Z</time></trkpt><trkpt lat="43.3093293" lon="13.3136308"><ele>321.0</ele><time>2026-05-01T12:09:55.816Z</time></trkpt><trkpt lat="43.3092206" lon="13.3136179"><ele>321.0</ele><time>2026-05-01T12:09:57.817Z</time></trkpt><trkpt lat="43.3091144" lon="13.3136126"><ele>321.0</ele><time>2026-05-01T12:09:59.817Z</time></trkpt><trkpt lat="43.3090104" lon="13.3136037"><ele>321.0</ele><time>2026-05-01T12:10:01.816Z</time></trkpt><trkpt lat="43.3089009" lon="13.3136049"><ele>321.0</ele><time>2026-05-01T12:10:03.817Z</time></trkpt><trkpt lat="43.3088117" lon="13.3136032"><ele>318.5</ele><time>2026-05-01T12:10:05.817Z</time></trkpt><trkpt lat="43.3087218" lon="13.313639"><ele>316.0</ele><time>2026-05-01T12:10:15.817Z</time></trkpt><trkpt lat="43.3086597" lon="13.3137124"><ele>313.5</ele><time>2026-05-01T12:10:17.817Z</time></trkpt><trkpt lat="43.3086179" lon="13.3137912"><ele>311.0</ele><time>2026-05-01T12:10:19.816Z</time></trkpt><trkpt lat="43.3085625" lon="13.3137431"><ele>308.5</ele><time>2026-05-01T12:10:22.817Z</time></trkpt><trkpt lat="43.3086273" lon="13.3136429"><ele>306.0</ele><time>2026-05-01T12:10:24.817Z</time></trkpt><trkpt lat="43.3087068" lon="13.3135219"><ele>306.0</ele><time>2026-05-01T12:10:26.817Z</time></trkpt><trkpt lat="43.3087837" lon="13.313419"><ele>306.0</ele><time>2026-05-01T12:10:28.818Z</time></trkpt><trkpt lat="43.3088358" lon="13.313354"><ele>306.0</ele><time>2026-05-01T12:10:30.816Z</time></trkpt><trkpt lat="43.3087766" lon="13.3133117"><ele>306.0</ele><time>2026-05-01T12:10:34.816Z</time></trkpt><trkpt lat="43.3087192" lon="13.3133739"><ele>306.0</ele><time>2026-05-01T12:10:36.816Z</time></trkpt><trkpt lat="43.3086357" lon="13.3134325"><ele>306.0</ele><time>2026-05-01T12:10:38.815Z</time></trkpt><trkpt lat="43.3085299" lon="13.3134699"><ele>306.0</ele><time>2026-05-01T12:10:40.816Z</time></trkpt><trkpt lat="43.3084175" lon="13.313432"><ele>306.0</ele><time>2026-05-01T12:10:42.816Z</time></trkpt><trkpt lat="43.3083187" lon="13.313343"><ele>306.0</ele><time>2026-05-01T12:10:44.816Z</time></trkpt><trkpt lat="43.3082668" lon="13.3132888"><ele>306.0</ele><time>2026-05-01T12:10:45.815Z</time></trkpt><trkpt lat="43.3082134" lon="13.3132335"><ele>306.0</ele><time>2026-05-01T12:10:46.815Z</time></trkpt><trkpt lat="43.3081617" lon="13.3131791"><ele>306.0</ele><time>2026-05-01T12:10:47.815Z</time></trkpt><trkpt lat="43.3081085" lon="13.3131174"><ele>303.2857142857143</ele><time>2026-05-01T12:10:48.816Z</time></trkpt><trkpt lat="43.30805" lon="13.3130635"><ele>300.57142857142856</ele><time>2026-05-01T12:10:49.815Z</time></trkpt><trkpt lat="43.307992" lon="13.3130161"><ele>297.8571428571429</ele><time>2026-05-01T12:10:50.815Z</time></trkpt><trkpt lat="43.3079296" lon="13.3129804"><ele>295.1428571428571</ele><time>2026-05-01T12:10:51.816Z</time></trkpt><trkpt lat="43.3078619" lon="13.3129565"><ele>292.42857142857144</ele><time>2026-05-01T12:10:52.815Z</time></trkpt><trkpt lat="43.307792" lon="13.3129287"><ele>289.7142857142857</ele><time>2026-05-01T12:10:53.816Z</time></trkpt><trkpt lat="43.3077251" lon="13.3129023"><ele>287.0</ele><time>2026-05-01T12:10:54.817Z</time></trkpt><trkpt lat="43.3076594" lon="13.3128824"><ele>287.0</ele><time>2026-05-01T12:10:55.816Z</time></trkpt><trkpt lat="43.3075926" lon="13.3128612"><ele>287.0</ele><time>2026-05-01T12:10:56.817Z</time></trkpt><trkpt lat="43.3075265" lon="13.312837"><ele>287.0</ele><time>2026-05-01T12:10:57.815Z</time></trkpt><trkpt lat="43.3074578" lon="13.312815"><ele>287.0</ele><time>2026-05-01T12:10:58.816Z</time></trkpt><trkpt lat="43.3073922" lon="13.3127976"><ele>287.0</ele><time>2026-05-01T12:10:59.815Z</time></trkpt><trkpt lat="43.3073264" lon="13.3127792"><ele>287.0</ele><time>2026-05-01T12:11:00.815Z</time></trkpt><trkpt lat="43.3072583" lon="13.3127635"><ele>287.0</ele><time>2026-05-01T12:11:01.816Z</time></trkpt><trkpt lat="43.3071928" lon="13.3127433"><ele>284.8</ele><time>2026-05-01T12:11:02.815Z</time></trkpt><trkpt lat="43.3070071" lon="13.312665"><ele>282.6</ele><time>2026-05-01T12:11:05.816Z</time></trkpt><trkpt lat="43.3068924" lon="13.3126006"><ele>280.40000000000003</ele><time>2026-05-01T12:11:07.816Z</time></trkpt><trkpt lat="43.306835" lon="13.3125576"><ele>278.2</ele><time>2026-05-01T12:11:08.815Z</time></trkpt><trkpt lat="43.3067819" lon="13.3125099"><ele>276.0</ele><time>2026-05-01T12:11:09.816Z</time></trkpt><trkpt lat="43.3066747" lon="13.3124166"><ele>276.0</ele><time>2026-05-01T12:11:11.815Z</time></trkpt><trkpt lat="43.3065824" lon="13.312308"><ele>276.0</ele><time>2026-05-01T12:11:13.816Z</time></trkpt><trkpt lat="43.3065277" lon="13.3121718"><ele>276.0</ele><time>2026-05-01T12:11:15.816Z</time></trkpt><trkpt lat="43.3065202" lon="13.3120228"><ele>276.0</ele><time>2026-05-01T12:11:17.815Z</time></trkpt><trkpt lat="43.306549" lon="13.3118895"><ele>276.0</ele><time>2026-05-01T12:11:19.817Z</time></trkpt><trkpt lat="43.3066102" lon="13.3117623"><ele>275.5</ele><time>2026-05-01T12:11:21.815Z</time></trkpt><trkpt lat="43.3066802" lon="13.3116304"><ele>275.0</ele><time>2026-05-01T12:11:23.816Z</time></trkpt><trkpt lat="43.306729" lon="13.3114877"><ele>274.5</ele><time>2026-05-01T12:11:25.815Z</time></trkpt><trkpt lat="43.3067034" lon="13.3113601"><ele>274.0</ele><time>2026-05-01T12:11:27.816Z</time></trkpt><trkpt lat="43.3066038" lon="13.3112645"><ele>273.0</ele><time>2026-05-01T12:11:29.815Z</time></trkpt><trkpt lat="43.3065457" lon="13.311222"><ele>272.0</ele><time>2026-05-01T12:11:30.816Z</time></trkpt><trkpt lat="43.3064886" lon="13.3111713"><ele>271.0</ele><time>2026-05-01T12:11:31.816Z</time></trkpt><trkpt lat="43.3064326" lon="13.3111202"><ele>270.0</ele><time>2026-05-01T12:11:32.817Z</time></trkpt><trkpt lat="43.3063394" lon="13.3110134"><ele>269.0</ele><time>2026-05-01T12:11:34.817Z</time></trkpt><trkpt lat="43.3062925" lon="13.3109414"><ele>268.0</ele><time>2026-05-01T12:11:37.816Z</time></trkpt><trkpt lat="43.3062252" lon="13.3108874"><ele>266.0</ele><time>2026-05-01T12:11:41.815Z</time></trkpt><trkpt lat="43.3061466" lon="13.3107944"><ele>264.0</ele><time>2026-05-01T12:11:43.816Z</time></trkpt><trkpt lat="43.3060846" lon="13.3106931"><ele>262.0</ele><time>2026-05-01T12:11:45.816Z</time></trkpt><trkpt lat="43.3060309" lon="13.3105826"><ele>260.0</ele><time>2026-05-01T12:11:47.816Z</time></trkpt><trkpt lat="43.3059657" lon="13.3104707"><ele>258.0</ele><time>2026-05-01T12:11:49.815Z</time></trkpt><trkpt lat="43.3058927" lon="13.3103368"><ele>257.4</ele><time>2026-05-01T12:11:51.816Z</time></trkpt><trkpt lat="43.305843" lon="13.310187"><ele>256.8</ele><time>2026-05-01T12:11:53.816Z</time></trkpt><trkpt lat="43.3058344" lon="13.3100245"><ele>256.2</ele><time>2026-05-01T12:11:55.815Z</time></trkpt><trkpt lat="43.3058569" lon="13.3098487"><ele>255.6</ele><time>2026-05-01T12:11:57.816Z</time></trkpt><trkpt lat="43.3058696" lon="13.3097513"><ele>255.0</ele><time>2026-05-01T12:11:58.816Z</time></trkpt><trkpt lat="43.3058738" lon="13.3096523"><ele>253.83333333333334</ele><time>2026-05-01T12:11:59.816Z</time></trkpt><trkpt lat="43.3058697" lon="13.3095464"><ele>252.66666666666669</ele><time>2026-05-01T12:12:00.816Z</time></trkpt><trkpt lat="43.305862" lon="13.3094419"><ele>251.5</ele><time>2026-05-01T12:12:01.816Z</time></trkpt><trkpt lat="43.3058485" lon="13.3093298"><ele>250.33333333333334</ele><time>2026-05-01T12:12:02.816Z</time></trkpt><trkpt lat="43.305832" lon="13.3092101"><ele>249.16666666666669</ele><time>2026-05-01T12:12:03.815Z</time></trkpt><trkpt lat="43.3058131" lon="13.3090824"><ele>248.0</ele><time>2026-05-01T12:12:04.816Z</time></trkpt><trkpt lat="43.3057883" lon="13.3089563"><ele>247.2</ele><time>2026-05-01T12:12:05.815Z</time></trkpt><trkpt lat="43.305761" lon="13.3088334"><ele>246.4</ele><time>2026-05-01T12:12:06.816Z</time></trkpt><trkpt lat="43.3057326" lon="13.3087067"><ele>245.59999999999997</ele><time>2026-05-01T12:12:07.816Z</time></trkpt><trkpt lat="43.3057116" lon="13.3085822"><ele>244.79999999999998</ele><time>2026-05-01T12:12:08.816Z</time></trkpt><trkpt lat="43.3056943" lon="13.3084571"><ele>244.0</ele><time>2026-05-01T12:12:09.817Z</time></trkpt><trkpt lat="43.3056778" lon="13.308332"><ele>244.0</ele><time>2026-05-01T12:12:10.815Z</time></trkpt><trkpt lat="43.3056614" lon="13.3082045"><ele>243.99999999999997</ele><time>2026-05-01T12:12:11.816Z</time></trkpt><trkpt lat="43.3056497" lon="13.3080797"><ele>243.99999999999997</ele><time>2026-05-01T12:12:12.815Z</time></trkpt><trkpt lat="43.3056552" lon="13.3079523"><ele>244.0</ele><time>2026-05-01T12:12:13.816Z</time></trkpt><trkpt lat="43.3056822" lon="13.3078266"><ele>244.0</ele><time>2026-05-01T12:12:14.816Z</time></trkpt><trkpt lat="43.3057224" lon="13.3077102"><ele>243.0</ele><time>2026-05-01T12:12:15.816Z</time></trkpt><trkpt lat="43.3057653" lon="13.3075947"><ele>241.99999999999997</ele><time>2026-05-01T12:12:16.816Z</time></trkpt><trkpt lat="43.3058065" lon="13.3074801"><ele>240.99999999999997</ele><time>2026-05-01T12:12:17.815Z</time></trkpt><trkpt lat="43.3058505" lon="13.3073589"><ele>240.0</ele><time>2026-05-01T12:12:18.817Z</time></trkpt><trkpt lat="43.3058953" lon="13.3072383"><ele>239.0</ele><time>2026-05-01T12:12:19.816Z</time></trkpt><trkpt lat="43.3059452" lon="13.3071181"><ele>237.2</ele><time>2026-05-01T12:12:20.816Z</time></trkpt><trkpt lat="43.3059935" lon="13.3069954"><ele>235.39999999999998</ele><time>2026-05-01T12:12:21.815Z</time></trkpt><trkpt lat="43.3060326" lon="13.3068706"><ele>233.6</ele><time>2026-05-01T12:12:22.816Z</time></trkpt><trkpt lat="43.3060545" lon="13.3067388"><ele>231.8</ele><time>2026-05-01T12:12:23.816Z</time></trkpt><trkpt lat="43.3060621" lon="13.3066078"><ele>230.0</ele><time>2026-05-01T12:12:24.816Z</time></trkpt><trkpt lat="43.3060587" lon="13.3064784"><ele>228.83333333333334</ele><time>2026-05-01T12:12:25.816Z</time></trkpt><trkpt lat="43.3060523" lon="13.3063471"><ele>227.66666666666669</ele><time>2026-05-01T12:12:26.816Z</time></trkpt><trkpt lat="43.3060491" lon="13.3062232"><ele>226.5</ele><time>2026-05-01T12:12:27.815Z</time></trkpt><trkpt lat="43.3060617" lon="13.3061066"><ele>225.33333333333331</ele><time>2026-05-01T12:12:28.816Z</time></trkpt><trkpt lat="43.3060965" lon="13.3060118"><ele>224.16666666666666</ele><time>2026-05-01T12:12:29.815Z</time></trkpt><trkpt lat="43.3061535" lon="13.3059417"><ele>223.0</ele><time>2026-05-01T12:12:30.816Z</time></trkpt><trkpt lat="43.3062189" lon="13.3058921"><ele>222.99999999999997</ele><time>2026-05-01T12:12:31.816Z</time></trkpt><trkpt lat="43.3062825" lon="13.3058761"><ele>223.0</ele><time>2026-05-01T12:12:32.816Z</time></trkpt><trkpt lat="43.3063593" lon="13.3058721"><ele>223.0</ele><time>2026-05-01T12:12:33.815Z</time></trkpt><trkpt lat="43.306462" lon="13.3059027"><ele>223.0</ele><time>2026-05-01T12:12:34.815Z</time></trkpt><trkpt lat="43.3065464" lon="13.3059206"><ele>222.99999999999997</ele><time>2026-05-01T12:12:35.815Z</time></trkpt><trkpt lat="43.30663" lon="13.3059448"><ele>223.0</ele><time>2026-05-01T12:12:36.815Z</time></trkpt><trkpt lat="43.3067101" lon="13.3059646"><ele>222.83333333333331</ele><time>2026-05-01T12:12:37.816Z</time></trkpt><trkpt lat="43.3067767" lon="13.3059688"><ele>222.66666666666666</ele><time>2026-05-01T12:12:38.815Z</time></trkpt><trkpt lat="43.3068717" lon="13.3059015"><ele>222.5</ele><time>2026-05-01T12:12:40.816Z</time></trkpt><trkpt lat="43.3068306" lon="13.3057825"><ele>222.33333333333331</ele><time>2026-05-01T12:12:42.816Z</time></trkpt><trkpt lat="43.3067709" lon="13.3057266"><ele>222.16666666666666</ele><time>2026-05-01T12:12:43.815Z</time></trkpt><trkpt lat="43.3066964" lon="13.3056702"><ele>222.0</ele><time>2026-05-01T12:12:44.816Z</time></trkpt><trkpt lat="43.3066075" lon="13.3056086"><ele>221.6</ele><time>2026-05-01T12:12:45.816Z</time></trkpt><trkpt lat="43.3065118" lon="13.3055473"><ele>221.2</ele><time>2026-05-01T12:12:46.815Z</time></trkpt><trkpt lat="43.3064127" lon="13.3054834"><ele>220.8</ele><time>2026-05-01T12:12:47.816Z</time></trkpt><trkpt lat="43.3063217" lon="13.3054114"><ele>220.4</ele><time>2026-05-01T12:12:48.815Z</time></trkpt><trkpt lat="43.3062115" lon="13.305331"><ele>220.0</ele><time>2026-05-01T12:12:49.816Z</time></trkpt><trkpt lat="43.3060901" lon="13.3052511"><ele>217.5</ele><time>2026-05-01T12:12:50.816Z</time></trkpt><trkpt lat="43.3059769" lon="13.3051692"><ele>215.0</ele><time>2026-05-01T12:12:51.816Z</time></trkpt><trkpt lat="43.3058665" lon="13.3050874"><ele>212.5</ele><time>2026-05-01T12:12:52.816Z</time></trkpt><trkpt lat="43.3057534" lon="13.3050034"><ele>210.0</ele><time>2026-05-01T12:12:53.816Z</time></trkpt><trkpt lat="43.3056579" lon="13.3049212"><ele>208.5</ele><time>2026-05-01T12:12:54.816Z</time></trkpt><trkpt lat="43.3055572" lon="13.3048271"><ele>207.0</ele><time>2026-05-01T12:12:55.816Z</time></trkpt><trkpt lat="43.3054655" lon="13.3047279"><ele>205.5</ele><time>2026-05-01T12:12:56.816Z</time></trkpt><trkpt lat="43.3053809" lon="13.3046318"><ele>204.0</ele><time>2026-05-01T12:12:57.815Z</time></trkpt><trkpt lat="43.3053038" lon="13.3045365"><ele>203.2</ele><time>2026-05-01T12:12:58.815Z</time></trkpt><trkpt lat="43.3052303" lon="13.3044317"><ele>202.39999999999998</ele><time>2026-05-01T12:12:59.816Z</time></trkpt><trkpt lat="43.3051568" lon="13.3043213"><ele>201.6</ele><time>2026-05-01T12:13:00.815Z</time></trkpt><trkpt lat="43.3050754" lon="13.3042222"><ele>200.8</ele><time>2026-05-01T12:13:01.816Z</time></trkpt><trkpt lat="43.3049778" lon="13.3041645"><ele>200.0</ele><time>2026-05-01T12:13:02.816Z</time></trkpt><trkpt lat="43.3048666" lon="13.304141"><ele>200.0</ele><time>2026-05-01T12:13:03.815Z</time></trkpt><trkpt lat="43.3047485" lon="13.3041551"><ele>200.0</ele><time>2026-05-01T12:13:04.816Z</time></trkpt><trkpt lat="43.3046321" lon="13.3041972"><ele>200.0</ele><time>2026-05-01T12:13:05.816Z</time></trkpt><trkpt lat="43.3045128" lon="13.3042381"><ele>200.0</ele><time>2026-05-01T12:13:06.816Z</time></trkpt><trkpt lat="43.3043918" lon="13.3042784"><ele>201.25</ele><time>2026-05-01T12:13:07.816Z</time></trkpt><trkpt lat="43.3042764" lon="13.3043139"><ele>202.5</ele><time>2026-05-01T12:13:08.816Z</time></trkpt><trkpt lat="43.304161" lon="13.3043436"><ele>203.75</ele><time>2026-05-01T12:13:09.816Z</time></trkpt><trkpt lat="43.304045" lon="13.3043554"><ele>205.0</ele><time>2026-05-01T12:13:10.816Z</time></trkpt><trkpt lat="43.3039306" lon="13.3043463"><ele>206.2</ele><time>2026-05-01T12:13:11.816Z</time></trkpt><trkpt lat="43.3038224" lon="13.3043216"><ele>207.4</ele><time>2026-05-01T12:13:12.816Z</time></trkpt><trkpt lat="43.3037148" lon="13.3042924"><ele>208.60000000000002</ele><time>2026-05-01T12:13:13.815Z</time></trkpt><trkpt lat="43.3036081" lon="13.3042696"><ele>209.8</ele><time>2026-05-01T12:13:14.815Z</time></trkpt><trkpt lat="43.3035028" lon="13.3042393"><ele>211.0</ele><time>2026-05-01T12:13:15.816Z</time></trkpt><trkpt lat="43.3033945" lon="13.3042018"><ele>211.0</ele><time>2026-05-01T12:13:16.816Z</time></trkpt><trkpt lat="43.3032861" lon="13.3041558"><ele>211.0</ele><time>2026-05-01T12:13:17.815Z</time></trkpt><trkpt lat="43.3031864" lon="13.3040772"><ele>211.0</ele><time>2026-05-01T12:13:18.816Z</time></trkpt><trkpt lat="43.3030935" lon="13.3039824"><ele>211.0</ele><time>2026-05-01T12:13:19.815Z</time></trkpt><trkpt lat="43.3030102" lon="13.3038809"><ele>213.0</ele><time>2026-05-01T12:13:20.816Z</time></trkpt><trkpt lat="43.3029181" lon="13.3037875"><ele>215.0</ele><time>2026-05-01T12:13:21.816Z</time></trkpt><trkpt lat="43.3028279" lon="13.303683"><ele>217.0</ele><time>2026-05-01T12:13:22.815Z</time></trkpt><trkpt lat="43.3027388" lon="13.3035788"><ele>219.0</ele><time>2026-05-01T12:13:23.816Z</time></trkpt><trkpt lat="43.3026508" lon="13.3034708"><ele>219.0</ele><time>2026-05-01T12:13:24.815Z</time></trkpt><trkpt lat="43.3025633" lon="13.3033656"><ele>219.0</ele><time>2026-05-01T12:13:25.815Z</time></trkpt><trkpt lat="43.3024721" lon="13.3032594"><ele>219.0</ele><time>2026-05-01T12:13:26.816Z</time></trkpt><trkpt lat="43.3023852" lon="13.3031579"><ele>219.0</ele><time>2026-05-01T12:13:27.816Z</time></trkpt><trkpt lat="43.3023028" lon="13.3030544"><ele>222.6</ele><time>2026-05-01T12:13:28.816Z</time></trkpt><trkpt lat="43.3022267" lon="13.3029557"><ele>226.2</ele><time>2026-05-01T12:13:29.816Z</time></trkpt><trkpt lat="43.3021574" lon="13.302863"><ele>229.79999999999998</ele><time>2026-05-01T12:13:30.816Z</time></trkpt><trkpt lat="43.3021011" lon="13.302773"><ele>233.39999999999998</ele><time>2026-05-01T12:13:31.816Z</time></trkpt><trkpt lat="43.3020647" lon="13.3026691"><ele>237.0</ele><time>2026-05-01T12:13:32.816Z</time></trkpt><trkpt lat="43.3020576" lon="13.30255"><ele>237.0</ele><time>2026-05-01T12:13:33.816Z</time></trkpt><trkpt lat="43.3020754" lon="13.3024253"><ele>237.0</ele><time>2026-05-01T12:13:34.815Z</time></trkpt><trkpt lat="43.3021144" lon="13.3023036"><ele>237.0</ele><time>2026-05-01T12:13:35.816Z</time></trkpt><trkpt lat="43.3021635" lon="13.3021825"><ele>237.0</ele><time>2026-05-01T12:13:36.816Z</time></trkpt><trkpt lat="43.3022162" lon="13.3020555"><ele>237.0</ele><time>2026-05-01T12:13:37.815Z</time></trkpt><trkpt lat="43.3022757" lon="13.3019238"><ele>237.0</ele><time>2026-05-01T12:13:38.816Z</time></trkpt><trkpt lat="43.3023424" lon="13.3017939"><ele>237.0</ele><time>2026-05-01T12:13:39.815Z</time></trkpt><trkpt lat="43.302417" lon="13.3016614"><ele>237.0</ele><time>2026-05-01T12:13:40.816Z</time></trkpt><trkpt lat="43.3024941" lon="13.3015333"><ele>237.0</ele><time>2026-05-01T12:13:41.815Z</time></trkpt><trkpt lat="43.302577" lon="13.3014192"><ele>239.5</ele><time>2026-05-01T12:13:42.816Z</time></trkpt><trkpt lat="43.3026726" lon="13.301315"><ele>242.0</ele><time>2026-05-01T12:13:43.817Z</time></trkpt><trkpt lat="43.302787" lon="13.3012295"><ele>244.5</ele><time>2026-05-01T12:13:44.816Z</time></trkpt><trkpt lat="43.3029063" lon="13.3011531"><ele>247.0</ele><time>2026-05-01T12:13:45.816Z</time></trkpt><trkpt lat="43.3030216" lon="13.3010807"><ele>247.0</ele><time>2026-05-01T12:13:46.816Z</time></trkpt><trkpt lat="43.3031233" lon="13.3010152"><ele>247.0</ele><time>2026-05-01T12:13:47.815Z</time></trkpt><trkpt lat="43.3032065" lon="13.3009327"><ele>247.0</ele><time>2026-05-01T12:13:48.815Z</time></trkpt><trkpt lat="43.3032585" lon="13.3008274"><ele>247.0</ele><time>2026-05-01T12:13:49.815Z</time></trkpt><trkpt lat="43.3032771" lon="13.3007069"><ele>247.0</ele><time>2026-05-01T12:13:50.815Z</time></trkpt><trkpt lat="43.3032596" lon="13.3005742"><ele>248.39999999999998</ele><time>2026-05-01T12:13:51.816Z</time></trkpt><trkpt lat="43.3032248" lon="13.3004493"><ele>249.79999999999998</ele><time>2026-05-01T12:13:52.816Z</time></trkpt><trkpt lat="43.3031872" lon="13.3003131"><ele>251.2</ele><time>2026-05-01T12:13:53.815Z</time></trkpt><trkpt lat="43.3031754" lon="13.3001686"><ele>252.6</ele><time>2026-05-01T12:13:54.816Z</time></trkpt><trkpt lat="43.3031644" lon="13.3000154"><ele>254.0</ele><time>2026-05-01T12:13:55.815Z</time></trkpt><trkpt lat="43.303152" lon="13.2998611"><ele>253.5</ele><time>2026-05-01T12:13:56.816Z</time></trkpt><trkpt lat="43.3031547" lon="13.2996828"><ele>253.0</ele><time>2026-05-01T12:13:57.816Z</time></trkpt><trkpt lat="43.3031412" lon="13.2994961"><ele>252.5</ele><time>2026-05-01T12:13:58.816Z</time></trkpt><trkpt lat="43.3031351" lon="13.2993041"><ele>252.0</ele><time>2026-05-01T12:13:59.815Z</time></trkpt><trkpt lat="43.3031263" lon="13.2991108"><ele>252.25</ele><time>2026-05-01T12:14:00.815Z</time></trkpt><trkpt lat="43.3031165" lon="13.2989042"><ele>252.5</ele><time>2026-05-01T12:14:01.815Z</time></trkpt><trkpt lat="43.303108" lon="13.2986975"><ele>252.75</ele><time>2026-05-01T12:14:02.815Z</time></trkpt><trkpt lat="43.3031019" lon="13.2984956"><ele>253.0</ele><time>2026-05-01T12:14:03.815Z</time></trkpt><trkpt lat="43.3030936" lon="13.298301"><ele>253.0</ele><time>2026-05-01T12:14:04.816Z</time></trkpt><trkpt lat="43.3030864" lon="13.2981149"><ele>253.0</ele><time>2026-05-01T12:14:05.815Z</time></trkpt><trkpt lat="43.3030779" lon="13.2979361"><ele>253.0</ele><time>2026-05-01T12:14:06.815Z</time></trkpt><trkpt lat="43.3030723" lon="13.297769"><ele>253.0</ele><time>2026-05-01T12:14:07.816Z</time></trkpt><trkpt lat="43.3030675" lon="13.2976049"><ele>253.0</ele><time>2026-05-01T12:14:08.816Z</time></trkpt><trkpt lat="43.303061" lon="13.2974344"><ele>253.0</ele><time>2026-05-01T12:14:09.816Z</time></trkpt><trkpt lat="43.3030565" lon="13.2972724"><ele>253.0</ele><time>2026-05-01T12:14:10.816Z</time></trkpt><trkpt lat="43.303051" lon="13.2971167"><ele>253.0</ele><time>2026-05-01T12:14:11.816Z</time></trkpt><trkpt lat="43.3030543" lon="13.296973"><ele>253.60000000000002</ele><time>2026-05-01T12:14:12.815Z</time></trkpt><trkpt lat="43.3030987" lon="13.2968532"><ele>254.20000000000002</ele><time>2026-05-01T12:14:13.816Z</time></trkpt><trkpt lat="43.3031549" lon="13.2967368"><ele>254.8</ele><time>2026-05-01T12:14:14.816Z</time></trkpt><trkpt lat="43.3032304" lon="13.2966447"><ele>255.4</ele><time>2026-05-01T12:14:15.816Z</time></trkpt><trkpt lat="43.3033128" lon="13.2965616"><ele>256.0</ele><time>2026-05-01T12:14:16.815Z</time></trkpt><trkpt lat="43.3034016" lon="13.2964841"><ele>255.25</ele><time>2026-05-01T12:14:17.816Z</time></trkpt><trkpt lat="43.3034908" lon="13.2964023"><ele>254.5</ele><time>2026-05-01T12:14:18.815Z</time></trkpt><trkpt lat="43.3035805" lon="13.2963136"><ele>253.75</ele><time>2026-05-01T12:14:19.816Z</time></trkpt><trkpt lat="43.3036747" lon="13.2962206"><ele>253.0</ele><time>2026-05-01T12:14:20.815Z</time></trkpt><trkpt lat="43.303772" lon="13.2961311"><ele>253.0</ele><time>2026-05-01T12:14:21.815Z</time></trkpt><trkpt lat="43.3038678" lon="13.2960339"><ele>253.0</ele><time>2026-05-01T12:14:22.816Z</time></trkpt><trkpt lat="43.3039618" lon="13.2959363"><ele>253.0</ele><time>2026-05-01T12:14:23.815Z</time></trkpt><trkpt lat="43.304061" lon="13.2958409"><ele>253.0</ele><time>2026-05-01T12:14:24.815Z</time></trkpt><trkpt lat="43.3041577" lon="13.2957425"><ele>253.25</ele><time>2026-05-01T12:14:25.815Z</time></trkpt><trkpt lat="43.3042569" lon="13.2956464"><ele>253.5</ele><time>2026-05-01T12:14:26.816Z</time></trkpt><trkpt lat="43.3043556" lon="13.2955462"><ele>253.75</ele><time>2026-05-01T12:14:27.816Z</time></trkpt><trkpt lat="43.3044502" lon="13.2954433"><ele>254.0</ele><time>2026-05-01T12:14:28.816Z</time></trkpt><trkpt lat="43.3045411" lon="13.2953354"><ele>254.0</ele><time>2026-05-01T12:14:29.815Z</time></trkpt><trkpt lat="43.3046318" lon="13.2952211"><ele>254.0</ele><time>2026-05-01T12:14:30.816Z</time></trkpt><trkpt lat="43.3047212" lon="13.2951006"><ele>254.0</ele><time>2026-05-01T12:14:31.816Z</time></trkpt><trkpt lat="43.3048117" lon="13.2949802"><ele>254.0</ele><time>2026-05-01T12:14:32.815Z</time></trkpt><trkpt lat="43.3049008" lon="13.2948611"><ele>254.75</ele><time>2026-05-01T12:14:33.816Z</time></trkpt><trkpt lat="43.3049879" lon="13.2947406"><ele>255.5</ele><time>2026-05-01T12:14:34.815Z</time></trkpt><trkpt lat="43.305068" lon="13.2946105"><ele>256.25</ele><time>2026-05-01T12:14:35.816Z</time></trkpt><trkpt lat="43.3051383" lon="13.2944765"><ele>257.0</ele><time>2026-05-01T12:14:36.816Z</time></trkpt><trkpt lat="43.3052087" lon="13.2943433"><ele>257.0</ele><time>2026-05-01T12:14:37.816Z</time></trkpt><trkpt lat="43.3052794" lon="13.2942073"><ele>257.0</ele><time>2026-05-01T12:14:38.816Z</time></trkpt><trkpt lat="43.3053538" lon="13.2940683"><ele>257.0</ele><time>2026-05-01T12:14:39.816Z</time></trkpt><trkpt lat="43.3054399" lon="13.2939304"><ele>257.0</ele><time>2026-05-01T12:14:40.815Z</time></trkpt><trkpt lat="43.305528" lon="13.2938"><ele>257.25</ele><time>2026-05-01T12:14:41.816Z</time></trkpt><trkpt lat="43.3056191" lon="13.2936719"><ele>257.5</ele><time>2026-05-01T12:14:42.815Z</time></trkpt><trkpt lat="43.3057085" lon="13.2935591"><ele>257.75</ele><time>2026-05-01T12:14:43.816Z</time></trkpt><trkpt lat="43.3057943" lon="13.2934516"><ele>258.0</ele><time>2026-05-01T12:14:44.815Z</time></trkpt><trkpt lat="43.3058751" lon="13.2933418"><ele>258.0</ele><time>2026-05-01T12:14:45.816Z</time></trkpt><trkpt lat="43.3059497" lon="13.2932372"><ele>258.0</ele><time>2026-05-01T12:14:46.815Z</time></trkpt><trkpt lat="43.3060171" lon="13.293125"><ele>258.0</ele><time>2026-05-01T12:14:47.815Z</time></trkpt><trkpt lat="43.30608" lon="13.2930056"><ele>258.0</ele><time>2026-05-01T12:14:48.815Z</time></trkpt><trkpt lat="43.3061412" lon="13.2928853"><ele>258.0</ele><time>2026-05-01T12:14:49.816Z</time></trkpt><trkpt lat="43.3062059" lon="13.2927653"><ele>258.0</ele><time>2026-05-01T12:14:50.816Z</time></trkpt><trkpt lat="43.3062732" lon="13.292641"><ele>258.0</ele><time>2026-05-01T12:14:51.816Z</time></trkpt><trkpt lat="43.3063388" lon="13.292507"><ele>258.0</ele><time>2026-05-01T12:14:52.816Z</time></trkpt><trkpt lat="43.3064006" lon="13.2923706"><ele>258.0</ele><time>2026-05-01T12:14:53.815Z</time></trkpt><trkpt lat="43.3064625" lon="13.2922375"><ele>259.5</ele><time>2026-05-01T12:14:54.816Z</time></trkpt><trkpt lat="43.3065212" lon="13.2921009"><ele>261.0</ele><time>2026-05-01T12:14:55.816Z</time></trkpt><trkpt lat="43.3065777" lon="13.291964"><ele>262.5</ele><time>2026-05-01T12:14:56.815Z</time></trkpt><trkpt lat="43.3066311" lon="13.2918145"><ele>264.0</ele><time>2026-05-01T12:14:57.815Z</time></trkpt><trkpt lat="43.3066754" lon="13.2916568"><ele>264.0</ele><time>2026-05-01T12:14:58.815Z</time></trkpt><trkpt lat="43.3067203" lon="13.2914994"><ele>264.0</ele><time>2026-05-01T12:14:59.817Z</time></trkpt><trkpt lat="43.3067624" lon="13.2913356"><ele>264.0</ele><time>2026-05-01T12:15:00.815Z</time></trkpt><trkpt lat="43.3067931" lon="13.2911651"><ele>264.0</ele><time>2026-05-01T12:15:01.815Z</time></trkpt><trkpt lat="43.306817" lon="13.2909954"><ele>264.5</ele><time>2026-05-01T12:15:02.816Z</time></trkpt><trkpt lat="43.3068392" lon="13.2908271"><ele>265.0</ele><time>2026-05-01T12:15:03.816Z</time></trkpt><trkpt lat="43.3068557" lon="13.2906611"><ele>265.5</ele><time>2026-05-01T12:15:04.817Z</time></trkpt><trkpt lat="43.3068791" lon="13.2905052"><ele>266.0</ele><time>2026-05-01T12:15:05.815Z</time></trkpt><trkpt lat="43.3069128" lon="13.2903519"><ele>266.0</ele><time>2026-05-01T12:15:06.816Z</time></trkpt><trkpt lat="43.3069509" lon="13.2902068"><ele>266.0</ele><time>2026-05-01T12:15:07.815Z</time></trkpt><trkpt lat="43.3069865" lon="13.2900852"><ele>266.0</ele><time>2026-05-01T12:15:08.814Z</time></trkpt><trkpt lat="43.3070156" lon="13.2899773"><ele>266.0</ele><time>2026-05-01T12:15:09.814Z</time></trkpt><trkpt lat="43.3070453" lon="13.2898901"><ele>266.0</ele><time>2026-05-01T12:15:10.815Z</time></trkpt><trkpt lat="43.307133" lon="13.2898216"><ele>266.0</ele><time>2026-05-01T12:15:12.815Z</time></trkpt><trkpt lat="43.3072429" lon="13.2899199"><ele>266.0</ele><time>2026-05-01T12:15:14.814Z</time></trkpt><trkpt lat="43.3073115" lon="13.2899778"><ele>266.0</ele><time>2026-05-01T12:15:15.815Z</time></trkpt><trkpt lat="43.3073912" lon="13.2900325"><ele>266.0</ele><time>2026-05-01T12:15:16.815Z</time></trkpt><trkpt lat="43.3074808" lon="13.2900713"><ele>266.0</ele><time>2026-05-01T12:15:17.814Z</time></trkpt><trkpt lat="43.3075676" lon="13.2900771"><ele>267.40000000000003</ele><time>2026-05-01T12:15:18.814Z</time></trkpt><trkpt lat="43.3076588" lon="13.290049"><ele>268.8</ele><time>2026-05-01T12:15:19.815Z</time></trkpt><trkpt lat="43.307749" lon="13.2899945"><ele>270.20000000000005</ele><time>2026-05-01T12:15:20.815Z</time></trkpt><trkpt lat="43.307839" lon="13.2899227"><ele>271.6</ele><time>2026-05-01T12:15:21.814Z</time></trkpt><trkpt lat="43.3079268" lon="13.2898423"><ele>273.0</ele><time>2026-05-01T12:15:22.815Z</time></trkpt><trkpt lat="43.3080173" lon="13.2897506"><ele>274.5</ele><time>2026-05-01T12:15:23.814Z</time></trkpt><trkpt lat="43.3081091" lon="13.2896553"><ele>276.0</ele><time>2026-05-01T12:15:24.814Z</time></trkpt><trkpt lat="43.3082026" lon="13.2895608"><ele>277.5</ele><time>2026-05-01T12:15:25.815Z</time></trkpt><trkpt lat="43.3082963" lon="13.2894567"><ele>279.0</ele><time>2026-05-01T12:15:26.816Z</time></trkpt><trkpt lat="43.3083909" lon="13.2893498"><ele>279.0</ele><time>2026-05-01T12:15:27.814Z</time></trkpt><trkpt lat="43.3084886" lon="13.2892443"><ele>279.0</ele><time>2026-05-01T12:15:28.816Z</time></trkpt><trkpt lat="43.3085864" lon="13.2891406"><ele>279.0</ele><time>2026-05-01T12:15:29.814Z</time></trkpt><trkpt lat="43.3086832" lon="13.2890374"><ele>279.0</ele><time>2026-05-01T12:15:30.815Z</time></trkpt><trkpt lat="43.3087807" lon="13.2889412"><ele>279.25</ele><time>2026-05-01T12:15:31.815Z</time></trkpt><trkpt lat="43.3088773" lon="13.288847"><ele>279.5</ele><time>2026-05-01T12:15:32.814Z</time></trkpt><trkpt lat="43.3089796" lon="13.2887651"><ele>279.75</ele><time>2026-05-01T12:15:33.814Z</time></trkpt><trkpt lat="43.3090872" lon="13.2887096"><ele>280.0</ele><time>2026-05-01T12:15:34.814Z</time></trkpt><trkpt lat="43.309202" lon="13.2886889"><ele>280.75</ele><time>2026-05-01T12:15:35.814Z</time></trkpt><trkpt lat="43.309323" lon="13.288687"><ele>281.5</ele><time>2026-05-01T12:15:36.815Z</time></trkpt><trkpt lat="43.3094495" lon="13.2886903"><ele>282.25</ele><time>2026-05-01T12:15:37.815Z</time></trkpt><trkpt lat="43.3095764" lon="13.2886842"><ele>283.0</ele><time>2026-05-01T12:15:38.815Z</time></trkpt><trkpt lat="43.3097051" lon="13.2886613"><ele>283.25</ele><time>2026-05-01T12:15:39.815Z</time></trkpt><trkpt lat="43.3098361" lon="13.2886274"><ele>283.5</ele><time>2026-05-01T12:15:40.815Z</time></trkpt><trkpt lat="43.3099665" lon="13.2885828"><ele>283.75</ele><time>2026-05-01T12:15:41.814Z</time></trkpt><trkpt lat="43.3101007" lon="13.2885416"><ele>284.0</ele><time>2026-05-01T12:15:42.816Z</time></trkpt><trkpt lat="43.3102386" lon="13.2884996"><ele>284.0</ele><time>2026-05-01T12:15:43.815Z</time></trkpt><trkpt lat="43.3103732" lon="13.2884598"><ele>284.0</ele><time>2026-05-01T12:15:44.814Z</time></trkpt><trkpt lat="43.3105082" lon="13.2884297"><ele>284.0</ele><time>2026-05-01T12:15:45.815Z</time></trkpt><trkpt lat="43.3106413" lon="13.288397"><ele>284.0</ele><time>2026-05-01T12:15:46.815Z</time></trkpt><trkpt lat="43.3107744" lon="13.2883644"><ele>284.25</ele><time>2026-05-01T12:15:47.814Z</time></trkpt><trkpt lat="43.3109088" lon="13.2883337"><ele>284.5</ele><time>2026-05-01T12:15:48.815Z</time></trkpt><trkpt lat="43.3110449" lon="13.2882976"><ele>284.75</ele><time>2026-05-01T12:15:49.815Z</time></trkpt><trkpt lat="43.3111835" lon="13.2882663"><ele>285.0</ele><time>2026-05-01T12:15:50.814Z</time></trkpt><trkpt lat="43.3113268" lon="13.2882344"><ele>285.5</ele><time>2026-05-01T12:15:51.816Z</time></trkpt><trkpt lat="43.3114706" lon="13.2882013"><ele>286.0</ele><time>2026-05-01T12:15:52.815Z</time></trkpt><trkpt lat="43.3116145" lon="13.2881589"><ele>286.5</ele><time>2026-05-01T12:15:53.815Z</time></trkpt><trkpt lat="43.3117587" lon="13.2881156"><ele>287.0</ele><time>2026-05-01T12:15:54.815Z</time></trkpt><trkpt lat="43.3119079" lon="13.288075"><ele>287.33333333333337</ele><time>2026-05-01T12:15:55.815Z</time></trkpt><trkpt lat="43.3120568" lon="13.2880456"><ele>287.6666666666667</ele><time>2026-05-01T12:15:56.815Z</time></trkpt><trkpt lat="43.3122046" lon="13.2880089"><ele>288.0</ele><time>2026-05-01T12:15:57.814Z</time></trkpt><trkpt lat="43.3123535" lon="13.2879764"><ele>289.0</ele><time>2026-05-01T12:15:58.814Z</time></trkpt><trkpt lat="43.312498" lon="13.2879426"><ele>290.0</ele><time>2026-05-01T12:15:59.814Z</time></trkpt><trkpt lat="43.3126426" lon="13.2879125"><ele>291.0</ele><time>2026-05-01T12:16:00.814Z</time></trkpt><trkpt lat="43.3127844" lon="13.2878931"><ele>292.0</ele><time>2026-05-01T12:16:01.814Z</time></trkpt><trkpt lat="43.3129219" lon="13.2878703"><ele>292.0</ele><time>2026-05-01T12:16:02.815Z</time></trkpt><trkpt lat="43.3130583" lon="13.2878233"><ele>292.0</ele><time>2026-05-01T12:16:03.815Z</time></trkpt><trkpt lat="43.3131964" lon="13.2877567"><ele>292.0</ele><time>2026-05-01T12:16:04.815Z</time></trkpt><trkpt lat="43.3133336" lon="13.2876878"><ele>292.0</ele><time>2026-05-01T12:16:05.815Z</time></trkpt><trkpt lat="43.3134672" lon="13.287623"><ele>291.5</ele><time>2026-05-01T12:16:06.815Z</time></trkpt><trkpt lat="43.3135996" lon="13.2875587"><ele>291.0</ele><time>2026-05-01T12:16:07.815Z</time></trkpt><trkpt lat="43.3137314" lon="13.287499"><ele>290.5</ele><time>2026-05-01T12:16:08.815Z</time></trkpt><trkpt lat="43.3138613" lon="13.2874424"><ele>290.0</ele><time>2026-05-01T12:16:09.815Z</time></trkpt><trkpt lat="43.3139906" lon="13.2873852"><ele>290.0</ele><time>2026-05-01T12:16:10.815Z</time></trkpt><trkpt lat="43.3141156" lon="13.2873244"><ele>290.0</ele><time>2026-05-01T12:16:11.814Z</time></trkpt><trkpt lat="43.3142413" lon="13.2872745"><ele>290.0</ele><time>2026-05-01T12:16:12.815Z</time></trkpt><trkpt lat="43.314365" lon="13.2872331"><ele>290.0</ele><time>2026-05-01T12:16:13.815Z</time></trkpt><trkpt lat="43.314485" lon="13.2871746"><ele>290.0</ele><time>2026-05-01T12:16:14.815Z</time></trkpt><trkpt lat="43.3145904" lon="13.2870893"><ele>290.0</ele><time>2026-05-01T12:16:15.815Z</time></trkpt><trkpt lat="43.3146833" lon="13.2869618"><ele>290.0</ele><time>2026-05-01T12:16:16.816Z</time></trkpt><trkpt lat="43.3147539" lon="13.286809"><ele>290.0</ele><time>2026-05-01T12:16:17.815Z</time></trkpt><trkpt lat="43.3148119" lon="13.2866337"><ele>290.33333333333337</ele><time>2026-05-01T12:16:18.815Z</time></trkpt><trkpt lat="43.314871" lon="13.2864506"><ele>290.6666666666667</ele><time>2026-05-01T12:16:19.814Z</time></trkpt><trkpt lat="43.3149327" lon="13.2862565"><ele>291.0</ele><time>2026-05-01T12:16:20.814Z</time></trkpt><trkpt lat="43.3149854" lon="13.286048"><ele>291.0</ele><time>2026-05-01T12:16:21.815Z</time></trkpt><trkpt lat="43.3150209" lon="13.2858349"><ele>291.0</ele><time>2026-05-01T12:16:22.815Z</time></trkpt><trkpt lat="43.3150363" lon="13.2856102"><ele>291.0</ele><time>2026-05-01T12:16:23.814Z</time></trkpt><trkpt lat="43.3150392" lon="13.2853804"><ele>292.3333333333333</ele><time>2026-05-01T12:16:24.814Z</time></trkpt><trkpt lat="43.3150279" lon="13.2851474"><ele>293.66666666666663</ele><time>2026-05-01T12:16:25.815Z</time></trkpt><trkpt lat="43.3150091" lon="13.2849056"><ele>295.0</ele><time>2026-05-01T12:16:26.815Z</time></trkpt><trkpt lat="43.3149921" lon="13.2846694"><ele>296.0</ele><time>2026-05-01T12:16:27.815Z</time></trkpt><trkpt lat="43.3149715" lon="13.28444"><ele>297.0</ele><time>2026-05-01T12:16:28.815Z</time></trkpt><trkpt lat="43.3149497" lon="13.2842174"><ele>298.0</ele><time>2026-05-01T12:16:29.816Z</time></trkpt><trkpt lat="43.3149225" lon="13.2839986"><ele>298.0</ele><time>2026-05-01T12:16:30.815Z</time></trkpt><trkpt lat="43.3148881" lon="13.2837805"><ele>298.0</ele><time>2026-05-01T12:16:31.815Z</time></trkpt><trkpt lat="43.3148474" lon="13.2835654"><ele>298.0</ele><time>2026-05-01T12:16:32.815Z</time></trkpt><trkpt lat="43.3148025" lon="13.2833519"><ele>298.0</ele><time>2026-05-01T12:16:33.815Z</time></trkpt><trkpt lat="43.3147557" lon="13.283142"><ele>298.0</ele><time>2026-05-01T12:16:34.815Z</time></trkpt><trkpt lat="43.3147079" lon="13.2829348"><ele>298.0</ele><time>2026-05-01T12:16:35.814Z</time></trkpt><trkpt lat="43.3146647" lon="13.2827472"><ele>299.5</ele><time>2026-05-01T12:16:36.815Z</time></trkpt><trkpt lat="43.3146174" lon="13.2825658"><ele>301.0</ele><time>2026-05-01T12:16:37.814Z</time></trkpt><trkpt lat="43.3145707" lon="13.2824001"><ele>302.5</ele><time>2026-05-01T12:16:38.816Z</time></trkpt><trkpt lat="43.314529" lon="13.2822367"><ele>304.0</ele><time>2026-05-01T12:16:39.815Z</time></trkpt><trkpt lat="43.3145097" lon="13.2821019"><ele>304.3333333333333</ele><time>2026-05-01T12:16:40.815Z</time></trkpt><trkpt lat="43.3145238" lon="13.2819935"><ele>304.66666666666663</ele><time>2026-05-01T12:16:41.815Z</time></trkpt><trkpt lat="43.3145776" lon="13.2819163"><ele>305.0</ele><time>2026-05-01T12:16:42.815Z</time></trkpt><trkpt lat="43.3146529" lon="13.2818661"><ele>305.3333333333333</ele><time>2026-05-01T12:16:43.815Z</time></trkpt><trkpt lat="43.3147452" lon="13.2818287"><ele>305.6666666666667</ele><time>2026-05-01T12:16:44.814Z</time></trkpt><trkpt lat="43.3148432" lon="13.2818"><ele>306.0</ele><time>2026-05-01T12:16:45.814Z</time></trkpt><trkpt lat="43.3149432" lon="13.2817758"><ele>306.0</ele><time>2026-05-01T12:16:46.815Z</time></trkpt><trkpt lat="43.3150536" lon="13.281753"><ele>306.0</ele><time>2026-05-01T12:16:47.815Z</time></trkpt><trkpt lat="43.3151678" lon="13.2817304"><ele>306.0</ele><time>2026-05-01T12:16:48.814Z</time></trkpt><trkpt lat="43.315285" lon="13.2817119"><ele>306.0</ele><time>2026-05-01T12:16:49.815Z</time></trkpt><trkpt lat="43.3154022" lon="13.2816939"><ele>306.0</ele><time>2026-05-01T12:16:50.815Z</time></trkpt><trkpt lat="43.3155198" lon="13.2816753"><ele>306.0</ele><time>2026-05-01T12:16:51.815Z</time></trkpt><trkpt lat="43.3156359" lon="13.2816568"><ele>306.0</ele><time>2026-05-01T12:16:52.815Z</time></trkpt><trkpt lat="43.3157517" lon="13.2816391"><ele>306.0</ele><time>2026-05-01T12:16:53.814Z</time></trkpt><trkpt lat="43.3158658" lon="13.2816234"><ele>307.40000000000003</ele><time>2026-05-01T12:16:54.815Z</time></trkpt><trkpt lat="43.3159767" lon="13.2816052"><ele>308.8</ele><time>2026-05-01T12:16:55.814Z</time></trkpt><trkpt lat="43.3160851" lon="13.2815875"><ele>310.20000000000005</ele><time>2026-05-01T12:16:56.815Z</time></trkpt><trkpt lat="43.3161934" lon="13.2815651"><ele>311.6</ele><time>2026-05-01T12:16:57.816Z</time></trkpt><trkpt lat="43.3163042" lon="13.2815447"><ele>313.0</ele><time>2026-05-01T12:16:58.815Z</time></trkpt><trkpt lat="43.3164138" lon="13.2815287"><ele>316.0</ele><time>2026-05-01T12:16:59.815Z</time></trkpt><trkpt lat="43.3165295" lon="13.2815115"><ele>319.0</ele><time>2026-05-01T12:17:00.816Z</time></trkpt><trkpt lat="43.3166476" lon="13.2814912"><ele>322.0</ele><time>2026-05-01T12:17:01.816Z</time></trkpt><trkpt lat="43.3167696" lon="13.2814667"><ele>325.0</ele><time>2026-05-01T12:17:02.815Z</time></trkpt><trkpt lat="43.3168921" lon="13.2814379"><ele>325.5</ele><time>2026-05-01T12:17:03.815Z</time></trkpt><trkpt lat="43.3170084" lon="13.2814027"><ele>326.0</ele><time>2026-05-01T12:17:04.815Z</time></trkpt><trkpt lat="43.3171239" lon="13.2813607"><ele>326.5</ele><time>2026-05-01T12:17:05.815Z</time></trkpt><trkpt lat="43.3172382" lon="13.2813069"><ele>327.0</ele><time>2026-05-01T12:17:06.815Z</time></trkpt><trkpt lat="43.3173466" lon="13.2812558"><ele>327.3333333333333</ele><time>2026-05-01T12:17:07.815Z</time></trkpt><trkpt lat="43.317441" lon="13.2812085"><ele>327.6666666666667</ele><time>2026-05-01T12:17:08.815Z</time></trkpt><trkpt lat="43.3175209" lon="13.2811664"><ele>328.0</ele><time>2026-05-01T12:17:09.814Z</time></trkpt><trkpt lat="43.3175857" lon="13.2811364"><ele>328.33333333333337</ele><time>2026-05-01T12:17:10.815Z</time></trkpt><trkpt lat="43.3176536" lon="13.2811022"><ele>328.6666666666667</ele><time>2026-05-01T12:17:12.815Z</time></trkpt><trkpt lat="43.3177136" lon="13.2810423"><ele>329.0</ele><time>2026-05-01T12:17:18.814Z</time></trkpt><trkpt lat="43.3176885" lon="13.2808959"><ele>329.0</ele><time>2026-05-01T12:17:21.815Z</time></trkpt><trkpt lat="43.3176537" lon="13.2807449"><ele>329.0</ele><time>2026-05-01T12:17:23.815Z</time></trkpt><trkpt lat="43.3176392" lon="13.2806581"><ele>329.0</ele><time>2026-05-01T12:17:24.816Z</time></trkpt><trkpt lat="43.317629" lon="13.280557"><ele>329.0</ele><time>2026-05-01T12:17:25.814Z</time></trkpt><trkpt lat="43.3176136" lon="13.2804492"><ele>329.0</ele><time>2026-05-01T12:17:26.815Z</time></trkpt><trkpt lat="43.317595" lon="13.2803307"><ele>329.0</ele><time>2026-05-01T12:17:27.815Z</time></trkpt><trkpt lat="43.3175726" lon="13.2802145"><ele>329.2</ele><time>2026-05-01T12:17:28.815Z</time></trkpt><trkpt lat="43.3175523" lon="13.2800949"><ele>329.4</ele><time>2026-05-01T12:17:29.814Z</time></trkpt><trkpt lat="43.3175363" lon="13.2799718"><ele>329.6</ele><time>2026-05-01T12:17:30.814Z</time></trkpt><trkpt lat="43.3175267" lon="13.2798448"><ele>329.8</ele><time>2026-05-01T12:17:31.814Z</time></trkpt><trkpt lat="43.3175164" lon="13.2797161"><ele>330.0</ele><time>2026-05-01T12:17:32.815Z</time></trkpt><trkpt lat="43.3174986" lon="13.2795874"><ele>330.2</ele><time>2026-05-01T12:17:33.814Z</time></trkpt><trkpt lat="43.3174796" lon="13.2794561"><ele>330.4</ele><time>2026-05-01T12:17:34.814Z</time></trkpt><trkpt lat="43.3174604" lon="13.2793223"><ele>330.6</ele><time>2026-05-01T12:17:35.815Z</time></trkpt><trkpt lat="43.3174391" lon="13.2791867"><ele>330.8</ele><time>2026-05-01T12:17:36.814Z</time></trkpt><trkpt lat="43.3174231" lon="13.2790452"><ele>331.0</ele><time>2026-05-01T12:17:37.815Z</time></trkpt><trkpt lat="43.3174038" lon="13.2789012"><ele>331.4</ele><time>2026-05-01T12:17:38.816Z</time></trkpt><trkpt lat="43.3173858" lon="13.2787572"><ele>331.8</ele><time>2026-05-01T12:17:39.815Z</time></trkpt><trkpt lat="43.3173727" lon="13.2786106"><ele>332.2</ele><time>2026-05-01T12:17:40.815Z</time></trkpt><trkpt lat="43.3173609" lon="13.2784589"><ele>332.59999999999997</ele><time>2026-05-01T12:17:41.816Z</time></trkpt><trkpt lat="43.3173439" lon="13.2783097"><ele>333.0</ele><time>2026-05-01T12:17:42.815Z</time></trkpt><trkpt lat="43.3173307" lon="13.278162"><ele>332.79999999999995</ele><time>2026-05-01T12:17:43.814Z</time></trkpt><trkpt lat="43.3173166" lon="13.2780203"><ele>332.6</ele><time>2026-05-01T12:17:44.815Z</time></trkpt><trkpt lat="43.3173007" lon="13.2778804"><ele>332.4</ele><time>2026-05-01T12:17:45.815Z</time></trkpt><trkpt lat="43.3172792" lon="13.2777438"><ele>332.20000000000005</ele><time>2026-05-01T12:17:46.815Z</time></trkpt><trkpt lat="43.317252" lon="13.2776046"><ele>332.0</ele><time>2026-05-01T12:17:47.816Z</time></trkpt><trkpt lat="43.3172182" lon="13.2774629"><ele>332.0</ele><time>2026-05-01T12:17:48.814Z</time></trkpt><trkpt lat="43.3171799" lon="13.2773149"><ele>332.0</ele><time>2026-05-01T12:17:49.815Z</time></trkpt><trkpt lat="43.3171347" lon="13.2771661"><ele>332.0</ele><time>2026-05-01T12:17:50.814Z</time></trkpt><trkpt lat="43.3170956" lon="13.277016"><ele>332.0</ele><time>2026-05-01T12:17:51.815Z</time></trkpt><trkpt lat="43.3170492" lon="13.276866"><ele>332.5</ele><time>2026-05-01T12:17:52.815Z</time></trkpt><trkpt lat="43.3170025" lon="13.2767104"><ele>333.0</ele><time>2026-05-01T12:17:53.815Z</time></trkpt><trkpt lat="43.3169572" lon="13.2765434"><ele>333.5</ele><time>2026-05-01T12:17:54.814Z</time></trkpt><trkpt lat="43.3169152" lon="13.2763696"><ele>334.0</ele><time>2026-05-01T12:17:55.814Z</time></trkpt><trkpt lat="43.3168693" lon="13.2761907"><ele>334.75</ele><time>2026-05-01T12:17:56.815Z</time></trkpt><trkpt lat="43.3168251" lon="13.2760131"><ele>335.5</ele><time>2026-05-01T12:17:57.814Z</time></trkpt><trkpt lat="43.3167896" lon="13.2758352"><ele>336.25</ele><time>2026-05-01T12:17:58.815Z</time></trkpt><trkpt lat="43.3167561" lon="13.2756548"><ele>337.0</ele><time>2026-05-01T12:17:59.815Z</time></trkpt><trkpt lat="43.3167275" lon="13.2754797"><ele>338.75</ele><time>2026-05-01T12:18:00.815Z</time></trkpt><trkpt lat="43.3166996" lon="13.2752985"><ele>340.5</ele><time>2026-05-01T12:18:01.815Z</time></trkpt><trkpt lat="43.3166788" lon="13.275116"><ele>342.25</ele><time>2026-05-01T12:18:02.815Z</time></trkpt><trkpt lat="43.3166627" lon="13.2749342"><ele>344.0</ele><time>2026-05-01T12:18:03.814Z</time></trkpt><trkpt lat="43.3166544" lon="13.2747607"><ele>344.75</ele><time>2026-05-01T12:18:04.816Z</time></trkpt><trkpt lat="43.3166438" lon="13.2745869"><ele>345.5</ele><time>2026-05-01T12:18:05.814Z</time></trkpt><trkpt lat="43.3166362" lon="13.2744094"><ele>346.25</ele><time>2026-05-01T12:18:06.815Z</time></trkpt><trkpt lat="43.3166237" lon="13.2742311"><ele>347.0</ele><time>2026-05-01T12:18:07.815Z</time></trkpt><trkpt lat="43.3166083" lon="13.2740518"><ele>347.75</ele><time>2026-05-01T12:18:08.815Z</time></trkpt><trkpt lat="43.3165904" lon="13.2738686"><ele>348.5</ele><time>2026-05-01T12:18:09.814Z</time></trkpt><trkpt lat="43.3165707" lon="13.2736768"><ele>349.25</ele><time>2026-05-01T12:18:10.814Z</time></trkpt><trkpt lat="43.3165488" lon="13.2734855"><ele>350.0</ele><time>2026-05-01T12:18:11.814Z</time></trkpt><trkpt lat="43.3165242" lon="13.2732799"><ele>350.33333333333337</ele><time>2026-05-01T12:18:12.815Z</time></trkpt><trkpt lat="43.3165004" lon="13.2730759"><ele>350.6666666666667</ele><time>2026-05-01T12:18:13.815Z</time></trkpt><trkpt lat="43.316474" lon="13.2728661"><ele>351.0</ele><time>2026-05-01T12:18:14.815Z</time></trkpt><trkpt lat="43.3164414" lon="13.27265"><ele>351.0</ele><time>2026-05-01T12:18:15.815Z</time></trkpt><trkpt lat="43.3164122" lon="13.2724283"><ele>351.0</ele><time>2026-05-01T12:18:16.815Z</time></trkpt><trkpt lat="43.3163803" lon="13.2722116"><ele>351.0</ele><time>2026-05-01T12:18:17.815Z</time></trkpt><trkpt lat="43.3163494" lon="13.2720031"><ele>350.75</ele><time>2026-05-01T12:18:18.816Z</time></trkpt><trkpt lat="43.3163166" lon="13.2717987"><ele>350.5</ele><time>2026-05-01T12:18:19.814Z</time></trkpt><trkpt lat="43.3162805" lon="13.2716043"><ele>350.25</ele><time>2026-05-01T12:18:20.814Z</time></trkpt><trkpt lat="43.3162347" lon="13.2714162"><ele>350.0</ele><time>2026-05-01T12:18:21.816Z</time></trkpt><trkpt lat="43.3161821" lon="13.2712256"><ele>351.75</ele><time>2026-05-01T12:18:22.815Z</time></trkpt><trkpt lat="43.3161214" lon="13.2710448"><ele>353.5</ele><time>2026-05-01T12:18:23.814Z</time></trkpt><trkpt lat="43.3160552" lon="13.2708667"><ele>355.25</ele><time>2026-05-01T12:18:24.816Z</time></trkpt><trkpt lat="43.3159862" lon="13.2706926"><ele>357.0</ele><time>2026-05-01T12:18:25.814Z</time></trkpt><trkpt lat="43.3159245" lon="13.2705124"><ele>358.5</ele><time>2026-05-01T12:18:26.815Z</time></trkpt><trkpt lat="43.3158706" lon="13.2703316"><ele>360.0</ele><time>2026-05-01T12:18:27.815Z</time></trkpt><trkpt lat="43.3158286" lon="13.2701466"><ele>361.5</ele><time>2026-05-01T12:18:28.816Z</time></trkpt><trkpt lat="43.3157976" lon="13.2699622"><ele>363.0</ele><time>2026-05-01T12:18:29.815Z</time></trkpt><trkpt lat="43.3157746" lon="13.2697809"><ele>364.25</ele><time>2026-05-01T12:18:30.814Z</time></trkpt><trkpt lat="43.3157564" lon="13.2695973"><ele>365.5</ele><time>2026-05-01T12:18:31.815Z</time></trkpt><trkpt lat="43.3157398" lon="13.2694173"><ele>366.75</ele><time>2026-05-01T12:18:32.814Z</time></trkpt><trkpt lat="43.3157335" lon="13.2692437"><ele>368.0</ele><time>2026-05-01T12:18:33.814Z</time></trkpt><trkpt lat="43.3157265" lon="13.2690677"><ele>368.5</ele><time>2026-05-01T12:18:34.814Z</time></trkpt><trkpt lat="43.3157188" lon="13.2689081"><ele>369.0</ele><time>2026-05-01T12:18:35.815Z</time></trkpt><trkpt lat="43.315695" lon="13.2687196"><ele>369.5</ele><time>2026-05-01T12:18:36.814Z</time></trkpt><trkpt lat="43.3156718" lon="13.2685376"><ele>370.0</ele><time>2026-05-01T12:18:37.815Z</time></trkpt><trkpt lat="43.3156471" lon="13.2683599"><ele>370.0</ele><time>2026-05-01T12:18:38.815Z</time></trkpt><trkpt lat="43.3156192" lon="13.2681804"><ele>370.0</ele><time>2026-05-01T12:18:39.814Z</time></trkpt><trkpt lat="43.3155946" lon="13.2679944"><ele>370.0</ele><time>2026-05-01T12:18:40.816Z</time></trkpt><trkpt lat="43.3155731" lon="13.2678044"><ele>370.0</ele><time>2026-05-01T12:18:41.814Z</time></trkpt><trkpt lat="43.3155534" lon="13.2676154"><ele>370.25</ele><time>2026-05-01T12:18:42.815Z</time></trkpt><trkpt lat="43.3155299" lon="13.2674165"><ele>370.5</ele><time>2026-05-01T12:18:43.816Z</time></trkpt><trkpt lat="43.3155092" lon="13.2672144"><ele>370.75</ele><time>2026-05-01T12:18:44.814Z</time></trkpt><trkpt lat="43.3154915" lon="13.2670129"><ele>371.0</ele><time>2026-05-01T12:18:45.814Z</time></trkpt><trkpt lat="43.3154754" lon="13.2668071"><ele>371.33333333333337</ele><time>2026-05-01T12:18:46.815Z</time></trkpt><trkpt lat="43.3154655" lon="13.266598"><ele>371.6666666666667</ele><time>2026-05-01T12:18:47.815Z</time></trkpt><trkpt lat="43.3154623" lon="13.2663922"><ele>372.0</ele><time>2026-05-01T12:18:48.815Z</time></trkpt><trkpt lat="43.3154646" lon="13.266188"><ele>372.25</ele><time>2026-05-01T12:18:49.814Z</time></trkpt><trkpt lat="43.315471" lon="13.2659844"><ele>372.5</ele><time>2026-05-01T12:18:50.815Z</time></trkpt><trkpt lat="43.3154806" lon="13.2657791"><ele>372.75</ele><time>2026-05-01T12:18:51.815Z</time></trkpt><trkpt lat="43.3154933" lon="13.2655728"><ele>373.0</ele><time>2026-05-01T12:18:52.815Z</time></trkpt><trkpt lat="43.3155061" lon="13.265366"><ele>373.25</ele><time>2026-05-01T12:18:53.814Z</time></trkpt><trkpt lat="43.3155146" lon="13.2651624"><ele>373.5</ele><time>2026-05-01T12:18:54.816Z</time></trkpt><trkpt lat="43.3155262" lon="13.2649634"><ele>373.75</ele><time>2026-05-01T12:18:55.816Z</time></trkpt><trkpt lat="43.3155363" lon="13.2647635"><ele>374.0</ele><time>2026-05-01T12:18:56.815Z</time></trkpt><trkpt lat="43.3155453" lon="13.2645682"><ele>374.5</ele><time>2026-05-01T12:18:57.815Z</time></trkpt><trkpt lat="43.3155498" lon="13.2643741"><ele>375.0</ele><time>2026-05-01T12:18:58.815Z</time></trkpt><trkpt lat="43.3155501" lon="13.2641794"><ele>375.5</ele><time>2026-05-01T12:18:59.815Z</time></trkpt><trkpt lat="43.3155367" lon="13.2639824"><ele>376.0</ele><time>2026-05-01T12:19:00.815Z</time></trkpt><trkpt lat="43.315513" lon="13.2637877"><ele>377.5</ele><time>2026-05-01T12:19:01.815Z</time></trkpt><trkpt lat="43.3154809" lon="13.2635949"><ele>379.0</ele><time>2026-05-01T12:19:02.815Z</time></trkpt><trkpt lat="43.3154486" lon="13.2634032"><ele>380.5</ele><time>2026-05-01T12:19:03.815Z</time></trkpt><trkpt lat="43.31541" lon="13.263214"><ele>382.0</ele><time>2026-05-01T12:19:04.816Z</time></trkpt><trkpt lat="43.3153661" lon="13.2630285"><ele>382.5</ele><time>2026-05-01T12:19:05.815Z</time></trkpt><trkpt lat="43.315326" lon="13.2628432"><ele>383.0</ele><time>2026-05-01T12:19:06.814Z</time></trkpt><trkpt lat="43.3152883" lon="13.2626502"><ele>383.5</ele><time>2026-05-01T12:19:07.815Z</time></trkpt><trkpt lat="43.3152595" lon="13.2624535"><ele>384.0</ele><time>2026-05-01T12:19:08.815Z</time></trkpt><trkpt lat="43.3152403" lon="13.2622522"><ele>384.0</ele><time>2026-05-01T12:19:09.814Z</time></trkpt><trkpt lat="43.315229" lon="13.2620475"><ele>384.0</ele><time>2026-05-01T12:19:10.815Z</time></trkpt><trkpt lat="43.3152284" lon="13.2618452"><ele>384.0</ele><time>2026-05-01T12:19:11.814Z</time></trkpt><trkpt lat="43.3152339" lon="13.2616423"><ele>384.0</ele><time>2026-05-01T12:19:12.814Z</time></trkpt><trkpt lat="43.3152473" lon="13.2614424"><ele>384.25</ele><time>2026-05-01T12:19:13.815Z</time></trkpt><trkpt lat="43.3152667" lon="13.2612426"><ele>384.5</ele><time>2026-05-01T12:19:14.815Z</time></trkpt><trkpt lat="43.3152905" lon="13.2610482"><ele>384.75</ele><time>2026-05-01T12:19:15.815Z</time></trkpt><trkpt lat="43.3153213" lon="13.2608544"><ele>385.0</ele><time>2026-05-01T12:19:16.814Z</time></trkpt><trkpt lat="43.3153619" lon="13.260663"><ele>384.75</ele><time>2026-05-01T12:19:17.815Z</time></trkpt><trkpt lat="43.3154028" lon="13.2604738"><ele>384.5</ele><time>2026-05-01T12:19:18.815Z</time></trkpt><trkpt lat="43.3154515" lon="13.2602866"><ele>384.25</ele><time>2026-05-01T12:19:19.815Z</time></trkpt><trkpt lat="43.315504" lon="13.2601032"><ele>384.0</ele><time>2026-05-01T12:19:20.816Z</time></trkpt><trkpt lat="43.3155584" lon="13.259921"><ele>385.25</ele><time>2026-05-01T12:19:21.815Z</time></trkpt><trkpt lat="43.3156175" lon="13.2597367"><ele>386.5</ele><time>2026-05-01T12:19:22.815Z</time></trkpt><trkpt lat="43.3156781" lon="13.2595554"><ele>387.75</ele><time>2026-05-01T12:19:23.814Z</time></trkpt><trkpt lat="43.3157347" lon="13.259367"><ele>389.0</ele><time>2026-05-01T12:19:24.815Z</time></trkpt><trkpt lat="43.315792" lon="13.2591831"><ele>389.0</ele><time>2026-05-01T12:19:25.815Z</time></trkpt><trkpt lat="43.3158423" lon="13.2589928"><ele>389.0</ele><time>2026-05-01T12:19:26.815Z</time></trkpt><trkpt lat="43.3158862" lon="13.2587946"><ele>389.0</ele><time>2026-05-01T12:19:27.814Z</time></trkpt><trkpt lat="43.3159188" lon="13.2585885"><ele>389.25</ele><time>2026-05-01T12:19:28.815Z</time></trkpt><trkpt lat="43.3159477" lon="13.2583895"><ele>389.5</ele><time>2026-05-01T12:19:29.815Z</time></trkpt><trkpt lat="43.3159688" lon="13.2581906"><ele>389.75</ele><time>2026-05-01T12:19:30.814Z</time></trkpt><trkpt lat="43.3159828" lon="13.2579971"><ele>390.0</ele><time>2026-05-01T12:19:31.814Z</time></trkpt><trkpt lat="43.3159919" lon="13.257804"><ele>390.0</ele><time>2026-05-01T12:19:32.816Z</time></trkpt><trkpt lat="43.3159932" lon="13.2576174"><ele>390.0</ele><time>2026-05-01T12:19:33.815Z</time></trkpt><trkpt lat="43.3159986" lon="13.2574446"><ele>390.0</ele><time>2026-05-01T12:19:34.815Z</time></trkpt><trkpt lat="43.3160142" lon="13.2572806"><ele>390.0</ele><time>2026-05-01T12:19:35.814Z</time></trkpt><trkpt lat="43.3160448" lon="13.2571254"><ele>391.0</ele><time>2026-05-01T12:19:36.816Z</time></trkpt><trkpt lat="43.316083" lon="13.2569855"><ele>392.0</ele><time>2026-05-01T12:19:37.814Z</time></trkpt><trkpt lat="43.3161248" lon="13.2568625"><ele>393.0</ele><time>2026-05-01T12:19:38.814Z</time></trkpt><trkpt lat="43.316166" lon="13.256763"><ele>394.0</ele><time>2026-05-01T12:19:39.815Z</time></trkpt><trkpt lat="43.3162022" lon="13.2566857"><ele>395.0</ele><time>2026-05-01T12:19:40.816Z</time></trkpt><trkpt lat="43.3163122" lon="13.2566202"><ele>394.99999999999994</ele><time>2026-05-01T12:19:42.816Z</time></trkpt><trkpt lat="43.3163804" lon="13.2566409"><ele>395.0</ele><time>2026-05-01T12:19:43.815Z</time></trkpt><trkpt lat="43.3164552" lon="13.2566885"><ele>395.0</ele><time>2026-05-01T12:19:44.814Z</time></trkpt><trkpt lat="43.3165308" lon="13.2567485"><ele>395.0</ele><time>2026-05-01T12:19:45.815Z</time></trkpt><trkpt lat="43.3166154" lon="13.2568066"><ele>394.99999999999994</ele><time>2026-05-01T12:19:46.815Z</time></trkpt><trkpt lat="43.3167075" lon="13.2568639"><ele>395.0</ele><time>2026-05-01T12:19:47.815Z</time></trkpt><trkpt lat="43.3168" lon="13.2569271"><ele>394.2</ele><time>2026-05-01T12:19:48.816Z</time></trkpt><trkpt lat="43.3168995" lon="13.2569963"><ele>393.4</ele><time>2026-05-01T12:19:49.815Z</time></trkpt><trkpt lat="43.3170023" lon="13.2570638"><ele>392.6</ele><time>2026-05-01T12:19:50.815Z</time></trkpt><trkpt lat="43.3171019" lon="13.2571366"><ele>391.8</ele><time>2026-05-01T12:19:51.814Z</time></trkpt><trkpt lat="43.3171938" lon="13.2572188"><ele>391.0</ele><time>2026-05-01T12:19:52.815Z</time></trkpt><trkpt lat="43.3172856" lon="13.2572884"><ele>391.00000000000006</ele><time>2026-05-01T12:19:53.815Z</time></trkpt><trkpt lat="43.3173797" lon="13.2573089"><ele>391.0</ele><time>2026-05-01T12:19:54.815Z</time></trkpt><trkpt lat="43.3174704" lon="13.25729"><ele>391.0</ele><time>2026-05-01T12:19:55.815Z</time></trkpt><trkpt lat="43.3175571" lon="13.2572425"><ele>391.0</ele><time>2026-05-01T12:19:56.815Z</time></trkpt><trkpt lat="43.3176279" lon="13.2571902"><ele>391.00000000000006</ele><time>2026-05-01T12:19:57.815Z</time></trkpt><trkpt lat="43.3177063" lon="13.2571331"><ele>391.0</ele><time>2026-05-01T12:19:58.815Z</time></trkpt><trkpt lat="43.317787" lon="13.257074"><ele>391.0</ele><time>2026-05-01T12:19:59.815Z</time></trkpt><trkpt lat="43.3178742" lon="13.2570239"><ele>391.0</ele><time>2026-05-01T12:20:00.815Z</time></trkpt><trkpt lat="43.3179643" lon="13.2569711"><ele>391.0</ele><time>2026-05-01T12:20:01.815Z</time></trkpt><trkpt lat="43.3180618" lon="13.2569276"><ele>391.0</ele><time>2026-05-01T12:20:02.815Z</time></trkpt><trkpt lat="43.318162" lon="13.2569008"><ele>391.0</ele><time>2026-05-01T12:20:03.815Z</time></trkpt><trkpt lat="43.3182699" lon="13.2568924"><ele>391.20000000000005</ele><time>2026-05-01T12:20:04.815Z</time></trkpt><trkpt lat="43.3183751" lon="13.2568899"><ele>391.40000000000003</ele><time>2026-05-01T12:20:05.814Z</time></trkpt><trkpt lat="43.3184787" lon="13.2568939"><ele>391.6</ele><time>2026-05-01T12:20:06.815Z</time></trkpt><trkpt lat="43.3185816" lon="13.2569017"><ele>391.8</ele><time>2026-05-01T12:20:07.814Z</time></trkpt><trkpt lat="43.3186782" lon="13.2569147"><ele>392.0</ele><time>2026-05-01T12:20:08.815Z</time></trkpt><trkpt lat="43.3187622" lon="13.2569399"><ele>391.99999999999994</ele><time>2026-05-01T12:20:09.814Z</time></trkpt><trkpt lat="43.3188449" lon="13.2569588"><ele>392.0</ele><time>2026-05-01T12:20:10.815Z</time></trkpt><trkpt lat="43.3189258" lon="13.2569521"><ele>392.0</ele><time>2026-05-01T12:20:11.816Z</time></trkpt><trkpt lat="43.3189984" lon="13.2569306"><ele>392.0</ele><time>2026-05-01T12:20:12.815Z</time></trkpt><trkpt lat="43.3190629" lon="13.2568543"><ele>391.99999999999994</ele><time>2026-05-01T12:20:13.814Z</time></trkpt><trkpt lat="43.3191105" lon="13.2567556"><ele>392.0</ele><time>2026-05-01T12:20:14.815Z</time></trkpt><trkpt lat="43.3191542" lon="13.2566493"><ele>392.66666666666663</ele><time>2026-05-01T12:20:15.814Z</time></trkpt><trkpt lat="43.3191975" lon="13.2565502"><ele>393.3333333333333</ele><time>2026-05-01T12:20:16.815Z</time></trkpt><trkpt lat="43.3192438" lon="13.2564643"><ele>394.0</ele><time>2026-05-01T12:20:17.815Z</time></trkpt><trkpt lat="43.3193082" lon="13.2564141"><ele>394.66666666666663</ele><time>2026-05-01T12:20:18.814Z</time></trkpt><trkpt lat="43.3193788" lon="13.2564156"><ele>395.3333333333333</ele><time>2026-05-01T12:20:19.815Z</time></trkpt><trkpt lat="43.3194505" lon="13.2564547"><ele>396.0</ele><time>2026-05-01T12:20:20.814Z</time></trkpt><trkpt lat="43.3195227" lon="13.2565085"><ele>394.5</ele><time>2026-05-01T12:20:21.815Z</time></trkpt><trkpt lat="43.3195954" lon="13.2565632"><ele>393.0</ele><time>2026-05-01T12:20:22.814Z</time></trkpt><trkpt lat="43.3196665" lon="13.2566266"><ele>391.5</ele><time>2026-05-01T12:20:23.815Z</time></trkpt><trkpt lat="43.3197406" lon="13.2566828"><ele>390.0</ele><time>2026-05-01T12:20:24.815Z</time></trkpt><trkpt lat="43.3198119" lon="13.2567318"><ele>388.5</ele><time>2026-05-01T12:20:25.814Z</time></trkpt><trkpt lat="43.3198858" lon="13.2567808"><ele>387.0</ele><time>2026-05-01T12:20:26.816Z</time></trkpt><trkpt lat="43.3199619" lon="13.2568193"><ele>387.0</ele><time>2026-05-01T12:20:27.815Z</time></trkpt><trkpt lat="43.3200367" lon="13.2568587"><ele>387.0</ele><time>2026-05-01T12:20:28.815Z</time></trkpt><trkpt lat="43.3201125" lon="13.2569036"><ele>387.0</ele><time>2026-05-01T12:20:29.815Z</time></trkpt><trkpt lat="43.3201879" lon="13.2569462"><ele>387.0</ele><time>2026-05-01T12:20:30.815Z</time></trkpt><trkpt lat="43.3202685" lon="13.2569929"><ele>387.0</ele><time>2026-05-01T12:20:31.815Z</time></trkpt><trkpt lat="43.3203464" lon="13.2570402"><ele>387.0</ele><time>2026-05-01T12:20:32.816Z</time></trkpt><trkpt lat="43.3204303" lon="13.2570885"><ele>387.0</ele><time>2026-05-01T12:20:33.815Z</time></trkpt><trkpt lat="43.3205199" lon="13.2571311"><ele>387.0</ele><time>2026-05-01T12:20:34.814Z</time></trkpt><trkpt lat="43.3206107" lon="13.2571787"><ele>387.0</ele><time>2026-05-01T12:20:35.816Z</time></trkpt><trkpt lat="43.3206945" lon="13.2572362"><ele>387.0</ele><time>2026-05-01T12:20:36.815Z</time></trkpt><trkpt lat="43.3207605" lon="13.2573059"><ele>387.0</ele><time>2026-05-01T12:20:37.815Z</time></trkpt><trkpt lat="43.320834" lon="13.2573837"><ele>389.0</ele><time>2026-05-01T12:20:38.814Z</time></trkpt><trkpt lat="43.3208924" lon="13.2574366"><ele>391.0</ele><time>2026-05-01T12:20:39.815Z</time></trkpt><trkpt lat="43.3209727" lon="13.257486"><ele>393.0</ele><time>2026-05-01T12:20:40.815Z</time></trkpt><trkpt lat="43.3210606" lon="13.2575161"><ele>395.0</ele><time>2026-05-01T12:20:41.815Z</time></trkpt><trkpt lat="43.3211424" lon="13.2575401"><ele>397.0</ele><time>2026-05-01T12:20:42.815Z</time></trkpt><trkpt lat="43.3212299" lon="13.25756"><ele>399.0</ele><time>2026-05-01T12:20:43.815Z</time></trkpt><trkpt lat="43.3213192" lon="13.2575743"><ele>400.3333333333333</ele><time>2026-05-01T12:20:44.814Z</time></trkpt><trkpt lat="43.3214142" lon="13.2575859"><ele>401.66666666666663</ele><time>2026-05-01T12:20:45.814Z</time></trkpt><trkpt lat="43.3215033" lon="13.257597"><ele>403.0</ele><time>2026-05-01T12:20:46.815Z</time></trkpt><trkpt lat="43.3215891" lon="13.2576139"><ele>404.3333333333333</ele><time>2026-05-01T12:20:47.814Z</time></trkpt><trkpt lat="43.3216714" lon="13.2576306"><ele>405.66666666666663</ele><time>2026-05-01T12:20:48.814Z</time></trkpt><trkpt lat="43.3217535" lon="13.2576483"><ele>407.0</ele><time>2026-05-01T12:20:49.815Z</time></trkpt><trkpt lat="43.3218396" lon="13.257668"><ele>407.0</ele><time>2026-05-01T12:20:50.815Z</time></trkpt><trkpt lat="43.3219308" lon="13.2576857"><ele>407.0</ele><time>2026-05-01T12:20:51.814Z</time></trkpt><trkpt lat="43.3220327" lon="13.2577041"><ele>407.0</ele><time>2026-05-01T12:20:52.814Z</time></trkpt><trkpt lat="43.3221392" lon="13.2577305"><ele>407.0</ele><time>2026-05-01T12:20:53.815Z</time></trkpt><trkpt lat="43.3222472" lon="13.2577546"><ele>407.0</ele><time>2026-05-01T12:20:54.815Z</time></trkpt><trkpt lat="43.3223596" lon="13.2577802"><ele>406.0</ele><time>2026-05-01T12:20:55.814Z</time></trkpt><trkpt lat="43.3224739" lon="13.2578117"><ele>405.0</ele><time>2026-05-01T12:20:56.814Z</time></trkpt><trkpt lat="43.3225883" lon="13.2578484"><ele>404.0</ele><time>2026-05-01T12:20:57.815Z</time></trkpt><trkpt lat="43.3227029" lon="13.2578852"><ele>403.0</ele><time>2026-05-01T12:20:58.814Z</time></trkpt><trkpt lat="43.3228159" lon="13.257924"><ele>403.0</ele><time>2026-05-01T12:20:59.815Z</time></trkpt><trkpt lat="43.3229233" lon="13.2579668"><ele>403.0</ele><time>2026-05-01T12:21:00.816Z</time></trkpt><trkpt lat="43.3230242" lon="13.2580101"><ele>403.0</ele><time>2026-05-01T12:21:01.815Z</time></trkpt><trkpt lat="43.3231204" lon="13.2580643"><ele>403.0</ele><time>2026-05-01T12:21:02.814Z</time></trkpt><trkpt lat="43.3232005" lon="13.2581245"><ele>403.0</ele><time>2026-05-01T12:21:03.815Z</time></trkpt><trkpt lat="43.3232615" lon="13.2582061"><ele>401.2</ele><time>2026-05-01T12:21:04.815Z</time></trkpt><trkpt lat="43.3233063" lon="13.2583126"><ele>399.4</ele><time>2026-05-01T12:21:05.815Z</time></trkpt><trkpt lat="43.3233382" lon="13.2584363"><ele>397.59999999999997</ele><time>2026-05-01T12:21:06.814Z</time></trkpt><trkpt lat="43.3233646" lon="13.258572"><ele>395.79999999999995</ele><time>2026-05-01T12:21:07.815Z</time></trkpt><trkpt lat="43.323387" lon="13.2587199"><ele>394.0</ele><time>2026-05-01T12:21:08.815Z</time></trkpt><trkpt lat="43.3234075" lon="13.2588764"><ele>394.0</ele><time>2026-05-01T12:21:09.815Z</time></trkpt><trkpt lat="43.3234212" lon="13.259032"><ele>394.0</ele><time>2026-05-01T12:21:10.815Z</time></trkpt><trkpt lat="43.3234299" lon="13.2591802"><ele>394.0</ele><time>2026-05-01T12:21:11.814Z</time></trkpt><trkpt lat="43.3234371" lon="13.259334"><ele>394.0</ele><time>2026-05-01T12:21:12.814Z</time></trkpt><trkpt lat="43.3234432" lon="13.2594837"><ele>394.0</ele><time>2026-05-01T12:21:13.814Z</time></trkpt><trkpt lat="43.3234441" lon="13.2596327"><ele>393.6</ele><time>2026-05-01T12:21:14.814Z</time></trkpt><trkpt lat="43.323445" lon="13.2597849"><ele>393.2</ele><time>2026-05-01T12:21:15.814Z</time></trkpt><trkpt lat="43.3234455" lon="13.2599371"><ele>392.8</ele><time>2026-05-01T12:21:16.814Z</time></trkpt><trkpt lat="43.3234477" lon="13.2600879"><ele>392.40000000000003</ele><time>2026-05-01T12:21:17.815Z</time></trkpt><trkpt lat="43.3234511" lon="13.2602321"><ele>392.0</ele><time>2026-05-01T12:21:18.815Z</time></trkpt><trkpt lat="43.3234592" lon="13.2603778"><ele>392.0</ele><time>2026-05-01T12:21:19.815Z</time></trkpt><trkpt lat="43.3234717" lon="13.2605227"><ele>392.0</ele><time>2026-05-01T12:21:20.815Z</time></trkpt><trkpt lat="43.3234866" lon="13.2606725"><ele>392.0</ele><time>2026-05-01T12:21:21.816Z</time></trkpt><trkpt lat="43.3235063" lon="13.2608245"><ele>392.0</ele><time>2026-05-01T12:21:22.815Z</time></trkpt><trkpt lat="43.323532" lon="13.2609715"><ele>392.0</ele><time>2026-05-01T12:21:23.814Z</time></trkpt><trkpt lat="43.3235616" lon="13.2611176"><ele>391.40000000000003</ele><time>2026-05-01T12:21:24.814Z</time></trkpt><trkpt lat="43.323594" lon="13.261259"><ele>390.8</ele><time>2026-05-01T12:21:25.814Z</time></trkpt><trkpt lat="43.3236378" lon="13.261395"><ele>390.2</ele><time>2026-05-01T12:21:26.814Z</time></trkpt><trkpt lat="43.3236906" lon="13.2615225"><ele>389.6</ele><time>2026-05-01T12:21:27.815Z</time></trkpt><trkpt lat="43.3237411" lon="13.2616466"><ele>389.0</ele><time>2026-05-01T12:21:28.816Z</time></trkpt><trkpt lat="43.3237869" lon="13.2617699"><ele>388.79999999999995</ele><time>2026-05-01T12:21:29.815Z</time></trkpt><trkpt lat="43.3238394" lon="13.2618912"><ele>388.59999999999997</ele><time>2026-05-01T12:21:30.814Z</time></trkpt><trkpt lat="43.3238866" lon="13.2620161"><ele>388.4</ele><time>2026-05-01T12:21:31.814Z</time></trkpt><trkpt lat="43.3239339" lon="13.2621373"><ele>388.2</ele><time>2026-05-01T12:21:32.815Z</time></trkpt><trkpt lat="43.3239807" lon="13.2622539"><ele>388.0</ele><time>2026-05-01T12:21:33.814Z</time></trkpt><trkpt lat="43.324025" lon="13.2623665"><ele>387.0</ele><time>2026-05-01T12:21:34.814Z</time></trkpt><trkpt lat="43.32407" lon="13.2624772"><ele>386.0</ele><time>2026-05-01T12:21:35.816Z</time></trkpt><trkpt lat="43.3241203" lon="13.2625878"><ele>385.0</ele><time>2026-05-01T12:21:36.816Z</time></trkpt><trkpt lat="43.3241769" lon="13.262699"><ele>384.0</ele><time>2026-05-01T12:21:37.815Z</time></trkpt><trkpt lat="43.3242397" lon="13.2628082"><ele>383.0</ele><time>2026-05-01T12:21:38.814Z</time></trkpt><trkpt lat="43.3243169" lon="13.2629048"><ele>383.0</ele><time>2026-05-01T12:21:39.815Z</time></trkpt><trkpt lat="43.324409" lon="13.2629812"><ele>383.0</ele><time>2026-05-01T12:21:40.815Z</time></trkpt><trkpt lat="43.3245076" lon="13.2630305"><ele>383.0</ele><time>2026-05-01T12:21:41.815Z</time></trkpt><trkpt lat="43.3246118" lon="13.2630688"><ele>383.0</ele><time>2026-05-01T12:21:42.814Z</time></trkpt><trkpt lat="43.3247125" lon="13.2631238"><ele>383.0</ele><time>2026-05-01T12:21:43.815Z</time></trkpt><trkpt lat="43.324807" lon="13.2632066"><ele>381.2</ele><time>2026-05-01T12:21:44.816Z</time></trkpt><trkpt lat="43.3248905" lon="13.2633027"><ele>379.4</ele><time>2026-05-01T12:21:45.815Z</time></trkpt><trkpt lat="43.3249582" lon="13.2634193"><ele>377.59999999999997</ele><time>2026-05-01T12:21:46.815Z</time></trkpt><trkpt lat="43.3250038" lon="13.2635458"><ele>375.79999999999995</ele><time>2026-05-01T12:21:47.815Z</time></trkpt><trkpt lat="43.3250238" lon="13.2636763"><ele>374.0</ele><time>2026-05-01T12:21:48.815Z</time></trkpt><trkpt lat="43.325033" lon="13.2638046"><ele>374.0</ele><time>2026-05-01T12:21:49.815Z</time></trkpt><trkpt lat="43.3250379" lon="13.2639274"><ele>374.0</ele><time>2026-05-01T12:21:50.815Z</time></trkpt><trkpt lat="43.3250526" lon="13.2640422"><ele>374.0</ele><time>2026-05-01T12:21:51.815Z</time></trkpt><trkpt lat="43.3250758" lon="13.2641607"><ele>374.0</ele><time>2026-05-01T12:21:52.815Z</time></trkpt><trkpt lat="43.3251099" lon="13.2642803"><ele>374.0</ele><time>2026-05-01T12:21:53.816Z</time></trkpt><trkpt lat="43.3251499" lon="13.2643979"><ele>373.79999999999995</ele><time>2026-05-01T12:21:54.815Z</time></trkpt><trkpt lat="43.3251841" lon="13.2645191"><ele>373.59999999999997</ele><time>2026-05-01T12:21:55.816Z</time></trkpt><trkpt lat="43.3252195" lon="13.2646406"><ele>373.4</ele><time>2026-05-01T12:21:56.815Z</time></trkpt><trkpt lat="43.32526" lon="13.2647609"><ele>373.2</ele><time>2026-05-01T12:21:57.815Z</time></trkpt><trkpt lat="43.3252955" lon="13.264882"><ele>373.0</ele><time>2026-05-01T12:21:58.815Z</time></trkpt><trkpt lat="43.3253299" lon="13.2650012"><ele>371.79999999999995</ele><time>2026-05-01T12:21:59.814Z</time></trkpt><trkpt lat="43.3253678" lon="13.2651192"><ele>370.6</ele><time>2026-05-01T12:22:00.815Z</time></trkpt><trkpt lat="43.3254043" lon="13.2652434"><ele>369.4</ele><time>2026-05-01T12:22:01.816Z</time></trkpt><trkpt lat="43.3254405" lon="13.265366"><ele>368.20000000000005</ele><time>2026-05-01T12:22:02.815Z</time></trkpt><trkpt lat="43.3254748" lon="13.2654954"><ele>367.0</ele><time>2026-05-01T12:22:03.815Z</time></trkpt><trkpt lat="43.3255099" lon="13.2656227"><ele>366.20000000000005</ele><time>2026-05-01T12:22:04.814Z</time></trkpt><trkpt lat="43.3255433" lon="13.2657586"><ele>365.4</ele><time>2026-05-01T12:22:05.813Z</time></trkpt><trkpt lat="43.3255761" lon="13.2658893"><ele>364.6</ele><time>2026-05-01T12:22:06.813Z</time></trkpt><trkpt lat="43.3256121" lon="13.2660168"><ele>363.79999999999995</ele><time>2026-05-01T12:22:07.814Z</time></trkpt><trkpt lat="43.3256472" lon="13.2661466"><ele>363.0</ele><time>2026-05-01T12:22:08.815Z</time></trkpt><trkpt lat="43.3256819" lon="13.2662721"><ele>362.79999999999995</ele><time>2026-05-01T12:22:09.814Z</time></trkpt><trkpt lat="43.3257126" lon="13.2663974"><ele>362.6</ele><time>2026-05-01T12:22:10.814Z</time></trkpt><trkpt lat="43.3257294" lon="13.2665299"><ele>362.4</ele><time>2026-05-01T12:22:11.814Z</time></trkpt><trkpt lat="43.3257357" lon="13.2666602"><ele>362.20000000000005</ele><time>2026-05-01T12:22:12.814Z</time></trkpt><trkpt lat="43.3257397" lon="13.2667939"><ele>362.0</ele><time>2026-05-01T12:22:13.814Z</time></trkpt><trkpt lat="43.3257362" lon="13.2669238"><ele>361.40000000000003</ele><time>2026-05-01T12:22:14.814Z</time></trkpt><trkpt lat="43.3257222" lon="13.2670555"><ele>360.8</ele><time>2026-05-01T12:22:15.813Z</time></trkpt><trkpt lat="43.3257104" lon="13.2671896"><ele>360.2</ele><time>2026-05-01T12:22:16.813Z</time></trkpt><trkpt lat="43.3256958" lon="13.2673309"><ele>359.6</ele><time>2026-05-01T12:22:17.813Z</time></trkpt><trkpt lat="43.3256759" lon="13.2674648"><ele>359.0</ele><time>2026-05-01T12:22:18.813Z</time></trkpt><trkpt lat="43.325649" lon="13.2676059"><ele>358.79999999999995</ele><time>2026-05-01T12:22:19.814Z</time></trkpt><trkpt lat="43.3256173" lon="13.2677388"><ele>358.59999999999997</ele><time>2026-05-01T12:22:20.813Z</time></trkpt><trkpt lat="43.3255853" lon="13.2678706"><ele>358.4</ele><time>2026-05-01T12:22:21.813Z</time></trkpt><trkpt lat="43.3255511" lon="13.2680025"><ele>358.2</ele><time>2026-05-01T12:22:22.814Z</time></trkpt><trkpt lat="43.3255194" lon="13.2681375"><ele>358.0</ele><time>2026-05-01T12:22:23.814Z</time></trkpt><trkpt lat="43.3254876" lon="13.2682725"><ele>356.4</ele><time>2026-05-01T12:22:24.814Z</time></trkpt><trkpt lat="43.3254555" lon="13.2684065"><ele>354.79999999999995</ele><time>2026-05-01T12:22:25.813Z</time></trkpt><trkpt lat="43.3254262" lon="13.268549"><ele>353.2</ele><time>2026-05-01T12:22:26.814Z</time></trkpt><trkpt lat="43.325393" lon="13.2686983"><ele>351.6</ele><time>2026-05-01T12:22:27.814Z</time></trkpt><trkpt lat="43.3253598" lon="13.268852"><ele>350.0</ele><time>2026-05-01T12:22:28.814Z</time></trkpt><trkpt lat="43.3253255" lon="13.269017"><ele>348.0</ele><time>2026-05-01T12:22:29.813Z</time></trkpt><trkpt lat="43.3252912" lon="13.2691913"><ele>346.0</ele><time>2026-05-01T12:22:30.813Z</time></trkpt><trkpt lat="43.3252578" lon="13.2693742"><ele>344.0</ele><time>2026-05-01T12:22:31.814Z</time></trkpt><trkpt lat="43.3252255" lon="13.2695591"><ele>342.0</ele><time>2026-05-01T12:22:32.814Z</time></trkpt><trkpt lat="43.3251918" lon="13.2697458"><ele>340.0</ele><time>2026-05-01T12:22:33.814Z</time></trkpt><trkpt lat="43.3251565" lon="13.2699347"><ele>338.0</ele><time>2026-05-01T12:22:34.814Z</time></trkpt><trkpt lat="43.3251221" lon="13.2701178"><ele>336.0</ele><time>2026-05-01T12:22:35.814Z</time></trkpt><trkpt lat="43.3250859" lon="13.2703034"><ele>334.0</ele><time>2026-05-01T12:22:36.813Z</time></trkpt><trkpt lat="43.3250472" lon="13.2704756"><ele>332.79999999999995</ele><time>2026-05-01T12:22:37.814Z</time></trkpt><trkpt lat="43.3250045" lon="13.270628"><ele>331.59999999999997</ele><time>2026-05-01T12:22:38.814Z</time></trkpt><trkpt lat="43.3249468" lon="13.2707573"><ele>330.4</ele><time>2026-05-01T12:22:39.814Z</time></trkpt><trkpt lat="43.3248709" lon="13.2708654"><ele>329.2</ele><time>2026-05-01T12:22:40.814Z</time></trkpt><trkpt lat="43.324786" lon="13.2709609"><ele>328.0</ele><time>2026-05-01T12:22:41.814Z</time></trkpt><trkpt lat="43.3247091" lon="13.271069"><ele>327.59999999999997</ele><time>2026-05-01T12:22:42.814Z</time></trkpt><trkpt lat="43.3246356" lon="13.2711874"><ele>327.2</ele><time>2026-05-01T12:22:43.814Z</time></trkpt><trkpt lat="43.3245673" lon="13.2713075"><ele>326.8</ele><time>2026-05-01T12:22:44.813Z</time></trkpt><trkpt lat="43.3245008" lon="13.2714271"><ele>326.4</ele><time>2026-05-01T12:22:45.814Z</time></trkpt><trkpt lat="43.3244292" lon="13.2715414"><ele>326.0</ele><time>2026-05-01T12:22:46.814Z</time></trkpt><trkpt lat="43.3243558" lon="13.2716497"><ele>324.0</ele><time>2026-05-01T12:22:47.814Z</time></trkpt><trkpt lat="43.3242879" lon="13.2717636"><ele>322.0</ele><time>2026-05-01T12:22:48.814Z</time></trkpt><trkpt lat="43.3242276" lon="13.271885"><ele>320.0</ele><time>2026-05-01T12:22:49.813Z</time></trkpt><trkpt lat="43.3241807" lon="13.2720122"><ele>318.0</ele><time>2026-05-01T12:22:50.813Z</time></trkpt><trkpt lat="43.3241524" lon="13.2721448"><ele>316.0</ele><time>2026-05-01T12:22:51.813Z</time></trkpt><trkpt lat="43.3241342" lon="13.272284"><ele>315.0</ele><time>2026-05-01T12:22:52.813Z</time></trkpt><trkpt lat="43.3241236" lon="13.2724218"><ele>314.0</ele><time>2026-05-01T12:22:53.814Z</time></trkpt><trkpt lat="43.3241081" lon="13.2725618"><ele>313.0</ele><time>2026-05-01T12:22:54.813Z</time></trkpt><trkpt lat="43.3240935" lon="13.2727026"><ele>312.0</ele><time>2026-05-01T12:22:55.813Z</time></trkpt><trkpt lat="43.324084" lon="13.2728357"><ele>311.0</ele><time>2026-05-01T12:22:56.814Z</time></trkpt><trkpt lat="43.3240888" lon="13.2729677"><ele>311.0</ele><time>2026-05-01T12:22:57.814Z</time></trkpt><trkpt lat="43.3241035" lon="13.2730945"><ele>311.0</ele><time>2026-05-01T12:22:58.814Z</time></trkpt><trkpt lat="43.324128" lon="13.2732134"><ele>311.0</ele><time>2026-05-01T12:22:59.814Z</time></trkpt><trkpt lat="43.3241589" lon="13.2733283"><ele>311.0</ele><time>2026-05-01T12:23:00.813Z</time></trkpt><trkpt lat="43.3241845" lon="13.2734425"><ele>311.0</ele><time>2026-05-01T12:23:01.814Z</time></trkpt><trkpt lat="43.3242053" lon="13.2735528"><ele>311.0</ele><time>2026-05-01T12:23:02.814Z</time></trkpt><trkpt lat="43.3242216" lon="13.2736584"><ele>309.5</ele><time>2026-05-01T12:23:03.814Z</time></trkpt><trkpt lat="43.3242339" lon="13.2737606"><ele>308.0</ele><time>2026-05-01T12:23:04.814Z</time></trkpt><trkpt lat="43.3242427" lon="13.2738681"><ele>306.5</ele><time>2026-05-01T12:23:05.814Z</time></trkpt><trkpt lat="43.32425" lon="13.2739755"><ele>305.0</ele><time>2026-05-01T12:23:06.814Z</time></trkpt><trkpt lat="43.3242616" lon="13.2740812"><ele>303.5</ele><time>2026-05-01T12:23:07.813Z</time></trkpt><trkpt lat="43.3242722" lon="13.274188"><ele>302.0</ele><time>2026-05-01T12:23:08.814Z</time></trkpt><trkpt lat="43.324283" lon="13.2742946"><ele>301.33333333333337</ele><time>2026-05-01T12:23:09.813Z</time></trkpt><trkpt lat="43.3242904" lon="13.2744044"><ele>300.6666666666667</ele><time>2026-05-01T12:23:10.813Z</time></trkpt><trkpt lat="43.3242952" lon="13.2745153"><ele>300.0</ele><time>2026-05-01T12:23:11.814Z</time></trkpt><trkpt lat="43.3242914" lon="13.2746258"><ele>299.3333333333333</ele><time>2026-05-01T12:23:12.814Z</time></trkpt><trkpt lat="43.3242785" lon="13.274736"><ele>298.66666666666663</ele><time>2026-05-01T12:23:13.814Z</time></trkpt><trkpt lat="43.3242603" lon="13.2748422"><ele>298.0</ele><time>2026-05-01T12:23:14.814Z</time></trkpt><trkpt lat="43.324237" lon="13.2749556"><ele>296.4</ele><time>2026-05-01T12:23:15.813Z</time></trkpt><trkpt lat="43.3242097" lon="13.2750812"><ele>294.8</ele><time>2026-05-01T12:23:16.814Z</time></trkpt><trkpt lat="43.324182" lon="13.275208"><ele>293.2</ele><time>2026-05-01T12:23:17.814Z</time></trkpt><trkpt lat="43.3241495" lon="13.2753394"><ele>291.6</ele><time>2026-05-01T12:23:18.813Z</time></trkpt><trkpt lat="43.324121" lon="13.2754741"><ele>290.0</ele><time>2026-05-01T12:23:19.814Z</time></trkpt><trkpt lat="43.3241029" lon="13.2756087"><ele>289.2</ele><time>2026-05-01T12:23:20.814Z</time></trkpt><trkpt lat="43.3240994" lon="13.2757447"><ele>288.4</ele><time>2026-05-01T12:23:21.814Z</time></trkpt><trkpt lat="43.3241088" lon="13.2758747"><ele>287.6</ele><time>2026-05-01T12:23:22.814Z</time></trkpt><trkpt lat="43.3241279" lon="13.2760014"><ele>286.8</ele><time>2026-05-01T12:23:23.814Z</time></trkpt><trkpt lat="43.3241532" lon="13.2761307"><ele>286.0</ele><time>2026-05-01T12:23:24.814Z</time></trkpt><trkpt lat="43.3241799" lon="13.2762591"><ele>286.0</ele><time>2026-05-01T12:23:25.814Z</time></trkpt><trkpt lat="43.3242106" lon="13.2763877"><ele>286.0</ele><time>2026-05-01T12:23:26.815Z</time></trkpt><trkpt lat="43.3242451" lon="13.2765166"><ele>286.0</ele><time>2026-05-01T12:23:27.814Z</time></trkpt><trkpt lat="43.3242798" lon="13.2766462"><ele>286.0</ele><time>2026-05-01T12:23:28.814Z</time></trkpt><trkpt lat="43.3243105" lon="13.2767794"><ele>286.0</ele><time>2026-05-01T12:23:29.814Z</time></trkpt><trkpt lat="43.3243471" lon="13.2769092"><ele>285.2</ele><time>2026-05-01T12:23:30.814Z</time></trkpt><trkpt lat="43.3243839" lon="13.2770385"><ele>284.40000000000003</ele><time>2026-05-01T12:23:31.813Z</time></trkpt><trkpt lat="43.3244269" lon="13.2771661"><ele>283.6</ele><time>2026-05-01T12:23:32.813Z</time></trkpt><trkpt lat="43.3244733" lon="13.2772974"><ele>282.8</ele><time>2026-05-01T12:23:33.814Z</time></trkpt><trkpt lat="43.3245206" lon="13.2774339"><ele>282.0</ele><time>2026-05-01T12:23:34.813Z</time></trkpt><trkpt lat="43.3245693" lon="13.2775779"><ele>281.0</ele><time>2026-05-01T12:23:35.814Z</time></trkpt><trkpt lat="43.3246219" lon="13.2777266"><ele>280.0</ele><time>2026-05-01T12:23:36.814Z</time></trkpt><trkpt lat="43.3246737" lon="13.2778782"><ele>279.0</ele><time>2026-05-01T12:23:37.815Z</time></trkpt><trkpt lat="43.3247276" lon="13.278028"><ele>278.0</ele><time>2026-05-01T12:23:38.815Z</time></trkpt><trkpt lat="43.3247857" lon="13.2781837"><ele>275.5</ele><time>2026-05-01T12:23:39.813Z</time></trkpt><trkpt lat="43.3248433" lon="13.2783444"><ele>273.0</ele><time>2026-05-01T12:23:40.814Z</time></trkpt><trkpt lat="43.3249018" lon="13.2784982"><ele>270.5</ele><time>2026-05-01T12:23:41.813Z</time></trkpt><trkpt lat="43.3249622" lon="13.2786464"><ele>268.0</ele><time>2026-05-01T12:23:42.814Z</time></trkpt><trkpt lat="43.3250203" lon="13.2787933"><ele>266.8</ele><time>2026-05-01T12:23:43.813Z</time></trkpt><trkpt lat="43.3250741" lon="13.2789351"><ele>265.6</ele><time>2026-05-01T12:23:44.815Z</time></trkpt><trkpt lat="43.325129" lon="13.2790687"><ele>264.4</ele><time>2026-05-01T12:23:45.815Z</time></trkpt><trkpt lat="43.3251772" lon="13.2792062"><ele>263.2</ele><time>2026-05-01T12:23:46.814Z</time></trkpt><trkpt lat="43.325215" lon="13.2793477"><ele>262.0</ele><time>2026-05-01T12:23:47.813Z</time></trkpt><trkpt lat="43.3252387" lon="13.2794914"><ele>262.0</ele><time>2026-05-01T12:23:48.814Z</time></trkpt><trkpt lat="43.3252513" lon="13.2796466"><ele>262.0</ele><time>2026-05-01T12:23:49.813Z</time></trkpt><trkpt lat="43.3252586" lon="13.2797988"><ele>262.0</ele><time>2026-05-01T12:23:50.814Z</time></trkpt><trkpt lat="43.3252692" lon="13.2799569"><ele>262.0</ele><time>2026-05-01T12:23:51.814Z</time></trkpt><trkpt lat="43.3252812" lon="13.2801109"><ele>260.8</ele><time>2026-05-01T12:23:52.814Z</time></trkpt><trkpt lat="43.3252988" lon="13.2802592"><ele>259.6</ele><time>2026-05-01T12:23:53.814Z</time></trkpt><trkpt lat="43.32532" lon="13.2804044"><ele>258.40000000000003</ele><time>2026-05-01T12:23:54.813Z</time></trkpt><trkpt lat="43.3253514" lon="13.2805432"><ele>257.2</ele><time>2026-05-01T12:23:55.814Z</time></trkpt><trkpt lat="43.3253924" lon="13.2806822"><ele>256.0</ele><time>2026-05-01T12:23:56.814Z</time></trkpt><trkpt lat="43.3254403" lon="13.2808228"><ele>254.0</ele><time>2026-05-01T12:23:57.814Z</time></trkpt><trkpt lat="43.3254919" lon="13.2809683"><ele>252.0</ele><time>2026-05-01T12:23:58.814Z</time></trkpt><trkpt lat="43.325545" lon="13.2811198"><ele>250.0</ele><time>2026-05-01T12:23:59.814Z</time></trkpt><trkpt lat="43.3255998" lon="13.2812704"><ele>248.0</ele><time>2026-05-01T12:24:00.813Z</time></trkpt><trkpt lat="43.3256494" lon="13.2814231"><ele>246.5</ele><time>2026-05-01T12:24:01.814Z</time></trkpt><trkpt lat="43.325683" lon="13.2815846"><ele>245.0</ele><time>2026-05-01T12:24:02.813Z</time></trkpt><trkpt lat="43.3256975" lon="13.2817535"><ele>243.5</ele><time>2026-05-01T12:24:03.814Z</time></trkpt><trkpt lat="43.3256904" lon="13.281931"><ele>242.0</ele><time>2026-05-01T12:24:04.813Z</time></trkpt><trkpt lat="43.3256641" lon="13.2821052"><ele>240.75</ele><time>2026-05-01T12:24:05.813Z</time></trkpt><trkpt lat="43.3256272" lon="13.2822755"><ele>239.5</ele><time>2026-05-01T12:24:06.813Z</time></trkpt><trkpt lat="43.3255893" lon="13.2824483"><ele>238.25</ele><time>2026-05-01T12:24:07.814Z</time></trkpt><trkpt lat="43.3255594" lon="13.2826282"><ele>237.0</ele><time>2026-05-01T12:24:08.814Z</time></trkpt><trkpt lat="43.325536" lon="13.282802"><ele>237.0</ele><time>2026-05-01T12:24:09.813Z</time></trkpt><trkpt lat="43.3255181" lon="13.2829705"><ele>237.0</ele><time>2026-05-01T12:24:10.814Z</time></trkpt><trkpt lat="43.3254927" lon="13.2831278"><ele>237.0</ele><time>2026-05-01T12:24:11.814Z</time></trkpt><trkpt lat="43.3254686" lon="13.2832784"><ele>237.0</ele><time>2026-05-01T12:24:12.814Z</time></trkpt><trkpt lat="43.3254547" lon="13.2834298"><ele>237.0</ele><time>2026-05-01T12:24:13.814Z</time></trkpt><trkpt lat="43.3254375" lon="13.2835844"><ele>237.0</ele><time>2026-05-01T12:24:14.814Z</time></trkpt><trkpt lat="43.3254229" lon="13.2837394"><ele>237.0</ele><time>2026-05-01T12:24:15.813Z</time></trkpt><trkpt lat="43.3254176" lon="13.2838986"><ele>237.0</ele><time>2026-05-01T12:24:16.813Z</time></trkpt><trkpt lat="43.3254312" lon="13.2840556"><ele>237.0</ele><time>2026-05-01T12:24:17.814Z</time></trkpt><trkpt lat="43.3254598" lon="13.2842163"><ele>237.0</ele><time>2026-05-01T12:24:18.815Z</time></trkpt><trkpt lat="43.3255059" lon="13.2843759"><ele>237.0</ele><time>2026-05-01T12:24:19.813Z</time></trkpt><trkpt lat="43.3255638" lon="13.2845305"><ele>237.0</ele><time>2026-05-01T12:24:20.813Z</time></trkpt><trkpt lat="43.3256326" lon="13.2846741"><ele>236.39999999999998</ele><time>2026-05-01T12:24:21.814Z</time></trkpt><trkpt lat="43.3256995" lon="13.2848141"><ele>235.79999999999998</ele><time>2026-05-01T12:24:22.814Z</time></trkpt><trkpt lat="43.3257683" lon="13.2849434"><ele>235.2</ele><time>2026-05-01T12:24:23.813Z</time></trkpt><trkpt lat="43.3258398" lon="13.2850401"><ele>234.6</ele><time>2026-05-01T12:24:24.813Z</time></trkpt><trkpt lat="43.3259183" lon="13.2850974"><ele>234.0</ele><time>2026-05-01T12:24:25.814Z</time></trkpt><trkpt lat="43.3259957" lon="13.2851238"><ele>234.0</ele><time>2026-05-01T12:24:26.814Z</time></trkpt><trkpt lat="43.3260876" lon="13.2851607"><ele>233.99999999999997</ele><time>2026-05-01T12:24:27.814Z</time></trkpt><trkpt lat="43.3261731" lon="13.2851941"><ele>233.99999999999997</ele><time>2026-05-01T12:24:28.815Z</time></trkpt><trkpt lat="43.3262714" lon="13.2852515"><ele>234.0</ele><time>2026-05-01T12:24:29.813Z</time></trkpt><trkpt lat="43.3263598" lon="13.2853112"><ele>234.0</ele><time>2026-05-01T12:24:30.814Z</time></trkpt><trkpt lat="43.3264482" lon="13.2853728"><ele>236.2</ele><time>2026-05-01T12:24:31.814Z</time></trkpt><trkpt lat="43.326533" lon="13.2854302"><ele>238.39999999999998</ele><time>2026-05-01T12:24:32.814Z</time></trkpt><trkpt lat="43.3266215" lon="13.2854832"><ele>240.6</ele><time>2026-05-01T12:24:33.814Z</time></trkpt><trkpt lat="43.3267086" lon="13.2855293"><ele>242.8</ele><time>2026-05-01T12:24:34.814Z</time></trkpt><trkpt lat="43.3267991" lon="13.2855697"><ele>245.0</ele><time>2026-05-01T12:24:35.814Z</time></trkpt><trkpt lat="43.3268929" lon="13.2856074"><ele>245.0</ele><time>2026-05-01T12:24:36.813Z</time></trkpt><trkpt lat="43.3269914" lon="13.2856209"><ele>245.0</ele><time>2026-05-01T12:24:37.815Z</time></trkpt><trkpt lat="43.3270863" lon="13.2856123"><ele>245.0</ele><time>2026-05-01T12:24:38.814Z</time></trkpt><trkpt lat="43.3271732" lon="13.2855807"><ele>245.0</ele><time>2026-05-01T12:24:39.814Z</time></trkpt><trkpt lat="43.3272628" lon="13.2855481"><ele>245.0</ele><time>2026-05-01T12:24:40.814Z</time></trkpt><trkpt lat="43.3273542" lon="13.2855268"><ele>247.6</ele><time>2026-05-01T12:24:41.814Z</time></trkpt><trkpt lat="43.3274496" lon="13.2855315"><ele>250.2</ele><time>2026-05-01T12:24:42.814Z</time></trkpt><trkpt lat="43.3275443" lon="13.2855595"><ele>252.8</ele><time>2026-05-01T12:24:43.813Z</time></trkpt><trkpt lat="43.3276406" lon="13.2855998"><ele>255.4</ele><time>2026-05-01T12:24:44.814Z</time></trkpt><trkpt lat="43.3277345" lon="13.285653"><ele>258.0</ele><time>2026-05-01T12:24:45.814Z</time></trkpt><trkpt lat="43.3278232" lon="13.2857187"><ele>258.2</ele><time>2026-05-01T12:24:46.814Z</time></trkpt><trkpt lat="43.3279078" lon="13.2857948"><ele>258.4</ele><time>2026-05-01T12:24:47.814Z</time></trkpt><trkpt lat="43.3279905" lon="13.2858854"><ele>258.59999999999997</ele><time>2026-05-01T12:24:48.814Z</time></trkpt><trkpt lat="43.3280729" lon="13.2859828"><ele>258.8</ele><time>2026-05-01T12:24:49.814Z</time></trkpt><trkpt lat="43.3281514" lon="13.2860802"><ele>259.0</ele><time>2026-05-01T12:24:50.814Z</time></trkpt><trkpt lat="43.3282305" lon="13.2861755"><ele>259.75</ele><time>2026-05-01T12:24:51.814Z</time></trkpt><trkpt lat="43.3283087" lon="13.2862781"><ele>260.5</ele><time>2026-05-01T12:24:52.815Z</time></trkpt><trkpt lat="43.3283837" lon="13.2863944"><ele>261.25</ele><time>2026-05-01T12:24:53.813Z</time></trkpt><trkpt lat="43.3284566" lon="13.2865168"><ele>262.0</ele><time>2026-05-01T12:24:54.813Z</time></trkpt><trkpt lat="43.3285299" lon="13.2866485"><ele>262.0</ele><time>2026-05-01T12:24:55.814Z</time></trkpt><trkpt lat="43.3286051" lon="13.2867802"><ele>262.0</ele><time>2026-05-01T12:24:56.814Z</time></trkpt><trkpt lat="43.3286776" lon="13.286917"><ele>262.0</ele><time>2026-05-01T12:24:57.814Z</time></trkpt><trkpt lat="43.3287488" lon="13.2870524"><ele>262.0</ele><time>2026-05-01T12:24:58.813Z</time></trkpt><trkpt lat="43.3288221" lon="13.2871838"><ele>261.8</ele><time>2026-05-01T12:24:59.813Z</time></trkpt><trkpt lat="43.3288906" lon="13.2873159"><ele>261.6</ele><time>2026-05-01T12:25:00.814Z</time></trkpt><trkpt lat="43.3289581" lon="13.2874414"><ele>261.40000000000003</ele><time>2026-05-01T12:25:01.813Z</time></trkpt><trkpt lat="43.3290209" lon="13.2875587"><ele>261.2</ele><time>2026-05-01T12:25:02.814Z</time></trkpt><trkpt lat="43.3290826" lon="13.2876692"><ele>261.0</ele><time>2026-05-01T12:25:03.813Z</time></trkpt><trkpt lat="43.3291361" lon="13.2877721"><ele>261.0</ele><time>2026-05-01T12:25:04.813Z</time></trkpt><trkpt lat="43.3291799" lon="13.2878691"><ele>261.0</ele><time>2026-05-01T12:25:05.814Z</time></trkpt><trkpt lat="43.3292171" lon="13.2879544"><ele>261.0</ele><time>2026-05-01T12:25:06.814Z</time></trkpt><trkpt lat="43.3292613" lon="13.2880655"><ele>261.0</ele><time>2026-05-01T12:25:08.814Z</time></trkpt><trkpt lat="43.3293473" lon="13.2880274"><ele>261.0</ele><time>2026-05-01T12:25:18.813Z</time></trkpt><trkpt lat="43.3293671" lon="13.2878835"><ele>261.0</ele><time>2026-05-01T12:25:20.814Z</time></trkpt><trkpt lat="43.3293815" lon="13.2877988"><ele>261.0</ele><time>2026-05-01T12:25:21.813Z</time></trkpt><trkpt lat="43.3293988" lon="13.2877071"><ele>261.0</ele><time>2026-05-01T12:25:22.813Z</time></trkpt><trkpt lat="43.3294127" lon="13.2876137"><ele>261.0</ele><time>2026-05-01T12:25:23.813Z</time></trkpt><trkpt lat="43.3294266" lon="13.2875147"><ele>261.0</ele><time>2026-05-01T12:25:24.814Z</time></trkpt><trkpt lat="43.3294414" lon="13.2874087"><ele>261.0</ele><time>2026-05-01T12:25:25.813Z</time></trkpt><trkpt lat="43.3294558" lon="13.2872971"><ele>261.0</ele><time>2026-05-01T12:25:26.813Z</time></trkpt><trkpt lat="43.3294766" lon="13.2871858"><ele>261.2</ele><time>2026-05-01T12:25:27.814Z</time></trkpt><trkpt lat="43.3294987" lon="13.2870687"><ele>261.40000000000003</ele><time>2026-05-01T12:25:28.814Z</time></trkpt><trkpt lat="43.3295188" lon="13.2869471"><ele>261.6</ele><time>2026-05-01T12:25:29.814Z</time></trkpt><trkpt lat="43.3295395" lon="13.2868231"><ele>261.8</ele><time>2026-05-01T12:25:30.813Z</time></trkpt><trkpt lat="43.3295616" lon="13.2866966"><ele>262.0</ele><time>2026-05-01T12:25:31.814Z</time></trkpt><trkpt lat="43.3295835" lon="13.286565"><ele>262.0</ele><time>2026-05-01T12:25:32.814Z</time></trkpt><trkpt lat="43.3296029" lon="13.2864346"><ele>262.0</ele><time>2026-05-01T12:25:33.814Z</time></trkpt><trkpt lat="43.3296273" lon="13.2863022"><ele>262.0</ele><time>2026-05-01T12:25:34.813Z</time></trkpt><trkpt lat="43.3296455" lon="13.2861696"><ele>262.0</ele><time>2026-05-01T12:25:35.814Z</time></trkpt><trkpt lat="43.3296676" lon="13.2860376"><ele>262.0</ele><time>2026-05-01T12:25:36.813Z</time></trkpt><trkpt lat="43.3296915" lon="13.2859034"><ele>262.5</ele><time>2026-05-01T12:25:37.814Z</time></trkpt><trkpt lat="43.3297124" lon="13.2857624"><ele>263.0</ele><time>2026-05-01T12:25:38.815Z</time></trkpt><trkpt lat="43.3297335" lon="13.2856125"><ele>263.5</ele><time>2026-05-01T12:25:39.813Z</time></trkpt><trkpt lat="43.3297609" lon="13.2854528"><ele>264.0</ele><time>2026-05-01T12:25:40.813Z</time></trkpt><trkpt lat="43.3297893" lon="13.2852928"><ele>264.75</ele><time>2026-05-01T12:25:41.814Z</time></trkpt><trkpt lat="43.3298152" lon="13.2851287"><ele>265.5</ele><time>2026-05-01T12:25:42.813Z</time></trkpt><trkpt lat="43.3298425" lon="13.2849625"><ele>266.25</ele><time>2026-05-01T12:25:43.813Z</time></trkpt><trkpt lat="43.3298713" lon="13.2847875"><ele>267.0</ele><time>2026-05-01T12:25:44.814Z</time></trkpt><trkpt lat="43.3298965" lon="13.2846109"><ele>268.25</ele><time>2026-05-01T12:25:45.813Z</time></trkpt><trkpt lat="43.3299207" lon="13.2844372"><ele>269.5</ele><time>2026-05-01T12:25:46.814Z</time></trkpt><trkpt lat="43.3299519" lon="13.2842605"><ele>270.75</ele><time>2026-05-01T12:25:47.813Z</time></trkpt><trkpt lat="43.3299841" lon="13.2840899"><ele>272.0</ele><time>2026-05-01T12:25:48.813Z</time></trkpt><trkpt lat="43.3300104" lon="13.283915"><ele>272.5</ele><time>2026-05-01T12:25:49.814Z</time></trkpt><trkpt lat="43.3300355" lon="13.2837422"><ele>273.0</ele><time>2026-05-01T12:25:50.813Z</time></trkpt><trkpt lat="43.3300615" lon="13.2835702"><ele>273.5</ele><time>2026-05-01T12:25:51.815Z</time></trkpt><trkpt lat="43.3300912" lon="13.2833945"><ele>274.0</ele><time>2026-05-01T12:25:52.814Z</time></trkpt><trkpt lat="43.3301251" lon="13.2832262"><ele>274.5</ele><time>2026-05-01T12:25:53.814Z</time></trkpt><trkpt lat="43.3301731" lon="13.2830699"><ele>275.0</ele><time>2026-05-01T12:25:54.814Z</time></trkpt><trkpt lat="43.3302427" lon="13.2829374"><ele>275.5</ele><time>2026-05-01T12:25:55.813Z</time></trkpt><trkpt lat="43.3303328" lon="13.2828231"><ele>276.0</ele><time>2026-05-01T12:25:56.813Z</time></trkpt><trkpt lat="43.3304362" lon="13.2827241"><ele>276.0</ele><time>2026-05-01T12:25:57.814Z</time></trkpt><trkpt lat="43.3305443" lon="13.2826316"><ele>276.0</ele><time>2026-05-01T12:25:58.814Z</time></trkpt><trkpt lat="43.3306535" lon="13.2825365"><ele>276.0</ele><time>2026-05-01T12:25:59.814Z</time></trkpt><trkpt lat="43.3307643" lon="13.282447"><ele>276.0</ele><time>2026-05-01T12:26:00.813Z</time></trkpt><trkpt lat="43.3308797" lon="13.2823622"><ele>277.5</ele><time>2026-05-01T12:26:01.814Z</time></trkpt><trkpt lat="43.3309904" lon="13.2822677"><ele>279.0</ele><time>2026-05-01T12:26:02.814Z</time></trkpt><trkpt lat="43.331091" lon="13.2821805"><ele>280.5</ele><time>2026-05-01T12:26:03.815Z</time></trkpt><trkpt lat="43.3311777" lon="13.2820865"><ele>282.0</ele><time>2026-05-01T12:26:04.813Z</time></trkpt><trkpt lat="43.3312476" lon="13.281979"><ele>283.2</ele><time>2026-05-01T12:26:05.814Z</time></trkpt><trkpt lat="43.3313012" lon="13.2818632"><ele>284.4</ele><time>2026-05-01T12:26:06.814Z</time></trkpt><trkpt lat="43.3313428" lon="13.2817374"><ele>285.6</ele><time>2026-05-01T12:26:07.813Z</time></trkpt><trkpt lat="43.3313787" lon="13.2816012"><ele>286.8</ele><time>2026-05-01T12:26:08.814Z</time></trkpt><trkpt lat="43.331414" lon="13.2814622"><ele>288.0</ele><time>2026-05-01T12:26:09.813Z</time></trkpt><trkpt lat="43.3314504" lon="13.2813207"><ele>291.2</ele><time>2026-05-01T12:26:10.814Z</time></trkpt><trkpt lat="43.3314856" lon="13.2811803"><ele>294.4</ele><time>2026-05-01T12:26:11.814Z</time></trkpt><trkpt lat="43.3315178" lon="13.2810389"><ele>297.59999999999997</ele><time>2026-05-01T12:26:12.814Z</time></trkpt><trkpt lat="43.3315501" lon="13.2808952"><ele>300.8</ele><time>2026-05-01T12:26:13.813Z</time></trkpt><trkpt lat="43.3315844" lon="13.2807513"><ele>304.0</ele><time>2026-05-01T12:26:14.814Z</time></trkpt><trkpt lat="43.3316191" lon="13.2806041"><ele>305.4</ele><time>2026-05-01T12:26:15.813Z</time></trkpt><trkpt lat="43.3316554" lon="13.2804635"><ele>306.79999999999995</ele><time>2026-05-01T12:26:16.814Z</time></trkpt><trkpt lat="43.3316982" lon="13.2803226"><ele>308.20000000000005</ele><time>2026-05-01T12:26:17.814Z</time></trkpt><trkpt lat="43.3317445" lon="13.2801887"><ele>309.6</ele><time>2026-05-01T12:26:18.814Z</time></trkpt><trkpt lat="43.3318006" lon="13.2800578"><ele>311.0</ele><time>2026-05-01T12:26:19.813Z</time></trkpt><trkpt lat="43.3318609" lon="13.279931"><ele>311.0</ele><time>2026-05-01T12:26:20.813Z</time></trkpt><trkpt lat="43.3319152" lon="13.2798054"><ele>311.0</ele><time>2026-05-01T12:26:21.813Z</time></trkpt><trkpt lat="43.3319615" lon="13.2796756"><ele>311.0</ele><time>2026-05-01T12:26:22.815Z</time></trkpt><trkpt lat="43.3319951" lon="13.2795406"><ele>311.0</ele><time>2026-05-01T12:26:23.814Z</time></trkpt><trkpt lat="43.3320141" lon="13.2793955"><ele>311.0</ele><time>2026-05-01T12:26:24.814Z</time></trkpt><trkpt lat="43.3320246" lon="13.27924"><ele>311.5</ele><time>2026-05-01T12:26:25.813Z</time></trkpt><trkpt lat="43.3320339" lon="13.2790797"><ele>312.0</ele><time>2026-05-01T12:26:26.814Z</time></trkpt><trkpt lat="43.3320422" lon="13.2789216"><ele>312.5</ele><time>2026-05-01T12:26:27.814Z</time></trkpt><trkpt lat="43.3320482" lon="13.2787677"><ele>313.0</ele><time>2026-05-01T12:26:28.814Z</time></trkpt><trkpt lat="43.3320486" lon="13.2786091"><ele>313.0</ele><time>2026-05-01T12:26:29.814Z</time></trkpt><trkpt lat="43.3320473" lon="13.2784542"><ele>313.0</ele><time>2026-05-01T12:26:30.814Z</time></trkpt><trkpt lat="43.3320449" lon="13.2783016"><ele>313.0</ele><time>2026-05-01T12:26:31.814Z</time></trkpt><trkpt lat="43.3320485" lon="13.2781501"><ele>313.0</ele><time>2026-05-01T12:26:32.814Z</time></trkpt><trkpt lat="43.3320508" lon="13.2780002"><ele>313.0</ele><time>2026-05-01T12:26:33.814Z</time></trkpt><trkpt lat="43.3320587" lon="13.2778539"><ele>312.0</ele><time>2026-05-01T12:26:34.815Z</time></trkpt><trkpt lat="43.3320773" lon="13.2777023"><ele>311.0</ele><time>2026-05-01T12:26:35.813Z</time></trkpt><trkpt lat="43.3321078" lon="13.2775569"><ele>310.0</ele><time>2026-05-01T12:26:36.815Z</time></trkpt><trkpt lat="43.3321453" lon="13.2774061"><ele>309.0</ele><time>2026-05-01T12:26:37.813Z</time></trkpt><trkpt lat="43.3321801" lon="13.2772564"><ele>308.75</ele><time>2026-05-01T12:26:38.813Z</time></trkpt><trkpt lat="43.3322181" lon="13.2771057"><ele>308.5</ele><time>2026-05-01T12:26:39.813Z</time></trkpt><trkpt lat="43.3322564" lon="13.2769516"><ele>308.25</ele><time>2026-05-01T12:26:40.814Z</time></trkpt><trkpt lat="43.332299" lon="13.2768005"><ele>308.0</ele><time>2026-05-01T12:26:41.814Z</time></trkpt><trkpt lat="43.3323458" lon="13.2766506"><ele>311.0</ele><time>2026-05-01T12:26:42.814Z</time></trkpt><trkpt lat="43.3324071" lon="13.2765163"><ele>314.0</ele><time>2026-05-01T12:26:43.814Z</time></trkpt><trkpt lat="43.3324736" lon="13.27639"><ele>317.0</ele><time>2026-05-01T12:26:44.814Z</time></trkpt><trkpt lat="43.3325418" lon="13.276269"><ele>320.0</ele><time>2026-05-01T12:26:45.814Z</time></trkpt><trkpt lat="43.3326126" lon="13.2761534"><ele>320.2</ele><time>2026-05-01T12:26:46.813Z</time></trkpt><trkpt lat="43.3326724" lon="13.2760398"><ele>320.4</ele><time>2026-05-01T12:26:47.814Z</time></trkpt><trkpt lat="43.3327201" lon="13.275917"><ele>320.6</ele><time>2026-05-01T12:26:48.814Z</time></trkpt><trkpt lat="43.3327465" lon="13.2757788"><ele>320.8</ele><time>2026-05-01T12:26:49.813Z</time></trkpt><trkpt lat="43.3327588" lon="13.2756263"><ele>321.0</ele><time>2026-05-01T12:26:50.813Z</time></trkpt><trkpt lat="43.3327635" lon="13.2754667"><ele>321.75</ele><time>2026-05-01T12:26:51.814Z</time></trkpt><trkpt lat="43.3327669" lon="13.2752967"><ele>322.5</ele><time>2026-05-01T12:26:52.814Z</time></trkpt><trkpt lat="43.3327706" lon="13.2751203"><ele>323.25</ele><time>2026-05-01T12:26:53.814Z</time></trkpt><trkpt lat="43.3327756" lon="13.2749376"><ele>324.0</ele><time>2026-05-01T12:26:54.814Z</time></trkpt><trkpt lat="43.332777" lon="13.2747514"><ele>324.75</ele><time>2026-05-01T12:26:55.813Z</time></trkpt><trkpt lat="43.3327725" lon="13.2745635"><ele>325.5</ele><time>2026-05-01T12:26:56.814Z</time></trkpt><trkpt lat="43.3327616" lon="13.2743828"><ele>326.25</ele><time>2026-05-01T12:26:57.813Z</time></trkpt><trkpt lat="43.3327471" lon="13.2742066"><ele>327.0</ele><time>2026-05-01T12:26:58.814Z</time></trkpt><trkpt lat="43.3327286" lon="13.2740364"><ele>328.75</ele><time>2026-05-01T12:26:59.814Z</time></trkpt><trkpt lat="43.3327047" lon="13.2738676"><ele>330.5</ele><time>2026-05-01T12:27:00.814Z</time></trkpt><trkpt lat="43.3326771" lon="13.273701"><ele>332.25</ele><time>2026-05-01T12:27:01.814Z</time></trkpt><trkpt lat="43.3326432" lon="13.2735357"><ele>334.0</ele><time>2026-05-01T12:27:02.814Z</time></trkpt><trkpt lat="43.332603" lon="13.2733697"><ele>334.0</ele><time>2026-05-01T12:27:03.814Z</time></trkpt><trkpt lat="43.3325607" lon="13.2732068"><ele>334.0</ele><time>2026-05-01T12:27:04.813Z</time></trkpt><trkpt lat="43.33252" lon="13.2730544"><ele>334.0</ele><time>2026-05-01T12:27:05.814Z</time></trkpt><trkpt lat="43.3324821" lon="13.2729134"><ele>334.0</ele><time>2026-05-01T12:27:06.813Z</time></trkpt><trkpt lat="43.332446" lon="13.272774"><ele>334.8333333333333</ele><time>2026-05-01T12:27:07.813Z</time></trkpt><trkpt lat="43.3324129" lon="13.2726472"><ele>335.66666666666663</ele><time>2026-05-01T12:27:08.814Z</time></trkpt><trkpt lat="43.3323825" lon="13.2725367"><ele>336.5</ele><time>2026-05-01T12:27:09.813Z</time></trkpt><trkpt lat="43.3323533" lon="13.2724384"><ele>337.3333333333333</ele><time>2026-05-01T12:27:10.814Z</time></trkpt><trkpt lat="43.3323254" lon="13.2723472"><ele>338.1666666666667</ele><time>2026-05-01T12:27:11.814Z</time></trkpt><trkpt lat="43.3322973" lon="13.2722628"><ele>339.0</ele><time>2026-05-01T12:27:12.813Z</time></trkpt><trkpt lat="43.3322579" lon="13.2721394"><ele>339.79999999999995</ele><time>2026-05-01T12:27:14.814Z</time></trkpt><trkpt lat="43.3322375" lon="13.2720193"><ele>340.59999999999997</ele><time>2026-05-01T12:27:16.813Z</time></trkpt><trkpt lat="43.3321913" lon="13.2719438"><ele>341.4</ele><time>2026-05-01T12:27:19.814Z</time></trkpt><trkpt lat="43.3321105" lon="13.2718571"><ele>342.2</ele><time>2026-05-01T12:28:04.814Z</time></trkpt><trkpt lat="43.3320378" lon="13.2717651"><ele>343.0</ele><time>2026-05-01T12:28:06.814Z</time></trkpt><trkpt lat="43.331981" lon="13.2716733"><ele>343.0</ele><time>2026-05-01T12:28:08.813Z</time></trkpt><trkpt lat="43.3319347" lon="13.2715736"><ele>343.0</ele><time>2026-05-01T12:28:10.814Z</time></trkpt><trkpt lat="43.3318823" lon="13.2714649"><ele>343.0</ele><time>2026-05-01T12:28:12.813Z</time></trkpt><trkpt lat="43.331827" lon="13.2713316"><ele>343.0</ele><time>2026-05-01T12:28:14.814Z</time></trkpt><trkpt lat="43.3317974" lon="13.2712495"><ele>343.0</ele><time>2026-05-01T12:28:15.814Z</time></trkpt><trkpt lat="43.3317683" lon="13.2711654"><ele>343.0</ele><time>2026-05-01T12:28:16.813Z</time></trkpt><trkpt lat="43.3317357" lon="13.2710728"><ele>343.0</ele><time>2026-05-01T12:28:17.815Z</time></trkpt><trkpt lat="43.3317011" lon="13.2709738"><ele>343.0</ele><time>2026-05-01T12:28:18.813Z</time></trkpt><trkpt lat="43.3316664" lon="13.2708744"><ele>343.0</ele><time>2026-05-01T12:28:19.813Z</time></trkpt><trkpt lat="43.3316321" lon="13.2707734"><ele>343.0</ele><time>2026-05-01T12:28:20.814Z</time></trkpt><trkpt lat="43.3315965" lon="13.2706634"><ele>343.0</ele><time>2026-05-01T12:28:21.814Z</time></trkpt><trkpt lat="43.3315585" lon="13.2705486"><ele>343.0</ele><time>2026-05-01T12:28:22.814Z</time></trkpt><trkpt lat="43.331517" lon="13.2704262"><ele>342.4</ele><time>2026-05-01T12:28:23.814Z</time></trkpt><trkpt lat="43.3314786" lon="13.2703074"><ele>341.79999999999995</ele><time>2026-05-01T12:28:24.813Z</time></trkpt><trkpt lat="43.3314386" lon="13.2701822"><ele>341.2</ele><time>2026-05-01T12:28:25.814Z</time></trkpt><trkpt lat="43.3313964" lon="13.2700504"><ele>340.6</ele><time>2026-05-01T12:28:26.813Z</time></trkpt><trkpt lat="43.3313537" lon="13.2699226"><ele>340.0</ele><time>2026-05-01T12:28:27.814Z</time></trkpt><trkpt lat="43.3313092" lon="13.2697853"><ele>336.75</ele><time>2026-05-01T12:28:28.814Z</time></trkpt><trkpt lat="43.3312633" lon="13.269643"><ele>333.5</ele><time>2026-05-01T12:28:29.813Z</time></trkpt><trkpt lat="43.3312154" lon="13.2694993"><ele>330.25</ele><time>2026-05-01T12:28:30.814Z</time></trkpt><trkpt lat="43.3311641" lon="13.2693476"><ele>327.0</ele><time>2026-05-01T12:28:31.813Z</time></trkpt><trkpt lat="43.3311174" lon="13.2692038"><ele>327.0</ele><time>2026-05-01T12:28:32.814Z</time></trkpt><trkpt lat="43.3310734" lon="13.2690521"><ele>327.0</ele><time>2026-05-01T12:28:33.814Z</time></trkpt><trkpt lat="43.3310335" lon="13.268893"><ele>327.0</ele><time>2026-05-01T12:28:34.814Z</time></trkpt><trkpt lat="43.3310025" lon="13.2687376"><ele>327.0</ele><time>2026-05-01T12:28:35.814Z</time></trkpt><trkpt lat="43.3309831" lon="13.2685873"><ele>327.8333333333333</ele><time>2026-05-01T12:28:36.813Z</time></trkpt><trkpt lat="43.3309766" lon="13.2684366"><ele>328.6666666666667</ele><time>2026-05-01T12:28:37.813Z</time></trkpt><trkpt lat="43.3309805" lon="13.2682972"><ele>329.5</ele><time>2026-05-01T12:28:38.815Z</time></trkpt><trkpt lat="43.330993" lon="13.2681796"><ele>330.33333333333337</ele><time>2026-05-01T12:28:39.814Z</time></trkpt><trkpt lat="43.3310107" lon="13.268088"><ele>331.1666666666667</ele><time>2026-05-01T12:28:40.814Z</time></trkpt><trkpt lat="43.3310414" lon="13.2680071"><ele>332.0</ele><time>2026-05-01T12:28:41.813Z</time></trkpt><trkpt lat="43.3310879" lon="13.2679364"><ele>333.0</ele><time>2026-05-01T12:28:42.814Z</time></trkpt><trkpt lat="43.3311395" lon="13.2678783"><ele>334.0</ele><time>2026-05-01T12:28:43.814Z</time></trkpt><trkpt lat="43.3311929" lon="13.2678173"><ele>335.0</ele><time>2026-05-01T12:28:44.814Z</time></trkpt><trkpt lat="43.3312551" lon="13.2677467"><ele>336.0</ele><time>2026-05-01T12:28:45.814Z</time></trkpt><trkpt lat="43.3313143" lon="13.2676785"><ele>337.0</ele><time>2026-05-01T12:28:46.815Z</time></trkpt><trkpt lat="43.3313771" lon="13.2676024"><ele>338.0</ele><time>2026-05-01T12:28:47.813Z</time></trkpt><trkpt lat="43.3314402" lon="13.267526"><ele>338.4</ele><time>2026-05-01T12:28:48.814Z</time></trkpt><trkpt lat="43.3315103" lon="13.267446"><ele>338.79999999999995</ele><time>2026-05-01T12:28:49.813Z</time></trkpt><trkpt lat="43.3315847" lon="13.2673592"><ele>339.2</ele><time>2026-05-01T12:28:50.815Z</time></trkpt><trkpt lat="43.3316593" lon="13.2672714"><ele>339.6</ele><time>2026-05-01T12:28:51.813Z</time></trkpt><trkpt lat="43.3317342" lon="13.2671852"><ele>340.0</ele><time>2026-05-01T12:28:52.813Z</time></trkpt><trkpt lat="43.3318144" lon="13.2670946"><ele>340.6</ele><time>2026-05-01T12:28:53.813Z</time></trkpt><trkpt lat="43.3318957" lon="13.2670013"><ele>341.2</ele><time>2026-05-01T12:28:54.814Z</time></trkpt><trkpt lat="43.3319821" lon="13.2669026"><ele>341.79999999999995</ele><time>2026-05-01T12:28:55.813Z</time></trkpt><trkpt lat="43.3320641" lon="13.2668113"><ele>342.4</ele><time>2026-05-01T12:28:56.814Z</time></trkpt><trkpt lat="43.3321494" lon="13.2667167"><ele>343.0</ele><time>2026-05-01T12:28:57.814Z</time></trkpt><trkpt lat="43.3322368" lon="13.2666174"><ele>343.59999999999997</ele><time>2026-05-01T12:28:58.814Z</time></trkpt><trkpt lat="43.3323173" lon="13.2665196"><ele>344.2</ele><time>2026-05-01T12:28:59.813Z</time></trkpt><trkpt lat="43.3323966" lon="13.2664171"><ele>344.8</ele><time>2026-05-01T12:29:00.814Z</time></trkpt><trkpt lat="43.3324718" lon="13.2663122"><ele>345.4</ele><time>2026-05-01T12:29:01.813Z</time></trkpt><trkpt lat="43.3325425" lon="13.2662045"><ele>346.0</ele><time>2026-05-01T12:29:02.814Z</time></trkpt><trkpt lat="43.3326078" lon="13.266095"><ele>346.16666666666663</ele><time>2026-05-01T12:29:03.813Z</time></trkpt><trkpt lat="43.3326665" lon="13.2659887"><ele>346.3333333333333</ele><time>2026-05-01T12:29:04.814Z</time></trkpt><trkpt lat="43.3327199" lon="13.265887"><ele>346.5</ele><time>2026-05-01T12:29:05.813Z</time></trkpt><trkpt lat="43.3327669" lon="13.2657886"><ele>346.6666666666667</ele><time>2026-05-01T12:29:06.814Z</time></trkpt><trkpt lat="43.3328116" lon="13.2656967"><ele>346.83333333333337</ele><time>2026-05-01T12:29:07.813Z</time></trkpt><trkpt lat="43.3328542" lon="13.2656095"><ele>347.0</ele><time>2026-05-01T12:29:08.814Z</time></trkpt><trkpt lat="43.3328973" lon="13.2655181"><ele>347.0</ele><time>2026-05-01T12:29:09.814Z</time></trkpt><trkpt lat="43.3329405" lon="13.2654293"><ele>347.0</ele><time>2026-05-01T12:29:10.814Z</time></trkpt><trkpt lat="43.3329863" lon="13.2653414"><ele>347.0</ele><time>2026-05-01T12:29:11.814Z</time></trkpt><trkpt lat="43.3330301" lon="13.2652623"><ele>347.0</ele><time>2026-05-01T12:29:12.814Z</time></trkpt><trkpt lat="43.3330749" lon="13.2651811"><ele>347.0</ele><time>2026-05-01T12:29:13.814Z</time></trkpt><trkpt lat="43.333124" lon="13.2650978"><ele>347.0</ele><time>2026-05-01T12:29:14.814Z</time></trkpt><trkpt lat="43.3331748" lon="13.2650196"><ele>346.6666666666667</ele><time>2026-05-01T12:29:15.814Z</time></trkpt><trkpt lat="43.3332286" lon="13.2649477"><ele>346.33333333333337</ele><time>2026-05-01T12:29:16.814Z</time></trkpt><trkpt lat="43.3332881" lon="13.2648774"><ele>346.0</ele><time>2026-05-01T12:29:17.813Z</time></trkpt><trkpt lat="43.3333515" lon="13.2648109"><ele>345.6666666666667</ele><time>2026-05-01T12:29:18.814Z</time></trkpt><trkpt lat="43.3334182" lon="13.2647487"><ele>345.3333333333333</ele><time>2026-05-01T12:29:19.814Z</time></trkpt><trkpt lat="43.333486" lon="13.2646901"><ele>345.0</ele><time>2026-05-01T12:29:20.814Z</time></trkpt><trkpt lat="43.3335521" lon="13.2646344"><ele>345.0</ele><time>2026-05-01T12:29:21.814Z</time></trkpt><trkpt lat="43.3336167" lon="13.2645752"><ele>345.0</ele><time>2026-05-01T12:29:22.814Z</time></trkpt><trkpt lat="43.3336728" lon="13.264511"><ele>345.0</ele><time>2026-05-01T12:29:23.815Z</time></trkpt><trkpt lat="43.3337209" lon="13.264443"><ele>345.0</ele><time>2026-05-01T12:29:24.814Z</time></trkpt><trkpt lat="43.3337666" lon="13.2643732"><ele>345.0</ele><time>2026-05-01T12:29:25.815Z</time></trkpt><trkpt lat="43.3338298" lon="13.2642622"><ele>345.0</ele><time>2026-05-01T12:29:27.814Z</time></trkpt><trkpt lat="43.3338685" lon="13.2641769"><ele>343.6</ele><time>2026-05-01T12:30:06.813Z</time></trkpt><trkpt lat="43.3339122" lon="13.2640941"><ele>342.2</ele><time>2026-05-01T12:30:09.813Z</time></trkpt><trkpt lat="43.3339773" lon="13.2639807"><ele>340.79999999999995</ele><time>2026-05-01T12:30:11.812Z</time></trkpt><trkpt lat="43.3340546" lon="13.2638588"><ele>339.4</ele><time>2026-05-01T12:30:13.813Z</time></trkpt><trkpt lat="43.3341504" lon="13.2637406"><ele>338.0</ele><time>2026-05-01T12:30:15.812Z</time></trkpt><trkpt lat="43.3342007" lon="13.2636854"><ele>337.33333333333337</ele><time>2026-05-01T12:30:16.813Z</time></trkpt><trkpt lat="43.3342529" lon="13.2636224"><ele>336.6666666666667</ele><time>2026-05-01T12:30:17.813Z</time></trkpt><trkpt lat="43.3343079" lon="13.2635584"><ele>336.0</ele><time>2026-05-01T12:30:18.813Z</time></trkpt><trkpt lat="43.3344046" lon="13.2634383"><ele>335.3333333333333</ele><time>2026-05-01T12:30:20.813Z</time></trkpt><trkpt lat="43.3344538" lon="13.2633666"><ele>334.66666666666663</ele><time>2026-05-01T12:30:21.814Z</time></trkpt><trkpt lat="43.3345006" lon="13.263273"><ele>334.0</ele><time>2026-05-01T12:30:22.812Z</time></trkpt><trkpt lat="43.3345507" lon="13.2631876"><ele>332.66666666666663</ele><time>2026-05-01T12:30:23.813Z</time></trkpt><trkpt lat="43.3345974" lon="13.2630923"><ele>331.3333333333333</ele><time>2026-05-01T12:30:24.814Z</time></trkpt><trkpt lat="43.3346405" lon="13.2629952"><ele>330.0</ele><time>2026-05-01T12:30:25.813Z</time></trkpt><trkpt lat="43.3346797" lon="13.2628913"><ele>328.6666666666667</ele><time>2026-05-01T12:30:26.812Z</time></trkpt><trkpt lat="43.334716" lon="13.2627932"><ele>327.33333333333337</ele><time>2026-05-01T12:30:27.812Z</time></trkpt><trkpt lat="43.3347487" lon="13.26269"><ele>326.0</ele><time>2026-05-01T12:30:28.812Z</time></trkpt><trkpt lat="43.3347813" lon="13.2625853"><ele>325.1666666666667</ele><time>2026-05-01T12:30:29.814Z</time></trkpt><trkpt lat="43.3348095" lon="13.2624767"><ele>324.33333333333337</ele><time>2026-05-01T12:30:30.812Z</time></trkpt><trkpt lat="43.3348423" lon="13.2623644"><ele>323.5</ele><time>2026-05-01T12:30:31.813Z</time></trkpt><trkpt lat="43.3348705" lon="13.2622574"><ele>322.6666666666667</ele><time>2026-05-01T12:30:32.813Z</time></trkpt><trkpt lat="43.3348978" lon="13.2621467"><ele>321.8333333333333</ele><time>2026-05-01T12:30:33.813Z</time></trkpt><trkpt lat="43.3349307" lon="13.262032"><ele>321.0</ele><time>2026-05-01T12:30:34.813Z</time></trkpt><trkpt lat="43.3349627" lon="13.2619233"><ele>320.3333333333333</ele><time>2026-05-01T12:30:35.813Z</time></trkpt><trkpt lat="43.3349971" lon="13.2618132"><ele>319.6666666666667</ele><time>2026-05-01T12:30:36.812Z</time></trkpt><trkpt lat="43.335033" lon="13.2617035"><ele>319.0</ele><time>2026-05-01T12:30:37.812Z</time></trkpt><trkpt lat="43.3350712" lon="13.2616017"><ele>318.33333333333337</ele><time>2026-05-01T12:30:38.812Z</time></trkpt><trkpt lat="43.3351188" lon="13.2615008"><ele>317.6666666666667</ele><time>2026-05-01T12:30:39.812Z</time></trkpt><trkpt lat="43.3351729" lon="13.261414"><ele>317.0</ele><time>2026-05-01T12:30:40.813Z</time></trkpt><trkpt lat="43.3352348" lon="13.2613396"><ele>316.83333333333337</ele><time>2026-05-01T12:30:41.812Z</time></trkpt><trkpt lat="43.3353048" lon="13.2612771"><ele>316.6666666666667</ele><time>2026-05-01T12:30:42.813Z</time></trkpt><trkpt lat="43.3353751" lon="13.2612283"><ele>316.5</ele><time>2026-05-01T12:30:43.812Z</time></trkpt><trkpt lat="43.3354508" lon="13.2611825"><ele>316.3333333333333</ele><time>2026-05-01T12:30:44.812Z</time></trkpt><trkpt lat="43.3355291" lon="13.2611438"><ele>316.16666666666663</ele><time>2026-05-01T12:30:45.813Z</time></trkpt><trkpt lat="43.3356063" lon="13.2611122"><ele>316.0</ele><time>2026-05-01T12:30:46.813Z</time></trkpt><trkpt lat="43.3356858" lon="13.2610821"><ele>316.0</ele><time>2026-05-01T12:30:47.812Z</time></trkpt><trkpt lat="43.3357638" lon="13.2610586"><ele>316.0</ele><time>2026-05-01T12:30:48.813Z</time></trkpt><trkpt lat="43.3358382" lon="13.2610354"><ele>316.0</ele><time>2026-05-01T12:30:49.812Z</time></trkpt><trkpt lat="43.3359071" lon="13.2610124"><ele>316.0</ele><time>2026-05-01T12:30:50.813Z</time></trkpt><trkpt lat="43.3360011" lon="13.2609434"><ele>316.0</ele><time>2026-05-01T12:30:52.812Z</time></trkpt><trkpt lat="43.3360522" lon="13.2608122"><ele>316.0</ele><time>2026-05-01T12:30:54.812Z</time></trkpt><trkpt lat="43.3360922" lon="13.2606726"><ele>316.0</ele><time>2026-05-01T12:30:56.812Z</time></trkpt><trkpt lat="43.3361672" lon="13.2606101"><ele>316.0</ele><time>2026-05-01T12:30:58.813Z</time></trkpt><trkpt lat="43.3362377" lon="13.2606597"><ele>316.0</ele><time>2026-05-01T12:31:00.812Z</time></trkpt><trkpt lat="43.336288" lon="13.2607502"><ele>316.0</ele><time>2026-05-01T12:31:02.812Z</time></trkpt><trkpt lat="43.3363269" lon="13.2608649"><ele>316.0</ele><time>2026-05-01T12:31:04.813Z</time></trkpt><trkpt lat="43.3363657" lon="13.2610292"><ele>316.0</ele><time>2026-05-01T12:31:06.813Z</time></trkpt><trkpt lat="43.336385" lon="13.2611254"><ele>316.0</ele><time>2026-05-01T12:31:07.813Z</time></trkpt><trkpt lat="43.3364046" lon="13.2612212"><ele>316.0</ele><time>2026-05-01T12:31:08.812Z</time></trkpt><trkpt lat="43.3364319" lon="13.261322"><ele>316.0</ele><time>2026-05-01T12:31:09.813Z</time></trkpt><trkpt lat="43.3364687" lon="13.261419"><ele>316.0</ele><time>2026-05-01T12:31:10.813Z</time></trkpt><trkpt lat="43.3365174" lon="13.2615152"><ele>316.0</ele><time>2026-05-01T12:31:11.814Z</time></trkpt><trkpt lat="43.3365682" lon="13.2615992"><ele>314.5</ele><time>2026-05-01T12:31:12.812Z</time></trkpt><trkpt lat="43.336623" lon="13.2616846"><ele>313.0</ele><time>2026-05-01T12:31:13.812Z</time></trkpt><trkpt lat="43.3366786" lon="13.2617707"><ele>311.5</ele><time>2026-05-01T12:31:14.813Z</time></trkpt><trkpt lat="43.3367291" lon="13.2618541"><ele>310.0</ele><time>2026-05-01T12:31:15.813Z</time></trkpt><trkpt lat="43.3367806" lon="13.2619436"><ele>308.5</ele><time>2026-05-01T12:31:16.813Z</time></trkpt><trkpt lat="43.33683" lon="13.2620284"><ele>307.0</ele><time>2026-05-01T12:31:17.813Z</time></trkpt><trkpt lat="43.3368825" lon="13.2621096"><ele>307.0</ele><time>2026-05-01T12:31:18.812Z</time></trkpt><trkpt lat="43.3369381" lon="13.2621806"><ele>307.0</ele><time>2026-05-01T12:31:19.814Z</time></trkpt><trkpt lat="43.3369969" lon="13.2622351"><ele>307.0</ele><time>2026-05-01T12:31:20.813Z</time></trkpt><trkpt lat="43.3370637" lon="13.2622684"><ele>307.0</ele><time>2026-05-01T12:31:21.812Z</time></trkpt><trkpt lat="43.3371405" lon="13.2622825"><ele>307.0</ele><time>2026-05-01T12:31:22.813Z</time></trkpt><trkpt lat="43.3372193" lon="13.2622807"><ele>307.0</ele><time>2026-05-01T12:31:23.813Z</time></trkpt><trkpt lat="43.337297" lon="13.2622684"><ele>307.8333333333333</ele><time>2026-05-01T12:31:24.813Z</time></trkpt><trkpt lat="43.3373768" lon="13.2622455"><ele>308.66666666666663</ele><time>2026-05-01T12:31:25.813Z</time></trkpt><trkpt lat="43.3374568" lon="13.2622164"><ele>309.5</ele><time>2026-05-01T12:31:26.812Z</time></trkpt><trkpt lat="43.3375404" lon="13.2621815"><ele>310.3333333333333</ele><time>2026-05-01T12:31:27.812Z</time></trkpt><trkpt lat="43.3376196" lon="13.2621479"><ele>311.1666666666667</ele><time>2026-05-01T12:31:28.812Z</time></trkpt><trkpt lat="43.3377019" lon="13.2621142"><ele>312.0</ele><time>2026-05-01T12:31:29.813Z</time></trkpt><trkpt lat="43.3377834" lon="13.2620783"><ele>312.0</ele><time>2026-05-01T12:31:30.813Z</time></trkpt><trkpt lat="43.3378651" lon="13.2620465"><ele>312.0</ele><time>2026-05-01T12:31:31.813Z</time></trkpt><trkpt lat="43.3379457" lon="13.2620254"><ele>312.0</ele><time>2026-05-01T12:31:32.814Z</time></trkpt><trkpt lat="43.3380262" lon="13.2620178"><ele>312.0</ele><time>2026-05-01T12:31:33.813Z</time></trkpt><trkpt lat="43.338106" lon="13.2620176"><ele>312.0</ele><time>2026-05-01T12:31:34.813Z</time></trkpt><trkpt lat="43.3381874" lon="13.2620229"><ele>312.0</ele><time>2026-05-01T12:31:35.813Z</time></trkpt><trkpt lat="43.3382659" lon="13.2620284"><ele>312.6666666666667</ele><time>2026-05-01T12:31:36.814Z</time></trkpt><trkpt lat="43.3383492" lon="13.2620317"><ele>313.3333333333333</ele><time>2026-05-01T12:31:37.813Z</time></trkpt><trkpt lat="43.3384359" lon="13.2620336"><ele>314.0</ele><time>2026-05-01T12:31:38.813Z</time></trkpt><trkpt lat="43.3385224" lon="13.2620373"><ele>314.66666666666663</ele><time>2026-05-01T12:31:39.812Z</time></trkpt><trkpt lat="43.3386055" lon="13.2620411"><ele>315.3333333333333</ele><time>2026-05-01T12:31:40.813Z</time></trkpt><trkpt lat="43.3386887" lon="13.2620445"><ele>316.0</ele><time>2026-05-01T12:31:41.813Z</time></trkpt><trkpt lat="43.3387702" lon="13.2620474"><ele>316.0</ele><time>2026-05-01T12:31:42.813Z</time></trkpt><trkpt lat="43.3388512" lon="13.2620503"><ele>316.0</ele><time>2026-05-01T12:31:43.813Z</time></trkpt><trkpt lat="43.3389248" lon="13.262055"><ele>316.0</ele><time>2026-05-01T12:31:44.814Z</time></trkpt><trkpt lat="43.3389935" lon="13.2620606"><ele>316.0</ele><time>2026-05-01T12:31:45.813Z</time></trkpt><trkpt lat="43.3391076" lon="13.2620746"><ele>316.0</ele><time>2026-05-01T12:31:47.813Z</time></trkpt><trkpt lat="43.3392002" lon="13.2621225"><ele>316.0</ele><time>2026-05-01T12:31:49.813Z</time></trkpt><trkpt lat="43.3392816" lon="13.262228"><ele>314.40000000000003</ele><time>2026-05-01T12:31:51.813Z</time></trkpt><trkpt lat="43.3393437" lon="13.2623758"><ele>312.8</ele><time>2026-05-01T12:31:53.813Z</time></trkpt><trkpt lat="43.3393706" lon="13.2624559"><ele>311.20000000000005</ele><time>2026-05-01T12:31:54.813Z</time></trkpt><trkpt lat="43.3394309" lon="13.2626026"><ele>309.6</ele><time>2026-05-01T12:31:56.813Z</time></trkpt><trkpt lat="43.3395055" lon="13.262734"><ele>308.0</ele><time>2026-05-01T12:31:58.812Z</time></trkpt><trkpt lat="43.339589" lon="13.2628518"><ele>308.0</ele><time>2026-05-01T12:32:00.813Z</time></trkpt><trkpt lat="43.3396784" lon="13.2629622"><ele>308.0</ele><time>2026-05-01T12:32:02.814Z</time></trkpt><trkpt lat="43.339766" lon="13.2630699"><ele>308.0</ele><time>2026-05-01T12:32:04.813Z</time></trkpt><trkpt lat="43.3398591" lon="13.2631699"><ele>308.0</ele><time>2026-05-01T12:32:06.812Z</time></trkpt><trkpt lat="43.3399574" lon="13.2632376"><ele>306.0</ele><time>2026-05-01T12:32:08.813Z</time></trkpt><trkpt lat="43.340044" lon="13.2632035"><ele>304.0</ele><time>2026-05-01T12:32:10.812Z</time></trkpt><trkpt lat="43.3401016" lon="13.2630825"><ele>302.0</ele><time>2026-05-01T12:32:12.813Z</time></trkpt><trkpt lat="43.3401382" lon="13.2629333"><ele>300.0</ele><time>2026-05-01T12:32:14.813Z</time></trkpt><trkpt lat="43.3401681" lon="13.2627943"><ele>298.0</ele><time>2026-05-01T12:32:16.813Z</time></trkpt><trkpt lat="43.3402172" lon="13.2626951"><ele>298.0</ele><time>2026-05-01T12:32:18.814Z</time></trkpt><trkpt lat="43.3402924" lon="13.2626876"><ele>298.0</ele><time>2026-05-01T12:32:20.813Z</time></trkpt><trkpt lat="43.3403465" lon="13.2627719"><ele>298.0</ele><time>2026-05-01T12:32:22.812Z</time></trkpt><trkpt lat="43.340341" lon="13.2628959"><ele>298.0</ele><time>2026-05-01T12:32:24.812Z</time></trkpt><trkpt lat="43.3403172" lon="13.2630318"><ele>298.0</ele><time>2026-05-01T12:32:26.812Z</time></trkpt><trkpt lat="43.3403165" lon="13.2631604"><ele>298.0</ele><time>2026-05-01T12:32:28.812Z</time></trkpt><trkpt lat="43.3403715" lon="13.2632329"><ele>298.0</ele><time>2026-05-01T12:32:30.812Z</time></trkpt><trkpt lat="43.3404487" lon="13.2632206"><ele>298.0</ele><time>2026-05-01T12:32:32.813Z</time></trkpt><trkpt lat="43.3405117" lon="13.2631574"><ele>298.0</ele><time>2026-05-01T12:32:34.812Z</time></trkpt><trkpt lat="43.3405607" lon="13.2630738"><ele>298.0</ele><time>2026-05-01T12:32:36.813Z</time></trkpt><trkpt lat="43.340609" lon="13.2630057"><ele>298.0</ele><time>2026-05-01T12:32:38.812Z</time></trkpt><trkpt lat="43.3406782" lon="13.2630027"><ele>298.0</ele><time>2026-05-01T12:32:41.812Z</time></trkpt><trkpt lat="43.340709" lon="13.2630948"><ele>298.0</ele><time>2026-05-01T12:32:44.812Z</time></trkpt><trkpt lat="43.3406655" lon="13.2632114"><ele>298.0</ele><time>2026-05-01T12:32:47.812Z</time></trkpt><trkpt lat="43.3406166" lon="13.2632833"><ele>298.0</ele><time>2026-05-01T12:32:49.814Z</time></trkpt><trkpt lat="43.3405616" lon="13.2633672"><ele>298.0</ele><time>2026-05-01T12:32:51.813Z</time></trkpt><trkpt lat="43.3405018" lon="13.2634628"><ele>298.0</ele><time>2026-05-01T12:32:53.813Z</time></trkpt><trkpt lat="43.3404408" lon="13.2635657"><ele>298.0</ele><time>2026-05-01T12:32:55.813Z</time></trkpt><trkpt lat="43.3403892" lon="13.2636631"><ele>298.0</ele><time>2026-05-01T12:32:57.813Z</time></trkpt><trkpt lat="43.3403565" lon="13.2637558"><ele>298.0</ele><time>2026-05-01T12:32:59.812Z</time></trkpt><trkpt lat="43.340339" lon="13.263841"><ele>298.0</ele><time>2026-05-01T12:33:01.813Z</time></trkpt><trkpt lat="43.340336" lon="13.263937"><ele>298.0</ele><time>2026-05-01T12:33:04.814Z</time></trkpt><trkpt lat="43.3403657" lon="13.264036"><ele>298.0</ele><time>2026-05-01T12:33:07.814Z</time></trkpt><trkpt lat="43.3404313" lon="13.2640954"><ele>298.0</ele><time>2026-05-01T12:33:10.813Z</time></trkpt><trkpt lat="43.3405212" lon="13.2641149"><ele>298.0</ele><time>2026-05-01T12:33:13.813Z</time></trkpt><trkpt lat="43.340596" lon="13.2641343"><ele>295.2</ele><time>2026-05-01T12:33:15.812Z</time></trkpt><trkpt lat="43.3406773" lon="13.2641699"><ele>292.4</ele><time>2026-05-01T12:33:17.812Z</time></trkpt><trkpt lat="43.3407518" lon="13.2642438"><ele>289.59999999999997</ele><time>2026-05-01T12:33:19.812Z</time></trkpt><trkpt lat="43.3407976" lon="13.2643488"><ele>286.8</ele><time>2026-05-01T12:33:21.812Z</time></trkpt><trkpt lat="43.3408096" lon="13.2644924"><ele>284.0</ele><time>2026-05-01T12:33:23.813Z</time></trkpt><trkpt lat="43.340804" lon="13.2646639"><ele>284.0</ele><time>2026-05-01T12:33:25.813Z</time></trkpt><trkpt lat="43.3408029" lon="13.2647631"><ele>284.0</ele><time>2026-05-01T12:33:26.812Z</time></trkpt><trkpt lat="43.3408081" lon="13.264871"><ele>284.0</ele><time>2026-05-01T12:33:27.812Z</time></trkpt><trkpt lat="43.3408177" lon="13.2649828"><ele>284.0</ele><time>2026-05-01T12:33:28.813Z</time></trkpt><trkpt lat="43.3408319" lon="13.2651144"><ele>284.0</ele><time>2026-05-01T12:33:29.813Z</time></trkpt><trkpt lat="43.3408548" lon="13.265289"><ele>284.75</ele><time>2026-05-01T12:33:30.814Z</time></trkpt><trkpt lat="43.3408771" lon="13.2654654"><ele>285.5</ele><time>2026-05-01T12:33:31.812Z</time></trkpt><trkpt lat="43.3408987" lon="13.2656358"><ele>286.25</ele><time>2026-05-01T12:33:32.813Z</time></trkpt><trkpt lat="43.3409282" lon="13.265788"><ele>287.0</ele><time>2026-05-01T12:33:33.813Z</time></trkpt><trkpt lat="43.3409729" lon="13.2659233"><ele>287.33333333333337</ele><time>2026-05-01T12:33:34.812Z</time></trkpt><trkpt lat="43.3410315" lon="13.2660415"><ele>287.6666666666667</ele><time>2026-05-01T12:33:35.813Z</time></trkpt><trkpt lat="43.3410908" lon="13.2661322"><ele>288.0</ele><time>2026-05-01T12:33:36.813Z</time></trkpt><trkpt lat="43.3411432" lon="13.266199"><ele>288.3333333333333</ele><time>2026-05-01T12:33:37.813Z</time></trkpt><trkpt lat="43.3412184" lon="13.2662673"><ele>288.66666666666663</ele><time>2026-05-01T12:33:39.812Z</time></trkpt><trkpt lat="43.3412871" lon="13.266251"><ele>289.0</ele><time>2026-05-01T12:33:42.812Z</time></trkpt><trkpt lat="43.341291" lon="13.266131"><ele>289.0</ele><time>2026-05-01T12:33:45.813Z</time></trkpt><trkpt lat="43.3412813" lon="13.2660361"><ele>289.0</ele><time>2026-05-01T12:33:48.813Z</time></trkpt><trkpt lat="43.3412622" lon="13.2659127"><ele>289.0</ele><time>2026-05-01T12:33:51.813Z</time></trkpt><trkpt lat="43.3412732" lon="13.2658153"><ele>289.0</ele><time>2026-05-01T12:33:53.813Z</time></trkpt><trkpt lat="43.3413333" lon="13.2657302"><ele>289.0</ele><time>2026-05-01T12:33:55.813Z</time></trkpt><trkpt lat="43.3414265" lon="13.265709"><ele>289.0</ele><time>2026-05-01T12:33:57.814Z</time></trkpt><trkpt lat="43.3414978" lon="13.2657232"><ele>290.8</ele><time>2026-05-01T12:33:58.813Z</time></trkpt><trkpt lat="43.3415922" lon="13.2657524"><ele>292.59999999999997</ele><time>2026-05-01T12:33:59.813Z</time></trkpt><trkpt lat="43.3416978" lon="13.2657781"><ele>294.4</ele><time>2026-05-01T12:34:00.813Z</time></trkpt><trkpt lat="43.3418062" lon="13.2657922"><ele>296.2</ele><time>2026-05-01T12:34:01.813Z</time></trkpt><trkpt lat="43.3419292" lon="13.2657909"><ele>298.0</ele><time>2026-05-01T12:34:02.812Z</time></trkpt><trkpt lat="43.3420708" lon="13.2657828"><ele>298.0</ele><time>2026-05-01T12:34:03.812Z</time></trkpt><trkpt lat="43.3422143" lon="13.2657797"><ele>298.0</ele><time>2026-05-01T12:34:04.812Z</time></trkpt><trkpt lat="43.3423496" lon="13.2657816"><ele>298.0</ele><time>2026-05-01T12:34:05.813Z</time></trkpt><trkpt lat="43.3424637" lon="13.265781"><ele>298.0</ele><time>2026-05-01T12:34:06.813Z</time></trkpt><trkpt lat="43.3425662" lon="13.2657814"><ele>298.8</ele><time>2026-05-01T12:34:07.812Z</time></trkpt><trkpt lat="43.3426453" lon="13.265784"><ele>299.6</ele><time>2026-05-01T12:34:08.813Z</time></trkpt><trkpt lat="43.342718" lon="13.2657906"><ele>300.4</ele><time>2026-05-01T12:34:09.813Z</time></trkpt><trkpt lat="43.3427852" lon="13.2657993"><ele>301.2</ele><time>2026-05-01T12:34:10.812Z</time></trkpt><trkpt lat="43.3429015" lon="13.2658318"><ele>302.0</ele><time>2026-05-01T12:34:12.813Z</time></trkpt><trkpt lat="43.343004" lon="13.2658978"><ele>303.5</ele><time>2026-05-01T12:34:14.813Z</time></trkpt><trkpt lat="43.3430957" lon="13.2659927"><ele>305.0</ele><time>2026-05-01T12:34:16.812Z</time></trkpt><trkpt lat="43.3431533" lon="13.2660816"><ele>306.5</ele><time>2026-05-01T12:34:18.813Z</time></trkpt><trkpt lat="43.3431822" lon="13.2661587"><ele>308.0</ele><time>2026-05-01T12:34:20.813Z</time></trkpt><trkpt lat="43.343214" lon="13.2662753"><ele>309.5</ele><time>2026-05-01T12:34:23.813Z</time></trkpt><trkpt lat="43.3432395" lon="13.2663963"><ele>311.0</ele><time>2026-05-01T12:34:26.813Z</time></trkpt><trkpt lat="43.3432676" lon="13.2665151"><ele>311.0</ele><time>2026-05-01T12:34:29.814Z</time></trkpt><trkpt lat="43.3433026" lon="13.2665977"><ele>311.0</ele><time>2026-05-01T12:34:31.813Z</time></trkpt><trkpt lat="43.3433563" lon="13.2666752"><ele>311.0</ele><time>2026-05-01T12:34:33.813Z</time></trkpt><trkpt lat="43.3434198" lon="13.2667161"><ele>311.0</ele><time>2026-05-01T12:34:35.813Z</time></trkpt><trkpt lat="43.3434821" lon="13.2666833"><ele>311.0</ele><time>2026-05-01T12:34:37.813Z</time></trkpt><trkpt lat="43.3435308" lon="13.26659"><ele>311.0</ele><time>2026-05-01T12:34:39.812Z</time></trkpt><trkpt lat="43.3435584" lon="13.2664751"><ele>311.6</ele><time>2026-05-01T12:34:41.813Z</time></trkpt><trkpt lat="43.3435804" lon="13.2663507"><ele>312.20000000000005</ele><time>2026-05-01T12:34:43.813Z</time></trkpt><trkpt lat="43.3436097" lon="13.2662322"><ele>312.79999999999995</ele><time>2026-05-01T12:34:45.813Z</time></trkpt><trkpt lat="43.343649" lon="13.2660978"><ele>313.4</ele><time>2026-05-01T12:34:47.813Z</time></trkpt><trkpt lat="43.3436981" lon="13.2659538"><ele>314.0</ele><time>2026-05-01T12:34:49.812Z</time></trkpt><trkpt lat="43.3437603" lon="13.2658021"><ele>313.99999999999994</ele><time>2026-05-01T12:34:51.814Z</time></trkpt><trkpt lat="43.3437987" lon="13.2657219"><ele>314.0</ele><time>2026-05-01T12:34:52.812Z</time></trkpt><trkpt lat="43.3438401" lon="13.2656451"><ele>314.0</ele><time>2026-05-01T12:34:53.812Z</time></trkpt><trkpt lat="43.3438841" lon="13.2655672"><ele>314.0</ele><time>2026-05-01T12:34:54.812Z</time></trkpt><trkpt lat="43.3439308" lon="13.265482"><ele>314.0</ele><time>2026-05-01T12:34:55.812Z</time></trkpt><trkpt lat="43.3439768" lon="13.2654017"><ele>313.99999999999994</ele><time>2026-05-01T12:34:56.813Z</time></trkpt><trkpt lat="43.3440246" lon="13.2653175"><ele>314.0</ele><time>2026-05-01T12:34:57.814Z</time></trkpt><trkpt lat="43.3440717" lon="13.2652311"><ele>315.6666666666667</ele><time>2026-05-01T12:34:58.813Z</time></trkpt><trkpt lat="43.3441157" lon="13.2651448"><ele>317.33333333333337</ele><time>2026-05-01T12:34:59.813Z</time></trkpt><trkpt lat="43.3441624" lon="13.2650508"><ele>319.0</ele><time>2026-05-01T12:35:00.814Z</time></trkpt><trkpt lat="43.3442095" lon="13.2649578"><ele>320.6666666666667</ele><time>2026-05-01T12:35:01.812Z</time></trkpt><trkpt lat="43.3442565" lon="13.2648671"><ele>322.3333333333333</ele><time>2026-05-01T12:35:02.813Z</time></trkpt><trkpt lat="43.344303" lon="13.2647715"><ele>324.0</ele><time>2026-05-01T12:35:03.812Z</time></trkpt><trkpt lat="43.3443461" lon="13.2646836"><ele>324.3333333333333</ele><time>2026-05-01T12:35:04.812Z</time></trkpt><trkpt lat="43.3443899" lon="13.2645895"><ele>324.6666666666667</ele><time>2026-05-01T12:35:05.814Z</time></trkpt><trkpt lat="43.3444373" lon="13.2644977"><ele>325.0</ele><time>2026-05-01T12:35:06.813Z</time></trkpt><trkpt lat="43.3444853" lon="13.264414"><ele>325.33333333333337</ele><time>2026-05-01T12:35:07.813Z</time></trkpt><trkpt lat="43.3445364" lon="13.2643298"><ele>325.6666666666667</ele><time>2026-05-01T12:35:08.813Z</time></trkpt><trkpt lat="43.3445857" lon="13.2642461"><ele>326.0</ele><time>2026-05-01T12:35:09.813Z</time></trkpt><trkpt lat="43.3446339" lon="13.2641631"><ele>326.0</ele><time>2026-05-01T12:35:10.813Z</time></trkpt><trkpt lat="43.3446834" lon="13.2640769"><ele>326.0</ele><time>2026-05-01T12:35:11.812Z</time></trkpt><trkpt lat="43.34473" lon="13.2639966"><ele>326.0</ele><time>2026-05-01T12:35:12.813Z</time></trkpt><trkpt lat="43.3447777" lon="13.2639101"><ele>326.0</ele><time>2026-05-01T12:35:13.813Z</time></trkpt><trkpt lat="43.3448251" lon="13.2638194"><ele>326.0</ele><time>2026-05-01T12:35:14.813Z</time></trkpt><trkpt lat="43.3448694" lon="13.2637348"><ele>326.0</ele><time>2026-05-01T12:35:15.812Z</time></trkpt><trkpt lat="43.3449128" lon="13.2636489"><ele>326.5714285714286</ele><time>2026-05-01T12:35:16.813Z</time></trkpt><trkpt lat="43.3449537" lon="13.2635644"><ele>327.1428571428571</ele><time>2026-05-01T12:35:17.813Z</time></trkpt><trkpt lat="43.3449973" lon="13.2634816"><ele>327.7142857142857</ele><time>2026-05-01T12:35:18.812Z</time></trkpt><trkpt lat="43.3450427" lon="13.2634035"><ele>328.28571428571433</ele><time>2026-05-01T12:35:19.813Z</time></trkpt><trkpt lat="43.34509" lon="13.2633315"><ele>328.8571428571429</ele><time>2026-05-01T12:35:20.812Z</time></trkpt><trkpt lat="43.3451361" lon="13.2632594"><ele>329.42857142857144</ele><time>2026-05-01T12:35:21.813Z</time></trkpt><trkpt lat="43.3451809" lon="13.2631816"><ele>330.0</ele><time>2026-05-01T12:35:22.813Z</time></trkpt><trkpt lat="43.3452217" lon="13.2631047"><ele>330.1666666666667</ele><time>2026-05-01T12:35:23.813Z</time></trkpt><trkpt lat="43.3452634" lon="13.2630291"><ele>330.3333333333333</ele><time>2026-05-01T12:35:24.813Z</time></trkpt><trkpt lat="43.3453073" lon="13.2629574"><ele>330.5</ele><time>2026-05-01T12:35:25.813Z</time></trkpt><trkpt lat="43.3453943" lon="13.2628459"><ele>330.66666666666663</ele><time>2026-05-01T12:35:27.813Z</time></trkpt><trkpt lat="43.3454504" lon="13.262779"><ele>330.8333333333333</ele><time>2026-05-01T12:35:29.813Z</time></trkpt><trkpt lat="43.3454778" lon="13.2626569"><ele>331.0</ele><time>2026-05-01T12:35:32.813Z</time></trkpt><trkpt lat="43.3454506" lon="13.2625099"><ele>331.0</ele><time>2026-05-01T12:35:34.813Z</time></trkpt><trkpt lat="43.3454286" lon="13.2624191"><ele>331.0</ele><time>2026-05-01T12:35:35.813Z</time></trkpt><trkpt lat="43.3454088" lon="13.2623152"><ele>331.0</ele><time>2026-05-01T12:35:36.813Z</time></trkpt><trkpt lat="43.3453884" lon="13.2622072"><ele>331.0</ele><time>2026-05-01T12:35:37.813Z</time></trkpt><trkpt lat="43.3453558" lon="13.2620987"><ele>331.0</ele><time>2026-05-01T12:35:38.812Z</time></trkpt><trkpt lat="43.3453337" lon="13.2619846"><ele>331.0</ele><time>2026-05-01T12:35:39.813Z</time></trkpt><trkpt lat="43.3452958" lon="13.2618708"><ele>331.6</ele><time>2026-05-01T12:35:40.813Z</time></trkpt><trkpt lat="43.3452582" lon="13.2617489"><ele>332.20000000000005</ele><time>2026-05-01T12:35:41.813Z</time></trkpt><trkpt lat="43.3452706" lon="13.261602"><ele>332.79999999999995</ele><time>2026-05-01T12:35:42.812Z</time></trkpt><trkpt lat="43.3452326" lon="13.2614848"><ele>333.4</ele><time>2026-05-01T12:35:43.813Z</time></trkpt><trkpt lat="43.3452075" lon="13.2613561"><ele>334.0</ele><time>2026-05-01T12:35:44.813Z</time></trkpt><trkpt lat="43.3451831" lon="13.2612298"><ele>334.6</ele><time>2026-05-01T12:35:45.812Z</time></trkpt><trkpt lat="43.3451508" lon="13.261103"><ele>335.2</ele><time>2026-05-01T12:35:46.813Z</time></trkpt><trkpt lat="43.3451384" lon="13.260972"><ele>335.8</ele><time>2026-05-01T12:35:47.813Z</time></trkpt><trkpt lat="43.3451052" lon="13.2608474"><ele>336.40000000000003</ele><time>2026-05-01T12:35:48.813Z</time></trkpt><trkpt lat="43.345073" lon="13.2607166"><ele>337.0</ele><time>2026-05-01T12:35:49.813Z</time></trkpt><trkpt lat="43.3450457" lon="13.2605852"><ele>337.40000000000003</ele><time>2026-05-01T12:35:50.813Z</time></trkpt><trkpt lat="43.3450171" lon="13.2604524"><ele>337.8</ele><time>2026-05-01T12:35:51.814Z</time></trkpt><trkpt lat="43.3449844" lon="13.2603187"><ele>338.2</ele><time>2026-05-01T12:35:52.812Z</time></trkpt><trkpt lat="43.344946" lon="13.2601915"><ele>338.6</ele><time>2026-05-01T12:35:53.812Z</time></trkpt><trkpt lat="43.3449007" lon="13.2600663"><ele>339.0</ele><time>2026-05-01T12:35:54.813Z</time></trkpt><trkpt lat="43.3448512" lon="13.2599438"><ele>339.0</ele><time>2026-05-01T12:35:55.812Z</time></trkpt><trkpt lat="43.3448006" lon="13.2598164"><ele>339.0</ele><time>2026-05-01T12:35:56.812Z</time></trkpt><trkpt lat="43.3447486" lon="13.259688"><ele>339.0</ele><time>2026-05-01T12:35:57.812Z</time></trkpt><trkpt lat="43.3446939" lon="13.2595551"><ele>339.0</ele><time>2026-05-01T12:35:58.813Z</time></trkpt><trkpt lat="43.3446404" lon="13.2594256"><ele>339.0</ele><time>2026-05-01T12:35:59.813Z</time></trkpt><trkpt lat="43.344577" lon="13.2593069"><ele>338.2</ele><time>2026-05-01T12:36:00.813Z</time></trkpt><trkpt lat="43.3445071" lon="13.2591992"><ele>337.4</ele><time>2026-05-01T12:36:01.813Z</time></trkpt><trkpt lat="43.3444262" lon="13.2591072"><ele>336.6</ele><time>2026-05-01T12:36:02.812Z</time></trkpt><trkpt lat="43.3443394" lon="13.2590273"><ele>335.8</ele><time>2026-05-01T12:36:03.812Z</time></trkpt><trkpt lat="43.3442489" lon="13.2589589"><ele>335.0</ele><time>2026-05-01T12:36:04.813Z</time></trkpt><trkpt lat="43.3441653" lon="13.2588867"><ele>335.0</ele><time>2026-05-01T12:36:05.812Z</time></trkpt><trkpt lat="43.3440912" lon="13.2588034"><ele>335.0</ele><time>2026-05-01T12:36:06.813Z</time></trkpt><trkpt lat="43.3440174" lon="13.2587139"><ele>335.0</ele><time>2026-05-01T12:36:07.813Z</time></trkpt><trkpt lat="43.3439494" lon="13.2586114"><ele>335.0</ele><time>2026-05-01T12:36:08.812Z</time></trkpt><trkpt lat="43.3438805" lon="13.2585098"><ele>335.0</ele><time>2026-05-01T12:36:09.812Z</time></trkpt><trkpt lat="43.3438121" lon="13.2584113"><ele>334.8</ele><time>2026-05-01T12:36:10.812Z</time></trkpt><trkpt lat="43.3437463" lon="13.2583065"><ele>334.6</ele><time>2026-05-01T12:36:11.811Z</time></trkpt><trkpt lat="43.343691" lon="13.2582024"><ele>334.4</ele><time>2026-05-01T12:36:12.811Z</time></trkpt><trkpt lat="43.3436518" lon="13.2580834"><ele>334.2</ele><time>2026-05-01T12:36:13.812Z</time></trkpt><trkpt lat="43.3436236" lon="13.2579636"><ele>334.0</ele><time>2026-05-01T12:36:14.812Z</time></trkpt><trkpt lat="43.3435963" lon="13.2578405"><ele>334.0</ele><time>2026-05-01T12:36:15.811Z</time></trkpt><trkpt lat="43.34357" lon="13.2577207"><ele>334.0</ele><time>2026-05-01T12:36:16.811Z</time></trkpt><trkpt lat="43.3435449" lon="13.2576075"><ele>334.0</ele><time>2026-05-01T12:36:17.811Z</time></trkpt><trkpt lat="43.3435207" lon="13.2574918"><ele>334.0</ele><time>2026-05-01T12:36:18.811Z</time></trkpt><trkpt lat="43.3434958" lon="13.2573729"><ele>334.0</ele><time>2026-05-01T12:36:19.811Z</time></trkpt><trkpt lat="43.3434781" lon="13.2572821"><ele>334.0</ele><time>2026-05-01T12:36:20.811Z</time></trkpt><trkpt lat="43.3434614" lon="13.2571984"><ele>334.0</ele><time>2026-05-01T12:36:21.812Z</time></trkpt><trkpt lat="43.34351" lon="13.2571345"><ele>334.0</ele><time>2026-05-01T12:36:24.811Z</time></trkpt><trkpt lat="43.3435579" lon="13.2572071"><ele>334.0</ele><time>2026-05-01T12:36:26.812Z</time></trkpt><trkpt lat="43.343614" lon="13.2572916"><ele>334.0</ele><time>2026-05-01T12:36:28.812Z</time></trkpt><trkpt lat="43.343697" lon="13.257295"><ele>334.0</ele><time>2026-05-01T12:36:30.811Z</time></trkpt><trkpt lat="43.3437815" lon="13.2572756"><ele>334.0</ele><time>2026-05-01T12:36:32.811Z</time></trkpt><trkpt lat="43.3438778" lon="13.2572422"><ele>337.16666666666663</ele><time>2026-05-01T12:36:34.812Z</time></trkpt><trkpt lat="43.3439853" lon="13.2572118"><ele>340.3333333333333</ele><time>2026-05-01T12:36:36.812Z</time></trkpt><trkpt lat="43.3441047" lon="13.2571751"><ele>343.5</ele><time>2026-05-01T12:36:38.812Z</time></trkpt><trkpt lat="43.3441699" lon="13.257151"><ele>346.6666666666667</ele><time>2026-05-01T12:36:39.812Z</time></trkpt><trkpt lat="43.3442388" lon="13.2571311"><ele>349.83333333333337</ele><time>2026-05-01T12:36:40.812Z</time></trkpt><trkpt lat="43.3443055" lon="13.2571117"><ele>353.0</ele><time>2026-05-01T12:36:41.812Z</time></trkpt><trkpt lat="43.3443729" lon="13.2570916"><ele>353.0</ele><time>2026-05-01T12:36:42.813Z</time></trkpt><trkpt lat="43.3444352" lon="13.2570693"><ele>353.0</ele><time>2026-05-01T12:36:43.811Z</time></trkpt><trkpt lat="43.3445046" lon="13.2570583"><ele>353.0</ele><time>2026-05-01T12:36:44.812Z</time></trkpt><trkpt lat="43.3445728" lon="13.2570421"><ele>353.0</ele><time>2026-05-01T12:36:45.812Z</time></trkpt><trkpt lat="43.3446388" lon="13.2570107"><ele>353.0</ele><time>2026-05-01T12:36:46.811Z</time></trkpt><trkpt lat="43.3447057" lon="13.2569857"><ele>353.0</ele><time>2026-05-01T12:36:47.812Z</time></trkpt><trkpt lat="43.3447712" lon="13.2569593"><ele>353.0</ele><time>2026-05-01T12:36:48.812Z</time></trkpt><trkpt lat="43.3448343" lon="13.2569312"><ele>354.0</ele><time>2026-05-01T12:36:49.812Z</time></trkpt><trkpt lat="43.3448979" lon="13.256894"><ele>355.0</ele><time>2026-05-01T12:36:50.811Z</time></trkpt><trkpt lat="43.3449603" lon="13.2568513"><ele>356.0</ele><time>2026-05-01T12:36:51.812Z</time></trkpt><trkpt lat="43.3450179" lon="13.2568094"><ele>357.0</ele><time>2026-05-01T12:36:52.812Z</time></trkpt><trkpt lat="43.3450763" lon="13.2567621"><ele>358.0</ele><time>2026-05-01T12:36:53.812Z</time></trkpt><trkpt lat="43.3451323" lon="13.2567105"><ele>359.0</ele><time>2026-05-01T12:36:54.812Z</time></trkpt><trkpt lat="43.3451934" lon="13.2566625"><ele>360.0</ele><time>2026-05-01T12:36:55.812Z</time></trkpt><trkpt lat="43.3452498" lon="13.2566118"><ele>360.0</ele><time>2026-05-01T12:36:56.811Z</time></trkpt><trkpt lat="43.345299" lon="13.2565494"><ele>360.0</ele><time>2026-05-01T12:36:57.811Z</time></trkpt><trkpt lat="43.3453417" lon="13.2564725"><ele>360.0</ele><time>2026-05-01T12:36:58.812Z</time></trkpt><trkpt lat="43.3453746" lon="13.2563896"><ele>360.0</ele><time>2026-05-01T12:36:59.811Z</time></trkpt><trkpt lat="43.3454019" lon="13.2562975"><ele>360.0</ele><time>2026-05-01T12:37:00.811Z</time></trkpt><trkpt lat="43.3454223" lon="13.2562067"><ele>360.0</ele><time>2026-05-01T12:37:01.812Z</time></trkpt><trkpt lat="43.3454393" lon="13.2561102"><ele>360.0</ele><time>2026-05-01T12:37:02.811Z</time></trkpt><trkpt lat="43.3454647" lon="13.2560174"><ele>360.57142857142856</ele><time>2026-05-01T12:37:03.812Z</time></trkpt><trkpt lat="43.3454951" lon="13.2559335"><ele>361.14285714285717</ele><time>2026-05-01T12:37:04.811Z</time></trkpt><trkpt lat="43.345536" lon="13.2558615"><ele>361.7142857142857</ele><time>2026-05-01T12:37:05.812Z</time></trkpt><trkpt lat="43.3455857" lon="13.2557997"><ele>362.2857142857143</ele><time>2026-05-01T12:37:06.811Z</time></trkpt><trkpt lat="43.3456426" lon="13.2557453"><ele>362.8571428571429</ele><time>2026-05-01T12:37:07.812Z</time></trkpt><trkpt lat="43.3457062" lon="13.2556954"><ele>363.42857142857144</ele><time>2026-05-01T12:37:08.812Z</time></trkpt><trkpt lat="43.3457734" lon="13.2556466"><ele>364.0</ele><time>2026-05-01T12:37:09.813Z</time></trkpt><trkpt lat="43.345839" lon="13.2556026"><ele>364.8333333333333</ele><time>2026-05-01T12:37:10.812Z</time></trkpt><trkpt lat="43.3459072" lon="13.2555583"><ele>365.66666666666663</ele><time>2026-05-01T12:37:11.813Z</time></trkpt><trkpt lat="43.3459743" lon="13.2555152"><ele>366.5</ele><time>2026-05-01T12:37:12.812Z</time></trkpt><trkpt lat="43.3460436" lon="13.2554706"><ele>367.3333333333333</ele><time>2026-05-01T12:37:13.811Z</time></trkpt><trkpt lat="43.3461116" lon="13.2554313"><ele>368.1666666666667</ele><time>2026-05-01T12:37:14.812Z</time></trkpt><trkpt lat="43.3461834" lon="13.2553799"><ele>369.0</ele><time>2026-05-01T12:37:15.812Z</time></trkpt><trkpt lat="43.3462542" lon="13.2553336"><ele>369.0</ele><time>2026-05-01T12:37:16.812Z</time></trkpt><trkpt lat="43.3463272" lon="13.2552924"><ele>369.0</ele><time>2026-05-01T12:37:17.812Z</time></trkpt><trkpt lat="43.3463983" lon="13.2552458"><ele>369.0</ele><time>2026-05-01T12:37:18.812Z</time></trkpt><trkpt lat="43.3464711" lon="13.2551959"><ele>369.0</ele><time>2026-05-01T12:37:19.811Z</time></trkpt><trkpt lat="43.3465467" lon="13.2551459"><ele>369.0</ele><time>2026-05-01T12:37:20.812Z</time></trkpt><trkpt lat="43.3466258" lon="13.2550958"><ele>369.0</ele><time>2026-05-01T12:37:21.811Z</time></trkpt><trkpt lat="43.3467045" lon="13.2550395"><ele>368.5</ele><time>2026-05-01T12:37:22.811Z</time></trkpt><trkpt lat="43.3467859" lon="13.2549872"><ele>368.0</ele><time>2026-05-01T12:37:23.813Z</time></trkpt><trkpt lat="43.3468668" lon="13.2549339"><ele>367.5</ele><time>2026-05-01T12:37:24.812Z</time></trkpt><trkpt lat="43.3469447" lon="13.2548801"><ele>367.0</ele><time>2026-05-01T12:37:25.811Z</time></trkpt><trkpt lat="43.3470255" lon="13.2548291"><ele>366.5</ele><time>2026-05-01T12:37:26.812Z</time></trkpt><trkpt lat="43.3471068" lon="13.2547765"><ele>366.0</ele><time>2026-05-01T12:37:27.812Z</time></trkpt><trkpt lat="43.3471865" lon="13.2547252"><ele>367.3333333333333</ele><time>2026-05-01T12:37:28.812Z</time></trkpt><trkpt lat="43.3472681" lon="13.2546731"><ele>368.6666666666667</ele><time>2026-05-01T12:37:29.812Z</time></trkpt><trkpt lat="43.3473378" lon="13.2546173"><ele>370.0</ele><time>2026-05-01T12:37:30.813Z</time></trkpt><trkpt lat="43.3474" lon="13.2545631"><ele>371.33333333333337</ele><time>2026-05-01T12:37:31.811Z</time></trkpt><trkpt lat="43.3474641" lon="13.2545059"><ele>372.6666666666667</ele><time>2026-05-01T12:37:32.812Z</time></trkpt><trkpt lat="43.3475258" lon="13.2544458"><ele>374.0</ele><time>2026-05-01T12:37:33.812Z</time></trkpt><trkpt lat="43.3475816" lon="13.2543715"><ele>374.0</ele><time>2026-05-01T12:37:34.812Z</time></trkpt><trkpt lat="43.3476331" lon="13.254301"><ele>374.0</ele><time>2026-05-01T12:37:35.811Z</time></trkpt><trkpt lat="43.3476852" lon="13.2542285"><ele>374.0</ele><time>2026-05-01T12:37:36.812Z</time></trkpt><trkpt lat="43.3477346" lon="13.2541605"><ele>374.0</ele><time>2026-05-01T12:37:37.812Z</time></trkpt><trkpt lat="43.3477819" lon="13.2540932"><ele>374.0</ele><time>2026-05-01T12:37:38.812Z</time></trkpt><trkpt lat="43.3478281" lon="13.2540208"><ele>374.0</ele><time>2026-05-01T12:37:39.811Z</time></trkpt><trkpt lat="43.3478778" lon="13.2539502"><ele>374.0</ele><time>2026-05-01T12:37:40.812Z</time></trkpt><trkpt lat="43.3479257" lon="13.2538729"><ele>375.57142857142856</ele><time>2026-05-01T12:37:41.811Z</time></trkpt><trkpt lat="43.3479724" lon="13.2538016"><ele>377.14285714285717</ele><time>2026-05-01T12:37:42.812Z</time></trkpt><trkpt lat="43.3480191" lon="13.2537272"><ele>378.7142857142857</ele><time>2026-05-01T12:37:43.812Z</time></trkpt><trkpt lat="43.348068" lon="13.2536516"><ele>380.2857142857143</ele><time>2026-05-01T12:37:44.812Z</time></trkpt><trkpt lat="43.3481202" lon="13.2535754"><ele>381.8571428571429</ele><time>2026-05-01T12:37:45.811Z</time></trkpt><trkpt lat="43.348174" lon="13.2535025"><ele>383.42857142857144</ele><time>2026-05-01T12:37:46.812Z</time></trkpt><trkpt lat="43.3482327" lon="13.2534405"><ele>385.0</ele><time>2026-05-01T12:37:47.811Z</time></trkpt><trkpt lat="43.3482987" lon="13.2533933"><ele>385.00000000000006</ele><time>2026-05-01T12:37:48.812Z</time></trkpt><trkpt lat="43.3483723" lon="13.253356"><ele>385.0</ele><time>2026-05-01T12:37:49.812Z</time></trkpt><trkpt lat="43.3484457" lon="13.253325"><ele>385.0</ele><time>2026-05-01T12:37:50.811Z</time></trkpt><trkpt lat="43.3485195" lon="13.2532897"><ele>385.0</ele><time>2026-05-01T12:37:51.812Z</time></trkpt><trkpt lat="43.3485954" lon="13.2532569"><ele>385.00000000000006</ele><time>2026-05-01T12:37:52.813Z</time></trkpt><trkpt lat="43.3486681" lon="13.2532236"><ele>385.0</ele><time>2026-05-01T12:37:53.812Z</time></trkpt><trkpt lat="43.3487402" lon="13.2531843"><ele>385.00000000000006</ele><time>2026-05-01T12:37:54.812Z</time></trkpt><trkpt lat="43.3488106" lon="13.2531409"><ele>385.0</ele><time>2026-05-01T12:37:55.813Z</time></trkpt><trkpt lat="43.3488807" lon="13.2530885"><ele>385.0</ele><time>2026-05-01T12:37:56.811Z</time></trkpt><trkpt lat="43.3489524" lon="13.2530378"><ele>385.0</ele><time>2026-05-01T12:37:57.811Z</time></trkpt><trkpt lat="43.3490196" lon="13.2529793"><ele>385.00000000000006</ele><time>2026-05-01T12:37:58.813Z</time></trkpt><trkpt lat="43.3490846" lon="13.2529202"><ele>385.0</ele><time>2026-05-01T12:37:59.812Z</time></trkpt><trkpt lat="43.3491538" lon="13.2528685"><ele>385.50000000000006</ele><time>2026-05-01T12:38:00.812Z</time></trkpt><trkpt lat="43.3492208" lon="13.2528144"><ele>386.0</ele><time>2026-05-01T12:38:01.812Z</time></trkpt><trkpt lat="43.3492885" lon="13.2527533"><ele>386.5</ele><time>2026-05-01T12:38:02.812Z</time></trkpt><trkpt lat="43.3493577" lon="13.252694"><ele>387.0</ele><time>2026-05-01T12:38:03.812Z</time></trkpt><trkpt lat="43.3494349" lon="13.2526284"><ele>387.50000000000006</ele><time>2026-05-01T12:38:04.812Z</time></trkpt><trkpt lat="43.3495128" lon="13.2525636"><ele>388.0</ele><time>2026-05-01T12:38:05.812Z</time></trkpt><trkpt lat="43.3495924" lon="13.2524981"><ele>388.00000000000006</ele><time>2026-05-01T12:38:06.811Z</time></trkpt><trkpt lat="43.3496706" lon="13.25243"><ele>388.0</ele><time>2026-05-01T12:38:07.812Z</time></trkpt><trkpt lat="43.3497459" lon="13.2523597"><ele>388.0</ele><time>2026-05-01T12:38:08.811Z</time></trkpt><trkpt lat="43.3498178" lon="13.2522951"><ele>388.0</ele><time>2026-05-01T12:38:09.812Z</time></trkpt><trkpt lat="43.3498803" lon="13.2522301"><ele>388.00000000000006</ele><time>2026-05-01T12:38:10.811Z</time></trkpt><trkpt lat="43.349943" lon="13.252167"><ele>388.0</ele><time>2026-05-01T12:38:11.811Z</time></trkpt><trkpt lat="43.350006" lon="13.252117"><ele>387.83333333333337</ele><time>2026-05-01T12:38:12.812Z</time></trkpt><trkpt lat="43.3500701" lon="13.2520859"><ele>387.6666666666667</ele><time>2026-05-01T12:38:13.812Z</time></trkpt><trkpt lat="43.3501407" lon="13.2520703"><ele>387.5</ele><time>2026-05-01T12:38:14.811Z</time></trkpt><trkpt lat="43.3502106" lon="13.2520748"><ele>387.33333333333337</ele><time>2026-05-01T12:38:15.812Z</time></trkpt><trkpt lat="43.3502869" lon="13.2521042"><ele>387.1666666666667</ele><time>2026-05-01T12:38:16.811Z</time></trkpt><trkpt lat="43.3503641" lon="13.2521472"><ele>387.0</ele><time>2026-05-01T12:38:17.811Z</time></trkpt><trkpt lat="43.3504403" lon="13.2521899"><ele>387.0</ele><time>2026-05-01T12:38:18.811Z</time></trkpt><trkpt lat="43.350516" lon="13.252223"><ele>387.0</ele><time>2026-05-01T12:38:19.812Z</time></trkpt><trkpt lat="43.3505839" lon="13.25225"><ele>387.0</ele><time>2026-05-01T12:38:20.813Z</time></trkpt><trkpt lat="43.3506469" lon="13.2522637"><ele>387.0</ele><time>2026-05-01T12:38:21.813Z</time></trkpt><trkpt lat="43.3507701" lon="13.2522816"><ele>387.0</ele><time>2026-05-01T12:38:23.812Z</time></trkpt><trkpt lat="43.3508386" lon="13.252278"><ele>387.0</ele><time>2026-05-01T12:38:24.812Z</time></trkpt><trkpt lat="43.3509086" lon="13.2522746"><ele>387.25</ele><time>2026-05-01T12:38:25.812Z</time></trkpt><trkpt lat="43.3510359" lon="13.25227"><ele>387.5</ele><time>2026-05-01T12:38:27.812Z</time></trkpt><trkpt lat="43.3511537" lon="13.2522853"><ele>387.75</ele><time>2026-05-01T12:38:29.811Z</time></trkpt><trkpt lat="43.3512202" lon="13.252418"><ele>388.0</ele><time>2026-05-01T12:38:31.812Z</time></trkpt><trkpt lat="43.3512857" lon="13.2525421"><ele>387.79999999999995</ele><time>2026-05-01T12:38:33.811Z</time></trkpt><trkpt lat="43.3513739" lon="13.252584"><ele>387.6</ele><time>2026-05-01T12:38:35.812Z</time></trkpt><trkpt lat="43.351441" lon="13.2525829"><ele>387.4</ele><time>2026-05-01T12:38:37.812Z</time></trkpt><trkpt lat="43.3515141" lon="13.2525133"><ele>387.20000000000005</ele><time>2026-05-01T12:38:57.811Z</time></trkpt><trkpt lat="43.3515136" lon="13.2523673"><ele>387.0</ele><time>2026-05-01T12:38:59.811Z</time></trkpt><trkpt lat="43.3515254" lon="13.2521984"><ele>387.0</ele><time>2026-05-01T12:39:01.812Z</time></trkpt><trkpt lat="43.3515292" lon="13.2521012"><ele>387.0</ele><time>2026-05-01T12:39:02.811Z</time></trkpt><trkpt lat="43.3515335" lon="13.2519904"><ele>387.0</ele><time>2026-05-01T12:39:03.812Z</time></trkpt><trkpt lat="43.3515405" lon="13.25187"><ele>387.0</ele><time>2026-05-01T12:39:04.812Z</time></trkpt><trkpt lat="43.3515496" lon="13.2517458"><ele>387.0</ele><time>2026-05-01T12:39:05.813Z</time></trkpt><trkpt lat="43.3515572" lon="13.2516188"><ele>387.0</ele><time>2026-05-01T12:39:06.811Z</time></trkpt><trkpt lat="43.3515633" lon="13.2514935"><ele>388.40000000000003</ele><time>2026-05-01T12:39:07.812Z</time></trkpt><trkpt lat="43.3515643" lon="13.2513671"><ele>389.8</ele><time>2026-05-01T12:39:08.812Z</time></trkpt><trkpt lat="43.3515608" lon="13.2512442"><ele>391.2</ele><time>2026-05-01T12:39:09.812Z</time></trkpt><trkpt lat="43.3515533" lon="13.2511181"><ele>392.6</ele><time>2026-05-01T12:39:10.811Z</time></trkpt><trkpt lat="43.3515367" lon="13.2509946"><ele>394.0</ele><time>2026-05-01T12:39:11.812Z</time></trkpt><trkpt lat="43.3515061" lon="13.2508711"><ele>394.0</ele><time>2026-05-01T12:39:12.811Z</time></trkpt><trkpt lat="43.3514704" lon="13.2507452"><ele>394.0</ele><time>2026-05-01T12:39:13.813Z</time></trkpt><trkpt lat="43.3514305" lon="13.2506197"><ele>394.0</ele><time>2026-05-01T12:39:14.812Z</time></trkpt><trkpt lat="43.3513856" lon="13.2504938"><ele>394.0</ele><time>2026-05-01T12:39:15.812Z</time></trkpt><trkpt lat="43.3513407" lon="13.250366"><ele>394.0</ele><time>2026-05-01T12:39:16.811Z</time></trkpt><trkpt lat="43.3512977" lon="13.2502347"><ele>396.75</ele><time>2026-05-01T12:39:17.812Z</time></trkpt><trkpt lat="43.3512527" lon="13.2501009"><ele>399.5</ele><time>2026-05-01T12:39:18.811Z</time></trkpt><trkpt lat="43.3512032" lon="13.2499637"><ele>402.25</ele><time>2026-05-01T12:39:19.811Z</time></trkpt><trkpt lat="43.3511514" lon="13.2498204"><ele>405.0</ele><time>2026-05-01T12:39:20.812Z</time></trkpt><trkpt lat="43.3511013" lon="13.2496744"><ele>406.5</ele><time>2026-05-01T12:39:21.812Z</time></trkpt><trkpt lat="43.3510524" lon="13.2495272"><ele>408.0</ele><time>2026-05-01T12:39:22.812Z</time></trkpt><trkpt lat="43.3509979" lon="13.2493772"><ele>409.5</ele><time>2026-05-01T12:39:23.811Z</time></trkpt><trkpt lat="43.3509428" lon="13.2492292"><ele>411.0</ele><time>2026-05-01T12:39:24.812Z</time></trkpt><trkpt lat="43.3508884" lon="13.2490773"><ele>413.0</ele><time>2026-05-01T12:39:25.812Z</time></trkpt><trkpt lat="43.3508326" lon="13.248918"><ele>415.0</ele><time>2026-05-01T12:39:26.811Z</time></trkpt><trkpt lat="43.3507782" lon="13.2487625"><ele>417.0</ele><time>2026-05-01T12:39:27.812Z</time></trkpt><trkpt lat="43.3507248" lon="13.248605"><ele>419.0</ele><time>2026-05-01T12:39:28.811Z</time></trkpt><trkpt lat="43.3506726" lon="13.2484473"><ele>419.0</ele><time>2026-05-01T12:39:29.811Z</time></trkpt><trkpt lat="43.3506214" lon="13.2482925"><ele>419.0</ele><time>2026-05-01T12:39:30.812Z</time></trkpt><trkpt lat="43.3505786" lon="13.2481357"><ele>419.0</ele><time>2026-05-01T12:39:31.812Z</time></trkpt><trkpt lat="43.3505529" lon="13.2479753"><ele>419.0</ele><time>2026-05-01T12:39:32.812Z</time></trkpt><trkpt lat="43.3505397" lon="13.24781"><ele>421.25</ele><time>2026-05-01T12:39:33.812Z</time></trkpt><trkpt lat="43.3505309" lon="13.2476398"><ele>423.5</ele><time>2026-05-01T12:39:34.812Z</time></trkpt><trkpt lat="43.3505274" lon="13.2474676"><ele>425.75</ele><time>2026-05-01T12:39:35.812Z</time></trkpt><trkpt lat="43.3505225" lon="13.2472987"><ele>428.0</ele><time>2026-05-01T12:39:36.812Z</time></trkpt><trkpt lat="43.3505143" lon="13.2471328"><ele>430.25</ele><time>2026-05-01T12:39:37.812Z</time></trkpt><trkpt lat="43.3505061" lon="13.2469675"><ele>432.5</ele><time>2026-05-01T12:39:38.811Z</time></trkpt><trkpt lat="43.350497" lon="13.2468058"><ele>434.75</ele><time>2026-05-01T12:39:39.811Z</time></trkpt><trkpt lat="43.3504922" lon="13.2466468"><ele>437.0</ele><time>2026-05-01T12:39:40.811Z</time></trkpt><trkpt lat="43.3504885" lon="13.2464848"><ele>439.75</ele><time>2026-05-01T12:39:41.812Z</time></trkpt><trkpt lat="43.3504823" lon="13.2463253"><ele>442.5</ele><time>2026-05-01T12:39:42.812Z</time></trkpt><trkpt lat="43.3504787" lon="13.2461643"><ele>445.25</ele><time>2026-05-01T12:39:43.811Z</time></trkpt><trkpt lat="43.3504712" lon="13.2460058"><ele>448.0</ele><time>2026-05-01T12:39:44.811Z</time></trkpt><trkpt lat="43.3504637" lon="13.2458465"><ele>448.0</ele><time>2026-05-01T12:39:45.811Z</time></trkpt><trkpt lat="43.3504583" lon="13.2456882"><ele>448.0</ele><time>2026-05-01T12:39:46.812Z</time></trkpt><trkpt lat="43.3504579" lon="13.2455259"><ele>448.0</ele><time>2026-05-01T12:39:47.812Z</time></trkpt><trkpt lat="43.3504618" lon="13.2453619"><ele>448.0</ele><time>2026-05-01T12:39:48.811Z</time></trkpt><trkpt lat="43.3504646" lon="13.2451962"><ele>450.0</ele><time>2026-05-01T12:39:49.813Z</time></trkpt><trkpt lat="43.3504695" lon="13.2450277"><ele>452.0</ele><time>2026-05-01T12:39:50.811Z</time></trkpt><trkpt lat="43.350475" lon="13.2448625"><ele>454.0</ele><time>2026-05-01T12:39:51.811Z</time></trkpt><trkpt lat="43.3504817" lon="13.2446965"><ele>456.0</ele><time>2026-05-01T12:39:52.812Z</time></trkpt><trkpt lat="43.3504936" lon="13.244532"><ele>456.0</ele><time>2026-05-01T12:39:53.812Z</time></trkpt><trkpt lat="43.3505129" lon="13.2443682"><ele>456.0</ele><time>2026-05-01T12:39:54.812Z</time></trkpt><trkpt lat="43.3505308" lon="13.244206"><ele>456.0</ele><time>2026-05-01T12:39:55.811Z</time></trkpt><trkpt lat="43.350544" lon="13.2440495"><ele>456.0</ele><time>2026-05-01T12:39:56.812Z</time></trkpt><trkpt lat="43.3505515" lon="13.2439015"><ele>455.8</ele><time>2026-05-01T12:39:57.813Z</time></trkpt><trkpt lat="43.3505595" lon="13.2437595"><ele>455.6</ele><time>2026-05-01T12:39:58.812Z</time></trkpt><trkpt lat="43.3505702" lon="13.2436258"><ele>455.4</ele><time>2026-05-01T12:39:59.811Z</time></trkpt><trkpt lat="43.3505938" lon="13.2434871"><ele>455.2</ele><time>2026-05-01T12:40:00.812Z</time></trkpt><trkpt lat="43.3506271" lon="13.2433452"><ele>455.0</ele><time>2026-05-01T12:40:01.813Z</time></trkpt><trkpt lat="43.3506701" lon="13.2432021"><ele>455.5</ele><time>2026-05-01T12:40:02.811Z</time></trkpt><trkpt lat="43.3507193" lon="13.2430581"><ele>456.0</ele><time>2026-05-01T12:40:03.812Z</time></trkpt><trkpt lat="43.3507686" lon="13.2429141"><ele>456.5</ele><time>2026-05-01T12:40:04.812Z</time></trkpt><trkpt lat="43.3508201" lon="13.2427669"><ele>457.0</ele><time>2026-05-01T12:40:05.812Z</time></trkpt><trkpt lat="43.3508745" lon="13.2426175"><ele>457.0</ele><time>2026-05-01T12:40:06.811Z</time></trkpt><trkpt lat="43.3509343" lon="13.2424707"><ele>457.0</ele><time>2026-05-01T12:40:07.811Z</time></trkpt><trkpt lat="43.3509927" lon="13.2423223"><ele>457.0</ele><time>2026-05-01T12:40:08.812Z</time></trkpt><trkpt lat="43.3510482" lon="13.2421733"><ele>457.0</ele><time>2026-05-01T12:40:09.811Z</time></trkpt><trkpt lat="43.3510949" lon="13.242022"><ele>458.25</ele><time>2026-05-01T12:40:10.812Z</time></trkpt><trkpt lat="43.3511348" lon="13.2418703"><ele>459.5</ele><time>2026-05-01T12:40:11.812Z</time></trkpt><trkpt lat="43.3511765" lon="13.2417202"><ele>460.75</ele><time>2026-05-01T12:40:12.813Z</time></trkpt><trkpt lat="43.3512166" lon="13.2415706"><ele>462.0</ele><time>2026-05-01T12:40:13.811Z</time></trkpt><trkpt lat="43.3512627" lon="13.2414197"><ele>462.75</ele><time>2026-05-01T12:40:14.812Z</time></trkpt><trkpt lat="43.3513184" lon="13.2412721"><ele>463.5</ele><time>2026-05-01T12:40:15.812Z</time></trkpt><trkpt lat="43.3513916" lon="13.2411349"><ele>464.25</ele><time>2026-05-01T12:40:16.813Z</time></trkpt><trkpt lat="43.3514794" lon="13.2410175"><ele>465.0</ele><time>2026-05-01T12:40:17.811Z</time></trkpt><trkpt lat="43.3515741" lon="13.2409054"><ele>465.0</ele><time>2026-05-01T12:40:18.811Z</time></trkpt><trkpt lat="43.3516603" lon="13.240788"><ele>465.0</ele><time>2026-05-01T12:40:19.812Z</time></trkpt><trkpt lat="43.3517435" lon="13.2406614"><ele>465.0</ele><time>2026-05-01T12:40:20.812Z</time></trkpt><trkpt lat="43.3518254" lon="13.2405312"><ele>465.0</ele><time>2026-05-01T12:40:21.812Z</time></trkpt><trkpt lat="43.3519048" lon="13.2403959"><ele>465.75</ele><time>2026-05-01T12:40:22.811Z</time></trkpt><trkpt lat="43.3519872" lon="13.2402672"><ele>466.5</ele><time>2026-05-01T12:40:23.812Z</time></trkpt><trkpt lat="43.3520775" lon="13.2401485"><ele>467.25</ele><time>2026-05-01T12:40:24.813Z</time></trkpt><trkpt lat="43.3521691" lon="13.240037"><ele>468.0</ele><time>2026-05-01T12:40:25.811Z</time></trkpt><trkpt lat="43.3522668" lon="13.239933"><ele>468.0</ele><time>2026-05-01T12:40:26.812Z</time></trkpt><trkpt lat="43.3523685" lon="13.2398372"><ele>468.0</ele><time>2026-05-01T12:40:27.812Z</time></trkpt><trkpt lat="43.3524712" lon="13.2397396"><ele>468.0</ele><time>2026-05-01T12:40:28.813Z</time></trkpt><trkpt lat="43.3525792" lon="13.2396663"><ele>468.0</ele><time>2026-05-01T12:40:29.812Z</time></trkpt><trkpt lat="43.3526816" lon="13.2395882"><ele>470.5</ele><time>2026-05-01T12:40:30.811Z</time></trkpt><trkpt lat="43.3527905" lon="13.2395261"><ele>473.0</ele><time>2026-05-01T12:40:31.811Z</time></trkpt><trkpt lat="43.3528994" lon="13.2394831"><ele>475.5</ele><time>2026-05-01T12:40:32.811Z</time></trkpt><trkpt lat="43.3530099" lon="13.239458"><ele>478.0</ele><time>2026-05-01T12:40:33.811Z</time></trkpt><trkpt lat="43.3531192" lon="13.2394453"><ele>478.0</ele><time>2026-05-01T12:40:34.812Z</time></trkpt><trkpt lat="43.353227" lon="13.2394601"><ele>477.99999999999994</ele><time>2026-05-01T12:40:35.811Z</time></trkpt><trkpt lat="43.35332" lon="13.2395107"><ele>477.99999999999994</ele><time>2026-05-01T12:40:36.811Z</time></trkpt><trkpt lat="43.3533859" lon="13.2396034"><ele>478.0</ele><time>2026-05-01T12:40:37.812Z</time></trkpt><trkpt lat="43.3534099" lon="13.2397281"><ele>478.0</ele><time>2026-05-01T12:40:38.812Z</time></trkpt><trkpt lat="43.353391" lon="13.2398643"><ele>477.0</ele><time>2026-05-01T12:40:39.811Z</time></trkpt><trkpt lat="43.353347" lon="13.2400026"><ele>476.0</ele><time>2026-05-01T12:40:40.812Z</time></trkpt><trkpt lat="43.3532891" lon="13.2401425"><ele>475.0</ele><time>2026-05-01T12:40:41.811Z</time></trkpt><trkpt lat="43.3532318" lon="13.2402884"><ele>474.0</ele><time>2026-05-01T12:40:42.812Z</time></trkpt><trkpt lat="43.3531791" lon="13.2404383"><ele>474.0</ele><time>2026-05-01T12:40:43.811Z</time></trkpt><trkpt lat="43.353125" lon="13.2405905"><ele>474.0</ele><time>2026-05-01T12:40:44.813Z</time></trkpt><trkpt lat="43.3530712" lon="13.2407423"><ele>474.0</ele><time>2026-05-01T12:40:45.812Z</time></trkpt><trkpt lat="43.3530169" lon="13.2408849"><ele>474.0</ele><time>2026-05-01T12:40:46.812Z</time></trkpt><trkpt lat="43.3529603" lon="13.2410198"><ele>471.79999999999995</ele><time>2026-05-01T12:40:47.811Z</time></trkpt><trkpt lat="43.3529006" lon="13.2411495"><ele>469.59999999999997</ele><time>2026-05-01T12:40:48.811Z</time></trkpt><trkpt lat="43.3528996" lon="13.2412595"><ele>467.4</ele><time>2026-05-01T12:40:49.811Z</time></trkpt><trkpt lat="43.352917" lon="13.2413435"><ele>465.2</ele><time>2026-05-01T12:40:50.812Z</time></trkpt><trkpt lat="43.3530137" lon="13.241396"><ele>463.0</ele><time>2026-05-01T12:40:52.812Z</time></trkpt><trkpt lat="43.3531224" lon="13.2412872"><ele>468.2</ele><time>2026-05-01T12:40:54.811Z</time></trkpt><trkpt lat="43.3531688" lon="13.2411881"><ele>473.4</ele><time>2026-05-01T12:40:55.811Z</time></trkpt><trkpt lat="43.3532144" lon="13.2410775"><ele>478.59999999999997</ele><time>2026-05-01T12:40:56.811Z</time></trkpt><trkpt lat="43.3532665" lon="13.2409648"><ele>483.79999999999995</ele><time>2026-05-01T12:40:57.811Z</time></trkpt><trkpt lat="43.3533265" lon="13.2408467"><ele>489.0</ele><time>2026-05-01T12:40:58.813Z</time></trkpt><trkpt lat="43.3533926" lon="13.2407339"><ele>486.0</ele><time>2026-05-01T12:40:59.812Z</time></trkpt><trkpt lat="43.353465" lon="13.240627"><ele>483.0</ele><time>2026-05-01T12:41:00.812Z</time></trkpt><trkpt lat="43.3535442" lon="13.240528"><ele>480.0</ele><time>2026-05-01T12:41:01.811Z</time></trkpt><trkpt lat="43.3536317" lon="13.2404424"><ele>477.0</ele><time>2026-05-01T12:41:02.811Z</time></trkpt><trkpt lat="43.3537247" lon="13.2403624"><ele>474.0</ele><time>2026-05-01T12:41:03.812Z</time></trkpt><trkpt lat="43.3538249" lon="13.2402953"><ele>478.5</ele><time>2026-05-01T12:41:04.812Z</time></trkpt><trkpt lat="43.3539318" lon="13.2402381"><ele>483.0</ele><time>2026-05-01T12:41:05.811Z</time></trkpt><trkpt lat="43.3540414" lon="13.2401904"><ele>487.5</ele><time>2026-05-01T12:41:06.812Z</time></trkpt><trkpt lat="43.354152" lon="13.2401414"><ele>492.0</ele><time>2026-05-01T12:41:07.811Z</time></trkpt><trkpt lat="43.3542555" lon="13.2400801"><ele>492.0</ele><time>2026-05-01T12:41:08.812Z</time></trkpt><trkpt lat="43.354354" lon="13.2400041"><ele>492.0</ele><time>2026-05-01T12:41:09.811Z</time></trkpt><trkpt lat="43.354451" lon="13.2399298"><ele>492.0</ele><time>2026-05-01T12:41:10.812Z</time></trkpt><trkpt lat="43.3545515" lon="13.239858"><ele>492.0</ele><time>2026-05-01T12:41:11.812Z</time></trkpt><trkpt lat="43.3546512" lon="13.2397846"><ele>494.40000000000003</ele><time>2026-05-01T12:41:12.812Z</time></trkpt><trkpt lat="43.3547503" lon="13.239706"><ele>496.80000000000007</ele><time>2026-05-01T12:41:13.812Z</time></trkpt><trkpt lat="43.3548516" lon="13.2396375"><ele>499.2</ele><time>2026-05-01T12:41:14.812Z</time></trkpt><trkpt lat="43.3549503" lon="13.2395657"><ele>501.6</ele><time>2026-05-01T12:41:15.811Z</time></trkpt><trkpt lat="43.3550436" lon="13.2395023"><ele>504.0</ele><time>2026-05-01T12:41:16.812Z</time></trkpt><trkpt lat="43.3551394" lon="13.239439"><ele>504.0</ele><time>2026-05-01T12:41:17.812Z</time></trkpt><trkpt lat="43.3552275" lon="13.2393709"><ele>504.0</ele><time>2026-05-01T12:41:18.812Z</time></trkpt><trkpt lat="43.3553135" lon="13.2393076"><ele>504.0</ele><time>2026-05-01T12:41:19.811Z</time></trkpt><trkpt lat="43.3553891" lon="13.2392579"><ele>504.0</ele><time>2026-05-01T12:41:20.812Z</time></trkpt><trkpt lat="43.3554525" lon="13.2392236"><ele>504.0</ele><time>2026-05-01T12:41:21.811Z</time></trkpt><trkpt lat="43.3555369" lon="13.2392199"><ele>504.0</ele><time>2026-05-01T12:41:23.811Z</time></trkpt><trkpt lat="43.3555659" lon="13.2393185"><ele>504.0</ele><time>2026-05-01T12:41:25.812Z</time></trkpt><trkpt lat="43.3555257" lon="13.2394583"><ele>504.0</ele><time>2026-05-01T12:41:27.811Z</time></trkpt><trkpt lat="43.355489" lon="13.2395308"><ele>504.0</ele><time>2026-05-01T12:41:28.811Z</time></trkpt><trkpt lat="43.3554453" lon="13.2396134"><ele>504.0</ele><time>2026-05-01T12:41:29.812Z</time></trkpt><trkpt lat="43.3554051" lon="13.2396966"><ele>504.0</ele><time>2026-05-01T12:41:30.812Z</time></trkpt><trkpt lat="43.3553606" lon="13.2397788"><ele>504.0</ele><time>2026-05-01T12:41:31.813Z</time></trkpt><trkpt lat="43.3553174" lon="13.2398614"><ele>505.5</ele><time>2026-05-01T12:41:32.813Z</time></trkpt><trkpt lat="43.3552816" lon="13.2399386"><ele>507.0</ele><time>2026-05-01T12:41:33.812Z</time></trkpt><trkpt lat="43.3552523" lon="13.2400203"><ele>508.5</ele><time>2026-05-01T12:41:34.812Z</time></trkpt><trkpt lat="43.3552472" lon="13.2401817"><ele>510.0</ele><time>2026-05-01T12:41:36.811Z</time></trkpt><trkpt lat="43.3553003" lon="13.2403328"><ele>511.5</ele><time>2026-05-01T12:41:38.812Z</time></trkpt><trkpt lat="43.3553383" lon="13.240415"><ele>513.0</ele><time>2026-05-01T12:41:39.811Z</time></trkpt><trkpt lat="43.3553775" lon="13.2405071"><ele>513.0</ele><time>2026-05-01T12:41:40.813Z</time></trkpt><trkpt lat="43.3554237" lon="13.2406074"><ele>513.0</ele><time>2026-05-01T12:41:41.812Z</time></trkpt><trkpt lat="43.3554666" lon="13.2407092"><ele>513.0</ele><time>2026-05-01T12:41:42.813Z</time></trkpt><trkpt lat="43.3555076" lon="13.2408095"><ele>513.0</ele><time>2026-05-01T12:41:43.812Z</time></trkpt><trkpt lat="43.3555498" lon="13.2409021"><ele>513.0</ele><time>2026-05-01T12:41:44.812Z</time></trkpt><trkpt lat="43.3555905" lon="13.2409847"><ele>513.0</ele><time>2026-05-01T12:41:45.811Z</time></trkpt><trkpt lat="43.3556744" lon="13.2410705"><ele>515.1666666666666</ele><time>2026-05-01T12:41:47.811Z</time></trkpt><trkpt lat="43.3557804" lon="13.2410724"><ele>517.3333333333334</ele><time>2026-05-01T12:41:49.811Z</time></trkpt><trkpt lat="43.3558401" lon="13.241038"><ele>519.5</ele><time>2026-05-01T12:41:50.812Z</time></trkpt><trkpt lat="43.3559048" lon="13.2409762"><ele>521.6666666666667</ele><time>2026-05-01T12:41:51.811Z</time></trkpt><trkpt lat="43.3559695" lon="13.2409069"><ele>523.8333333333334</ele><time>2026-05-01T12:41:52.812Z</time></trkpt><trkpt lat="43.356035" lon="13.2408402"><ele>526.0</ele><time>2026-05-01T12:41:53.812Z</time></trkpt><trkpt lat="43.3561035" lon="13.2407663"><ele>526.0</ele><time>2026-05-01T12:41:54.811Z</time></trkpt><trkpt lat="43.356175" lon="13.2406931"><ele>526.0</ele><time>2026-05-01T12:41:55.812Z</time></trkpt><trkpt lat="43.356248" lon="13.2406181"><ele>526.0</ele><time>2026-05-01T12:41:56.812Z</time></trkpt><trkpt lat="43.3563223" lon="13.2405436"><ele>526.0</ele><time>2026-05-01T12:41:57.813Z</time></trkpt><trkpt lat="43.3563954" lon="13.2404676"><ele>526.0</ele><time>2026-05-01T12:41:58.812Z</time></trkpt><trkpt lat="43.3564713" lon="13.2403869"><ele>526.4</ele><time>2026-05-01T12:41:59.812Z</time></trkpt><trkpt lat="43.3565442" lon="13.2403024"><ele>526.8</ele><time>2026-05-01T12:42:00.811Z</time></trkpt><trkpt lat="43.3566195" lon="13.2402253"><ele>527.1999999999999</ele><time>2026-05-01T12:42:01.812Z</time></trkpt><trkpt lat="43.3566936" lon="13.2401491"><ele>527.6</ele><time>2026-05-01T12:42:02.812Z</time></trkpt><trkpt lat="43.3567628" lon="13.2400773"><ele>528.0</ele><time>2026-05-01T12:42:03.812Z</time></trkpt><trkpt lat="43.356829" lon="13.2400056"><ele>528.0</ele><time>2026-05-01T12:42:04.812Z</time></trkpt><trkpt lat="43.3568904" lon="13.239933"><ele>528.0</ele><time>2026-05-01T12:42:05.812Z</time></trkpt><trkpt lat="43.356949" lon="13.2398724"><ele>528.0</ele><time>2026-05-01T12:42:06.811Z</time></trkpt><trkpt lat="43.3570406" lon="13.2397671"><ele>528.0</ele><time>2026-05-01T12:42:08.811Z</time></trkpt><trkpt lat="43.3571168" lon="13.2396545"><ele>528.0</ele><time>2026-05-01T12:42:10.811Z</time></trkpt><trkpt lat="43.3571963" lon="13.2395363"><ele>530.6</ele><time>2026-05-01T12:42:12.811Z</time></trkpt><trkpt lat="43.357283" lon="13.2394231"><ele>533.1999999999999</ele><time>2026-05-01T12:42:14.812Z</time></trkpt><trkpt lat="43.3573862" lon="13.2393307"><ele>535.8</ele><time>2026-05-01T12:42:16.811Z</time></trkpt><trkpt lat="43.3574431" lon="13.2392905"><ele>538.4</ele><time>2026-05-01T12:42:17.812Z</time></trkpt><trkpt lat="43.3575063" lon="13.239238"><ele>541.0</ele><time>2026-05-01T12:42:18.813Z</time></trkpt><trkpt lat="43.3575832" lon="13.2391594"><ele>541.0</ele><time>2026-05-01T12:42:20.811Z</time></trkpt><trkpt lat="43.3576566" lon="13.2391342"><ele>541.0</ele><time>2026-05-01T12:42:22.812Z</time></trkpt><trkpt lat="43.3577461" lon="13.2391131"><ele>541.0</ele><time>2026-05-01T12:42:24.811Z</time></trkpt><trkpt lat="43.3578456" lon="13.2390763"><ele>541.0</ele><time>2026-05-01T12:42:26.811Z</time></trkpt><trkpt lat="43.3579618" lon="13.239079"><ele>541.0</ele><time>2026-05-01T12:42:28.812Z</time></trkpt><trkpt lat="43.3580818" lon="13.2391112"><ele>540.0</ele><time>2026-05-01T12:42:30.812Z</time></trkpt><trkpt lat="43.3582032" lon="13.2391643"><ele>539.0</ele><time>2026-05-01T12:42:32.813Z</time></trkpt><trkpt lat="43.3582677" lon="13.239187"><ele>538.0</ele><time>2026-05-01T12:42:33.811Z</time></trkpt><trkpt lat="43.3583292" lon="13.2392135"><ele>537.0</ele><time>2026-05-01T12:42:34.812Z</time></trkpt><trkpt lat="43.3583939" lon="13.2392172"><ele>536.0</ele><time>2026-05-01T12:42:35.812Z</time></trkpt><trkpt lat="43.3585279" lon="13.2392328"><ele>536.0</ele><time>2026-05-01T12:42:37.812Z</time></trkpt><trkpt lat="43.3586048" lon="13.2392618"><ele>536.0</ele><time>2026-05-01T12:42:38.812Z</time></trkpt><trkpt lat="43.3586803" lon="13.2393142"><ele>536.0</ele><time>2026-05-01T12:42:39.812Z</time></trkpt><trkpt lat="43.3587535" lon="13.2393804"><ele>536.0</ele><time>2026-05-01T12:42:40.811Z</time></trkpt><trkpt lat="43.3588316" lon="13.2394464"><ele>536.0</ele><time>2026-05-01T12:42:41.811Z</time></trkpt><trkpt lat="43.3589149" lon="13.2394938"><ele>536.0</ele><time>2026-05-01T12:42:42.811Z</time></trkpt><trkpt lat="43.3589992" lon="13.2395196"><ele>535.2</ele><time>2026-05-01T12:42:43.812Z</time></trkpt><trkpt lat="43.3590929" lon="13.2395585"><ele>534.4000000000001</ele><time>2026-05-01T12:42:44.812Z</time></trkpt><trkpt lat="43.3591855" lon="13.2395873"><ele>533.6</ele><time>2026-05-01T12:42:45.811Z</time></trkpt><trkpt lat="43.359274" lon="13.239624"><ele>532.8000000000001</ele><time>2026-05-01T12:42:46.812Z</time></trkpt><trkpt lat="43.3593579" lon="13.2396751"><ele>532.0</ele><time>2026-05-01T12:42:47.812Z</time></trkpt><trkpt lat="43.3594366" lon="13.2397512"><ele>529.5</ele><time>2026-05-01T12:42:48.812Z</time></trkpt><trkpt lat="43.3595091" lon="13.2398178"><ele>527.0</ele><time>2026-05-01T12:42:49.811Z</time></trkpt><trkpt lat="43.3595646" lon="13.2399068"><ele>524.5</ele><time>2026-05-01T12:42:50.812Z</time></trkpt><trkpt lat="43.3596115" lon="13.2400045"><ele>522.0</ele><time>2026-05-01T12:42:51.81Z</time></trkpt><trkpt lat="43.3596506" lon="13.2401087"><ele>519.5</ele><time>2026-05-01T12:42:52.811Z</time></trkpt><trkpt lat="43.3596884" lon="13.2402147"><ele>517.0</ele><time>2026-05-01T12:42:53.81Z</time></trkpt><trkpt lat="43.3597314" lon="13.2403253"><ele>517.0</ele><time>2026-05-01T12:42:54.812Z</time></trkpt><trkpt lat="43.3597796" lon="13.240439"><ele>517.0</ele><time>2026-05-01T12:42:55.81Z</time></trkpt><trkpt lat="43.3598303" lon="13.2405566"><ele>517.0</ele><time>2026-05-01T12:42:56.811Z</time></trkpt><trkpt lat="43.3598781" lon="13.2406722"><ele>517.0</ele><time>2026-05-01T12:42:57.81Z</time></trkpt><trkpt lat="43.359921" lon="13.2407845"><ele>517.0</ele><time>2026-05-01T12:42:58.811Z</time></trkpt><trkpt lat="43.3599591" lon="13.2408995"><ele>514.0</ele><time>2026-05-01T12:42:59.811Z</time></trkpt><trkpt lat="43.3599724" lon="13.2410232"><ele>511.00000000000006</ele><time>2026-05-01T12:43:00.811Z</time></trkpt><trkpt lat="43.3599734" lon="13.2411539"><ele>508.00000000000006</ele><time>2026-05-01T12:43:01.811Z</time></trkpt><trkpt lat="43.3599729" lon="13.2412847"><ele>505.0</ele><time>2026-05-01T12:43:02.81Z</time></trkpt><trkpt lat="43.3599644" lon="13.2414153"><ele>502.0</ele><time>2026-05-01T12:43:03.81Z</time></trkpt><trkpt lat="43.3599577" lon="13.2415485"><ele>499.8</ele><time>2026-05-01T12:43:04.811Z</time></trkpt><trkpt lat="43.3599443" lon="13.2416836"><ele>497.6</ele><time>2026-05-01T12:43:05.811Z</time></trkpt><trkpt lat="43.3599348" lon="13.2418156"><ele>495.40000000000003</ele><time>2026-05-01T12:43:06.811Z</time></trkpt><trkpt lat="43.3599294" lon="13.2419428"><ele>493.20000000000005</ele><time>2026-05-01T12:43:07.811Z</time></trkpt><trkpt lat="43.3599203" lon="13.2420619"><ele>491.0</ele><time>2026-05-01T12:43:08.811Z</time></trkpt><trkpt lat="43.3599112" lon="13.2421712"><ele>491.0</ele><time>2026-05-01T12:43:09.81Z</time></trkpt><trkpt lat="43.3599086" lon="13.2422601"><ele>491.0</ele><time>2026-05-01T12:43:10.811Z</time></trkpt><trkpt lat="43.3599506" lon="13.2423891"><ele>491.0</ele><time>2026-05-01T12:43:12.81Z</time></trkpt><trkpt lat="43.3600478" lon="13.2424458"><ele>491.0</ele><time>2026-05-01T12:43:14.81Z</time></trkpt><trkpt lat="43.3601766" lon="13.2424456"><ele>491.0</ele><time>2026-05-01T12:43:16.811Z</time></trkpt><trkpt lat="43.3602483" lon="13.2424381"><ele>489.49999999999994</ele><time>2026-05-01T12:43:17.81Z</time></trkpt><trkpt lat="43.3603247" lon="13.2424173"><ele>488.0</ele><time>2026-05-01T12:43:18.81Z</time></trkpt><trkpt lat="43.3604077" lon="13.2423952"><ele>486.5</ele><time>2026-05-01T12:43:19.811Z</time></trkpt><trkpt lat="43.3604935" lon="13.2423728"><ele>485.0</ele><time>2026-05-01T12:43:20.81Z</time></trkpt><trkpt lat="43.3605815" lon="13.2423531"><ele>483.49999999999994</ele><time>2026-05-01T12:43:21.81Z</time></trkpt><trkpt lat="43.3606674" lon="13.2423347"><ele>482.0</ele><time>2026-05-01T12:43:22.812Z</time></trkpt><trkpt lat="43.3607567" lon="13.2423133"><ele>483.3333333333333</ele><time>2026-05-01T12:43:23.811Z</time></trkpt><trkpt lat="43.3608438" lon="13.2422907"><ele>484.66666666666663</ele><time>2026-05-01T12:43:24.812Z</time></trkpt><trkpt lat="43.360929" lon="13.242265"><ele>486.0</ele><time>2026-05-01T12:43:25.811Z</time></trkpt><trkpt lat="43.361019" lon="13.2422415"><ele>487.33333333333337</ele><time>2026-05-01T12:43:26.812Z</time></trkpt><trkpt lat="43.3611066" lon="13.2422149"><ele>488.6666666666667</ele><time>2026-05-01T12:43:27.811Z</time></trkpt><trkpt lat="43.36119" lon="13.242193"><ele>490.0</ele><time>2026-05-01T12:43:28.81Z</time></trkpt><trkpt lat="43.3612761" lon="13.2421759"><ele>489.1666666666667</ele><time>2026-05-01T12:43:29.81Z</time></trkpt><trkpt lat="43.3613682" lon="13.2421693"><ele>488.33333333333337</ele><time>2026-05-01T12:43:30.811Z</time></trkpt><trkpt lat="43.3614567" lon="13.2421736"><ele>487.5</ele><time>2026-05-01T12:43:31.811Z</time></trkpt><trkpt lat="43.3615475" lon="13.2421773"><ele>486.66666666666663</ele><time>2026-05-01T12:43:32.811Z</time></trkpt><trkpt lat="43.3616369" lon="13.2421788"><ele>485.8333333333333</ele><time>2026-05-01T12:43:33.811Z</time></trkpt><trkpt lat="43.3617241" lon="13.2421844"><ele>485.0</ele><time>2026-05-01T12:43:34.811Z</time></trkpt><trkpt lat="43.3618079" lon="13.242192"><ele>484.99999999999994</ele><time>2026-05-01T12:43:35.81Z</time></trkpt><trkpt lat="43.3618959" lon="13.2421982"><ele>485.0</ele><time>2026-05-01T12:43:36.811Z</time></trkpt><trkpt lat="43.361981" lon="13.2421995"><ele>485.0</ele><time>2026-05-01T12:43:37.811Z</time></trkpt><trkpt lat="43.362066" lon="13.2421962"><ele>485.0</ele><time>2026-05-01T12:43:38.811Z</time></trkpt><trkpt lat="43.3621517" lon="13.2421925"><ele>484.99999999999994</ele><time>2026-05-01T12:43:39.81Z</time></trkpt><trkpt lat="43.3622383" lon="13.2421824"><ele>485.0</ele><time>2026-05-01T12:43:40.81Z</time></trkpt><trkpt lat="43.362321" lon="13.2421698"><ele>484.0</ele><time>2026-05-01T12:43:41.811Z</time></trkpt><trkpt lat="43.3623973" lon="13.2421479"><ele>483.0</ele><time>2026-05-01T12:43:42.81Z</time></trkpt><trkpt lat="43.3624717" lon="13.2421167"><ele>482.0</ele><time>2026-05-01T12:43:43.81Z</time></trkpt><trkpt lat="43.362536" lon="13.2420798"><ele>481.0</ele><time>2026-05-01T12:43:44.811Z</time></trkpt><trkpt lat="43.3626362" lon="13.2419982"><ele>480.0</ele><time>2026-05-01T12:43:46.81Z</time></trkpt><trkpt lat="43.3627356" lon="13.2419191"><ele>480.0</ele><time>2026-05-01T12:43:48.81Z</time></trkpt><trkpt lat="43.3627945" lon="13.2418829"><ele>480.0</ele><time>2026-05-01T12:43:49.81Z</time></trkpt><trkpt lat="43.3628565" lon="13.2418487"><ele>480.0</ele><time>2026-05-01T12:43:50.811Z</time></trkpt><trkpt lat="43.3629241" lon="13.2418151"><ele>480.0</ele><time>2026-05-01T12:43:51.812Z</time></trkpt><trkpt lat="43.3629947" lon="13.2417811"><ele>480.0</ele><time>2026-05-01T12:43:52.811Z</time></trkpt><trkpt lat="43.363065" lon="13.2417419"><ele>480.0</ele><time>2026-05-01T12:43:53.811Z</time></trkpt><trkpt lat="43.3631357" lon="13.2417051"><ele>480.0</ele><time>2026-05-01T12:43:54.81Z</time></trkpt><trkpt lat="43.3632048" lon="13.2416713"><ele>478.0</ele><time>2026-05-01T12:43:55.812Z</time></trkpt><trkpt lat="43.3632743" lon="13.2416365"><ele>476.0</ele><time>2026-05-01T12:43:56.811Z</time></trkpt><trkpt lat="43.3633428" lon="13.2416072"><ele>474.0</ele><time>2026-05-01T12:43:57.81Z</time></trkpt><trkpt lat="43.3634118" lon="13.2415782"><ele>472.0</ele><time>2026-05-01T12:43:58.81Z</time></trkpt><trkpt lat="43.3634829" lon="13.2415424"><ele>470.0</ele><time>2026-05-01T12:43:59.811Z</time></trkpt><trkpt lat="43.3635596" lon="13.2415034"><ele>468.0</ele><time>2026-05-01T12:44:00.81Z</time></trkpt><trkpt lat="43.3636376" lon="13.2414706"><ele>466.79999999999995</ele><time>2026-05-01T12:44:01.811Z</time></trkpt><trkpt lat="43.3637199" lon="13.2414396"><ele>465.59999999999997</ele><time>2026-05-01T12:44:02.81Z</time></trkpt><trkpt lat="43.363804" lon="13.2413975"><ele>464.40000000000003</ele><time>2026-05-01T12:44:03.811Z</time></trkpt><trkpt lat="43.3638921" lon="13.2413623"><ele>463.20000000000005</ele><time>2026-05-01T12:44:04.81Z</time></trkpt><trkpt lat="43.3639822" lon="13.2413263"><ele>462.0</ele><time>2026-05-01T12:44:05.811Z</time></trkpt><trkpt lat="43.3640686" lon="13.2412838"><ele>459.20000000000005</ele><time>2026-05-01T12:44:06.811Z</time></trkpt><trkpt lat="43.3641535" lon="13.2412454"><ele>456.40000000000003</ele><time>2026-05-01T12:44:07.811Z</time></trkpt><trkpt lat="43.36424" lon="13.2412077"><ele>453.59999999999997</ele><time>2026-05-01T12:44:08.811Z</time></trkpt><trkpt lat="43.3643269" lon="13.2411669"><ele>450.79999999999995</ele><time>2026-05-01T12:44:09.811Z</time></trkpt><trkpt lat="43.3644157" lon="13.2411309"><ele>448.0</ele><time>2026-05-01T12:44:10.811Z</time></trkpt><trkpt lat="43.3645047" lon="13.2410908"><ele>448.0</ele><time>2026-05-01T12:44:11.811Z</time></trkpt><trkpt lat="43.3645941" lon="13.2410529"><ele>447.99999999999994</ele><time>2026-05-01T12:44:12.811Z</time></trkpt><trkpt lat="43.3646832" lon="13.2410105"><ele>447.99999999999994</ele><time>2026-05-01T12:44:13.81Z</time></trkpt><trkpt lat="43.3647646" lon="13.2409846"><ele>448.0</ele><time>2026-05-01T12:44:14.81Z</time></trkpt><trkpt lat="43.3648543" lon="13.2409437"><ele>448.0</ele><time>2026-05-01T12:44:15.811Z</time></trkpt><trkpt lat="43.364944" lon="13.24091"><ele>446.00000000000006</ele><time>2026-05-01T12:44:16.81Z</time></trkpt><trkpt lat="43.3650283" lon="13.2408702"><ele>444.0</ele><time>2026-05-01T12:44:17.81Z</time></trkpt><trkpt lat="43.3651105" lon="13.240836"><ele>442.0</ele><time>2026-05-01T12:44:18.81Z</time></trkpt><trkpt lat="43.3651903" lon="13.2408064"><ele>440.0</ele><time>2026-05-01T12:44:19.811Z</time></trkpt><trkpt lat="43.3652759" lon="13.2407732"><ele>438.00000000000006</ele><time>2026-05-01T12:44:20.811Z</time></trkpt><trkpt lat="43.3653646" lon="13.240735"><ele>436.0</ele><time>2026-05-01T12:44:21.81Z</time></trkpt><trkpt lat="43.3654555" lon="13.240704"><ele>434.1666666666667</ele><time>2026-05-01T12:44:22.811Z</time></trkpt><trkpt lat="43.3655446" lon="13.2406725"><ele>432.33333333333337</ele><time>2026-05-01T12:44:23.81Z</time></trkpt><trkpt lat="43.3656274" lon="13.240639"><ele>430.5</ele><time>2026-05-01T12:44:24.811Z</time></trkpt><trkpt lat="43.3657093" lon="13.240607"><ele>428.66666666666663</ele><time>2026-05-01T12:44:25.81Z</time></trkpt><trkpt lat="43.365789" lon="13.2405784"><ele>426.8333333333333</ele><time>2026-05-01T12:44:26.81Z</time></trkpt><trkpt lat="43.3658658" lon="13.2405538"><ele>425.0</ele><time>2026-05-01T12:44:27.812Z</time></trkpt><trkpt lat="43.3659422" lon="13.2405277"><ele>424.99999999999994</ele><time>2026-05-01T12:44:28.811Z</time></trkpt><trkpt lat="43.3660218" lon="13.2405032"><ele>425.0</ele><time>2026-05-01T12:44:29.811Z</time></trkpt><trkpt lat="43.3661035" lon="13.2404817"><ele>425.0</ele><time>2026-05-01T12:44:30.811Z</time></trkpt><trkpt lat="43.3661768" lon="13.2404563"><ele>425.0</ele><time>2026-05-01T12:44:31.811Z</time></trkpt><trkpt lat="43.3662532" lon="13.2404322"><ele>424.99999999999994</ele><time>2026-05-01T12:44:32.81Z</time></trkpt><trkpt lat="43.3663359" lon="13.240412"><ele>425.0</ele><time>2026-05-01T12:44:33.811Z</time></trkpt><trkpt lat="43.3664213" lon="13.240392"><ele>422.6</ele><time>2026-05-01T12:44:34.811Z</time></trkpt><trkpt lat="43.3664971" lon="13.2403724"><ele>420.2</ele><time>2026-05-01T12:44:35.811Z</time></trkpt><trkpt lat="43.3665731" lon="13.2403575"><ele>417.79999999999995</ele><time>2026-05-01T12:44:36.81Z</time></trkpt><trkpt lat="43.3666386" lon="13.2403352"><ele>415.4</ele><time>2026-05-01T12:44:37.81Z</time></trkpt><trkpt lat="43.366753" lon="13.2402742"><ele>413.0</ele><time>2026-05-01T12:44:39.811Z</time></trkpt><trkpt lat="43.3668509" lon="13.2402011"><ele>413.0</ele><time>2026-05-01T12:44:41.811Z</time></trkpt><trkpt lat="43.3669354" lon="13.2401243"><ele>413.0</ele><time>2026-05-01T12:44:43.811Z</time></trkpt><trkpt lat="43.367012" lon="13.2400382"><ele>413.0</ele><time>2026-05-01T12:44:45.811Z</time></trkpt><trkpt lat="43.3671027" lon="13.2399507"><ele>413.0</ele><time>2026-05-01T12:44:47.81Z</time></trkpt><trkpt lat="43.3672009" lon="13.2398637"><ele>413.0</ele><time>2026-05-01T12:44:49.81Z</time></trkpt><trkpt lat="43.3673096" lon="13.2397812"><ele>411.2</ele><time>2026-05-01T12:44:51.812Z</time></trkpt><trkpt lat="43.3674183" lon="13.2397136"><ele>409.4</ele><time>2026-05-01T12:44:53.811Z</time></trkpt><trkpt lat="43.3675376" lon="13.2396891"><ele>407.59999999999997</ele><time>2026-05-01T12:44:55.811Z</time></trkpt><trkpt lat="43.3676547" lon="13.2397423"><ele>405.79999999999995</ele><time>2026-05-01T12:44:57.81Z</time></trkpt><trkpt lat="43.3677053" lon="13.2397984"><ele>404.0</ele><time>2026-05-01T12:44:58.811Z</time></trkpt><trkpt lat="43.3677743" lon="13.2399411"><ele>404.0</ele><time>2026-05-01T12:45:00.812Z</time></trkpt><trkpt lat="43.3678205" lon="13.2400896"><ele>404.0</ele><time>2026-05-01T12:45:02.811Z</time></trkpt><trkpt lat="43.3678646" lon="13.2402287"><ele>404.0</ele><time>2026-05-01T12:45:04.811Z</time></trkpt><trkpt lat="43.3679016" lon="13.2403606"><ele>404.0</ele><time>2026-05-01T12:45:06.811Z</time></trkpt><trkpt lat="43.367944" lon="13.2404916"><ele>404.0</ele><time>2026-05-01T12:45:08.811Z</time></trkpt><trkpt lat="43.3679901" lon="13.2406233"><ele>405.6</ele><time>2026-05-01T12:45:10.811Z</time></trkpt><trkpt lat="43.3680628" lon="13.2407304"><ele>407.2</ele><time>2026-05-01T12:45:12.81Z</time></trkpt><trkpt lat="43.368145" lon="13.240806"><ele>408.8</ele><time>2026-05-01T12:45:14.81Z</time></trkpt><trkpt lat="43.368235" lon="13.240864"><ele>410.40000000000003</ele><time>2026-05-01T12:45:16.811Z</time></trkpt><trkpt lat="43.368335" lon="13.2409088"><ele>412.0</ele><time>2026-05-01T12:45:18.811Z</time></trkpt><trkpt lat="43.368431" lon="13.2409135"><ele>412.0</ele><time>2026-05-01T12:45:20.811Z</time></trkpt><trkpt lat="43.3685257" lon="13.2408869"><ele>412.0</ele><time>2026-05-01T12:45:22.81Z</time></trkpt><trkpt lat="43.3686238" lon="13.2408179"><ele>412.0</ele><time>2026-05-01T12:45:24.812Z</time></trkpt><trkpt lat="43.3687177" lon="13.2407259"><ele>412.0</ele><time>2026-05-01T12:45:26.811Z</time></trkpt><trkpt lat="43.3688103" lon="13.2406121"><ele>412.0</ele><time>2026-05-01T12:45:28.81Z</time></trkpt><trkpt lat="43.3689048" lon="13.2405113"><ele>411.8</ele><time>2026-05-01T12:45:30.811Z</time></trkpt><trkpt lat="43.3690042" lon="13.240425"><ele>411.6</ele><time>2026-05-01T12:45:32.81Z</time></trkpt><trkpt lat="43.3691022" lon="13.2403637"><ele>411.40000000000003</ele><time>2026-05-01T12:45:34.811Z</time></trkpt><trkpt lat="43.3691977" lon="13.2404005"><ele>411.20000000000005</ele><time>2026-05-01T12:45:36.811Z</time></trkpt><trkpt lat="43.3692724" lon="13.2404968"><ele>411.0</ele><time>2026-05-01T12:45:38.81Z</time></trkpt><trkpt lat="43.3693492" lon="13.240625"><ele>410.20000000000005</ele><time>2026-05-01T12:45:40.812Z</time></trkpt><trkpt lat="43.3694251" lon="13.2407572"><ele>409.40000000000003</ele><time>2026-05-01T12:45:42.811Z</time></trkpt><trkpt lat="43.3694646" lon="13.2408258"><ele>408.6</ele><time>2026-05-01T12:45:43.811Z</time></trkpt><trkpt lat="43.369538" lon="13.2409577"><ele>407.8</ele><time>2026-05-01T12:45:45.81Z</time></trkpt><trkpt lat="43.3696103" lon="13.2410811"><ele>407.0</ele><time>2026-05-01T12:45:47.811Z</time></trkpt><trkpt lat="43.3696567" lon="13.2412236"><ele>407.0</ele><time>2026-05-01T12:45:49.81Z</time></trkpt><trkpt lat="43.3696589" lon="13.2413849"><ele>407.0</ele><time>2026-05-01T12:45:51.811Z</time></trkpt><trkpt lat="43.3696751" lon="13.24155"><ele>407.0</ele><time>2026-05-01T12:45:53.811Z</time></trkpt><trkpt lat="43.3696965" lon="13.2416378"><ele>407.0</ele><time>2026-05-01T12:45:54.811Z</time></trkpt><trkpt lat="43.3697264" lon="13.2417306"><ele>407.0</ele><time>2026-05-01T12:45:55.811Z</time></trkpt><trkpt lat="43.3697563" lon="13.2418262"><ele>403.3333333333333</ele><time>2026-05-01T12:45:56.81Z</time></trkpt><trkpt lat="43.3697889" lon="13.2419216"><ele>399.66666666666663</ele><time>2026-05-01T12:45:57.81Z</time></trkpt><trkpt lat="43.369822" lon="13.2420194"><ele>396.0</ele><time>2026-05-01T12:45:58.81Z</time></trkpt><trkpt lat="43.3698571" lon="13.2421202"><ele>392.33333333333337</ele><time>2026-05-01T12:45:59.811Z</time></trkpt><trkpt lat="43.3698897" lon="13.2422188"><ele>388.6666666666667</ele><time>2026-05-01T12:46:00.81Z</time></trkpt><trkpt lat="43.369921" lon="13.2423136"><ele>385.0</ele><time>2026-05-01T12:46:01.811Z</time></trkpt><trkpt lat="43.3699473" lon="13.2424069"><ele>383.50000000000006</ele><time>2026-05-01T12:46:02.812Z</time></trkpt><trkpt lat="43.3699742" lon="13.242494"><ele>382.0</ele><time>2026-05-01T12:46:03.811Z</time></trkpt><trkpt lat="43.3699994" lon="13.2425801"><ele>380.5</ele><time>2026-05-01T12:46:04.81Z</time></trkpt><trkpt lat="43.3700252" lon="13.2426607"><ele>379.0</ele><time>2026-05-01T12:46:05.811Z</time></trkpt><trkpt lat="43.3700677" lon="13.2427847"><ele>377.5</ele><time>2026-05-01T12:46:07.81Z</time></trkpt><trkpt lat="43.3701337" lon="13.2428588"><ele>376.0</ele><time>2026-05-01T12:46:09.811Z</time></trkpt><trkpt lat="43.3702217" lon="13.2428749"><ele>376.0</ele><time>2026-05-01T12:46:11.811Z</time></trkpt><trkpt lat="43.3703184" lon="13.2428878"><ele>376.0</ele><time>2026-05-01T12:46:13.811Z</time></trkpt><trkpt lat="43.370407" lon="13.2428838"><ele>376.0</ele><time>2026-05-01T12:46:15.81Z</time></trkpt><trkpt lat="43.3705005" lon="13.2428743"><ele>376.0</ele><time>2026-05-01T12:46:17.811Z</time></trkpt><trkpt lat="43.3705854" lon="13.2428537"><ele>376.0</ele><time>2026-05-01T12:46:19.811Z</time></trkpt><trkpt lat="43.370674" lon="13.2428148"><ele>374.3333333333333</ele><time>2026-05-01T12:46:21.811Z</time></trkpt><trkpt lat="43.3707558" lon="13.2427714"><ele>372.66666666666663</ele><time>2026-05-01T12:46:23.812Z</time></trkpt><trkpt lat="43.370826" lon="13.2427235"><ele>371.0</ele><time>2026-05-01T12:46:25.811Z</time></trkpt><trkpt lat="43.3708952" lon="13.2426727"><ele>369.3333333333333</ele><time>2026-05-01T12:46:27.811Z</time></trkpt><trkpt lat="43.3709743" lon="13.2426137"><ele>367.6666666666667</ele><time>2026-05-01T12:46:30.811Z</time></trkpt><trkpt lat="43.3710585" lon="13.2425702"><ele>366.0</ele><time>2026-05-01T12:46:33.811Z</time></trkpt><trkpt lat="43.3711329" lon="13.2425707"><ele>366.0</ele><time>2026-05-01T12:46:35.811Z</time></trkpt><trkpt lat="43.3712171" lon="13.2426272"><ele>366.0</ele><time>2026-05-01T12:46:37.81Z</time></trkpt><trkpt lat="43.3712875" lon="13.2427174"><ele>366.0</ele><time>2026-05-01T12:46:39.81Z</time></trkpt><trkpt lat="43.3713427" lon="13.2428119"><ele>366.0</ele><time>2026-05-01T12:46:41.811Z</time></trkpt><trkpt lat="43.3713923" lon="13.2429093"><ele>366.0</ele><time>2026-05-01T12:46:43.811Z</time></trkpt><trkpt lat="43.3714458" lon="13.242995"><ele>366.0</ele><time>2026-05-01T12:46:45.811Z</time></trkpt><trkpt lat="43.3715129" lon="13.2430782"><ele>363.8</ele><time>2026-05-01T12:46:47.81Z</time></trkpt><trkpt lat="43.3716049" lon="13.2431455"><ele>361.6</ele><time>2026-05-01T12:46:49.811Z</time></trkpt><trkpt lat="43.3717056" lon="13.2431836"><ele>359.4</ele><time>2026-05-01T12:46:51.81Z</time></trkpt><trkpt lat="43.3718184" lon="13.243191"><ele>357.2</ele><time>2026-05-01T12:46:53.811Z</time></trkpt><trkpt lat="43.3719187" lon="13.2432188"><ele>355.0</ele><time>2026-05-01T12:46:55.81Z</time></trkpt><trkpt lat="43.3719883" lon="13.243302"><ele>355.0</ele><time>2026-05-01T12:46:57.81Z</time></trkpt><trkpt lat="43.3719972" lon="13.2434099"><ele>355.0</ele><time>2026-05-01T12:46:59.811Z</time></trkpt><trkpt lat="43.372001" lon="13.2435401"><ele>355.0</ele><time>2026-05-01T12:47:01.811Z</time></trkpt><trkpt lat="43.3720193" lon="13.2436751"><ele>355.0</ele><time>2026-05-01T12:47:03.811Z</time></trkpt><trkpt lat="43.3720502" lon="13.2438256"><ele>355.0</ele><time>2026-05-01T12:47:05.811Z</time></trkpt><trkpt lat="43.3720705" lon="13.2439853"><ele>354.0</ele><time>2026-05-01T12:47:07.81Z</time></trkpt><trkpt lat="43.3721002" lon="13.2441393"><ele>353.0</ele><time>2026-05-01T12:47:09.81Z</time></trkpt><trkpt lat="43.3721453" lon="13.2442883"><ele>352.0</ele><time>2026-05-01T12:47:11.81Z</time></trkpt><trkpt lat="43.3722099" lon="13.2444262"><ele>351.0</ele><time>2026-05-01T12:47:13.811Z</time></trkpt><trkpt lat="43.3722912" lon="13.2445592"><ele>349.8333333333333</ele><time>2026-05-01T12:47:15.81Z</time></trkpt><trkpt lat="43.3723425" lon="13.2446253"><ele>348.6666666666667</ele><time>2026-05-01T12:47:16.811Z</time></trkpt><trkpt lat="43.3723982" lon="13.2446903"><ele>347.5</ele><time>2026-05-01T12:47:17.811Z</time></trkpt><trkpt lat="43.3724619" lon="13.2447487"><ele>346.33333333333337</ele><time>2026-05-01T12:47:18.81Z</time></trkpt><trkpt lat="43.3725314" lon="13.2448034"><ele>345.1666666666667</ele><time>2026-05-01T12:47:19.81Z</time></trkpt><trkpt lat="43.3726045" lon="13.2448531"><ele>344.0</ele><time>2026-05-01T12:47:20.811Z</time></trkpt><trkpt lat="43.3726791" lon="13.2448976"><ele>342.83333333333337</ele><time>2026-05-01T12:47:21.811Z</time></trkpt><trkpt lat="43.3727587" lon="13.244943"><ele>341.6666666666667</ele><time>2026-05-01T12:47:22.811Z</time></trkpt><trkpt lat="43.3728343" lon="13.244991"><ele>340.5</ele><time>2026-05-01T12:47:23.811Z</time></trkpt><trkpt lat="43.3729136" lon="13.2450393"><ele>339.3333333333333</ele><time>2026-05-01T12:47:24.811Z</time></trkpt><trkpt lat="43.3729927" lon="13.2450847"><ele>338.16666666666663</ele><time>2026-05-01T12:47:25.81Z</time></trkpt><trkpt lat="43.3730718" lon="13.2451334"><ele>337.0</ele><time>2026-05-01T12:47:26.811Z</time></trkpt><trkpt lat="43.3731515" lon="13.2451823"><ele>334.8333333333333</ele><time>2026-05-01T12:47:27.81Z</time></trkpt><trkpt lat="43.3732331" lon="13.2452306"><ele>332.66666666666663</ele><time>2026-05-01T12:47:28.811Z</time></trkpt><trkpt lat="43.3733148" lon="13.2452776"><ele>330.5</ele><time>2026-05-01T12:47:29.81Z</time></trkpt><trkpt lat="43.373397" lon="13.2453254"><ele>328.3333333333333</ele><time>2026-05-01T12:47:30.811Z</time></trkpt><trkpt lat="43.3734744" lon="13.2453792"><ele>326.1666666666667</ele><time>2026-05-01T12:47:31.81Z</time></trkpt><trkpt lat="43.3735514" lon="13.2454292"><ele>324.0</ele><time>2026-05-01T12:47:32.81Z</time></trkpt><trkpt lat="43.373626" lon="13.2454849"><ele>324.0</ele><time>2026-05-01T12:47:33.811Z</time></trkpt><trkpt lat="43.3736913" lon="13.2455558"><ele>324.0</ele><time>2026-05-01T12:47:34.811Z</time></trkpt><trkpt lat="43.3737501" lon="13.2456394"><ele>324.0</ele><time>2026-05-01T12:47:35.81Z</time></trkpt><trkpt lat="43.3738046" lon="13.2457218"><ele>324.0</ele><time>2026-05-01T12:47:36.811Z</time></trkpt><trkpt lat="43.3738573" lon="13.245806"><ele>324.0</ele><time>2026-05-01T12:47:37.81Z</time></trkpt><trkpt lat="43.3739091" lon="13.2458919"><ele>324.0</ele><time>2026-05-01T12:47:38.811Z</time></trkpt><trkpt lat="43.3739594" lon="13.2459873"><ele>323.2</ele><time>2026-05-01T12:47:39.811Z</time></trkpt><trkpt lat="43.3740084" lon="13.2460896"><ele>322.4</ele><time>2026-05-01T12:47:40.811Z</time></trkpt><trkpt lat="43.3740545" lon="13.2462001"><ele>321.6</ele><time>2026-05-01T12:47:41.811Z</time></trkpt><trkpt lat="43.3740985" lon="13.2463119"><ele>320.8</ele><time>2026-05-01T12:47:42.81Z</time></trkpt><trkpt lat="43.3741403" lon="13.2464248"><ele>320.0</ele><time>2026-05-01T12:47:43.81Z</time></trkpt><trkpt lat="43.3741788" lon="13.2465402"><ele>320.0</ele><time>2026-05-01T12:47:44.81Z</time></trkpt><trkpt lat="43.3742235" lon="13.2466567"><ele>320.0</ele><time>2026-05-01T12:47:45.811Z</time></trkpt><trkpt lat="43.3742768" lon="13.2467841"><ele>320.0</ele><time>2026-05-01T12:47:46.811Z</time></trkpt><trkpt lat="43.3743334" lon="13.2469134"><ele>320.0</ele><time>2026-05-01T12:47:47.811Z</time></trkpt><trkpt lat="43.3743889" lon="13.2470388"><ele>320.0</ele><time>2026-05-01T12:47:48.811Z</time></trkpt><trkpt lat="43.3744369" lon="13.24717"><ele>320.4</ele><time>2026-05-01T12:47:49.811Z</time></trkpt><trkpt lat="43.3744806" lon="13.2473017"><ele>320.8</ele><time>2026-05-01T12:47:50.811Z</time></trkpt><trkpt lat="43.3745235" lon="13.2474334"><ele>321.20000000000005</ele><time>2026-05-01T12:47:51.81Z</time></trkpt><trkpt lat="43.3745627" lon="13.2475649"><ele>321.6</ele><time>2026-05-01T12:47:52.811Z</time></trkpt><trkpt lat="43.3745986" lon="13.2476963"><ele>322.0</ele><time>2026-05-01T12:47:53.811Z</time></trkpt><trkpt lat="43.3746302" lon="13.247821"><ele>322.0</ele><time>2026-05-01T12:47:54.811Z</time></trkpt><trkpt lat="43.3746611" lon="13.2479461"><ele>322.0</ele><time>2026-05-01T12:47:55.811Z</time></trkpt><trkpt lat="43.3746898" lon="13.2480654"><ele>322.0</ele><time>2026-05-01T12:47:56.811Z</time></trkpt><trkpt lat="43.3747154" lon="13.2481872"><ele>322.0</ele><time>2026-05-01T12:47:57.81Z</time></trkpt><trkpt lat="43.3747302" lon="13.2483149"><ele>322.0</ele><time>2026-05-01T12:47:58.811Z</time></trkpt><trkpt lat="43.3747274" lon="13.2484405"><ele>320.6</ele><time>2026-05-01T12:47:59.811Z</time></trkpt><trkpt lat="43.3747076" lon="13.2485729"><ele>319.20000000000005</ele><time>2026-05-01T12:48:00.81Z</time></trkpt><trkpt lat="43.3746735" lon="13.2487033"><ele>317.8</ele><time>2026-05-01T12:48:01.811Z</time></trkpt><trkpt lat="43.3746432" lon="13.2488392"><ele>316.4</ele><time>2026-05-01T12:48:02.811Z</time></trkpt><trkpt lat="43.3746314" lon="13.2489816"><ele>315.0</ele><time>2026-05-01T12:48:03.81Z</time></trkpt><trkpt lat="43.3746374" lon="13.249128"><ele>312.2</ele><time>2026-05-01T12:48:04.81Z</time></trkpt><trkpt lat="43.3746504" lon="13.2492797"><ele>309.4</ele><time>2026-05-01T12:48:05.81Z</time></trkpt><trkpt lat="43.3746626" lon="13.2494293"><ele>306.6</ele><time>2026-05-01T12:48:06.811Z</time></trkpt><trkpt lat="43.3746755" lon="13.24958"><ele>303.8</ele><time>2026-05-01T12:48:07.811Z</time></trkpt><trkpt lat="43.3746939" lon="13.2497294"><ele>301.0</ele><time>2026-05-01T12:48:08.81Z</time></trkpt><trkpt lat="43.3747186" lon="13.2498755"><ele>299.2</ele><time>2026-05-01T12:48:09.811Z</time></trkpt><trkpt lat="43.3747517" lon="13.2500011"><ele>297.40000000000003</ele><time>2026-05-01T12:48:10.811Z</time></trkpt><trkpt lat="43.3747953" lon="13.2501286"><ele>295.6</ele><time>2026-05-01T12:48:11.81Z</time></trkpt><trkpt lat="43.3748469" lon="13.2502545"><ele>293.8</ele><time>2026-05-01T12:48:12.812Z</time></trkpt><trkpt lat="43.3749128" lon="13.2503571"><ele>292.0</ele><time>2026-05-01T12:48:13.81Z</time></trkpt><trkpt lat="43.3749905" lon="13.2504601"><ele>292.0</ele><time>2026-05-01T12:48:14.811Z</time></trkpt><trkpt lat="43.3750605" lon="13.2505606"><ele>292.0</ele><time>2026-05-01T12:48:15.81Z</time></trkpt><trkpt lat="43.3751172" lon="13.2506494"><ele>292.0</ele><time>2026-05-01T12:48:16.811Z</time></trkpt><trkpt lat="43.3751915" lon="13.2507452"><ele>292.0</ele><time>2026-05-01T12:48:17.81Z</time></trkpt><trkpt lat="43.3752616" lon="13.2508454"><ele>292.0</ele><time>2026-05-01T12:48:18.811Z</time></trkpt><trkpt lat="43.3753254" lon="13.2509402"><ele>291.8333333333333</ele><time>2026-05-01T12:48:19.811Z</time></trkpt><trkpt lat="43.3753889" lon="13.2510285"><ele>291.66666666666663</ele><time>2026-05-01T12:48:20.811Z</time></trkpt><trkpt lat="43.3754521" lon="13.2511203"><ele>291.5</ele><time>2026-05-01T12:48:21.81Z</time></trkpt><trkpt lat="43.3755142" lon="13.2512083"><ele>291.3333333333333</ele><time>2026-05-01T12:48:22.81Z</time></trkpt><trkpt lat="43.3755744" lon="13.2512985"><ele>291.1666666666667</ele><time>2026-05-01T12:48:23.81Z</time></trkpt><trkpt lat="43.3756328" lon="13.2513839"><ele>291.0</ele><time>2026-05-01T12:48:24.81Z</time></trkpt><trkpt lat="43.3756831" lon="13.2514715"><ele>289.6666666666667</ele><time>2026-05-01T12:48:25.81Z</time></trkpt><trkpt lat="43.3757315" lon="13.2515606"><ele>288.3333333333333</ele><time>2026-05-01T12:48:26.811Z</time></trkpt><trkpt lat="43.3757732" lon="13.251655"><ele>287.0</ele><time>2026-05-01T12:48:27.811Z</time></trkpt><trkpt lat="43.3758089" lon="13.2517579"><ele>285.66666666666663</ele><time>2026-05-01T12:48:28.81Z</time></trkpt><trkpt lat="43.3758436" lon="13.2518658"><ele>284.3333333333333</ele><time>2026-05-01T12:48:29.811Z</time></trkpt><trkpt lat="43.3758741" lon="13.2519819"><ele>283.0</ele><time>2026-05-01T12:48:30.811Z</time></trkpt><trkpt lat="43.375894" lon="13.2521004"><ele>283.0</ele><time>2026-05-01T12:48:31.81Z</time></trkpt><trkpt lat="43.3759137" lon="13.252225"><ele>283.0</ele><time>2026-05-01T12:48:32.81Z</time></trkpt><trkpt lat="43.3759284" lon="13.2523606"><ele>283.0</ele><time>2026-05-01T12:48:33.811Z</time></trkpt><trkpt lat="43.3759366" lon="13.2525015"><ele>283.0</ele><time>2026-05-01T12:48:34.811Z</time></trkpt><trkpt lat="43.3759434" lon="13.2526421"><ele>283.0</ele><time>2026-05-01T12:48:35.811Z</time></trkpt><trkpt lat="43.3759435" lon="13.2527859"><ele>283.66666666666663</ele><time>2026-05-01T12:48:36.811Z</time></trkpt><trkpt lat="43.3759427" lon="13.2529245"><ele>284.3333333333333</ele><time>2026-05-01T12:48:37.811Z</time></trkpt><trkpt lat="43.3759301" lon="13.2530506"><ele>285.0</ele><time>2026-05-01T12:48:38.811Z</time></trkpt><trkpt lat="43.3759026" lon="13.2531656"><ele>285.6666666666667</ele><time>2026-05-01T12:48:39.811Z</time></trkpt><trkpt lat="43.3758638" lon="13.253256"><ele>286.33333333333337</ele><time>2026-05-01T12:48:40.81Z</time></trkpt><trkpt lat="43.3758107" lon="13.253314"><ele>287.0</ele><time>2026-05-01T12:48:41.811Z</time></trkpt><trkpt lat="43.3757439" lon="13.2533554"><ele>287.0</ele><time>2026-05-01T12:48:42.811Z</time></trkpt><trkpt lat="43.3756758" lon="13.2533763"><ele>287.0</ele><time>2026-05-01T12:48:43.81Z</time></trkpt><trkpt lat="43.3755592" lon="13.2534056"><ele>287.0</ele><time>2026-05-01T12:48:45.811Z</time></trkpt><trkpt lat="43.3754332" lon="13.2534561"><ele>287.0</ele><time>2026-05-01T12:48:47.81Z</time></trkpt><trkpt lat="43.3753696" lon="13.2534943"><ele>287.0</ele><time>2026-05-01T12:48:48.81Z</time></trkpt><trkpt lat="43.3753097" lon="13.253551"><ele>286.5</ele><time>2026-05-01T12:48:49.811Z</time></trkpt><trkpt lat="43.3752612" lon="13.2536118"><ele>286.0</ele><time>2026-05-01T12:48:50.811Z</time></trkpt><trkpt lat="43.3752145" lon="13.2536996"><ele>285.5</ele><time>2026-05-01T12:48:51.811Z</time></trkpt><trkpt lat="43.3751718" lon="13.2538168"><ele>285.0</ele><time>2026-05-01T12:48:52.811Z</time></trkpt><trkpt lat="43.3751333" lon="13.2539235"><ele>284.5</ele><time>2026-05-01T12:48:53.811Z</time></trkpt><trkpt lat="43.3750909" lon="13.254027"><ele>284.0</ele><time>2026-05-01T12:48:54.81Z</time></trkpt><trkpt lat="43.3750438" lon="13.2541358"><ele>283.5</ele><time>2026-05-01T12:48:55.812Z</time></trkpt><trkpt lat="43.375002" lon="13.2542414"><ele>283.0</ele><time>2026-05-01T12:48:56.812Z</time></trkpt><trkpt lat="43.3749653" lon="13.2543461"><ele>282.5</ele><time>2026-05-01T12:48:57.81Z</time></trkpt><trkpt lat="43.3749279" lon="13.2544512"><ele>282.0</ele><time>2026-05-01T12:48:58.811Z</time></trkpt><trkpt lat="43.374901" lon="13.2545544"><ele>281.5</ele><time>2026-05-01T12:48:59.81Z</time></trkpt><trkpt lat="43.3748843" lon="13.2546597"><ele>281.0</ele><time>2026-05-01T12:49:00.811Z</time></trkpt><trkpt lat="43.3748732" lon="13.2547642"><ele>280.14285714285717</ele><time>2026-05-01T12:49:01.811Z</time></trkpt><trkpt lat="43.3748664" lon="13.254868"><ele>279.2857142857143</ele><time>2026-05-01T12:49:02.811Z</time></trkpt><trkpt lat="43.3748658" lon="13.2549685"><ele>278.42857142857144</ele><time>2026-05-01T12:49:03.81Z</time></trkpt><trkpt lat="43.3748681" lon="13.2550661"><ele>277.57142857142856</ele><time>2026-05-01T12:49:04.812Z</time></trkpt><trkpt lat="43.3748768" lon="13.2551595"><ele>276.7142857142857</ele><time>2026-05-01T12:49:05.81Z</time></trkpt><trkpt lat="43.3748854" lon="13.2552502"><ele>275.8571428571429</ele><time>2026-05-01T12:49:06.81Z</time></trkpt><trkpt lat="43.3748918" lon="13.2553389"><ele>275.0</ele><time>2026-05-01T12:49:07.81Z</time></trkpt><trkpt lat="43.374904" lon="13.2555048"><ele>273.6666666666667</ele><time>2026-05-01T12:49:09.811Z</time></trkpt><trkpt lat="43.37492" lon="13.2556544"><ele>272.33333333333337</ele><time>2026-05-01T12:49:11.811Z</time></trkpt><trkpt lat="43.3749733" lon="13.255808"><ele>271.0</ele><time>2026-05-01T12:49:13.811Z</time></trkpt><trkpt lat="43.3750128" lon="13.2558805"><ele>269.6666666666667</ele><time>2026-05-01T12:49:14.811Z</time></trkpt><trkpt lat="43.3750526" lon="13.2559545"><ele>268.3333333333333</ele><time>2026-05-01T12:49:15.811Z</time></trkpt><trkpt lat="43.3750925" lon="13.2560343"><ele>267.0</ele><time>2026-05-01T12:49:16.811Z</time></trkpt><trkpt lat="43.3751336" lon="13.2561189"><ele>267.0</ele><time>2026-05-01T12:49:17.811Z</time></trkpt><trkpt lat="43.3751708" lon="13.2562049"><ele>267.0</ele><time>2026-05-01T12:49:18.811Z</time></trkpt><trkpt lat="43.375212" lon="13.2562932"><ele>267.0</ele><time>2026-05-01T12:49:19.811Z</time></trkpt><trkpt lat="43.3752534" lon="13.2563823"><ele>267.0</ele><time>2026-05-01T12:49:20.81Z</time></trkpt><trkpt lat="43.3752918" lon="13.2564691"><ele>267.0</ele><time>2026-05-01T12:49:21.811Z</time></trkpt><trkpt lat="43.3753321" lon="13.2565614"><ele>267.0</ele><time>2026-05-01T12:49:22.81Z</time></trkpt><trkpt lat="43.375372" lon="13.2566527"><ele>265.8333333333333</ele><time>2026-05-01T12:49:23.81Z</time></trkpt><trkpt lat="43.3754176" lon="13.2567447"><ele>264.6666666666667</ele><time>2026-05-01T12:49:24.811Z</time></trkpt><trkpt lat="43.3754568" lon="13.2568369"><ele>263.5</ele><time>2026-05-01T12:49:25.811Z</time></trkpt><trkpt lat="43.3755007" lon="13.2569317"><ele>262.33333333333337</ele><time>2026-05-01T12:49:26.811Z</time></trkpt><trkpt lat="43.375541" lon="13.2570279"><ele>261.1666666666667</ele><time>2026-05-01T12:49:27.811Z</time></trkpt><trkpt lat="43.3755821" lon="13.2571257"><ele>260.0</ele><time>2026-05-01T12:49:28.811Z</time></trkpt><trkpt lat="43.3756241" lon="13.2572228"><ele>259.28571428571433</ele><time>2026-05-01T12:49:29.811Z</time></trkpt><trkpt lat="43.3756648" lon="13.2573139"><ele>258.57142857142856</ele><time>2026-05-01T12:49:30.81Z</time></trkpt><trkpt lat="43.3757118" lon="13.2574041"><ele>257.8571428571429</ele><time>2026-05-01T12:49:31.81Z</time></trkpt><trkpt lat="43.375758" lon="13.2574871"><ele>257.14285714285717</ele><time>2026-05-01T12:49:32.811Z</time></trkpt><trkpt lat="43.3757957" lon="13.2575737"><ele>256.42857142857144</ele><time>2026-05-01T12:49:33.811Z</time></trkpt><trkpt lat="43.3758307" lon="13.2576586"><ele>255.71428571428572</ele><time>2026-05-01T12:49:34.811Z</time></trkpt><trkpt lat="43.375868" lon="13.2577337"><ele>255.0</ele><time>2026-05-01T12:49:35.811Z</time></trkpt><trkpt lat="43.3759028" lon="13.2578093"><ele>255.0</ele><time>2026-05-01T12:49:36.81Z</time></trkpt><trkpt lat="43.3759308" lon="13.2579196"><ele>255.0</ele><time>2026-05-01T12:49:38.81Z</time></trkpt><trkpt lat="43.3759457" lon="13.2580532"><ele>255.0</ele><time>2026-05-01T12:49:41.811Z</time></trkpt><trkpt lat="43.3759496" lon="13.2581921"><ele>255.0</ele><time>2026-05-01T12:49:43.81Z</time></trkpt><trkpt lat="43.3759197" lon="13.2583609"><ele>255.0</ele><time>2026-05-01T12:49:45.81Z</time></trkpt><trkpt lat="43.3759042" lon="13.2584547"><ele>254.33333333333334</ele><time>2026-05-01T12:49:46.81Z</time></trkpt><trkpt lat="43.375886" lon="13.258549"><ele>253.66666666666669</ele><time>2026-05-01T12:49:47.811Z</time></trkpt><trkpt lat="43.3758709" lon="13.258648"><ele>253.0</ele><time>2026-05-01T12:49:48.811Z</time></trkpt><trkpt lat="43.3758593" lon="13.2587543"><ele>252.33333333333334</ele><time>2026-05-01T12:49:49.812Z</time></trkpt><trkpt lat="43.3758505" lon="13.2588626"><ele>251.66666666666669</ele><time>2026-05-01T12:49:50.811Z</time></trkpt><trkpt lat="43.3758493" lon="13.2589752"><ele>251.0</ele><time>2026-05-01T12:49:51.811Z</time></trkpt><trkpt lat="43.3758649" lon="13.2590844"><ele>249.8</ele><time>2026-05-01T12:49:52.81Z</time></trkpt><trkpt lat="43.3758869" lon="13.2592043"><ele>248.60000000000002</ele><time>2026-05-01T12:49:53.811Z</time></trkpt><trkpt lat="43.3759181" lon="13.2593231"><ele>247.4</ele><time>2026-05-01T12:49:54.811Z</time></trkpt><trkpt lat="43.3759475" lon="13.2594485"><ele>246.2</ele><time>2026-05-01T12:49:55.811Z</time></trkpt><trkpt lat="43.3759725" lon="13.2595689"><ele>245.0</ele><time>2026-05-01T12:49:56.81Z</time></trkpt><trkpt lat="43.3759952" lon="13.2596926"><ele>244.2</ele><time>2026-05-01T12:49:57.811Z</time></trkpt><trkpt lat="43.37602" lon="13.2598166"><ele>243.4</ele><time>2026-05-01T12:49:58.81Z</time></trkpt><trkpt lat="43.3760472" lon="13.2599399"><ele>242.60000000000002</ele><time>2026-05-01T12:49:59.811Z</time></trkpt><trkpt lat="43.3760823" lon="13.2600553"><ele>241.8</ele><time>2026-05-01T12:50:00.811Z</time></trkpt><trkpt lat="43.3761166" lon="13.2601706"><ele>241.0</ele><time>2026-05-01T12:50:01.811Z</time></trkpt><trkpt lat="43.376147" lon="13.2602833"><ele>241.0</ele><time>2026-05-01T12:50:02.81Z</time></trkpt><trkpt lat="43.3761724" lon="13.2603933"><ele>241.00000000000003</ele><time>2026-05-01T12:50:03.81Z</time></trkpt><trkpt lat="43.3761974" lon="13.260495"><ele>241.0</ele><time>2026-05-01T12:50:04.811Z</time></trkpt><trkpt lat="43.3762191" lon="13.2605918"><ele>241.0</ele><time>2026-05-01T12:50:05.811Z</time></trkpt><trkpt lat="43.3762417" lon="13.2606803"><ele>241.00000000000003</ele><time>2026-05-01T12:50:06.811Z</time></trkpt><trkpt lat="43.3762659" lon="13.2607657"><ele>241.0</ele><time>2026-05-01T12:50:07.811Z</time></trkpt><trkpt lat="43.3762899" lon="13.2608587"><ele>241.0</ele><time>2026-05-01T12:50:08.811Z</time></trkpt><trkpt lat="43.3763197" lon="13.2609488"><ele>241.33333333333331</ele><time>2026-05-01T12:50:09.811Z</time></trkpt><trkpt lat="43.3763441" lon="13.2610349"><ele>241.66666666666666</ele><time>2026-05-01T12:50:10.811Z</time></trkpt><trkpt lat="43.3763724" lon="13.2611288"><ele>242.0</ele><time>2026-05-01T12:50:11.811Z</time></trkpt><trkpt lat="43.3764071" lon="13.2612262"><ele>242.33333333333331</ele><time>2026-05-01T12:50:12.812Z</time></trkpt><trkpt lat="43.376444" lon="13.2613283"><ele>242.66666666666666</ele><time>2026-05-01T12:50:13.811Z</time></trkpt><trkpt lat="43.3764776" lon="13.2614374"><ele>243.0</ele><time>2026-05-01T12:50:14.81Z</time></trkpt><trkpt lat="43.3765045" lon="13.261547"><ele>243.0</ele><time>2026-05-01T12:50:15.81Z</time></trkpt><trkpt lat="43.3765332" lon="13.2616529"><ele>243.0</ele><time>2026-05-01T12:50:16.811Z</time></trkpt><trkpt lat="43.3765617" lon="13.2617588"><ele>243.0</ele><time>2026-05-01T12:50:17.811Z</time></trkpt><trkpt lat="43.3765931" lon="13.2618677"><ele>243.0</ele><time>2026-05-01T12:50:18.811Z</time></trkpt><trkpt lat="43.3766167" lon="13.2619826"><ele>243.0</ele><time>2026-05-01T12:50:19.811Z</time></trkpt><trkpt lat="43.3766309" lon="13.2621023"><ele>243.0</ele><time>2026-05-01T12:50:20.812Z</time></trkpt><trkpt lat="43.376635" lon="13.2622246"><ele>242.33333333333334</ele><time>2026-05-01T12:50:21.81Z</time></trkpt><trkpt lat="43.3766279" lon="13.2623406"><ele>241.66666666666669</ele><time>2026-05-01T12:50:22.81Z</time></trkpt><trkpt lat="43.3766171" lon="13.2624534"><ele>241.0</ele><time>2026-05-01T12:50:23.811Z</time></trkpt><trkpt lat="43.3766081" lon="13.2625724"><ele>240.33333333333334</ele><time>2026-05-01T12:50:24.811Z</time></trkpt><trkpt lat="43.376599" lon="13.2626944"><ele>239.66666666666669</ele><time>2026-05-01T12:50:25.81Z</time></trkpt><trkpt lat="43.3765879" lon="13.2628154"><ele>239.0</ele><time>2026-05-01T12:50:26.81Z</time></trkpt><trkpt lat="43.3765759" lon="13.2629391"><ele>239.0</ele><time>2026-05-01T12:50:27.81Z</time></trkpt><trkpt lat="43.3765637" lon="13.2630687"><ele>238.99999999999997</ele><time>2026-05-01T12:50:28.81Z</time></trkpt><trkpt lat="43.3765612" lon="13.2632053"><ele>238.99999999999997</ele><time>2026-05-01T12:50:29.81Z</time></trkpt><trkpt lat="43.3765685" lon="13.2633374"><ele>239.0</ele><time>2026-05-01T12:50:30.81Z</time></trkpt><trkpt lat="43.3765879" lon="13.2634766"><ele>239.0</ele><time>2026-05-01T12:50:31.81Z</time></trkpt><trkpt lat="43.3766039" lon="13.2636153"><ele>238.50000000000003</ele><time>2026-05-01T12:50:32.809Z</time></trkpt><trkpt lat="43.3766163" lon="13.2637457"><ele>238.0</ele><time>2026-05-01T12:50:33.81Z</time></trkpt><trkpt lat="43.3766279" lon="13.2638692"><ele>237.5</ele><time>2026-05-01T12:50:34.809Z</time></trkpt><trkpt lat="43.3766423" lon="13.2639837"><ele>237.0</ele><time>2026-05-01T12:50:35.81Z</time></trkpt><trkpt lat="43.3766651" lon="13.264099"><ele>236.50000000000003</ele><time>2026-05-01T12:50:36.81Z</time></trkpt><trkpt lat="43.376693" lon="13.264213"><ele>236.0</ele><time>2026-05-01T12:50:37.809Z</time></trkpt><trkpt lat="43.3767135" lon="13.2643267"><ele>235.4</ele><time>2026-05-01T12:50:38.81Z</time></trkpt><trkpt lat="43.3767285" lon="13.2644437"><ele>234.8</ele><time>2026-05-01T12:50:39.811Z</time></trkpt><trkpt lat="43.3767485" lon="13.264561"><ele>234.20000000000002</ele><time>2026-05-01T12:50:40.81Z</time></trkpt><trkpt lat="43.3767711" lon="13.2646854"><ele>233.60000000000002</ele><time>2026-05-01T12:50:41.811Z</time></trkpt><trkpt lat="43.3767907" lon="13.2648085"><ele>233.0</ele><time>2026-05-01T12:50:42.809Z</time></trkpt><trkpt lat="43.3768148" lon="13.2649349"><ele>231.66666666666669</ele><time>2026-05-01T12:50:43.81Z</time></trkpt><trkpt lat="43.3768438" lon="13.2650586"><ele>230.33333333333334</ele><time>2026-05-01T12:50:44.81Z</time></trkpt><trkpt lat="43.376876" lon="13.2651817"><ele>229.0</ele><time>2026-05-01T12:50:45.81Z</time></trkpt><trkpt lat="43.3769103" lon="13.2653"><ele>227.66666666666669</ele><time>2026-05-01T12:50:46.809Z</time></trkpt><trkpt lat="43.3769442" lon="13.2654108"><ele>226.33333333333334</ele><time>2026-05-01T12:50:47.811Z</time></trkpt><trkpt lat="43.3769676" lon="13.2655147"><ele>225.0</ele><time>2026-05-01T12:50:48.809Z</time></trkpt><trkpt lat="43.3769801" lon="13.2656257"><ele>222.8</ele><time>2026-05-01T12:50:49.811Z</time></trkpt><trkpt lat="43.376984" lon="13.2657377"><ele>220.6</ele><time>2026-05-01T12:50:50.809Z</time></trkpt><trkpt lat="43.3769666" lon="13.2658549"><ele>218.39999999999998</ele><time>2026-05-01T12:50:51.81Z</time></trkpt><trkpt lat="43.3769366" lon="13.265979"><ele>216.2</ele><time>2026-05-01T12:50:52.81Z</time></trkpt><trkpt lat="43.3768879" lon="13.2661064"><ele>214.0</ele><time>2026-05-01T12:50:53.809Z</time></trkpt><trkpt lat="43.3768421" lon="13.2662334"><ele>214.0</ele><time>2026-05-01T12:50:54.809Z</time></trkpt><trkpt lat="43.3767971" lon="13.2663645"><ele>213.99999999999997</ele><time>2026-05-01T12:50:55.81Z</time></trkpt><trkpt lat="43.3767533" lon="13.2665019"><ele>213.99999999999997</ele><time>2026-05-01T12:50:56.809Z</time></trkpt><trkpt lat="43.376717" lon="13.2666443"><ele>214.0</ele><time>2026-05-01T12:50:57.811Z</time></trkpt><trkpt lat="43.37669" lon="13.2667782"><ele>214.0</ele><time>2026-05-01T12:50:58.809Z</time></trkpt><trkpt lat="43.3766638" lon="13.2669126"><ele>212.2</ele><time>2026-05-01T12:50:59.811Z</time></trkpt><trkpt lat="43.3766469" lon="13.2670493"><ele>210.39999999999998</ele><time>2026-05-01T12:51:00.81Z</time></trkpt><trkpt lat="43.3766335" lon="13.2671792"><ele>208.6</ele><time>2026-05-01T12:51:01.811Z</time></trkpt><trkpt lat="43.3766223" lon="13.2673132"><ele>206.8</ele><time>2026-05-01T12:51:02.809Z</time></trkpt><trkpt lat="43.3766087" lon="13.2674528"><ele>205.0</ele><time>2026-05-01T12:51:03.81Z</time></trkpt><trkpt lat="43.3765926" lon="13.2675956"><ele>204.8</ele><time>2026-05-01T12:51:04.81Z</time></trkpt><trkpt lat="43.3765745" lon="13.2677428"><ele>204.6</ele><time>2026-05-01T12:51:05.81Z</time></trkpt><trkpt lat="43.3765549" lon="13.2678928"><ele>204.39999999999998</ele><time>2026-05-01T12:51:06.81Z</time></trkpt><trkpt lat="43.3765364" lon="13.2680409"><ele>204.2</ele><time>2026-05-01T12:51:07.809Z</time></trkpt><trkpt lat="43.3765187" lon="13.2681901"><ele>204.0</ele><time>2026-05-01T12:51:08.81Z</time></trkpt><trkpt lat="43.3764998" lon="13.2683387"><ele>203.2</ele><time>2026-05-01T12:51:09.81Z</time></trkpt><trkpt lat="43.3764878" lon="13.2684884"><ele>202.39999999999998</ele><time>2026-05-01T12:51:10.809Z</time></trkpt><trkpt lat="43.3764735" lon="13.2686336"><ele>201.6</ele><time>2026-05-01T12:51:11.811Z</time></trkpt><trkpt lat="43.3764574" lon="13.2687767"><ele>200.8</ele><time>2026-05-01T12:51:12.81Z</time></trkpt><trkpt lat="43.3764418" lon="13.2689216"><ele>200.0</ele><time>2026-05-01T12:51:13.811Z</time></trkpt><trkpt lat="43.3764279" lon="13.269065"><ele>199.6</ele><time>2026-05-01T12:51:14.809Z</time></trkpt><trkpt lat="43.3764173" lon="13.2692082"><ele>199.2</ele><time>2026-05-01T12:51:15.81Z</time></trkpt><trkpt lat="43.3764107" lon="13.2693402"><ele>198.8</ele><time>2026-05-01T12:51:16.81Z</time></trkpt><trkpt lat="43.3764091" lon="13.2694706"><ele>198.4</ele><time>2026-05-01T12:51:17.81Z</time></trkpt><trkpt lat="43.3764078" lon="13.2695962"><ele>198.0</ele><time>2026-05-01T12:51:18.809Z</time></trkpt><trkpt lat="43.3764117" lon="13.2697224"><ele>197.8</ele><time>2026-05-01T12:51:19.81Z</time></trkpt><trkpt lat="43.376419" lon="13.2698501"><ele>197.60000000000002</ele><time>2026-05-01T12:51:20.81Z</time></trkpt><trkpt lat="43.3764295" lon="13.269981"><ele>197.39999999999998</ele><time>2026-05-01T12:51:21.811Z</time></trkpt><trkpt lat="43.3764351" lon="13.2701171"><ele>197.2</ele><time>2026-05-01T12:51:22.81Z</time></trkpt><trkpt lat="43.3764385" lon="13.2702529"><ele>197.0</ele><time>2026-05-01T12:51:23.81Z</time></trkpt><trkpt lat="43.3764415" lon="13.2703853"><ele>197.00000000000003</ele><time>2026-05-01T12:51:24.809Z</time></trkpt><trkpt lat="43.3764458" lon="13.2705122"><ele>197.0</ele><time>2026-05-01T12:51:25.81Z</time></trkpt><trkpt lat="43.3764577" lon="13.2706307"><ele>197.0</ele><time>2026-05-01T12:51:26.81Z</time></trkpt><trkpt lat="43.376475" lon="13.270736"><ele>197.0</ele><time>2026-05-01T12:51:27.81Z</time></trkpt><trkpt lat="43.3765023" lon="13.2708424"><ele>197.00000000000003</ele><time>2026-05-01T12:51:28.809Z</time></trkpt><trkpt lat="43.3765267" lon="13.2709511"><ele>197.0</ele><time>2026-05-01T12:51:29.809Z</time></trkpt><trkpt lat="43.3765483" lon="13.2710594"><ele>196.83333333333334</ele><time>2026-05-01T12:51:30.81Z</time></trkpt><trkpt lat="43.3765756" lon="13.2711719"><ele>196.66666666666669</ele><time>2026-05-01T12:51:31.809Z</time></trkpt><trkpt lat="43.3766001" lon="13.2712813"><ele>196.5</ele><time>2026-05-01T12:51:32.811Z</time></trkpt><trkpt lat="43.3766282" lon="13.2713943"><ele>196.33333333333331</ele><time>2026-05-01T12:51:33.811Z</time></trkpt><trkpt lat="43.3766553" lon="13.2715087"><ele>196.16666666666666</ele><time>2026-05-01T12:51:34.809Z</time></trkpt><trkpt lat="43.376685" lon="13.2716219"><ele>196.0</ele><time>2026-05-01T12:51:35.81Z</time></trkpt><trkpt lat="43.3767179" lon="13.2717357"><ele>194.99999999999997</ele><time>2026-05-01T12:51:36.809Z</time></trkpt><trkpt lat="43.3767541" lon="13.2718442"><ele>194.0</ele><time>2026-05-01T12:51:37.81Z</time></trkpt><trkpt lat="43.3767881" lon="13.2719464"><ele>193.0</ele><time>2026-05-01T12:51:38.81Z</time></trkpt><trkpt lat="43.3768274" lon="13.2720454"><ele>192.0</ele><time>2026-05-01T12:51:39.81Z</time></trkpt><trkpt lat="43.376872" lon="13.2721441"><ele>191.0</ele><time>2026-05-01T12:51:40.809Z</time></trkpt><trkpt lat="43.3769186" lon="13.2722434"><ele>190.0</ele><time>2026-05-01T12:51:41.81Z</time></trkpt><trkpt lat="43.3769667" lon="13.2723386"><ele>188.5</ele><time>2026-05-01T12:51:42.811Z</time></trkpt><trkpt lat="43.3770134" lon="13.272436"><ele>187.0</ele><time>2026-05-01T12:51:43.81Z</time></trkpt><trkpt lat="43.3770617" lon="13.272532"><ele>185.5</ele><time>2026-05-01T12:51:44.81Z</time></trkpt><trkpt lat="43.3771113" lon="13.2726284"><ele>184.0</ele><time>2026-05-01T12:51:45.809Z</time></trkpt><trkpt lat="43.37716" lon="13.2727216"><ele>182.5</ele><time>2026-05-01T12:51:46.81Z</time></trkpt><trkpt lat="43.3772077" lon="13.2728129"><ele>181.0</ele><time>2026-05-01T12:51:47.81Z</time></trkpt><trkpt lat="43.3772538" lon="13.2729077"><ele>180.33333333333334</ele><time>2026-05-01T12:51:48.809Z</time></trkpt><trkpt lat="43.3773017" lon="13.2730017"><ele>179.66666666666669</ele><time>2026-05-01T12:51:49.81Z</time></trkpt><trkpt lat="43.3773491" lon="13.2730956"><ele>179.0</ele><time>2026-05-01T12:51:50.81Z</time></trkpt><trkpt lat="43.3774002" lon="13.2731974"><ele>178.33333333333334</ele><time>2026-05-01T12:51:51.81Z</time></trkpt><trkpt lat="43.3774477" lon="13.2733024"><ele>177.66666666666666</ele><time>2026-05-01T12:51:52.81Z</time></trkpt><trkpt lat="43.3774933" lon="13.2734033"><ele>177.0</ele><time>2026-05-01T12:51:53.81Z</time></trkpt><trkpt lat="43.3775356" lon="13.2735104"><ele>177.0</ele><time>2026-05-01T12:51:54.81Z</time></trkpt><trkpt lat="43.3775809" lon="13.2736155"><ele>177.0</ele><time>2026-05-01T12:51:55.809Z</time></trkpt><trkpt lat="43.3776228" lon="13.27373"><ele>177.0</ele><time>2026-05-01T12:51:56.81Z</time></trkpt><trkpt lat="43.377659" lon="13.2738383"><ele>177.0</ele><time>2026-05-01T12:51:57.809Z</time></trkpt><trkpt lat="43.3776904" lon="13.2739549"><ele>177.0</ele><time>2026-05-01T12:51:58.81Z</time></trkpt><trkpt lat="43.3777212" lon="13.2740685"><ele>177.0</ele><time>2026-05-01T12:51:59.809Z</time></trkpt><trkpt lat="43.3777546" lon="13.2741802"><ele>176.16666666666666</ele><time>2026-05-01T12:52:00.809Z</time></trkpt><trkpt lat="43.3777923" lon="13.2742928"><ele>175.33333333333334</ele><time>2026-05-01T12:52:01.81Z</time></trkpt><trkpt lat="43.3778267" lon="13.2743985"><ele>174.5</ele><time>2026-05-01T12:52:02.81Z</time></trkpt><trkpt lat="43.3778634" lon="13.2745003"><ele>173.66666666666669</ele><time>2026-05-01T12:52:03.81Z</time></trkpt><trkpt lat="43.3779085" lon="13.2745965"><ele>172.83333333333334</ele><time>2026-05-01T12:52:04.81Z</time></trkpt><trkpt lat="43.377963" lon="13.2746896"><ele>172.0</ele><time>2026-05-01T12:52:05.81Z</time></trkpt><trkpt lat="43.3780288" lon="13.2747814"><ele>172.0</ele><time>2026-05-01T12:52:06.811Z</time></trkpt><trkpt lat="43.3781008" lon="13.2748597"><ele>172.0</ele><time>2026-05-01T12:52:07.81Z</time></trkpt><trkpt lat="43.37817" lon="13.2749349"><ele>172.0</ele><time>2026-05-01T12:52:08.81Z</time></trkpt><trkpt lat="43.3782437" lon="13.2750006"><ele>172.0</ele><time>2026-05-01T12:52:09.811Z</time></trkpt><trkpt lat="43.3783146" lon="13.2750661"><ele>172.0</ele><time>2026-05-01T12:52:10.81Z</time></trkpt><trkpt lat="43.3783871" lon="13.2751315"><ele>172.0</ele><time>2026-05-01T12:52:11.811Z</time></trkpt><trkpt lat="43.3784636" lon="13.2752023"><ele>172.0</ele><time>2026-05-01T12:52:12.809Z</time></trkpt><trkpt lat="43.3785409" lon="13.2752793"><ele>172.0</ele><time>2026-05-01T12:52:13.811Z</time></trkpt><trkpt lat="43.378615" lon="13.2753522"><ele>172.0</ele><time>2026-05-01T12:52:14.81Z</time></trkpt><trkpt lat="43.3786913" lon="13.2754168"><ele>172.0</ele><time>2026-05-01T12:52:15.811Z</time></trkpt><trkpt lat="43.3787718" lon="13.2754792"><ele>172.0</ele><time>2026-05-01T12:52:16.809Z</time></trkpt><trkpt lat="43.3788529" lon="13.2755337"><ele>171.16666666666669</ele><time>2026-05-01T12:52:17.811Z</time></trkpt><trkpt lat="43.3789351" lon="13.2755751"><ele>170.33333333333334</ele><time>2026-05-01T12:52:18.809Z</time></trkpt><trkpt lat="43.3790177" lon="13.2756111"><ele>169.5</ele><time>2026-05-01T12:52:19.809Z</time></trkpt><trkpt lat="43.379097" lon="13.2756419"><ele>168.66666666666666</ele><time>2026-05-01T12:52:20.811Z</time></trkpt><trkpt lat="43.379171" lon="13.2756705"><ele>167.83333333333331</ele><time>2026-05-01T12:52:21.81Z</time></trkpt><trkpt lat="43.3792448" lon="13.275704"><ele>167.0</ele><time>2026-05-01T12:52:22.81Z</time></trkpt><trkpt lat="43.3793214" lon="13.2757425"><ele>168.33333333333331</ele><time>2026-05-01T12:52:23.809Z</time></trkpt><trkpt lat="43.3793964" lon="13.2757886"><ele>169.66666666666666</ele><time>2026-05-01T12:52:24.809Z</time></trkpt><trkpt lat="43.3794651" lon="13.2758499"><ele>171.0</ele><time>2026-05-01T12:52:25.811Z</time></trkpt><trkpt lat="43.3795296" lon="13.2759164"><ele>172.33333333333334</ele><time>2026-05-01T12:52:26.811Z</time></trkpt><trkpt lat="43.3795879" lon="13.2759914"><ele>173.66666666666669</ele><time>2026-05-01T12:52:27.811Z</time></trkpt><trkpt lat="43.3796456" lon="13.2760665"><ele>175.0</ele><time>2026-05-01T12:52:28.81Z</time></trkpt><trkpt lat="43.3796996" lon="13.2761512"><ele>175.0</ele><time>2026-05-01T12:52:29.81Z</time></trkpt><trkpt lat="43.3797528" lon="13.2762353"><ele>175.0</ele><time>2026-05-01T12:52:30.809Z</time></trkpt><trkpt lat="43.3797993" lon="13.2763266"><ele>175.0</ele><time>2026-05-01T12:52:31.81Z</time></trkpt><trkpt lat="43.3798393" lon="13.2764166"><ele>175.0</ele><time>2026-05-01T12:52:32.81Z</time></trkpt><trkpt lat="43.3798748" lon="13.276499"><ele>175.0</ele><time>2026-05-01T12:52:33.809Z</time></trkpt><trkpt lat="43.3799064" lon="13.276585"><ele>175.0</ele><time>2026-05-01T12:52:34.81Z</time></trkpt><trkpt lat="43.3799344" lon="13.2766747"><ele>175.0</ele><time>2026-05-01T12:52:35.81Z</time></trkpt><trkpt lat="43.3799616" lon="13.2767607"><ele>174.42857142857142</ele><time>2026-05-01T12:52:36.81Z</time></trkpt><trkpt lat="43.3799913" lon="13.2768435"><ele>173.85714285714286</ele><time>2026-05-01T12:52:37.811Z</time></trkpt><trkpt lat="43.3800303" lon="13.2769205"><ele>173.28571428571428</ele><time>2026-05-01T12:52:38.809Z</time></trkpt><trkpt lat="43.3800775" lon="13.2769971"><ele>172.71428571428572</ele><time>2026-05-01T12:52:39.81Z</time></trkpt><trkpt lat="43.3801304" lon="13.2770672"><ele>172.14285714285714</ele><time>2026-05-01T12:52:40.811Z</time></trkpt><trkpt lat="43.3801841" lon="13.2771353"><ele>171.57142857142856</ele><time>2026-05-01T12:52:41.81Z</time></trkpt><trkpt lat="43.3802419" lon="13.2772064"><ele>171.0</ele><time>2026-05-01T12:52:42.81Z</time></trkpt><trkpt lat="43.3803008" lon="13.2772795"><ele>171.0</ele><time>2026-05-01T12:52:43.809Z</time></trkpt><trkpt lat="43.3803578" lon="13.2773481"><ele>171.0</ele><time>2026-05-01T12:52:44.809Z</time></trkpt><trkpt lat="43.3804173" lon="13.2774203"><ele>171.0</ele><time>2026-05-01T12:52:45.81Z</time></trkpt><trkpt lat="43.3804648" lon="13.2774875"><ele>171.0</ele><time>2026-05-01T12:52:46.809Z</time></trkpt><trkpt lat="43.3805208" lon="13.2775509"><ele>171.0</ele><time>2026-05-01T12:52:47.809Z</time></trkpt><trkpt lat="43.3805821" lon="13.2776131"><ele>171.0</ele><time>2026-05-01T12:52:48.81Z</time></trkpt><trkpt lat="43.3806477" lon="13.2776752"><ele>171.33333333333334</ele><time>2026-05-01T12:52:49.81Z</time></trkpt><trkpt lat="43.3807233" lon="13.2777326"><ele>171.66666666666666</ele><time>2026-05-01T12:52:50.81Z</time></trkpt><trkpt lat="43.3807972" lon="13.2777972"><ele>172.0</ele><time>2026-05-01T12:52:51.811Z</time></trkpt><trkpt lat="43.3808763" lon="13.277865"><ele>172.33333333333331</ele><time>2026-05-01T12:52:52.81Z</time></trkpt><trkpt lat="43.3809534" lon="13.2779225"><ele>172.66666666666666</ele><time>2026-05-01T12:52:53.809Z</time></trkpt><trkpt lat="43.3810325" lon="13.2779842"><ele>173.0</ele><time>2026-05-01T12:52:54.81Z</time></trkpt><trkpt lat="43.3811084" lon="13.2780457"><ele>172.16666666666666</ele><time>2026-05-01T12:52:55.81Z</time></trkpt><trkpt lat="43.3811769" lon="13.2781055"><ele>171.33333333333331</ele><time>2026-05-01T12:52:56.809Z</time></trkpt><trkpt lat="43.3812466" lon="13.278158"><ele>170.5</ele><time>2026-05-01T12:52:57.81Z</time></trkpt><trkpt lat="43.3813174" lon="13.2782204"><ele>169.66666666666666</ele><time>2026-05-01T12:52:58.81Z</time></trkpt><trkpt lat="43.3813824" lon="13.2782883"><ele>168.83333333333334</ele><time>2026-05-01T12:52:59.811Z</time></trkpt><trkpt lat="43.3814454" lon="13.2783579"><ele>168.0</ele><time>2026-05-01T12:53:00.809Z</time></trkpt><trkpt lat="43.3815075" lon="13.2784326"><ele>168.0</ele><time>2026-05-01T12:53:01.809Z</time></trkpt><trkpt lat="43.3815706" lon="13.2785093"><ele>168.0</ele><time>2026-05-01T12:53:02.81Z</time></trkpt><trkpt lat="43.3816382" lon="13.2785836"><ele>168.0</ele><time>2026-05-01T12:53:03.81Z</time></trkpt><trkpt lat="43.3817069" lon="13.2786569"><ele>168.0</ele><time>2026-05-01T12:53:04.811Z</time></trkpt><trkpt lat="43.3817716" lon="13.2787336"><ele>168.0</ele><time>2026-05-01T12:53:05.81Z</time></trkpt><trkpt lat="43.3818356" lon="13.2788186"><ele>168.0</ele><time>2026-05-01T12:53:06.81Z</time></trkpt><trkpt lat="43.3818979" lon="13.2788994"><ele>166.83333333333334</ele><time>2026-05-01T12:53:07.81Z</time></trkpt><trkpt lat="43.3819622" lon="13.2789708"><ele>165.66666666666666</ele><time>2026-05-01T12:53:08.81Z</time></trkpt><trkpt lat="43.3820242" lon="13.2790364"><ele>164.5</ele><time>2026-05-01T12:53:09.809Z</time></trkpt><trkpt lat="43.3820858" lon="13.2791154"><ele>163.33333333333331</ele><time>2026-05-01T12:53:10.81Z</time></trkpt><trkpt lat="43.3821542" lon="13.279195"><ele>162.16666666666666</ele><time>2026-05-01T12:53:11.81Z</time></trkpt><trkpt lat="43.3822189" lon="13.2792773"><ele>161.0</ele><time>2026-05-01T12:53:12.81Z</time></trkpt><trkpt lat="43.3822832" lon="13.279364"><ele>160.20000000000002</ele><time>2026-05-01T12:53:13.809Z</time></trkpt><trkpt lat="43.3823483" lon="13.2794563"><ele>159.4</ele><time>2026-05-01T12:53:14.81Z</time></trkpt><trkpt lat="43.3824158" lon="13.2795478"><ele>158.6</ele><time>2026-05-01T12:53:15.81Z</time></trkpt><trkpt lat="43.3824796" lon="13.2796471"><ele>157.8</ele><time>2026-05-01T12:53:16.809Z</time></trkpt><trkpt lat="43.3825392" lon="13.2797533"><ele>157.0</ele><time>2026-05-01T12:53:17.81Z</time></trkpt><trkpt lat="43.382595" lon="13.2798582"><ele>157.0</ele><time>2026-05-01T12:53:18.81Z</time></trkpt><trkpt lat="43.3826539" lon="13.2799669"><ele>157.0</ele><time>2026-05-01T12:53:19.81Z</time></trkpt><trkpt lat="43.3827104" lon="13.280073"><ele>157.0</ele><time>2026-05-01T12:53:20.81Z</time></trkpt><trkpt lat="43.38277" lon="13.2801819"><ele>157.0</ele><time>2026-05-01T12:53:21.811Z</time></trkpt><trkpt lat="43.3828305" lon="13.280292"><ele>157.0</ele><time>2026-05-01T12:53:22.81Z</time></trkpt><trkpt lat="43.3828884" lon="13.2804008"><ele>157.0</ele><time>2026-05-01T12:53:23.81Z</time></trkpt><trkpt lat="43.3829469" lon="13.2805126"><ele>157.0</ele><time>2026-05-01T12:53:24.81Z</time></trkpt><trkpt lat="43.383005" lon="13.2806266"><ele>157.0</ele><time>2026-05-01T12:53:25.81Z</time></trkpt><trkpt lat="43.3830619" lon="13.2807398"><ele>157.0</ele><time>2026-05-01T12:53:26.81Z</time></trkpt><trkpt lat="43.3831143" lon="13.2808483"><ele>157.0</ele><time>2026-05-01T12:53:27.809Z</time></trkpt><trkpt lat="43.3831778" lon="13.2809434"><ele>155.6</ele><time>2026-05-01T12:53:28.81Z</time></trkpt><trkpt lat="43.3832445" lon="13.281027"><ele>154.2</ele><time>2026-05-01T12:53:29.81Z</time></trkpt><trkpt lat="43.383321" lon="13.2810948"><ele>152.8</ele><time>2026-05-01T12:53:30.809Z</time></trkpt><trkpt lat="43.3834088" lon="13.2811529"><ele>151.4</ele><time>2026-05-01T12:53:31.81Z</time></trkpt><trkpt lat="43.3835027" lon="13.2812026"><ele>150.0</ele><time>2026-05-01T12:53:32.81Z</time></trkpt><trkpt lat="43.3836032" lon="13.2812528"><ele>150.0</ele><time>2026-05-01T12:53:33.809Z</time></trkpt><trkpt lat="43.3837099" lon="13.2813014"><ele>150.0</ele><time>2026-05-01T12:53:34.809Z</time></trkpt><trkpt lat="43.3838225" lon="13.2813409"><ele>150.0</ele><time>2026-05-01T12:53:35.81Z</time></trkpt><trkpt lat="43.3839402" lon="13.2813666"><ele>150.0</ele><time>2026-05-01T12:53:36.809Z</time></trkpt><trkpt lat="43.3840536" lon="13.2813782"><ele>150.4</ele><time>2026-05-01T12:53:37.81Z</time></trkpt><trkpt lat="43.3841635" lon="13.2813768"><ele>150.8</ele><time>2026-05-01T12:53:38.809Z</time></trkpt><trkpt lat="43.3842725" lon="13.2813698"><ele>151.2</ele><time>2026-05-01T12:53:39.809Z</time></trkpt><trkpt lat="43.3843749" lon="13.28136"><ele>151.6</ele><time>2026-05-01T12:53:40.809Z</time></trkpt><trkpt lat="43.3844786" lon="13.2813488"><ele>152.0</ele><time>2026-05-01T12:53:41.81Z</time></trkpt><trkpt lat="43.3845817" lon="13.2813379"><ele>153.4</ele><time>2026-05-01T12:53:42.81Z</time></trkpt><trkpt lat="43.3846868" lon="13.2813277"><ele>154.79999999999998</ele><time>2026-05-01T12:53:43.809Z</time></trkpt><trkpt lat="43.3847868" lon="13.281318"><ele>156.2</ele><time>2026-05-01T12:53:44.81Z</time></trkpt><trkpt lat="43.3848819" lon="13.2813045"><ele>157.6</ele><time>2026-05-01T12:53:45.81Z</time></trkpt><trkpt lat="43.3849718" lon="13.2812871"><ele>159.0</ele><time>2026-05-01T12:53:46.809Z</time></trkpt><trkpt lat="43.3850625" lon="13.2812673"><ele>159.0</ele><time>2026-05-01T12:53:47.811Z</time></trkpt><trkpt lat="43.3851471" lon="13.281248"><ele>159.0</ele><time>2026-05-01T12:53:48.809Z</time></trkpt><trkpt lat="43.3852309" lon="13.2812268"><ele>159.0</ele><time>2026-05-01T12:53:49.811Z</time></trkpt><trkpt lat="43.3853145" lon="13.2812052"><ele>159.0</ele><time>2026-05-01T12:53:50.809Z</time></trkpt><trkpt lat="43.3854007" lon="13.2811827"><ele>159.0</ele><time>2026-05-01T12:53:51.81Z</time></trkpt><trkpt lat="43.3854913" lon="13.2811627"><ele>159.0</ele><time>2026-05-01T12:53:52.809Z</time></trkpt><trkpt lat="43.385585" lon="13.2811452"><ele>159.8</ele><time>2026-05-01T12:53:53.81Z</time></trkpt><trkpt lat="43.3856793" lon="13.2811308"><ele>160.60000000000002</ele><time>2026-05-01T12:53:54.81Z</time></trkpt><trkpt lat="43.3857722" lon="13.2811142"><ele>161.4</ele><time>2026-05-01T12:53:55.811Z</time></trkpt><trkpt lat="43.3858659" lon="13.2811016"><ele>162.20000000000002</ele><time>2026-05-01T12:53:56.81Z</time></trkpt><trkpt lat="43.3859588" lon="13.2810902"><ele>163.0</ele><time>2026-05-01T12:53:57.81Z</time></trkpt><trkpt lat="43.3860543" lon="13.2810857"><ele>163.0</ele><time>2026-05-01T12:53:58.81Z</time></trkpt><trkpt lat="43.3861504" lon="13.2810902"><ele>163.0</ele><time>2026-05-01T12:53:59.81Z</time></trkpt><trkpt lat="43.3862466" lon="13.2811142"><ele>163.0</ele><time>2026-05-01T12:54:00.81Z</time></trkpt><trkpt lat="43.3863415" lon="13.2811505"><ele>163.0</ele><time>2026-05-01T12:54:01.81Z</time></trkpt><trkpt lat="43.3864343" lon="13.2812001"><ele>163.0</ele><time>2026-05-01T12:54:02.81Z</time></trkpt><trkpt lat="43.3865221" lon="13.2812514"><ele>163.2</ele><time>2026-05-01T12:54:03.81Z</time></trkpt><trkpt lat="43.3866125" lon="13.2812943"><ele>163.4</ele><time>2026-05-01T12:54:04.809Z</time></trkpt><trkpt lat="43.3867011" lon="13.2813282"><ele>163.6</ele><time>2026-05-01T12:54:05.809Z</time></trkpt><trkpt lat="43.3867941" lon="13.2813393"><ele>163.79999999999998</ele><time>2026-05-01T12:54:06.809Z</time></trkpt><trkpt lat="43.3868852" lon="13.2813306"><ele>164.0</ele><time>2026-05-01T12:54:07.809Z</time></trkpt><trkpt lat="43.3869774" lon="13.2813042"><ele>164.0</ele><time>2026-05-01T12:54:08.81Z</time></trkpt><trkpt lat="43.38707" lon="13.2812737"><ele>164.0</ele><time>2026-05-01T12:54:09.809Z</time></trkpt><trkpt lat="43.3871638" lon="13.2812475"><ele>164.0</ele><time>2026-05-01T12:54:10.81Z</time></trkpt><trkpt lat="43.3872567" lon="13.2812229"><ele>164.0</ele><time>2026-05-01T12:54:11.81Z</time></trkpt><trkpt lat="43.3873513" lon="13.281193"><ele>164.0</ele><time>2026-05-01T12:54:12.809Z</time></trkpt><trkpt lat="43.3874473" lon="13.2811697"><ele>163.79999999999998</ele><time>2026-05-01T12:54:13.81Z</time></trkpt><trkpt lat="43.3875439" lon="13.2811521"><ele>163.6</ele><time>2026-05-01T12:54:14.81Z</time></trkpt><trkpt lat="43.3876413" lon="13.2811248"><ele>163.4</ele><time>2026-05-01T12:54:15.81Z</time></trkpt><trkpt lat="43.3877388" lon="13.2811"><ele>163.2</ele><time>2026-05-01T12:54:16.809Z</time></trkpt><trkpt lat="43.3878404" lon="13.28108"><ele>163.0</ele><time>2026-05-01T12:54:17.81Z</time></trkpt><trkpt lat="43.3879445" lon="13.28106"><ele>163.4</ele><time>2026-05-01T12:54:18.81Z</time></trkpt><trkpt lat="43.3880513" lon="13.281043"><ele>163.8</ele><time>2026-05-01T12:54:19.81Z</time></trkpt><trkpt lat="43.3881561" lon="13.2810244"><ele>164.2</ele><time>2026-05-01T12:54:20.809Z</time></trkpt><trkpt lat="43.3882594" lon="13.2810104"><ele>164.6</ele><time>2026-05-01T12:54:21.81Z</time></trkpt><trkpt lat="43.3883598" lon="13.2810004"><ele>165.0</ele><time>2026-05-01T12:54:22.81Z</time></trkpt><trkpt lat="43.3884547" lon="13.2809914"><ele>165.0</ele><time>2026-05-01T12:54:23.81Z</time></trkpt><trkpt lat="43.3885538" lon="13.2809814"><ele>165.0</ele><time>2026-05-01T12:54:24.81Z</time></trkpt><trkpt lat="43.3886521" lon="13.2809838"><ele>165.0</ele><time>2026-05-01T12:54:25.81Z</time></trkpt><trkpt lat="43.3887579" lon="13.2809931"><ele>165.0</ele><time>2026-05-01T12:54:26.811Z</time></trkpt><trkpt lat="43.3888641" lon="13.2809998"><ele>165.0</ele><time>2026-05-01T12:54:27.809Z</time></trkpt><trkpt lat="43.3889697" lon="13.28101"><ele>164.8</ele><time>2026-05-01T12:54:28.811Z</time></trkpt><trkpt lat="43.3890721" lon="13.2810209"><ele>164.6</ele><time>2026-05-01T12:54:29.811Z</time></trkpt><trkpt lat="43.389179" lon="13.2810426"><ele>164.39999999999998</ele><time>2026-05-01T12:54:30.811Z</time></trkpt><trkpt lat="43.3892836" lon="13.2810601"><ele>164.2</ele><time>2026-05-01T12:54:31.81Z</time></trkpt><trkpt lat="43.389382" lon="13.2810637"><ele>164.0</ele><time>2026-05-01T12:54:32.809Z</time></trkpt><trkpt lat="43.3894775" lon="13.2810683"><ele>164.0</ele><time>2026-05-01T12:54:33.81Z</time></trkpt><trkpt lat="43.3895627" lon="13.2810551"><ele>164.0</ele><time>2026-05-01T12:54:34.81Z</time></trkpt><trkpt lat="43.3896461" lon="13.2810294"><ele>164.0</ele><time>2026-05-01T12:54:35.81Z</time></trkpt><trkpt lat="43.3897193" lon="13.2810026"><ele>164.0</ele><time>2026-05-01T12:54:36.809Z</time></trkpt><trkpt lat="43.3897915" lon="13.2809676"><ele>164.0</ele><time>2026-05-01T12:54:37.811Z</time></trkpt><trkpt lat="43.3898644" lon="13.280924"><ele>164.0</ele><time>2026-05-01T12:54:38.81Z</time></trkpt><trkpt lat="43.38994" lon="13.280887"><ele>163.66666666666666</ele><time>2026-05-01T12:54:39.809Z</time></trkpt><trkpt lat="43.3900131" lon="13.2808493"><ele>163.33333333333331</ele><time>2026-05-01T12:54:40.81Z</time></trkpt><trkpt lat="43.3900865" lon="13.2808086"><ele>163.0</ele><time>2026-05-01T12:54:41.809Z</time></trkpt><trkpt lat="43.3901556" lon="13.2807757"><ele>162.66666666666666</ele><time>2026-05-01T12:54:42.81Z</time></trkpt><trkpt lat="43.3902226" lon="13.2807411"><ele>162.33333333333334</ele><time>2026-05-01T12:54:43.81Z</time></trkpt><trkpt lat="43.390293" lon="13.2807114"><ele>162.0</ele><time>2026-05-01T12:54:44.81Z</time></trkpt><trkpt lat="43.3903634" lon="13.2806767"><ele>162.0</ele><time>2026-05-01T12:54:45.81Z</time></trkpt><trkpt lat="43.3904316" lon="13.2806445"><ele>162.0</ele><time>2026-05-01T12:54:46.81Z</time></trkpt><trkpt lat="43.3905017" lon="13.2806159"><ele>162.0</ele><time>2026-05-01T12:54:47.809Z</time></trkpt><trkpt lat="43.3905731" lon="13.2805949"><ele>162.0</ele><time>2026-05-01T12:54:48.811Z</time></trkpt><trkpt lat="43.3906445" lon="13.2805711"><ele>162.0</ele><time>2026-05-01T12:54:49.81Z</time></trkpt><trkpt lat="43.3907158" lon="13.2805454"><ele>162.0</ele><time>2026-05-01T12:54:50.809Z</time></trkpt><trkpt lat="43.3907893" lon="13.2805196"><ele>162.0</ele><time>2026-05-01T12:54:51.81Z</time></trkpt><trkpt lat="43.3908674" lon="13.2804931"><ele>162.33333333333334</ele><time>2026-05-01T12:54:52.81Z</time></trkpt><trkpt lat="43.3909525" lon="13.2804744"><ele>162.66666666666666</ele><time>2026-05-01T12:54:53.81Z</time></trkpt><trkpt lat="43.3910368" lon="13.2804574"><ele>163.0</ele><time>2026-05-01T12:54:54.809Z</time></trkpt><trkpt lat="43.391123" lon="13.2804337"><ele>163.33333333333331</ele><time>2026-05-01T12:54:55.809Z</time></trkpt><trkpt lat="43.3912131" lon="13.280415"><ele>163.66666666666666</ele><time>2026-05-01T12:54:56.81Z</time></trkpt><trkpt lat="43.3913052" lon="13.2803903"><ele>164.0</ele><time>2026-05-01T12:54:57.809Z</time></trkpt><trkpt lat="43.3913978" lon="13.280358"><ele>164.0</ele><time>2026-05-01T12:54:58.809Z</time></trkpt><trkpt lat="43.3914878" lon="13.2803359"><ele>164.0</ele><time>2026-05-01T12:54:59.81Z</time></trkpt><trkpt lat="43.3915743" lon="13.2803143"><ele>164.0</ele><time>2026-05-01T12:55:00.81Z</time></trkpt><trkpt lat="43.3916647" lon="13.2802853"><ele>164.0</ele><time>2026-05-01T12:55:01.81Z</time></trkpt><trkpt lat="43.3917527" lon="13.2802557"><ele>164.0</ele><time>2026-05-01T12:55:02.809Z</time></trkpt><trkpt lat="43.3918355" lon="13.2802147"><ele>164.0</ele><time>2026-05-01T12:55:03.81Z</time></trkpt><trkpt lat="43.391915" lon="13.2801572"><ele>164.0</ele><time>2026-05-01T12:55:04.81Z</time></trkpt><trkpt lat="43.3919833" lon="13.2800791"><ele>164.0</ele><time>2026-05-01T12:55:05.811Z</time></trkpt><trkpt lat="43.3920415" lon="13.2800003"><ele>164.0</ele><time>2026-05-01T12:55:06.809Z</time></trkpt><trkpt lat="43.3920991" lon="13.2799264"><ele>164.0</ele><time>2026-05-01T12:55:07.809Z</time></trkpt><trkpt lat="43.3921575" lon="13.2798685"><ele>164.0</ele><time>2026-05-01T12:55:08.809Z</time></trkpt><trkpt lat="43.3922366" lon="13.2798102"><ele>163.79999999999998</ele><time>2026-05-01T12:55:10.809Z</time></trkpt><trkpt lat="43.3923092" lon="13.2798665"><ele>163.6</ele><time>2026-05-01T12:55:13.81Z</time></trkpt><trkpt lat="43.3923762" lon="13.2800098"><ele>163.4</ele><time>2026-05-01T12:55:15.81Z</time></trkpt><trkpt lat="43.3924177" lon="13.2801001"><ele>163.2</ele><time>2026-05-01T12:55:16.81Z</time></trkpt><trkpt lat="43.3924654" lon="13.2801932"><ele>163.0</ele><time>2026-05-01T12:55:17.809Z</time></trkpt><trkpt lat="43.3925153" lon="13.2802977"><ele>163.0</ele><time>2026-05-01T12:55:18.809Z</time></trkpt><trkpt lat="43.3925617" lon="13.2804054"><ele>163.0</ele><time>2026-05-01T12:55:19.81Z</time></trkpt><trkpt lat="43.3926097" lon="13.2805132"><ele>163.0</ele><time>2026-05-01T12:55:20.809Z</time></trkpt><trkpt lat="43.3926611" lon="13.2806195"><ele>163.0</ele><time>2026-05-01T12:55:21.809Z</time></trkpt><trkpt lat="43.3927143" lon="13.2807329"><ele>163.0</ele><time>2026-05-01T12:55:22.809Z</time></trkpt><trkpt lat="43.3927669" lon="13.2808428"><ele>162.8</ele><time>2026-05-01T12:55:23.81Z</time></trkpt><trkpt lat="43.3928238" lon="13.2809586"><ele>162.60000000000002</ele><time>2026-05-01T12:55:24.81Z</time></trkpt><trkpt lat="43.3928771" lon="13.2810826"><ele>162.39999999999998</ele><time>2026-05-01T12:55:25.81Z</time></trkpt><trkpt lat="43.3929383" lon="13.2812048"><ele>162.2</ele><time>2026-05-01T12:55:26.81Z</time></trkpt><trkpt lat="43.3929963" lon="13.2813319"><ele>162.0</ele><time>2026-05-01T12:55:27.809Z</time></trkpt><trkpt lat="43.3930574" lon="13.2814585"><ele>160.79999999999998</ele><time>2026-05-01T12:55:28.81Z</time></trkpt><trkpt lat="43.3931172" lon="13.2815867"><ele>159.6</ele><time>2026-05-01T12:55:29.809Z</time></trkpt><trkpt lat="43.3931789" lon="13.281711"><ele>158.39999999999998</ele><time>2026-05-01T12:55:30.81Z</time></trkpt><trkpt lat="43.3932428" lon="13.2818381"><ele>157.2</ele><time>2026-05-01T12:55:31.809Z</time></trkpt><trkpt lat="43.3933073" lon="13.2819674"><ele>156.0</ele><time>2026-05-01T12:55:32.81Z</time></trkpt><trkpt lat="43.3933723" lon="13.2821007"><ele>156.0</ele><time>2026-05-01T12:55:33.81Z</time></trkpt><trkpt lat="43.3934374" lon="13.2822329"><ele>156.0</ele><time>2026-05-01T12:55:34.809Z</time></trkpt><trkpt lat="43.3935025" lon="13.2823724"><ele>156.0</ele><time>2026-05-01T12:55:35.809Z</time></trkpt><trkpt lat="43.3935688" lon="13.282505"><ele>156.0</ele><time>2026-05-01T12:55:36.81Z</time></trkpt><trkpt lat="43.393633" lon="13.2826402"><ele>156.0</ele><time>2026-05-01T12:55:37.809Z</time></trkpt><trkpt lat="43.393698" lon="13.2827732"><ele>156.0</ele><time>2026-05-01T12:55:38.809Z</time></trkpt><trkpt lat="43.3937609" lon="13.282909"><ele>156.0</ele><time>2026-05-01T12:55:39.809Z</time></trkpt><trkpt lat="43.393819" lon="13.2830441"><ele>156.0</ele><time>2026-05-01T12:55:40.81Z</time></trkpt><trkpt lat="43.3938796" lon="13.2831766"><ele>155.5</ele><time>2026-05-01T12:55:41.81Z</time></trkpt><trkpt lat="43.3939432" lon="13.2833046"><ele>155.0</ele><time>2026-05-01T12:55:42.809Z</time></trkpt><trkpt lat="43.3940051" lon="13.283438"><ele>154.5</ele><time>2026-05-01T12:55:43.81Z</time></trkpt><trkpt lat="43.3940678" lon="13.2835728"><ele>154.0</ele><time>2026-05-01T12:55:44.81Z</time></trkpt><trkpt lat="43.39413" lon="13.2837044"><ele>154.0</ele><time>2026-05-01T12:55:45.809Z</time></trkpt><trkpt lat="43.3941928" lon="13.2838372"><ele>154.0</ele><time>2026-05-01T12:55:46.81Z</time></trkpt><trkpt lat="43.3942569" lon="13.2839681"><ele>154.0</ele><time>2026-05-01T12:55:47.809Z</time></trkpt><trkpt lat="43.3943227" lon="13.2841022"><ele>154.0</ele><time>2026-05-01T12:55:48.81Z</time></trkpt><trkpt lat="43.3943911" lon="13.2842493"><ele>153.75</ele><time>2026-05-01T12:55:49.809Z</time></trkpt><trkpt lat="43.3944648" lon="13.2844019"><ele>153.5</ele><time>2026-05-01T12:55:50.809Z</time></trkpt><trkpt lat="43.3945392" lon="13.2845619"><ele>153.25</ele><time>2026-05-01T12:55:51.81Z</time></trkpt><trkpt lat="43.3946139" lon="13.2847217"><ele>153.0</ele><time>2026-05-01T12:55:52.81Z</time></trkpt><trkpt lat="43.3946838" lon="13.2848811"><ele>152.5</ele><time>2026-05-01T12:55:53.811Z</time></trkpt><trkpt lat="43.3947572" lon="13.285038"><ele>152.0</ele><time>2026-05-01T12:55:54.81Z</time></trkpt><trkpt lat="43.3948294" lon="13.2851938"><ele>151.5</ele><time>2026-05-01T12:55:55.81Z</time></trkpt><trkpt lat="43.3949056" lon="13.2853551"><ele>151.0</ele><time>2026-05-01T12:55:56.809Z</time></trkpt><trkpt lat="43.3949782" lon="13.2855181"><ele>150.0</ele><time>2026-05-01T12:55:57.809Z</time></trkpt><trkpt lat="43.3950399" lon="13.2856878"><ele>149.0</ele><time>2026-05-01T12:55:58.809Z</time></trkpt><trkpt lat="43.395089" lon="13.2858702"><ele>148.0</ele><time>2026-05-01T12:55:59.81Z</time></trkpt><trkpt lat="43.3951283" lon="13.2860568"><ele>147.0</ele><time>2026-05-01T12:56:00.81Z</time></trkpt><trkpt lat="43.3951596" lon="13.2862464"><ele>147.0</ele><time>2026-05-01T12:56:01.81Z</time></trkpt><trkpt lat="43.3951941" lon="13.2864397"><ele>147.0</ele><time>2026-05-01T12:56:02.809Z</time></trkpt><trkpt lat="43.3952288" lon="13.2866402"><ele>147.0</ele><time>2026-05-01T12:56:03.81Z</time></trkpt><trkpt lat="43.3952661" lon="13.2868461"><ele>147.0</ele><time>2026-05-01T12:56:04.81Z</time></trkpt><trkpt lat="43.3953044" lon="13.2870571"><ele>146.0</ele><time>2026-05-01T12:56:05.81Z</time></trkpt><trkpt lat="43.3953402" lon="13.2872721"><ele>145.0</ele><time>2026-05-01T12:56:06.81Z</time></trkpt><trkpt lat="43.3953735" lon="13.2874903"><ele>144.0</ele><time>2026-05-01T12:56:07.81Z</time></trkpt><trkpt lat="43.3954069" lon="13.287715"><ele>144.0</ele><time>2026-05-01T12:56:08.809Z</time></trkpt><trkpt lat="43.3954446" lon="13.2879405"><ele>144.0</ele><time>2026-05-01T12:56:09.809Z</time></trkpt><trkpt lat="43.3954857" lon="13.2881658"><ele>144.0</ele><time>2026-05-01T12:56:10.809Z</time></trkpt><trkpt lat="43.3955209" lon="13.2883931"><ele>144.33333333333334</ele><time>2026-05-01T12:56:11.81Z</time></trkpt><trkpt lat="43.3955597" lon="13.2886257"><ele>144.66666666666669</ele><time>2026-05-01T12:56:12.81Z</time></trkpt><trkpt lat="43.3955958" lon="13.2888596"><ele>145.0</ele><time>2026-05-01T12:56:13.81Z</time></trkpt><trkpt lat="43.3956363" lon="13.289092"><ele>145.0</ele><time>2026-05-01T12:56:14.81Z</time></trkpt><trkpt lat="43.3956737" lon="13.2893222"><ele>145.0</ele><time>2026-05-01T12:56:15.81Z</time></trkpt><trkpt lat="43.3957113" lon="13.2895508"><ele>145.0</ele><time>2026-05-01T12:56:16.809Z</time></trkpt><trkpt lat="43.3957515" lon="13.2897744"><ele>145.0</ele><time>2026-05-01T12:56:17.81Z</time></trkpt><trkpt lat="43.3957935" lon="13.2899942"><ele>145.0</ele><time>2026-05-01T12:56:18.809Z</time></trkpt><trkpt lat="43.3958361" lon="13.2902107"><ele>145.0</ele><time>2026-05-01T12:56:19.81Z</time></trkpt><trkpt lat="43.3958793" lon="13.2904225"><ele>143.66666666666669</ele><time>2026-05-01T12:56:20.809Z</time></trkpt><trkpt lat="43.395921" lon="13.2906239"><ele>142.33333333333334</ele><time>2026-05-01T12:56:21.809Z</time></trkpt><trkpt lat="43.3959639" lon="13.2908214"><ele>141.0</ele><time>2026-05-01T12:56:22.81Z</time></trkpt><trkpt lat="43.3960064" lon="13.2910176"><ele>141.0</ele><time>2026-05-01T12:56:23.81Z</time></trkpt><trkpt lat="43.3960484" lon="13.2912149"><ele>141.0</ele><time>2026-05-01T12:56:24.809Z</time></trkpt><trkpt lat="43.3960901" lon="13.2914106"><ele>141.0</ele><time>2026-05-01T12:56:25.81Z</time></trkpt><trkpt lat="43.3961351" lon="13.2916071"><ele>141.0</ele><time>2026-05-01T12:56:26.81Z</time></trkpt><trkpt lat="43.3961808" lon="13.2918062"><ele>139.66666666666666</ele><time>2026-05-01T12:56:27.81Z</time></trkpt><trkpt lat="43.3962247" lon="13.2920082"><ele>138.33333333333331</ele><time>2026-05-01T12:56:28.81Z</time></trkpt><trkpt lat="43.3962722" lon="13.2922109"><ele>137.0</ele><time>2026-05-01T12:56:29.81Z</time></trkpt><trkpt lat="43.3963175" lon="13.2924148"><ele>137.66666666666666</ele><time>2026-05-01T12:56:30.809Z</time></trkpt><trkpt lat="43.3963641" lon="13.2926203"><ele>138.33333333333334</ele><time>2026-05-01T12:56:31.81Z</time></trkpt><trkpt lat="43.3964096" lon="13.2928156"><ele>139.0</ele><time>2026-05-01T12:56:32.81Z</time></trkpt><trkpt lat="43.3964519" lon="13.2930084"><ele>137.75</ele><time>2026-05-01T12:56:33.809Z</time></trkpt><trkpt lat="43.3964901" lon="13.2931931"><ele>136.5</ele><time>2026-05-01T12:56:34.81Z</time></trkpt><trkpt lat="43.3965284" lon="13.2933723"><ele>135.25</ele><time>2026-05-01T12:56:35.809Z</time></trkpt><trkpt lat="43.3965666" lon="13.2935501"><ele>134.0</ele><time>2026-05-01T12:56:36.81Z</time></trkpt><trkpt lat="43.3966026" lon="13.2937235"><ele>134.0</ele><time>2026-05-01T12:56:37.81Z</time></trkpt><trkpt lat="43.3966388" lon="13.2938974"><ele>134.0</ele><time>2026-05-01T12:56:38.81Z</time></trkpt><trkpt lat="43.3966754" lon="13.2940694"><ele>134.0</ele><time>2026-05-01T12:56:39.81Z</time></trkpt><trkpt lat="43.3967087" lon="13.2942424"><ele>134.0</ele><time>2026-05-01T12:56:40.81Z</time></trkpt><trkpt lat="43.3967501" lon="13.2944049"><ele>133.0</ele><time>2026-05-01T12:56:41.809Z</time></trkpt><trkpt lat="43.396803" lon="13.2945532"><ele>132.0</ele><time>2026-05-01T12:56:42.809Z</time></trkpt><trkpt lat="43.3968725" lon="13.2946921"><ele>131.0</ele><time>2026-05-01T12:56:43.809Z</time></trkpt><trkpt lat="43.396958" lon="13.294822"><ele>130.0</ele><time>2026-05-01T12:56:44.81Z</time></trkpt><trkpt lat="43.3970557" lon="13.2949424"><ele>129.0</ele><time>2026-05-01T12:56:45.81Z</time></trkpt><trkpt lat="43.3971562" lon="13.2950604"><ele>128.0</ele><time>2026-05-01T12:56:46.81Z</time></trkpt><trkpt lat="43.3972669" lon="13.2951771"><ele>127.0</ele><time>2026-05-01T12:56:47.809Z</time></trkpt><trkpt lat="43.3973739" lon="13.2952912"><ele>126.0</ele><time>2026-05-01T12:56:48.81Z</time></trkpt><trkpt lat="43.397474" lon="13.2953969"><ele>125.5</ele><time>2026-05-01T12:56:49.81Z</time></trkpt><trkpt lat="43.3975652" lon="13.2954964"><ele>125.0</ele><time>2026-05-01T12:56:50.809Z</time></trkpt><trkpt lat="43.397639" lon="13.2956171"><ele>124.5</ele><time>2026-05-01T12:56:51.81Z</time></trkpt><trkpt lat="43.3976951" lon="13.2957555"><ele>124.0</ele><time>2026-05-01T12:56:52.81Z</time></trkpt><trkpt lat="43.3977184" lon="13.2959177"><ele>124.0</ele><time>2026-05-01T12:56:53.81Z</time></trkpt><trkpt lat="43.3977107" lon="13.2960904"><ele>124.0</ele><time>2026-05-01T12:56:54.81Z</time></trkpt><trkpt lat="43.3976749" lon="13.296269"><ele>124.0</ele><time>2026-05-01T12:56:55.81Z</time></trkpt><trkpt lat="43.3976196" lon="13.296455"><ele>124.0</ele><time>2026-05-01T12:56:56.81Z</time></trkpt><trkpt lat="43.3975553" lon="13.2966503"><ele>125.66666666666667</ele><time>2026-05-01T12:56:57.809Z</time></trkpt><trkpt lat="43.3974864" lon="13.2968503"><ele>127.33333333333334</ele><time>2026-05-01T12:56:58.809Z</time></trkpt><trkpt lat="43.3974164" lon="13.2970532"><ele>129.0</ele><time>2026-05-01T12:56:59.811Z</time></trkpt><trkpt lat="43.3973404" lon="13.2972586"><ele>130.33333333333334</ele><time>2026-05-01T12:57:00.809Z</time></trkpt><trkpt lat="43.3972631" lon="13.2974674"><ele>131.66666666666669</ele><time>2026-05-01T12:57:01.81Z</time></trkpt><trkpt lat="43.3971943" lon="13.2976709"><ele>133.0</ele><time>2026-05-01T12:57:02.809Z</time></trkpt><trkpt lat="43.3971267" lon="13.2978663"><ele>132.25</ele><time>2026-05-01T12:57:03.81Z</time></trkpt><trkpt lat="43.3970604" lon="13.2980551"><ele>131.5</ele><time>2026-05-01T12:57:04.809Z</time></trkpt><trkpt lat="43.3969956" lon="13.2982351"><ele>130.75</ele><time>2026-05-01T12:57:05.81Z</time></trkpt><trkpt lat="43.3969348" lon="13.2984126"><ele>130.0</ele><time>2026-05-01T12:57:06.809Z</time></trkpt><trkpt lat="43.3968771" lon="13.2985883"><ele>130.0</ele><time>2026-05-01T12:57:07.81Z</time></trkpt><trkpt lat="43.3968239" lon="13.2987589"><ele>130.0</ele><time>2026-05-01T12:57:08.809Z</time></trkpt><trkpt lat="43.3967808" lon="13.2989135"><ele>130.0</ele><time>2026-05-01T12:57:09.809Z</time></trkpt><trkpt lat="43.3967486" lon="13.2990357"><ele>130.0</ele><time>2026-05-01T12:57:10.809Z</time></trkpt><trkpt lat="43.396725" lon="13.2991506"><ele>130.0</ele><time>2026-05-01T12:57:11.81Z</time></trkpt><trkpt lat="43.3967058" lon="13.2992619"><ele>130.33333333333334</ele><time>2026-05-01T12:57:12.81Z</time></trkpt><trkpt lat="43.3966913" lon="13.2993676"><ele>130.66666666666669</ele><time>2026-05-01T12:57:13.811Z</time></trkpt><trkpt lat="43.396676" lon="13.2994721"><ele>131.0</ele><time>2026-05-01T12:57:14.809Z</time></trkpt><trkpt lat="43.3966595" lon="13.2995754"><ele>131.33333333333334</ele><time>2026-05-01T12:57:15.81Z</time></trkpt><trkpt lat="43.3966404" lon="13.2996782"><ele>131.66666666666666</ele><time>2026-05-01T12:57:16.811Z</time></trkpt><trkpt lat="43.3966204" lon="13.2997879"><ele>132.0</ele><time>2026-05-01T12:57:17.81Z</time></trkpt><trkpt lat="43.3966022" lon="13.2998994"><ele>132.0</ele><time>2026-05-01T12:57:18.809Z</time></trkpt><trkpt lat="43.3965818" lon="13.3000118"><ele>132.0</ele><time>2026-05-01T12:57:19.809Z</time></trkpt><trkpt lat="43.3965626" lon="13.3001295"><ele>132.0</ele><time>2026-05-01T12:57:20.81Z</time></trkpt><trkpt lat="43.396544" lon="13.3002489"><ele>132.0</ele><time>2026-05-01T12:57:21.81Z</time></trkpt><trkpt lat="43.3965233" lon="13.3003674"><ele>132.0</ele><time>2026-05-01T12:57:22.81Z</time></trkpt><trkpt lat="43.3964999" lon="13.3004814"><ele>132.0</ele><time>2026-05-01T12:57:23.81Z</time></trkpt><trkpt lat="43.3964762" lon="13.3005936"><ele>132.0</ele><time>2026-05-01T12:57:24.809Z</time></trkpt><trkpt lat="43.3964561" lon="13.3007083"><ele>132.0</ele><time>2026-05-01T12:57:25.809Z</time></trkpt><trkpt lat="43.3964371" lon="13.3008188"><ele>132.0</ele><time>2026-05-01T12:57:26.809Z</time></trkpt><trkpt lat="43.3964165" lon="13.3009311"><ele>132.0</ele><time>2026-05-01T12:57:27.81Z</time></trkpt><trkpt lat="43.3963956" lon="13.3010462"><ele>132.0</ele><time>2026-05-01T12:57:28.81Z</time></trkpt><trkpt lat="43.3963762" lon="13.3011599"><ele>132.0</ele><time>2026-05-01T12:57:29.811Z</time></trkpt><trkpt lat="43.3963562" lon="13.3012707"><ele>130.83333333333334</ele><time>2026-05-01T12:57:30.81Z</time></trkpt><trkpt lat="43.3963354" lon="13.3013867"><ele>129.66666666666666</ele><time>2026-05-01T12:57:31.81Z</time></trkpt><trkpt lat="43.3963179" lon="13.3015025"><ele>128.5</ele><time>2026-05-01T12:57:32.809Z</time></trkpt><trkpt lat="43.3963057" lon="13.301621"><ele>127.33333333333333</ele><time>2026-05-01T12:57:33.81Z</time></trkpt><trkpt lat="43.3962918" lon="13.301743"><ele>126.16666666666666</ele><time>2026-05-01T12:57:34.81Z</time></trkpt><trkpt lat="43.396277" lon="13.3018647"><ele>125.0</ele><time>2026-05-01T12:57:35.809Z</time></trkpt><trkpt lat="43.396261" lon="13.3019809"><ele>124.99999999999999</ele><time>2026-05-01T12:57:36.809Z</time></trkpt><trkpt lat="43.3962494" lon="13.3020972"><ele>125.0</ele><time>2026-05-01T12:57:37.81Z</time></trkpt><trkpt lat="43.3962422" lon="13.3022123"><ele>125.0</ele><time>2026-05-01T12:57:38.81Z</time></trkpt><trkpt lat="43.3962342" lon="13.3023311"><ele>125.0</ele><time>2026-05-01T12:57:39.81Z</time></trkpt><trkpt lat="43.39623" lon="13.3024433"><ele>124.99999999999999</ele><time>2026-05-01T12:57:40.809Z</time></trkpt><trkpt lat="43.3962227" lon="13.3025531"><ele>125.0</ele><time>2026-05-01T12:57:41.81Z</time></trkpt><trkpt lat="43.3962128" lon="13.3026469"><ele>124.83333333333333</ele><time>2026-05-01T12:57:42.81Z</time></trkpt><trkpt lat="43.3962201" lon="13.3027798"><ele>124.66666666666666</ele><time>2026-05-01T12:57:44.81Z</time></trkpt><trkpt lat="43.3962847" lon="13.3028413"><ele>124.5</ele><time>2026-05-01T12:57:46.809Z</time></trkpt><trkpt lat="43.3963572" lon="13.3028745"><ele>124.33333333333334</ele><time>2026-05-01T12:57:48.809Z</time></trkpt><trkpt lat="43.3964241" lon="13.3029045"><ele>124.16666666666667</ele><time>2026-05-01T12:57:50.809Z</time></trkpt><trkpt lat="43.3964929" lon="13.3029204"><ele>124.0</ele><time>2026-05-01T12:57:53.809Z</time></trkpt><trkpt lat="43.3964533" lon="13.3028481"><ele>124.00000000000001</ele><time>2026-05-01T12:58:34.809Z</time></trkpt><trkpt lat="43.3963831" lon="13.3028602"><ele>124.0</ele><time>2026-05-01T12:58:36.808Z</time></trkpt><trkpt lat="43.3963114" lon="13.3028419"><ele>124.0</ele><time>2026-05-01T12:58:38.809Z</time></trkpt><trkpt lat="43.3962415" lon="13.3027877"><ele>124.0</ele><time>2026-05-01T12:58:41.81Z</time></trkpt><trkpt lat="43.3962314" lon="13.302702"><ele>124.00000000000001</ele><time>2026-05-01T12:58:43.809Z</time></trkpt><trkpt lat="43.3962351" lon="13.3025613"><ele>124.0</ele><time>2026-05-01T12:58:45.809Z</time></trkpt><trkpt lat="43.3962465" lon="13.3024168"><ele>124.0</ele><time>2026-05-01T12:58:47.809Z</time></trkpt><trkpt lat="43.3962665" lon="13.3022659"><ele>124.0</ele><time>2026-05-01T12:58:49.809Z</time></trkpt><trkpt lat="43.3962826" lon="13.3021264"><ele>124.0</ele><time>2026-05-01T12:58:51.809Z</time></trkpt><trkpt lat="43.396301" lon="13.3019648"><ele>124.0</ele><time>2026-05-01T12:58:53.809Z</time></trkpt><trkpt lat="43.3963191" lon="13.3018011"><ele>125.33333333333334</ele><time>2026-05-01T12:58:55.808Z</time></trkpt><trkpt lat="43.3963379" lon="13.3016286"><ele>126.66666666666667</ele><time>2026-05-01T12:58:57.809Z</time></trkpt><trkpt lat="43.3963514" lon="13.3015388"><ele>128.0</ele><time>2026-05-01T12:58:58.809Z</time></trkpt><trkpt lat="43.3963635" lon="13.3014466"><ele>129.33333333333334</ele><time>2026-05-01T12:58:59.809Z</time></trkpt><trkpt lat="43.3963736" lon="13.3013519"><ele>130.66666666666666</ele><time>2026-05-01T12:59:00.809Z</time></trkpt><trkpt lat="43.3963887" lon="13.301248"><ele>132.0</ele><time>2026-05-01T12:59:01.809Z</time></trkpt><trkpt lat="43.3964045" lon="13.3011489"><ele>132.0</ele><time>2026-05-01T12:59:02.809Z</time></trkpt><trkpt lat="43.3964213" lon="13.3010505"><ele>132.0</ele><time>2026-05-01T12:59:03.809Z</time></trkpt><trkpt lat="43.396437" lon="13.3009514"><ele>132.0</ele><time>2026-05-01T12:59:04.808Z</time></trkpt><trkpt lat="43.3964524" lon="13.300848"><ele>132.0</ele><time>2026-05-01T12:59:05.809Z</time></trkpt><trkpt lat="43.3964718" lon="13.3007425"><ele>132.0</ele><time>2026-05-01T12:59:06.809Z</time></trkpt><trkpt lat="43.3964896" lon="13.3006383"><ele>132.0</ele><time>2026-05-01T12:59:07.81Z</time></trkpt><trkpt lat="43.3965092" lon="13.30053"><ele>132.16666666666666</ele><time>2026-05-01T12:59:08.809Z</time></trkpt><trkpt lat="43.3965304" lon="13.3004183"><ele>132.33333333333334</ele><time>2026-05-01T12:59:09.809Z</time></trkpt><trkpt lat="43.3965517" lon="13.3003077"><ele>132.5</ele><time>2026-05-01T12:59:10.809Z</time></trkpt><trkpt lat="43.3965706" lon="13.3001934"><ele>132.66666666666669</ele><time>2026-05-01T12:59:11.808Z</time></trkpt><trkpt lat="43.3965906" lon="13.3000762"><ele>132.83333333333334</ele><time>2026-05-01T12:59:12.809Z</time></trkpt><trkpt lat="43.3966096" lon="13.2999573"><ele>133.0</ele><time>2026-05-01T12:59:13.809Z</time></trkpt><trkpt lat="43.396627" lon="13.2998353"><ele>132.8</ele><time>2026-05-01T12:59:14.808Z</time></trkpt><trkpt lat="43.396647" lon="13.2997111"><ele>132.60000000000002</ele><time>2026-05-01T12:59:15.809Z</time></trkpt><trkpt lat="43.3966685" lon="13.2995879"><ele>132.39999999999998</ele><time>2026-05-01T12:59:16.81Z</time></trkpt><trkpt lat="43.3966892" lon="13.2994632"><ele>132.2</ele><time>2026-05-01T12:59:17.809Z</time></trkpt><trkpt lat="43.396712" lon="13.2993368"><ele>132.0</ele><time>2026-05-01T12:59:18.809Z</time></trkpt><trkpt lat="43.3967376" lon="13.2992054"><ele>132.0</ele><time>2026-05-01T12:59:19.808Z</time></trkpt><trkpt lat="43.396765" lon="13.2990759"><ele>132.0</ele><time>2026-05-01T12:59:20.809Z</time></trkpt><trkpt lat="43.3967956" lon="13.2989435"><ele>132.0</ele><time>2026-05-01T12:59:21.809Z</time></trkpt><trkpt lat="43.3968315" lon="13.2988059"><ele>132.0</ele><time>2026-05-01T12:59:22.808Z</time></trkpt><trkpt lat="43.3968722" lon="13.2986618"><ele>132.0</ele><time>2026-05-01T12:59:23.809Z</time></trkpt><trkpt lat="43.3969178" lon="13.2985133"><ele>131.5</ele><time>2026-05-01T12:59:24.809Z</time></trkpt><trkpt lat="43.3969676" lon="13.2983643"><ele>131.0</ele><time>2026-05-01T12:59:25.809Z</time></trkpt><trkpt lat="43.3970208" lon="13.2982148"><ele>130.5</ele><time>2026-05-01T12:59:26.809Z</time></trkpt><trkpt lat="43.3970757" lon="13.2980605"><ele>130.0</ele><time>2026-05-01T12:59:27.809Z</time></trkpt><trkpt lat="43.3971306" lon="13.2978999"><ele>130.75</ele><time>2026-05-01T12:59:28.808Z</time></trkpt><trkpt lat="43.3971874" lon="13.2977458"><ele>131.5</ele><time>2026-05-01T12:59:29.809Z</time></trkpt><trkpt lat="43.3972427" lon="13.2975919"><ele>132.25</ele><time>2026-05-01T12:59:30.808Z</time></trkpt><trkpt lat="43.3972956" lon="13.2974395"><ele>133.0</ele><time>2026-05-01T12:59:31.809Z</time></trkpt><trkpt lat="43.3973511" lon="13.2972877"><ele>132.0</ele><time>2026-05-01T12:59:32.809Z</time></trkpt><trkpt lat="43.3974039" lon="13.2971403"><ele>131.0</ele><time>2026-05-01T12:59:33.81Z</time></trkpt><trkpt lat="43.3974568" lon="13.2969913"><ele>130.0</ele><time>2026-05-01T12:59:34.809Z</time></trkpt><trkpt lat="43.3975112" lon="13.296843"><ele>129.0</ele><time>2026-05-01T12:59:35.809Z</time></trkpt><trkpt lat="43.3975629" lon="13.2966911"><ele>129.0</ele><time>2026-05-01T12:59:36.809Z</time></trkpt><trkpt lat="43.3976153" lon="13.2965388"><ele>129.0</ele><time>2026-05-01T12:59:37.81Z</time></trkpt><trkpt lat="43.3976646" lon="13.2963895"><ele>129.0</ele><time>2026-05-01T12:59:38.809Z</time></trkpt><trkpt lat="43.3977022" lon="13.2962382"><ele>129.0</ele><time>2026-05-01T12:59:39.809Z</time></trkpt><trkpt lat="43.3977296" lon="13.2960855"><ele>127.75</ele><time>2026-05-01T12:59:40.809Z</time></trkpt><trkpt lat="43.397738" lon="13.2959308"><ele>126.5</ele><time>2026-05-01T12:59:41.808Z</time></trkpt><trkpt lat="43.3977229" lon="13.2957736"><ele>125.25</ele><time>2026-05-01T12:59:42.809Z</time></trkpt><trkpt lat="43.3976686" lon="13.2956263"><ele>124.0</ele><time>2026-05-01T12:59:43.809Z</time></trkpt><trkpt lat="43.3975815" lon="13.2954936"><ele>124.0</ele><time>2026-05-01T12:59:44.809Z</time></trkpt><trkpt lat="43.3974699" lon="13.2953706"><ele>124.0</ele><time>2026-05-01T12:59:45.809Z</time></trkpt><trkpt lat="43.397348" lon="13.2952473"><ele>124.0</ele><time>2026-05-01T12:59:46.809Z</time></trkpt><trkpt lat="43.3972302" lon="13.2951261"><ele>124.0</ele><time>2026-05-01T12:59:47.809Z</time></trkpt><trkpt lat="43.397115" lon="13.2950003"><ele>124.66666666666667</ele><time>2026-05-01T12:59:48.809Z</time></trkpt><trkpt lat="43.3970018" lon="13.2948619"><ele>125.33333333333334</ele><time>2026-05-01T12:59:49.809Z</time></trkpt><trkpt lat="43.3969011" lon="13.2947035"><ele>126.0</ele><time>2026-05-01T12:59:50.808Z</time></trkpt><trkpt lat="43.3968169" lon="13.294518"><ele>127.33333333333334</ele><time>2026-05-01T12:59:51.809Z</time></trkpt><trkpt lat="43.3967503" lon="13.2943118"><ele>128.66666666666669</ele><time>2026-05-01T12:59:52.808Z</time></trkpt><trkpt lat="43.3966964" lon="13.294102"><ele>130.0</ele><time>2026-05-01T12:59:53.809Z</time></trkpt><trkpt lat="43.3966478" lon="13.2938821"><ele>131.33333333333334</ele><time>2026-05-01T12:59:54.809Z</time></trkpt><trkpt lat="43.3966009" lon="13.2936559"><ele>132.66666666666666</ele><time>2026-05-01T12:59:55.808Z</time></trkpt><trkpt lat="43.3965552" lon="13.2934284"><ele>134.0</ele><time>2026-05-01T12:59:56.809Z</time></trkpt><trkpt lat="43.396502" lon="13.2932028"><ele>135.66666666666666</ele><time>2026-05-01T12:59:57.81Z</time></trkpt><trkpt lat="43.3964508" lon="13.2929735"><ele>137.33333333333334</ele><time>2026-05-01T12:59:58.808Z</time></trkpt><trkpt lat="43.3963954" lon="13.2927406"><ele>139.0</ele><time>2026-05-01T12:59:59.808Z</time></trkpt><trkpt lat="43.3963428" lon="13.2924997"><ele>138.33333333333334</ele><time>2026-05-01T13:00:00.808Z</time></trkpt><trkpt lat="43.3962883" lon="13.2922592"><ele>137.66666666666666</ele><time>2026-05-01T13:00:01.81Z</time></trkpt><trkpt lat="43.3962366" lon="13.2920227"><ele>137.0</ele><time>2026-05-01T13:00:02.808Z</time></trkpt><trkpt lat="43.396187" lon="13.2917877"><ele>137.0</ele><time>2026-05-01T13:00:03.809Z</time></trkpt><trkpt lat="43.3961383" lon="13.2915497"><ele>137.0</ele><time>2026-05-01T13:00:04.809Z</time></trkpt><trkpt lat="43.3960912" lon="13.2913094"><ele>137.0</ele><time>2026-05-01T13:00:05.81Z</time></trkpt><trkpt lat="43.3960395" lon="13.2910698"><ele>138.33333333333331</ele><time>2026-05-01T13:00:06.809Z</time></trkpt><trkpt lat="43.3959879" lon="13.2908319"><ele>139.66666666666666</ele><time>2026-05-01T13:00:07.808Z</time></trkpt><trkpt lat="43.39594" lon="13.2905882"><ele>141.0</ele><time>2026-05-01T13:00:08.81Z</time></trkpt><trkpt lat="43.3958883" lon="13.290344"><ele>142.33333333333334</ele><time>2026-05-01T13:00:09.809Z</time></trkpt><trkpt lat="43.3958385" lon="13.2900994"><ele>143.66666666666669</ele><time>2026-05-01T13:00:10.809Z</time></trkpt><trkpt lat="43.3957908" lon="13.2898462"><ele>145.0</ele><time>2026-05-01T13:00:11.808Z</time></trkpt><trkpt lat="43.3957482" lon="13.2895931"><ele>145.0</ele><time>2026-05-01T13:00:12.809Z</time></trkpt><trkpt lat="43.3957043" lon="13.2893385"><ele>145.0</ele><time>2026-05-01T13:00:13.81Z</time></trkpt><trkpt lat="43.3956604" lon="13.2890803"><ele>145.0</ele><time>2026-05-01T13:00:14.809Z</time></trkpt><trkpt lat="43.3956171" lon="13.288821"><ele>144.66666666666669</ele><time>2026-05-01T13:00:15.808Z</time></trkpt><trkpt lat="43.3955747" lon="13.2885651"><ele>144.33333333333334</ele><time>2026-05-01T13:00:16.809Z</time></trkpt><trkpt lat="43.3955321" lon="13.2883123"><ele>144.0</ele><time>2026-05-01T13:00:17.809Z</time></trkpt><trkpt lat="43.395489" lon="13.2880625"><ele>144.0</ele><time>2026-05-01T13:00:18.809Z</time></trkpt><trkpt lat="43.3954491" lon="13.2878119"><ele>144.0</ele><time>2026-05-01T13:00:19.809Z</time></trkpt><trkpt lat="43.3954095" lon="13.2875646"><ele>144.0</ele><time>2026-05-01T13:00:20.809Z</time></trkpt><trkpt lat="43.3953692" lon="13.2873243"><ele>145.0</ele><time>2026-05-01T13:00:21.808Z</time></trkpt><trkpt lat="43.3953316" lon="13.287091"><ele>146.0</ele><time>2026-05-01T13:00:22.808Z</time></trkpt><trkpt lat="43.3952966" lon="13.2868644"><ele>147.0</ele><time>2026-05-01T13:00:23.809Z</time></trkpt><trkpt lat="43.3952612" lon="13.2866398"><ele>147.0</ele><time>2026-05-01T13:00:24.809Z</time></trkpt><trkpt lat="43.3952263" lon="13.2864164"><ele>147.0</ele><time>2026-05-01T13:00:25.809Z</time></trkpt><trkpt lat="43.3951898" lon="13.286206"><ele>147.0</ele><time>2026-05-01T13:00:26.809Z</time></trkpt><trkpt lat="43.3951505" lon="13.2860009"><ele>147.0</ele><time>2026-05-01T13:00:27.81Z</time></trkpt><trkpt lat="43.3951015" lon="13.285803"><ele>147.0</ele><time>2026-05-01T13:00:28.81Z</time></trkpt><trkpt lat="43.3950361" lon="13.2856102"><ele>147.0</ele><time>2026-05-01T13:00:29.809Z</time></trkpt><trkpt lat="43.3949635" lon="13.2854317"><ele>148.33333333333334</ele><time>2026-05-01T13:00:30.809Z</time></trkpt><trkpt lat="43.3948829" lon="13.2852523"><ele>149.66666666666669</ele><time>2026-05-01T13:00:31.808Z</time></trkpt><trkpt lat="43.3947999" lon="13.2850697"><ele>151.0</ele><time>2026-05-01T13:00:32.809Z</time></trkpt><trkpt lat="43.3947138" lon="13.2848857"><ele>151.66666666666669</ele><time>2026-05-01T13:00:33.809Z</time></trkpt><trkpt lat="43.3946237" lon="13.2847046"><ele>152.33333333333334</ele><time>2026-05-01T13:00:34.808Z</time></trkpt><trkpt lat="43.3945354" lon="13.2845199"><ele>153.0</ele><time>2026-05-01T13:00:35.809Z</time></trkpt><trkpt lat="43.3944446" lon="13.2843348"><ele>153.0</ele><time>2026-05-01T13:00:36.808Z</time></trkpt><trkpt lat="43.3943576" lon="13.2841513"><ele>153.0</ele><time>2026-05-01T13:00:37.808Z</time></trkpt><trkpt lat="43.3942744" lon="13.2839686"><ele>153.0</ele><time>2026-05-01T13:00:38.809Z</time></trkpt><trkpt lat="43.3941926" lon="13.2837905"><ele>153.25</ele><time>2026-05-01T13:00:39.809Z</time></trkpt><trkpt lat="43.3941105" lon="13.2836178"><ele>153.5</ele><time>2026-05-01T13:00:40.809Z</time></trkpt><trkpt lat="43.3940291" lon="13.2834466"><ele>153.75</ele><time>2026-05-01T13:00:41.809Z</time></trkpt><trkpt lat="43.3939488" lon="13.283278"><ele>154.0</ele><time>2026-05-01T13:00:42.809Z</time></trkpt><trkpt lat="43.393871" lon="13.2831076"><ele>154.5</ele><time>2026-05-01T13:00:43.807Z</time></trkpt><trkpt lat="43.3937939" lon="13.2829392"><ele>155.0</ele><time>2026-05-01T13:00:44.809Z</time></trkpt><trkpt lat="43.393717" lon="13.2827709"><ele>155.5</ele><time>2026-05-01T13:00:45.809Z</time></trkpt><trkpt lat="43.3936381" lon="13.282602"><ele>156.0</ele><time>2026-05-01T13:00:46.808Z</time></trkpt><trkpt lat="43.3935567" lon="13.2824349"><ele>156.0</ele><time>2026-05-01T13:00:47.808Z</time></trkpt><trkpt lat="43.3934739" lon="13.2822676"><ele>156.0</ele><time>2026-05-01T13:00:48.808Z</time></trkpt><trkpt lat="43.3933938" lon="13.2820988"><ele>156.0</ele><time>2026-05-01T13:00:49.809Z</time></trkpt><trkpt lat="43.3933136" lon="13.2819318"><ele>156.0</ele><time>2026-05-01T13:00:50.809Z</time></trkpt><trkpt lat="43.3932348" lon="13.2817663"><ele>156.0</ele><time>2026-05-01T13:00:51.809Z</time></trkpt><trkpt lat="43.3931553" lon="13.2816011"><ele>156.0</ele><time>2026-05-01T13:00:52.809Z</time></trkpt><trkpt lat="43.3930769" lon="13.2814375"><ele>156.0</ele><time>2026-05-01T13:00:53.808Z</time></trkpt><trkpt lat="43.3929979" lon="13.2812709"><ele>156.0</ele><time>2026-05-01T13:00:54.809Z</time></trkpt><trkpt lat="43.3929229" lon="13.2811134"><ele>157.5</ele><time>2026-05-01T13:00:55.809Z</time></trkpt><trkpt lat="43.3928508" lon="13.280963"><ele>159.0</ele><time>2026-05-01T13:00:56.81Z</time></trkpt><trkpt lat="43.3927785" lon="13.2808053"><ele>160.5</ele><time>2026-05-01T13:00:57.809Z</time></trkpt><trkpt lat="43.3927074" lon="13.2806575"><ele>162.0</ele><time>2026-05-01T13:00:58.809Z</time></trkpt><trkpt lat="43.3926355" lon="13.2805113"><ele>162.2</ele><time>2026-05-01T13:00:59.809Z</time></trkpt><trkpt lat="43.3925712" lon="13.2803793"><ele>162.39999999999998</ele><time>2026-05-01T13:01:00.808Z</time></trkpt><trkpt lat="43.3925106" lon="13.2802559"><ele>162.60000000000002</ele><time>2026-05-01T13:01:01.809Z</time></trkpt><trkpt lat="43.3924566" lon="13.2801415"><ele>162.8</ele><time>2026-05-01T13:01:02.809Z</time></trkpt><trkpt lat="43.3924063" lon="13.2800377"><ele>163.0</ele><time>2026-05-01T13:01:03.808Z</time></trkpt><trkpt lat="43.3923671" lon="13.2799465"><ele>163.0</ele><time>2026-05-01T13:01:04.808Z</time></trkpt><trkpt lat="43.3923458" lon="13.2798015"><ele>163.0</ele><time>2026-05-01T13:01:06.808Z</time></trkpt><trkpt lat="43.3924253" lon="13.2797318"><ele>163.0</ele><time>2026-05-01T13:01:08.809Z</time></trkpt><trkpt lat="43.3924883" lon="13.279707"><ele>163.0</ele><time>2026-05-01T13:01:09.809Z</time></trkpt><trkpt lat="43.3925539" lon="13.2796786"><ele>163.0</ele><time>2026-05-01T13:01:10.808Z</time></trkpt><trkpt lat="43.3926291" lon="13.279646"><ele>163.0</ele><time>2026-05-01T13:01:11.809Z</time></trkpt><trkpt lat="43.3927144" lon="13.2796036"><ele>163.16666666666669</ele><time>2026-05-01T13:01:12.809Z</time></trkpt><trkpt lat="43.392803" lon="13.2795623"><ele>163.33333333333334</ele><time>2026-05-01T13:01:13.809Z</time></trkpt><trkpt lat="43.3928867" lon="13.2795172"><ele>163.5</ele><time>2026-05-01T13:01:14.809Z</time></trkpt><trkpt lat="43.3929689" lon="13.2794668"><ele>163.66666666666666</ele><time>2026-05-01T13:01:15.808Z</time></trkpt><trkpt lat="43.3930451" lon="13.2794125"><ele>163.83333333333331</ele><time>2026-05-01T13:01:16.809Z</time></trkpt><trkpt lat="43.3931184" lon="13.2793551"><ele>164.0</ele><time>2026-05-01T13:01:17.809Z</time></trkpt><trkpt lat="43.3931897" lon="13.2792907"><ele>162.66666666666666</ele><time>2026-05-01T13:01:18.809Z</time></trkpt><trkpt lat="43.393259" lon="13.2792221"><ele>161.33333333333331</ele><time>2026-05-01T13:01:19.809Z</time></trkpt><trkpt lat="43.3933257" lon="13.2791468"><ele>160.0</ele><time>2026-05-01T13:01:20.808Z</time></trkpt><trkpt lat="43.3933905" lon="13.2790598"><ele>158.66666666666666</ele><time>2026-05-01T13:01:21.808Z</time></trkpt><trkpt lat="43.3934563" lon="13.278974"><ele>157.33333333333334</ele><time>2026-05-01T13:01:22.808Z</time></trkpt><trkpt lat="43.3935254" lon="13.2788904"><ele>156.0</ele><time>2026-05-01T13:01:23.808Z</time></trkpt><trkpt lat="43.3935969" lon="13.2788065"><ele>155.8</ele><time>2026-05-01T13:01:24.809Z</time></trkpt><trkpt lat="43.3936727" lon="13.2787192"><ele>155.6</ele><time>2026-05-01T13:01:25.809Z</time></trkpt><trkpt lat="43.3937531" lon="13.2786312"><ele>155.4</ele><time>2026-05-01T13:01:26.808Z</time></trkpt><trkpt lat="43.3938286" lon="13.2785426"><ele>155.2</ele><time>2026-05-01T13:01:27.809Z</time></trkpt><trkpt lat="43.3939071" lon="13.2784553"><ele>155.0</ele><time>2026-05-01T13:01:28.808Z</time></trkpt><trkpt lat="43.3939852" lon="13.2783634"><ele>153.2</ele><time>2026-05-01T13:01:29.809Z</time></trkpt><trkpt lat="43.3940601" lon="13.2782669"><ele>151.4</ele><time>2026-05-01T13:01:30.808Z</time></trkpt><trkpt lat="43.3941321" lon="13.2781792"><ele>149.6</ele><time>2026-05-01T13:01:31.808Z</time></trkpt><trkpt lat="43.3942079" lon="13.2781048"><ele>147.8</ele><time>2026-05-01T13:01:32.808Z</time></trkpt><trkpt lat="43.394288" lon="13.2780346"><ele>146.0</ele><time>2026-05-01T13:01:33.809Z</time></trkpt><trkpt lat="43.3943732" lon="13.2779715"><ele>146.0</ele><time>2026-05-01T13:01:34.809Z</time></trkpt><trkpt lat="43.3944579" lon="13.2779077"><ele>146.0</ele><time>2026-05-01T13:01:35.808Z</time></trkpt><trkpt lat="43.3945432" lon="13.277844"><ele>146.0</ele><time>2026-05-01T13:01:36.81Z</time></trkpt><trkpt lat="43.3946292" lon="13.2777731"><ele>146.0</ele><time>2026-05-01T13:01:37.808Z</time></trkpt><trkpt lat="43.3947138" lon="13.2776865"><ele>146.0</ele><time>2026-05-01T13:01:38.809Z</time></trkpt><trkpt lat="43.394802" lon="13.2775978"><ele>144.0</ele><time>2026-05-01T13:01:39.809Z</time></trkpt><trkpt lat="43.3948933" lon="13.2775141"><ele>142.0</ele><time>2026-05-01T13:01:40.808Z</time></trkpt><trkpt lat="43.3949891" lon="13.2774449"><ele>140.0</ele><time>2026-05-01T13:01:41.809Z</time></trkpt><trkpt lat="43.3950839" lon="13.2774002"><ele>138.0</ele><time>2026-05-01T13:01:42.809Z</time></trkpt><trkpt lat="43.3951739" lon="13.2773973"><ele>136.0</ele><time>2026-05-01T13:01:43.809Z</time></trkpt><trkpt lat="43.3952543" lon="13.2774375"><ele>136.0</ele><time>2026-05-01T13:01:44.81Z</time></trkpt><trkpt lat="43.3953257" lon="13.2775114"><ele>136.0</ele><time>2026-05-01T13:01:45.809Z</time></trkpt><trkpt lat="43.3953873" lon="13.2775964"><ele>136.0</ele><time>2026-05-01T13:01:46.809Z</time></trkpt><trkpt lat="43.3954512" lon="13.277676"><ele>136.0</ele><time>2026-05-01T13:01:47.808Z</time></trkpt><trkpt lat="43.3955251" lon="13.2777294"><ele>136.0</ele><time>2026-05-01T13:01:48.809Z</time></trkpt><trkpt lat="43.3956088" lon="13.2777617"><ele>136.0</ele><time>2026-05-01T13:01:49.808Z</time></trkpt><trkpt lat="43.3957025" lon="13.277779"><ele>135.2</ele><time>2026-05-01T13:01:50.809Z</time></trkpt><trkpt lat="43.3957963" lon="13.2777818"><ele>134.39999999999998</ele><time>2026-05-01T13:01:51.808Z</time></trkpt><trkpt lat="43.3958926" lon="13.2777958"><ele>133.6</ele><time>2026-05-01T13:01:52.81Z</time></trkpt><trkpt lat="43.3959855" lon="13.2778073"><ele>132.79999999999998</ele><time>2026-05-01T13:01:53.809Z</time></trkpt><trkpt lat="43.3960764" lon="13.2778127"><ele>132.0</ele><time>2026-05-01T13:01:54.809Z</time></trkpt><trkpt lat="43.3961657" lon="13.2778151"><ele>132.0</ele><time>2026-05-01T13:01:55.808Z</time></trkpt><trkpt lat="43.3962531" lon="13.2778194"><ele>132.0</ele><time>2026-05-01T13:01:56.808Z</time></trkpt><trkpt lat="43.396338" lon="13.2778269"><ele>132.0</ele><time>2026-05-01T13:01:57.808Z</time></trkpt><trkpt lat="43.3964265" lon="13.2778367"><ele>132.0</ele><time>2026-05-01T13:01:58.809Z</time></trkpt><trkpt lat="43.3965158" lon="13.2778565"><ele>132.0</ele><time>2026-05-01T13:01:59.808Z</time></trkpt><trkpt lat="43.3966092" lon="13.27787"><ele>132.0</ele><time>2026-05-01T13:02:00.808Z</time></trkpt><trkpt lat="43.3967058" lon="13.2778849"><ele>134.2</ele><time>2026-05-01T13:02:01.808Z</time></trkpt><trkpt lat="43.3968019" lon="13.2779061"><ele>136.39999999999998</ele><time>2026-05-01T13:02:02.808Z</time></trkpt><trkpt lat="43.3969024" lon="13.277924"><ele>138.60000000000002</ele><time>2026-05-01T13:02:03.808Z</time></trkpt><trkpt lat="43.3970053" lon="13.2779255"><ele>140.8</ele><time>2026-05-01T13:02:04.808Z</time></trkpt><trkpt lat="43.3971088" lon="13.2779252"><ele>143.0</ele><time>2026-05-01T13:02:05.809Z</time></trkpt><trkpt lat="43.3972165" lon="13.2779433"><ele>145.20000000000002</ele><time>2026-05-01T13:02:06.808Z</time></trkpt><trkpt lat="43.3973251" lon="13.2779708"><ele>147.4</ele><time>2026-05-01T13:02:07.808Z</time></trkpt><trkpt lat="43.3974384" lon="13.2779919"><ele>149.60000000000002</ele><time>2026-05-01T13:02:08.808Z</time></trkpt><trkpt lat="43.3975524" lon="13.2780076"><ele>151.8</ele><time>2026-05-01T13:02:09.809Z</time></trkpt><trkpt lat="43.3976583" lon="13.2780242"><ele>154.0</ele><time>2026-05-01T13:02:10.809Z</time></trkpt><trkpt lat="43.3977604" lon="13.2780435"><ele>154.0</ele><time>2026-05-01T13:02:11.809Z</time></trkpt><trkpt lat="43.3978683" lon="13.2780561"><ele>154.0</ele><time>2026-05-01T13:02:12.809Z</time></trkpt><trkpt lat="43.3979776" lon="13.278067"><ele>154.0</ele><time>2026-05-01T13:02:13.809Z</time></trkpt><trkpt lat="43.3980877" lon="13.2780813"><ele>154.0</ele><time>2026-05-01T13:02:14.808Z</time></trkpt><trkpt lat="43.3981949" lon="13.2780989"><ele>154.0</ele><time>2026-05-01T13:02:15.809Z</time></trkpt><trkpt lat="43.3983055" lon="13.2781213"><ele>155.0</ele><time>2026-05-01T13:02:16.808Z</time></trkpt><trkpt lat="43.3984153" lon="13.2781318"><ele>156.0</ele><time>2026-05-01T13:02:17.808Z</time></trkpt><trkpt lat="43.3985276" lon="13.2781461"><ele>157.0</ele><time>2026-05-01T13:02:18.809Z</time></trkpt><trkpt lat="43.3986397" lon="13.2781596"><ele>158.0</ele><time>2026-05-01T13:02:19.81Z</time></trkpt><trkpt lat="43.3987548" lon="13.2781673"><ele>159.75</ele><time>2026-05-01T13:02:20.809Z</time></trkpt><trkpt lat="43.3988712" lon="13.2781677"><ele>161.5</ele><time>2026-05-01T13:02:21.809Z</time></trkpt><trkpt lat="43.3989921" lon="13.278158"><ele>163.25</ele><time>2026-05-01T13:02:22.808Z</time></trkpt><trkpt lat="43.3991165" lon="13.2781472"><ele>165.0</ele><time>2026-05-01T13:02:23.809Z</time></trkpt><trkpt lat="43.3992398" lon="13.2781344"><ele>165.0</ele><time>2026-05-01T13:02:24.809Z</time></trkpt><trkpt lat="43.3993603" lon="13.2781166"><ele>165.0</ele><time>2026-05-01T13:02:25.809Z</time></trkpt><trkpt lat="43.3994829" lon="13.2780977"><ele>165.0</ele><time>2026-05-01T13:02:26.809Z</time></trkpt><trkpt lat="43.3996041" lon="13.2780785"><ele>165.0</ele><time>2026-05-01T13:02:27.81Z</time></trkpt><trkpt lat="43.3997238" lon="13.2780509"><ele>168.5</ele><time>2026-05-01T13:02:28.809Z</time></trkpt><trkpt lat="43.3998423" lon="13.2780246"><ele>172.0</ele><time>2026-05-01T13:02:29.808Z</time></trkpt><trkpt lat="43.3999619" lon="13.2779983"><ele>175.5</ele><time>2026-05-01T13:02:30.809Z</time></trkpt><trkpt lat="43.4000807" lon="13.2779642"><ele>179.0</ele><time>2026-05-01T13:02:31.809Z</time></trkpt><trkpt lat="43.4001941" lon="13.2779329"><ele>179.0</ele><time>2026-05-01T13:02:32.808Z</time></trkpt><trkpt lat="43.4003067" lon="13.2778978"><ele>179.0</ele><time>2026-05-01T13:02:33.809Z</time></trkpt><trkpt lat="43.4004186" lon="13.2778625"><ele>179.0</ele><time>2026-05-01T13:02:34.808Z</time></trkpt><trkpt lat="43.4005345" lon="13.2778251"><ele>179.0</ele><time>2026-05-01T13:02:35.809Z</time></trkpt><trkpt lat="43.4006455" lon="13.2777943"><ele>179.0</ele><time>2026-05-01T13:02:36.809Z</time></trkpt><trkpt lat="43.4007587" lon="13.2777553"><ele>179.0</ele><time>2026-05-01T13:02:37.808Z</time></trkpt><trkpt lat="43.4008773" lon="13.2777166"><ele>179.0</ele><time>2026-05-01T13:02:38.809Z</time></trkpt><trkpt lat="43.400995" lon="13.2776763"><ele>179.0</ele><time>2026-05-01T13:02:39.808Z</time></trkpt><trkpt lat="43.4011068" lon="13.2776516"><ele>179.0</ele><time>2026-05-01T13:02:40.809Z</time></trkpt><trkpt lat="43.401216" lon="13.2776213"><ele>179.0</ele><time>2026-05-01T13:02:41.809Z</time></trkpt><trkpt lat="43.401323" lon="13.27759"><ele>179.0</ele><time>2026-05-01T13:02:42.809Z</time></trkpt><trkpt lat="43.401428" lon="13.2775598"><ele>179.0</ele><time>2026-05-01T13:02:43.809Z</time></trkpt><trkpt lat="43.4015371" lon="13.2775336"><ele>179.0</ele><time>2026-05-01T13:02:44.808Z</time></trkpt><trkpt lat="43.4016522" lon="13.2775098"><ele>180.25</ele><time>2026-05-01T13:02:45.808Z</time></trkpt><trkpt lat="43.4017668" lon="13.2774972"><ele>181.5</ele><time>2026-05-01T13:02:46.808Z</time></trkpt><trkpt lat="43.4018874" lon="13.2774885"><ele>182.75</ele><time>2026-05-01T13:02:47.809Z</time></trkpt><trkpt lat="43.402013" lon="13.2774853"><ele>184.0</ele><time>2026-05-01T13:02:48.809Z</time></trkpt><trkpt lat="43.4021465" lon="13.27749"><ele>185.39999999999998</ele><time>2026-05-01T13:02:49.808Z</time></trkpt><trkpt lat="43.4022697" lon="13.2775068"><ele>186.8</ele><time>2026-05-01T13:02:50.809Z</time></trkpt><trkpt lat="43.402384" lon="13.2775206"><ele>188.2</ele><time>2026-05-01T13:02:51.808Z</time></trkpt><trkpt lat="43.4024869" lon="13.2775408"><ele>189.60000000000002</ele><time>2026-05-01T13:02:52.809Z</time></trkpt><trkpt lat="43.4025823" lon="13.2775782"><ele>191.0</ele><time>2026-05-01T13:02:53.809Z</time></trkpt><trkpt lat="43.4026719" lon="13.2776302"><ele>191.0</ele><time>2026-05-01T13:02:54.808Z</time></trkpt><trkpt lat="43.4027566" lon="13.2776911"><ele>191.0</ele><time>2026-05-01T13:02:55.808Z</time></trkpt><trkpt lat="43.4028304" lon="13.2777503"><ele>191.0</ele><time>2026-05-01T13:02:56.81Z</time></trkpt><trkpt lat="43.4028953" lon="13.2777926"><ele>191.0</ele><time>2026-05-01T13:02:57.809Z</time></trkpt><trkpt lat="43.4029617" lon="13.2778244"><ele>191.0</ele><time>2026-05-01T13:02:58.809Z</time></trkpt><trkpt lat="43.4030337" lon="13.2778584"><ele>191.0</ele><time>2026-05-01T13:02:59.809Z</time></trkpt><trkpt lat="43.4031032" lon="13.2778758"><ele>192.57142857142858</ele><time>2026-05-01T13:03:00.808Z</time></trkpt><trkpt lat="43.4031759" lon="13.277888"><ele>194.14285714285714</ele><time>2026-05-01T13:03:01.809Z</time></trkpt><trkpt lat="43.4032457" lon="13.2778965"><ele>195.71428571428572</ele><time>2026-05-01T13:03:02.809Z</time></trkpt><trkpt lat="43.4033149" lon="13.2779135"><ele>197.28571428571428</ele><time>2026-05-01T13:03:03.809Z</time></trkpt><trkpt lat="43.4033871" lon="13.2779236"><ele>198.85714285714283</ele><time>2026-05-01T13:03:04.809Z</time></trkpt><trkpt lat="43.403459" lon="13.2779302"><ele>200.42857142857142</ele><time>2026-05-01T13:03:05.808Z</time></trkpt><trkpt lat="43.4035327" lon="13.2779389"><ele>202.0</ele><time>2026-05-01T13:03:06.809Z</time></trkpt><trkpt lat="43.4036106" lon="13.2779495"><ele>201.99999999999997</ele><time>2026-05-01T13:03:07.81Z</time></trkpt><trkpt lat="43.4036846" lon="13.2779557"><ele>202.0</ele><time>2026-05-01T13:03:08.809Z</time></trkpt><trkpt lat="43.4037586" lon="13.2779652"><ele>202.0</ele><time>2026-05-01T13:03:09.809Z</time></trkpt><trkpt lat="43.4038354" lon="13.2779778"><ele>202.0</ele><time>2026-05-01T13:03:10.809Z</time></trkpt><trkpt lat="43.4039111" lon="13.2779912"><ele>201.99999999999997</ele><time>2026-05-01T13:03:11.808Z</time></trkpt><trkpt lat="43.4039878" lon="13.2780095"><ele>202.0</ele><time>2026-05-01T13:03:12.809Z</time></trkpt><trkpt lat="43.4040696" lon="13.2780237"><ele>202.33333333333331</ele><time>2026-05-01T13:03:13.808Z</time></trkpt><trkpt lat="43.4041549" lon="13.2780358"><ele>202.66666666666666</ele><time>2026-05-01T13:03:14.809Z</time></trkpt><trkpt lat="43.4042425" lon="13.2780553"><ele>203.0</ele><time>2026-05-01T13:03:15.809Z</time></trkpt><trkpt lat="43.40433" lon="13.2780762"><ele>203.33333333333331</ele><time>2026-05-01T13:03:16.809Z</time></trkpt><trkpt lat="43.4044126" lon="13.2780939"><ele>203.66666666666666</ele><time>2026-05-01T13:03:17.809Z</time></trkpt><trkpt lat="43.4044918" lon="13.2781169"><ele>204.0</ele><time>2026-05-01T13:03:18.809Z</time></trkpt><trkpt lat="43.4045634" lon="13.2781419"><ele>204.0</ele><time>2026-05-01T13:03:19.809Z</time></trkpt><trkpt lat="43.4046358" lon="13.2781673"><ele>204.0</ele><time>2026-05-01T13:03:20.81Z</time></trkpt><trkpt lat="43.4047072" lon="13.2782049"><ele>204.0</ele><time>2026-05-01T13:03:21.808Z</time></trkpt><trkpt lat="43.4047863" lon="13.2782418"><ele>204.0</ele><time>2026-05-01T13:03:22.808Z</time></trkpt><trkpt lat="43.4048636" lon="13.2782848"><ele>204.0</ele><time>2026-05-01T13:03:23.809Z</time></trkpt><trkpt lat="43.4049347" lon="13.2783318"><ele>204.0</ele><time>2026-05-01T13:03:24.808Z</time></trkpt><trkpt lat="43.4050055" lon="13.2783778"><ele>204.33333333333334</ele><time>2026-05-01T13:03:25.808Z</time></trkpt><trkpt lat="43.4050708" lon="13.2784212"><ele>204.66666666666669</ele><time>2026-05-01T13:03:26.808Z</time></trkpt><trkpt lat="43.4051416" lon="13.2784676"><ele>205.0</ele><time>2026-05-01T13:03:27.809Z</time></trkpt><trkpt lat="43.4052146" lon="13.2785172"><ele>205.33333333333334</ele><time>2026-05-01T13:03:28.808Z</time></trkpt><trkpt lat="43.4052889" lon="13.2785725"><ele>205.66666666666669</ele><time>2026-05-01T13:03:29.808Z</time></trkpt><trkpt lat="43.4053622" lon="13.2786256"><ele>206.0</ele><time>2026-05-01T13:03:30.809Z</time></trkpt><trkpt lat="43.4054369" lon="13.278676"><ele>205.33333333333334</ele><time>2026-05-01T13:03:31.809Z</time></trkpt><trkpt lat="43.4055115" lon="13.278731"><ele>204.66666666666669</ele><time>2026-05-01T13:03:32.809Z</time></trkpt><trkpt lat="43.4055859" lon="13.2787825"><ele>204.0</ele><time>2026-05-01T13:03:33.808Z</time></trkpt><trkpt lat="43.4056623" lon="13.2788361"><ele>203.33333333333331</ele><time>2026-05-01T13:03:34.809Z</time></trkpt><trkpt lat="43.4057405" lon="13.2788909"><ele>202.66666666666666</ele><time>2026-05-01T13:03:35.809Z</time></trkpt><trkpt lat="43.4058199" lon="13.2789413"><ele>202.0</ele><time>2026-05-01T13:03:36.809Z</time></trkpt><trkpt lat="43.4059034" lon="13.2789922"><ele>201.2</ele><time>2026-05-01T13:03:37.809Z</time></trkpt><trkpt lat="43.4059888" lon="13.2790431"><ele>200.39999999999998</ele><time>2026-05-01T13:03:38.809Z</time></trkpt><trkpt lat="43.4060769" lon="13.2790945"><ele>199.60000000000002</ele><time>2026-05-01T13:03:39.808Z</time></trkpt><trkpt lat="43.4061659" lon="13.2791369"><ele>198.8</ele><time>2026-05-01T13:03:40.809Z</time></trkpt><trkpt lat="43.4062605" lon="13.2791728"><ele>198.0</ele><time>2026-05-01T13:03:41.809Z</time></trkpt><trkpt lat="43.4063576" lon="13.2792075"><ele>197.8</ele><time>2026-05-01T13:03:42.81Z</time></trkpt><trkpt lat="43.4064587" lon="13.2792423"><ele>197.60000000000002</ele><time>2026-05-01T13:03:43.809Z</time></trkpt><trkpt lat="43.4065614" lon="13.2792766"><ele>197.39999999999998</ele><time>2026-05-01T13:03:44.81Z</time></trkpt><trkpt lat="43.4066665" lon="13.279312"><ele>197.2</ele><time>2026-05-01T13:03:45.808Z</time></trkpt><trkpt lat="43.4067698" lon="13.2793548"><ele>197.0</ele><time>2026-05-01T13:03:46.809Z</time></trkpt><trkpt lat="43.4068747" lon="13.2793885"><ele>197.0</ele><time>2026-05-01T13:03:47.809Z</time></trkpt><trkpt lat="43.4069769" lon="13.2794249"><ele>197.0</ele><time>2026-05-01T13:03:48.808Z</time></trkpt><trkpt lat="43.4070826" lon="13.2794594"><ele>197.0</ele><time>2026-05-01T13:03:49.808Z</time></trkpt><trkpt lat="43.4071868" lon="13.279495"><ele>197.0</ele><time>2026-05-01T13:03:50.81Z</time></trkpt><trkpt lat="43.4072923" lon="13.2795249"><ele>197.0</ele><time>2026-05-01T13:03:51.809Z</time></trkpt><trkpt lat="43.4074029" lon="13.2795531"><ele>197.5</ele><time>2026-05-01T13:03:52.808Z</time></trkpt><trkpt lat="43.4075131" lon="13.2795869"><ele>198.0</ele><time>2026-05-01T13:03:53.808Z</time></trkpt><trkpt lat="43.4076274" lon="13.2796232"><ele>198.5</ele><time>2026-05-01T13:03:54.809Z</time></trkpt><trkpt lat="43.4077428" lon="13.2796551"><ele>199.0</ele><time>2026-05-01T13:03:55.808Z</time></trkpt><trkpt lat="43.4078611" lon="13.2796902"><ele>199.0</ele><time>2026-05-01T13:03:56.809Z</time></trkpt><trkpt lat="43.4079748" lon="13.2797282"><ele>199.0</ele><time>2026-05-01T13:03:57.809Z</time></trkpt><trkpt lat="43.4080858" lon="13.279756"><ele>199.0</ele><time>2026-05-01T13:03:58.808Z</time></trkpt><trkpt lat="43.4081945" lon="13.2797855"><ele>199.0</ele><time>2026-05-01T13:03:59.808Z</time></trkpt><trkpt lat="43.4082932" lon="13.2798154"><ele>199.0</ele><time>2026-05-01T13:04:00.808Z</time></trkpt><trkpt lat="43.4083866" lon="13.2798311"><ele>199.6</ele><time>2026-05-01T13:04:01.808Z</time></trkpt><trkpt lat="43.4084829" lon="13.2798275"><ele>200.2</ele><time>2026-05-01T13:04:02.809Z</time></trkpt><trkpt lat="43.4085743" lon="13.2797872"><ele>200.79999999999998</ele><time>2026-05-01T13:04:03.809Z</time></trkpt><trkpt lat="43.4086616" lon="13.2797348"><ele>201.39999999999998</ele><time>2026-05-01T13:04:04.808Z</time></trkpt><trkpt lat="43.4087446" lon="13.2796554"><ele>202.0</ele><time>2026-05-01T13:04:05.809Z</time></trkpt><trkpt lat="43.4088252" lon="13.2795594"><ele>201.0</ele><time>2026-05-01T13:04:06.809Z</time></trkpt><trkpt lat="43.4089018" lon="13.2794512"><ele>200.0</ele><time>2026-05-01T13:04:07.808Z</time></trkpt><trkpt lat="43.4089741" lon="13.2793352"><ele>199.0</ele><time>2026-05-01T13:04:08.809Z</time></trkpt><trkpt lat="43.4090505" lon="13.2792163"><ele>198.0</ele><time>2026-05-01T13:04:09.809Z</time></trkpt><trkpt lat="43.4091251" lon="13.2791031"><ele>197.0</ele><time>2026-05-01T13:04:10.809Z</time></trkpt><trkpt lat="43.4092063" lon="13.2789868"><ele>198.39999999999998</ele><time>2026-05-01T13:04:11.809Z</time></trkpt><trkpt lat="43.40929" lon="13.2788722"><ele>199.79999999999998</ele><time>2026-05-01T13:04:12.809Z</time></trkpt><trkpt lat="43.4093666" lon="13.2787617"><ele>201.2</ele><time>2026-05-01T13:04:13.809Z</time></trkpt><trkpt lat="43.4094318" lon="13.2786479"><ele>202.6</ele><time>2026-05-01T13:04:14.809Z</time></trkpt><trkpt lat="43.409488" lon="13.2785349"><ele>204.0</ele><time>2026-05-01T13:04:15.81Z</time></trkpt><trkpt lat="43.4095469" lon="13.2784234"><ele>204.0</ele><time>2026-05-01T13:04:16.808Z</time></trkpt><trkpt lat="43.409605" lon="13.2783076"><ele>204.0</ele><time>2026-05-01T13:04:17.809Z</time></trkpt><trkpt lat="43.4096631" lon="13.2781928"><ele>204.0</ele><time>2026-05-01T13:04:18.809Z</time></trkpt><trkpt lat="43.4097209" lon="13.2780838"><ele>204.0</ele><time>2026-05-01T13:04:19.809Z</time></trkpt><trkpt lat="43.4097771" lon="13.2779723"><ele>204.0</ele><time>2026-05-01T13:04:20.808Z</time></trkpt><trkpt lat="43.4098215" lon="13.2778648"><ele>204.33333333333334</ele><time>2026-05-01T13:04:21.81Z</time></trkpt><trkpt lat="43.4098552" lon="13.2777602"><ele>204.66666666666669</ele><time>2026-05-01T13:04:22.809Z</time></trkpt><trkpt lat="43.409874" lon="13.2776525"><ele>205.0</ele><time>2026-05-01T13:04:23.809Z</time></trkpt><trkpt lat="43.4098827" lon="13.2775449"><ele>205.33333333333334</ele><time>2026-05-01T13:04:24.809Z</time></trkpt><trkpt lat="43.4098813" lon="13.2774356"><ele>205.66666666666669</ele><time>2026-05-01T13:04:25.809Z</time></trkpt><trkpt lat="43.409876" lon="13.2773286"><ele>206.0</ele><time>2026-05-01T13:04:26.809Z</time></trkpt><trkpt lat="43.4098666" lon="13.2772206"><ele>206.66666666666669</ele><time>2026-05-01T13:04:27.81Z</time></trkpt><trkpt lat="43.4098688" lon="13.2771124"><ele>207.33333333333334</ele><time>2026-05-01T13:04:28.808Z</time></trkpt><trkpt lat="43.4098622" lon="13.2770047"><ele>208.0</ele><time>2026-05-01T13:04:29.81Z</time></trkpt><trkpt lat="43.4098472" lon="13.2768967"><ele>208.66666666666669</ele><time>2026-05-01T13:04:30.808Z</time></trkpt><trkpt lat="43.4098416" lon="13.2767883"><ele>209.33333333333334</ele><time>2026-05-01T13:04:31.809Z</time></trkpt><trkpt lat="43.409835" lon="13.2766816"><ele>210.0</ele><time>2026-05-01T13:04:32.809Z</time></trkpt><trkpt lat="43.409819" lon="13.2765744"><ele>210.0</ele><time>2026-05-01T13:04:33.809Z</time></trkpt><trkpt lat="43.4098183" lon="13.2764655"><ele>210.0</ele><time>2026-05-01T13:04:34.808Z</time></trkpt><trkpt lat="43.4098084" lon="13.2763536"><ele>210.0</ele><time>2026-05-01T13:04:35.809Z</time></trkpt><trkpt lat="43.4097931" lon="13.2762401"><ele>210.0</ele><time>2026-05-01T13:04:36.808Z</time></trkpt><trkpt lat="43.4097847" lon="13.2761252"><ele>210.0</ele><time>2026-05-01T13:04:37.81Z</time></trkpt><trkpt lat="43.4097689" lon="13.2760087"><ele>210.0</ele><time>2026-05-01T13:04:38.808Z</time></trkpt><trkpt lat="43.4097426" lon="13.2758978"><ele>210.66666666666666</ele><time>2026-05-01T13:04:39.809Z</time></trkpt><trkpt lat="43.4097061" lon="13.2757942"><ele>211.33333333333331</ele><time>2026-05-01T13:04:40.808Z</time></trkpt><trkpt lat="43.4096612" lon="13.2756966"><ele>212.0</ele><time>2026-05-01T13:04:41.809Z</time></trkpt><trkpt lat="43.409603" lon="13.2756071"><ele>212.66666666666666</ele><time>2026-05-01T13:04:42.809Z</time></trkpt><trkpt lat="43.4095419" lon="13.2755265"><ele>213.33333333333331</ele><time>2026-05-01T13:04:43.809Z</time></trkpt><trkpt lat="43.4094779" lon="13.2754446"><ele>214.0</ele><time>2026-05-01T13:04:44.81Z</time></trkpt><trkpt lat="43.4094209" lon="13.2753581"><ele>215.66666666666666</ele><time>2026-05-01T13:04:45.808Z</time></trkpt><trkpt lat="43.4093617" lon="13.275275"><ele>217.33333333333331</ele><time>2026-05-01T13:04:46.808Z</time></trkpt><trkpt lat="43.4093022" lon="13.2751946"><ele>219.0</ele><time>2026-05-01T13:04:47.808Z</time></trkpt><trkpt lat="43.4092462" lon="13.2751072"><ele>220.66666666666669</ele><time>2026-05-01T13:04:48.808Z</time></trkpt><trkpt lat="43.4091937" lon="13.2750191"><ele>222.33333333333334</ele><time>2026-05-01T13:04:49.809Z</time></trkpt><trkpt lat="43.4091446" lon="13.2749226"><ele>224.0</ele><time>2026-05-01T13:04:50.808Z</time></trkpt><trkpt lat="43.4091043" lon="13.2748226"><ele>224.33333333333334</ele><time>2026-05-01T13:04:51.81Z</time></trkpt><trkpt lat="43.4090799" lon="13.2747149"><ele>224.66666666666669</ele><time>2026-05-01T13:04:52.809Z</time></trkpt><trkpt lat="43.4090722" lon="13.2746019"><ele>225.0</ele><time>2026-05-01T13:04:53.809Z</time></trkpt><trkpt lat="43.4090848" lon="13.2744936"><ele>225.33333333333331</ele><time>2026-05-01T13:04:54.809Z</time></trkpt><trkpt lat="43.4091106" lon="13.2743971"><ele>225.66666666666666</ele><time>2026-05-01T13:04:55.808Z</time></trkpt><trkpt lat="43.4091509" lon="13.2743078"><ele>226.0</ele><time>2026-05-01T13:04:56.809Z</time></trkpt><trkpt lat="43.4091983" lon="13.2742219"><ele>225.99999999999997</ele><time>2026-05-01T13:04:57.809Z</time></trkpt><trkpt lat="43.4092497" lon="13.2741384"><ele>226.0</ele><time>2026-05-01T13:04:58.809Z</time></trkpt><trkpt lat="43.4093014" lon="13.2740519"><ele>226.0</ele><time>2026-05-01T13:04:59.807Z</time></trkpt><trkpt lat="43.4093542" lon="13.2739638"><ele>226.0</ele><time>2026-05-01T13:05:00.808Z</time></trkpt><trkpt lat="43.4094063" lon="13.2738649"><ele>225.99999999999997</ele><time>2026-05-01T13:05:01.808Z</time></trkpt><trkpt lat="43.4094624" lon="13.2737661"><ele>226.0</ele><time>2026-05-01T13:05:02.809Z</time></trkpt><trkpt lat="43.4095208" lon="13.2736615"><ele>226.20000000000002</ele><time>2026-05-01T13:05:03.808Z</time></trkpt><trkpt lat="43.4095813" lon="13.2735604"><ele>226.40000000000003</ele><time>2026-05-01T13:05:04.807Z</time></trkpt><trkpt lat="43.4096395" lon="13.2734588"><ele>226.6</ele><time>2026-05-01T13:05:05.808Z</time></trkpt><trkpt lat="43.4096941" lon="13.2733582"><ele>226.8</ele><time>2026-05-01T13:05:06.808Z</time></trkpt><trkpt lat="43.4097494" lon="13.2732613"><ele>227.0</ele><time>2026-05-01T13:05:07.808Z</time></trkpt><trkpt lat="43.4098027" lon="13.2731727"><ele>227.33333333333334</ele><time>2026-05-01T13:05:08.808Z</time></trkpt><trkpt lat="43.4098481" lon="13.2730772"><ele>227.66666666666669</ele><time>2026-05-01T13:05:09.808Z</time></trkpt><trkpt lat="43.4098918" lon="13.2729793"><ele>228.0</ele><time>2026-05-01T13:05:10.807Z</time></trkpt><trkpt lat="43.4099354" lon="13.2728808"><ele>228.33333333333331</ele><time>2026-05-01T13:05:11.808Z</time></trkpt><trkpt lat="43.40998" lon="13.2727857"><ele>228.66666666666666</ele><time>2026-05-01T13:05:12.808Z</time></trkpt><trkpt lat="43.4100323" lon="13.2726854"><ele>229.0</ele><time>2026-05-01T13:05:13.807Z</time></trkpt><trkpt lat="43.4100834" lon="13.2725794"><ele>229.0</ele><time>2026-05-01T13:05:14.807Z</time></trkpt><trkpt lat="43.4101377" lon="13.2724732"><ele>228.99999999999997</ele><time>2026-05-01T13:05:15.808Z</time></trkpt><trkpt lat="43.41019" lon="13.2723621"><ele>228.99999999999997</ele><time>2026-05-01T13:05:16.808Z</time></trkpt><trkpt lat="43.4102459" lon="13.2722528"><ele>229.0</ele><time>2026-05-01T13:05:17.808Z</time></trkpt><trkpt lat="43.4102976" lon="13.2721385"><ele>229.0</ele><time>2026-05-01T13:05:18.809Z</time></trkpt><trkpt lat="43.4103512" lon="13.2720318"><ele>228.79999999999998</ele><time>2026-05-01T13:05:19.808Z</time></trkpt><trkpt lat="43.4104047" lon="13.2719188"><ele>228.59999999999997</ele><time>2026-05-01T13:05:20.807Z</time></trkpt><trkpt lat="43.4104586" lon="13.2718022"><ele>228.4</ele><time>2026-05-01T13:05:21.809Z</time></trkpt><trkpt lat="43.4105167" lon="13.2716878"><ele>228.2</ele><time>2026-05-01T13:05:22.807Z</time></trkpt><trkpt lat="43.410574" lon="13.2715746"><ele>228.0</ele><time>2026-05-01T13:05:23.808Z</time></trkpt><trkpt lat="43.4106267" lon="13.2714568"><ele>227.0</ele><time>2026-05-01T13:05:24.808Z</time></trkpt><trkpt lat="43.4106795" lon="13.2713402"><ele>226.0</ele><time>2026-05-01T13:05:25.807Z</time></trkpt><trkpt lat="43.4107348" lon="13.2712133"><ele>225.0</ele><time>2026-05-01T13:05:26.808Z</time></trkpt><trkpt lat="43.4107911" lon="13.2710803"><ele>224.0</ele><time>2026-05-01T13:05:27.808Z</time></trkpt><trkpt lat="43.4108526" lon="13.2709422"><ele>223.0</ele><time>2026-05-01T13:05:28.808Z</time></trkpt><trkpt lat="43.4109169" lon="13.2708022"><ele>223.0</ele><time>2026-05-01T13:05:29.808Z</time></trkpt><trkpt lat="43.4109853" lon="13.2706605"><ele>223.0</ele><time>2026-05-01T13:05:30.808Z</time></trkpt><trkpt lat="43.4110524" lon="13.2705158"><ele>223.0</ele><time>2026-05-01T13:05:31.808Z</time></trkpt><trkpt lat="43.4111154" lon="13.2703736"><ele>223.0</ele><time>2026-05-01T13:05:32.808Z</time></trkpt><trkpt lat="43.4111804" lon="13.2702323"><ele>222.0</ele><time>2026-05-01T13:05:33.808Z</time></trkpt><trkpt lat="43.4112401" lon="13.2700976"><ele>221.0</ele><time>2026-05-01T13:05:34.808Z</time></trkpt><trkpt lat="43.4113008" lon="13.2699651"><ele>220.0</ele><time>2026-05-01T13:05:35.808Z</time></trkpt><trkpt lat="43.4113598" lon="13.2698394"><ele>219.0</ele><time>2026-05-01T13:05:36.808Z</time></trkpt><trkpt lat="43.4114206" lon="13.2697137"><ele>218.0</ele><time>2026-05-01T13:05:37.808Z</time></trkpt><trkpt lat="43.4114851" lon="13.2695908"><ele>221.0</ele><time>2026-05-01T13:05:38.808Z</time></trkpt><trkpt lat="43.4115508" lon="13.2694696"><ele>224.0</ele><time>2026-05-01T13:05:39.807Z</time></trkpt><trkpt lat="43.4116162" lon="13.2693426"><ele>227.0</ele><time>2026-05-01T13:05:40.807Z</time></trkpt><trkpt lat="43.411687" lon="13.2692181"><ele>230.0</ele><time>2026-05-01T13:05:41.807Z</time></trkpt><trkpt lat="43.4117596" lon="13.2690936"><ele>230.0</ele><time>2026-05-01T13:05:42.808Z</time></trkpt><trkpt lat="43.4118305" lon="13.2689701"><ele>230.0</ele><time>2026-05-01T13:05:43.808Z</time></trkpt><trkpt lat="43.4119033" lon="13.2688502"><ele>230.0</ele><time>2026-05-01T13:05:44.808Z</time></trkpt><trkpt lat="43.411973" lon="13.2687313"><ele>230.0</ele><time>2026-05-01T13:05:45.809Z</time></trkpt><trkpt lat="43.4120398" lon="13.2686165"><ele>230.0</ele><time>2026-05-01T13:05:46.807Z</time></trkpt><trkpt lat="43.4121052" lon="13.2685001"><ele>231.0</ele><time>2026-05-01T13:05:47.807Z</time></trkpt><trkpt lat="43.412171" lon="13.2683821"><ele>232.0</ele><time>2026-05-01T13:05:48.807Z</time></trkpt><trkpt lat="43.4122363" lon="13.2682612"><ele>233.0</ele><time>2026-05-01T13:05:49.807Z</time></trkpt><trkpt lat="43.4122998" lon="13.2681426"><ele>234.0</ele><time>2026-05-01T13:05:50.807Z</time></trkpt><trkpt lat="43.4123622" lon="13.268015"><ele>235.0</ele><time>2026-05-01T13:05:51.807Z</time></trkpt><trkpt lat="43.412421" lon="13.2678873"><ele>235.5</ele><time>2026-05-01T13:05:52.808Z</time></trkpt><trkpt lat="43.4124814" lon="13.2677564"><ele>236.0</ele><time>2026-05-01T13:05:53.807Z</time></trkpt><trkpt lat="43.4125431" lon="13.2676245"><ele>236.5</ele><time>2026-05-01T13:05:54.809Z</time></trkpt><trkpt lat="43.4126029" lon="13.2674909"><ele>237.0</ele><time>2026-05-01T13:05:55.808Z</time></trkpt><trkpt lat="43.4126625" lon="13.2673559"><ele>238.0</ele><time>2026-05-01T13:05:56.807Z</time></trkpt><trkpt lat="43.4127245" lon="13.2672215"><ele>239.0</ele><time>2026-05-01T13:05:57.808Z</time></trkpt><trkpt lat="43.4127875" lon="13.2670897"><ele>240.0</ele><time>2026-05-01T13:05:58.807Z</time></trkpt><trkpt lat="43.4128538" lon="13.266967"><ele>241.0</ele><time>2026-05-01T13:05:59.808Z</time></trkpt><trkpt lat="43.4129231" lon="13.266849"><ele>241.4</ele><time>2026-05-01T13:06:00.808Z</time></trkpt><trkpt lat="43.4129972" lon="13.2667443"><ele>241.8</ele><time>2026-05-01T13:06:01.807Z</time></trkpt><trkpt lat="43.4130766" lon="13.2666491"><ele>242.20000000000002</ele><time>2026-05-01T13:06:02.808Z</time></trkpt><trkpt lat="43.4131583" lon="13.2665501"><ele>242.60000000000002</ele><time>2026-05-01T13:06:03.809Z</time></trkpt><trkpt lat="43.4132418" lon="13.2664543"><ele>243.0</ele><time>2026-05-01T13:06:04.807Z</time></trkpt><trkpt lat="43.4133282" lon="13.266367"><ele>243.60000000000002</ele><time>2026-05-01T13:06:05.807Z</time></trkpt><trkpt lat="43.4134161" lon="13.2662749"><ele>244.20000000000002</ele><time>2026-05-01T13:06:06.809Z</time></trkpt><trkpt lat="43.4135041" lon="13.2661812"><ele>244.8</ele><time>2026-05-01T13:06:07.808Z</time></trkpt><trkpt lat="43.4135917" lon="13.2660861"><ele>245.4</ele><time>2026-05-01T13:06:08.808Z</time></trkpt><trkpt lat="43.4136724" lon="13.2659908"><ele>246.0</ele><time>2026-05-01T13:06:09.808Z</time></trkpt><trkpt lat="43.413749" lon="13.2658863"><ele>246.0</ele><time>2026-05-01T13:06:10.808Z</time></trkpt><trkpt lat="43.4138207" lon="13.2657783"><ele>246.00000000000003</ele><time>2026-05-01T13:06:11.808Z</time></trkpt><trkpt lat="43.4138883" lon="13.2656629"><ele>246.00000000000003</ele><time>2026-05-01T13:06:12.807Z</time></trkpt><trkpt lat="43.4139535" lon="13.2655345"><ele>246.0</ele><time>2026-05-01T13:06:13.808Z</time></trkpt><trkpt lat="43.4140265" lon="13.2654155"><ele>246.0</ele><time>2026-05-01T13:06:14.807Z</time></trkpt><trkpt lat="43.4140945" lon="13.2652881"><ele>247.0</ele><time>2026-05-01T13:06:15.807Z</time></trkpt><trkpt lat="43.4141591" lon="13.2651602"><ele>248.00000000000003</ele><time>2026-05-01T13:06:16.807Z</time></trkpt><trkpt lat="43.4142242" lon="13.2650381"><ele>249.00000000000003</ele><time>2026-05-01T13:06:17.809Z</time></trkpt><trkpt lat="43.414294" lon="13.2649207"><ele>250.0</ele><time>2026-05-01T13:06:18.808Z</time></trkpt><trkpt lat="43.4143659" lon="13.2648068"><ele>251.0</ele><time>2026-05-01T13:06:19.807Z</time></trkpt><trkpt lat="43.4144383" lon="13.2646902"><ele>251.20000000000002</ele><time>2026-05-01T13:06:20.807Z</time></trkpt><trkpt lat="43.4145149" lon="13.264579"><ele>251.40000000000003</ele><time>2026-05-01T13:06:21.808Z</time></trkpt><trkpt lat="43.4145955" lon="13.2644755"><ele>251.6</ele><time>2026-05-01T13:06:22.807Z</time></trkpt><trkpt lat="43.4146771" lon="13.2643832"><ele>251.8</ele><time>2026-05-01T13:06:23.808Z</time></trkpt><trkpt lat="43.4147592" lon="13.2642963"><ele>252.0</ele><time>2026-05-01T13:06:24.808Z</time></trkpt><trkpt lat="43.4148439" lon="13.2642123"><ele>251.39999999999998</ele><time>2026-05-01T13:06:25.808Z</time></trkpt><trkpt lat="43.4149321" lon="13.2641326"><ele>250.79999999999998</ele><time>2026-05-01T13:06:26.808Z</time></trkpt><trkpt lat="43.4150227" lon="13.2640546"><ele>250.2</ele><time>2026-05-01T13:06:27.808Z</time></trkpt><trkpt lat="43.4151132" lon="13.2639751"><ele>249.6</ele><time>2026-05-01T13:06:28.807Z</time></trkpt><trkpt lat="43.4152015" lon="13.2638937"><ele>249.0</ele><time>2026-05-01T13:06:29.809Z</time></trkpt><trkpt lat="43.4152943" lon="13.2638086"><ele>248.5</ele><time>2026-05-01T13:06:30.808Z</time></trkpt><trkpt lat="43.4153934" lon="13.2637309"><ele>248.0</ele><time>2026-05-01T13:06:31.807Z</time></trkpt><trkpt lat="43.4154976" lon="13.2636522"><ele>247.5</ele><time>2026-05-01T13:06:32.808Z</time></trkpt><trkpt lat="43.4156015" lon="13.2635748"><ele>247.0</ele><time>2026-05-01T13:06:33.807Z</time></trkpt><trkpt lat="43.4157103" lon="13.2634969"><ele>246.5</ele><time>2026-05-01T13:06:34.807Z</time></trkpt><trkpt lat="43.4158224" lon="13.2634198"><ele>246.0</ele><time>2026-05-01T13:06:35.807Z</time></trkpt><trkpt lat="43.4159388" lon="13.2633387"><ele>245.5</ele><time>2026-05-01T13:06:36.808Z</time></trkpt><trkpt lat="43.4160526" lon="13.263255"><ele>245.0</ele><time>2026-05-01T13:06:37.807Z</time></trkpt><trkpt lat="43.4161631" lon="13.2631756"><ele>245.5</ele><time>2026-05-01T13:06:38.808Z</time></trkpt><trkpt lat="43.4162694" lon="13.2630936"><ele>246.0</ele><time>2026-05-01T13:06:39.807Z</time></trkpt><trkpt lat="43.4163776" lon="13.2630207"><ele>246.5</ele><time>2026-05-01T13:06:40.809Z</time></trkpt><trkpt lat="43.4164822" lon="13.2629458"><ele>247.0</ele><time>2026-05-01T13:06:41.808Z</time></trkpt><trkpt lat="43.4165873" lon="13.2628783"><ele>247.0</ele><time>2026-05-01T13:06:42.808Z</time></trkpt><trkpt lat="43.4166899" lon="13.2628178"><ele>247.0</ele><time>2026-05-01T13:06:43.808Z</time></trkpt><trkpt lat="43.4167861" lon="13.2627528"><ele>247.0</ele><time>2026-05-01T13:06:44.808Z</time></trkpt><trkpt lat="43.4168765" lon="13.262693"><ele>247.0</ele><time>2026-05-01T13:06:45.808Z</time></trkpt><trkpt lat="43.4169575" lon="13.2626412"><ele>247.0</ele><time>2026-05-01T13:06:46.807Z</time></trkpt><trkpt lat="43.4170237" lon="13.2625957"><ele>247.0</ele><time>2026-05-01T13:06:47.808Z</time></trkpt><trkpt lat="43.4171162" lon="13.2625226"><ele>247.0</ele><time>2026-05-01T13:06:49.808Z</time></trkpt><trkpt lat="43.4171683" lon="13.2623989"><ele>247.0</ele><time>2026-05-01T13:06:51.807Z</time></trkpt><trkpt lat="43.417167" lon="13.2623016"><ele>247.0</ele><time>2026-05-01T13:06:52.807Z</time></trkpt><trkpt lat="43.417155" lon="13.2621877"><ele>247.0</ele><time>2026-05-01T13:06:53.808Z</time></trkpt><trkpt lat="43.4171368" lon="13.2620696"><ele>247.39999999999998</ele><time>2026-05-01T13:06:54.808Z</time></trkpt><trkpt lat="43.4171234" lon="13.2619416"><ele>247.79999999999998</ele><time>2026-05-01T13:06:55.807Z</time></trkpt><trkpt lat="43.4171218" lon="13.2618118"><ele>248.2</ele><time>2026-05-01T13:06:56.808Z</time></trkpt><trkpt lat="43.4170972" lon="13.2616804"><ele>248.6</ele><time>2026-05-01T13:06:57.808Z</time></trkpt><trkpt lat="43.4170842" lon="13.2615381"><ele>249.0</ele><time>2026-05-01T13:06:58.807Z</time></trkpt><trkpt lat="43.4170788" lon="13.2613897"><ele>249.75</ele><time>2026-05-01T13:06:59.808Z</time></trkpt><trkpt lat="43.4170661" lon="13.2612359"><ele>250.5</ele><time>2026-05-01T13:07:00.809Z</time></trkpt><trkpt lat="43.4170494" lon="13.2610828"><ele>251.25</ele><time>2026-05-01T13:07:01.808Z</time></trkpt><trkpt lat="43.4170299" lon="13.2609285"><ele>252.0</ele><time>2026-05-01T13:07:02.808Z</time></trkpt><trkpt lat="43.4170111" lon="13.2607765"><ele>252.0</ele><time>2026-05-01T13:07:03.808Z</time></trkpt><trkpt lat="43.4169942" lon="13.2606285"><ele>252.0</ele><time>2026-05-01T13:07:04.808Z</time></trkpt><trkpt lat="43.4169844" lon="13.2604841"><ele>252.0</ele><time>2026-05-01T13:07:05.808Z</time></trkpt><trkpt lat="43.4169785" lon="13.2603441"><ele>252.0</ele><time>2026-05-01T13:07:06.807Z</time></trkpt><trkpt lat="43.41698" lon="13.2602092"><ele>252.0</ele><time>2026-05-01T13:07:07.808Z</time></trkpt><trkpt lat="43.4169871" lon="13.2600778"><ele>252.6</ele><time>2026-05-01T13:07:08.808Z</time></trkpt><trkpt lat="43.4170037" lon="13.2599455"><ele>253.2</ele><time>2026-05-01T13:07:09.808Z</time></trkpt><trkpt lat="43.4170308" lon="13.2598113"><ele>253.8</ele><time>2026-05-01T13:07:10.809Z</time></trkpt><trkpt lat="43.4170662" lon="13.2596805"><ele>254.4</ele><time>2026-05-01T13:07:11.807Z</time></trkpt><trkpt lat="43.4171088" lon="13.2595559"><ele>255.0</ele><time>2026-05-01T13:07:12.809Z</time></trkpt><trkpt lat="43.41716" lon="13.2594313"><ele>256.2</ele><time>2026-05-01T13:07:13.807Z</time></trkpt><trkpt lat="43.4172165" lon="13.2593098"><ele>257.4</ele><time>2026-05-01T13:07:14.808Z</time></trkpt><trkpt lat="43.4172799" lon="13.2591903"><ele>258.6</ele><time>2026-05-01T13:07:15.807Z</time></trkpt><trkpt lat="43.4173393" lon="13.2590616"><ele>259.8</ele><time>2026-05-01T13:07:16.808Z</time></trkpt><trkpt lat="43.4173906" lon="13.2589192"><ele>261.0</ele><time>2026-05-01T13:07:17.808Z</time></trkpt><trkpt lat="43.4174436" lon="13.2587777"><ele>261.0</ele><time>2026-05-01T13:07:18.809Z</time></trkpt><trkpt lat="43.417494" lon="13.2586364"><ele>261.0</ele><time>2026-05-01T13:07:19.808Z</time></trkpt><trkpt lat="43.4175362" lon="13.2584882"><ele>261.0</ele><time>2026-05-01T13:07:20.809Z</time></trkpt><trkpt lat="43.4175772" lon="13.2583406"><ele>261.0</ele><time>2026-05-01T13:07:21.808Z</time></trkpt><trkpt lat="43.417616" lon="13.2581955"><ele>261.2</ele><time>2026-05-01T13:07:22.807Z</time></trkpt><trkpt lat="43.4176541" lon="13.2580477"><ele>261.40000000000003</ele><time>2026-05-01T13:07:23.808Z</time></trkpt><trkpt lat="43.4176885" lon="13.2579015"><ele>261.6</ele><time>2026-05-01T13:07:24.808Z</time></trkpt><trkpt lat="43.4177353" lon="13.2577621"><ele>261.8</ele><time>2026-05-01T13:07:25.808Z</time></trkpt><trkpt lat="43.4177952" lon="13.2576368"><ele>262.0</ele><time>2026-05-01T13:07:26.807Z</time></trkpt><trkpt lat="43.4178613" lon="13.2575171"><ele>262.0</ele><time>2026-05-01T13:07:27.809Z</time></trkpt><trkpt lat="43.4179331" lon="13.2574057"><ele>262.0</ele><time>2026-05-01T13:07:28.809Z</time></trkpt><trkpt lat="43.4180025" lon="13.2572869"><ele>262.0</ele><time>2026-05-01T13:07:29.808Z</time></trkpt><trkpt lat="43.4180601" lon="13.2571508"><ele>262.0</ele><time>2026-05-01T13:07:30.807Z</time></trkpt><trkpt lat="43.4180915" lon="13.2570053"><ele>262.0</ele><time>2026-05-01T13:07:31.808Z</time></trkpt><trkpt lat="43.4180943" lon="13.2568564"><ele>262.4</ele><time>2026-05-01T13:07:32.807Z</time></trkpt><trkpt lat="43.41807" lon="13.2567217"><ele>262.79999999999995</ele><time>2026-05-01T13:07:33.807Z</time></trkpt><trkpt lat="43.418029" lon="13.2566047"><ele>263.2</ele><time>2026-05-01T13:07:34.808Z</time></trkpt><trkpt lat="43.4179789" lon="13.2564857"><ele>263.59999999999997</ele><time>2026-05-01T13:07:35.808Z</time></trkpt><trkpt lat="43.417929" lon="13.2563592"><ele>264.0</ele><time>2026-05-01T13:07:36.808Z</time></trkpt><trkpt lat="43.4178858" lon="13.2562304"><ele>264.59999999999997</ele><time>2026-05-01T13:07:37.808Z</time></trkpt><trkpt lat="43.4178475" lon="13.2560958"><ele>265.2</ele><time>2026-05-01T13:07:38.807Z</time></trkpt><trkpt lat="43.4178082" lon="13.2559602"><ele>265.79999999999995</ele><time>2026-05-01T13:07:39.807Z</time></trkpt><trkpt lat="43.417778" lon="13.2558204"><ele>266.4</ele><time>2026-05-01T13:07:40.807Z</time></trkpt><trkpt lat="43.4177535" lon="13.255674"><ele>267.0</ele><time>2026-05-01T13:07:41.808Z</time></trkpt><trkpt lat="43.4177262" lon="13.2555278"><ele>267.6</ele><time>2026-05-01T13:07:42.807Z</time></trkpt><trkpt lat="43.4177037" lon="13.2553759"><ele>268.2</ele><time>2026-05-01T13:07:43.808Z</time></trkpt><trkpt lat="43.4176966" lon="13.2552242"><ele>268.8</ele><time>2026-05-01T13:07:44.808Z</time></trkpt><trkpt lat="43.4177085" lon="13.2550811"><ele>269.4</ele><time>2026-05-01T13:07:45.807Z</time></trkpt><trkpt lat="43.4177399" lon="13.2549466"><ele>270.0</ele><time>2026-05-01T13:07:46.808Z</time></trkpt><trkpt lat="43.4177858" lon="13.2548186"><ele>270.2</ele><time>2026-05-01T13:07:47.809Z</time></trkpt><trkpt lat="43.4178412" lon="13.2547043"><ele>270.4</ele><time>2026-05-01T13:07:48.807Z</time></trkpt><trkpt lat="43.4178955" lon="13.2545896"><ele>270.6</ele><time>2026-05-01T13:07:49.807Z</time></trkpt><trkpt lat="43.4179557" lon="13.2544796"><ele>270.8</ele><time>2026-05-01T13:07:50.808Z</time></trkpt><trkpt lat="43.4180108" lon="13.2543616"><ele>271.0</ele><time>2026-05-01T13:07:51.808Z</time></trkpt><trkpt lat="43.418069" lon="13.2542436"><ele>270.6</ele><time>2026-05-01T13:07:52.807Z</time></trkpt><trkpt lat="43.4181313" lon="13.2541237"><ele>270.20000000000005</ele><time>2026-05-01T13:07:53.808Z</time></trkpt><trkpt lat="43.4181929" lon="13.2540045"><ele>269.79999999999995</ele><time>2026-05-01T13:07:54.808Z</time></trkpt><trkpt lat="43.4182536" lon="13.2538796"><ele>269.4</ele><time>2026-05-01T13:07:55.808Z</time></trkpt><trkpt lat="43.4183126" lon="13.2537558"><ele>269.0</ele><time>2026-05-01T13:07:56.807Z</time></trkpt><trkpt lat="43.4183703" lon="13.2536438"><ele>268.0</ele><time>2026-05-01T13:07:57.808Z</time></trkpt><trkpt lat="43.4184273" lon="13.2535366"><ele>267.0</ele><time>2026-05-01T13:07:58.808Z</time></trkpt><trkpt lat="43.4184843" lon="13.2534314"><ele>266.0</ele><time>2026-05-01T13:07:59.808Z</time></trkpt><trkpt lat="43.418533" lon="13.2533535"><ele>265.0</ele><time>2026-05-01T13:08:00.808Z</time></trkpt><trkpt lat="43.4185774" lon="13.2532848"><ele>264.0</ele><time>2026-05-01T13:08:01.807Z</time></trkpt><trkpt lat="43.4186853" lon="13.2531896"><ele>264.0</ele><time>2026-05-01T13:08:03.808Z</time></trkpt><trkpt lat="43.4187569" lon="13.2531551"><ele>264.0</ele><time>2026-05-01T13:08:04.807Z</time></trkpt><trkpt lat="43.4188361" lon="13.2531271"><ele>264.0</ele><time>2026-05-01T13:08:05.808Z</time></trkpt><trkpt lat="43.4189231" lon="13.2530934"><ele>264.0</ele><time>2026-05-01T13:08:06.809Z</time></trkpt><trkpt lat="43.4190134" lon="13.2530319"><ele>264.0</ele><time>2026-05-01T13:08:07.809Z</time></trkpt><trkpt lat="43.4190925" lon="13.2529512"><ele>264.0</ele><time>2026-05-01T13:08:08.808Z</time></trkpt><trkpt lat="43.4191605" lon="13.2528445"><ele>264.0</ele><time>2026-05-01T13:08:09.808Z</time></trkpt><trkpt lat="43.4192194" lon="13.252719"><ele>264.0</ele><time>2026-05-01T13:08:10.807Z</time></trkpt><trkpt lat="43.4192738" lon="13.2525801"><ele>264.0</ele><time>2026-05-01T13:08:11.809Z</time></trkpt><trkpt lat="43.4193311" lon="13.2524385"><ele>264.0</ele><time>2026-05-01T13:08:12.808Z</time></trkpt><trkpt lat="43.4193919" lon="13.2522928"><ele>263.75</ele><time>2026-05-01T13:08:13.808Z</time></trkpt><trkpt lat="43.4194591" lon="13.252145"><ele>263.5</ele><time>2026-05-01T13:08:14.808Z</time></trkpt><trkpt lat="43.419529" lon="13.251991"><ele>263.25</ele><time>2026-05-01T13:08:15.807Z</time></trkpt><trkpt lat="43.4195953" lon="13.2518336"><ele>263.0</ele><time>2026-05-01T13:08:16.808Z</time></trkpt><trkpt lat="43.4196635" lon="13.2516794"><ele>263.0</ele><time>2026-05-01T13:08:17.807Z</time></trkpt><trkpt lat="43.4197336" lon="13.2515207"><ele>263.0</ele><time>2026-05-01T13:08:18.808Z</time></trkpt><trkpt lat="43.4197996" lon="13.2513758"><ele>263.0</ele><time>2026-05-01T13:08:19.808Z</time></trkpt><trkpt lat="43.4198588" lon="13.2512381"><ele>263.0</ele><time>2026-05-01T13:08:20.807Z</time></trkpt><trkpt lat="43.4199203" lon="13.2511166"><ele>264.4</ele><time>2026-05-01T13:08:21.808Z</time></trkpt><trkpt lat="43.4199882" lon="13.2510064"><ele>265.8</ele><time>2026-05-01T13:08:22.808Z</time></trkpt><trkpt lat="43.4200648" lon="13.2509215"><ele>267.2</ele><time>2026-05-01T13:08:23.808Z</time></trkpt><trkpt lat="43.4201423" lon="13.2508473"><ele>268.6</ele><time>2026-05-01T13:08:24.808Z</time></trkpt><trkpt lat="43.4202246" lon="13.2507906"><ele>270.0</ele><time>2026-05-01T13:08:25.807Z</time></trkpt><trkpt lat="43.4203134" lon="13.2507106"><ele>270.0</ele><time>2026-05-01T13:08:26.808Z</time></trkpt><trkpt lat="43.4204014" lon="13.250632"><ele>270.0</ele><time>2026-05-01T13:08:27.808Z</time></trkpt><trkpt lat="43.420496" lon="13.2505386"><ele>270.0</ele><time>2026-05-01T13:08:28.807Z</time></trkpt><trkpt lat="43.4205886" lon="13.2504308"><ele>270.0</ele><time>2026-05-01T13:08:29.808Z</time></trkpt><trkpt lat="43.4206757" lon="13.2503198"><ele>269.0</ele><time>2026-05-01T13:08:30.808Z</time></trkpt><trkpt lat="43.4207646" lon="13.2502032"><ele>268.0</ele><time>2026-05-01T13:08:31.808Z</time></trkpt><trkpt lat="43.4208555" lon="13.2500885"><ele>267.0</ele><time>2026-05-01T13:08:32.807Z</time></trkpt><trkpt lat="43.4209443" lon="13.2499705"><ele>266.0</ele><time>2026-05-01T13:08:33.807Z</time></trkpt><trkpt lat="43.4210334" lon="13.2498584"><ele>265.5</ele><time>2026-05-01T13:08:34.808Z</time></trkpt><trkpt lat="43.4211257" lon="13.249754"><ele>265.0</ele><time>2026-05-01T13:08:35.808Z</time></trkpt><trkpt lat="43.4212285" lon="13.2496637"><ele>264.5</ele><time>2026-05-01T13:08:36.809Z</time></trkpt><trkpt lat="43.4213359" lon="13.2495876"><ele>264.0</ele><time>2026-05-01T13:08:37.808Z</time></trkpt><trkpt lat="43.4214564" lon="13.2495315"><ele>263.75</ele><time>2026-05-01T13:08:38.808Z</time></trkpt><trkpt lat="43.4215798" lon="13.2494853"><ele>263.5</ele><time>2026-05-01T13:08:39.808Z</time></trkpt><trkpt lat="43.4217058" lon="13.2494522"><ele>263.25</ele><time>2026-05-01T13:08:40.807Z</time></trkpt><trkpt lat="43.4218307" lon="13.2494213"><ele>263.0</ele><time>2026-05-01T13:08:41.808Z</time></trkpt><trkpt lat="43.4219564" lon="13.2493993"><ele>263.0</ele><time>2026-05-01T13:08:42.808Z</time></trkpt><trkpt lat="43.4220861" lon="13.2493846"><ele>263.0</ele><time>2026-05-01T13:08:43.808Z</time></trkpt><trkpt lat="43.422218" lon="13.2493987"><ele>263.0</ele><time>2026-05-01T13:08:44.807Z</time></trkpt><trkpt lat="43.4223543" lon="13.249404"><ele>263.0</ele><time>2026-05-01T13:08:45.808Z</time></trkpt><trkpt lat="43.4224913" lon="13.2493857"><ele>261.75</ele><time>2026-05-01T13:08:46.808Z</time></trkpt><trkpt lat="43.4226333" lon="13.2493541"><ele>260.5</ele><time>2026-05-01T13:08:47.808Z</time></trkpt><trkpt lat="43.4227779" lon="13.2493151"><ele>259.25</ele><time>2026-05-01T13:08:48.808Z</time></trkpt><trkpt lat="43.422927" lon="13.2492783"><ele>258.0</ele><time>2026-05-01T13:08:49.807Z</time></trkpt><trkpt lat="43.4230767" lon="13.2492479"><ele>256.6666666666667</ele><time>2026-05-01T13:08:50.807Z</time></trkpt><trkpt lat="43.4232247" lon="13.2492037"><ele>255.33333333333334</ele><time>2026-05-01T13:08:51.808Z</time></trkpt><trkpt lat="43.4233685" lon="13.2491284"><ele>254.0</ele><time>2026-05-01T13:08:52.808Z</time></trkpt><trkpt lat="43.4235061" lon="13.2490384"><ele>255.25</ele><time>2026-05-01T13:08:53.808Z</time></trkpt><trkpt lat="43.4236307" lon="13.2489216"><ele>256.5</ele><time>2026-05-01T13:08:54.808Z</time></trkpt><trkpt lat="43.4237434" lon="13.2488056"><ele>257.75</ele><time>2026-05-01T13:08:55.808Z</time></trkpt><trkpt lat="43.423852" lon="13.2487111"><ele>259.0</ele><time>2026-05-01T13:08:56.808Z</time></trkpt><trkpt lat="43.4239548" lon="13.2486259"><ele>259.0</ele><time>2026-05-01T13:08:57.807Z</time></trkpt><trkpt lat="43.4240542" lon="13.2485523"><ele>259.0</ele><time>2026-05-01T13:08:58.807Z</time></trkpt><trkpt lat="43.424152" lon="13.2484963"><ele>259.0</ele><time>2026-05-01T13:08:59.809Z</time></trkpt><trkpt lat="43.4242583" lon="13.2484533"><ele>259.0</ele><time>2026-05-01T13:09:00.807Z</time></trkpt><trkpt lat="43.4243711" lon="13.2484285"><ele>259.0</ele><time>2026-05-01T13:09:01.808Z</time></trkpt><trkpt lat="43.4244829" lon="13.2484287"><ele>259.0</ele><time>2026-05-01T13:09:02.807Z</time></trkpt><trkpt lat="43.424592" lon="13.2484514"><ele>259.0</ele><time>2026-05-01T13:09:03.808Z</time></trkpt><trkpt lat="43.4247017" lon="13.2484938"><ele>259.0</ele><time>2026-05-01T13:09:04.808Z</time></trkpt><trkpt lat="43.4248143" lon="13.2485412"><ele>259.0</ele><time>2026-05-01T13:09:05.808Z</time></trkpt><trkpt lat="43.4249297" lon="13.2485818"><ele>259.0</ele><time>2026-05-01T13:09:06.808Z</time></trkpt><trkpt lat="43.4250455" lon="13.2486257"><ele>259.0</ele><time>2026-05-01T13:09:07.808Z</time></trkpt><trkpt lat="43.4251606" lon="13.2486601"><ele>259.0</ele><time>2026-05-01T13:09:08.807Z</time></trkpt><trkpt lat="43.4252772" lon="13.2487033"><ele>259.0</ele><time>2026-05-01T13:09:09.808Z</time></trkpt><trkpt lat="43.4253919" lon="13.2487446"><ele>258.0</ele><time>2026-05-01T13:09:10.807Z</time></trkpt><trkpt lat="43.4255057" lon="13.2487907"><ele>257.0</ele><time>2026-05-01T13:09:11.808Z</time></trkpt><trkpt lat="43.425622" lon="13.2488303"><ele>256.0</ele><time>2026-05-01T13:09:12.808Z</time></trkpt><trkpt lat="43.425735" lon="13.2488866"><ele>255.0</ele><time>2026-05-01T13:09:13.808Z</time></trkpt><trkpt lat="43.4258424" lon="13.2489588"><ele>255.75</ele><time>2026-05-01T13:09:14.807Z</time></trkpt><trkpt lat="43.4259476" lon="13.2490383"><ele>256.5</ele><time>2026-05-01T13:09:15.808Z</time></trkpt><trkpt lat="43.4260476" lon="13.2491213"><ele>257.25</ele><time>2026-05-01T13:09:16.808Z</time></trkpt><trkpt lat="43.4261472" lon="13.2491981"><ele>258.0</ele><time>2026-05-01T13:09:17.808Z</time></trkpt><trkpt lat="43.4262496" lon="13.24927"><ele>256.5</ele><time>2026-05-01T13:09:18.808Z</time></trkpt><trkpt lat="43.4263577" lon="13.2493417"><ele>255.0</ele><time>2026-05-01T13:09:19.808Z</time></trkpt><trkpt lat="43.4264654" lon="13.2494165"><ele>253.5</ele><time>2026-05-01T13:09:20.807Z</time></trkpt><trkpt lat="43.4265733" lon="13.2494874"><ele>252.0</ele><time>2026-05-01T13:09:21.808Z</time></trkpt><trkpt lat="43.4266778" lon="13.2495652"><ele>252.0</ele><time>2026-05-01T13:09:22.807Z</time></trkpt><trkpt lat="43.4267828" lon="13.2496404"><ele>252.0</ele><time>2026-05-01T13:09:23.807Z</time></trkpt><trkpt lat="43.4268904" lon="13.2497113"><ele>252.0</ele><time>2026-05-01T13:09:24.807Z</time></trkpt><trkpt lat="43.4269941" lon="13.2497962"><ele>252.0</ele><time>2026-05-01T13:09:25.807Z</time></trkpt><trkpt lat="43.427089" lon="13.2498959"><ele>249.5</ele><time>2026-05-01T13:09:26.808Z</time></trkpt><trkpt lat="43.4271825" lon="13.2499983"><ele>247.0</ele><time>2026-05-01T13:09:27.807Z</time></trkpt><trkpt lat="43.4272738" lon="13.2501055"><ele>244.5</ele><time>2026-05-01T13:09:28.808Z</time></trkpt><trkpt lat="43.4273627" lon="13.2502151"><ele>242.0</ele><time>2026-05-01T13:09:29.808Z</time></trkpt><trkpt lat="43.4274467" lon="13.2503355"><ele>242.0</ele><time>2026-05-01T13:09:30.808Z</time></trkpt><trkpt lat="43.4275272" lon="13.2504614"><ele>242.0</ele><time>2026-05-01T13:09:31.808Z</time></trkpt><trkpt lat="43.4276095" lon="13.2505915"><ele>242.0</ele><time>2026-05-01T13:09:32.808Z</time></trkpt><trkpt lat="43.4276874" lon="13.2507225"><ele>242.0</ele><time>2026-05-01T13:09:33.807Z</time></trkpt><trkpt lat="43.4277643" lon="13.2508512"><ele>242.0</ele><time>2026-05-01T13:09:34.807Z</time></trkpt><trkpt lat="43.4278373" lon="13.2509778"><ele>242.0</ele><time>2026-05-01T13:09:35.807Z</time></trkpt><trkpt lat="43.4279037" lon="13.2511065"><ele>242.0</ele><time>2026-05-01T13:09:36.808Z</time></trkpt><trkpt lat="43.4279681" lon="13.2512347"><ele>242.0</ele><time>2026-05-01T13:09:37.807Z</time></trkpt><trkpt lat="43.4280367" lon="13.2513527"><ele>242.0</ele><time>2026-05-01T13:09:38.807Z</time></trkpt><trkpt lat="43.4281173" lon="13.2514582"><ele>242.0</ele><time>2026-05-01T13:09:39.808Z</time></trkpt><trkpt lat="43.4282071" lon="13.251549"><ele>242.0</ele><time>2026-05-01T13:09:40.808Z</time></trkpt><trkpt lat="43.4283089" lon="13.251622"><ele>242.0</ele><time>2026-05-01T13:09:41.807Z</time></trkpt><trkpt lat="43.4284144" lon="13.2516891"><ele>242.0</ele><time>2026-05-01T13:09:42.808Z</time></trkpt><trkpt lat="43.428522" lon="13.2517472"><ele>242.0</ele><time>2026-05-01T13:09:43.808Z</time></trkpt><trkpt lat="43.4286276" lon="13.2518201"><ele>242.0</ele><time>2026-05-01T13:09:44.808Z</time></trkpt><trkpt lat="43.4287332" lon="13.251892"><ele>242.0</ele><time>2026-05-01T13:09:45.807Z</time></trkpt><trkpt lat="43.4288431" lon="13.2519648"><ele>241.5</ele><time>2026-05-01T13:09:46.807Z</time></trkpt><trkpt lat="43.4289533" lon="13.2520419"><ele>241.0</ele><time>2026-05-01T13:09:47.808Z</time></trkpt><trkpt lat="43.4290643" lon="13.2521217"><ele>240.5</ele><time>2026-05-01T13:09:48.808Z</time></trkpt><trkpt lat="43.4291742" lon="13.2522042"><ele>240.0</ele><time>2026-05-01T13:09:49.807Z</time></trkpt><trkpt lat="43.4292786" lon="13.252295"><ele>239.0</ele><time>2026-05-01T13:09:50.808Z</time></trkpt><trkpt lat="43.4293793" lon="13.2523904"><ele>238.0</ele><time>2026-05-01T13:09:51.808Z</time></trkpt><trkpt lat="43.4294795" lon="13.2524876"><ele>237.0</ele><time>2026-05-01T13:09:52.808Z</time></trkpt><trkpt lat="43.429586" lon="13.2525859"><ele>236.0</ele><time>2026-05-01T13:09:53.808Z</time></trkpt><trkpt lat="43.429694" lon="13.2526898"><ele>236.0</ele><time>2026-05-01T13:09:54.808Z</time></trkpt><trkpt lat="43.4298018" lon="13.2527999"><ele>236.0</ele><time>2026-05-01T13:09:55.808Z</time></trkpt><trkpt lat="43.4299076" lon="13.2529167"><ele>236.0</ele><time>2026-05-01T13:09:56.808Z</time></trkpt><trkpt lat="43.430013" lon="13.2530337"><ele>236.0</ele><time>2026-05-01T13:09:57.807Z</time></trkpt><trkpt lat="43.4301135" lon="13.2531556"><ele>234.5</ele><time>2026-05-01T13:09:58.808Z</time></trkpt><trkpt lat="43.4302105" lon="13.2532799"><ele>233.0</ele><time>2026-05-01T13:09:59.808Z</time></trkpt><trkpt lat="43.4302999" lon="13.2534066"><ele>231.5</ele><time>2026-05-01T13:10:00.808Z</time></trkpt><trkpt lat="43.4303805" lon="13.2535306"><ele>230.0</ele><time>2026-05-01T13:10:01.807Z</time></trkpt><trkpt lat="43.430456" lon="13.2536579"><ele>231.0</ele><time>2026-05-01T13:10:02.808Z</time></trkpt><trkpt lat="43.4305335" lon="13.2537857"><ele>232.0</ele><time>2026-05-01T13:10:03.808Z</time></trkpt><trkpt lat="43.4306111" lon="13.2539219"><ele>233.0</ele><time>2026-05-01T13:10:04.807Z</time></trkpt><trkpt lat="43.4306855" lon="13.2540577"><ele>234.0</ele><time>2026-05-01T13:10:05.807Z</time></trkpt><trkpt lat="43.4307579" lon="13.2541957"><ele>234.0</ele><time>2026-05-01T13:10:06.808Z</time></trkpt><trkpt lat="43.4308251" lon="13.2543295"><ele>233.99999999999997</ele><time>2026-05-01T13:10:07.808Z</time></trkpt><trkpt lat="43.4308939" lon="13.2544575"><ele>233.99999999999997</ele><time>2026-05-01T13:10:08.807Z</time></trkpt><trkpt lat="43.4309649" lon="13.2545707"><ele>234.0</ele><time>2026-05-01T13:10:09.807Z</time></trkpt><trkpt lat="43.4310389" lon="13.254675"><ele>234.0</ele><time>2026-05-01T13:10:10.808Z</time></trkpt><trkpt lat="43.4311235" lon="13.2547658"><ele>233.0</ele><time>2026-05-01T13:10:11.807Z</time></trkpt><trkpt lat="43.4312178" lon="13.2548372"><ele>232.0</ele><time>2026-05-01T13:10:12.808Z</time></trkpt><trkpt lat="43.4313258" lon="13.2548866"><ele>231.0</ele><time>2026-05-01T13:10:13.807Z</time></trkpt><trkpt lat="43.4314373" lon="13.2549264"><ele>230.0</ele><time>2026-05-01T13:10:14.808Z</time></trkpt><trkpt lat="43.4315476" lon="13.2549735"><ele>230.0</ele><time>2026-05-01T13:10:15.808Z</time></trkpt><trkpt lat="43.4316592" lon="13.2550214"><ele>230.0</ele><time>2026-05-01T13:10:16.807Z</time></trkpt><trkpt lat="43.4317702" lon="13.2550721"><ele>230.0</ele><time>2026-05-01T13:10:17.808Z</time></trkpt><trkpt lat="43.4318793" lon="13.2551248"><ele>230.0</ele><time>2026-05-01T13:10:18.808Z</time></trkpt><trkpt lat="43.4319874" lon="13.2551744"><ele>230.0</ele><time>2026-05-01T13:10:19.807Z</time></trkpt><trkpt lat="43.4320913" lon="13.2552243"><ele>230.0</ele><time>2026-05-01T13:10:20.809Z</time></trkpt><trkpt lat="43.4321888" lon="13.2552811"><ele>230.0</ele><time>2026-05-01T13:10:21.807Z</time></trkpt><trkpt lat="43.4322802" lon="13.2553393"><ele>230.0</ele><time>2026-05-01T13:10:22.807Z</time></trkpt><trkpt lat="43.4323612" lon="13.255398"><ele>230.0</ele><time>2026-05-01T13:10:23.807Z</time></trkpt><trkpt lat="43.4324297" lon="13.2554546"><ele>227.6</ele><time>2026-05-01T13:10:24.807Z</time></trkpt><trkpt lat="43.4324872" lon="13.2555037"><ele>225.2</ele><time>2026-05-01T13:10:25.808Z</time></trkpt><trkpt lat="43.4325799" lon="13.2555067"><ele>222.8</ele><time>2026-05-01T13:10:27.807Z</time></trkpt><trkpt lat="43.4325972" lon="13.2554035"><ele>220.4</ele><time>2026-05-01T13:10:29.808Z</time></trkpt><trkpt lat="43.4325492" lon="13.2552231"><ele>218.0</ele><time>2026-05-01T13:10:31.808Z</time></trkpt><trkpt lat="43.4325287" lon="13.2551158"><ele>218.0</ele><time>2026-05-01T13:10:32.808Z</time></trkpt><trkpt lat="43.4325159" lon="13.2549943"><ele>218.0</ele><time>2026-05-01T13:10:33.807Z</time></trkpt><trkpt lat="43.4325157" lon="13.2548543"><ele>218.0</ele><time>2026-05-01T13:10:34.808Z</time></trkpt><trkpt lat="43.4325282" lon="13.2546893"><ele>218.0</ele><time>2026-05-01T13:10:35.808Z</time></trkpt><trkpt lat="43.4325336" lon="13.2545053"><ele>218.0</ele><time>2026-05-01T13:10:36.808Z</time></trkpt><trkpt lat="43.4325215" lon="13.2542989"><ele>217.66666666666669</ele><time>2026-05-01T13:10:37.807Z</time></trkpt><trkpt lat="43.4324939" lon="13.2541021"><ele>217.33333333333331</ele><time>2026-05-01T13:10:38.808Z</time></trkpt><trkpt lat="43.4324747" lon="13.2538901"><ele>217.0</ele><time>2026-05-01T13:10:39.808Z</time></trkpt><trkpt lat="43.4324809" lon="13.253663"><ele>217.0</ele><time>2026-05-01T13:10:40.808Z</time></trkpt><trkpt lat="43.4325149" lon="13.2534243"><ele>217.0</ele><time>2026-05-01T13:10:41.807Z</time></trkpt><trkpt lat="43.4325759" lon="13.2531894"><ele>217.0</ele><time>2026-05-01T13:10:42.807Z</time></trkpt><trkpt lat="43.4326549" lon="13.2529685"><ele>217.0</ele><time>2026-05-01T13:10:43.807Z</time></trkpt><trkpt lat="43.4327406" lon="13.2527604"><ele>217.0</ele><time>2026-05-01T13:10:44.808Z</time></trkpt><trkpt lat="43.4328231" lon="13.2525549"><ele>217.0</ele><time>2026-05-01T13:10:45.807Z</time></trkpt><trkpt lat="43.4328815" lon="13.2523502"><ele>216.75</ele><time>2026-05-01T13:10:46.807Z</time></trkpt><trkpt lat="43.4329195" lon="13.2521452"><ele>216.5</ele><time>2026-05-01T13:10:47.808Z</time></trkpt><trkpt lat="43.4329297" lon="13.2519442"><ele>216.25</ele><time>2026-05-01T13:10:48.808Z</time></trkpt><trkpt lat="43.4329073" lon="13.2517536"><ele>216.0</ele><time>2026-05-01T13:10:49.807Z</time></trkpt><trkpt lat="43.4328609" lon="13.2515692"><ele>215.0</ele><time>2026-05-01T13:10:50.807Z</time></trkpt><trkpt lat="43.4328133" lon="13.2513892"><ele>214.0</ele><time>2026-05-01T13:10:51.807Z</time></trkpt><trkpt lat="43.4327948" lon="13.2512044"><ele>213.0</ele><time>2026-05-01T13:10:52.808Z</time></trkpt><trkpt lat="43.4328047" lon="13.2510169"><ele>212.0</ele><time>2026-05-01T13:10:53.808Z</time></trkpt><trkpt lat="43.4328406" lon="13.250841"><ele>212.0</ele><time>2026-05-01T13:10:54.808Z</time></trkpt><trkpt lat="43.432908" lon="13.2506829"><ele>212.0</ele><time>2026-05-01T13:10:55.807Z</time></trkpt><trkpt lat="43.4329985" lon="13.2505442"><ele>212.0</ele><time>2026-05-01T13:10:56.807Z</time></trkpt><trkpt lat="43.4330922" lon="13.2504166"><ele>212.0</ele><time>2026-05-01T13:10:57.807Z</time></trkpt><trkpt lat="43.4331846" lon="13.2502921"><ele>209.75</ele><time>2026-05-01T13:10:58.807Z</time></trkpt><trkpt lat="43.4332761" lon="13.2501743"><ele>207.5</ele><time>2026-05-01T13:10:59.808Z</time></trkpt><trkpt lat="43.4333687" lon="13.2500529"><ele>205.25</ele><time>2026-05-01T13:11:00.808Z</time></trkpt><trkpt lat="43.4334627" lon="13.2499343"><ele>203.0</ele><time>2026-05-01T13:11:01.808Z</time></trkpt><trkpt lat="43.4335529" lon="13.2498162"><ele>202.25</ele><time>2026-05-01T13:11:02.808Z</time></trkpt><trkpt lat="43.4336441" lon="13.2497047"><ele>201.5</ele><time>2026-05-01T13:11:03.808Z</time></trkpt><trkpt lat="43.433732" lon="13.2495929"><ele>200.75</ele><time>2026-05-01T13:11:04.808Z</time></trkpt><trkpt lat="43.433819" lon="13.2494853"><ele>200.0</ele><time>2026-05-01T13:11:05.808Z</time></trkpt><trkpt lat="43.4339015" lon="13.2493779"><ele>199.4</ele><time>2026-05-01T13:11:06.807Z</time></trkpt><trkpt lat="43.4339823" lon="13.2492695"><ele>198.8</ele><time>2026-05-01T13:11:07.808Z</time></trkpt><trkpt lat="43.434061" lon="13.2491651"><ele>198.2</ele><time>2026-05-01T13:11:08.807Z</time></trkpt><trkpt lat="43.434137" lon="13.2490631"><ele>197.6</ele><time>2026-05-01T13:11:09.808Z</time></trkpt><trkpt lat="43.4342077" lon="13.2489587"><ele>197.0</ele><time>2026-05-01T13:11:10.807Z</time></trkpt><trkpt lat="43.4342632" lon="13.2488462"><ele>196.39999999999998</ele><time>2026-05-01T13:11:11.807Z</time></trkpt><trkpt lat="43.4343042" lon="13.2487259"><ele>195.79999999999998</ele><time>2026-05-01T13:11:12.808Z</time></trkpt><trkpt lat="43.4343324" lon="13.248597"><ele>195.2</ele><time>2026-05-01T13:11:13.807Z</time></trkpt><trkpt lat="43.4343505" lon="13.248459"><ele>194.6</ele><time>2026-05-01T13:11:14.807Z</time></trkpt><trkpt lat="43.4343592" lon="13.248314"><ele>194.0</ele><time>2026-05-01T13:11:15.807Z</time></trkpt><trkpt lat="43.4343576" lon="13.2481707"><ele>193.0</ele><time>2026-05-01T13:11:16.807Z</time></trkpt><trkpt lat="43.4343502" lon="13.2480282"><ele>192.0</ele><time>2026-05-01T13:11:17.807Z</time></trkpt><trkpt lat="43.4343416" lon="13.2478883"><ele>191.0</ele><time>2026-05-01T13:11:18.807Z</time></trkpt><trkpt lat="43.4343428" lon="13.2477576"><ele>190.0</ele><time>2026-05-01T13:11:19.808Z</time></trkpt><trkpt lat="43.4343541" lon="13.2476331"><ele>189.0</ele><time>2026-05-01T13:11:20.808Z</time></trkpt><trkpt lat="43.4343805" lon="13.2475153"><ele>189.0</ele><time>2026-05-01T13:11:21.808Z</time></trkpt><trkpt lat="43.4344243" lon="13.2474128"><ele>189.0</ele><time>2026-05-01T13:11:22.808Z</time></trkpt><trkpt lat="43.4344878" lon="13.2473322"><ele>189.0</ele><time>2026-05-01T13:11:23.807Z</time></trkpt><trkpt lat="43.4345619" lon="13.2472818"><ele>189.0</ele><time>2026-05-01T13:11:24.808Z</time></trkpt><trkpt lat="43.4346411" lon="13.247243"><ele>189.0</ele><time>2026-05-01T13:11:25.807Z</time></trkpt><trkpt lat="43.4347268" lon="13.2472274"><ele>189.0</ele><time>2026-05-01T13:11:26.808Z</time></trkpt><trkpt lat="43.4348169" lon="13.2472217"><ele>187.66666666666666</ele><time>2026-05-01T13:11:27.809Z</time></trkpt><trkpt lat="43.4349087" lon="13.2472207"><ele>186.33333333333334</ele><time>2026-05-01T13:11:28.808Z</time></trkpt><trkpt lat="43.4349959" lon="13.2472066"><ele>185.0</ele><time>2026-05-01T13:11:29.808Z</time></trkpt><trkpt lat="43.4350733" lon="13.2471663"><ele>183.66666666666669</ele><time>2026-05-01T13:11:30.807Z</time></trkpt><trkpt lat="43.4351313" lon="13.2470922"><ele>182.33333333333334</ele><time>2026-05-01T13:11:31.808Z</time></trkpt><trkpt lat="43.4351672" lon="13.2470056"><ele>181.0</ele><time>2026-05-01T13:11:32.808Z</time></trkpt><trkpt lat="43.4351825" lon="13.2469098"><ele>181.0</ele><time>2026-05-01T13:11:33.808Z</time></trkpt><trkpt lat="43.4351941" lon="13.2468158"><ele>181.0</ele><time>2026-05-01T13:11:34.807Z</time></trkpt><trkpt lat="43.4351967" lon="13.2467163"><ele>181.0</ele><time>2026-05-01T13:11:35.808Z</time></trkpt><trkpt lat="43.4351935" lon="13.2466238"><ele>181.0</ele><time>2026-05-01T13:11:36.808Z</time></trkpt><trkpt lat="43.4351821" lon="13.2465366"><ele>181.0</ele><time>2026-05-01T13:11:37.807Z</time></trkpt><trkpt lat="43.4351406" lon="13.2463728"><ele>181.0</ele><time>2026-05-01T13:11:39.808Z</time></trkpt><trkpt lat="43.4351098" lon="13.2462946"><ele>180.16666666666669</ele><time>2026-05-01T13:11:40.808Z</time></trkpt><trkpt lat="43.4350764" lon="13.2462062"><ele>179.33333333333334</ele><time>2026-05-01T13:11:41.808Z</time></trkpt><trkpt lat="43.4350381" lon="13.2461113"><ele>178.5</ele><time>2026-05-01T13:11:42.808Z</time></trkpt><trkpt lat="43.4350027" lon="13.2460152"><ele>177.66666666666666</ele><time>2026-05-01T13:11:43.808Z</time></trkpt><trkpt lat="43.4349663" lon="13.2459234"><ele>176.83333333333331</ele><time>2026-05-01T13:11:44.807Z</time></trkpt><trkpt lat="43.4349274" lon="13.2458334"><ele>176.0</ele><time>2026-05-01T13:11:45.808Z</time></trkpt><trkpt lat="43.4348856" lon="13.2457517"><ele>176.0</ele><time>2026-05-01T13:11:46.808Z</time></trkpt><trkpt lat="43.4348603" lon="13.2456624"><ele>176.0</ele><time>2026-05-01T13:11:47.807Z</time></trkpt><trkpt lat="43.4348676" lon="13.2455682"><ele>176.0</ele><time>2026-05-01T13:11:48.808Z</time></trkpt><trkpt lat="43.4349056" lon="13.2454783"><ele>176.0</ele><time>2026-05-01T13:11:49.808Z</time></trkpt><trkpt lat="43.4349643" lon="13.2454018"><ele>176.0</ele><time>2026-05-01T13:11:50.808Z</time></trkpt><trkpt lat="43.4350375" lon="13.2453352"><ele>176.0</ele><time>2026-05-01T13:11:51.807Z</time></trkpt><trkpt lat="43.4351147" lon="13.2452701"><ele>176.0</ele><time>2026-05-01T13:11:52.807Z</time></trkpt><trkpt lat="43.4351931" lon="13.2452009"><ele>176.0</ele><time>2026-05-01T13:11:53.808Z</time></trkpt><trkpt lat="43.4352769" lon="13.2451342"><ele>176.0</ele><time>2026-05-01T13:11:54.808Z</time></trkpt><trkpt lat="43.4353631" lon="13.2450763"><ele>176.0</ele><time>2026-05-01T13:11:55.808Z</time></trkpt><trkpt lat="43.4354475" lon="13.2450139"><ele>176.0</ele><time>2026-05-01T13:11:56.808Z</time></trkpt><trkpt lat="43.4355295" lon="13.244949"><ele>176.0</ele><time>2026-05-01T13:11:57.808Z</time></trkpt><trkpt lat="43.4356092" lon="13.2448784"><ele>176.0</ele><time>2026-05-01T13:11:58.808Z</time></trkpt><trkpt lat="43.4356859" lon="13.2447976"><ele>176.0</ele><time>2026-05-01T13:11:59.807Z</time></trkpt><trkpt lat="43.4357611" lon="13.2447082"><ele>176.0</ele><time>2026-05-01T13:12:00.808Z</time></trkpt><trkpt lat="43.4358318" lon="13.2446111"><ele>176.0</ele><time>2026-05-01T13:12:01.808Z</time></trkpt><trkpt lat="43.4359034" lon="13.2445082"><ele>177.4</ele><time>2026-05-01T13:12:02.807Z</time></trkpt><trkpt lat="43.4359814" lon="13.2444106"><ele>178.8</ele><time>2026-05-01T13:12:03.808Z</time></trkpt><trkpt lat="43.4360638" lon="13.244327"><ele>180.20000000000002</ele><time>2026-05-01T13:12:04.808Z</time></trkpt><trkpt lat="43.4361473" lon="13.2442418"><ele>181.60000000000002</ele><time>2026-05-01T13:12:05.808Z</time></trkpt><trkpt lat="43.4362318" lon="13.2441574"><ele>183.0</ele><time>2026-05-01T13:12:06.808Z</time></trkpt><trkpt lat="43.4363198" lon="13.2440771"><ele>183.0</ele><time>2026-05-01T13:12:07.808Z</time></trkpt><trkpt lat="43.4364068" lon="13.2439948"><ele>183.0</ele><time>2026-05-01T13:12:08.808Z</time></trkpt><trkpt lat="43.436495" lon="13.2439101"><ele>183.0</ele><time>2026-05-01T13:12:09.808Z</time></trkpt><trkpt lat="43.4365784" lon="13.2438111"><ele>183.0</ele><time>2026-05-01T13:12:10.809Z</time></trkpt><trkpt lat="43.4366533" lon="13.2437025"><ele>183.0</ele><time>2026-05-01T13:12:11.808Z</time></trkpt><trkpt lat="43.4367262" lon="13.2435913"><ele>184.60000000000002</ele><time>2026-05-01T13:12:12.808Z</time></trkpt><trkpt lat="43.4367967" lon="13.2434824"><ele>186.20000000000002</ele><time>2026-05-01T13:12:13.808Z</time></trkpt><trkpt lat="43.4368678" lon="13.2433833"><ele>187.8</ele><time>2026-05-01T13:12:14.807Z</time></trkpt><trkpt lat="43.4369497" lon="13.2433006"><ele>189.4</ele><time>2026-05-01T13:12:15.808Z</time></trkpt><trkpt lat="43.4370405" lon="13.2432515"><ele>191.0</ele><time>2026-05-01T13:12:16.808Z</time></trkpt><trkpt lat="43.4371407" lon="13.2432217"><ele>192.66666666666666</ele><time>2026-05-01T13:12:17.807Z</time></trkpt><trkpt lat="43.4372311" lon="13.2432332"><ele>194.33333333333331</ele><time>2026-05-01T13:12:18.808Z</time></trkpt><trkpt lat="43.4373124" lon="13.2432512"><ele>196.0</ele><time>2026-05-01T13:12:19.807Z</time></trkpt><trkpt lat="43.4373754" lon="13.243266"><ele>197.66666666666666</ele><time>2026-05-01T13:12:20.808Z</time></trkpt><trkpt lat="43.4374812" lon="13.2432742"><ele>199.33333333333334</ele><time>2026-05-01T13:12:22.808Z</time></trkpt><trkpt lat="43.4375709" lon="13.2432502"><ele>201.0</ele><time>2026-05-01T13:12:24.809Z</time></trkpt><trkpt lat="43.4376432" lon="13.2432322"><ele>201.0</ele><time>2026-05-01T13:12:26.807Z</time></trkpt><trkpt lat="43.437697" lon="13.2431867"><ele>201.0</ele><time>2026-05-01T13:12:44.808Z</time></trkpt><trkpt lat="43.4377604" lon="13.2431579"><ele>201.0</ele><time>2026-05-01T13:12:46.808Z</time></trkpt><trkpt lat="43.4378356" lon="13.2431108"><ele>201.0</ele><time>2026-05-01T13:12:48.808Z</time></trkpt><trkpt lat="43.4379089" lon="13.243059"><ele>201.0</ele><time>2026-05-01T13:12:50.808Z</time></trkpt><trkpt lat="43.4379757" lon="13.2430262"><ele>201.0</ele><time>2026-05-01T13:12:52.808Z</time></trkpt><trkpt lat="43.4380147" lon="13.2429345"><ele>201.0</ele><time>2026-05-01T13:12:54.807Z</time></trkpt><trkpt lat="43.4379925" lon="13.2428192"><ele>201.60000000000002</ele><time>2026-05-01T13:12:56.808Z</time></trkpt><trkpt lat="43.4379072" lon="13.242679"><ele>202.2</ele><time>2026-05-01T13:12:58.807Z</time></trkpt><trkpt lat="43.4378622" lon="13.2425971"><ele>202.8</ele><time>2026-05-01T13:12:59.808Z</time></trkpt><trkpt lat="43.4378153" lon="13.2425046"><ele>203.39999999999998</ele><time>2026-05-01T13:13:00.807Z</time></trkpt><trkpt lat="43.4377594" lon="13.2424105"><ele>204.0</ele><time>2026-05-01T13:13:01.809Z</time></trkpt><trkpt lat="43.4377001" lon="13.2423146"><ele>204.5</ele><time>2026-05-01T13:13:02.808Z</time></trkpt><trkpt lat="43.4376341" lon="13.2422078"><ele>205.0</ele><time>2026-05-01T13:13:03.808Z</time></trkpt><trkpt lat="43.4375534" lon="13.2420723"><ele>205.5</ele><time>2026-05-01T13:13:04.807Z</time></trkpt><trkpt lat="43.4374711" lon="13.2419268"><ele>206.0</ele><time>2026-05-01T13:13:05.808Z</time></trkpt><trkpt lat="43.437394" lon="13.2417834"><ele>206.0</ele><time>2026-05-01T13:13:06.807Z</time></trkpt><trkpt lat="43.4373228" lon="13.2416414"><ele>206.0</ele><time>2026-05-01T13:13:07.807Z</time></trkpt><trkpt lat="43.4372536" lon="13.2415109"><ele>206.0</ele><time>2026-05-01T13:13:08.807Z</time></trkpt><trkpt lat="43.4371799" lon="13.2413874"><ele>206.0</ele><time>2026-05-01T13:13:09.806Z</time></trkpt><trkpt lat="43.4371101" lon="13.241255"><ele>206.0</ele><time>2026-05-01T13:13:10.806Z</time></trkpt><trkpt lat="43.4370392" lon="13.2411203"><ele>206.0</ele><time>2026-05-01T13:13:11.807Z</time></trkpt><trkpt lat="43.4369653" lon="13.2409859"><ele>206.0</ele><time>2026-05-01T13:13:12.806Z</time></trkpt><trkpt lat="43.4368916" lon="13.2408457"><ele>206.0</ele><time>2026-05-01T13:13:13.807Z</time></trkpt><trkpt lat="43.4368146" lon="13.2407124"><ele>206.5</ele><time>2026-05-01T13:13:14.807Z</time></trkpt><trkpt lat="43.4367345" lon="13.240585"><ele>207.0</ele><time>2026-05-01T13:13:15.808Z</time></trkpt><trkpt lat="43.4366557" lon="13.2404548"><ele>207.5</ele><time>2026-05-01T13:13:16.807Z</time></trkpt><trkpt lat="43.436574" lon="13.240318"><ele>208.0</ele><time>2026-05-01T13:13:17.807Z</time></trkpt><trkpt lat="43.436495" lon="13.2401776"><ele>208.0</ele><time>2026-05-01T13:13:18.807Z</time></trkpt><trkpt lat="43.4364164" lon="13.2400383"><ele>208.0</ele><time>2026-05-01T13:13:19.806Z</time></trkpt><trkpt lat="43.4363415" lon="13.2398892"><ele>208.0</ele><time>2026-05-01T13:13:20.806Z</time></trkpt><trkpt lat="43.4362612" lon="13.2397356"><ele>208.0</ele><time>2026-05-01T13:13:21.807Z</time></trkpt><trkpt lat="43.4361808" lon="13.2395757"><ele>208.25</ele><time>2026-05-01T13:13:22.808Z</time></trkpt><trkpt lat="43.4361009" lon="13.2394121"><ele>208.5</ele><time>2026-05-01T13:13:23.807Z</time></trkpt><trkpt lat="43.4360242" lon="13.2392547"><ele>208.75</ele><time>2026-05-01T13:13:24.807Z</time></trkpt><trkpt lat="43.4359459" lon="13.2390961"><ele>209.0</ele><time>2026-05-01T13:13:25.807Z</time></trkpt><trkpt lat="43.4358667" lon="13.2389386"><ele>210.75</ele><time>2026-05-01T13:13:26.807Z</time></trkpt><trkpt lat="43.4357912" lon="13.2387846"><ele>212.5</ele><time>2026-05-01T13:13:27.806Z</time></trkpt><trkpt lat="43.435715" lon="13.2386285"><ele>214.25</ele><time>2026-05-01T13:13:28.807Z</time></trkpt><trkpt lat="43.4356378" lon="13.2384685"><ele>216.0</ele><time>2026-05-01T13:13:29.807Z</time></trkpt><trkpt lat="43.4355574" lon="13.2383067"><ele>216.0</ele><time>2026-05-01T13:13:30.806Z</time></trkpt><trkpt lat="43.4354739" lon="13.2381413"><ele>216.0</ele><time>2026-05-01T13:13:31.808Z</time></trkpt><trkpt lat="43.4353905" lon="13.2379765"><ele>216.0</ele><time>2026-05-01T13:13:32.807Z</time></trkpt><trkpt lat="43.4353145" lon="13.237811"><ele>216.0</ele><time>2026-05-01T13:13:33.806Z</time></trkpt><trkpt lat="43.4352387" lon="13.2376503"><ele>216.0</ele><time>2026-05-01T13:13:34.807Z</time></trkpt><trkpt lat="43.4351702" lon="13.2374919"><ele>216.0</ele><time>2026-05-01T13:13:35.806Z</time></trkpt><trkpt lat="43.4351066" lon="13.2373345"><ele>216.0</ele><time>2026-05-01T13:13:36.807Z</time></trkpt><trkpt lat="43.4350373" lon="13.2371844"><ele>216.0</ele><time>2026-05-01T13:13:37.807Z</time></trkpt><trkpt lat="43.4349585" lon="13.2370456"><ele>216.0</ele><time>2026-05-01T13:13:38.807Z</time></trkpt><trkpt lat="43.4348696" lon="13.2369239"><ele>216.0</ele><time>2026-05-01T13:13:39.806Z</time></trkpt><trkpt lat="43.4347744" lon="13.2368096"><ele>216.0</ele><time>2026-05-01T13:13:40.807Z</time></trkpt><trkpt lat="43.4346719" lon="13.2367139"><ele>216.0</ele><time>2026-05-01T13:13:41.806Z</time></trkpt><trkpt lat="43.434561" lon="13.2366401"><ele>216.75</ele><time>2026-05-01T13:13:42.806Z</time></trkpt><trkpt lat="43.4344443" lon="13.2365826"><ele>217.5</ele><time>2026-05-01T13:13:43.807Z</time></trkpt><trkpt lat="43.4343253" lon="13.2365324"><ele>218.25</ele><time>2026-05-01T13:13:44.808Z</time></trkpt><trkpt lat="43.4342073" lon="13.2364822"><ele>219.0</ele><time>2026-05-01T13:13:45.806Z</time></trkpt><trkpt lat="43.4340918" lon="13.2364372"><ele>219.0</ele><time>2026-05-01T13:13:46.807Z</time></trkpt><trkpt lat="43.4339771" lon="13.2363899"><ele>219.0</ele><time>2026-05-01T13:13:47.807Z</time></trkpt><trkpt lat="43.4338605" lon="13.2363408"><ele>219.0</ele><time>2026-05-01T13:13:48.806Z</time></trkpt><trkpt lat="43.4337475" lon="13.2362855"><ele>219.0</ele><time>2026-05-01T13:13:49.807Z</time></trkpt><trkpt lat="43.4336393" lon="13.2362185"><ele>214.75</ele><time>2026-05-01T13:13:50.806Z</time></trkpt><trkpt lat="43.433541" lon="13.2361304"><ele>210.5</ele><time>2026-05-01T13:13:51.807Z</time></trkpt><trkpt lat="43.433463" lon="13.2360171"><ele>206.25</ele><time>2026-05-01T13:13:52.807Z</time></trkpt><trkpt lat="43.433406" lon="13.2358864"><ele>202.0</ele><time>2026-05-01T13:13:53.807Z</time></trkpt><trkpt lat="43.4333675" lon="13.2357383"><ele>201.25</ele><time>2026-05-01T13:13:54.807Z</time></trkpt><trkpt lat="43.4333412" lon="13.2355818"><ele>200.5</ele><time>2026-05-01T13:13:55.806Z</time></trkpt><trkpt lat="43.4333205" lon="13.2354184"><ele>199.75</ele><time>2026-05-01T13:13:56.807Z</time></trkpt><trkpt lat="43.4333039" lon="13.2352547"><ele>199.0</ele><time>2026-05-01T13:13:57.807Z</time></trkpt><trkpt lat="43.4332888" lon="13.2350926"><ele>199.0</ele><time>2026-05-01T13:13:58.807Z</time></trkpt><trkpt lat="43.4332724" lon="13.2349339"><ele>199.0</ele><time>2026-05-01T13:13:59.807Z</time></trkpt><trkpt lat="43.4332595" lon="13.2347725"><ele>199.0</ele><time>2026-05-01T13:14:00.806Z</time></trkpt><trkpt lat="43.4332455" lon="13.2346098"><ele>199.0</ele><time>2026-05-01T13:14:01.807Z</time></trkpt><trkpt lat="43.4332289" lon="13.2344463"><ele>197.75</ele><time>2026-05-01T13:14:02.806Z</time></trkpt><trkpt lat="43.4332127" lon="13.2342806"><ele>196.5</ele><time>2026-05-01T13:14:03.806Z</time></trkpt><trkpt lat="43.4331985" lon="13.2341122"><ele>195.25</ele><time>2026-05-01T13:14:04.807Z</time></trkpt><trkpt lat="43.4331865" lon="13.2339494"><ele>194.0</ele><time>2026-05-01T13:14:05.807Z</time></trkpt><trkpt lat="43.4331742" lon="13.2337826"><ele>194.0</ele><time>2026-05-01T13:14:06.807Z</time></trkpt><trkpt lat="43.4331613" lon="13.2336154"><ele>194.0</ele><time>2026-05-01T13:14:07.806Z</time></trkpt><trkpt lat="43.4331527" lon="13.2334514"><ele>194.0</ele><time>2026-05-01T13:14:08.807Z</time></trkpt><trkpt lat="43.4331471" lon="13.2332884"><ele>194.0</ele><time>2026-05-01T13:14:09.806Z</time></trkpt><trkpt lat="43.4331429" lon="13.2331293"><ele>193.79999999999998</ele><time>2026-05-01T13:14:10.806Z</time></trkpt><trkpt lat="43.4331399" lon="13.2329739"><ele>193.6</ele><time>2026-05-01T13:14:11.807Z</time></trkpt><trkpt lat="43.4331277" lon="13.2328291"><ele>193.4</ele><time>2026-05-01T13:14:12.806Z</time></trkpt><trkpt lat="43.4331058" lon="13.2326955"><ele>193.2</ele><time>2026-05-01T13:14:13.807Z</time></trkpt><trkpt lat="43.4330634" lon="13.2325792"><ele>193.0</ele><time>2026-05-01T13:14:14.807Z</time></trkpt><trkpt lat="43.4329994" lon="13.2324857"><ele>191.8</ele><time>2026-05-01T13:14:15.807Z</time></trkpt><trkpt lat="43.4329228" lon="13.2324075"><ele>190.60000000000002</ele><time>2026-05-01T13:14:16.807Z</time></trkpt><trkpt lat="43.4328302" lon="13.2323409"><ele>189.39999999999998</ele><time>2026-05-01T13:14:17.806Z</time></trkpt><trkpt lat="43.4327296" lon="13.2322814"><ele>188.2</ele><time>2026-05-01T13:14:18.807Z</time></trkpt><trkpt lat="43.4326203" lon="13.2322284"><ele>187.0</ele><time>2026-05-01T13:14:19.807Z</time></trkpt><trkpt lat="43.4325089" lon="13.2321764"><ele>187.0</ele><time>2026-05-01T13:14:20.807Z</time></trkpt><trkpt lat="43.4323919" lon="13.2321273"><ele>187.0</ele><time>2026-05-01T13:14:21.806Z</time></trkpt><trkpt lat="43.4322749" lon="13.2320785"><ele>187.0</ele><time>2026-05-01T13:14:22.806Z</time></trkpt><trkpt lat="43.432155" lon="13.2320315"><ele>187.0</ele><time>2026-05-01T13:14:23.807Z</time></trkpt><trkpt lat="43.4320329" lon="13.231987"><ele>186.5</ele><time>2026-05-01T13:14:24.807Z</time></trkpt><trkpt lat="43.4319152" lon="13.23194"><ele>186.0</ele><time>2026-05-01T13:14:25.807Z</time></trkpt><trkpt lat="43.4318034" lon="13.2318953"><ele>185.5</ele><time>2026-05-01T13:14:26.807Z</time></trkpt><trkpt lat="43.4316949" lon="13.2318521"><ele>185.0</ele><time>2026-05-01T13:14:27.808Z</time></trkpt><trkpt lat="43.4315922" lon="13.2318115"><ele>185.0</ele><time>2026-05-01T13:14:28.806Z</time></trkpt><trkpt lat="43.431493" lon="13.2317778"><ele>185.0</ele><time>2026-05-01T13:14:29.807Z</time></trkpt><trkpt lat="43.4313955" lon="13.2317486"><ele>185.0</ele><time>2026-05-01T13:14:30.806Z</time></trkpt><trkpt lat="43.4313048" lon="13.2317134"><ele>185.0</ele><time>2026-05-01T13:14:31.806Z</time></trkpt><trkpt lat="43.4312201" lon="13.2316823"><ele>185.0</ele><time>2026-05-01T13:14:32.806Z</time></trkpt><trkpt lat="43.431136" lon="13.2316574"><ele>185.5</ele><time>2026-05-01T13:14:33.807Z</time></trkpt><trkpt lat="43.4310615" lon="13.2316383"><ele>186.0</ele><time>2026-05-01T13:14:34.807Z</time></trkpt><trkpt lat="43.4309875" lon="13.2316209"><ele>186.5</ele><time>2026-05-01T13:14:35.806Z</time></trkpt><trkpt lat="43.4309141" lon="13.2316037"><ele>187.0</ele><time>2026-05-01T13:14:36.806Z</time></trkpt><trkpt lat="43.4308392" lon="13.2315876"><ele>187.5</ele><time>2026-05-01T13:14:37.807Z</time></trkpt><trkpt lat="43.4307618" lon="13.231571"><ele>188.0</ele><time>2026-05-01T13:14:38.807Z</time></trkpt><trkpt lat="43.4306819" lon="13.231555"><ele>188.0</ele><time>2026-05-01T13:14:39.807Z</time></trkpt><trkpt lat="43.4306003" lon="13.231543"><ele>188.0</ele><time>2026-05-01T13:14:40.807Z</time></trkpt><trkpt lat="43.4305222" lon="13.231525"><ele>188.0</ele><time>2026-05-01T13:14:41.806Z</time></trkpt><trkpt lat="43.4304528" lon="13.2315089"><ele>188.0</ele><time>2026-05-01T13:14:42.807Z</time></trkpt><trkpt lat="43.4303522" lon="13.2314936"><ele>188.0</ele><time>2026-05-01T13:14:44.807Z</time></trkpt><trkpt lat="43.4304154" lon="13.2315532"><ele>188.0</ele><time>2026-05-01T13:14:49.806Z</time></trkpt><trkpt lat="43.4304969" lon="13.2315677"><ele>188.0</ele><time>2026-05-01T13:14:51.807Z</time></trkpt><trkpt lat="43.4305862" lon="13.2315866"><ele>188.0</ele><time>2026-05-01T13:14:53.807Z</time></trkpt><trkpt lat="43.4306875" lon="13.2315985"><ele>188.0</ele><time>2026-05-01T13:14:55.807Z</time></trkpt><trkpt lat="43.4307512" lon="13.2316075"><ele>188.0</ele><time>2026-05-01T13:14:56.807Z</time></trkpt><trkpt lat="43.430818" lon="13.2316239"><ele>188.0</ele><time>2026-05-01T13:14:57.806Z</time></trkpt><trkpt lat="43.4308889" lon="13.2316415"><ele>188.0</ele><time>2026-05-01T13:14:58.806Z</time></trkpt><trkpt lat="43.4309621" lon="13.2316584"><ele>188.0</ele><time>2026-05-01T13:14:59.807Z</time></trkpt><trkpt lat="43.4310367" lon="13.2316717"><ele>188.0</ele><time>2026-05-01T13:15:00.806Z</time></trkpt><trkpt lat="43.4311138" lon="13.2316826"><ele>188.0</ele><time>2026-05-01T13:15:01.806Z</time></trkpt><trkpt lat="43.4311911" lon="13.2317013"><ele>188.0</ele><time>2026-05-01T13:15:02.806Z</time></trkpt><trkpt lat="43.4312732" lon="13.2317282"><ele>188.0</ele><time>2026-05-01T13:15:03.806Z</time></trkpt><trkpt lat="43.4313573" lon="13.2317538"><ele>188.0</ele><time>2026-05-01T13:15:04.807Z</time></trkpt><trkpt lat="43.4314428" lon="13.2317818"><ele>187.4</ele><time>2026-05-01T13:15:05.808Z</time></trkpt><trkpt lat="43.4315306" lon="13.2318133"><ele>186.8</ele><time>2026-05-01T13:15:06.807Z</time></trkpt><trkpt lat="43.4316195" lon="13.231846"><ele>186.2</ele><time>2026-05-01T13:15:07.807Z</time></trkpt><trkpt lat="43.4317102" lon="13.2318734"><ele>185.6</ele><time>2026-05-01T13:15:08.807Z</time></trkpt><trkpt lat="43.4318034" lon="13.2319003"><ele>185.0</ele><time>2026-05-01T13:15:09.806Z</time></trkpt><trkpt lat="43.4318944" lon="13.2319359"><ele>185.0</ele><time>2026-05-01T13:15:10.807Z</time></trkpt><trkpt lat="43.4319883" lon="13.2319721"><ele>185.0</ele><time>2026-05-01T13:15:11.807Z</time></trkpt><trkpt lat="43.4320817" lon="13.2320081"><ele>185.0</ele><time>2026-05-01T13:15:12.807Z</time></trkpt><trkpt lat="43.4321759" lon="13.2320533"><ele>185.0</ele><time>2026-05-01T13:15:13.807Z</time></trkpt><trkpt lat="43.4322719" lon="13.232097"><ele>185.0</ele><time>2026-05-01T13:15:14.807Z</time></trkpt><trkpt lat="43.4323663" lon="13.2321359"><ele>184.8</ele><time>2026-05-01T13:15:15.806Z</time></trkpt><trkpt lat="43.4324593" lon="13.2321803"><ele>184.6</ele><time>2026-05-01T13:15:16.806Z</time></trkpt><trkpt lat="43.4325514" lon="13.2322167"><ele>184.39999999999998</ele><time>2026-05-01T13:15:17.807Z</time></trkpt><trkpt lat="43.4326453" lon="13.2322533"><ele>184.2</ele><time>2026-05-01T13:15:18.807Z</time></trkpt><trkpt lat="43.4327355" lon="13.2322982"><ele>184.0</ele><time>2026-05-01T13:15:19.807Z</time></trkpt><trkpt lat="43.432824" lon="13.2323527"><ele>184.0</ele><time>2026-05-01T13:15:20.806Z</time></trkpt><trkpt lat="43.4329067" lon="13.23242"><ele>184.0</ele><time>2026-05-01T13:15:21.807Z</time></trkpt><trkpt lat="43.4329828" lon="13.2324992"><ele>184.0</ele><time>2026-05-01T13:15:22.807Z</time></trkpt><trkpt lat="43.4330437" lon="13.2325974"><ele>184.0</ele><time>2026-05-01T13:15:23.807Z</time></trkpt><trkpt lat="43.4330879" lon="13.2327099"><ele>184.0</ele><time>2026-05-01T13:15:24.806Z</time></trkpt><trkpt lat="43.4331135" lon="13.232839"><ele>185.79999999999998</ele><time>2026-05-01T13:15:25.807Z</time></trkpt><trkpt lat="43.4331202" lon="13.2329781"><ele>187.6</ele><time>2026-05-01T13:15:26.807Z</time></trkpt><trkpt lat="43.4331245" lon="13.2331186"><ele>189.4</ele><time>2026-05-01T13:15:27.806Z</time></trkpt><trkpt lat="43.4331256" lon="13.2332672"><ele>191.2</ele><time>2026-05-01T13:15:28.807Z</time></trkpt><trkpt lat="43.4331336" lon="13.2334161"><ele>193.0</ele><time>2026-05-01T13:15:29.806Z</time></trkpt><trkpt lat="43.4331436" lon="13.233565"><ele>193.25</ele><time>2026-05-01T13:15:30.807Z</time></trkpt><trkpt lat="43.4331531" lon="13.2337192"><ele>193.5</ele><time>2026-05-01T13:15:31.808Z</time></trkpt><trkpt lat="43.4331629" lon="13.2338802"><ele>193.75</ele><time>2026-05-01T13:15:32.806Z</time></trkpt><trkpt lat="43.4331755" lon="13.2340447"><ele>194.0</ele><time>2026-05-01T13:15:33.807Z</time></trkpt><trkpt lat="43.433189" lon="13.234207"><ele>194.0</ele><time>2026-05-01T13:15:34.808Z</time></trkpt><trkpt lat="43.4332029" lon="13.2343718"><ele>194.0</ele><time>2026-05-01T13:15:35.806Z</time></trkpt><trkpt lat="43.4332124" lon="13.2345358"><ele>194.0</ele><time>2026-05-01T13:15:36.806Z</time></trkpt><trkpt lat="43.4332273" lon="13.2347028"><ele>194.0</ele><time>2026-05-01T13:15:37.807Z</time></trkpt><trkpt lat="43.433244" lon="13.2348673"><ele>195.25</ele><time>2026-05-01T13:15:38.806Z</time></trkpt><trkpt lat="43.4332621" lon="13.2350365"><ele>196.5</ele><time>2026-05-01T13:15:39.807Z</time></trkpt><trkpt lat="43.4332764" lon="13.2352019"><ele>197.75</ele><time>2026-05-01T13:15:40.807Z</time></trkpt><trkpt lat="43.4332903" lon="13.2353669"><ele>199.0</ele><time>2026-05-01T13:15:41.806Z</time></trkpt><trkpt lat="43.4333089" lon="13.2355279"><ele>199.75</ele><time>2026-05-01T13:15:42.806Z</time></trkpt><trkpt lat="43.433332" lon="13.2356836"><ele>200.5</ele><time>2026-05-01T13:15:43.806Z</time></trkpt><trkpt lat="43.4333656" lon="13.2358317"><ele>201.25</ele><time>2026-05-01T13:15:44.806Z</time></trkpt><trkpt lat="43.4334134" lon="13.235973"><ele>202.0</ele><time>2026-05-01T13:15:45.807Z</time></trkpt><trkpt lat="43.4334799" lon="13.2360978"><ele>202.0</ele><time>2026-05-01T13:15:46.806Z</time></trkpt><trkpt lat="43.4335609" lon="13.2361975"><ele>202.0</ele><time>2026-05-01T13:15:47.806Z</time></trkpt><trkpt lat="43.4336544" lon="13.2362673"><ele>202.0</ele><time>2026-05-01T13:15:48.807Z</time></trkpt><trkpt lat="43.4337591" lon="13.2363166"><ele>202.0</ele><time>2026-05-01T13:15:49.806Z</time></trkpt><trkpt lat="43.4338678" lon="13.2363707"><ele>202.0</ele><time>2026-05-01T13:15:50.807Z</time></trkpt><trkpt lat="43.4339779" lon="13.2364152"><ele>203.2</ele><time>2026-05-01T13:15:51.807Z</time></trkpt><trkpt lat="43.4340877" lon="13.2364574"><ele>204.39999999999998</ele><time>2026-05-01T13:15:52.807Z</time></trkpt><trkpt lat="43.4341957" lon="13.2365004"><ele>205.60000000000002</ele><time>2026-05-01T13:15:53.806Z</time></trkpt><trkpt lat="43.4343028" lon="13.2365417"><ele>206.8</ele><time>2026-05-01T13:15:54.807Z</time></trkpt><trkpt lat="43.434408" lon="13.2365871"><ele>208.0</ele><time>2026-05-01T13:15:55.806Z</time></trkpt><trkpt lat="43.4345161" lon="13.2366416"><ele>208.0</ele><time>2026-05-01T13:15:56.807Z</time></trkpt><trkpt lat="43.4346228" lon="13.2367122"><ele>208.0</ele><time>2026-05-01T13:15:57.807Z</time></trkpt><trkpt lat="43.4347252" lon="13.2367996"><ele>208.0</ele><time>2026-05-01T13:15:58.807Z</time></trkpt><trkpt lat="43.4348236" lon="13.2369018"><ele>208.0</ele><time>2026-05-01T13:15:59.807Z</time></trkpt><trkpt lat="43.4349136" lon="13.2370214"><ele>208.5</ele><time>2026-05-01T13:16:00.807Z</time></trkpt><trkpt lat="43.4349928" lon="13.2371584"><ele>209.0</ele><time>2026-05-01T13:16:01.807Z</time></trkpt><trkpt lat="43.4350652" lon="13.2373042"><ele>209.5</ele><time>2026-05-01T13:16:02.807Z</time></trkpt><trkpt lat="43.4351351" lon="13.2374463"><ele>210.0</ele><time>2026-05-01T13:16:03.807Z</time></trkpt><trkpt lat="43.4352053" lon="13.2375883"><ele>210.0</ele><time>2026-05-01T13:16:04.806Z</time></trkpt><trkpt lat="43.4352764" lon="13.2377356"><ele>210.0</ele><time>2026-05-01T13:16:05.807Z</time></trkpt><trkpt lat="43.4353471" lon="13.2378889"><ele>210.0</ele><time>2026-05-01T13:16:06.806Z</time></trkpt><trkpt lat="43.4354227" lon="13.2380453"><ele>210.0</ele><time>2026-05-01T13:16:07.807Z</time></trkpt><trkpt lat="43.4355031" lon="13.2382009"><ele>211.5</ele><time>2026-05-01T13:16:08.807Z</time></trkpt><trkpt lat="43.4355776" lon="13.2383649"><ele>213.0</ele><time>2026-05-01T13:16:09.806Z</time></trkpt><trkpt lat="43.4356532" lon="13.2385273"><ele>214.5</ele><time>2026-05-01T13:16:10.806Z</time></trkpt><trkpt lat="43.4357312" lon="13.2386907"><ele>216.0</ele><time>2026-05-01T13:16:11.807Z</time></trkpt><trkpt lat="43.4358075" lon="13.2388558"><ele>214.25</ele><time>2026-05-01T13:16:12.807Z</time></trkpt><trkpt lat="43.4358821" lon="13.2390148"><ele>212.5</ele><time>2026-05-01T13:16:13.806Z</time></trkpt><trkpt lat="43.4359595" lon="13.2391698"><ele>210.75</ele><time>2026-05-01T13:16:14.807Z</time></trkpt><trkpt lat="43.4360372" lon="13.239328"><ele>209.0</ele><time>2026-05-01T13:16:15.807Z</time></trkpt><trkpt lat="43.4361171" lon="13.2394863"><ele>209.0</ele><time>2026-05-01T13:16:16.806Z</time></trkpt><trkpt lat="43.4361975" lon="13.2396474"><ele>209.0</ele><time>2026-05-01T13:16:17.806Z</time></trkpt><trkpt lat="43.4362793" lon="13.2398027"><ele>209.0</ele><time>2026-05-01T13:16:18.807Z</time></trkpt><trkpt lat="43.4363646" lon="13.2399595"><ele>209.0</ele><time>2026-05-01T13:16:19.806Z</time></trkpt><trkpt lat="43.4364503" lon="13.2401112"><ele>208.75</ele><time>2026-05-01T13:16:20.806Z</time></trkpt><trkpt lat="43.4365388" lon="13.2402611"><ele>208.5</ele><time>2026-05-01T13:16:21.807Z</time></trkpt><trkpt lat="43.4366225" lon="13.2404138"><ele>208.25</ele><time>2026-05-01T13:16:22.807Z</time></trkpt><trkpt lat="43.4367071" lon="13.2405646"><ele>208.0</ele><time>2026-05-01T13:16:23.806Z</time></trkpt><trkpt lat="43.4367904" lon="13.2407127"><ele>207.5</ele><time>2026-05-01T13:16:24.806Z</time></trkpt><trkpt lat="43.4368719" lon="13.2408541"><ele>207.0</ele><time>2026-05-01T13:16:25.806Z</time></trkpt><trkpt lat="43.4369494" lon="13.2409938"><ele>206.5</ele><time>2026-05-01T13:16:26.806Z</time></trkpt><trkpt lat="43.4370262" lon="13.2411293"><ele>206.0</ele><time>2026-05-01T13:16:27.807Z</time></trkpt><trkpt lat="43.4370986" lon="13.2412668"><ele>206.0</ele><time>2026-05-01T13:16:28.806Z</time></trkpt><trkpt lat="43.437173" lon="13.2414042"><ele>206.0</ele><time>2026-05-01T13:16:29.807Z</time></trkpt><trkpt lat="43.4372455" lon="13.2415366"><ele>206.0</ele><time>2026-05-01T13:16:30.807Z</time></trkpt><trkpt lat="43.4373173" lon="13.2416641"><ele>206.0</ele><time>2026-05-01T13:16:31.806Z</time></trkpt><trkpt lat="43.4373899" lon="13.2417884"><ele>206.0</ele><time>2026-05-01T13:16:32.807Z</time></trkpt><trkpt lat="43.4374558" lon="13.2419105"><ele>206.0</ele><time>2026-05-01T13:16:33.808Z</time></trkpt><trkpt lat="43.4375194" lon="13.2420272"><ele>206.0</ele><time>2026-05-01T13:16:34.807Z</time></trkpt><trkpt lat="43.4375805" lon="13.2421382"><ele>206.0</ele><time>2026-05-01T13:16:35.807Z</time></trkpt><trkpt lat="43.4376418" lon="13.2422443"><ele>206.0</ele><time>2026-05-01T13:16:36.807Z</time></trkpt><trkpt lat="43.4376962" lon="13.2423467"><ele>206.00000000000003</ele><time>2026-05-01T13:16:37.807Z</time></trkpt><trkpt lat="43.4377475" lon="13.2424381"><ele>206.0</ele><time>2026-05-01T13:16:38.807Z</time></trkpt><trkpt lat="43.4377931" lon="13.2425186"><ele>206.0</ele><time>2026-05-01T13:16:39.808Z</time></trkpt><trkpt lat="43.4378678" lon="13.2426493"><ele>206.0</ele><time>2026-05-01T13:16:41.806Z</time></trkpt><trkpt lat="43.4379123" lon="13.2427202"><ele>206.00000000000003</ele><time>2026-05-01T13:16:43.807Z</time></trkpt><trkpt lat="43.437962" lon="13.2427843"><ele>206.0</ele><time>2026-05-01T13:17:01.807Z</time></trkpt><trkpt lat="43.4380285" lon="13.2429015"><ele>206.0</ele><time>2026-05-01T13:17:03.807Z</time></trkpt><trkpt lat="43.4380998" lon="13.2430337"><ele>206.0</ele><time>2026-05-01T13:17:05.807Z</time></trkpt><trkpt lat="43.4381935" lon="13.243148"><ele>206.0</ele><time>2026-05-01T13:17:07.806Z</time></trkpt><trkpt lat="43.4382883" lon="13.2431862"><ele>206.0</ele><time>2026-05-01T13:17:09.807Z</time></trkpt><trkpt lat="43.4383735" lon="13.2430841"><ele>206.00000000000003</ele><time>2026-05-01T13:17:11.807Z</time></trkpt><trkpt lat="43.4384196" lon="13.2430139"><ele>206.0</ele><time>2026-05-01T13:17:12.807Z</time></trkpt><trkpt lat="43.4384704" lon="13.242935"><ele>206.0</ele><time>2026-05-01T13:17:13.807Z</time></trkpt><trkpt lat="43.4385248" lon="13.2428499"><ele>206.0</ele><time>2026-05-01T13:17:14.807Z</time></trkpt><trkpt lat="43.4385807" lon="13.2427592"><ele>206.00000000000003</ele><time>2026-05-01T13:17:15.806Z</time></trkpt><trkpt lat="43.4386416" lon="13.2426661"><ele>206.0</ele><time>2026-05-01T13:17:16.806Z</time></trkpt><trkpt lat="43.4387035" lon="13.2425678"><ele>206.0</ele><time>2026-05-01T13:17:17.806Z</time></trkpt><trkpt lat="43.4387683" lon="13.2424657"><ele>206.0</ele><time>2026-05-01T13:17:18.807Z</time></trkpt><trkpt lat="43.4388445" lon="13.2423484"><ele>206.0</ele><time>2026-05-01T13:17:19.807Z</time></trkpt><trkpt lat="43.4389214" lon="13.2422292"><ele>206.0</ele><time>2026-05-01T13:17:20.807Z</time></trkpt><trkpt lat="43.4390066" lon="13.2421174"><ele>206.0</ele><time>2026-05-01T13:17:21.807Z</time></trkpt><trkpt lat="43.4391148" lon="13.2420203"><ele>207.5</ele><time>2026-05-01T13:17:22.807Z</time></trkpt><trkpt lat="43.4392306" lon="13.2419631"><ele>209.0</ele><time>2026-05-01T13:17:23.807Z</time></trkpt><trkpt lat="43.4393539" lon="13.2419427"><ele>210.5</ele><time>2026-05-01T13:17:24.807Z</time></trkpt><trkpt lat="43.4394732" lon="13.2419556"><ele>212.0</ele><time>2026-05-01T13:17:25.806Z</time></trkpt><trkpt lat="43.4395942" lon="13.2419883"><ele>213.0</ele><time>2026-05-01T13:17:26.807Z</time></trkpt><trkpt lat="43.4397158" lon="13.2420106"><ele>214.0</ele><time>2026-05-01T13:17:27.807Z</time></trkpt><trkpt lat="43.4398326" lon="13.2420047"><ele>215.0</ele><time>2026-05-01T13:17:28.807Z</time></trkpt><trkpt lat="43.4399341" lon="13.2419595"><ele>216.0</ele><time>2026-05-01T13:17:29.806Z</time></trkpt><trkpt lat="43.4400141" lon="13.2418781"><ele>217.0</ele><time>2026-05-01T13:17:30.807Z</time></trkpt><trkpt lat="43.4400623" lon="13.2417729"><ele>217.0</ele><time>2026-05-01T13:17:31.807Z</time></trkpt><trkpt lat="43.4400799" lon="13.2416493"><ele>217.0</ele><time>2026-05-01T13:17:32.806Z</time></trkpt><trkpt lat="43.4400679" lon="13.2415218"><ele>217.0</ele><time>2026-05-01T13:17:33.807Z</time></trkpt><trkpt lat="43.4400361" lon="13.2413944"><ele>217.0</ele><time>2026-05-01T13:17:34.807Z</time></trkpt><trkpt lat="43.4399936" lon="13.2412526"><ele>217.0</ele><time>2026-05-01T13:17:35.807Z</time></trkpt><trkpt lat="43.4399511" lon="13.2411071"><ele>218.5</ele><time>2026-05-01T13:17:36.806Z</time></trkpt><trkpt lat="43.4399053" lon="13.2409632"><ele>220.0</ele><time>2026-05-01T13:17:37.807Z</time></trkpt><trkpt lat="43.4398499" lon="13.2408107"><ele>221.5</ele><time>2026-05-01T13:17:38.807Z</time></trkpt><trkpt lat="43.4398013" lon="13.2406593"><ele>223.0</ele><time>2026-05-01T13:17:39.806Z</time></trkpt><trkpt lat="43.439755" lon="13.2405069"><ele>224.0</ele><time>2026-05-01T13:17:40.807Z</time></trkpt><trkpt lat="43.4397091" lon="13.240358"><ele>225.0</ele><time>2026-05-01T13:17:41.807Z</time></trkpt><trkpt lat="43.4396657" lon="13.2401977"><ele>226.0</ele><time>2026-05-01T13:17:42.807Z</time></trkpt><trkpt lat="43.4396282" lon="13.2400237"><ele>227.0</ele><time>2026-05-01T13:17:43.807Z</time></trkpt><trkpt lat="43.4395992" lon="13.2398446"><ele>228.25</ele><time>2026-05-01T13:17:44.806Z</time></trkpt><trkpt lat="43.439575" lon="13.2396581"><ele>229.5</ele><time>2026-05-01T13:17:45.807Z</time></trkpt><trkpt lat="43.4395527" lon="13.2394606"><ele>230.75</ele><time>2026-05-01T13:17:46.807Z</time></trkpt><trkpt lat="43.4395352" lon="13.2392594"><ele>232.0</ele><time>2026-05-01T13:17:47.807Z</time></trkpt><trkpt lat="43.4395229" lon="13.2390594"><ele>233.25</ele><time>2026-05-01T13:17:48.807Z</time></trkpt><trkpt lat="43.4395046" lon="13.2388618"><ele>234.5</ele><time>2026-05-01T13:17:49.807Z</time></trkpt><trkpt lat="43.4394837" lon="13.2386693"><ele>235.75</ele><time>2026-05-01T13:17:50.807Z</time></trkpt><trkpt lat="43.439471" lon="13.2384636"><ele>237.0</ele><time>2026-05-01T13:17:51.807Z</time></trkpt><trkpt lat="43.4394495" lon="13.2382706"><ele>237.75</ele><time>2026-05-01T13:17:52.808Z</time></trkpt><trkpt lat="43.4394257" lon="13.2380714"><ele>238.5</ele><time>2026-05-01T13:17:53.806Z</time></trkpt><trkpt lat="43.4394134" lon="13.2378716"><ele>239.25</ele><time>2026-05-01T13:17:54.806Z</time></trkpt><trkpt lat="43.4393978" lon="13.2376781"><ele>240.0</ele><time>2026-05-01T13:17:55.807Z</time></trkpt><trkpt lat="43.4393802" lon="13.2374714"><ele>242.0</ele><time>2026-05-01T13:17:56.807Z</time></trkpt><trkpt lat="43.4393643" lon="13.2372516"><ele>244.0</ele><time>2026-05-01T13:17:57.806Z</time></trkpt><trkpt lat="43.4393505" lon="13.2370365"><ele>246.0</ele><time>2026-05-01T13:17:58.808Z</time></trkpt><trkpt lat="43.4393373" lon="13.2367988"><ele>246.0</ele><time>2026-05-01T13:17:59.807Z</time></trkpt><trkpt lat="43.4393245" lon="13.2365753"><ele>246.0</ele><time>2026-05-01T13:18:00.807Z</time></trkpt><trkpt lat="43.4393105" lon="13.2363637"><ele>246.0</ele><time>2026-05-01T13:18:01.806Z</time></trkpt><trkpt lat="43.4392953" lon="13.2361488"><ele>247.0</ele><time>2026-05-01T13:18:02.807Z</time></trkpt><trkpt lat="43.4392807" lon="13.2359453"><ele>248.0</ele><time>2026-05-01T13:18:03.807Z</time></trkpt><trkpt lat="43.4392664" lon="13.23575"><ele>249.0</ele><time>2026-05-01T13:18:04.807Z</time></trkpt><trkpt lat="43.4392524" lon="13.2355561"><ele>250.0</ele><time>2026-05-01T13:18:05.807Z</time></trkpt><trkpt lat="43.439241" lon="13.2353692"><ele>251.0</ele><time>2026-05-01T13:18:06.807Z</time></trkpt><trkpt lat="43.4392323" lon="13.2351717"><ele>252.0</ele><time>2026-05-01T13:18:07.806Z</time></trkpt><trkpt lat="43.4392269" lon="13.2349823"><ele>253.0</ele><time>2026-05-01T13:18:08.806Z</time></trkpt><trkpt lat="43.439216" lon="13.2347925"><ele>254.0</ele><time>2026-05-01T13:18:09.807Z</time></trkpt><trkpt lat="43.4391995" lon="13.2345851"><ele>255.0</ele><time>2026-05-01T13:18:10.807Z</time></trkpt><trkpt lat="43.4391804" lon="13.2343849"><ele>256.0</ele><time>2026-05-01T13:18:11.807Z</time></trkpt><trkpt lat="43.4391601" lon="13.2341885"><ele>257.0</ele><time>2026-05-01T13:18:12.807Z</time></trkpt><trkpt lat="43.4391401" lon="13.23399"><ele>258.0</ele><time>2026-05-01T13:18:13.806Z</time></trkpt><trkpt lat="43.4391221" lon="13.2338008"><ele>259.25</ele><time>2026-05-01T13:18:14.806Z</time></trkpt><trkpt lat="43.4391044" lon="13.2336015"><ele>260.5</ele><time>2026-05-01T13:18:15.807Z</time></trkpt><trkpt lat="43.4390867" lon="13.2334112"><ele>261.75</ele><time>2026-05-01T13:18:16.806Z</time></trkpt><trkpt lat="43.4390704" lon="13.233233"><ele>263.0</ele><time>2026-05-01T13:18:17.806Z</time></trkpt><trkpt lat="43.4390581" lon="13.2330615"><ele>264.0</ele><time>2026-05-01T13:18:18.807Z</time></trkpt><trkpt lat="43.4390515" lon="13.2328983"><ele>265.0</ele><time>2026-05-01T13:18:19.808Z</time></trkpt><trkpt lat="43.4390554" lon="13.2327344"><ele>266.0</ele><time>2026-05-01T13:18:20.806Z</time></trkpt><trkpt lat="43.4390719" lon="13.2325697"><ele>267.0</ele><time>2026-05-01T13:18:21.807Z</time></trkpt><trkpt lat="43.4391001" lon="13.2324124"><ele>268.0</ele><time>2026-05-01T13:18:22.807Z</time></trkpt><trkpt lat="43.43914" lon="13.2322488"><ele>269.0</ele><time>2026-05-01T13:18:23.807Z</time></trkpt><trkpt lat="43.4391821" lon="13.2320961"><ele>270.0</ele><time>2026-05-01T13:18:24.806Z</time></trkpt><trkpt lat="43.4392236" lon="13.2319507"><ele>271.0</ele><time>2026-05-01T13:18:25.807Z</time></trkpt><trkpt lat="43.4392709" lon="13.2317936"><ele>271.0</ele><time>2026-05-01T13:18:26.806Z</time></trkpt><trkpt lat="43.439319" lon="13.2316372"><ele>271.0</ele><time>2026-05-01T13:18:27.806Z</time></trkpt><trkpt lat="43.4393697" lon="13.231474"><ele>271.0</ele><time>2026-05-01T13:18:28.807Z</time></trkpt><trkpt lat="43.439421" lon="13.2313129"><ele>271.0</ele><time>2026-05-01T13:18:29.806Z</time></trkpt><trkpt lat="43.4394787" lon="13.2311392"><ele>270.5</ele><time>2026-05-01T13:18:30.807Z</time></trkpt><trkpt lat="43.4395377" lon="13.2309635"><ele>270.0</ele><time>2026-05-01T13:18:31.806Z</time></trkpt><trkpt lat="43.4395964" lon="13.2307898"><ele>269.5</ele><time>2026-05-01T13:18:32.806Z</time></trkpt><trkpt lat="43.4396529" lon="13.2306148"><ele>269.0</ele><time>2026-05-01T13:18:33.806Z</time></trkpt><trkpt lat="43.4397115" lon="13.2304419"><ele>270.0</ele><time>2026-05-01T13:18:34.806Z</time></trkpt><trkpt lat="43.4397742" lon="13.2302724"><ele>271.0</ele><time>2026-05-01T13:18:35.807Z</time></trkpt><trkpt lat="43.439836" lon="13.2301007"><ele>272.0</ele><time>2026-05-01T13:18:36.806Z</time></trkpt><trkpt lat="43.4398974" lon="13.2299236"><ele>273.0</ele><time>2026-05-01T13:18:37.807Z</time></trkpt><trkpt lat="43.4399575" lon="13.2297519"><ele>273.75</ele><time>2026-05-01T13:18:38.807Z</time></trkpt><trkpt lat="43.4400246" lon="13.2295711"><ele>274.5</ele><time>2026-05-01T13:18:39.806Z</time></trkpt><trkpt lat="43.4400915" lon="13.2293989"><ele>275.25</ele><time>2026-05-01T13:18:40.806Z</time></trkpt><trkpt lat="43.4401587" lon="13.2292258"><ele>276.0</ele><time>2026-05-01T13:18:41.807Z</time></trkpt><trkpt lat="43.4402255" lon="13.2290488"><ele>276.25</ele><time>2026-05-01T13:18:42.807Z</time></trkpt><trkpt lat="43.4402879" lon="13.2288648"><ele>276.5</ele><time>2026-05-01T13:18:43.806Z</time></trkpt><trkpt lat="43.4403378" lon="13.228671"><ele>276.75</ele><time>2026-05-01T13:18:44.807Z</time></trkpt><trkpt lat="43.440375" lon="13.2284739"><ele>277.0</ele><time>2026-05-01T13:18:45.806Z</time></trkpt><trkpt lat="43.4404034" lon="13.2282621"><ele>276.3333333333333</ele><time>2026-05-01T13:18:46.806Z</time></trkpt><trkpt lat="43.4404246" lon="13.228037"><ele>275.6666666666667</ele><time>2026-05-01T13:18:47.806Z</time></trkpt><trkpt lat="43.4404419" lon="13.227818"><ele>275.0</ele><time>2026-05-01T13:18:48.806Z</time></trkpt><trkpt lat="43.4404608" lon="13.2276029"><ele>275.33333333333337</ele><time>2026-05-01T13:18:49.806Z</time></trkpt><trkpt lat="43.4404815" lon="13.2273854"><ele>275.6666666666667</ele><time>2026-05-01T13:18:50.807Z</time></trkpt><trkpt lat="43.4405009" lon="13.2271684"><ele>276.0</ele><time>2026-05-01T13:18:51.807Z</time></trkpt><trkpt lat="43.4405182" lon="13.2269484"><ele>277.3333333333333</ele><time>2026-05-01T13:18:52.806Z</time></trkpt><trkpt lat="43.4405332" lon="13.2267384"><ele>278.66666666666663</ele><time>2026-05-01T13:18:53.806Z</time></trkpt><trkpt lat="43.440547" lon="13.2265219"><ele>280.0</ele><time>2026-05-01T13:18:54.807Z</time></trkpt><trkpt lat="43.4405601" lon="13.2263047"><ele>281.25</ele><time>2026-05-01T13:18:55.807Z</time></trkpt><trkpt lat="43.4405734" lon="13.2260983"><ele>282.5</ele><time>2026-05-01T13:18:56.807Z</time></trkpt><trkpt lat="43.4405881" lon="13.2259034"><ele>283.75</ele><time>2026-05-01T13:18:57.808Z</time></trkpt><trkpt lat="43.4406043" lon="13.225721"><ele>285.0</ele><time>2026-05-01T13:18:58.807Z</time></trkpt><trkpt lat="43.4406228" lon="13.2255459"><ele>286.25</ele><time>2026-05-01T13:18:59.808Z</time></trkpt><trkpt lat="43.4406422" lon="13.2253748"><ele>287.5</ele><time>2026-05-01T13:19:00.806Z</time></trkpt><trkpt lat="43.4406616" lon="13.2252033"><ele>288.75</ele><time>2026-05-01T13:19:01.807Z</time></trkpt><trkpt lat="43.4406832" lon="13.2250415"><ele>290.0</ele><time>2026-05-01T13:19:02.807Z</time></trkpt><trkpt lat="43.4407108" lon="13.2248711"><ele>290.5</ele><time>2026-05-01T13:19:03.806Z</time></trkpt><trkpt lat="43.4407399" lon="13.2247101"><ele>291.0</ele><time>2026-05-01T13:19:04.807Z</time></trkpt><trkpt lat="43.4407677" lon="13.2245543"><ele>291.5</ele><time>2026-05-01T13:19:05.806Z</time></trkpt><trkpt lat="43.440796" lon="13.2243919"><ele>292.0</ele><time>2026-05-01T13:19:06.807Z</time></trkpt><trkpt lat="43.4408245" lon="13.2242318"><ele>292.0</ele><time>2026-05-01T13:19:07.807Z</time></trkpt><trkpt lat="43.4408584" lon="13.2240656"><ele>292.0</ele><time>2026-05-01T13:19:08.807Z</time></trkpt><trkpt lat="43.4408973" lon="13.2238976"><ele>292.0</ele><time>2026-05-01T13:19:09.807Z</time></trkpt><trkpt lat="43.440941" lon="13.2237174"><ele>292.0</ele><time>2026-05-01T13:19:10.806Z</time></trkpt><trkpt lat="43.440987" lon="13.2235301"><ele>291.5</ele><time>2026-05-01T13:19:11.808Z</time></trkpt><trkpt lat="43.4410342" lon="13.2233427"><ele>291.0</ele><time>2026-05-01T13:19:12.807Z</time></trkpt><trkpt lat="43.4410804" lon="13.2231598"><ele>290.5</ele><time>2026-05-01T13:19:13.807Z</time></trkpt><trkpt lat="43.4411315" lon="13.2229661"><ele>290.0</ele><time>2026-05-01T13:19:14.807Z</time></trkpt><trkpt lat="43.4411839" lon="13.2227762"><ele>288.75</ele><time>2026-05-01T13:19:15.806Z</time></trkpt><trkpt lat="43.4412361" lon="13.2225851"><ele>287.5</ele><time>2026-05-01T13:19:16.806Z</time></trkpt><trkpt lat="43.4412888" lon="13.2223935"><ele>286.25</ele><time>2026-05-01T13:19:17.807Z</time></trkpt><trkpt lat="43.4413404" lon="13.2222063"><ele>285.0</ele><time>2026-05-01T13:19:18.808Z</time></trkpt><trkpt lat="43.441394" lon="13.2220067"><ele>284.0</ele><time>2026-05-01T13:19:19.807Z</time></trkpt><trkpt lat="43.4414418" lon="13.2218133"><ele>283.0</ele><time>2026-05-01T13:19:20.807Z</time></trkpt><trkpt lat="43.4414869" lon="13.221621"><ele>282.0</ele><time>2026-05-01T13:19:21.807Z</time></trkpt><trkpt lat="43.4415302" lon="13.2214308"><ele>281.0</ele><time>2026-05-01T13:19:22.806Z</time></trkpt><trkpt lat="43.4415708" lon="13.2212442"><ele>280.75</ele><time>2026-05-01T13:19:23.806Z</time></trkpt><trkpt lat="43.4416091" lon="13.2210659"><ele>280.5</ele><time>2026-05-01T13:19:24.806Z</time></trkpt><trkpt lat="43.4416468" lon="13.2208961"><ele>280.25</ele><time>2026-05-01T13:19:25.807Z</time></trkpt><trkpt lat="43.4416864" lon="13.2207221"><ele>280.0</ele><time>2026-05-01T13:19:26.807Z</time></trkpt><trkpt lat="43.4417272" lon="13.2205416"><ele>281.0</ele><time>2026-05-01T13:19:27.807Z</time></trkpt><trkpt lat="43.4417659" lon="13.2203679"><ele>282.0</ele><time>2026-05-01T13:19:28.806Z</time></trkpt><trkpt lat="43.4418052" lon="13.2201993"><ele>283.0</ele><time>2026-05-01T13:19:29.808Z</time></trkpt><trkpt lat="43.4418521" lon="13.2200241"><ele>284.0</ele><time>2026-05-01T13:19:30.806Z</time></trkpt><trkpt lat="43.4419084" lon="13.2198589"><ele>285.0</ele><time>2026-05-01T13:19:31.806Z</time></trkpt><trkpt lat="43.4419729" lon="13.2197054"><ele>286.0</ele><time>2026-05-01T13:19:32.806Z</time></trkpt><trkpt lat="43.4420419" lon="13.2195607"><ele>287.0</ele><time>2026-05-01T13:19:33.807Z</time></trkpt><trkpt lat="43.4421056" lon="13.2194339"><ele>288.0</ele><time>2026-05-01T13:19:34.807Z</time></trkpt><trkpt lat="43.4421698" lon="13.21931"><ele>288.8333333333333</ele><time>2026-05-01T13:19:35.807Z</time></trkpt><trkpt lat="43.4422307" lon="13.2191959"><ele>289.6666666666667</ele><time>2026-05-01T13:19:36.807Z</time></trkpt><trkpt lat="43.442288" lon="13.21909"><ele>290.5</ele><time>2026-05-01T13:19:37.807Z</time></trkpt><trkpt lat="43.4423404" lon="13.2189936"><ele>291.33333333333337</ele><time>2026-05-01T13:19:38.807Z</time></trkpt><trkpt lat="43.4423894" lon="13.2189068"><ele>292.1666666666667</ele><time>2026-05-01T13:19:39.806Z</time></trkpt><trkpt lat="43.4424358" lon="13.2188234"><ele>293.0</ele><time>2026-05-01T13:19:40.807Z</time></trkpt><trkpt lat="43.4424769" lon="13.2187466"><ele>293.2</ele><time>2026-05-01T13:19:41.806Z</time></trkpt><trkpt lat="43.442539" lon="13.2186112"><ele>293.4</ele><time>2026-05-01T13:19:43.807Z</time></trkpt><trkpt lat="43.4425253" lon="13.2184907"><ele>293.59999999999997</ele><time>2026-05-01T13:19:45.806Z</time></trkpt><trkpt lat="43.4424633" lon="13.2183697"><ele>293.8</ele><time>2026-05-01T13:19:47.807Z</time></trkpt><trkpt lat="43.4423946" lon="13.2182403"><ele>294.0</ele><time>2026-05-01T13:19:49.806Z</time></trkpt><trkpt lat="43.4423345" lon="13.2180898"><ele>293.0</ele><time>2026-05-01T13:19:51.807Z</time></trkpt><trkpt lat="43.4423131" lon="13.2179989"><ele>292.0</ele><time>2026-05-01T13:19:52.806Z</time></trkpt><trkpt lat="43.4422981" lon="13.217898"><ele>291.0</ele><time>2026-05-01T13:19:53.806Z</time></trkpt><trkpt lat="43.4422888" lon="13.2177937"><ele>290.0</ele><time>2026-05-01T13:19:54.807Z</time></trkpt><trkpt lat="43.4422781" lon="13.2176891"><ele>289.0</ele><time>2026-05-01T13:19:55.807Z</time></trkpt><trkpt lat="43.442258" lon="13.2175868"><ele>288.0</ele><time>2026-05-01T13:19:56.806Z</time></trkpt><trkpt lat="43.4422296" lon="13.2174884"><ele>288.0</ele><time>2026-05-01T13:19:57.807Z</time></trkpt><trkpt lat="43.442199" lon="13.2173981"><ele>288.0</ele><time>2026-05-01T13:19:58.806Z</time></trkpt><trkpt lat="43.4421727" lon="13.2173083"><ele>288.0</ele><time>2026-05-01T13:19:59.806Z</time></trkpt><trkpt lat="43.4421432" lon="13.2171451"><ele>288.0</ele><time>2026-05-01T13:20:01.807Z</time></trkpt><trkpt lat="43.4421376" lon="13.2170577"><ele>288.0</ele><time>2026-05-01T13:20:02.807Z</time></trkpt><trkpt lat="43.4421471" lon="13.216887"><ele>286.4</ele><time>2026-05-01T13:20:04.806Z</time></trkpt><trkpt lat="43.4421843" lon="13.2167668"><ele>284.8</ele><time>2026-05-01T13:20:06.807Z</time></trkpt><trkpt lat="43.4422178" lon="13.2166594"><ele>283.2</ele><time>2026-05-01T13:20:09.808Z</time></trkpt><trkpt lat="43.4422239" lon="13.2165319"><ele>281.6</ele><time>2026-05-01T13:20:11.806Z</time></trkpt><trkpt lat="43.4422041" lon="13.2163916"><ele>280.0</ele><time>2026-05-01T13:20:13.807Z</time></trkpt><trkpt lat="43.4421854" lon="13.2162388"><ele>279.2</ele><time>2026-05-01T13:20:15.807Z</time></trkpt><trkpt lat="43.442174" lon="13.2160911"><ele>278.4</ele><time>2026-05-01T13:20:17.806Z</time></trkpt><trkpt lat="43.4421514" lon="13.2159398"><ele>277.6</ele><time>2026-05-01T13:20:19.806Z</time></trkpt><trkpt lat="43.4421037" lon="13.2158202"><ele>276.8</ele><time>2026-05-01T13:20:21.807Z</time></trkpt><trkpt lat="43.4420591" lon="13.2157149"><ele>276.0</ele><time>2026-05-01T13:20:23.807Z</time></trkpt><trkpt lat="43.4420436" lon="13.2155916"><ele>276.1666666666667</ele><time>2026-05-01T13:20:25.806Z</time></trkpt><trkpt lat="43.4420312" lon="13.2154429"><ele>276.3333333333333</ele><time>2026-05-01T13:20:27.807Z</time></trkpt><trkpt lat="43.4420236" lon="13.2153015"><ele>276.5</ele><time>2026-05-01T13:20:29.808Z</time></trkpt><trkpt lat="43.4420327" lon="13.2152033"><ele>276.66666666666663</ele><time>2026-05-01T13:20:31.807Z</time></trkpt><trkpt lat="43.4420222" lon="13.2151131"><ele>276.8333333333333</ele><time>2026-05-01T13:20:34.806Z</time></trkpt><trkpt lat="43.4420353" lon="13.2149772"><ele>277.0</ele><time>2026-05-01T13:21:09.806Z</time></trkpt><trkpt lat="43.4420246" lon="13.2148015"><ele>277.0</ele><time>2026-05-01T13:21:11.806Z</time></trkpt><trkpt lat="43.4420042" lon="13.2147022"><ele>277.0</ele><time>2026-05-01T13:21:12.807Z</time></trkpt><trkpt lat="43.4419733" lon="13.2146003"><ele>277.0</ele><time>2026-05-01T13:21:13.806Z</time></trkpt><trkpt lat="43.4419302" lon="13.214491"><ele>277.0</ele><time>2026-05-01T13:21:14.805Z</time></trkpt><trkpt lat="43.4418798" lon="13.2143868"><ele>277.0</ele><time>2026-05-01T13:21:15.806Z</time></trkpt><trkpt lat="43.4418188" lon="13.2142828"><ele>277.0</ele><time>2026-05-01T13:21:16.805Z</time></trkpt><trkpt lat="43.4417513" lon="13.2141856"><ele>277.0</ele><time>2026-05-01T13:21:17.805Z</time></trkpt><trkpt lat="43.4416733" lon="13.2140883"><ele>277.0</ele><time>2026-05-01T13:21:18.806Z</time></trkpt><trkpt lat="43.4415868" lon="13.2139917"><ele>277.0</ele><time>2026-05-01T13:21:19.805Z</time></trkpt><trkpt lat="43.4415008" lon="13.2138986"><ele>277.0</ele><time>2026-05-01T13:21:20.806Z</time></trkpt><trkpt lat="43.4414195" lon="13.2138057"><ele>277.0</ele><time>2026-05-01T13:21:21.805Z</time></trkpt><trkpt lat="43.4413349" lon="13.2137008"><ele>277.8</ele><time>2026-05-01T13:21:22.805Z</time></trkpt><trkpt lat="43.4412556" lon="13.2135976"><ele>278.6</ele><time>2026-05-01T13:21:23.806Z</time></trkpt><trkpt lat="43.4411759" lon="13.2134945"><ele>279.40000000000003</ele><time>2026-05-01T13:21:24.805Z</time></trkpt><trkpt lat="43.4410977" lon="13.2133957"><ele>280.2</ele><time>2026-05-01T13:21:25.806Z</time></trkpt><trkpt lat="43.4410126" lon="13.2132918"><ele>281.0</ele><time>2026-05-01T13:21:26.805Z</time></trkpt><trkpt lat="43.4409233" lon="13.2131835"><ele>280.75</ele><time>2026-05-01T13:21:27.807Z</time></trkpt><trkpt lat="43.440834" lon="13.2130779"><ele>280.5</ele><time>2026-05-01T13:21:28.807Z</time></trkpt><trkpt lat="43.440748" lon="13.2129757"><ele>280.25</ele><time>2026-05-01T13:21:29.806Z</time></trkpt><trkpt lat="43.4406577" lon="13.2128678"><ele>280.0</ele><time>2026-05-01T13:21:30.806Z</time></trkpt><trkpt lat="43.4405718" lon="13.2127661"><ele>280.0</ele><time>2026-05-01T13:21:31.806Z</time></trkpt><trkpt lat="43.4404833" lon="13.2126739"><ele>280.0</ele><time>2026-05-01T13:21:32.806Z</time></trkpt><trkpt lat="43.4403957" lon="13.2125938"><ele>280.0</ele><time>2026-05-01T13:21:33.806Z</time></trkpt><trkpt lat="43.4403025" lon="13.2125172"><ele>280.0</ele><time>2026-05-01T13:21:34.806Z</time></trkpt><trkpt lat="43.4402022" lon="13.212445"><ele>280.0</ele><time>2026-05-01T13:21:35.806Z</time></trkpt><trkpt lat="43.4401023" lon="13.2123789"><ele>280.25</ele><time>2026-05-01T13:21:36.805Z</time></trkpt><trkpt lat="43.4400035" lon="13.2123144"><ele>280.5</ele><time>2026-05-01T13:21:37.806Z</time></trkpt><trkpt lat="43.4398982" lon="13.212242"><ele>280.75</ele><time>2026-05-01T13:21:38.806Z</time></trkpt><trkpt lat="43.4397966" lon="13.2121675"><ele>281.0</ele><time>2026-05-01T13:21:39.805Z</time></trkpt><trkpt lat="43.439695" lon="13.2120845"><ele>283.5</ele><time>2026-05-01T13:21:40.806Z</time></trkpt><trkpt lat="43.4396041" lon="13.2119949"><ele>286.0</ele><time>2026-05-01T13:21:41.805Z</time></trkpt><trkpt lat="43.4395186" lon="13.2118884"><ele>288.5</ele><time>2026-05-01T13:21:42.806Z</time></trkpt><trkpt lat="43.4394402" lon="13.2117678"><ele>291.0</ele><time>2026-05-01T13:21:43.805Z</time></trkpt><trkpt lat="43.4393717" lon="13.2116464"><ele>291.0</ele><time>2026-05-01T13:21:44.806Z</time></trkpt><trkpt lat="43.4393089" lon="13.2115226"><ele>291.0</ele><time>2026-05-01T13:21:45.806Z</time></trkpt><trkpt lat="43.4392493" lon="13.2113872"><ele>291.0</ele><time>2026-05-01T13:21:46.805Z</time></trkpt><trkpt lat="43.4392006" lon="13.2112525"><ele>291.0</ele><time>2026-05-01T13:21:47.805Z</time></trkpt><trkpt lat="43.4391582" lon="13.2111121"><ele>291.0</ele><time>2026-05-01T13:21:48.806Z</time></trkpt><trkpt lat="43.4391178" lon="13.2109745"><ele>291.0</ele><time>2026-05-01T13:21:49.806Z</time></trkpt><trkpt lat="43.4390771" lon="13.2108302"><ele>291.0</ele><time>2026-05-01T13:21:50.805Z</time></trkpt><trkpt lat="43.4390368" lon="13.21068"><ele>291.0</ele><time>2026-05-01T13:21:51.805Z</time></trkpt><trkpt lat="43.4390016" lon="13.2105286"><ele>291.0</ele><time>2026-05-01T13:21:52.805Z</time></trkpt><trkpt lat="43.438976" lon="13.2103744"><ele>290.75</ele><time>2026-05-01T13:21:53.806Z</time></trkpt><trkpt lat="43.4389643" lon="13.2102047"><ele>290.5</ele><time>2026-05-01T13:21:54.806Z</time></trkpt><trkpt lat="43.4389693" lon="13.2100342"><ele>290.25</ele><time>2026-05-01T13:21:55.806Z</time></trkpt><trkpt lat="43.4389869" lon="13.2098556"><ele>290.0</ele><time>2026-05-01T13:21:56.805Z</time></trkpt><trkpt lat="43.4390088" lon="13.2096774"><ele>289.25</ele><time>2026-05-01T13:21:57.807Z</time></trkpt><trkpt lat="43.4390312" lon="13.2094862"><ele>288.5</ele><time>2026-05-01T13:21:58.805Z</time></trkpt><trkpt lat="43.4390541" lon="13.2092848"><ele>287.75</ele><time>2026-05-01T13:21:59.805Z</time></trkpt><trkpt lat="43.439078" lon="13.2090866"><ele>287.0</ele><time>2026-05-01T13:22:00.806Z</time></trkpt><trkpt lat="43.4391035" lon="13.2088898"><ele>285.75</ele><time>2026-05-01T13:22:01.805Z</time></trkpt><trkpt lat="43.4391306" lon="13.2086922"><ele>284.5</ele><time>2026-05-01T13:22:02.806Z</time></trkpt><trkpt lat="43.4391573" lon="13.2084985"><ele>283.25</ele><time>2026-05-01T13:22:03.806Z</time></trkpt><trkpt lat="43.4391801" lon="13.2083071"><ele>282.0</ele><time>2026-05-01T13:22:04.806Z</time></trkpt><trkpt lat="43.4391954" lon="13.2081253"><ele>282.0</ele><time>2026-05-01T13:22:05.805Z</time></trkpt><trkpt lat="43.4392019" lon="13.2079407"><ele>282.0</ele><time>2026-05-01T13:22:06.805Z</time></trkpt><trkpt lat="43.4391956" lon="13.2077539"><ele>282.0</ele><time>2026-05-01T13:22:07.805Z</time></trkpt><trkpt lat="43.4391696" lon="13.2075772"><ele>282.0</ele><time>2026-05-01T13:22:08.807Z</time></trkpt><trkpt lat="43.4391322" lon="13.207409"><ele>282.0</ele><time>2026-05-01T13:22:09.805Z</time></trkpt><trkpt lat="43.4390839" lon="13.2072309"><ele>282.0</ele><time>2026-05-01T13:22:10.805Z</time></trkpt><trkpt lat="43.4390345" lon="13.2070582"><ele>282.0</ele><time>2026-05-01T13:22:11.806Z</time></trkpt><trkpt lat="43.4389858" lon="13.2068837"><ele>282.0</ele><time>2026-05-01T13:22:12.805Z</time></trkpt><trkpt lat="43.4389387" lon="13.2067136"><ele>282.0</ele><time>2026-05-01T13:22:13.806Z</time></trkpt><trkpt lat="43.4388918" lon="13.2065362"><ele>282.0</ele><time>2026-05-01T13:22:14.805Z</time></trkpt><trkpt lat="43.4388526" lon="13.2063534"><ele>282.0</ele><time>2026-05-01T13:22:15.806Z</time></trkpt><trkpt lat="43.4388275" lon="13.2061779"><ele>282.0</ele><time>2026-05-01T13:22:16.805Z</time></trkpt><trkpt lat="43.4388171" lon="13.2060105"><ele>281.5</ele><time>2026-05-01T13:22:17.806Z</time></trkpt><trkpt lat="43.43882" lon="13.2058349"><ele>281.0</ele><time>2026-05-01T13:22:18.806Z</time></trkpt><trkpt lat="43.4388339" lon="13.2056694"><ele>280.5</ele><time>2026-05-01T13:22:19.806Z</time></trkpt><trkpt lat="43.4388564" lon="13.2055058"><ele>280.0</ele><time>2026-05-01T13:22:20.805Z</time></trkpt><trkpt lat="43.4388856" lon="13.2053496"><ele>280.0</ele><time>2026-05-01T13:22:21.806Z</time></trkpt><trkpt lat="43.4389225" lon="13.2051888"><ele>280.0</ele><time>2026-05-01T13:22:22.805Z</time></trkpt><trkpt lat="43.4389611" lon="13.2050249"><ele>280.0</ele><time>2026-05-01T13:22:23.807Z</time></trkpt><trkpt lat="43.4389971" lon="13.2048687"><ele>280.0</ele><time>2026-05-01T13:22:24.806Z</time></trkpt><trkpt lat="43.4390335" lon="13.2047071"><ele>280.5</ele><time>2026-05-01T13:22:25.806Z</time></trkpt><trkpt lat="43.4390714" lon="13.2045391"><ele>281.0</ele><time>2026-05-01T13:22:26.805Z</time></trkpt><trkpt lat="43.4391121" lon="13.2043756"><ele>281.5</ele><time>2026-05-01T13:22:27.806Z</time></trkpt><trkpt lat="43.4391583" lon="13.2042141"><ele>282.0</ele><time>2026-05-01T13:22:28.806Z</time></trkpt><trkpt lat="43.4392086" lon="13.204055"><ele>281.75</ele><time>2026-05-01T13:22:29.807Z</time></trkpt><trkpt lat="43.4392639" lon="13.2038898"><ele>281.5</ele><time>2026-05-01T13:22:30.806Z</time></trkpt><trkpt lat="43.4393238" lon="13.2037188"><ele>281.25</ele><time>2026-05-01T13:22:31.805Z</time></trkpt><trkpt lat="43.4393853" lon="13.2035569"><ele>281.0</ele><time>2026-05-01T13:22:32.807Z</time></trkpt><trkpt lat="43.43945" lon="13.2034031"><ele>281.0</ele><time>2026-05-01T13:22:33.806Z</time></trkpt><trkpt lat="43.439525" lon="13.2032458"><ele>281.0</ele><time>2026-05-01T13:22:34.807Z</time></trkpt><trkpt lat="43.4396051" lon="13.2030995"><ele>281.0</ele><time>2026-05-01T13:22:35.806Z</time></trkpt><trkpt lat="43.4396881" lon="13.2029645"><ele>281.0</ele><time>2026-05-01T13:22:36.806Z</time></trkpt><trkpt lat="43.4397766" lon="13.2028303"><ele>279.5</ele><time>2026-05-01T13:22:37.805Z</time></trkpt><trkpt lat="43.4398662" lon="13.2026951"><ele>278.0</ele><time>2026-05-01T13:22:38.806Z</time></trkpt><trkpt lat="43.4399569" lon="13.2025524"><ele>276.5</ele><time>2026-05-01T13:22:39.806Z</time></trkpt><trkpt lat="43.4400375" lon="13.2024165"><ele>275.0</ele><time>2026-05-01T13:22:40.806Z</time></trkpt><trkpt lat="43.4401163" lon="13.2022765"><ele>275.0</ele><time>2026-05-01T13:22:41.806Z</time></trkpt><trkpt lat="43.4401882" lon="13.2021338"><ele>275.0</ele><time>2026-05-01T13:22:42.806Z</time></trkpt><trkpt lat="43.4402491" lon="13.2019977"><ele>275.0</ele><time>2026-05-01T13:22:43.806Z</time></trkpt><trkpt lat="43.4403021" lon="13.2018686"><ele>275.0</ele><time>2026-05-01T13:22:44.806Z</time></trkpt><trkpt lat="43.440351" lon="13.2017379"><ele>275.0</ele><time>2026-05-01T13:22:45.806Z</time></trkpt><trkpt lat="43.4403907" lon="13.2016148"><ele>275.0</ele><time>2026-05-01T13:22:46.805Z</time></trkpt><trkpt lat="43.4404236" lon="13.201497"><ele>275.0</ele><time>2026-05-01T13:22:47.805Z</time></trkpt><trkpt lat="43.440448" lon="13.2014026"><ele>275.0</ele><time>2026-05-01T13:22:48.807Z</time></trkpt><trkpt lat="43.4405068" lon="13.2012984"><ele>275.0</ele><time>2026-05-01T13:22:50.806Z</time></trkpt><trkpt lat="43.4405711" lon="13.2012964"><ele>275.0</ele><time>2026-05-01T13:22:52.806Z</time></trkpt><trkpt lat="43.4406237" lon="13.2013465"><ele>274.6</ele><time>2026-05-01T13:22:54.805Z</time></trkpt><trkpt lat="43.4406863" lon="13.2014296"><ele>274.2</ele><time>2026-05-01T13:22:56.805Z</time></trkpt><trkpt lat="43.4407569" lon="13.2015167"><ele>273.8</ele><time>2026-05-01T13:22:58.805Z</time></trkpt><trkpt lat="43.4408325" lon="13.2015902"><ele>273.4</ele><time>2026-05-01T13:23:00.805Z</time></trkpt><trkpt lat="43.4409133" lon="13.2016406"><ele>273.0</ele><time>2026-05-01T13:23:02.807Z</time></trkpt><trkpt lat="43.4410114" lon="13.2016431"><ele>273.0</ele><time>2026-05-01T13:23:04.806Z</time></trkpt><trkpt lat="43.4411266" lon="13.2016194"><ele>273.0</ele><time>2026-05-01T13:23:06.806Z</time></trkpt><trkpt lat="43.4411915" lon="13.2016184"><ele>273.0</ele><time>2026-05-01T13:23:07.805Z</time></trkpt><trkpt lat="43.4412604" lon="13.2016301"><ele>273.0</ele><time>2026-05-01T13:23:08.806Z</time></trkpt><trkpt lat="43.441331" lon="13.2016551"><ele>273.0</ele><time>2026-05-01T13:23:09.806Z</time></trkpt><trkpt lat="43.4413988" lon="13.2016899"><ele>273.0</ele><time>2026-05-01T13:23:10.806Z</time></trkpt><trkpt lat="43.4414691" lon="13.2017395"><ele>271.2857142857143</ele><time>2026-05-01T13:23:11.805Z</time></trkpt><trkpt lat="43.4415354" lon="13.2017914"><ele>269.57142857142856</ele><time>2026-05-01T13:23:12.806Z</time></trkpt><trkpt lat="43.4416007" lon="13.2018438"><ele>267.8571428571429</ele><time>2026-05-01T13:23:13.806Z</time></trkpt><trkpt lat="43.4416653" lon="13.2018947"><ele>266.1428571428571</ele><time>2026-05-01T13:23:14.806Z</time></trkpt><trkpt lat="43.4417276" lon="13.2019444"><ele>264.42857142857144</ele><time>2026-05-01T13:23:15.806Z</time></trkpt><trkpt lat="43.4417862" lon="13.2019909"><ele>262.7142857142857</ele><time>2026-05-01T13:23:16.806Z</time></trkpt><trkpt lat="43.4418446" lon="13.2020394"><ele>261.0</ele><time>2026-05-01T13:23:17.806Z</time></trkpt><trkpt lat="43.4419019" lon="13.2020872"><ele>261.0</ele><time>2026-05-01T13:23:18.805Z</time></trkpt><trkpt lat="43.4419609" lon="13.2021344"><ele>261.0</ele><time>2026-05-01T13:23:19.805Z</time></trkpt><trkpt lat="43.4420199" lon="13.2021816"><ele>261.0</ele><time>2026-05-01T13:23:20.806Z</time></trkpt><trkpt lat="43.442079" lon="13.2022294"><ele>261.0</ele><time>2026-05-01T13:23:21.805Z</time></trkpt><trkpt lat="43.4421455" lon="13.2022791"><ele>261.0</ele><time>2026-05-01T13:23:22.806Z</time></trkpt><trkpt lat="43.4422146" lon="13.2023257"><ele>261.0</ele><time>2026-05-01T13:23:23.806Z</time></trkpt><trkpt lat="43.4422879" lon="13.2023651"><ele>261.0</ele><time>2026-05-01T13:23:24.805Z</time></trkpt><trkpt lat="43.4423661" lon="13.2023908"><ele>258.3333333333333</ele><time>2026-05-01T13:23:25.805Z</time></trkpt><trkpt lat="43.4424453" lon="13.2024005"><ele>255.66666666666669</ele><time>2026-05-01T13:23:26.806Z</time></trkpt><trkpt lat="43.4425317" lon="13.2023927"><ele>253.0</ele><time>2026-05-01T13:23:27.805Z</time></trkpt><trkpt lat="43.4426173" lon="13.2023743"><ele>250.33333333333334</ele><time>2026-05-01T13:23:28.806Z</time></trkpt><trkpt lat="43.4427051" lon="13.2023524"><ele>247.66666666666669</ele><time>2026-05-01T13:23:29.806Z</time></trkpt><trkpt lat="43.4427953" lon="13.2023321"><ele>245.0</ele><time>2026-05-01T13:23:30.806Z</time></trkpt><trkpt lat="43.4428866" lon="13.2023152"><ele>241.2</ele><time>2026-05-01T13:23:31.805Z</time></trkpt><trkpt lat="43.4429786" lon="13.2023069"><ele>237.4</ele><time>2026-05-01T13:23:32.806Z</time></trkpt><trkpt lat="43.4430679" lon="13.2023046"><ele>233.60000000000002</ele><time>2026-05-01T13:23:33.807Z</time></trkpt><trkpt lat="43.4431618" lon="13.2023083"><ele>229.8</ele><time>2026-05-01T13:23:34.806Z</time></trkpt><trkpt lat="43.4432578" lon="13.202317"><ele>226.0</ele><time>2026-05-01T13:23:35.806Z</time></trkpt><trkpt lat="43.443353" lon="13.2023292"><ele>226.20000000000002</ele><time>2026-05-01T13:23:36.806Z</time></trkpt><trkpt lat="43.4434444" lon="13.2023394"><ele>226.40000000000003</ele><time>2026-05-01T13:23:37.806Z</time></trkpt><trkpt lat="43.4435414" lon="13.2023488"><ele>226.6</ele><time>2026-05-01T13:23:38.806Z</time></trkpt><trkpt lat="43.4436337" lon="13.2023552"><ele>226.8</ele><time>2026-05-01T13:23:39.805Z</time></trkpt><trkpt lat="43.4437225" lon="13.2023559"><ele>227.0</ele><time>2026-05-01T13:23:40.805Z</time></trkpt><trkpt lat="43.4438096" lon="13.2023515"><ele>224.2</ele><time>2026-05-01T13:23:41.806Z</time></trkpt><trkpt lat="43.4438956" lon="13.2023448"><ele>221.39999999999998</ele><time>2026-05-01T13:23:42.805Z</time></trkpt><trkpt lat="43.4439896" lon="13.2023328"><ele>218.60000000000002</ele><time>2026-05-01T13:23:43.807Z</time></trkpt><trkpt lat="43.4440801" lon="13.2023185"><ele>215.8</ele><time>2026-05-01T13:23:44.806Z</time></trkpt><trkpt lat="43.4441706" lon="13.2023041"><ele>213.0</ele><time>2026-05-01T13:23:45.805Z</time></trkpt><trkpt lat="43.4442595" lon="13.2022868"><ele>211.66666666666666</ele><time>2026-05-01T13:23:46.806Z</time></trkpt><trkpt lat="43.4443481" lon="13.2022698"><ele>210.33333333333331</ele><time>2026-05-01T13:23:47.805Z</time></trkpt><trkpt lat="43.4444369" lon="13.2022563"><ele>209.0</ele><time>2026-05-01T13:23:48.805Z</time></trkpt><trkpt lat="43.4445218" lon="13.2022448"><ele>207.66666666666666</ele><time>2026-05-01T13:23:49.806Z</time></trkpt><trkpt lat="43.4446089" lon="13.2022365"><ele>206.33333333333331</ele><time>2026-05-01T13:23:50.806Z</time></trkpt><trkpt lat="43.444698" lon="13.202229"><ele>205.0</ele><time>2026-05-01T13:23:51.806Z</time></trkpt><trkpt lat="43.4447812" lon="13.2022199"><ele>203.83333333333331</ele><time>2026-05-01T13:23:52.806Z</time></trkpt><trkpt lat="43.4448594" lon="13.2022116"><ele>202.66666666666666</ele><time>2026-05-01T13:23:53.806Z</time></trkpt><trkpt lat="43.4449417" lon="13.2022039"><ele>201.5</ele><time>2026-05-01T13:23:54.806Z</time></trkpt><trkpt lat="43.4450222" lon="13.2021992"><ele>200.33333333333331</ele><time>2026-05-01T13:23:55.805Z</time></trkpt><trkpt lat="43.4451029" lon="13.2021953"><ele>199.16666666666666</ele><time>2026-05-01T13:23:56.806Z</time></trkpt><trkpt lat="43.4451801" lon="13.2021931"><ele>198.0</ele><time>2026-05-01T13:23:57.806Z</time></trkpt><trkpt lat="43.445259" lon="13.2021925"><ele>198.0</ele><time>2026-05-01T13:23:58.806Z</time></trkpt><trkpt lat="43.4453389" lon="13.2021902"><ele>198.0</ele><time>2026-05-01T13:23:59.805Z</time></trkpt><trkpt lat="43.445414" lon="13.2021864"><ele>198.0</ele><time>2026-05-01T13:24:00.807Z</time></trkpt><trkpt lat="43.4454889" lon="13.2021818"><ele>198.0</ele><time>2026-05-01T13:24:01.805Z</time></trkpt><trkpt lat="43.4455619" lon="13.2021752"><ele>198.0</ele><time>2026-05-01T13:24:02.806Z</time></trkpt><trkpt lat="43.4456343" lon="13.2021674"><ele>198.0</ele><time>2026-05-01T13:24:03.805Z</time></trkpt><trkpt lat="43.445706" lon="13.2021586"><ele>198.0</ele><time>2026-05-01T13:24:04.806Z</time></trkpt><trkpt lat="43.4457764" lon="13.2021488"><ele>196.71428571428572</ele><time>2026-05-01T13:24:05.806Z</time></trkpt><trkpt lat="43.4458428" lon="13.2021355"><ele>195.42857142857142</ele><time>2026-05-01T13:24:06.807Z</time></trkpt><trkpt lat="43.4459119" lon="13.2021202"><ele>194.14285714285714</ele><time>2026-05-01T13:24:07.807Z</time></trkpt><trkpt lat="43.4459789" lon="13.2021034"><ele>192.85714285714286</ele><time>2026-05-01T13:24:08.806Z</time></trkpt><trkpt lat="43.4460467" lon="13.2020861"><ele>191.57142857142856</ele><time>2026-05-01T13:24:09.805Z</time></trkpt><trkpt lat="43.4461182" lon="13.2020724"><ele>190.28571428571428</ele><time>2026-05-01T13:24:10.806Z</time></trkpt><trkpt lat="43.4461889" lon="13.2020609"><ele>189.0</ele><time>2026-05-01T13:24:11.806Z</time></trkpt><trkpt lat="43.4462607" lon="13.2020519"><ele>187.42857142857142</ele><time>2026-05-01T13:24:12.805Z</time></trkpt><trkpt lat="43.4463305" lon="13.202045"><ele>185.85714285714286</ele><time>2026-05-01T13:24:13.806Z</time></trkpt><trkpt lat="43.4464032" lon="13.2020397"><ele>184.28571428571428</ele><time>2026-05-01T13:24:14.806Z</time></trkpt><trkpt lat="43.4464784" lon="13.202035"><ele>182.71428571428572</ele><time>2026-05-01T13:24:15.805Z</time></trkpt><trkpt lat="43.4465496" lon="13.202028"><ele>181.14285714285714</ele><time>2026-05-01T13:24:16.805Z</time></trkpt><trkpt lat="43.4466181" lon="13.2020182"><ele>179.57142857142856</ele><time>2026-05-01T13:24:17.805Z</time></trkpt><trkpt lat="43.4466894" lon="13.2020111"><ele>178.0</ele><time>2026-05-01T13:24:18.806Z</time></trkpt><trkpt lat="43.4467585" lon="13.2020049"><ele>177.99999999999997</ele><time>2026-05-01T13:24:19.806Z</time></trkpt><trkpt lat="43.4468262" lon="13.2019998"><ele>178.0</ele><time>2026-05-01T13:24:20.805Z</time></trkpt><trkpt lat="43.4468921" lon="13.2019963"><ele>178.0</ele><time>2026-05-01T13:24:21.805Z</time></trkpt><trkpt lat="43.4469598" lon="13.2019918"><ele>178.0</ele><time>2026-05-01T13:24:22.806Z</time></trkpt><trkpt lat="43.4470294" lon="13.201985"><ele>178.0</ele><time>2026-05-01T13:24:23.806Z</time></trkpt><trkpt lat="43.4470942" lon="13.2019787"><ele>177.99999999999997</ele><time>2026-05-01T13:24:24.805Z</time></trkpt><trkpt lat="43.4471599" lon="13.2019733"><ele>178.0</ele><time>2026-05-01T13:24:25.805Z</time></trkpt><trkpt lat="43.4472263" lon="13.2019694"><ele>176.25</ele><time>2026-05-01T13:24:26.805Z</time></trkpt><trkpt lat="43.4473472" lon="13.201956"><ele>174.5</ele><time>2026-05-01T13:24:28.806Z</time></trkpt><trkpt lat="43.4474601" lon="13.2019434"><ele>172.75</ele><time>2026-05-01T13:24:30.805Z</time></trkpt><trkpt lat="43.4475692" lon="13.2019338"><ele>171.0</ele><time>2026-05-01T13:24:32.805Z</time></trkpt><trkpt lat="43.4476755" lon="13.2019219"><ele>171.0</ele><time>2026-05-01T13:24:34.805Z</time></trkpt><trkpt lat="43.447784" lon="13.2019203"><ele>171.0</ele><time>2026-05-01T13:24:36.807Z</time></trkpt><trkpt lat="43.4478937" lon="13.2019122"><ele>171.0</ele><time>2026-05-01T13:24:38.806Z</time></trkpt><trkpt lat="43.4480016" lon="13.2018996"><ele>171.0</ele><time>2026-05-01T13:24:40.806Z</time></trkpt><trkpt lat="43.4480962" lon="13.2018901"><ele>171.0</ele><time>2026-05-01T13:24:42.806Z</time></trkpt><trkpt lat="43.4481895" lon="13.2018605"><ele>170.0</ele><time>2026-05-01T13:24:44.805Z</time></trkpt><trkpt lat="43.4482878" lon="13.2018184"><ele>169.0</ele><time>2026-05-01T13:24:46.805Z</time></trkpt><trkpt lat="43.448401" lon="13.2017771"><ele>168.0</ele><time>2026-05-01T13:24:48.806Z</time></trkpt><trkpt lat="43.4485125" lon="13.2017375"><ele>167.0</ele><time>2026-05-01T13:24:50.807Z</time></trkpt><trkpt lat="43.4486307" lon="13.2016983"><ele>167.0</ele><time>2026-05-01T13:24:52.806Z</time></trkpt><trkpt lat="43.4487507" lon="13.201674"><ele>167.0</ele><time>2026-05-01T13:24:54.806Z</time></trkpt><trkpt lat="43.44887" lon="13.2016638"><ele>167.0</ele><time>2026-05-01T13:24:56.806Z</time></trkpt><trkpt lat="43.4489856" lon="13.201671"><ele>167.0</ele><time>2026-05-01T13:24:58.805Z</time></trkpt><trkpt lat="43.4490946" lon="13.201694"><ele>166.16666666666666</ele><time>2026-05-01T13:25:00.806Z</time></trkpt><trkpt lat="43.4491908" lon="13.2017242"><ele>165.33333333333331</ele><time>2026-05-01T13:25:02.805Z</time></trkpt><trkpt lat="43.4492752" lon="13.2017489"><ele>164.5</ele><time>2026-05-01T13:25:04.805Z</time></trkpt><trkpt lat="43.4493458" lon="13.2017764"><ele>163.66666666666666</ele><time>2026-05-01T13:25:07.806Z</time></trkpt><trkpt lat="43.4494144" lon="13.2018096"><ele>162.83333333333334</ele><time>2026-05-01T13:25:11.807Z</time></trkpt><trkpt lat="43.4494963" lon="13.2018248"><ele>162.0</ele><time>2026-05-01T13:25:14.807Z</time></trkpt><trkpt lat="43.4495765" lon="13.2018337"><ele>160.0</ele><time>2026-05-01T13:25:16.806Z</time></trkpt><trkpt lat="43.4496752" lon="13.201844"><ele>158.0</ele><time>2026-05-01T13:25:18.806Z</time></trkpt><trkpt lat="43.4497907" lon="13.2018483"><ele>156.0</ele><time>2026-05-01T13:25:20.805Z</time></trkpt><trkpt lat="43.449914" lon="13.201847"><ele>154.0</ele><time>2026-05-01T13:25:22.806Z</time></trkpt><trkpt lat="43.4499778" lon="13.2018477"><ele>152.0</ele><time>2026-05-01T13:25:23.806Z</time></trkpt><trkpt lat="43.4500413" lon="13.2018486"><ele>152.0</ele><time>2026-05-01T13:25:24.806Z</time></trkpt><trkpt lat="43.4501654" lon="13.2018493"><ele>152.0</ele><time>2026-05-01T13:25:26.806Z</time></trkpt><trkpt lat="43.4502311" lon="13.2018502"><ele>152.0</ele><time>2026-05-01T13:25:27.806Z</time></trkpt><trkpt lat="43.4502957" lon="13.201852"><ele>152.0</ele><time>2026-05-01T13:25:28.806Z</time></trkpt><trkpt lat="43.4503594" lon="13.2018538"><ele>152.0</ele><time>2026-05-01T13:25:29.805Z</time></trkpt><trkpt lat="43.4504839" lon="13.2018547"><ele>152.0</ele><time>2026-05-01T13:25:31.805Z</time></trkpt><trkpt lat="43.4506058" lon="13.2018538"><ele>150.5</ele><time>2026-05-01T13:25:33.805Z</time></trkpt><trkpt lat="43.4507339" lon="13.2018588"><ele>149.0</ele><time>2026-05-01T13:25:35.806Z</time></trkpt><trkpt lat="43.4508016" lon="13.2018615"><ele>147.5</ele><time>2026-05-01T13:25:36.805Z</time></trkpt><trkpt lat="43.450868" lon="13.2018621"><ele>146.0</ele><time>2026-05-01T13:25:37.806Z</time></trkpt><trkpt lat="43.4509391" lon="13.2018605"><ele>144.5</ele><time>2026-05-01T13:25:38.805Z</time></trkpt><trkpt lat="43.4510086" lon="13.2018593"><ele>143.0</ele><time>2026-05-01T13:25:39.805Z</time></trkpt><trkpt lat="43.4510787" lon="13.2018609"><ele>142.99999999999997</ele><time>2026-05-01T13:25:40.806Z</time></trkpt><trkpt lat="43.4511478" lon="13.2018627"><ele>143.0</ele><time>2026-05-01T13:25:41.806Z</time></trkpt><trkpt lat="43.451216" lon="13.2018631"><ele>143.0</ele><time>2026-05-01T13:25:42.806Z</time></trkpt><trkpt lat="43.4512902" lon="13.2018651"><ele>143.0</ele><time>2026-05-01T13:25:43.807Z</time></trkpt><trkpt lat="43.4513613" lon="13.201868"><ele>143.0</ele><time>2026-05-01T13:25:44.806Z</time></trkpt><trkpt lat="43.4514336" lon="13.2018693"><ele>142.99999999999997</ele><time>2026-05-01T13:25:45.805Z</time></trkpt><trkpt lat="43.4515065" lon="13.2018697"><ele>143.0</ele><time>2026-05-01T13:25:46.807Z</time></trkpt><trkpt lat="43.4515809" lon="13.201871"><ele>141.7142857142857</ele><time>2026-05-01T13:25:47.805Z</time></trkpt><trkpt lat="43.4516554" lon="13.2018727"><ele>140.42857142857142</ele><time>2026-05-01T13:25:48.807Z</time></trkpt><trkpt lat="43.4517301" lon="13.2018729"><ele>139.14285714285714</ele><time>2026-05-01T13:25:49.806Z</time></trkpt><trkpt lat="43.4518019" lon="13.2018723"><ele>137.85714285714283</ele><time>2026-05-01T13:25:50.806Z</time></trkpt><trkpt lat="43.4518765" lon="13.2018741"><ele>136.57142857142856</ele><time>2026-05-01T13:25:51.805Z</time></trkpt><trkpt lat="43.4519465" lon="13.2018802"><ele>135.28571428571428</ele><time>2026-05-01T13:25:52.805Z</time></trkpt><trkpt lat="43.4520132" lon="13.2018872"><ele>134.0</ele><time>2026-05-01T13:25:53.806Z</time></trkpt><trkpt lat="43.4520845" lon="13.201892"><ele>134.14285714285714</ele><time>2026-05-01T13:25:54.806Z</time></trkpt><trkpt lat="43.4521528" lon="13.2018985"><ele>134.28571428571428</ele><time>2026-05-01T13:25:55.807Z</time></trkpt><trkpt lat="43.4522219" lon="13.2019102"><ele>134.42857142857142</ele><time>2026-05-01T13:25:56.806Z</time></trkpt><trkpt lat="43.4522872" lon="13.2019299"><ele>134.57142857142856</ele><time>2026-05-01T13:25:57.805Z</time></trkpt><trkpt lat="43.4523545" lon="13.2019575"><ele>134.7142857142857</ele><time>2026-05-01T13:25:58.805Z</time></trkpt><trkpt lat="43.4524224" lon="13.2019924"><ele>134.85714285714286</ele><time>2026-05-01T13:25:59.806Z</time></trkpt><trkpt lat="43.4524903" lon="13.2020294"><ele>135.0</ele><time>2026-05-01T13:26:00.806Z</time></trkpt><trkpt lat="43.4525569" lon="13.2020653"><ele>135.0</ele><time>2026-05-01T13:26:01.806Z</time></trkpt><trkpt lat="43.4526215" lon="13.2021003"><ele>135.0</ele><time>2026-05-01T13:26:02.806Z</time></trkpt><trkpt lat="43.4526846" lon="13.2021307"><ele>135.0</ele><time>2026-05-01T13:26:03.806Z</time></trkpt><trkpt lat="43.4528006" lon="13.2021798"><ele>135.0</ele><time>2026-05-01T13:26:05.806Z</time></trkpt><trkpt lat="43.4529148" lon="13.202212"><ele>135.0</ele><time>2026-05-01T13:26:07.806Z</time></trkpt><trkpt lat="43.4530289" lon="13.2022102"><ele>133.25</ele><time>2026-05-01T13:26:09.806Z</time></trkpt><trkpt lat="43.453142" lon="13.2021777"><ele>131.5</ele><time>2026-05-01T13:26:11.806Z</time></trkpt><trkpt lat="43.4532472" lon="13.2021145"><ele>129.75</ele><time>2026-05-01T13:26:13.805Z</time></trkpt><trkpt lat="43.4533561" lon="13.2020322"><ele>128.0</ele><time>2026-05-01T13:26:15.805Z</time></trkpt><trkpt lat="43.4534678" lon="13.2019512"><ele>127.99999999999999</ele><time>2026-05-01T13:26:17.806Z</time></trkpt><trkpt lat="43.453588" lon="13.2019009"><ele>128.0</ele><time>2026-05-01T13:26:19.805Z</time></trkpt><trkpt lat="43.4536511" lon="13.20188"><ele>128.0</ele><time>2026-05-01T13:26:20.807Z</time></trkpt><trkpt lat="43.4537158" lon="13.2018566"><ele>128.0</ele><time>2026-05-01T13:26:21.807Z</time></trkpt><trkpt lat="43.4537813" lon="13.2018352"><ele>127.99999999999999</ele><time>2026-05-01T13:26:22.806Z</time></trkpt><trkpt lat="43.4538523" lon="13.2018127"><ele>128.0</ele><time>2026-05-01T13:26:23.806Z</time></trkpt><trkpt lat="43.4539209" lon="13.2017884"><ele>127.49999999999999</ele><time>2026-05-01T13:26:24.805Z</time></trkpt><trkpt lat="43.4539866" lon="13.2017639"><ele>127.0</ele><time>2026-05-01T13:26:25.806Z</time></trkpt><trkpt lat="43.4540561" lon="13.2017354"><ele>126.5</ele><time>2026-05-01T13:26:26.805Z</time></trkpt><trkpt lat="43.4541235" lon="13.2017099"><ele>126.0</ele><time>2026-05-01T13:26:27.806Z</time></trkpt><trkpt lat="43.4541863" lon="13.2016869"><ele>125.49999999999999</ele><time>2026-05-01T13:26:28.807Z</time></trkpt><trkpt lat="43.4542481" lon="13.2016692"><ele>125.0</ele><time>2026-05-01T13:26:29.806Z</time></trkpt><trkpt lat="43.4543703" lon="13.2016841"><ele>125.0</ele><time>2026-05-01T13:26:31.806Z</time></trkpt><trkpt lat="43.4544563" lon="13.2017897"><ele>125.0</ele><time>2026-05-01T13:26:33.805Z</time></trkpt><trkpt lat="43.4544848" lon="13.2018684"><ele>125.0</ele><time>2026-05-01T13:26:34.806Z</time></trkpt><trkpt lat="43.4545069" lon="13.2019526"><ele>125.0</ele><time>2026-05-01T13:26:35.806Z</time></trkpt><trkpt lat="43.4545268" lon="13.2020375"><ele>125.0</ele><time>2026-05-01T13:26:36.805Z</time></trkpt><trkpt lat="43.4545498" lon="13.2021219"><ele>125.0</ele><time>2026-05-01T13:26:37.806Z</time></trkpt><trkpt lat="43.4545788" lon="13.2021996"><ele>125.0</ele><time>2026-05-01T13:26:38.806Z</time></trkpt><trkpt lat="43.454614" lon="13.2022792"><ele>124.57142857142857</ele><time>2026-05-01T13:26:39.806Z</time></trkpt><trkpt lat="43.4546493" lon="13.2023581"><ele>124.14285714285714</ele><time>2026-05-01T13:26:40.806Z</time></trkpt><trkpt lat="43.4546809" lon="13.2024364"><ele>123.71428571428571</ele><time>2026-05-01T13:26:41.806Z</time></trkpt><trkpt lat="43.4547088" lon="13.2025249"><ele>123.28571428571428</ele><time>2026-05-01T13:26:42.806Z</time></trkpt><trkpt lat="43.4547301" lon="13.2026143"><ele>122.85714285714286</ele><time>2026-05-01T13:26:43.806Z</time></trkpt><trkpt lat="43.4547481" lon="13.2027113"><ele>122.42857142857142</ele><time>2026-05-01T13:26:44.805Z</time></trkpt><trkpt lat="43.4547709" lon="13.2028006"><ele>121.99999999999999</ele><time>2026-05-01T13:26:45.806Z</time></trkpt><trkpt lat="43.4548061" lon="13.2028771"><ele>121.99999999999999</ele><time>2026-05-01T13:26:46.806Z</time></trkpt><trkpt lat="43.4549108" lon="13.2029328"><ele>122.0</ele><time>2026-05-01T13:26:48.806Z</time></trkpt><trkpt lat="43.4550277" lon="13.2028748"><ele>122.0</ele><time>2026-05-01T13:26:50.805Z</time></trkpt><trkpt lat="43.4550844" lon="13.2028275"><ele>122.0</ele><time>2026-05-01T13:26:51.805Z</time></trkpt><trkpt lat="43.4551439" lon="13.2027834"><ele>121.99999999999999</ele><time>2026-05-01T13:26:52.805Z</time></trkpt><trkpt lat="43.4552077" lon="13.202743"><ele>122.0</ele><time>2026-05-01T13:26:53.805Z</time></trkpt><trkpt lat="43.4552717" lon="13.2027079"><ele>121.99999999999999</ele><time>2026-05-01T13:26:54.806Z</time></trkpt><trkpt lat="43.4553396" lon="13.2026734"><ele>122.0</ele><time>2026-05-01T13:26:55.805Z</time></trkpt><trkpt lat="43.455404" lon="13.2026458"><ele>121.99999999999999</ele><time>2026-05-01T13:26:56.806Z</time></trkpt><trkpt lat="43.4554673" lon="13.202621"><ele>121.99999999999999</ele><time>2026-05-01T13:26:57.806Z</time></trkpt><trkpt lat="43.4555363" lon="13.2025952"><ele>122.0</ele><time>2026-05-01T13:26:58.805Z</time></trkpt><trkpt lat="43.4556068" lon="13.2025742"><ele>121.99999999999999</ele><time>2026-05-01T13:26:59.806Z</time></trkpt><trkpt lat="43.4556759" lon="13.2025582"><ele>121.99999999999999</ele><time>2026-05-01T13:27:00.807Z</time></trkpt><trkpt lat="43.4557445" lon="13.2025481"><ele>122.42857142857142</ele><time>2026-05-01T13:27:01.806Z</time></trkpt><trkpt lat="43.4558167" lon="13.2025439"><ele>122.85714285714286</ele><time>2026-05-01T13:27:02.806Z</time></trkpt><trkpt lat="43.4558916" lon="13.2025461"><ele>123.28571428571428</ele><time>2026-05-01T13:27:03.806Z</time></trkpt><trkpt lat="43.4559628" lon="13.202555"><ele>123.71428571428571</ele><time>2026-05-01T13:27:04.805Z</time></trkpt><trkpt lat="43.4560344" lon="13.2025702"><ele>124.14285714285714</ele><time>2026-05-01T13:27:05.806Z</time></trkpt><trkpt lat="43.4561069" lon="13.2025906"><ele>124.57142857142857</ele><time>2026-05-01T13:27:06.806Z</time></trkpt><trkpt lat="43.4561805" lon="13.2026192"><ele>125.0</ele><time>2026-05-01T13:27:07.806Z</time></trkpt><trkpt lat="43.4562536" lon="13.2026535"><ele>124.99999999999999</ele><time>2026-05-01T13:27:08.806Z</time></trkpt><trkpt lat="43.4563339" lon="13.2026927"><ele>125.0</ele><time>2026-05-01T13:27:09.807Z</time></trkpt><trkpt lat="43.4564138" lon="13.20273"><ele>125.0</ele><time>2026-05-01T13:27:10.806Z</time></trkpt><trkpt lat="43.4564991" lon="13.2027691"><ele>125.0</ele><time>2026-05-01T13:27:11.807Z</time></trkpt><trkpt lat="43.4565803" lon="13.202809"><ele>124.99999999999999</ele><time>2026-05-01T13:27:12.805Z</time></trkpt><trkpt lat="43.4566612" lon="13.2028485"><ele>125.0</ele><time>2026-05-01T13:27:13.805Z</time></trkpt><trkpt lat="43.4567445" lon="13.2028867"><ele>124.99999999999999</ele><time>2026-05-01T13:27:14.805Z</time></trkpt><trkpt lat="43.4568254" lon="13.2029261"><ele>125.0</ele><time>2026-05-01T13:27:15.806Z</time></trkpt><trkpt lat="43.4569061" lon="13.2029698"><ele>125.0</ele><time>2026-05-01T13:27:16.807Z</time></trkpt><trkpt lat="43.4569899" lon="13.203016"><ele>125.0</ele><time>2026-05-01T13:27:17.806Z</time></trkpt><trkpt lat="43.4570712" lon="13.2030575"><ele>124.99999999999999</ele><time>2026-05-01T13:27:18.805Z</time></trkpt><trkpt lat="43.4571589" lon="13.2030969"><ele>125.0</ele><time>2026-05-01T13:27:19.805Z</time></trkpt><trkpt lat="43.4572417" lon="13.2031315"><ele>126.16666666666666</ele><time>2026-05-01T13:27:20.806Z</time></trkpt><trkpt lat="43.4573207" lon="13.2031658"><ele>127.33333333333333</ele><time>2026-05-01T13:27:21.805Z</time></trkpt><trkpt lat="43.4574011" lon="13.2032034"><ele>128.5</ele><time>2026-05-01T13:27:22.806Z</time></trkpt><trkpt lat="43.4574797" lon="13.2032411"><ele>129.66666666666666</ele><time>2026-05-01T13:27:23.805Z</time></trkpt><trkpt lat="43.457557" lon="13.2032795"><ele>130.83333333333334</ele><time>2026-05-01T13:27:24.806Z</time></trkpt><trkpt lat="43.457633" lon="13.2033181"><ele>132.0</ele><time>2026-05-01T13:27:25.806Z</time></trkpt><trkpt lat="43.4577128" lon="13.203354"><ele>132.0</ele><time>2026-05-01T13:27:26.806Z</time></trkpt><trkpt lat="43.4577961" lon="13.2033923"><ele>132.0</ele><time>2026-05-01T13:27:27.806Z</time></trkpt><trkpt lat="43.4578759" lon="13.2034322"><ele>132.0</ele><time>2026-05-01T13:27:28.806Z</time></trkpt><trkpt lat="43.4579512" lon="13.2034714"><ele>132.0</ele><time>2026-05-01T13:27:29.805Z</time></trkpt><trkpt lat="43.4580268" lon="13.2035104"><ele>132.0</ele><time>2026-05-01T13:27:30.806Z</time></trkpt><trkpt lat="43.4580916" lon="13.2035473"><ele>132.0</ele><time>2026-05-01T13:27:31.807Z</time></trkpt><trkpt lat="43.4581966" lon="13.2036092"><ele>131.79999999999998</ele><time>2026-05-01T13:27:33.805Z</time></trkpt><trkpt lat="43.4582832" lon="13.2036624"><ele>131.6</ele><time>2026-05-01T13:27:35.805Z</time></trkpt><trkpt lat="43.458377" lon="13.2037129"><ele>131.39999999999998</ele><time>2026-05-01T13:27:37.807Z</time></trkpt><trkpt lat="43.4584801" lon="13.2037658"><ele>131.2</ele><time>2026-05-01T13:27:39.805Z</time></trkpt><trkpt lat="43.4585851" lon="13.203824"><ele>131.0</ele><time>2026-05-01T13:27:41.805Z</time></trkpt><trkpt lat="43.4586948" lon="13.2038858"><ele>129.0</ele><time>2026-05-01T13:27:43.805Z</time></trkpt><trkpt lat="43.4588051" lon="13.2039437"><ele>127.0</ele><time>2026-05-01T13:27:45.806Z</time></trkpt><trkpt lat="43.4589163" lon="13.2040091"><ele>125.0</ele><time>2026-05-01T13:27:47.805Z</time></trkpt><trkpt lat="43.4590099" lon="13.2041054"><ele>123.0</ele><time>2026-05-01T13:27:49.805Z</time></trkpt><trkpt lat="43.4590751" lon="13.2042532"><ele>122.85714285714288</ele><time>2026-05-01T13:27:51.805Z</time></trkpt><trkpt lat="43.4591038" lon="13.2043345"><ele>122.71428571428572</ele><time>2026-05-01T13:27:52.806Z</time></trkpt><trkpt lat="43.4591421" lon="13.204408"><ele>122.57142857142857</ele><time>2026-05-01T13:27:53.806Z</time></trkpt><trkpt lat="43.4591939" lon="13.2044657"><ele>122.42857142857143</ele><time>2026-05-01T13:27:54.806Z</time></trkpt><trkpt lat="43.4592532" lon="13.2045127"><ele>122.28571428571428</ele><time>2026-05-01T13:27:55.805Z</time></trkpt><trkpt lat="43.4593141" lon="13.2045604"><ele>122.14285714285712</ele><time>2026-05-01T13:27:56.805Z</time></trkpt><trkpt lat="43.4593794" lon="13.2046102"><ele>121.99999999999999</ele><time>2026-05-01T13:27:57.806Z</time></trkpt><trkpt lat="43.4594463" lon="13.2046603"><ele>121.99999999999999</ele><time>2026-05-01T13:27:58.806Z</time></trkpt><trkpt lat="43.4595208" lon="13.2047158"><ele>122.0</ele><time>2026-05-01T13:27:59.806Z</time></trkpt><trkpt lat="43.4595977" lon="13.204769"><ele>122.0</ele><time>2026-05-01T13:28:00.806Z</time></trkpt><trkpt lat="43.4596749" lon="13.2048222"><ele>122.0</ele><time>2026-05-01T13:28:01.806Z</time></trkpt><trkpt lat="43.4597529" lon="13.2048785"><ele>121.99999999999999</ele><time>2026-05-01T13:28:02.806Z</time></trkpt><trkpt lat="43.4598326" lon="13.2049344"><ele>122.0</ele><time>2026-05-01T13:28:03.806Z</time></trkpt><trkpt lat="43.4599133" lon="13.2049878"><ele>122.66666666666666</ele><time>2026-05-01T13:28:04.805Z</time></trkpt><trkpt lat="43.4599896" lon="13.2050375"><ele>123.33333333333333</ele><time>2026-05-01T13:28:05.806Z</time></trkpt><trkpt lat="43.4600695" lon="13.2050793"><ele>124.0</ele><time>2026-05-01T13:28:06.806Z</time></trkpt><trkpt lat="43.4601521" lon="13.205106"><ele>124.66666666666666</ele><time>2026-05-01T13:28:07.807Z</time></trkpt><trkpt lat="43.4602362" lon="13.2051086"><ele>125.33333333333333</ele><time>2026-05-01T13:28:08.805Z</time></trkpt><trkpt lat="43.4603151" lon="13.2050863"><ele>126.0</ele><time>2026-05-01T13:28:09.804Z</time></trkpt><trkpt lat="43.4603797" lon="13.205048"><ele>127.0</ele><time>2026-05-01T13:28:10.804Z</time></trkpt><trkpt lat="43.4604758" lon="13.2049562"><ele>128.0</ele><time>2026-05-01T13:28:12.805Z</time></trkpt><trkpt lat="43.4605755" lon="13.2048513"><ele>129.0</ele><time>2026-05-01T13:28:14.805Z</time></trkpt><trkpt lat="43.4606319" lon="13.204792"><ele>130.0</ele><time>2026-05-01T13:28:15.804Z</time></trkpt><trkpt lat="43.4606882" lon="13.2047353"><ele>131.0</ele><time>2026-05-01T13:28:16.805Z</time></trkpt><trkpt lat="43.4607446" lon="13.20468"><ele>131.0</ele><time>2026-05-01T13:28:17.805Z</time></trkpt><trkpt lat="43.4608058" lon="13.2046219"><ele>131.0</ele><time>2026-05-01T13:28:18.804Z</time></trkpt><trkpt lat="43.4608653" lon="13.2045639"><ele>131.0</ele><time>2026-05-01T13:28:19.806Z</time></trkpt><trkpt lat="43.4609263" lon="13.204506"><ele>131.0</ele><time>2026-05-01T13:28:20.805Z</time></trkpt><trkpt lat="43.4609875" lon="13.2044464"><ele>131.0</ele><time>2026-05-01T13:28:21.805Z</time></trkpt><trkpt lat="43.4610464" lon="13.2043859"><ele>131.0</ele><time>2026-05-01T13:28:22.804Z</time></trkpt><trkpt lat="43.461105" lon="13.2043184"><ele>131.0</ele><time>2026-05-01T13:28:23.805Z</time></trkpt><trkpt lat="43.461159" lon="13.2042433"><ele>131.0</ele><time>2026-05-01T13:28:24.804Z</time></trkpt><trkpt lat="43.4612071" lon="13.2041575"><ele>131.0</ele><time>2026-05-01T13:28:25.805Z</time></trkpt><trkpt lat="43.4612512" lon="13.2040596"><ele>131.0</ele><time>2026-05-01T13:28:26.805Z</time></trkpt><trkpt lat="43.4612927" lon="13.2039579"><ele>131.0</ele><time>2026-05-01T13:28:27.804Z</time></trkpt><trkpt lat="43.4613339" lon="13.2038553"><ele>131.0</ele><time>2026-05-01T13:28:28.804Z</time></trkpt><trkpt lat="43.4613725" lon="13.2037591"><ele>131.0</ele><time>2026-05-01T13:28:29.805Z</time></trkpt><trkpt lat="43.4614139" lon="13.2036657"><ele>133.8</ele><time>2026-05-01T13:28:30.806Z</time></trkpt><trkpt lat="43.46146" lon="13.2035809"><ele>136.6</ele><time>2026-05-01T13:28:31.805Z</time></trkpt><trkpt lat="43.4615056" lon="13.2035193"><ele>139.4</ele><time>2026-05-01T13:28:32.804Z</time></trkpt><trkpt lat="43.4616144" lon="13.2034371"><ele>142.2</ele><time>2026-05-01T13:28:34.805Z</time></trkpt><trkpt lat="43.461724" lon="13.2033978"><ele>145.0</ele><time>2026-05-01T13:28:36.806Z</time></trkpt><trkpt lat="43.4618253" lon="13.2033931"><ele>145.0</ele><time>2026-05-01T13:28:38.804Z</time></trkpt><trkpt lat="43.4619315" lon="13.2034063"><ele>145.0</ele><time>2026-05-01T13:28:40.804Z</time></trkpt><trkpt lat="43.4620339" lon="13.2034336"><ele>145.0</ele><time>2026-05-01T13:28:42.804Z</time></trkpt><trkpt lat="43.4621308" lon="13.2034576"><ele>145.0</ele><time>2026-05-01T13:28:44.804Z</time></trkpt><trkpt lat="43.4621973" lon="13.2034414"><ele>145.0</ele><time>2026-05-01T13:28:46.805Z</time></trkpt><trkpt lat="43.462239" lon="13.2033324"><ele>145.66666666666669</ele><time>2026-05-01T13:28:49.804Z</time></trkpt><trkpt lat="43.4622423" lon="13.2032295"><ele>146.33333333333334</ele><time>2026-05-01T13:28:51.805Z</time></trkpt><trkpt lat="43.4622419" lon="13.2031139"><ele>147.0</ele><time>2026-05-01T13:28:53.806Z</time></trkpt><trkpt lat="43.4622466" lon="13.2029903"><ele>147.66666666666666</ele><time>2026-05-01T13:28:55.805Z</time></trkpt><trkpt lat="43.4622606" lon="13.2028712"><ele>148.33333333333331</ele><time>2026-05-01T13:28:57.804Z</time></trkpt><trkpt lat="43.4622772" lon="13.2027379"><ele>149.0</ele><time>2026-05-01T13:28:59.804Z</time></trkpt><trkpt lat="43.4623039" lon="13.2025965"><ele>147.66666666666666</ele><time>2026-05-01T13:29:01.806Z</time></trkpt><trkpt lat="43.4623393" lon="13.2024326"><ele>146.33333333333331</ele><time>2026-05-01T13:29:03.805Z</time></trkpt><trkpt lat="43.4623588" lon="13.202344"><ele>145.0</ele><time>2026-05-01T13:29:04.804Z</time></trkpt><trkpt lat="43.4623781" lon="13.2022555"><ele>143.66666666666666</ele><time>2026-05-01T13:29:05.805Z</time></trkpt><trkpt lat="43.462401" lon="13.2021569"><ele>142.33333333333334</ele><time>2026-05-01T13:29:06.805Z</time></trkpt><trkpt lat="43.4624231" lon="13.2020625"><ele>141.0</ele><time>2026-05-01T13:29:07.806Z</time></trkpt><trkpt lat="43.4624462" lon="13.2019638"><ele>139.83333333333334</ele><time>2026-05-01T13:29:08.806Z</time></trkpt><trkpt lat="43.4624702" lon="13.201862"><ele>138.66666666666666</ele><time>2026-05-01T13:29:09.805Z</time></trkpt><trkpt lat="43.4624948" lon="13.2017596"><ele>137.5</ele><time>2026-05-01T13:29:10.805Z</time></trkpt><trkpt lat="43.4625229" lon="13.2016524"><ele>136.33333333333331</ele><time>2026-05-01T13:29:11.805Z</time></trkpt><trkpt lat="43.4625497" lon="13.2015515"><ele>135.16666666666666</ele><time>2026-05-01T13:29:12.805Z</time></trkpt><trkpt lat="43.4625766" lon="13.2014505"><ele>134.0</ele><time>2026-05-01T13:29:13.804Z</time></trkpt><trkpt lat="43.4626045" lon="13.2013455"><ele>132.83333333333331</ele><time>2026-05-01T13:29:14.805Z</time></trkpt><trkpt lat="43.4626335" lon="13.2012421"><ele>131.66666666666666</ele><time>2026-05-01T13:29:15.805Z</time></trkpt><trkpt lat="43.4626604" lon="13.2011426"><ele>130.5</ele><time>2026-05-01T13:29:16.805Z</time></trkpt><trkpt lat="43.4626867" lon="13.2010452"><ele>129.33333333333334</ele><time>2026-05-01T13:29:17.805Z</time></trkpt><trkpt lat="43.4627143" lon="13.2009452"><ele>128.16666666666669</ele><time>2026-05-01T13:29:18.805Z</time></trkpt><trkpt lat="43.4627424" lon="13.2008435"><ele>127.0</ele><time>2026-05-01T13:29:19.804Z</time></trkpt><trkpt lat="43.46277" lon="13.2007419"><ele>126.00000000000001</ele><time>2026-05-01T13:29:20.804Z</time></trkpt><trkpt lat="43.4627972" lon="13.2006402"><ele>125.0</ele><time>2026-05-01T13:29:21.805Z</time></trkpt><trkpt lat="43.4628259" lon="13.2005335"><ele>124.0</ele><time>2026-05-01T13:29:22.804Z</time></trkpt><trkpt lat="43.4628543" lon="13.2004299"><ele>123.0</ele><time>2026-05-01T13:29:23.805Z</time></trkpt><trkpt lat="43.4628824" lon="13.2003264"><ele>122.00000000000001</ele><time>2026-05-01T13:29:24.804Z</time></trkpt><trkpt lat="43.4629105" lon="13.2002231"><ele>121.0</ele><time>2026-05-01T13:29:25.805Z</time></trkpt><trkpt lat="43.4629368" lon="13.2001244"><ele>120.50000000000001</ele><time>2026-05-01T13:29:26.805Z</time></trkpt><trkpt lat="43.4629651" lon="13.2000199"><ele>120.0</ele><time>2026-05-01T13:29:27.805Z</time></trkpt><trkpt lat="43.462994" lon="13.1999198"><ele>119.5</ele><time>2026-05-01T13:29:28.805Z</time></trkpt><trkpt lat="43.4630227" lon="13.1998231"><ele>119.0</ele><time>2026-05-01T13:29:29.804Z</time></trkpt><trkpt lat="43.4630551" lon="13.1997192"><ele>118.50000000000001</ele><time>2026-05-01T13:29:30.805Z</time></trkpt><trkpt lat="43.4630859" lon="13.1996182"><ele>118.0</ele><time>2026-05-01T13:29:31.806Z</time></trkpt><trkpt lat="43.4631164" lon="13.1995142"><ele>117.50000000000001</ele><time>2026-05-01T13:29:32.805Z</time></trkpt><trkpt lat="43.4631445" lon="13.1994113"><ele>117.0</ele><time>2026-05-01T13:29:33.805Z</time></trkpt><trkpt lat="43.4631731" lon="13.199303"><ele>116.5</ele><time>2026-05-01T13:29:34.804Z</time></trkpt><trkpt lat="43.4632023" lon="13.1991902"><ele>116.0</ele><time>2026-05-01T13:29:35.805Z</time></trkpt><trkpt lat="43.4632293" lon="13.1990836"><ele>115.50000000000001</ele><time>2026-05-01T13:29:36.805Z</time></trkpt><trkpt lat="43.4632558" lon="13.1989811"><ele>115.0</ele><time>2026-05-01T13:29:37.804Z</time></trkpt><trkpt lat="43.4632806" lon="13.198887"><ele>114.57142857142856</ele><time>2026-05-01T13:29:38.806Z</time></trkpt><trkpt lat="43.4633078" lon="13.1988033"><ele>114.14285714285714</ele><time>2026-05-01T13:29:39.804Z</time></trkpt><trkpt lat="43.463344" lon="13.1987259"><ele>113.71428571428571</ele><time>2026-05-01T13:29:40.805Z</time></trkpt><trkpt lat="43.4633917" lon="13.1986647"><ele>113.28571428571428</ele><time>2026-05-01T13:29:41.805Z</time></trkpt><trkpt lat="43.4634477" lon="13.1986243"><ele>112.85714285714286</ele><time>2026-05-01T13:29:42.806Z</time></trkpt><trkpt lat="43.4635154" lon="13.198599"><ele>112.42857142857143</ele><time>2026-05-01T13:29:43.806Z</time></trkpt><trkpt lat="43.4635855" lon="13.1985886"><ele>112.0</ele><time>2026-05-01T13:29:44.805Z</time></trkpt><trkpt lat="43.4636549" lon="13.1985879"><ele>112.0</ele><time>2026-05-01T13:29:45.806Z</time></trkpt><trkpt lat="43.4637273" lon="13.1985922"><ele>112.0</ele><time>2026-05-01T13:29:46.805Z</time></trkpt><trkpt lat="43.4637954" lon="13.1986022"><ele>112.0</ele><time>2026-05-01T13:29:47.806Z</time></trkpt><trkpt lat="43.463863" lon="13.198612"><ele>112.0</ele><time>2026-05-01T13:29:48.806Z</time></trkpt><trkpt lat="43.4639291" lon="13.1986185"><ele>112.0</ele><time>2026-05-01T13:29:49.804Z</time></trkpt><trkpt lat="43.4639993" lon="13.1986249"><ele>112.0</ele><time>2026-05-01T13:29:50.804Z</time></trkpt><trkpt lat="43.4640716" lon="13.1986355"><ele>112.0</ele><time>2026-05-01T13:29:51.805Z</time></trkpt><trkpt lat="43.4641432" lon="13.1986514"><ele>112.00000000000001</ele><time>2026-05-01T13:29:52.804Z</time></trkpt><trkpt lat="43.4642161" lon="13.1986715"><ele>112.0</ele><time>2026-05-01T13:29:53.805Z</time></trkpt><trkpt lat="43.4642944" lon="13.198693"><ele>112.0</ele><time>2026-05-01T13:29:54.804Z</time></trkpt><trkpt lat="43.4643733" lon="13.198713"><ele>112.0</ele><time>2026-05-01T13:29:55.805Z</time></trkpt><trkpt lat="43.4644516" lon="13.1987295"><ele>112.00000000000001</ele><time>2026-05-01T13:29:56.805Z</time></trkpt><trkpt lat="43.4645333" lon="13.198739"><ele>112.0</ele><time>2026-05-01T13:29:57.805Z</time></trkpt><trkpt lat="43.4646157" lon="13.1987387"><ele>112.66666666666667</ele><time>2026-05-01T13:29:58.804Z</time></trkpt><trkpt lat="43.4646987" lon="13.1987349"><ele>113.33333333333334</ele><time>2026-05-01T13:29:59.804Z</time></trkpt><trkpt lat="43.4647791" lon="13.1987324"><ele>114.0</ele><time>2026-05-01T13:30:00.805Z</time></trkpt><trkpt lat="43.4648577" lon="13.1987315"><ele>114.66666666666666</ele><time>2026-05-01T13:30:01.805Z</time></trkpt><trkpt lat="43.4649415" lon="13.1987285"><ele>115.33333333333333</ele><time>2026-05-01T13:30:02.805Z</time></trkpt><trkpt lat="43.4650216" lon="13.1987246"><ele>116.0</ele><time>2026-05-01T13:30:03.805Z</time></trkpt><trkpt lat="43.4650944" lon="13.1987213"><ele>115.99999999999999</ele><time>2026-05-01T13:30:04.805Z</time></trkpt><trkpt lat="43.465171" lon="13.1987167"><ele>116.0</ele><time>2026-05-01T13:30:05.805Z</time></trkpt><trkpt lat="43.4652498" lon="13.1987122"><ele>116.0</ele><time>2026-05-01T13:30:06.804Z</time></trkpt><trkpt lat="43.4653314" lon="13.1987104"><ele>116.0</ele><time>2026-05-01T13:30:07.805Z</time></trkpt><trkpt lat="43.4654134" lon="13.1987127"><ele>115.99999999999999</ele><time>2026-05-01T13:30:08.806Z</time></trkpt><trkpt lat="43.4654891" lon="13.1987163"><ele>116.0</ele><time>2026-05-01T13:30:09.804Z</time></trkpt><trkpt lat="43.4655586" lon="13.1987225"><ele>117.0</ele><time>2026-05-01T13:30:10.805Z</time></trkpt><trkpt lat="43.4656731" lon="13.1987553"><ele>118.0</ele><time>2026-05-01T13:30:12.805Z</time></trkpt><trkpt lat="43.4657527" lon="13.1988435"><ele>119.0</ele><time>2026-05-01T13:30:14.805Z</time></trkpt><trkpt lat="43.4658068" lon="13.1989838"><ele>120.0</ele><time>2026-05-01T13:30:16.805Z</time></trkpt><trkpt lat="43.4658792" lon="13.1990789"><ele>121.0</ele><time>2026-05-01T13:30:18.805Z</time></trkpt><trkpt lat="43.4659686" lon="13.1990664"><ele>121.00000000000001</ele><time>2026-05-01T13:30:20.805Z</time></trkpt><trkpt lat="43.4660679" lon="13.1990056"><ele>121.0</ele><time>2026-05-01T13:30:22.805Z</time></trkpt><trkpt lat="43.466133" lon="13.1989683"><ele>121.0</ele><time>2026-05-01T13:30:23.804Z</time></trkpt><trkpt lat="43.4661996" lon="13.1989355"><ele>121.0</ele><time>2026-05-01T13:30:24.804Z</time></trkpt><trkpt lat="43.4662719" lon="13.1989044"><ele>121.00000000000001</ele><time>2026-05-01T13:30:25.805Z</time></trkpt><trkpt lat="43.466347" lon="13.1988737"><ele>121.0</ele><time>2026-05-01T13:30:26.805Z</time></trkpt><trkpt lat="43.4664246" lon="13.1988404"><ele>120.33333333333334</ele><time>2026-05-01T13:30:27.805Z</time></trkpt><trkpt lat="43.4665023" lon="13.1988056"><ele>119.66666666666667</ele><time>2026-05-01T13:30:28.804Z</time></trkpt><trkpt lat="43.4665777" lon="13.1987728"><ele>119.0</ele><time>2026-05-01T13:30:29.805Z</time></trkpt><trkpt lat="43.4666546" lon="13.1987395"><ele>118.33333333333334</ele><time>2026-05-01T13:30:30.806Z</time></trkpt><trkpt lat="43.466732" lon="13.1987069"><ele>117.66666666666667</ele><time>2026-05-01T13:30:31.804Z</time></trkpt><trkpt lat="43.4668054" lon="13.1986752"><ele>117.0</ele><time>2026-05-01T13:30:32.805Z</time></trkpt><trkpt lat="43.4668756" lon="13.1986444"><ele>117.0</ele><time>2026-05-01T13:30:33.805Z</time></trkpt><trkpt lat="43.4669533" lon="13.1986118"><ele>117.0</ele><time>2026-05-01T13:30:34.805Z</time></trkpt><trkpt lat="43.4670308" lon="13.1985782"><ele>117.0</ele><time>2026-05-01T13:30:35.805Z</time></trkpt><trkpt lat="43.467108" lon="13.1985354"><ele>117.0</ele><time>2026-05-01T13:30:36.804Z</time></trkpt><trkpt lat="43.4671808" lon="13.1984754"><ele>117.0</ele><time>2026-05-01T13:30:37.804Z</time></trkpt><trkpt lat="43.467245" lon="13.1983982"><ele>117.0</ele><time>2026-05-01T13:30:38.804Z</time></trkpt><trkpt lat="43.4673056" lon="13.1982996"><ele>117.19999999999999</ele><time>2026-05-01T13:30:39.805Z</time></trkpt><trkpt lat="43.4673594" lon="13.1981935"><ele>117.39999999999999</ele><time>2026-05-01T13:30:40.805Z</time></trkpt><trkpt lat="43.4674123" lon="13.198082"><ele>117.60000000000001</ele><time>2026-05-01T13:30:41.804Z</time></trkpt><trkpt lat="43.4674654" lon="13.1979673"><ele>117.80000000000001</ele><time>2026-05-01T13:30:42.804Z</time></trkpt><trkpt lat="43.4675231" lon="13.1978548"><ele>118.0</ele><time>2026-05-01T13:30:43.804Z</time></trkpt><trkpt lat="43.4675829" lon="13.1977469"><ele>117.4</ele><time>2026-05-01T13:30:44.804Z</time></trkpt><trkpt lat="43.4676357" lon="13.197641"><ele>116.80000000000001</ele><time>2026-05-01T13:30:45.804Z</time></trkpt><trkpt lat="43.467687" lon="13.1975313"><ele>116.2</ele><time>2026-05-01T13:30:46.805Z</time></trkpt><trkpt lat="43.4677383" lon="13.1974198"><ele>115.6</ele><time>2026-05-01T13:30:47.805Z</time></trkpt><trkpt lat="43.4677863" lon="13.197314"><ele>115.0</ele><time>2026-05-01T13:30:48.804Z</time></trkpt><trkpt lat="43.4678303" lon="13.1972172"><ele>114.4</ele><time>2026-05-01T13:30:49.805Z</time></trkpt><trkpt lat="43.4678762" lon="13.1971287"><ele>113.8</ele><time>2026-05-01T13:30:50.805Z</time></trkpt><trkpt lat="43.4679399" lon="13.1970105"><ele>113.19999999999999</ele><time>2026-05-01T13:30:52.805Z</time></trkpt><trkpt lat="43.4679494" lon="13.1969201"><ele>112.6</ele><time>2026-05-01T13:30:54.804Z</time></trkpt><trkpt lat="43.4678952" lon="13.196815"><ele>112.0</ele><time>2026-05-01T13:30:56.804Z</time></trkpt><trkpt lat="43.4677927" lon="13.1967137"><ele>112.00000000000001</ele><time>2026-05-01T13:30:58.804Z</time></trkpt><trkpt lat="43.4677286" lon="13.1966667"><ele>112.0</ele><time>2026-05-01T13:30:59.805Z</time></trkpt><trkpt lat="43.4676591" lon="13.1966201"><ele>112.0</ele><time>2026-05-01T13:31:00.806Z</time></trkpt><trkpt lat="43.467589" lon="13.1965739"><ele>112.0</ele><time>2026-05-01T13:31:01.804Z</time></trkpt><trkpt lat="43.4675131" lon="13.1965184"><ele>112.00000000000001</ele><time>2026-05-01T13:31:02.805Z</time></trkpt><trkpt lat="43.4674305" lon="13.1964571"><ele>112.0</ele><time>2026-05-01T13:31:03.805Z</time></trkpt><trkpt lat="43.4673477" lon="13.1963948"><ele>111.75</ele><time>2026-05-01T13:31:04.804Z</time></trkpt><trkpt lat="43.4672562" lon="13.1963232"><ele>111.5</ele><time>2026-05-01T13:31:05.805Z</time></trkpt><trkpt lat="43.467155" lon="13.1962387"><ele>111.25</ele><time>2026-05-01T13:31:06.805Z</time></trkpt><trkpt lat="43.4670582" lon="13.1961454"><ele>111.0</ele><time>2026-05-01T13:31:07.804Z</time></trkpt><trkpt lat="43.4669647" lon="13.1960409"><ele>110.75</ele><time>2026-05-01T13:31:08.804Z</time></trkpt><trkpt lat="43.466869" lon="13.1959198"><ele>110.5</ele><time>2026-05-01T13:31:09.804Z</time></trkpt><trkpt lat="43.4667727" lon="13.1957913"><ele>110.25</ele><time>2026-05-01T13:31:10.805Z</time></trkpt><trkpt lat="43.466671" lon="13.1956538"><ele>110.0</ele><time>2026-05-01T13:31:11.805Z</time></trkpt><trkpt lat="43.4665714" lon="13.195521"><ele>109.75</ele><time>2026-05-01T13:31:12.805Z</time></trkpt><trkpt lat="43.4664705" lon="13.1953881"><ele>109.5</ele><time>2026-05-01T13:31:13.805Z</time></trkpt><trkpt lat="43.4663706" lon="13.1952548"><ele>109.25</ele><time>2026-05-01T13:31:14.804Z</time></trkpt><trkpt lat="43.4662722" lon="13.1951213"><ele>109.0</ele><time>2026-05-01T13:31:15.805Z</time></trkpt><trkpt lat="43.4661745" lon="13.1949875"><ele>109.75</ele><time>2026-05-01T13:31:16.805Z</time></trkpt><trkpt lat="43.466081" lon="13.1948585"><ele>110.5</ele><time>2026-05-01T13:31:17.805Z</time></trkpt><trkpt lat="43.4659839" lon="13.1947269"><ele>111.25</ele><time>2026-05-01T13:31:18.804Z</time></trkpt><trkpt lat="43.4658835" lon="13.1945914"><ele>112.0</ele><time>2026-05-01T13:31:19.805Z</time></trkpt><trkpt lat="43.4657857" lon="13.1944607"><ele>112.25</ele><time>2026-05-01T13:31:20.805Z</time></trkpt><trkpt lat="43.4656885" lon="13.1943338"><ele>112.5</ele><time>2026-05-01T13:31:21.804Z</time></trkpt><trkpt lat="43.4655827" lon="13.1941973"><ele>112.75</ele><time>2026-05-01T13:31:22.805Z</time></trkpt><trkpt lat="43.4654799" lon="13.1940628"><ele>113.0</ele><time>2026-05-01T13:31:23.805Z</time></trkpt><trkpt lat="43.4653797" lon="13.193931"><ele>115.0</ele><time>2026-05-01T13:31:24.805Z</time></trkpt><trkpt lat="43.4652752" lon="13.1937938"><ele>117.0</ele><time>2026-05-01T13:31:25.804Z</time></trkpt><trkpt lat="43.465173" lon="13.1936587"><ele>119.0</ele><time>2026-05-01T13:31:26.805Z</time></trkpt><trkpt lat="43.465068" lon="13.1935167"><ele>121.0</ele><time>2026-05-01T13:31:27.804Z</time></trkpt><trkpt lat="43.4649655" lon="13.1933798"><ele>121.0</ele><time>2026-05-01T13:31:28.805Z</time></trkpt><trkpt lat="43.4648608" lon="13.1932469"><ele>121.0</ele><time>2026-05-01T13:31:29.805Z</time></trkpt><trkpt lat="43.4647602" lon="13.1931148"><ele>121.0</ele><time>2026-05-01T13:31:30.804Z</time></trkpt><trkpt lat="43.4646667" lon="13.1929807"><ele>121.0</ele><time>2026-05-01T13:31:31.805Z</time></trkpt><trkpt lat="43.4645846" lon="13.1928416"><ele>124.75</ele><time>2026-05-01T13:31:32.805Z</time></trkpt><trkpt lat="43.4645213" lon="13.1926992"><ele>128.5</ele><time>2026-05-01T13:31:33.804Z</time></trkpt><trkpt lat="43.464482" lon="13.1925397"><ele>132.25</ele><time>2026-05-01T13:31:34.805Z</time></trkpt><trkpt lat="43.4644747" lon="13.1923697"><ele>136.0</ele><time>2026-05-01T13:31:35.805Z</time></trkpt><trkpt lat="43.4644923" lon="13.1922051"><ele>136.6</ele><time>2026-05-01T13:31:36.804Z</time></trkpt><trkpt lat="43.4645121" lon="13.1920471"><ele>137.2</ele><time>2026-05-01T13:31:37.805Z</time></trkpt><trkpt lat="43.4645272" lon="13.1918812"><ele>137.8</ele><time>2026-05-01T13:31:38.805Z</time></trkpt><trkpt lat="43.4645317" lon="13.1917326"><ele>138.4</ele><time>2026-05-01T13:31:39.805Z</time></trkpt><trkpt lat="43.4645246" lon="13.1915967"><ele>139.0</ele><time>2026-05-01T13:31:40.805Z</time></trkpt><trkpt lat="43.4645038" lon="13.191474"><ele>139.0</ele><time>2026-05-01T13:31:41.804Z</time></trkpt><trkpt lat="43.4644761" lon="13.191369"><ele>139.0</ele><time>2026-05-01T13:31:42.804Z</time></trkpt><trkpt lat="43.4644438" lon="13.1912696"><ele>139.0</ele><time>2026-05-01T13:31:43.805Z</time></trkpt><trkpt lat="43.4644132" lon="13.191176"><ele>139.0</ele><time>2026-05-01T13:31:44.805Z</time></trkpt><trkpt lat="43.4643838" lon="13.1910782"><ele>139.0</ele><time>2026-05-01T13:31:45.805Z</time></trkpt><trkpt lat="43.4643505" lon="13.1909671"><ele>139.0</ele><time>2026-05-01T13:31:46.805Z</time></trkpt><trkpt lat="43.4643169" lon="13.1908507"><ele>139.0</ele><time>2026-05-01T13:31:47.806Z</time></trkpt><trkpt lat="43.4642831" lon="13.190733"><ele>139.0</ele><time>2026-05-01T13:31:48.805Z</time></trkpt><trkpt lat="43.4642506" lon="13.1906168"><ele>139.0</ele><time>2026-05-01T13:31:49.805Z</time></trkpt><trkpt lat="43.4642161" lon="13.1904965"><ele>139.0</ele><time>2026-05-01T13:31:50.804Z</time></trkpt><trkpt lat="43.4641827" lon="13.1903704"><ele>139.0</ele><time>2026-05-01T13:31:51.804Z</time></trkpt><trkpt lat="43.464149" lon="13.190249"><ele>138.4</ele><time>2026-05-01T13:31:52.804Z</time></trkpt><trkpt lat="43.4641167" lon="13.1901299"><ele>137.8</ele><time>2026-05-01T13:31:53.805Z</time></trkpt><trkpt lat="43.4640826" lon="13.1900022"><ele>137.2</ele><time>2026-05-01T13:31:54.805Z</time></trkpt><trkpt lat="43.4640511" lon="13.1898807"><ele>136.6</ele><time>2026-05-01T13:31:55.804Z</time></trkpt><trkpt lat="43.4640192" lon="13.1897601"><ele>136.0</ele><time>2026-05-01T13:31:56.805Z</time></trkpt><trkpt lat="43.463987" lon="13.1896416"><ele>135.6</ele><time>2026-05-01T13:31:57.805Z</time></trkpt><trkpt lat="43.4639528" lon="13.1895302"><ele>135.2</ele><time>2026-05-01T13:31:58.804Z</time></trkpt><trkpt lat="43.4639121" lon="13.1894157"><ele>134.8</ele><time>2026-05-01T13:31:59.804Z</time></trkpt><trkpt lat="43.4638707" lon="13.1893039"><ele>134.4</ele><time>2026-05-01T13:32:00.805Z</time></trkpt><trkpt lat="43.463827" lon="13.1891961"><ele>134.0</ele><time>2026-05-01T13:32:01.805Z</time></trkpt><trkpt lat="43.4637756" lon="13.1890843"><ele>132.2</ele><time>2026-05-01T13:32:02.804Z</time></trkpt><trkpt lat="43.4637185" lon="13.1889776"><ele>130.4</ele><time>2026-05-01T13:32:03.804Z</time></trkpt><trkpt lat="43.4636589" lon="13.1888723"><ele>128.6</ele><time>2026-05-01T13:32:04.806Z</time></trkpt><trkpt lat="43.4635998" lon="13.1887694"><ele>126.8</ele><time>2026-05-01T13:32:05.805Z</time></trkpt><trkpt lat="43.463537" lon="13.1886666"><ele>125.0</ele><time>2026-05-01T13:32:06.805Z</time></trkpt><trkpt lat="43.4634707" lon="13.1885628"><ele>125.0</ele><time>2026-05-01T13:32:07.805Z</time></trkpt><trkpt lat="43.4634098" lon="13.1884598"><ele>125.0</ele><time>2026-05-01T13:32:08.805Z</time></trkpt><trkpt lat="43.4633571" lon="13.1883565"><ele>125.0</ele><time>2026-05-01T13:32:09.805Z</time></trkpt><trkpt lat="43.4633069" lon="13.1882427"><ele>125.0</ele><time>2026-05-01T13:32:10.804Z</time></trkpt><trkpt lat="43.4632641" lon="13.1881321"><ele>125.0</ele><time>2026-05-01T13:32:11.805Z</time></trkpt><trkpt lat="43.4632249" lon="13.1880268"><ele>124.2</ele><time>2026-05-01T13:32:12.805Z</time></trkpt><trkpt lat="43.4631852" lon="13.187918"><ele>123.4</ele><time>2026-05-01T13:32:13.805Z</time></trkpt><trkpt lat="43.4631458" lon="13.1878059"><ele>122.6</ele><time>2026-05-01T13:32:14.805Z</time></trkpt><trkpt lat="43.4631066" lon="13.1876838"><ele>121.8</ele><time>2026-05-01T13:32:15.804Z</time></trkpt><trkpt lat="43.4630703" lon="13.1875655"><ele>121.0</ele><time>2026-05-01T13:32:16.805Z</time></trkpt><trkpt lat="43.4630341" lon="13.1874433"><ele>121.00000000000001</ele><time>2026-05-01T13:32:17.805Z</time></trkpt><trkpt lat="43.4629991" lon="13.1873277"><ele>121.0</ele><time>2026-05-01T13:32:18.804Z</time></trkpt><trkpt lat="43.4629621" lon="13.1872156"><ele>121.0</ele><time>2026-05-01T13:32:19.806Z</time></trkpt><trkpt lat="43.4629259" lon="13.1871045"><ele>121.0</ele><time>2026-05-01T13:32:20.805Z</time></trkpt><trkpt lat="43.4628932" lon="13.1869923"><ele>121.00000000000001</ele><time>2026-05-01T13:32:21.805Z</time></trkpt><trkpt lat="43.4628652" lon="13.186879"><ele>121.0</ele><time>2026-05-01T13:32:22.805Z</time></trkpt><trkpt lat="43.4628404" lon="13.1867575"><ele>121.0</ele><time>2026-05-01T13:32:23.805Z</time></trkpt><trkpt lat="43.4628188" lon="13.1866335"><ele>121.0</ele><time>2026-05-01T13:32:24.805Z</time></trkpt><trkpt lat="43.4627972" lon="13.1865109"><ele>121.0</ele><time>2026-05-01T13:32:25.805Z</time></trkpt><trkpt lat="43.4627717" lon="13.1863764"><ele>121.0</ele><time>2026-05-01T13:32:26.805Z</time></trkpt><trkpt lat="43.4627444" lon="13.1862464"><ele>121.0</ele><time>2026-05-01T13:32:27.804Z</time></trkpt><trkpt lat="43.462712" lon="13.1861202"><ele>121.0</ele><time>2026-05-01T13:32:28.804Z</time></trkpt><trkpt lat="43.4626754" lon="13.1859883"><ele>121.0</ele><time>2026-05-01T13:32:29.806Z</time></trkpt><trkpt lat="43.462643" lon="13.1858518"><ele>121.0</ele><time>2026-05-01T13:32:30.805Z</time></trkpt><trkpt lat="43.4626183" lon="13.1857083"><ele>121.0</ele><time>2026-05-01T13:32:31.804Z</time></trkpt><trkpt lat="43.4626049" lon="13.1855716"><ele>121.0</ele><time>2026-05-01T13:32:32.805Z</time></trkpt><trkpt lat="43.4626039" lon="13.1854319"><ele>122.4</ele><time>2026-05-01T13:32:33.805Z</time></trkpt><trkpt lat="43.4626116" lon="13.1852911"><ele>123.8</ele><time>2026-05-01T13:32:34.805Z</time></trkpt><trkpt lat="43.4626152" lon="13.1851525"><ele>125.20000000000002</ele><time>2026-05-01T13:32:35.804Z</time></trkpt><trkpt lat="43.4626005" lon="13.1850239"><ele>126.60000000000001</ele><time>2026-05-01T13:32:36.805Z</time></trkpt><trkpt lat="43.4625666" lon="13.1849042"><ele>128.0</ele><time>2026-05-01T13:32:37.805Z</time></trkpt><trkpt lat="43.4625263" lon="13.1847903"><ele>129.20000000000002</ele><time>2026-05-01T13:32:38.804Z</time></trkpt><trkpt lat="43.4624949" lon="13.1846595"><ele>130.4</ele><time>2026-05-01T13:32:39.805Z</time></trkpt><trkpt lat="43.4624821" lon="13.1845228"><ele>131.60000000000002</ele><time>2026-05-01T13:32:40.804Z</time></trkpt><trkpt lat="43.4624872" lon="13.1843798"><ele>132.8</ele><time>2026-05-01T13:32:41.805Z</time></trkpt><trkpt lat="43.4625066" lon="13.1842158"><ele>134.0</ele><time>2026-05-01T13:32:42.805Z</time></trkpt><trkpt lat="43.4625248" lon="13.1840579"><ele>135.2</ele><time>2026-05-01T13:32:43.804Z</time></trkpt><trkpt lat="43.4625381" lon="13.1839055"><ele>136.4</ele><time>2026-05-01T13:32:44.805Z</time></trkpt><trkpt lat="43.4625416" lon="13.1837508"><ele>137.6</ele><time>2026-05-01T13:32:45.804Z</time></trkpt><trkpt lat="43.4625283" lon="13.1836011"><ele>138.8</ele><time>2026-05-01T13:32:46.804Z</time></trkpt><trkpt lat="43.4624878" lon="13.183456"><ele>140.0</ele><time>2026-05-01T13:32:47.804Z</time></trkpt><trkpt lat="43.4624244" lon="13.1833346"><ele>140.0</ele><time>2026-05-01T13:32:48.804Z</time></trkpt><trkpt lat="43.4623433" lon="13.1832348"><ele>140.0</ele><time>2026-05-01T13:32:49.805Z</time></trkpt><trkpt lat="43.4622501" lon="13.1831508"><ele>140.0</ele><time>2026-05-01T13:32:50.805Z</time></trkpt><trkpt lat="43.4621565" lon="13.1830723"><ele>140.0</ele><time>2026-05-01T13:32:51.805Z</time></trkpt><trkpt lat="43.4620628" lon="13.1829899"><ele>140.0</ele><time>2026-05-01T13:32:52.804Z</time></trkpt><trkpt lat="43.4619697" lon="13.1829086"><ele>141.8</ele><time>2026-05-01T13:32:53.805Z</time></trkpt><trkpt lat="43.4618815" lon="13.1828306"><ele>143.6</ele><time>2026-05-01T13:32:54.805Z</time></trkpt><trkpt lat="43.4617898" lon="13.1827426"><ele>145.4</ele><time>2026-05-01T13:32:55.804Z</time></trkpt><trkpt lat="43.4617044" lon="13.1826475"><ele>147.2</ele><time>2026-05-01T13:32:56.805Z</time></trkpt><trkpt lat="43.4616287" lon="13.1825414"><ele>149.0</ele><time>2026-05-01T13:32:57.806Z</time></trkpt><trkpt lat="43.4615578" lon="13.1824096"><ele>149.75</ele><time>2026-05-01T13:32:58.804Z</time></trkpt><trkpt lat="43.4614963" lon="13.1822669"><ele>150.5</ele><time>2026-05-01T13:32:59.805Z</time></trkpt><trkpt lat="43.4614382" lon="13.1821249"><ele>151.25</ele><time>2026-05-01T13:33:00.805Z</time></trkpt><trkpt lat="43.4613746" lon="13.181972"><ele>152.0</ele><time>2026-05-01T13:33:01.805Z</time></trkpt><trkpt lat="43.4613134" lon="13.1818238"><ele>152.75</ele><time>2026-05-01T13:33:02.804Z</time></trkpt><trkpt lat="43.4612444" lon="13.1816614"><ele>153.5</ele><time>2026-05-01T13:33:03.805Z</time></trkpt><trkpt lat="43.4611738" lon="13.1815154"><ele>154.25</ele><time>2026-05-01T13:33:04.804Z</time></trkpt><trkpt lat="43.4611005" lon="13.1813767"><ele>155.0</ele><time>2026-05-01T13:33:05.804Z</time></trkpt><trkpt lat="43.4610278" lon="13.1812367"><ele>156.4</ele><time>2026-05-01T13:33:06.804Z</time></trkpt><trkpt lat="43.4609634" lon="13.181096"><ele>157.8</ele><time>2026-05-01T13:33:07.806Z</time></trkpt><trkpt lat="43.4609057" lon="13.1809601"><ele>159.2</ele><time>2026-05-01T13:33:08.805Z</time></trkpt><trkpt lat="43.4608474" lon="13.180836"><ele>160.6</ele><time>2026-05-01T13:33:09.805Z</time></trkpt><trkpt lat="43.4607907" lon="13.1807276"><ele>162.0</ele><time>2026-05-01T13:33:10.805Z</time></trkpt><trkpt lat="43.4607359" lon="13.1806228"><ele>163.0</ele><time>2026-05-01T13:33:11.805Z</time></trkpt><trkpt lat="43.4606926" lon="13.1805267"><ele>164.0</ele><time>2026-05-01T13:33:12.804Z</time></trkpt><trkpt lat="43.4606689" lon="13.1804347"><ele>165.0</ele><time>2026-05-01T13:33:13.805Z</time></trkpt><trkpt lat="43.4606754" lon="13.1803394"><ele>166.0</ele><time>2026-05-01T13:33:14.804Z</time></trkpt><trkpt lat="43.460709" lon="13.1802491"><ele>167.0</ele><time>2026-05-01T13:33:15.805Z</time></trkpt><trkpt lat="43.460755" lon="13.1801537"><ele>168.0</ele><time>2026-05-01T13:33:16.805Z</time></trkpt><trkpt lat="43.4608024" lon="13.1800509"><ele>168.0</ele><time>2026-05-01T13:33:17.805Z</time></trkpt><trkpt lat="43.4608504" lon="13.1799388"><ele>168.0</ele><time>2026-05-01T13:33:18.804Z</time></trkpt><trkpt lat="43.4609008" lon="13.1798195"><ele>168.0</ele><time>2026-05-01T13:33:19.804Z</time></trkpt><trkpt lat="43.4609558" lon="13.1797095"><ele>168.0</ele><time>2026-05-01T13:33:20.804Z</time></trkpt><trkpt lat="43.461018" lon="13.1796164"><ele>168.0</ele><time>2026-05-01T13:33:21.805Z</time></trkpt><trkpt lat="43.4610976" lon="13.179531"><ele>168.0</ele><time>2026-05-01T13:33:22.804Z</time></trkpt><trkpt lat="43.4611856" lon="13.1794636"><ele>168.0</ele><time>2026-05-01T13:33:23.805Z</time></trkpt><trkpt lat="43.4612844" lon="13.1794059"><ele>168.0</ele><time>2026-05-01T13:33:24.805Z</time></trkpt><trkpt lat="43.4613889" lon="13.1793545"><ele>168.0</ele><time>2026-05-01T13:33:25.804Z</time></trkpt><trkpt lat="43.4614995" lon="13.1792985"><ele>168.0</ele><time>2026-05-01T13:33:26.804Z</time></trkpt><trkpt lat="43.4616146" lon="13.1792327"><ele>168.0</ele><time>2026-05-01T13:33:27.804Z</time></trkpt><trkpt lat="43.461727" lon="13.1791647"><ele>168.0</ele><time>2026-05-01T13:33:28.804Z</time></trkpt><trkpt lat="43.4618396" lon="13.1790838"><ele>168.0</ele><time>2026-05-01T13:33:29.804Z</time></trkpt><trkpt lat="43.461954" lon="13.1789881"><ele>168.0</ele><time>2026-05-01T13:33:30.804Z</time></trkpt><trkpt lat="43.4620634" lon="13.1788874"><ele>167.5</ele><time>2026-05-01T13:33:31.805Z</time></trkpt><trkpt lat="43.4621722" lon="13.1787846"><ele>167.0</ele><time>2026-05-01T13:33:32.804Z</time></trkpt><trkpt lat="43.4622769" lon="13.1786856"><ele>166.5</ele><time>2026-05-01T13:33:33.805Z</time></trkpt><trkpt lat="43.4623825" lon="13.1785881"><ele>166.0</ele><time>2026-05-01T13:33:34.805Z</time></trkpt><trkpt lat="43.4624888" lon="13.1784938"><ele>166.0</ele><time>2026-05-01T13:33:35.804Z</time></trkpt><trkpt lat="43.462591" lon="13.1784125"><ele>166.0</ele><time>2026-05-01T13:33:36.805Z</time></trkpt><trkpt lat="43.4626915" lon="13.1783412"><ele>166.0</ele><time>2026-05-01T13:33:37.804Z</time></trkpt><trkpt lat="43.4627998" lon="13.1782681"><ele>166.0</ele><time>2026-05-01T13:33:38.805Z</time></trkpt><trkpt lat="43.4629078" lon="13.1781999"><ele>165.5</ele><time>2026-05-01T13:33:39.805Z</time></trkpt><trkpt lat="43.4630151" lon="13.1781364"><ele>165.0</ele><time>2026-05-01T13:33:40.804Z</time></trkpt><trkpt lat="43.4631184" lon="13.1780801"><ele>164.5</ele><time>2026-05-01T13:33:41.805Z</time></trkpt><trkpt lat="43.463223" lon="13.1780314"><ele>164.0</ele><time>2026-05-01T13:33:42.804Z</time></trkpt><trkpt lat="43.4633314" lon="13.1779927"><ele>164.0</ele><time>2026-05-01T13:33:43.804Z</time></trkpt><trkpt lat="43.4634313" lon="13.1779667"><ele>164.0</ele><time>2026-05-01T13:33:44.804Z</time></trkpt><trkpt lat="43.4635269" lon="13.17795"><ele>164.0</ele><time>2026-05-01T13:33:45.805Z</time></trkpt><trkpt lat="43.4636253" lon="13.1779383"><ele>164.0</ele><time>2026-05-01T13:33:46.805Z</time></trkpt><trkpt lat="43.4637234" lon="13.1779418"><ele>164.0</ele><time>2026-05-01T13:33:47.804Z</time></trkpt><trkpt lat="43.4638239" lon="13.1779612"><ele>163.25</ele><time>2026-05-01T13:33:48.805Z</time></trkpt><trkpt lat="43.4639276" lon="13.1779688"><ele>162.5</ele><time>2026-05-01T13:33:49.804Z</time></trkpt><trkpt lat="43.4640435" lon="13.1779573"><ele>161.75</ele><time>2026-05-01T13:33:50.805Z</time></trkpt><trkpt lat="43.4641621" lon="13.1779265"><ele>161.0</ele><time>2026-05-01T13:33:51.804Z</time></trkpt><trkpt lat="43.4642818" lon="13.1778849"><ele>161.0</ele><time>2026-05-01T13:33:52.805Z</time></trkpt><trkpt lat="43.4644049" lon="13.1778405"><ele>161.0</ele><time>2026-05-01T13:33:53.805Z</time></trkpt><trkpt lat="43.4645311" lon="13.177797"><ele>161.0</ele><time>2026-05-01T13:33:54.805Z</time></trkpt><trkpt lat="43.4646585" lon="13.1777533"><ele>161.0</ele><time>2026-05-01T13:33:55.804Z</time></trkpt><trkpt lat="43.4647879" lon="13.1777119"><ele>161.0</ele><time>2026-05-01T13:33:56.805Z</time></trkpt><trkpt lat="43.4649128" lon="13.1776721"><ele>161.0</ele><time>2026-05-01T13:33:57.804Z</time></trkpt><trkpt lat="43.4650384" lon="13.177632"><ele>161.0</ele><time>2026-05-01T13:33:58.804Z</time></trkpt><trkpt lat="43.4651704" lon="13.177593"><ele>161.0</ele><time>2026-05-01T13:33:59.805Z</time></trkpt><trkpt lat="43.4652955" lon="13.1775568"><ele>161.0</ele><time>2026-05-01T13:34:00.805Z</time></trkpt><trkpt lat="43.4654256" lon="13.1775208"><ele>161.0</ele><time>2026-05-01T13:34:01.804Z</time></trkpt><trkpt lat="43.4655589" lon="13.1774898"><ele>161.0</ele><time>2026-05-01T13:34:02.805Z</time></trkpt><trkpt lat="43.4656872" lon="13.1774638"><ele>161.0</ele><time>2026-05-01T13:34:03.805Z</time></trkpt><trkpt lat="43.4658094" lon="13.1774395"><ele>159.5</ele><time>2026-05-01T13:34:04.804Z</time></trkpt><trkpt lat="43.4659337" lon="13.1774111"><ele>158.0</ele><time>2026-05-01T13:34:05.804Z</time></trkpt><trkpt lat="43.4660578" lon="13.1773817"><ele>156.5</ele><time>2026-05-01T13:34:06.804Z</time></trkpt><trkpt lat="43.466182" lon="13.1773531"><ele>155.0</ele><time>2026-05-01T13:34:07.805Z</time></trkpt><trkpt lat="43.4663057" lon="13.1773227"><ele>154.5</ele><time>2026-05-01T13:34:08.805Z</time></trkpt><trkpt lat="43.4664282" lon="13.1772935"><ele>154.0</ele><time>2026-05-01T13:34:09.805Z</time></trkpt><trkpt lat="43.4665552" lon="13.1772673"><ele>153.5</ele><time>2026-05-01T13:34:10.804Z</time></trkpt><trkpt lat="43.466679" lon="13.1772418"><ele>153.0</ele><time>2026-05-01T13:34:11.805Z</time></trkpt><trkpt lat="43.4668014" lon="13.177217"><ele>153.0</ele><time>2026-05-01T13:34:12.804Z</time></trkpt><trkpt lat="43.4669155" lon="13.1771897"><ele>153.0</ele><time>2026-05-01T13:34:13.805Z</time></trkpt><trkpt lat="43.4670292" lon="13.1771555"><ele>153.0</ele><time>2026-05-01T13:34:14.805Z</time></trkpt><trkpt lat="43.4671394" lon="13.1771077"><ele>153.0</ele><time>2026-05-01T13:34:15.806Z</time></trkpt><trkpt lat="43.4672409" lon="13.1770493"><ele>151.6</ele><time>2026-05-01T13:34:16.805Z</time></trkpt><trkpt lat="43.4673372" lon="13.1769865"><ele>150.20000000000002</ele><time>2026-05-01T13:34:17.806Z</time></trkpt><trkpt lat="43.4674328" lon="13.1769075"><ele>148.8</ele><time>2026-05-01T13:34:18.804Z</time></trkpt><trkpt lat="43.467526" lon="13.1768226"><ele>147.4</ele><time>2026-05-01T13:34:19.805Z</time></trkpt><trkpt lat="43.4676151" lon="13.176736"><ele>146.0</ele><time>2026-05-01T13:34:20.804Z</time></trkpt><trkpt lat="43.4677095" lon="13.1766409"><ele>146.0</ele><time>2026-05-01T13:34:21.805Z</time></trkpt><trkpt lat="43.4678058" lon="13.1765423"><ele>146.0</ele><time>2026-05-01T13:34:22.804Z</time></trkpt><trkpt lat="43.4679023" lon="13.176441"><ele>146.0</ele><time>2026-05-01T13:34:23.804Z</time></trkpt><trkpt lat="43.4679997" lon="13.1763387"><ele>146.0</ele><time>2026-05-01T13:34:24.803Z</time></trkpt><trkpt lat="43.4680957" lon="13.1762347"><ele>147.5</ele><time>2026-05-01T13:34:25.804Z</time></trkpt><trkpt lat="43.4681904" lon="13.1761318"><ele>149.0</ele><time>2026-05-01T13:34:26.804Z</time></trkpt><trkpt lat="43.4682841" lon="13.1760301"><ele>150.5</ele><time>2026-05-01T13:34:27.803Z</time></trkpt><trkpt lat="43.4683763" lon="13.1759274"><ele>152.0</ele><time>2026-05-01T13:34:28.803Z</time></trkpt><trkpt lat="43.4684634" lon="13.1758287"><ele>152.0</ele><time>2026-05-01T13:34:29.804Z</time></trkpt><trkpt lat="43.4685529" lon="13.1757316"><ele>152.0</ele><time>2026-05-01T13:34:30.803Z</time></trkpt><trkpt lat="43.4686406" lon="13.1756355"><ele>152.0</ele><time>2026-05-01T13:34:31.803Z</time></trkpt><trkpt lat="43.4687241" lon="13.1755504"><ele>152.0</ele><time>2026-05-01T13:34:32.804Z</time></trkpt><trkpt lat="43.4688063" lon="13.1754836"><ele>152.0</ele><time>2026-05-01T13:34:33.804Z</time></trkpt><trkpt lat="43.4689024" lon="13.1754366"><ele>151.2</ele><time>2026-05-01T13:34:34.804Z</time></trkpt><trkpt lat="43.4689993" lon="13.1754096"><ele>150.39999999999998</ele><time>2026-05-01T13:34:35.803Z</time></trkpt><trkpt lat="43.4690929" lon="13.1754031"><ele>149.60000000000002</ele><time>2026-05-01T13:34:36.804Z</time></trkpt><trkpt lat="43.4691902" lon="13.1754112"><ele>148.8</ele><time>2026-05-01T13:34:37.804Z</time></trkpt><trkpt lat="43.4692865" lon="13.1754288"><ele>148.0</ele><time>2026-05-01T13:34:38.804Z</time></trkpt><trkpt lat="43.4693883" lon="13.1754553"><ele>148.0</ele><time>2026-05-01T13:34:39.804Z</time></trkpt><trkpt lat="43.4694932" lon="13.1754869"><ele>148.0</ele><time>2026-05-01T13:34:40.804Z</time></trkpt><trkpt lat="43.4696051" lon="13.1755174"><ele>148.0</ele><time>2026-05-01T13:34:41.804Z</time></trkpt><trkpt lat="43.4697233" lon="13.1755466"><ele>148.0</ele><time>2026-05-01T13:34:42.803Z</time></trkpt><trkpt lat="43.4698451" lon="13.1755778"><ele>147.0</ele><time>2026-05-01T13:34:43.803Z</time></trkpt><trkpt lat="43.4699692" lon="13.1756096"><ele>146.0</ele><time>2026-05-01T13:34:44.804Z</time></trkpt><trkpt lat="43.4700931" lon="13.1756418"><ele>145.0</ele><time>2026-05-01T13:34:45.803Z</time></trkpt><trkpt lat="43.4702238" lon="13.1756766"><ele>144.0</ele><time>2026-05-01T13:34:46.804Z</time></trkpt><trkpt lat="43.4703644" lon="13.1757136"><ele>141.75</ele><time>2026-05-01T13:34:47.803Z</time></trkpt><trkpt lat="43.4705054" lon="13.1757475"><ele>139.5</ele><time>2026-05-01T13:34:48.804Z</time></trkpt><trkpt lat="43.4706462" lon="13.1757816"><ele>137.25</ele><time>2026-05-01T13:34:49.804Z</time></trkpt><trkpt lat="43.470797" lon="13.1758191"><ele>135.0</ele><time>2026-05-01T13:34:50.803Z</time></trkpt><trkpt lat="43.4709425" lon="13.1758579"><ele>135.0</ele><time>2026-05-01T13:34:51.804Z</time></trkpt><trkpt lat="43.4710822" lon="13.1758951"><ele>135.0</ele><time>2026-05-01T13:34:52.803Z</time></trkpt><trkpt lat="43.471227" lon="13.1759323"><ele>135.0</ele><time>2026-05-01T13:34:53.805Z</time></trkpt><trkpt lat="43.4713734" lon="13.175968"><ele>135.0</ele><time>2026-05-01T13:34:54.804Z</time></trkpt><trkpt lat="43.4715339" lon="13.1760078"><ele>133.0</ele><time>2026-05-01T13:34:55.804Z</time></trkpt><trkpt lat="43.4716988" lon="13.176051"><ele>131.0</ele><time>2026-05-01T13:34:56.803Z</time></trkpt><trkpt lat="43.4718836" lon="13.176097"><ele>129.0</ele><time>2026-05-01T13:34:57.803Z</time></trkpt><trkpt lat="43.4720924" lon="13.1761401"><ele>125.66666666666666</ele><time>2026-05-01T13:34:58.803Z</time></trkpt><trkpt lat="43.4723001" lon="13.1761831"><ele>122.33333333333333</ele><time>2026-05-01T13:34:59.804Z</time></trkpt><trkpt lat="43.4725134" lon="13.1762331"><ele>119.0</ele><time>2026-05-01T13:35:00.805Z</time></trkpt><trkpt lat="43.4727181" lon="13.1762857"><ele>119.0</ele><time>2026-05-01T13:35:01.803Z</time></trkpt><trkpt lat="43.4729184" lon="13.1763412"><ele>119.0</ele><time>2026-05-01T13:35:02.804Z</time></trkpt><trkpt lat="43.4731186" lon="13.1763975"><ele>119.0</ele><time>2026-05-01T13:35:03.804Z</time></trkpt><trkpt lat="43.4733071" lon="13.1764491"><ele>119.33333333333333</ele><time>2026-05-01T13:35:04.803Z</time></trkpt><trkpt lat="43.4734855" lon="13.1764948"><ele>119.66666666666666</ele><time>2026-05-01T13:35:05.803Z</time></trkpt><trkpt lat="43.4736716" lon="13.1765429"><ele>120.0</ele><time>2026-05-01T13:35:06.803Z</time></trkpt><trkpt lat="43.4738465" lon="13.1765884"><ele>117.33333333333334</ele><time>2026-05-01T13:35:07.803Z</time></trkpt><trkpt lat="43.4740183" lon="13.1766339"><ele>114.66666666666667</ele><time>2026-05-01T13:35:08.804Z</time></trkpt><trkpt lat="43.4741821" lon="13.176677"><ele>112.0</ele><time>2026-05-01T13:35:09.804Z</time></trkpt><trkpt lat="43.4743479" lon="13.1767203"><ele>112.0</ele><time>2026-05-01T13:35:10.804Z</time></trkpt><trkpt lat="43.4745102" lon="13.1767626"><ele>112.0</ele><time>2026-05-01T13:35:11.804Z</time></trkpt><trkpt lat="43.4746561" lon="13.1767979"><ele>112.0</ele><time>2026-05-01T13:35:12.804Z</time></trkpt><trkpt lat="43.4748017" lon="13.1768327"><ele>111.25</ele><time>2026-05-01T13:35:13.803Z</time></trkpt><trkpt lat="43.4749429" lon="13.1768704"><ele>110.5</ele><time>2026-05-01T13:35:14.803Z</time></trkpt><trkpt lat="43.4750685" lon="13.1769082"><ele>109.75</ele><time>2026-05-01T13:35:15.804Z</time></trkpt><trkpt lat="43.4751916" lon="13.1769448"><ele>109.0</ele><time>2026-05-01T13:35:16.804Z</time></trkpt><trkpt lat="43.4753082" lon="13.1769688"><ele>109.0</ele><time>2026-05-01T13:35:17.803Z</time></trkpt><trkpt lat="43.4754185" lon="13.1769638"><ele>109.0</ele><time>2026-05-01T13:35:18.803Z</time></trkpt><trkpt lat="43.4755261" lon="13.1769171"><ele>109.0</ele><time>2026-05-01T13:35:19.803Z</time></trkpt><trkpt lat="43.4756184" lon="13.176828"><ele>109.0</ele><time>2026-05-01T13:35:20.803Z</time></trkpt><trkpt lat="43.4756984" lon="13.1767128"><ele>107.25</ele><time>2026-05-01T13:35:21.804Z</time></trkpt><trkpt lat="43.4757778" lon="13.1765685"><ele>105.5</ele><time>2026-05-01T13:35:22.803Z</time></trkpt><trkpt lat="43.4758591" lon="13.1764156"><ele>103.75</ele><time>2026-05-01T13:35:23.804Z</time></trkpt><trkpt lat="43.475942" lon="13.1762663"><ele>102.0</ele><time>2026-05-01T13:35:24.804Z</time></trkpt><trkpt lat="43.4760281" lon="13.1761133"><ele>102.0</ele><time>2026-05-01T13:35:25.804Z</time></trkpt><trkpt lat="43.4761154" lon="13.1759575"><ele>102.0</ele><time>2026-05-01T13:35:26.803Z</time></trkpt><trkpt lat="43.4762001" lon="13.1758005"><ele>102.0</ele><time>2026-05-01T13:35:27.804Z</time></trkpt><trkpt lat="43.4762843" lon="13.1756445"><ele>102.0</ele><time>2026-05-01T13:35:28.804Z</time></trkpt><trkpt lat="43.4763673" lon="13.1754956"><ele>103.0</ele><time>2026-05-01T13:35:29.804Z</time></trkpt><trkpt lat="43.4764551" lon="13.1753398"><ele>104.0</ele><time>2026-05-01T13:35:30.804Z</time></trkpt><trkpt lat="43.4765455" lon="13.1751941"><ele>105.0</ele><time>2026-05-01T13:35:31.803Z</time></trkpt><trkpt lat="43.476646" lon="13.1750637"><ele>106.0</ele><time>2026-05-01T13:35:32.804Z</time></trkpt><trkpt lat="43.4767523" lon="13.1749524"><ele>106.5</ele><time>2026-05-01T13:35:33.804Z</time></trkpt><trkpt lat="43.4768638" lon="13.17485"><ele>107.0</ele><time>2026-05-01T13:35:34.804Z</time></trkpt><trkpt lat="43.4769742" lon="13.1747552"><ele>107.5</ele><time>2026-05-01T13:35:35.804Z</time></trkpt><trkpt lat="43.4770725" lon="13.174672"><ele>108.0</ele><time>2026-05-01T13:35:36.803Z</time></trkpt><trkpt lat="43.4771585" lon="13.174596"><ele>108.2</ele><time>2026-05-01T13:35:37.803Z</time></trkpt><trkpt lat="43.4772353" lon="13.1745268"><ele>108.4</ele><time>2026-05-01T13:35:38.804Z</time></trkpt><trkpt lat="43.4772983" lon="13.174473"><ele>108.60000000000001</ele><time>2026-05-01T13:35:39.804Z</time></trkpt><trkpt lat="43.4773741" lon="13.1744053"><ele>108.80000000000001</ele><time>2026-05-01T13:35:41.804Z</time></trkpt><trkpt lat="43.4773966" lon="13.1742971"><ele>109.0</ele><time>2026-05-01T13:35:44.804Z</time></trkpt><trkpt lat="43.4773279" lon="13.1741593"><ele>109.0</ele><time>2026-05-01T13:35:46.804Z</time></trkpt><trkpt lat="43.4772687" lon="13.1740878"><ele>109.0</ele><time>2026-05-01T13:35:47.804Z</time></trkpt><trkpt lat="43.4771998" lon="13.1740038"><ele>109.0</ele><time>2026-05-01T13:35:48.804Z</time></trkpt><trkpt lat="43.4771335" lon="13.1739112"><ele>109.0</ele><time>2026-05-01T13:35:49.803Z</time></trkpt><trkpt lat="43.4770634" lon="13.17381"><ele>109.0</ele><time>2026-05-01T13:35:50.804Z</time></trkpt><trkpt lat="43.476984" lon="13.1737038"><ele>108.75</ele><time>2026-05-01T13:35:51.804Z</time></trkpt><trkpt lat="43.4769013" lon="13.1735968"><ele>108.5</ele><time>2026-05-01T13:35:52.804Z</time></trkpt><trkpt lat="43.4768214" lon="13.1734882"><ele>108.25</ele><time>2026-05-01T13:35:53.803Z</time></trkpt><trkpt lat="43.4767368" lon="13.1733678"><ele>108.0</ele><time>2026-05-01T13:35:54.804Z</time></trkpt><trkpt lat="43.4766586" lon="13.1732405"><ele>108.0</ele><time>2026-05-01T13:35:55.804Z</time></trkpt><trkpt lat="43.4765911" lon="13.1731043"><ele>108.0</ele><time>2026-05-01T13:35:56.804Z</time></trkpt><trkpt lat="43.4765296" lon="13.1729531"><ele>108.0</ele><time>2026-05-01T13:35:57.803Z</time></trkpt><trkpt lat="43.4764756" lon="13.1728038"><ele>108.0</ele><time>2026-05-01T13:35:58.804Z</time></trkpt><trkpt lat="43.4764232" lon="13.1726512"><ele>108.0</ele><time>2026-05-01T13:35:59.804Z</time></trkpt><trkpt lat="43.4763736" lon="13.1725062"><ele>108.0</ele><time>2026-05-01T13:36:00.804Z</time></trkpt><trkpt lat="43.4763273" lon="13.1723641"><ele>108.0</ele><time>2026-05-01T13:36:01.804Z</time></trkpt><trkpt lat="43.4762747" lon="13.1722124"><ele>108.0</ele><time>2026-05-01T13:36:02.804Z</time></trkpt><trkpt lat="43.4762211" lon="13.1720683"><ele>108.2</ele><time>2026-05-01T13:36:03.803Z</time></trkpt><trkpt lat="43.4761703" lon="13.1719277"><ele>108.4</ele><time>2026-05-01T13:36:04.804Z</time></trkpt><trkpt lat="43.4761182" lon="13.1717983"><ele>108.60000000000001</ele><time>2026-05-01T13:36:05.804Z</time></trkpt><trkpt lat="43.4760562" lon="13.1716753"><ele>108.80000000000001</ele><time>2026-05-01T13:36:06.803Z</time></trkpt><trkpt lat="43.4759799" lon="13.1715648"><ele>109.0</ele><time>2026-05-01T13:36:07.803Z</time></trkpt><trkpt lat="43.4759002" lon="13.1714841"><ele>109.66666666666667</ele><time>2026-05-01T13:36:08.804Z</time></trkpt><trkpt lat="43.4758155" lon="13.1714226"><ele>110.33333333333334</ele><time>2026-05-01T13:36:09.804Z</time></trkpt><trkpt lat="43.4757325" lon="13.1713705"><ele>111.0</ele><time>2026-05-01T13:36:10.804Z</time></trkpt><trkpt lat="43.4756625" lon="13.171327"><ele>111.66666666666666</ele><time>2026-05-01T13:36:11.803Z</time></trkpt><trkpt lat="43.475605" lon="13.1712915"><ele>112.33333333333333</ele><time>2026-05-01T13:36:12.803Z</time></trkpt><trkpt lat="43.4754962" lon="13.1712752"><ele>113.0</ele><time>2026-05-01T13:36:14.803Z</time></trkpt><trkpt lat="43.4753954" lon="13.1712945"><ele>113.2</ele><time>2026-05-01T13:36:16.803Z</time></trkpt><trkpt lat="43.4752978" lon="13.1712932"><ele>113.4</ele><time>2026-05-01T13:36:18.803Z</time></trkpt><trkpt lat="43.4752033" lon="13.1712536"><ele>113.60000000000001</ele><time>2026-05-01T13:36:20.803Z</time></trkpt><trkpt lat="43.4750955" lon="13.1711834"><ele>113.80000000000001</ele><time>2026-05-01T13:36:22.804Z</time></trkpt><trkpt lat="43.4750294" lon="13.1711453"><ele>114.0</ele><time>2026-05-01T13:36:23.804Z</time></trkpt><trkpt lat="43.4749602" lon="13.1711079"><ele>114.0</ele><time>2026-05-01T13:36:24.803Z</time></trkpt><trkpt lat="43.4748905" lon="13.1710686"><ele>114.0</ele><time>2026-05-01T13:36:25.803Z</time></trkpt><trkpt lat="43.4748117" lon="13.1710265"><ele>114.0</ele><time>2026-05-01T13:36:26.804Z</time></trkpt><trkpt lat="43.4747348" lon="13.1709874"><ele>114.0</ele><time>2026-05-01T13:36:27.803Z</time></trkpt><trkpt lat="43.4746601" lon="13.1709522"><ele>114.0</ele><time>2026-05-01T13:36:28.803Z</time></trkpt><trkpt lat="43.4745812" lon="13.1709176"><ele>114.0</ele><time>2026-05-01T13:36:29.804Z</time></trkpt><trkpt lat="43.4745001" lon="13.1708828"><ele>114.33333333333333</ele><time>2026-05-01T13:36:30.803Z</time></trkpt><trkpt lat="43.4744171" lon="13.1708474"><ele>114.66666666666666</ele><time>2026-05-01T13:36:31.804Z</time></trkpt><trkpt lat="43.474338" lon="13.170817"><ele>115.0</ele><time>2026-05-01T13:36:32.804Z</time></trkpt><trkpt lat="43.4742585" lon="13.1707998"><ele>115.33333333333333</ele><time>2026-05-01T13:36:33.804Z</time></trkpt><trkpt lat="43.4741751" lon="13.1707981"><ele>115.66666666666666</ele><time>2026-05-01T13:36:34.804Z</time></trkpt><trkpt lat="43.4740957" lon="13.1708131"><ele>116.0</ele><time>2026-05-01T13:36:35.804Z</time></trkpt><trkpt lat="43.4740186" lon="13.1708347"><ele>115.99999999999999</ele><time>2026-05-01T13:36:36.804Z</time></trkpt><trkpt lat="43.4739428" lon="13.1708585"><ele>116.0</ele><time>2026-05-01T13:36:37.803Z</time></trkpt><trkpt lat="43.4738641" lon="13.170884"><ele>116.0</ele><time>2026-05-01T13:36:38.803Z</time></trkpt><trkpt lat="43.4737819" lon="13.1709072"><ele>116.0</ele><time>2026-05-01T13:36:39.803Z</time></trkpt><trkpt lat="43.4736991" lon="13.1709265"><ele>115.99999999999999</ele><time>2026-05-01T13:36:40.804Z</time></trkpt><trkpt lat="43.4736217" lon="13.1709437"><ele>116.0</ele><time>2026-05-01T13:36:41.803Z</time></trkpt><trkpt lat="43.4735388" lon="13.1709597"><ele>115.83333333333333</ele><time>2026-05-01T13:36:42.803Z</time></trkpt><trkpt lat="43.4734581" lon="13.1709699"><ele>115.66666666666666</ele><time>2026-05-01T13:36:43.804Z</time></trkpt><trkpt lat="43.4733763" lon="13.1709721"><ele>115.5</ele><time>2026-05-01T13:36:44.804Z</time></trkpt><trkpt lat="43.4732987" lon="13.170965"><ele>115.33333333333334</ele><time>2026-05-01T13:36:45.804Z</time></trkpt><trkpt lat="43.4732248" lon="13.17095"><ele>115.16666666666667</ele><time>2026-05-01T13:36:46.804Z</time></trkpt><trkpt lat="43.4731469" lon="13.1709231"><ele>115.0</ele><time>2026-05-01T13:36:47.804Z</time></trkpt><trkpt lat="43.4730749" lon="13.1708854"><ele>115.00000000000001</ele><time>2026-05-01T13:36:48.804Z</time></trkpt><trkpt lat="43.4730001" lon="13.1708347"><ele>115.0</ele><time>2026-05-01T13:36:49.805Z</time></trkpt><trkpt lat="43.4729271" lon="13.1707793"><ele>115.0</ele><time>2026-05-01T13:36:50.804Z</time></trkpt><trkpt lat="43.4728572" lon="13.1707179"><ele>115.0</ele><time>2026-05-01T13:36:51.804Z</time></trkpt><trkpt lat="43.4727905" lon="13.1706526"><ele>115.00000000000001</ele><time>2026-05-01T13:36:52.804Z</time></trkpt><trkpt lat="43.472726" lon="13.1705864"><ele>115.0</ele><time>2026-05-01T13:36:53.804Z</time></trkpt><trkpt lat="43.4726592" lon="13.1705158"><ele>115.66666666666667</ele><time>2026-05-01T13:36:54.804Z</time></trkpt><trkpt lat="43.4725907" lon="13.1704396"><ele>116.33333333333334</ele><time>2026-05-01T13:36:55.804Z</time></trkpt><trkpt lat="43.4725269" lon="13.1703629"><ele>117.0</ele><time>2026-05-01T13:36:56.803Z</time></trkpt><trkpt lat="43.4724666" lon="13.1702842"><ele>117.66666666666666</ele><time>2026-05-01T13:36:57.804Z</time></trkpt><trkpt lat="43.4724008" lon="13.1702013"><ele>118.33333333333333</ele><time>2026-05-01T13:36:58.803Z</time></trkpt><trkpt lat="43.472336" lon="13.1701215"><ele>119.0</ele><time>2026-05-01T13:36:59.804Z</time></trkpt><trkpt lat="43.4722712" lon="13.1700393"><ele>119.0</ele><time>2026-05-01T13:37:00.804Z</time></trkpt><trkpt lat="43.4722069" lon="13.1699616"><ele>119.0</ele><time>2026-05-01T13:37:01.804Z</time></trkpt><trkpt lat="43.472138" lon="13.1698804"><ele>119.0</ele><time>2026-05-01T13:37:02.803Z</time></trkpt><trkpt lat="43.4720666" lon="13.1697968"><ele>119.0</ele><time>2026-05-01T13:37:03.804Z</time></trkpt><trkpt lat="43.4719956" lon="13.1697182"><ele>119.0</ele><time>2026-05-01T13:37:04.804Z</time></trkpt><trkpt lat="43.4719227" lon="13.1696471"><ele>119.99999999999999</ele><time>2026-05-01T13:37:05.803Z</time></trkpt><trkpt lat="43.4718499" lon="13.1695808"><ele>121.0</ele><time>2026-05-01T13:37:06.803Z</time></trkpt><trkpt lat="43.47178" lon="13.1695207"><ele>122.0</ele><time>2026-05-01T13:37:07.804Z</time></trkpt><trkpt lat="43.4717128" lon="13.1694696"><ele>123.0</ele><time>2026-05-01T13:37:08.803Z</time></trkpt><trkpt lat="43.4716464" lon="13.1694243"><ele>123.99999999999999</ele><time>2026-05-01T13:37:09.804Z</time></trkpt><trkpt lat="43.4715829" lon="13.1693841"><ele>125.0</ele><time>2026-05-01T13:37:10.804Z</time></trkpt><trkpt lat="43.4715117" lon="13.1693418"><ele>124.99999999999999</ele><time>2026-05-01T13:37:11.804Z</time></trkpt><trkpt lat="43.4714429" lon="13.169304"><ele>125.0</ele><time>2026-05-01T13:37:12.804Z</time></trkpt><trkpt lat="43.4713708" lon="13.1692676"><ele>125.0</ele><time>2026-05-01T13:37:13.803Z</time></trkpt><trkpt lat="43.4712986" lon="13.1692279"><ele>125.0</ele><time>2026-05-01T13:37:14.804Z</time></trkpt><trkpt lat="43.4712297" lon="13.1691822"><ele>124.99999999999999</ele><time>2026-05-01T13:37:15.804Z</time></trkpt><trkpt lat="43.4711644" lon="13.1691292"><ele>125.0</ele><time>2026-05-01T13:37:16.803Z</time></trkpt><trkpt lat="43.4711014" lon="13.1690756"><ele>126.33333333333333</ele><time>2026-05-01T13:37:17.803Z</time></trkpt><trkpt lat="43.4710371" lon="13.1690226"><ele>127.66666666666666</ele><time>2026-05-01T13:37:18.804Z</time></trkpt><trkpt lat="43.4709731" lon="13.1689621"><ele>129.0</ele><time>2026-05-01T13:37:19.803Z</time></trkpt><trkpt lat="43.4709151" lon="13.1688911"><ele>130.33333333333334</ele><time>2026-05-01T13:37:20.803Z</time></trkpt><trkpt lat="43.4708644" lon="13.1688182"><ele>131.66666666666669</ele><time>2026-05-01T13:37:21.804Z</time></trkpt><trkpt lat="43.4708136" lon="13.16874"><ele>133.0</ele><time>2026-05-01T13:37:22.804Z</time></trkpt><trkpt lat="43.4707619" lon="13.1686655"><ele>133.0</ele><time>2026-05-01T13:37:23.804Z</time></trkpt><trkpt lat="43.4707103" lon="13.1685963"><ele>133.0</ele><time>2026-05-01T13:37:24.804Z</time></trkpt><trkpt lat="43.4706529" lon="13.1685242"><ele>133.0</ele><time>2026-05-01T13:37:25.803Z</time></trkpt><trkpt lat="43.470594" lon="13.1684527"><ele>133.0</ele><time>2026-05-01T13:37:26.803Z</time></trkpt><trkpt lat="43.4705311" lon="13.1683814"><ele>133.0</ele><time>2026-05-01T13:37:27.804Z</time></trkpt><trkpt lat="43.4704672" lon="13.1683196"><ele>133.0</ele><time>2026-05-01T13:37:28.803Z</time></trkpt><trkpt lat="43.4703995" lon="13.1682582"><ele>134.0</ele><time>2026-05-01T13:37:29.803Z</time></trkpt><trkpt lat="43.4703283" lon="13.1682031"><ele>135.0</ele><time>2026-05-01T13:37:30.803Z</time></trkpt><trkpt lat="43.470259" lon="13.1681527"><ele>136.0</ele><time>2026-05-01T13:37:31.804Z</time></trkpt><trkpt lat="43.4701882" lon="13.1681032"><ele>137.0</ele><time>2026-05-01T13:37:32.803Z</time></trkpt><trkpt lat="43.4701176" lon="13.1680543"><ele>138.0</ele><time>2026-05-01T13:37:33.803Z</time></trkpt><trkpt lat="43.4700412" lon="13.1680039"><ele>139.0</ele><time>2026-05-01T13:37:34.803Z</time></trkpt><trkpt lat="43.4699615" lon="13.1679528"><ele>139.0</ele><time>2026-05-01T13:37:35.803Z</time></trkpt><trkpt lat="43.4698827" lon="13.1679007"><ele>139.0</ele><time>2026-05-01T13:37:36.804Z</time></trkpt><trkpt lat="43.4698063" lon="13.1678484"><ele>139.0</ele><time>2026-05-01T13:37:37.803Z</time></trkpt><trkpt lat="43.4697275" lon="13.1677866"><ele>139.0</ele><time>2026-05-01T13:37:38.803Z</time></trkpt><trkpt lat="43.4696542" lon="13.1677211"><ele>139.0</ele><time>2026-05-01T13:37:39.804Z</time></trkpt><trkpt lat="43.4695868" lon="13.1676522"><ele>139.0</ele><time>2026-05-01T13:37:40.804Z</time></trkpt><trkpt lat="43.4695198" lon="13.1675693"><ele>138.4</ele><time>2026-05-01T13:37:41.805Z</time></trkpt><trkpt lat="43.4694534" lon="13.1674734"><ele>137.8</ele><time>2026-05-01T13:37:42.804Z</time></trkpt><trkpt lat="43.469387" lon="13.1673682"><ele>137.2</ele><time>2026-05-01T13:37:43.803Z</time></trkpt><trkpt lat="43.4693234" lon="13.1672662"><ele>136.6</ele><time>2026-05-01T13:37:44.804Z</time></trkpt><trkpt lat="43.4692537" lon="13.1671631"><ele>136.0</ele><time>2026-05-01T13:37:45.803Z</time></trkpt><trkpt lat="43.4691758" lon="13.1670584"><ele>136.0</ele><time>2026-05-01T13:37:46.804Z</time></trkpt><trkpt lat="43.4691024" lon="13.1669651"><ele>136.0</ele><time>2026-05-01T13:37:47.803Z</time></trkpt><trkpt lat="43.469029" lon="13.1668778"><ele>136.0</ele><time>2026-05-01T13:37:48.804Z</time></trkpt><trkpt lat="43.4689596" lon="13.1667982"><ele>136.0</ele><time>2026-05-01T13:37:49.803Z</time></trkpt><trkpt lat="43.4688919" lon="13.1667184"><ele>136.0</ele><time>2026-05-01T13:37:50.803Z</time></trkpt><trkpt lat="43.4688239" lon="13.1666442"><ele>135.83333333333334</ele><time>2026-05-01T13:37:51.803Z</time></trkpt><trkpt lat="43.4687589" lon="13.1665744"><ele>135.66666666666669</ele><time>2026-05-01T13:37:52.803Z</time></trkpt><trkpt lat="43.4686978" lon="13.1665051"><ele>135.5</ele><time>2026-05-01T13:37:53.804Z</time></trkpt><trkpt lat="43.4686328" lon="13.1664346"><ele>135.33333333333334</ele><time>2026-05-01T13:37:54.804Z</time></trkpt><trkpt lat="43.4685719" lon="13.1663631"><ele>135.16666666666666</ele><time>2026-05-01T13:37:55.803Z</time></trkpt><trkpt lat="43.4685122" lon="13.1662919"><ele>135.0</ele><time>2026-05-01T13:37:56.803Z</time></trkpt><trkpt lat="43.4684551" lon="13.1662233"><ele>135.0</ele><time>2026-05-01T13:37:57.804Z</time></trkpt><trkpt lat="43.4683956" lon="13.166153"><ele>135.0</ele><time>2026-05-01T13:37:58.803Z</time></trkpt><trkpt lat="43.4683333" lon="13.1660798"><ele>135.0</ele><time>2026-05-01T13:37:59.803Z</time></trkpt><trkpt lat="43.4682748" lon="13.1660096"><ele>135.0</ele><time>2026-05-01T13:38:00.804Z</time></trkpt><trkpt lat="43.4682166" lon="13.165934"><ele>135.0</ele><time>2026-05-01T13:38:01.804Z</time></trkpt><trkpt lat="43.468159" lon="13.1658545"><ele>135.0</ele><time>2026-05-01T13:38:02.803Z</time></trkpt><trkpt lat="43.4681035" lon="13.1657758"><ele>135.0</ele><time>2026-05-01T13:38:03.804Z</time></trkpt><trkpt lat="43.4680489" lon="13.1656992"><ele>135.0</ele><time>2026-05-01T13:38:04.804Z</time></trkpt><trkpt lat="43.467992" lon="13.1656131"><ele>135.0</ele><time>2026-05-01T13:38:05.803Z</time></trkpt><trkpt lat="43.4679355" lon="13.1655283"><ele>135.0</ele><time>2026-05-01T13:38:06.804Z</time></trkpt><trkpt lat="43.4678774" lon="13.1654353"><ele>135.0</ele><time>2026-05-01T13:38:07.803Z</time></trkpt><trkpt lat="43.4678215" lon="13.1653457"><ele>135.0</ele><time>2026-05-01T13:38:08.804Z</time></trkpt><trkpt lat="43.467768" lon="13.1652575"><ele>134.5</ele><time>2026-05-01T13:38:09.804Z</time></trkpt><trkpt lat="43.4677152" lon="13.1651642"><ele>134.0</ele><time>2026-05-01T13:38:10.803Z</time></trkpt><trkpt lat="43.4676665" lon="13.1650748"><ele>133.5</ele><time>2026-05-01T13:38:11.803Z</time></trkpt><trkpt lat="43.4676197" lon="13.1649877"><ele>133.0</ele><time>2026-05-01T13:38:12.804Z</time></trkpt><trkpt lat="43.4675777" lon="13.1649032"><ele>132.5</ele><time>2026-05-01T13:38:13.803Z</time></trkpt><trkpt lat="43.4675387" lon="13.1648119"><ele>132.0</ele><time>2026-05-01T13:38:14.803Z</time></trkpt><trkpt lat="43.4675021" lon="13.164715"><ele>133.0</ele><time>2026-05-01T13:38:15.804Z</time></trkpt><trkpt lat="43.4674719" lon="13.1646183"><ele>134.0</ele><time>2026-05-01T13:38:16.803Z</time></trkpt><trkpt lat="43.4674452" lon="13.1645198"><ele>135.0</ele><time>2026-05-01T13:38:17.803Z</time></trkpt><trkpt lat="43.467423" lon="13.164415"><ele>136.0</ele><time>2026-05-01T13:38:18.804Z</time></trkpt><trkpt lat="43.4674015" lon="13.1643122"><ele>137.0</ele><time>2026-05-01T13:38:19.803Z</time></trkpt><trkpt lat="43.4673774" lon="13.1642051"><ele>138.0</ele><time>2026-05-01T13:38:20.804Z</time></trkpt><trkpt lat="43.4673468" lon="13.1640888"><ele>140.0</ele><time>2026-05-01T13:38:21.804Z</time></trkpt><trkpt lat="43.4673137" lon="13.1639634"><ele>142.0</ele><time>2026-05-01T13:38:22.803Z</time></trkpt><trkpt lat="43.4672791" lon="13.1638368"><ele>144.0</ele><time>2026-05-01T13:38:23.804Z</time></trkpt><trkpt lat="43.4672401" lon="13.1637197"><ele>146.0</ele><time>2026-05-01T13:38:24.803Z</time></trkpt><trkpt lat="43.4671972" lon="13.1635994"><ele>148.0</ele><time>2026-05-01T13:38:25.804Z</time></trkpt><trkpt lat="43.467154" lon="13.163479"><ele>148.0</ele><time>2026-05-01T13:38:26.804Z</time></trkpt><trkpt lat="43.467113" lon="13.1633677"><ele>148.0</ele><time>2026-05-01T13:38:27.805Z</time></trkpt><trkpt lat="43.4670748" lon="13.1632602"><ele>148.0</ele><time>2026-05-01T13:38:28.804Z</time></trkpt><trkpt lat="43.4670382" lon="13.1631607"><ele>148.0</ele><time>2026-05-01T13:38:29.804Z</time></trkpt><trkpt lat="43.4670011" lon="13.1630577"><ele>148.0</ele><time>2026-05-01T13:38:30.803Z</time></trkpt><trkpt lat="43.4669643" lon="13.1629515"><ele>148.0</ele><time>2026-05-01T13:38:31.803Z</time></trkpt><trkpt lat="43.4669235" lon="13.1628564"><ele>148.57142857142858</ele><time>2026-05-01T13:38:32.803Z</time></trkpt><trkpt lat="43.4668709" lon="13.1627726"><ele>149.14285714285714</ele><time>2026-05-01T13:38:33.804Z</time></trkpt><trkpt lat="43.4668124" lon="13.1627047"><ele>149.71428571428572</ele><time>2026-05-01T13:38:34.804Z</time></trkpt><trkpt lat="43.4667567" lon="13.1626505"><ele>150.28571428571428</ele><time>2026-05-01T13:38:35.804Z</time></trkpt><trkpt lat="43.4667033" lon="13.1625975"><ele>150.85714285714286</ele><time>2026-05-01T13:38:36.803Z</time></trkpt><trkpt lat="43.4666503" lon="13.1625452"><ele>151.42857142857142</ele><time>2026-05-01T13:38:37.803Z</time></trkpt><trkpt lat="43.4665945" lon="13.1624883"><ele>152.0</ele><time>2026-05-01T13:38:38.804Z</time></trkpt><trkpt lat="43.4665333" lon="13.1624209"><ele>151.66666666666666</ele><time>2026-05-01T13:38:39.804Z</time></trkpt><trkpt lat="43.4664726" lon="13.1623521"><ele>151.33333333333331</ele><time>2026-05-01T13:38:40.804Z</time></trkpt><trkpt lat="43.4664092" lon="13.1622797"><ele>151.0</ele><time>2026-05-01T13:38:41.804Z</time></trkpt><trkpt lat="43.4663402" lon="13.1622062"><ele>150.66666666666666</ele><time>2026-05-01T13:38:42.804Z</time></trkpt><trkpt lat="43.4662751" lon="13.1621323"><ele>150.33333333333334</ele><time>2026-05-01T13:38:43.804Z</time></trkpt><trkpt lat="43.4662147" lon="13.1620596"><ele>150.0</ele><time>2026-05-01T13:38:44.804Z</time></trkpt><trkpt lat="43.4661582" lon="13.1619906"><ele>150.0</ele><time>2026-05-01T13:38:45.803Z</time></trkpt><trkpt lat="43.466104" lon="13.161924"><ele>150.0</ele><time>2026-05-01T13:38:46.805Z</time></trkpt><trkpt lat="43.4660502" lon="13.1618599"><ele>150.0</ele><time>2026-05-01T13:38:47.804Z</time></trkpt><trkpt lat="43.4659612" lon="13.1617473"><ele>150.0</ele><time>2026-05-01T13:38:49.805Z</time></trkpt><trkpt lat="43.4658766" lon="13.1616398"><ele>150.0</ele><time>2026-05-01T13:38:51.804Z</time></trkpt><trkpt lat="43.4657892" lon="13.1615162"><ele>150.42857142857142</ele><time>2026-05-01T13:38:53.804Z</time></trkpt><trkpt lat="43.4657491" lon="13.161435"><ele>150.85714285714286</ele><time>2026-05-01T13:38:54.804Z</time></trkpt><trkpt lat="43.4657145" lon="13.1613414"><ele>151.28571428571428</ele><time>2026-05-01T13:38:55.803Z</time></trkpt><trkpt lat="43.4656863" lon="13.161252"><ele>151.71428571428572</ele><time>2026-05-01T13:38:56.804Z</time></trkpt><trkpt lat="43.465659" lon="13.1611539"><ele>152.14285714285714</ele><time>2026-05-01T13:38:57.803Z</time></trkpt><trkpt lat="43.4656379" lon="13.1610527"><ele>152.57142857142856</ele><time>2026-05-01T13:38:58.803Z</time></trkpt><trkpt lat="43.4656193" lon="13.160952"><ele>153.0</ele><time>2026-05-01T13:38:59.803Z</time></trkpt><trkpt lat="43.4656059" lon="13.1608505"><ele>153.0</ele><time>2026-05-01T13:39:00.804Z</time></trkpt><trkpt lat="43.4655973" lon="13.1607498"><ele>153.0</ele><time>2026-05-01T13:39:01.805Z</time></trkpt><trkpt lat="43.4655868" lon="13.1606429"><ele>153.0</ele><time>2026-05-01T13:39:02.804Z</time></trkpt><trkpt lat="43.4655748" lon="13.160532"><ele>153.0</ele><time>2026-05-01T13:39:03.804Z</time></trkpt><trkpt lat="43.4655648" lon="13.1604229"><ele>153.0</ele><time>2026-05-01T13:39:04.805Z</time></trkpt><trkpt lat="43.4655604" lon="13.1603123"><ele>153.0</ele><time>2026-05-01T13:39:05.803Z</time></trkpt><trkpt lat="43.4655603" lon="13.1602"><ele>152.71428571428572</ele><time>2026-05-01T13:39:06.804Z</time></trkpt><trkpt lat="43.4655665" lon="13.1600952"><ele>152.42857142857144</ele><time>2026-05-01T13:39:07.803Z</time></trkpt><trkpt lat="43.4655724" lon="13.1599944"><ele>152.14285714285717</ele><time>2026-05-01T13:39:08.804Z</time></trkpt><trkpt lat="43.4655734" lon="13.1598987"><ele>151.85714285714286</ele><time>2026-05-01T13:39:09.803Z</time></trkpt><trkpt lat="43.4655698" lon="13.1598004"><ele>151.57142857142858</ele><time>2026-05-01T13:39:10.803Z</time></trkpt><trkpt lat="43.4655569" lon="13.1596989"><ele>151.2857142857143</ele><time>2026-05-01T13:39:11.803Z</time></trkpt><trkpt lat="43.4655396" lon="13.1596032"><ele>151.0</ele><time>2026-05-01T13:39:12.803Z</time></trkpt><trkpt lat="43.4655237" lon="13.1595054"><ele>150.00000000000003</ele><time>2026-05-01T13:39:13.804Z</time></trkpt><trkpt lat="43.4655027" lon="13.1594038"><ele>149.0</ele><time>2026-05-01T13:39:14.804Z</time></trkpt><trkpt lat="43.4654789" lon="13.1593147"><ele>148.0</ele><time>2026-05-01T13:39:15.804Z</time></trkpt><trkpt lat="43.4654493" lon="13.1592244"><ele>147.0</ele><time>2026-05-01T13:39:16.804Z</time></trkpt><trkpt lat="43.4654116" lon="13.1591372"><ele>146.0</ele><time>2026-05-01T13:39:17.804Z</time></trkpt><trkpt lat="43.4653688" lon="13.1590552"><ele>145.00000000000003</ele><time>2026-05-01T13:39:18.803Z</time></trkpt><trkpt lat="43.4653184" lon="13.1589824"><ele>144.0</ele><time>2026-05-01T13:39:19.804Z</time></trkpt><trkpt lat="43.4652601" lon="13.158922"><ele>141.6</ele><time>2026-05-01T13:39:20.805Z</time></trkpt><trkpt lat="43.465193" lon="13.1588716"><ele>139.2</ele><time>2026-05-01T13:39:21.804Z</time></trkpt><trkpt lat="43.4651085" lon="13.1588206"><ele>136.79999999999998</ele><time>2026-05-01T13:39:22.804Z</time></trkpt><trkpt lat="43.4650187" lon="13.1587682"><ele>134.4</ele><time>2026-05-01T13:39:23.804Z</time></trkpt><trkpt lat="43.4649297" lon="13.1587162"><ele>132.0</ele><time>2026-05-01T13:39:24.803Z</time></trkpt><trkpt lat="43.4648454" lon="13.1586639"><ele>132.0</ele><time>2026-05-01T13:39:25.804Z</time></trkpt><trkpt lat="43.4647627" lon="13.1586113"><ele>132.0</ele><time>2026-05-01T13:39:26.804Z</time></trkpt><trkpt lat="43.4646841" lon="13.1585535"><ele>132.0</ele><time>2026-05-01T13:39:27.804Z</time></trkpt><trkpt lat="43.4646165" lon="13.1584877"><ele>132.0</ele><time>2026-05-01T13:39:28.804Z</time></trkpt><trkpt lat="43.4645584" lon="13.1584085"><ele>132.0</ele><time>2026-05-01T13:39:29.804Z</time></trkpt><trkpt lat="43.4645153" lon="13.1583109"><ele>132.0</ele><time>2026-05-01T13:39:30.804Z</time></trkpt><trkpt lat="43.4644934" lon="13.1582006"><ele>131.4</ele><time>2026-05-01T13:39:31.804Z</time></trkpt><trkpt lat="43.4644872" lon="13.1580715"><ele>130.79999999999998</ele><time>2026-05-01T13:39:32.804Z</time></trkpt><trkpt lat="43.4644912" lon="13.1579209"><ele>130.2</ele><time>2026-05-01T13:39:33.803Z</time></trkpt><trkpt lat="43.4644932" lon="13.1577914"><ele>129.6</ele><time>2026-05-01T13:39:34.804Z</time></trkpt><trkpt lat="43.464486" lon="13.1576547"><ele>129.0</ele><time>2026-05-01T13:39:35.803Z</time></trkpt><trkpt lat="43.4632826" lon="13.1537319"><ele>130.2</ele><time>2026-05-01T13:40:05.802Z</time></trkpt><trkpt lat="43.4632597" lon="13.1536185"><ele>131.4</ele><time>2026-05-01T13:40:06.803Z</time></trkpt><trkpt lat="43.463232" lon="13.1534904"><ele>132.6</ele><time>2026-05-01T13:40:07.802Z</time></trkpt><trkpt lat="43.4632063" lon="13.1533607"><ele>133.8</ele><time>2026-05-01T13:40:08.803Z</time></trkpt><trkpt lat="43.4631899" lon="13.1532317"><ele>135.0</ele><time>2026-05-01T13:40:09.802Z</time></trkpt><trkpt lat="43.4631706" lon="13.1531117"><ele>137.0</ele><time>2026-05-01T13:40:10.802Z</time></trkpt><trkpt lat="43.463149" lon="13.1530072"><ele>137.0</ele><time>2026-05-01T13:40:11.802Z</time></trkpt><trkpt lat="43.4631324" lon="13.1529115"><ele>137.0</ele><time>2026-05-01T13:40:12.803Z</time></trkpt><trkpt lat="43.4630961" lon="13.1527699"><ele>137.0</ele><time>2026-05-01T13:40:14.802Z</time></trkpt><trkpt lat="43.463064" lon="13.1526717"><ele>137.0</ele><time>2026-05-01T13:40:16.803Z</time></trkpt></trkseg><trkseg><trkpt lat="43.4630925" lon="13.1525203"><ele>137.0</ele><time>2026-05-01T14:06:02.802Z</time></trkpt><trkpt lat="43.4631305" lon="13.1524303"><ele>137.0</ele><time>2026-05-01T14:06:04.803Z</time></trkpt><trkpt lat="43.463204" lon="13.1523632"><ele>137.0</ele><time>2026-05-01T14:06:06.803Z</time></trkpt><trkpt lat="43.4632777" lon="13.1522925"><ele>137.0</ele><time>2026-05-01T14:06:08.803Z</time></trkpt><trkpt lat="43.4633535" lon="13.1522254"><ele>137.0</ele><time>2026-05-01T14:06:10.802Z</time></trkpt><trkpt lat="43.4634171" lon="13.1521662"><ele>137.0</ele><time>2026-05-01T14:06:12.803Z</time></trkpt><trkpt lat="43.4634793" lon="13.1521017"><ele>137.79999999999998</ele><time>2026-05-01T14:06:14.803Z</time></trkpt><trkpt lat="43.4635503" lon="13.1520326"><ele>138.6</ele><time>2026-05-01T14:06:16.802Z</time></trkpt><trkpt lat="43.4636225" lon="13.1519608"><ele>139.39999999999998</ele><time>2026-05-01T14:06:18.804Z</time></trkpt><trkpt lat="43.4636949" lon="13.1518882"><ele>140.2</ele><time>2026-05-01T14:06:20.804Z</time></trkpt><trkpt lat="43.4637941" lon="13.1517915"><ele>141.0</ele><time>2026-05-01T14:06:22.804Z</time></trkpt><trkpt lat="43.4638517" lon="13.1517323"><ele>142.16666666666666</ele><time>2026-05-01T14:06:23.803Z</time></trkpt><trkpt lat="43.4639038" lon="13.15168"><ele>143.33333333333334</ele><time>2026-05-01T14:06:24.803Z</time></trkpt><trkpt lat="43.4640008" lon="13.151589"><ele>144.5</ele><time>2026-05-01T14:06:26.803Z</time></trkpt><trkpt lat="43.4640653" lon="13.1515139"><ele>145.66666666666669</ele><time>2026-05-01T14:06:28.803Z</time></trkpt><trkpt lat="43.4641024" lon="13.151412"><ele>146.83333333333334</ele><time>2026-05-01T14:06:30.803Z</time></trkpt><trkpt lat="43.4641153" lon="13.1512884"><ele>148.0</ele><time>2026-05-01T14:06:32.804Z</time></trkpt><trkpt lat="43.4641239" lon="13.1511475"><ele>149.4</ele><time>2026-05-01T14:06:34.803Z</time></trkpt><trkpt lat="43.4641368" lon="13.1510045"><ele>150.8</ele><time>2026-05-01T14:06:36.803Z</time></trkpt><trkpt lat="43.4641505" lon="13.1508586"><ele>152.2</ele><time>2026-05-01T14:06:38.803Z</time></trkpt><trkpt lat="43.4641685" lon="13.1507158"><ele>153.6</ele><time>2026-05-01T14:06:40.802Z</time></trkpt><trkpt lat="43.4641841" lon="13.1505599"><ele>155.0</ele><time>2026-05-01T14:06:42.803Z</time></trkpt><trkpt lat="43.4641973" lon="13.1503807"><ele>157.14285714285714</ele><time>2026-05-01T14:06:44.803Z</time></trkpt><trkpt lat="43.4642082" lon="13.1502876"><ele>159.28571428571428</ele><time>2026-05-01T14:06:45.803Z</time></trkpt><trkpt lat="43.4642165" lon="13.1501933"><ele>161.42857142857144</ele><time>2026-05-01T14:06:46.803Z</time></trkpt><trkpt lat="43.4642246" lon="13.1501025"><ele>163.57142857142856</ele><time>2026-05-01T14:06:47.802Z</time></trkpt><trkpt lat="43.464234" lon="13.150009"><ele>165.7142857142857</ele><time>2026-05-01T14:06:48.803Z</time></trkpt><trkpt lat="43.4642472" lon="13.1499114"><ele>167.85714285714286</ele><time>2026-05-01T14:06:49.802Z</time></trkpt><trkpt lat="43.4642585" lon="13.1498163"><ele>170.0</ele><time>2026-05-01T14:06:50.802Z</time></trkpt><trkpt lat="43.4642667" lon="13.1497167"><ele>172.0</ele><time>2026-05-01T14:06:51.803Z</time></trkpt><trkpt lat="43.4642719" lon="13.1496138"><ele>174.0</ele><time>2026-05-01T14:06:52.803Z</time></trkpt><trkpt lat="43.4642791" lon="13.1495161"><ele>176.0</ele><time>2026-05-01T14:06:53.802Z</time></trkpt><trkpt lat="43.4642849" lon="13.1494232"><ele>178.0</ele><time>2026-05-01T14:06:54.803Z</time></trkpt><trkpt lat="43.4642929" lon="13.1493234"><ele>180.0</ele><time>2026-05-01T14:06:55.803Z</time></trkpt><trkpt lat="43.4642999" lon="13.1492249"><ele>182.0</ele><time>2026-05-01T14:06:56.804Z</time></trkpt><trkpt lat="43.4643073" lon="13.1491278"><ele>184.0</ele><time>2026-05-01T14:06:57.802Z</time></trkpt><trkpt lat="43.4643187" lon="13.1490273"><ele>185.42857142857144</ele><time>2026-05-01T14:06:58.802Z</time></trkpt><trkpt lat="43.46433" lon="13.1489201"><ele>186.85714285714283</ele><time>2026-05-01T14:06:59.803Z</time></trkpt><trkpt lat="43.4643358" lon="13.1488183"><ele>188.28571428571428</ele><time>2026-05-01T14:07:00.804Z</time></trkpt><trkpt lat="43.4643419" lon="13.1487224"><ele>189.71428571428572</ele><time>2026-05-01T14:07:01.802Z</time></trkpt><trkpt lat="43.4643433" lon="13.1486267"><ele>191.14285714285717</ele><time>2026-05-01T14:07:02.803Z</time></trkpt><trkpt lat="43.4643491" lon="13.1485284"><ele>192.57142857142856</ele><time>2026-05-01T14:07:03.802Z</time></trkpt><trkpt lat="43.4643488" lon="13.1484349"><ele>194.0</ele><time>2026-05-01T14:07:04.803Z</time></trkpt><trkpt lat="43.4643415" lon="13.1483423"><ele>194.0</ele><time>2026-05-01T14:07:05.803Z</time></trkpt><trkpt lat="43.4643258" lon="13.148245"><ele>194.0</ele><time>2026-05-01T14:07:06.802Z</time></trkpt><trkpt lat="43.4643041" lon="13.1481393"><ele>194.0</ele><time>2026-05-01T14:07:07.802Z</time></trkpt><trkpt lat="43.4642823" lon="13.148033"><ele>194.0</ele><time>2026-05-01T14:07:08.803Z</time></trkpt><trkpt lat="43.4642661" lon="13.1479308"><ele>194.0</ele><time>2026-05-01T14:07:09.802Z</time></trkpt><trkpt lat="43.4642541" lon="13.1478323"><ele>194.0</ele><time>2026-05-01T14:07:10.803Z</time></trkpt><trkpt lat="43.4642431" lon="13.147739"><ele>194.0</ele><time>2026-05-01T14:07:11.803Z</time></trkpt><trkpt lat="43.4642392" lon="13.1476507"><ele>196.33333333333334</ele><time>2026-05-01T14:07:12.803Z</time></trkpt><trkpt lat="43.4642344" lon="13.1475624"><ele>198.66666666666669</ele><time>2026-05-01T14:07:13.803Z</time></trkpt><trkpt lat="43.4642299" lon="13.1474735"><ele>201.0</ele><time>2026-05-01T14:07:14.802Z</time></trkpt><trkpt lat="43.4642282" lon="13.1473798"><ele>203.33333333333331</ele><time>2026-05-01T14:07:15.803Z</time></trkpt><trkpt lat="43.4642453" lon="13.1472043"><ele>205.66666666666666</ele><time>2026-05-01T14:07:17.802Z</time></trkpt><trkpt lat="43.4642575" lon="13.147108"><ele>208.0</ele><time>2026-05-01T14:07:18.804Z</time></trkpt><trkpt lat="43.4642711" lon="13.1470157"><ele>209.66666666666666</ele><time>2026-05-01T14:07:19.803Z</time></trkpt><trkpt lat="43.4642943" lon="13.1469237"><ele>211.33333333333331</ele><time>2026-05-01T14:07:20.802Z</time></trkpt><trkpt lat="43.4643236" lon="13.1468317"><ele>213.0</ele><time>2026-05-01T14:07:21.802Z</time></trkpt><trkpt lat="43.46437" lon="13.1466713"><ele>214.66666666666669</ele><time>2026-05-01T14:07:23.802Z</time></trkpt><trkpt lat="43.4643972" lon="13.146591"><ele>216.33333333333334</ele><time>2026-05-01T14:07:24.803Z</time></trkpt><trkpt lat="43.464444" lon="13.14646"><ele>218.0</ele><time>2026-05-01T14:07:26.803Z</time></trkpt><trkpt lat="43.4644873" lon="13.1463566"><ele>219.16666666666669</ele><time>2026-05-01T14:07:28.802Z</time></trkpt><trkpt lat="43.464535" lon="13.1462521"><ele>220.33333333333334</ele><time>2026-05-01T14:07:30.803Z</time></trkpt><trkpt lat="43.4645632" lon="13.146146"><ele>221.5</ele><time>2026-05-01T14:07:32.803Z</time></trkpt><trkpt lat="43.4645769" lon="13.1460346"><ele>222.66666666666669</ele><time>2026-05-01T14:07:34.803Z</time></trkpt><trkpt lat="43.4645881" lon="13.14592"><ele>223.83333333333334</ele><time>2026-05-01T14:07:36.803Z</time></trkpt><trkpt lat="43.464603" lon="13.1458072"><ele>225.0</ele><time>2026-05-01T14:07:38.802Z</time></trkpt><trkpt lat="43.4646239" lon="13.1456952"><ele>230.0</ele><time>2026-05-01T14:07:40.803Z</time></trkpt><trkpt lat="43.4646477" lon="13.1455807"><ele>235.0</ele><time>2026-05-01T14:07:42.802Z</time></trkpt><trkpt lat="43.4646641" lon="13.1454793"><ele>240.0</ele><time>2026-05-01T14:07:44.804Z</time></trkpt><trkpt lat="43.4646885" lon="13.1453857"><ele>245.0</ele><time>2026-05-01T14:07:46.803Z</time></trkpt><trkpt lat="43.4647074" lon="13.1452887"><ele>250.0</ele><time>2026-05-01T14:07:48.803Z</time></trkpt><trkpt lat="43.4647268" lon="13.145181"><ele>255.0</ele><time>2026-05-01T14:07:50.804Z</time></trkpt><trkpt lat="43.4647515" lon="13.1450694"><ele>255.0</ele><time>2026-05-01T14:07:52.802Z</time></trkpt><trkpt lat="43.4647747" lon="13.1449491"><ele>255.0</ele><time>2026-05-01T14:07:54.802Z</time></trkpt><trkpt lat="43.464811" lon="13.1448322"><ele>255.0</ele><time>2026-05-01T14:07:56.803Z</time></trkpt><trkpt lat="43.4648539" lon="13.1447101"><ele>255.0</ele><time>2026-05-01T14:07:58.803Z</time></trkpt><trkpt lat="43.4648967" lon="13.1445718"><ele>255.0</ele><time>2026-05-01T14:08:00.802Z</time></trkpt><trkpt lat="43.4649418" lon="13.1444161"><ele>257.75</ele><time>2026-05-01T14:08:02.803Z</time></trkpt><trkpt lat="43.4649758" lon="13.1442587"><ele>260.5</ele><time>2026-05-01T14:08:04.803Z</time></trkpt><trkpt lat="43.4649937" lon="13.1441054"><ele>263.25</ele><time>2026-05-01T14:08:06.803Z</time></trkpt><trkpt lat="43.4650104" lon="13.1439509"><ele>266.0</ele><time>2026-05-01T14:08:08.803Z</time></trkpt><trkpt lat="43.465029" lon="13.1437985"><ele>268.1666666666667</ele><time>2026-05-01T14:08:10.803Z</time></trkpt><trkpt lat="43.4650463" lon="13.143643"><ele>270.33333333333337</ele><time>2026-05-01T14:08:12.803Z</time></trkpt><trkpt lat="43.4650617" lon="13.1435559"><ele>272.5</ele><time>2026-05-01T14:08:13.803Z</time></trkpt><trkpt lat="43.4650756" lon="13.1434629"><ele>274.6666666666667</ele><time>2026-05-01T14:08:14.803Z</time></trkpt><trkpt lat="43.4650906" lon="13.1433685"><ele>276.8333333333333</ele><time>2026-05-01T14:08:15.803Z</time></trkpt><trkpt lat="43.4651031" lon="13.1432775"><ele>279.0</ele><time>2026-05-01T14:08:16.803Z</time></trkpt><trkpt lat="43.465115" lon="13.1431893"><ele>280.85714285714283</ele><time>2026-05-01T14:08:17.803Z</time></trkpt><trkpt lat="43.4651236" lon="13.1430976"><ele>282.7142857142857</ele><time>2026-05-01T14:08:18.804Z</time></trkpt><trkpt lat="43.4651299" lon="13.1430045"><ele>284.57142857142856</ele><time>2026-05-01T14:08:19.803Z</time></trkpt><trkpt lat="43.4651349" lon="13.1429053"><ele>286.42857142857144</ele><time>2026-05-01T14:08:20.803Z</time></trkpt><trkpt lat="43.4651396" lon="13.1428032"><ele>288.2857142857143</ele><time>2026-05-01T14:08:21.802Z</time></trkpt><trkpt lat="43.4651397" lon="13.1426978"><ele>290.1428571428571</ele><time>2026-05-01T14:08:22.802Z</time></trkpt><trkpt lat="43.4651364" lon="13.142593"><ele>292.0</ele><time>2026-05-01T14:08:23.803Z</time></trkpt><trkpt lat="43.4651278" lon="13.1424881"><ele>292.0</ele><time>2026-05-01T14:08:24.803Z</time></trkpt><trkpt lat="43.4651149" lon="13.1423856"><ele>292.0</ele><time>2026-05-01T14:08:25.802Z</time></trkpt><trkpt lat="43.4651036" lon="13.1422842"><ele>292.0</ele><time>2026-05-01T14:08:26.803Z</time></trkpt><trkpt lat="43.4650937" lon="13.1421835"><ele>292.0</ele><time>2026-05-01T14:08:27.802Z</time></trkpt><trkpt lat="43.4650871" lon="13.1420858"><ele>292.0</ele><time>2026-05-01T14:08:28.803Z</time></trkpt><trkpt lat="43.4650795" lon="13.1419886"><ele>292.0</ele><time>2026-05-01T14:08:29.803Z</time></trkpt><trkpt lat="43.4650759" lon="13.1418978"><ele>292.0</ele><time>2026-05-01T14:08:30.803Z</time></trkpt><trkpt lat="43.4650832" lon="13.1418041"><ele>293.3333333333333</ele><time>2026-05-01T14:08:31.802Z</time></trkpt><trkpt lat="43.4650941" lon="13.1417102"><ele>294.66666666666663</ele><time>2026-05-01T14:08:32.803Z</time></trkpt><trkpt lat="43.4651004" lon="13.1416152"><ele>296.0</ele><time>2026-05-01T14:08:33.804Z</time></trkpt><trkpt lat="43.4651006" lon="13.1415274"><ele>297.3333333333333</ele><time>2026-05-01T14:08:34.802Z</time></trkpt><trkpt lat="43.465094" lon="13.1413853"><ele>298.6666666666667</ele><time>2026-05-01T14:08:36.802Z</time></trkpt><trkpt lat="43.4650858" lon="13.1412987"><ele>300.0</ele><time>2026-05-01T14:08:38.802Z</time></trkpt><trkpt lat="43.4650415" lon="13.1411835"><ele>300.6666666666667</ele><time>2026-05-01T14:08:41.803Z</time></trkpt><trkpt lat="43.4649515" lon="13.1410915"><ele>301.3333333333333</ele><time>2026-05-01T14:08:43.803Z</time></trkpt><trkpt lat="43.464847" lon="13.141011"><ele>302.0</ele><time>2026-05-01T14:08:45.801Z</time></trkpt><trkpt lat="43.4647936" lon="13.140961"><ele>302.66666666666663</ele><time>2026-05-01T14:08:46.801Z</time></trkpt><trkpt lat="43.4647396" lon="13.1409068"><ele>303.3333333333333</ele><time>2026-05-01T14:08:47.803Z</time></trkpt><trkpt lat="43.4646794" lon="13.1408623"><ele>304.0</ele><time>2026-05-01T14:08:48.802Z</time></trkpt><trkpt lat="43.464617" lon="13.140815"><ele>305.16666666666663</ele><time>2026-05-01T14:08:49.803Z</time></trkpt><trkpt lat="43.4645538" lon="13.1407603"><ele>306.3333333333333</ele><time>2026-05-01T14:08:50.802Z</time></trkpt><trkpt lat="43.464491" lon="13.1407018"><ele>307.5</ele><time>2026-05-01T14:08:51.801Z</time></trkpt><trkpt lat="43.4644245" lon="13.1406484"><ele>308.6666666666667</ele><time>2026-05-01T14:08:52.801Z</time></trkpt><trkpt lat="43.464357" lon="13.1405964"><ele>309.83333333333337</ele><time>2026-05-01T14:08:53.801Z</time></trkpt><trkpt lat="43.4642861" lon="13.1405437"><ele>311.0</ele><time>2026-05-01T14:08:54.802Z</time></trkpt><trkpt lat="43.4642105" lon="13.1404885"><ele>312.1666666666667</ele><time>2026-05-01T14:08:55.802Z</time></trkpt><trkpt lat="43.4641347" lon="13.1404302"><ele>313.33333333333337</ele><time>2026-05-01T14:08:56.802Z</time></trkpt><trkpt lat="43.4640578" lon="13.1403805"><ele>314.5</ele><time>2026-05-01T14:08:57.801Z</time></trkpt><trkpt lat="43.4639766" lon="13.1403513"><ele>315.6666666666667</ele><time>2026-05-01T14:08:58.801Z</time></trkpt><trkpt lat="43.4638943" lon="13.1403575"><ele>316.8333333333333</ele><time>2026-05-01T14:08:59.802Z</time></trkpt><trkpt lat="43.4638132" lon="13.1404003"><ele>318.0</ele><time>2026-05-01T14:09:00.801Z</time></trkpt><trkpt lat="43.4637349" lon="13.1404599"><ele>319.8</ele><time>2026-05-01T14:09:01.803Z</time></trkpt><trkpt lat="43.4636566" lon="13.1405308"><ele>321.6</ele><time>2026-05-01T14:09:02.802Z</time></trkpt><trkpt lat="43.4635727" lon="13.1405944"><ele>323.40000000000003</ele><time>2026-05-01T14:09:03.801Z</time></trkpt><trkpt lat="43.4634822" lon="13.1406446"><ele>325.20000000000005</ele><time>2026-05-01T14:09:04.801Z</time></trkpt><trkpt lat="43.4633922" lon="13.1406598"><ele>327.0</ele><time>2026-05-01T14:09:05.802Z</time></trkpt><trkpt lat="43.4633028" lon="13.1406313"><ele>327.0</ele><time>2026-05-01T14:09:06.801Z</time></trkpt><trkpt lat="43.4632274" lon="13.1405523"><ele>327.0</ele><time>2026-05-01T14:09:07.802Z</time></trkpt><trkpt lat="43.4631665" lon="13.140452"><ele>327.0</ele><time>2026-05-01T14:09:08.802Z</time></trkpt><trkpt lat="43.463105" lon="13.1403514"><ele>327.0</ele><time>2026-05-01T14:09:09.802Z</time></trkpt><trkpt lat="43.4630424" lon="13.140251"><ele>327.0</ele><time>2026-05-01T14:09:10.802Z</time></trkpt><trkpt lat="43.4629854" lon="13.1401516"><ele>327.0</ele><time>2026-05-01T14:09:11.801Z</time></trkpt><trkpt lat="43.4629072" lon="13.1400735"><ele>327.0</ele><time>2026-05-01T14:09:12.802Z</time></trkpt><trkpt lat="43.4628187" lon="13.1400101"><ele>327.0</ele><time>2026-05-01T14:09:13.802Z</time></trkpt><trkpt lat="43.4627233" lon="13.1399587"><ele>327.0</ele><time>2026-05-01T14:09:14.802Z</time></trkpt><trkpt lat="43.462626" lon="13.1399083"><ele>327.0</ele><time>2026-05-01T14:09:15.801Z</time></trkpt><trkpt lat="43.46253" lon="13.1398489"><ele>328.8</ele><time>2026-05-01T14:09:16.802Z</time></trkpt><trkpt lat="43.4624271" lon="13.1398027"><ele>330.6</ele><time>2026-05-01T14:09:17.802Z</time></trkpt><trkpt lat="43.4623323" lon="13.1397188"><ele>332.40000000000003</ele><time>2026-05-01T14:09:18.802Z</time></trkpt><trkpt lat="43.4622403" lon="13.1396467"><ele>334.20000000000005</ele><time>2026-05-01T14:09:19.802Z</time></trkpt><trkpt lat="43.4621549" lon="13.1395496"><ele>336.0</ele><time>2026-05-01T14:09:20.802Z</time></trkpt><trkpt lat="43.4620673" lon="13.139459"><ele>336.0</ele><time>2026-05-01T14:09:21.801Z</time></trkpt><trkpt lat="43.4619776" lon="13.1393685"><ele>336.0</ele><time>2026-05-01T14:09:22.802Z</time></trkpt><trkpt lat="43.4618865" lon="13.1392697"><ele>336.0</ele><time>2026-05-01T14:09:23.801Z</time></trkpt><trkpt lat="43.4617899" lon="13.1391698"><ele>336.0</ele><time>2026-05-01T14:09:24.802Z</time></trkpt><trkpt lat="43.4616959" lon="13.1390686"><ele>338.0</ele><time>2026-05-01T14:09:25.802Z</time></trkpt><trkpt lat="43.4616093" lon="13.1389679"><ele>340.0</ele><time>2026-05-01T14:09:26.801Z</time></trkpt><trkpt lat="43.4615267" lon="13.1388574"><ele>342.0</ele><time>2026-05-01T14:09:27.802Z</time></trkpt><trkpt lat="43.4614482" lon="13.1387424"><ele>344.0</ele><time>2026-05-01T14:09:28.802Z</time></trkpt><trkpt lat="43.4613687" lon="13.1386241"><ele>344.0</ele><time>2026-05-01T14:09:29.802Z</time></trkpt><trkpt lat="43.4612842" lon="13.1385079"><ele>344.0</ele><time>2026-05-01T14:09:30.801Z</time></trkpt><trkpt lat="43.4611953" lon="13.1383904"><ele>344.0</ele><time>2026-05-01T14:09:31.802Z</time></trkpt><trkpt lat="43.4611013" lon="13.138279"><ele>344.0</ele><time>2026-05-01T14:09:32.803Z</time></trkpt><trkpt lat="43.4610033" lon="13.1381759"><ele>342.5</ele><time>2026-05-01T14:09:33.802Z</time></trkpt><trkpt lat="43.4609039" lon="13.1380769"><ele>341.0</ele><time>2026-05-01T14:09:34.802Z</time></trkpt><trkpt lat="43.4607996" lon="13.1379826"><ele>339.5</ele><time>2026-05-01T14:09:35.801Z</time></trkpt><trkpt lat="43.4606899" lon="13.1378875"><ele>338.0</ele><time>2026-05-01T14:09:36.802Z</time></trkpt><trkpt lat="43.460581" lon="13.1377905"><ele>338.0</ele><time>2026-05-01T14:09:37.802Z</time></trkpt><trkpt lat="43.4604727" lon="13.1376899"><ele>338.0</ele><time>2026-05-01T14:09:38.803Z</time></trkpt><trkpt lat="43.4603667" lon="13.1375903"><ele>338.0</ele><time>2026-05-01T14:09:39.802Z</time></trkpt><trkpt lat="43.4602577" lon="13.1374954"><ele>338.0</ele><time>2026-05-01T14:09:40.802Z</time></trkpt><trkpt lat="43.460146" lon="13.1374021"><ele>334.75</ele><time>2026-05-01T14:09:41.803Z</time></trkpt><trkpt lat="43.4600295" lon="13.1373161"><ele>331.5</ele><time>2026-05-01T14:09:42.802Z</time></trkpt><trkpt lat="43.4599115" lon="13.1372411"><ele>328.25</ele><time>2026-05-01T14:09:43.801Z</time></trkpt><trkpt lat="43.4597901" lon="13.1371708"><ele>325.0</ele><time>2026-05-01T14:09:44.802Z</time></trkpt><trkpt lat="43.4596685" lon="13.1371105"><ele>325.25</ele><time>2026-05-01T14:09:45.802Z</time></trkpt><trkpt lat="43.4595468" lon="13.1370526"><ele>325.5</ele><time>2026-05-01T14:09:46.801Z</time></trkpt><trkpt lat="43.4594228" lon="13.1370055"><ele>325.75</ele><time>2026-05-01T14:09:47.802Z</time></trkpt><trkpt lat="43.4592985" lon="13.1369649"><ele>326.0</ele><time>2026-05-01T14:09:48.801Z</time></trkpt><trkpt lat="43.4591748" lon="13.1369352"><ele>326.0</ele><time>2026-05-01T14:09:49.802Z</time></trkpt><trkpt lat="43.4590497" lon="13.1369025"><ele>326.0</ele><time>2026-05-01T14:09:50.801Z</time></trkpt><trkpt lat="43.4589196" lon="13.1368695"><ele>326.0</ele><time>2026-05-01T14:09:51.802Z</time></trkpt><trkpt lat="43.4587865" lon="13.1368385"><ele>326.0</ele><time>2026-05-01T14:09:52.802Z</time></trkpt><trkpt lat="43.4586492" lon="13.1367987"><ele>327.5</ele><time>2026-05-01T14:09:53.802Z</time></trkpt><trkpt lat="43.4585119" lon="13.1367513"><ele>329.0</ele><time>2026-05-01T14:09:54.802Z</time></trkpt><trkpt lat="43.4583785" lon="13.1366954"><ele>330.5</ele><time>2026-05-01T14:09:55.801Z</time></trkpt><trkpt lat="43.4582486" lon="13.1366375"><ele>332.0</ele><time>2026-05-01T14:09:56.801Z</time></trkpt><trkpt lat="43.4581252" lon="13.1365721"><ele>331.0</ele><time>2026-05-01T14:09:57.802Z</time></trkpt><trkpt lat="43.4580052" lon="13.1365008"><ele>330.0</ele><time>2026-05-01T14:09:58.801Z</time></trkpt><trkpt lat="43.4578887" lon="13.1364182"><ele>329.0</ele><time>2026-05-01T14:09:59.802Z</time></trkpt><trkpt lat="43.4577761" lon="13.1363171"><ele>328.0</ele><time>2026-05-01T14:10:00.802Z</time></trkpt><trkpt lat="43.4576752" lon="13.1361964"><ele>329.5</ele><time>2026-05-01T14:10:01.802Z</time></trkpt><trkpt lat="43.4575883" lon="13.136059"><ele>331.0</ele><time>2026-05-01T14:10:02.802Z</time></trkpt><trkpt lat="43.457509" lon="13.1359132"><ele>332.5</ele><time>2026-05-01T14:10:03.802Z</time></trkpt><trkpt lat="43.4574295" lon="13.1357681"><ele>334.0</ele><time>2026-05-01T14:10:04.801Z</time></trkpt><trkpt lat="43.4573453" lon="13.1356264"><ele>334.0</ele><time>2026-05-01T14:10:05.802Z</time></trkpt><trkpt lat="43.4572562" lon="13.1354876"><ele>334.0</ele><time>2026-05-01T14:10:06.802Z</time></trkpt><trkpt lat="43.4571591" lon="13.1353545"><ele>334.0</ele><time>2026-05-01T14:10:07.802Z</time></trkpt><trkpt lat="43.4570581" lon="13.1352251"><ele>334.0</ele><time>2026-05-01T14:10:08.802Z</time></trkpt><trkpt lat="43.456958" lon="13.1350879"><ele>335.75</ele><time>2026-05-01T14:10:09.802Z</time></trkpt><trkpt lat="43.456858" lon="13.1349491"><ele>337.5</ele><time>2026-05-01T14:10:10.801Z</time></trkpt><trkpt lat="43.4567531" lon="13.1348067"><ele>339.25</ele><time>2026-05-01T14:10:11.801Z</time></trkpt><trkpt lat="43.4566425" lon="13.1346705"><ele>341.0</ele><time>2026-05-01T14:10:12.802Z</time></trkpt><trkpt lat="43.4565286" lon="13.1345202"><ele>341.0</ele><time>2026-05-01T14:10:13.802Z</time></trkpt><trkpt lat="43.4564097" lon="13.1343453"><ele>341.0</ele><time>2026-05-01T14:10:14.802Z</time></trkpt><trkpt lat="43.4562956" lon="13.1341701"><ele>341.0</ele><time>2026-05-01T14:10:15.801Z</time></trkpt><trkpt lat="43.4561826" lon="13.1339938"><ele>344.33333333333337</ele><time>2026-05-01T14:10:16.802Z</time></trkpt><trkpt lat="43.4560798" lon="13.1338227"><ele>347.6666666666667</ele><time>2026-05-01T14:10:17.802Z</time></trkpt><trkpt lat="43.4559914" lon="13.1336595"><ele>351.0</ele><time>2026-05-01T14:10:18.802Z</time></trkpt><trkpt lat="43.4559067" lon="13.1335008"><ele>351.0</ele><time>2026-05-01T14:10:19.802Z</time></trkpt><trkpt lat="43.4558313" lon="13.1333598"><ele>351.0</ele><time>2026-05-01T14:10:20.801Z</time></trkpt><trkpt lat="43.4557545" lon="13.1332545"><ele>351.0</ele><time>2026-05-01T14:10:21.803Z</time></trkpt><trkpt lat="43.4556629" lon="13.1332054"><ele>351.0</ele><time>2026-05-01T14:10:22.802Z</time></trkpt><trkpt lat="43.4555676" lon="13.1332154"><ele>351.0</ele><time>2026-05-01T14:10:23.801Z</time></trkpt><trkpt lat="43.4554725" lon="13.1332644"><ele>354.25</ele><time>2026-05-01T14:10:24.802Z</time></trkpt><trkpt lat="43.4553754" lon="13.1333292"><ele>357.5</ele><time>2026-05-01T14:10:25.802Z</time></trkpt><trkpt lat="43.4552807" lon="13.1333737"><ele>360.75</ele><time>2026-05-01T14:10:26.802Z</time></trkpt><trkpt lat="43.4551686" lon="13.1334665"><ele>364.0</ele><time>2026-05-01T14:10:27.802Z</time></trkpt><trkpt lat="43.4550607" lon="13.1335315"><ele>364.0</ele><time>2026-05-01T14:10:28.802Z</time></trkpt><trkpt lat="43.4549548" lon="13.1336011"><ele>364.0</ele><time>2026-05-01T14:10:29.801Z</time></trkpt><trkpt lat="43.454848" lon="13.1336455"><ele>364.0</ele><time>2026-05-01T14:10:30.801Z</time></trkpt><trkpt lat="43.4547378" lon="13.1336322"><ele>364.0</ele><time>2026-05-01T14:10:31.802Z</time></trkpt><trkpt lat="43.4546299" lon="13.1335634"><ele>365.0</ele><time>2026-05-01T14:10:32.803Z</time></trkpt><trkpt lat="43.4545234" lon="13.1334578"><ele>366.0</ele><time>2026-05-01T14:10:33.803Z</time></trkpt><trkpt lat="43.4544089" lon="13.13333"><ele>367.0</ele><time>2026-05-01T14:10:34.802Z</time></trkpt><trkpt lat="43.454289" lon="13.1331959"><ele>368.0</ele><time>2026-05-01T14:10:35.801Z</time></trkpt><trkpt lat="43.4541671" lon="13.1330593"><ele>370.6666666666667</ele><time>2026-05-01T14:10:36.801Z</time></trkpt><trkpt lat="43.4540437" lon="13.1329239"><ele>373.3333333333333</ele><time>2026-05-01T14:10:37.802Z</time></trkpt><trkpt lat="43.4539221" lon="13.1327879"><ele>376.0</ele><time>2026-05-01T14:10:38.802Z</time></trkpt><trkpt lat="43.4538026" lon="13.1326546"><ele>376.3333333333333</ele><time>2026-05-01T14:10:39.801Z</time></trkpt><trkpt lat="43.4536824" lon="13.1325148"><ele>376.6666666666667</ele><time>2026-05-01T14:10:40.803Z</time></trkpt><trkpt lat="43.4535635" lon="13.1323723"><ele>377.0</ele><time>2026-05-01T14:10:41.801Z</time></trkpt><trkpt lat="43.4534436" lon="13.1322234"><ele>381.33333333333337</ele><time>2026-05-01T14:10:42.803Z</time></trkpt><trkpt lat="43.4533259" lon="13.1320678"><ele>385.6666666666667</ele><time>2026-05-01T14:10:43.801Z</time></trkpt><trkpt lat="43.4532103" lon="13.1319081"><ele>390.0</ele><time>2026-05-01T14:10:44.801Z</time></trkpt><trkpt lat="43.4530934" lon="13.1317463"><ele>390.0</ele><time>2026-05-01T14:10:45.801Z</time></trkpt><trkpt lat="43.4529748" lon="13.1315845"><ele>390.0</ele><time>2026-05-01T14:10:46.801Z</time></trkpt><trkpt lat="43.4528586" lon="13.1314271"><ele>390.0</ele><time>2026-05-01T14:10:47.801Z</time></trkpt><trkpt lat="43.4527416" lon="13.1312652"><ele>392.66666666666663</ele><time>2026-05-01T14:10:48.802Z</time></trkpt><trkpt lat="43.4526291" lon="13.1310945"><ele>395.3333333333333</ele><time>2026-05-01T14:10:49.801Z</time></trkpt><trkpt lat="43.452522" lon="13.1309139"><ele>398.0</ele><time>2026-05-01T14:10:50.802Z</time></trkpt><trkpt lat="43.4524297" lon="13.1307228"><ele>399.3333333333333</ele><time>2026-05-01T14:10:51.803Z</time></trkpt><trkpt lat="43.4523358" lon="13.1305264"><ele>400.66666666666663</ele><time>2026-05-01T14:10:52.803Z</time></trkpt><trkpt lat="43.4522407" lon="13.1303279"><ele>402.0</ele><time>2026-05-01T14:10:53.802Z</time></trkpt><trkpt lat="43.4521476" lon="13.1301283"><ele>401.66666666666663</ele><time>2026-05-01T14:10:54.801Z</time></trkpt><trkpt lat="43.4520563" lon="13.1299241"><ele>401.3333333333333</ele><time>2026-05-01T14:10:55.802Z</time></trkpt><trkpt lat="43.4519679" lon="13.1297119"><ele>401.0</ele><time>2026-05-01T14:10:56.801Z</time></trkpt><trkpt lat="43.4518819" lon="13.1294992"><ele>404.3333333333333</ele><time>2026-05-01T14:10:57.802Z</time></trkpt><trkpt lat="43.4518004" lon="13.1292825"><ele>407.66666666666663</ele><time>2026-05-01T14:10:58.802Z</time></trkpt><trkpt lat="43.4517205" lon="13.1290718"><ele>411.0</ele><time>2026-05-01T14:10:59.801Z</time></trkpt><trkpt lat="43.4516441" lon="13.1288739"><ele>412.75</ele><time>2026-05-01T14:11:00.801Z</time></trkpt><trkpt lat="43.4515755" lon="13.1286812"><ele>414.5</ele><time>2026-05-01T14:11:01.801Z</time></trkpt><trkpt lat="43.4515131" lon="13.1285009"><ele>416.25</ele><time>2026-05-01T14:11:02.803Z</time></trkpt><trkpt lat="43.4514539" lon="13.1283307"><ele>418.0</ele><time>2026-05-01T14:11:03.802Z</time></trkpt><trkpt lat="43.4513966" lon="13.1281647"><ele>419.25</ele><time>2026-05-01T14:11:04.801Z</time></trkpt><trkpt lat="43.4513391" lon="13.128006"><ele>420.5</ele><time>2026-05-01T14:11:05.802Z</time></trkpt><trkpt lat="43.4512827" lon="13.1278488"><ele>421.75</ele><time>2026-05-01T14:11:06.801Z</time></trkpt><trkpt lat="43.4512317" lon="13.1276907"><ele>423.0</ele><time>2026-05-01T14:11:07.803Z</time></trkpt><trkpt lat="43.4511774" lon="13.1275297"><ele>425.5</ele><time>2026-05-01T14:11:08.802Z</time></trkpt><trkpt lat="43.4511225" lon="13.1273689"><ele>428.0</ele><time>2026-05-01T14:11:09.802Z</time></trkpt><trkpt lat="43.451069" lon="13.1272156"><ele>430.5</ele><time>2026-05-01T14:11:10.802Z</time></trkpt><trkpt lat="43.4510164" lon="13.127065"><ele>433.0</ele><time>2026-05-01T14:11:11.801Z</time></trkpt><trkpt lat="43.4509596" lon="13.1269096"><ele>433.0</ele><time>2026-05-01T14:11:12.801Z</time></trkpt><trkpt lat="43.4509007" lon="13.1267514"><ele>433.0</ele><time>2026-05-01T14:11:13.803Z</time></trkpt><trkpt lat="43.4508453" lon="13.1265891"><ele>433.0</ele><time>2026-05-01T14:11:14.801Z</time></trkpt><trkpt lat="43.4507887" lon="13.126424"><ele>433.0</ele><time>2026-05-01T14:11:15.802Z</time></trkpt><trkpt lat="43.4507335" lon="13.1262532"><ele>434.75</ele><time>2026-05-01T14:11:16.802Z</time></trkpt><trkpt lat="43.4506772" lon="13.1260811"><ele>436.5</ele><time>2026-05-01T14:11:17.801Z</time></trkpt><trkpt lat="43.4506217" lon="13.1259104"><ele>438.25</ele><time>2026-05-01T14:11:18.802Z</time></trkpt><trkpt lat="43.4505658" lon="13.1257351"><ele>440.0</ele><time>2026-05-01T14:11:19.802Z</time></trkpt><trkpt lat="43.4505101" lon="13.125556"><ele>440.75</ele><time>2026-05-01T14:11:20.801Z</time></trkpt><trkpt lat="43.4504542" lon="13.125378"><ele>441.5</ele><time>2026-05-01T14:11:21.802Z</time></trkpt><trkpt lat="43.4503972" lon="13.1251989"><ele>442.25</ele><time>2026-05-01T14:11:22.802Z</time></trkpt><trkpt lat="43.4503411" lon="13.1250241"><ele>443.0</ele><time>2026-05-01T14:11:23.801Z</time></trkpt><trkpt lat="43.4502791" lon="13.1248536"><ele>446.5</ele><time>2026-05-01T14:11:24.801Z</time></trkpt><trkpt lat="43.4502179" lon="13.1246872"><ele>450.0</ele><time>2026-05-01T14:11:25.802Z</time></trkpt><trkpt lat="43.4501605" lon="13.1245231"><ele>453.5</ele><time>2026-05-01T14:11:26.802Z</time></trkpt><trkpt lat="43.4501059" lon="13.1243573"><ele>457.0</ele><time>2026-05-01T14:11:27.803Z</time></trkpt><trkpt lat="43.4500492" lon="13.1241976"><ele>458.75</ele><time>2026-05-01T14:11:28.802Z</time></trkpt><trkpt lat="43.4499893" lon="13.1240444"><ele>460.5</ele><time>2026-05-01T14:11:29.802Z</time></trkpt><trkpt lat="43.4499258" lon="13.1238947"><ele>462.25</ele><time>2026-05-01T14:11:30.802Z</time></trkpt><trkpt lat="43.4498666" lon="13.1237444"><ele>464.0</ele><time>2026-05-01T14:11:31.803Z</time></trkpt><trkpt lat="43.4498028" lon="13.1235987"><ele>464.0</ele><time>2026-05-01T14:11:32.801Z</time></trkpt><trkpt lat="43.4497393" lon="13.1234533"><ele>464.0</ele><time>2026-05-01T14:11:33.803Z</time></trkpt><trkpt lat="43.4496755" lon="13.1233085"><ele>464.0</ele><time>2026-05-01T14:11:34.802Z</time></trkpt><trkpt lat="43.4496197" lon="13.1231646"><ele>464.0</ele><time>2026-05-01T14:11:35.801Z</time></trkpt><trkpt lat="43.4495692" lon="13.1230276"><ele>463.0</ele><time>2026-05-01T14:11:36.802Z</time></trkpt><trkpt lat="43.4495195" lon="13.1228987"><ele>462.0</ele><time>2026-05-01T14:11:37.801Z</time></trkpt><trkpt lat="43.4494725" lon="13.1227763"><ele>461.0</ele><time>2026-05-01T14:11:38.802Z</time></trkpt><trkpt lat="43.4494255" lon="13.1226542"><ele>460.0</ele><time>2026-05-01T14:11:39.803Z</time></trkpt><trkpt lat="43.4493729" lon="13.1225345"><ele>459.0</ele><time>2026-05-01T14:11:40.802Z</time></trkpt><trkpt lat="43.4493144" lon="13.1224166"><ele>459.79999999999995</ele><time>2026-05-01T14:11:41.801Z</time></trkpt><trkpt lat="43.4492555" lon="13.1223038"><ele>460.59999999999997</ele><time>2026-05-01T14:11:42.802Z</time></trkpt><trkpt lat="43.4491923" lon="13.1221911"><ele>461.4</ele><time>2026-05-01T14:11:43.802Z</time></trkpt><trkpt lat="43.4491296" lon="13.1220793"><ele>462.2</ele><time>2026-05-01T14:11:44.802Z</time></trkpt><trkpt lat="43.449067" lon="13.1219712"><ele>463.0</ele><time>2026-05-01T14:11:45.802Z</time></trkpt><trkpt lat="43.449005" lon="13.1218612"><ele>463.0</ele><time>2026-05-01T14:11:46.801Z</time></trkpt><trkpt lat="43.4489375" lon="13.1217457"><ele>462.99999999999994</ele><time>2026-05-01T14:11:47.802Z</time></trkpt><trkpt lat="43.4488711" lon="13.1216254"><ele>462.99999999999994</ele><time>2026-05-01T14:11:48.802Z</time></trkpt><trkpt lat="43.4487997" lon="13.1215022"><ele>463.0</ele><time>2026-05-01T14:11:49.801Z</time></trkpt><trkpt lat="43.4487253" lon="13.1213816"><ele>463.0</ele><time>2026-05-01T14:11:50.803Z</time></trkpt><trkpt lat="43.4486513" lon="13.1212603"><ele>463.59999999999997</ele><time>2026-05-01T14:11:51.802Z</time></trkpt><trkpt lat="43.4485735" lon="13.1211428"><ele>464.19999999999993</ele><time>2026-05-01T14:11:52.803Z</time></trkpt><trkpt lat="43.4484982" lon="13.1210354"><ele>464.8</ele><time>2026-05-01T14:11:53.802Z</time></trkpt><trkpt lat="43.4484288" lon="13.1209286"><ele>465.4</ele><time>2026-05-01T14:11:54.801Z</time></trkpt><trkpt lat="43.4483587" lon="13.1208232"><ele>466.0</ele><time>2026-05-01T14:11:55.801Z</time></trkpt><trkpt lat="43.448283" lon="13.1207283"><ele>466.0</ele><time>2026-05-01T14:11:56.802Z</time></trkpt><trkpt lat="43.4482045" lon="13.1206302"><ele>466.0</ele><time>2026-05-01T14:11:57.801Z</time></trkpt><trkpt lat="43.4481275" lon="13.1205299"><ele>466.0</ele><time>2026-05-01T14:11:58.802Z</time></trkpt><trkpt lat="43.4480496" lon="13.1204317"><ele>466.0</ele><time>2026-05-01T14:11:59.802Z</time></trkpt><trkpt lat="43.447974" lon="13.1203349"><ele>466.0</ele><time>2026-05-01T14:12:00.802Z</time></trkpt><trkpt lat="43.447899" lon="13.1202424"><ele>467.0</ele><time>2026-05-01T14:12:01.801Z</time></trkpt><trkpt lat="43.4478163" lon="13.1201531"><ele>468.0</ele><time>2026-05-01T14:12:02.802Z</time></trkpt><trkpt lat="43.4477378" lon="13.1200628"><ele>469.0</ele><time>2026-05-01T14:12:03.802Z</time></trkpt><trkpt lat="43.4476607" lon="13.1199685"><ele>470.0</ele><time>2026-05-01T14:12:04.801Z</time></trkpt><trkpt lat="43.4475854" lon="13.1198819"><ele>471.0</ele><time>2026-05-01T14:12:05.802Z</time></trkpt><trkpt lat="43.4475145" lon="13.1197962"><ele>471.8</ele><time>2026-05-01T14:12:06.801Z</time></trkpt><trkpt lat="43.4474456" lon="13.1197108"><ele>472.6</ele><time>2026-05-01T14:12:07.803Z</time></trkpt><trkpt lat="43.4473719" lon="13.1196291"><ele>473.4</ele><time>2026-05-01T14:12:08.803Z</time></trkpt><trkpt lat="43.4472912" lon="13.1195545"><ele>474.2</ele><time>2026-05-01T14:12:09.801Z</time></trkpt><trkpt lat="43.4472063" lon="13.119474"><ele>475.0</ele><time>2026-05-01T14:12:10.802Z</time></trkpt><trkpt lat="43.4471245" lon="13.1194044"><ele>475.50000000000006</ele><time>2026-05-01T14:12:11.802Z</time></trkpt><trkpt lat="43.4470448" lon="13.1193348"><ele>476.0</ele><time>2026-05-01T14:12:12.801Z</time></trkpt><trkpt lat="43.4469678" lon="13.1192719"><ele>476.5</ele><time>2026-05-01T14:12:13.803Z</time></trkpt><trkpt lat="43.4468914" lon="13.119211"><ele>477.0</ele><time>2026-05-01T14:12:14.802Z</time></trkpt><trkpt lat="43.4468183" lon="13.1191498"><ele>477.50000000000006</ele><time>2026-05-01T14:12:15.802Z</time></trkpt><trkpt lat="43.4467399" lon="13.1191089"><ele>478.0</ele><time>2026-05-01T14:12:16.803Z</time></trkpt><trkpt lat="43.446663" lon="13.1190804"><ele>479.59999999999997</ele><time>2026-05-01T14:12:17.803Z</time></trkpt><trkpt lat="43.4465798" lon="13.1190528"><ele>481.19999999999993</ele><time>2026-05-01T14:12:18.801Z</time></trkpt><trkpt lat="43.4464954" lon="13.1190133"><ele>482.8</ele><time>2026-05-01T14:12:19.801Z</time></trkpt><trkpt lat="43.4464136" lon="13.1189599"><ele>484.4</ele><time>2026-05-01T14:12:20.802Z</time></trkpt><trkpt lat="43.4463324" lon="13.1188929"><ele>486.0</ele><time>2026-05-01T14:12:21.802Z</time></trkpt><trkpt lat="43.446255" lon="13.118816"><ele>486.0</ele><time>2026-05-01T14:12:22.801Z</time></trkpt><trkpt lat="43.4461708" lon="13.1187343"><ele>486.0</ele><time>2026-05-01T14:12:23.802Z</time></trkpt><trkpt lat="43.4460851" lon="13.1186499"><ele>486.0</ele><time>2026-05-01T14:12:24.801Z</time></trkpt><trkpt lat="43.4460013" lon="13.1185662"><ele>486.0</ele><time>2026-05-01T14:12:25.802Z</time></trkpt><trkpt lat="43.445916" lon="13.118481"><ele>486.0</ele><time>2026-05-01T14:12:26.802Z</time></trkpt><trkpt lat="43.4458265" lon="13.1183978"><ele>486.0</ele><time>2026-05-01T14:12:27.802Z</time></trkpt><trkpt lat="43.4457374" lon="13.1183122"><ele>486.0</ele><time>2026-05-01T14:12:28.801Z</time></trkpt><trkpt lat="43.4456488" lon="13.1182281"><ele>486.0</ele><time>2026-05-01T14:12:29.802Z</time></trkpt><trkpt lat="43.4455608" lon="13.1181445"><ele>486.0</ele><time>2026-05-01T14:12:30.802Z</time></trkpt><trkpt lat="43.4454786" lon="13.1180644"><ele>486.0</ele><time>2026-05-01T14:12:31.803Z</time></trkpt><trkpt lat="43.4453956" lon="13.117994"><ele>486.4</ele><time>2026-05-01T14:12:32.802Z</time></trkpt><trkpt lat="43.4453107" lon="13.1179289"><ele>486.8</ele><time>2026-05-01T14:12:33.802Z</time></trkpt><trkpt lat="43.4452227" lon="13.1178694"><ele>487.19999999999993</ele><time>2026-05-01T14:12:34.802Z</time></trkpt><trkpt lat="43.4451407" lon="13.117814"><ele>487.59999999999997</ele><time>2026-05-01T14:12:35.801Z</time></trkpt><trkpt lat="43.4450623" lon="13.1177635"><ele>488.0</ele><time>2026-05-01T14:12:36.801Z</time></trkpt><trkpt lat="43.4449882" lon="13.1177125"><ele>487.99999999999994</ele><time>2026-05-01T14:12:37.801Z</time></trkpt><trkpt lat="43.4449173" lon="13.1176677"><ele>488.0</ele><time>2026-05-01T14:12:38.802Z</time></trkpt><trkpt lat="43.4448443" lon="13.1176239"><ele>488.0</ele><time>2026-05-01T14:12:39.803Z</time></trkpt><trkpt lat="43.4447685" lon="13.1175752"><ele>488.0</ele><time>2026-05-01T14:12:40.802Z</time></trkpt><trkpt lat="43.4446914" lon="13.1175232"><ele>487.99999999999994</ele><time>2026-05-01T14:12:41.802Z</time></trkpt><trkpt lat="43.444615" lon="13.117478"><ele>488.0</ele><time>2026-05-01T14:12:42.801Z</time></trkpt><trkpt lat="43.444543" lon="13.1174326"><ele>487.66666666666663</ele><time>2026-05-01T14:12:43.802Z</time></trkpt><trkpt lat="43.4444741" lon="13.117385"><ele>487.3333333333333</ele><time>2026-05-01T14:12:44.801Z</time></trkpt><trkpt lat="43.4444063" lon="13.1173383"><ele>487.0</ele><time>2026-05-01T14:12:45.802Z</time></trkpt><trkpt lat="43.4443401" lon="13.1173"><ele>486.66666666666663</ele><time>2026-05-01T14:12:46.801Z</time></trkpt><trkpt lat="43.4442754" lon="13.117263"><ele>486.3333333333333</ele><time>2026-05-01T14:12:47.802Z</time></trkpt><trkpt lat="43.4442137" lon="13.1172305"><ele>486.0</ele><time>2026-05-01T14:12:48.802Z</time></trkpt><trkpt lat="43.4440945" lon="13.1171844"><ele>486.0</ele><time>2026-05-01T14:12:50.802Z</time></trkpt><trkpt lat="43.4439772" lon="13.1171431"><ele>486.0</ele><time>2026-05-01T14:12:52.801Z</time></trkpt><trkpt lat="43.4438598" lon="13.117116"><ele>486.0</ele><time>2026-05-01T14:12:54.802Z</time></trkpt><trkpt lat="43.4437405" lon="13.1170943"><ele>486.0</ele><time>2026-05-01T14:12:56.802Z</time></trkpt><trkpt lat="43.4436223" lon="13.1170811"><ele>485.0</ele><time>2026-05-01T14:12:58.802Z</time></trkpt><trkpt lat="43.4435161" lon="13.1170595"><ele>484.0</ele><time>2026-05-01T14:13:00.801Z</time></trkpt><trkpt lat="43.4434282" lon="13.1170255"><ele>483.0</ele><time>2026-05-01T14:13:02.803Z</time></trkpt><trkpt lat="43.4433467" lon="13.1169695"><ele>482.0</ele><time>2026-05-01T14:13:04.801Z</time></trkpt><trkpt lat="43.4432738" lon="13.1169016"><ele>481.0</ele><time>2026-05-01T14:13:06.802Z</time></trkpt><trkpt lat="43.4432139" lon="13.1168335"><ele>481.00000000000006</ele><time>2026-05-01T14:13:08.801Z</time></trkpt><trkpt lat="43.443151" lon="13.1167762"><ele>481.0</ele><time>2026-05-01T14:13:10.802Z</time></trkpt><trkpt lat="43.4430899" lon="13.1167111"><ele>481.0</ele><time>2026-05-01T14:13:12.801Z</time></trkpt><trkpt lat="43.4429867" lon="13.1167307"><ele>481.0</ele><time>2026-05-01T14:13:14.802Z</time></trkpt><trkpt lat="43.4429252" lon="13.116763"><ele>481.00000000000006</ele><time>2026-05-01T14:13:15.802Z</time></trkpt><trkpt lat="43.4428512" lon="13.1168037"><ele>481.0</ele><time>2026-05-01T14:13:16.802Z</time></trkpt><trkpt lat="43.4427681" lon="13.1168433"><ele>479.4</ele><time>2026-05-01T14:13:17.802Z</time></trkpt><trkpt lat="43.4426815" lon="13.1168837"><ele>477.8</ele><time>2026-05-01T14:13:18.802Z</time></trkpt><trkpt lat="43.4425892" lon="13.1169267"><ele>476.19999999999993</ele><time>2026-05-01T14:13:19.802Z</time></trkpt><trkpt lat="43.4424945" lon="13.1169716"><ele>474.59999999999997</ele><time>2026-05-01T14:13:20.801Z</time></trkpt><trkpt lat="43.4423955" lon="13.1170198"><ele>473.0</ele><time>2026-05-01T14:13:21.801Z</time></trkpt><trkpt lat="43.4422977" lon="13.117069"><ele>473.0</ele><time>2026-05-01T14:13:22.801Z</time></trkpt><trkpt lat="43.4421957" lon="13.1171149"><ele>472.99999999999994</ele><time>2026-05-01T14:13:23.802Z</time></trkpt><trkpt lat="43.4420998" lon="13.1171606"><ele>472.99999999999994</ele><time>2026-05-01T14:13:24.801Z</time></trkpt><trkpt lat="43.4420041" lon="13.1172064"><ele>473.0</ele><time>2026-05-01T14:13:25.802Z</time></trkpt><trkpt lat="43.4419065" lon="13.1172516"><ele>473.0</ele><time>2026-05-01T14:13:26.801Z</time></trkpt><trkpt lat="43.4418076" lon="13.1172957"><ele>472.79999999999995</ele><time>2026-05-01T14:13:27.802Z</time></trkpt><trkpt lat="43.4417058" lon="13.1173417"><ele>472.59999999999997</ele><time>2026-05-01T14:13:28.801Z</time></trkpt><trkpt lat="43.4416008" lon="13.1173832"><ele>472.40000000000003</ele><time>2026-05-01T14:13:29.801Z</time></trkpt><trkpt lat="43.441496" lon="13.1174312"><ele>472.20000000000005</ele><time>2026-05-01T14:13:30.802Z</time></trkpt><trkpt lat="43.4413914" lon="13.1174858"><ele>472.0</ele><time>2026-05-01T14:13:31.803Z</time></trkpt><trkpt lat="43.4412829" lon="13.1175379"><ele>471.75</ele><time>2026-05-01T14:13:32.801Z</time></trkpt><trkpt lat="43.441175" lon="13.1175871"><ele>471.5</ele><time>2026-05-01T14:13:33.802Z</time></trkpt><trkpt lat="43.4410616" lon="13.1176393"><ele>471.25</ele><time>2026-05-01T14:13:34.802Z</time></trkpt><trkpt lat="43.4409482" lon="13.1176946"><ele>471.0</ele><time>2026-05-01T14:13:35.803Z</time></trkpt><trkpt lat="43.4408323" lon="13.117752"><ele>471.0</ele><time>2026-05-01T14:13:36.801Z</time></trkpt><trkpt lat="43.4407205" lon="13.117803"><ele>471.0</ele><time>2026-05-01T14:13:37.802Z</time></trkpt><trkpt lat="43.4406072" lon="13.1178548"><ele>471.0</ele><time>2026-05-01T14:13:38.801Z</time></trkpt><trkpt lat="43.4404899" lon="13.1179094"><ele>471.0</ele><time>2026-05-01T14:13:39.801Z</time></trkpt><trkpt lat="43.4403716" lon="13.1179679"><ele>469.0</ele><time>2026-05-01T14:13:40.802Z</time></trkpt><trkpt lat="43.4402528" lon="13.1180267"><ele>467.0</ele><time>2026-05-01T14:13:41.802Z</time></trkpt><trkpt lat="43.4401362" lon="13.1180812"><ele>465.0</ele><time>2026-05-01T14:13:42.802Z</time></trkpt><trkpt lat="43.4400147" lon="13.1181426"><ele>463.0</ele><time>2026-05-01T14:13:43.802Z</time></trkpt><trkpt lat="43.4398976" lon="13.1182073"><ele>462.0</ele><time>2026-05-01T14:13:44.802Z</time></trkpt><trkpt lat="43.4397769" lon="13.118269"><ele>461.0</ele><time>2026-05-01T14:13:45.801Z</time></trkpt><trkpt lat="43.4396504" lon="13.1183359"><ele>460.0</ele><time>2026-05-01T14:13:46.802Z</time></trkpt><trkpt lat="43.4395247" lon="13.1184011"><ele>459.0</ele><time>2026-05-01T14:13:47.802Z</time></trkpt><trkpt lat="43.4393967" lon="13.1184708"><ele>459.0</ele><time>2026-05-01T14:13:48.801Z</time></trkpt><trkpt lat="43.4392682" lon="13.1185387"><ele>459.0</ele><time>2026-05-01T14:13:49.802Z</time></trkpt><trkpt lat="43.4391378" lon="13.1186042"><ele>459.0</ele><time>2026-05-01T14:13:50.802Z</time></trkpt><trkpt lat="43.4390093" lon="13.1186641"><ele>459.0</ele><time>2026-05-01T14:13:51.802Z</time></trkpt><trkpt lat="43.4388823" lon="13.1187094"><ele>458.75</ele><time>2026-05-01T14:13:52.801Z</time></trkpt><trkpt lat="43.4387581" lon="13.1187286"><ele>458.5</ele><time>2026-05-01T14:13:53.803Z</time></trkpt><trkpt lat="43.4386426" lon="13.1186969"><ele>458.25</ele><time>2026-05-01T14:13:54.801Z</time></trkpt><trkpt lat="43.4385532" lon="13.1186092"><ele>458.0</ele><time>2026-05-01T14:13:55.802Z</time></trkpt><trkpt lat="43.4384861" lon="13.118492"><ele>458.0</ele><time>2026-05-01T14:13:56.801Z</time></trkpt><trkpt lat="43.4384078" lon="13.1183963"><ele>457.99999999999994</ele><time>2026-05-01T14:13:57.802Z</time></trkpt><trkpt lat="43.4383023" lon="13.1183624"><ele>457.99999999999994</ele><time>2026-05-01T14:13:58.802Z</time></trkpt><trkpt lat="43.4382028" lon="13.1183857"><ele>458.0</ele><time>2026-05-01T14:13:59.802Z</time></trkpt><trkpt lat="43.4381076" lon="13.1184503"><ele>458.0</ele><time>2026-05-01T14:14:00.802Z</time></trkpt><trkpt lat="43.4380176" lon="13.1185394"><ele>456.59999999999997</ele><time>2026-05-01T14:14:01.802Z</time></trkpt><trkpt lat="43.4379375" lon="13.1186474"><ele>455.19999999999993</ele><time>2026-05-01T14:14:02.802Z</time></trkpt><trkpt lat="43.4378642" lon="13.1187594"><ele>453.8</ele><time>2026-05-01T14:14:03.802Z</time></trkpt><trkpt lat="43.4377968" lon="13.1188727"><ele>452.4</ele><time>2026-05-01T14:14:04.801Z</time></trkpt><trkpt lat="43.4377323" lon="13.1189864"><ele>451.0</ele><time>2026-05-01T14:14:05.801Z</time></trkpt><trkpt lat="43.4376637" lon="13.1191062"><ele>451.0</ele><time>2026-05-01T14:14:06.802Z</time></trkpt><trkpt lat="43.4375933" lon="13.1192257"><ele>451.0</ele><time>2026-05-01T14:14:07.802Z</time></trkpt><trkpt lat="43.4375086" lon="13.119332"><ele>451.0</ele><time>2026-05-01T14:14:08.802Z</time></trkpt><trkpt lat="43.4374114" lon="13.1194144"><ele>451.0</ele><time>2026-05-01T14:14:09.802Z</time></trkpt><trkpt lat="43.4373113" lon="13.1194826"><ele>451.0</ele><time>2026-05-01T14:14:10.802Z</time></trkpt><trkpt lat="43.4372131" lon="13.119563"><ele>451.0</ele><time>2026-05-01T14:14:11.801Z</time></trkpt><trkpt lat="43.4371256" lon="13.1196637"><ele>451.0</ele><time>2026-05-01T14:14:12.802Z</time></trkpt><trkpt lat="43.4370507" lon="13.1197903"><ele>451.0</ele><time>2026-05-01T14:14:13.801Z</time></trkpt><trkpt lat="43.436992" lon="13.119935"><ele>446.75</ele><time>2026-05-01T14:14:14.802Z</time></trkpt><trkpt lat="43.4369534" lon="13.1200872"><ele>442.5</ele><time>2026-05-01T14:14:15.803Z</time></trkpt><trkpt lat="43.4369233" lon="13.1202389"><ele>438.25</ele><time>2026-05-01T14:14:16.802Z</time></trkpt><trkpt lat="43.4368972" lon="13.1203927"><ele>434.0</ele><time>2026-05-01T14:14:17.802Z</time></trkpt><trkpt lat="43.4368641" lon="13.1205492"><ele>434.0</ele><time>2026-05-01T14:14:18.801Z</time></trkpt><trkpt lat="43.4368273" lon="13.1207083"><ele>434.0</ele><time>2026-05-01T14:14:19.803Z</time></trkpt><trkpt lat="43.4367797" lon="13.1208655"><ele>434.0</ele><time>2026-05-01T14:14:20.802Z</time></trkpt><trkpt lat="43.4367174" lon="13.1210165"><ele>434.0</ele><time>2026-05-01T14:14:21.801Z</time></trkpt><trkpt lat="43.436645" lon="13.1211595"><ele>434.25</ele><time>2026-05-01T14:14:22.801Z</time></trkpt><trkpt lat="43.4365697" lon="13.1212996"><ele>434.5</ele><time>2026-05-01T14:14:23.803Z</time></trkpt><trkpt lat="43.4364929" lon="13.1214502"><ele>434.75</ele><time>2026-05-01T14:14:24.802Z</time></trkpt><trkpt lat="43.4364134" lon="13.1216011"><ele>435.0</ele><time>2026-05-01T14:14:25.801Z</time></trkpt><trkpt lat="43.4363338" lon="13.1217591"><ele>432.5</ele><time>2026-05-01T14:14:26.801Z</time></trkpt><trkpt lat="43.4362545" lon="13.1219218"><ele>430.0</ele><time>2026-05-01T14:14:27.801Z</time></trkpt><trkpt lat="43.4361721" lon="13.122092"><ele>427.5</ele><time>2026-05-01T14:14:28.802Z</time></trkpt><trkpt lat="43.4360893" lon="13.122266"><ele>425.0</ele><time>2026-05-01T14:14:29.802Z</time></trkpt><trkpt lat="43.4360084" lon="13.1224423"><ele>425.0</ele><time>2026-05-01T14:14:30.802Z</time></trkpt><trkpt lat="43.4359293" lon="13.1226221"><ele>425.0</ele><time>2026-05-01T14:14:31.802Z</time></trkpt><trkpt lat="43.4358478" lon="13.1228002"><ele>425.0</ele><time>2026-05-01T14:14:32.801Z</time></trkpt><trkpt lat="43.4357661" lon="13.1229718"><ele>425.0</ele><time>2026-05-01T14:14:33.801Z</time></trkpt><trkpt lat="43.4356865" lon="13.1231415"><ele>425.0</ele><time>2026-05-01T14:14:34.803Z</time></trkpt><trkpt lat="43.4356096" lon="13.1233012"><ele>425.0</ele><time>2026-05-01T14:14:35.801Z</time></trkpt><trkpt lat="43.4355234" lon="13.1234562"><ele>425.0</ele><time>2026-05-01T14:14:36.802Z</time></trkpt><trkpt lat="43.4354261" lon="13.1235993"><ele>425.5</ele><time>2026-05-01T14:14:37.802Z</time></trkpt><trkpt lat="43.4353178" lon="13.1237302"><ele>426.0</ele><time>2026-05-01T14:14:38.802Z</time></trkpt><trkpt lat="43.4352002" lon="13.1238518"><ele>426.5</ele><time>2026-05-01T14:14:39.802Z</time></trkpt><trkpt lat="43.4350766" lon="13.1239684"><ele>427.0</ele><time>2026-05-01T14:14:40.802Z</time></trkpt><trkpt lat="43.4349515" lon="13.124079"><ele>427.0</ele><time>2026-05-01T14:14:41.802Z</time></trkpt><trkpt lat="43.4348307" lon="13.1241905"><ele>427.0</ele><time>2026-05-01T14:14:42.802Z</time></trkpt><trkpt lat="43.4347173" lon="13.1243091"><ele>427.0</ele><time>2026-05-01T14:14:43.801Z</time></trkpt><trkpt lat="43.4346121" lon="13.1244361"><ele>427.0</ele><time>2026-05-01T14:14:44.802Z</time></trkpt><trkpt lat="43.4345113" lon="13.1245701"><ele>426.5</ele><time>2026-05-01T14:14:45.802Z</time></trkpt><trkpt lat="43.4344179" lon="13.1247124"><ele>426.0</ele><time>2026-05-01T14:14:46.801Z</time></trkpt><trkpt lat="43.4343293" lon="13.1248565"><ele>425.5</ele><time>2026-05-01T14:14:47.802Z</time></trkpt><trkpt lat="43.4342367" lon="13.1250072"><ele>425.0</ele><time>2026-05-01T14:14:48.802Z</time></trkpt><trkpt lat="43.4341478" lon="13.1251591"><ele>425.0</ele><time>2026-05-01T14:14:49.801Z</time></trkpt><trkpt lat="43.4340566" lon="13.1253089"><ele>425.0</ele><time>2026-05-01T14:14:50.801Z</time></trkpt><trkpt lat="43.4339614" lon="13.1254564"><ele>425.0</ele><time>2026-05-01T14:14:51.802Z</time></trkpt><trkpt lat="43.4338698" lon="13.1256084"><ele>425.0</ele><time>2026-05-01T14:14:52.802Z</time></trkpt><trkpt lat="43.4337771" lon="13.1257582"><ele>423.0</ele><time>2026-05-01T14:14:53.801Z</time></trkpt><trkpt lat="43.4336876" lon="13.1259079"><ele>421.0</ele><time>2026-05-01T14:14:54.801Z</time></trkpt><trkpt lat="43.4335967" lon="13.12606"><ele>419.0</ele><time>2026-05-01T14:14:55.801Z</time></trkpt><trkpt lat="43.4335054" lon="13.1262122"><ele>417.0</ele><time>2026-05-01T14:14:56.802Z</time></trkpt><trkpt lat="43.4334108" lon="13.126369"><ele>417.0</ele><time>2026-05-01T14:14:57.802Z</time></trkpt><trkpt lat="43.4333159" lon="13.1265231"><ele>417.0</ele><time>2026-05-01T14:14:58.801Z</time></trkpt><trkpt lat="43.4332222" lon="13.1266752"><ele>417.0</ele><time>2026-05-01T14:14:59.802Z</time></trkpt><trkpt lat="43.4331318" lon="13.1268176"><ele>417.0</ele><time>2026-05-01T14:15:00.802Z</time></trkpt><trkpt lat="43.4330509" lon="13.1269404"><ele>416.20000000000005</ele><time>2026-05-01T14:15:01.802Z</time></trkpt><trkpt lat="43.4329734" lon="13.1270559"><ele>415.4</ele><time>2026-05-01T14:15:02.802Z</time></trkpt><trkpt lat="43.432906" lon="13.1271636"><ele>414.6</ele><time>2026-05-01T14:15:03.801Z</time></trkpt><trkpt lat="43.4328441" lon="13.127264"><ele>413.79999999999995</ele><time>2026-05-01T14:15:04.802Z</time></trkpt><trkpt lat="43.4327808" lon="13.1273527"><ele>413.0</ele><time>2026-05-01T14:15:05.803Z</time></trkpt><trkpt lat="43.432718" lon="13.1274367"><ele>415.4</ele><time>2026-05-01T14:15:06.802Z</time></trkpt><trkpt lat="43.4326512" lon="13.1275213"><ele>417.79999999999995</ele><time>2026-05-01T14:15:07.802Z</time></trkpt><trkpt lat="43.4325772" lon="13.1276009"><ele>420.2</ele><time>2026-05-01T14:15:08.802Z</time></trkpt><trkpt lat="43.4325036" lon="13.1276855"><ele>422.6</ele><time>2026-05-01T14:15:09.801Z</time></trkpt><trkpt lat="43.4324318" lon="13.1277722"><ele>425.0</ele><time>2026-05-01T14:15:10.801Z</time></trkpt><trkpt lat="43.4323616" lon="13.1278534"><ele>424.99999999999994</ele><time>2026-05-01T14:15:11.803Z</time></trkpt><trkpt lat="43.4322933" lon="13.1279357"><ele>425.0</ele><time>2026-05-01T14:15:12.802Z</time></trkpt><trkpt lat="43.4322295" lon="13.1280112"><ele>425.0</ele><time>2026-05-01T14:15:13.801Z</time></trkpt><trkpt lat="43.4321711" lon="13.1280808"><ele>425.0</ele><time>2026-05-01T14:15:14.801Z</time></trkpt><trkpt lat="43.4321008" lon="13.1281951"><ele>424.99999999999994</ele><time>2026-05-01T14:15:16.801Z</time></trkpt><trkpt lat="43.4320962" lon="13.1283044"><ele>425.0</ele><time>2026-05-01T14:15:18.802Z</time></trkpt><trkpt lat="43.4320899" lon="13.1284277"><ele>424.2</ele><time>2026-05-01T14:15:20.802Z</time></trkpt><trkpt lat="43.4320788" lon="13.1285375"><ele>423.4</ele><time>2026-05-01T14:15:22.801Z</time></trkpt><trkpt lat="43.4320638" lon="13.1286568"><ele>422.6</ele><time>2026-05-01T14:15:24.801Z</time></trkpt><trkpt lat="43.4320426" lon="13.1287866"><ele>421.8</ele><time>2026-05-01T14:15:26.802Z</time></trkpt><trkpt lat="43.4320162" lon="13.128945"><ele>421.0</ele><time>2026-05-01T14:15:28.802Z</time></trkpt><trkpt lat="43.4319803" lon="13.1291091"><ele>420.5714285714286</ele><time>2026-05-01T14:15:30.802Z</time></trkpt><trkpt lat="43.4319593" lon="13.1291961"><ele>420.14285714285717</ele><time>2026-05-01T14:15:31.801Z</time></trkpt><trkpt lat="43.4319393" lon="13.1292874"><ele>419.7142857142857</ele><time>2026-05-01T14:15:32.802Z</time></trkpt><trkpt lat="43.4319263" lon="13.1293887"><ele>419.28571428571433</ele><time>2026-05-01T14:15:33.803Z</time></trkpt><trkpt lat="43.4319105" lon="13.1294905"><ele>418.85714285714283</ele><time>2026-05-01T14:15:34.802Z</time></trkpt><trkpt lat="43.4318989" lon="13.1295971"><ele>418.42857142857144</ele><time>2026-05-01T14:15:35.801Z</time></trkpt><trkpt lat="43.4318741" lon="13.1297058"><ele>418.0</ele><time>2026-05-01T14:15:36.801Z</time></trkpt><trkpt lat="43.431847" lon="13.1298129"><ele>416.33333333333337</ele><time>2026-05-01T14:15:37.802Z</time></trkpt><trkpt lat="43.4318199" lon="13.1299191"><ele>414.6666666666667</ele><time>2026-05-01T14:15:38.801Z</time></trkpt><trkpt lat="43.4317891" lon="13.1300182"><ele>413.0</ele><time>2026-05-01T14:15:39.801Z</time></trkpt><trkpt lat="43.4317594" lon="13.1301174"><ele>411.33333333333337</ele><time>2026-05-01T14:15:40.803Z</time></trkpt><trkpt lat="43.4317284" lon="13.1302193"><ele>409.6666666666667</ele><time>2026-05-01T14:15:41.802Z</time></trkpt><trkpt lat="43.4316992" lon="13.1303084"><ele>408.0</ele><time>2026-05-01T14:15:42.801Z</time></trkpt><trkpt lat="43.4316701" lon="13.1303944"><ele>408.0</ele><time>2026-05-01T14:15:43.802Z</time></trkpt><trkpt lat="43.4316386" lon="13.1304762"><ele>408.0</ele><time>2026-05-01T14:15:44.802Z</time></trkpt><trkpt lat="43.4316152" lon="13.1305654"><ele>408.0</ele><time>2026-05-01T14:15:45.802Z</time></trkpt><trkpt lat="43.4315961" lon="13.1306642"><ele>408.0</ele><time>2026-05-01T14:15:46.802Z</time></trkpt><trkpt lat="43.4315781" lon="13.1307664"><ele>408.0</ele><time>2026-05-01T14:15:47.801Z</time></trkpt><trkpt lat="43.4315618" lon="13.1308679"><ele>408.0</ele><time>2026-05-01T14:15:48.801Z</time></trkpt><trkpt lat="43.4315497" lon="13.1309716"><ele>408.0</ele><time>2026-05-01T14:15:49.803Z</time></trkpt><trkpt lat="43.4315338" lon="13.1310757"><ele>406.0</ele><time>2026-05-01T14:15:50.802Z</time></trkpt><trkpt lat="43.4315138" lon="13.1311814"><ele>404.0</ele><time>2026-05-01T14:15:51.801Z</time></trkpt><trkpt lat="43.4314957" lon="13.1312908"><ele>402.0</ele><time>2026-05-01T14:15:52.802Z</time></trkpt><trkpt lat="43.4314735" lon="13.1314068"><ele>400.0</ele><time>2026-05-01T14:15:53.801Z</time></trkpt><trkpt lat="43.4314384" lon="13.1315211"><ele>398.0</ele><time>2026-05-01T14:15:54.802Z</time></trkpt><trkpt lat="43.4313951" lon="13.1316398"><ele>396.0</ele><time>2026-05-01T14:15:55.801Z</time></trkpt><trkpt lat="43.4313483" lon="13.1317519"><ele>399.0</ele><time>2026-05-01T14:15:56.802Z</time></trkpt><trkpt lat="43.4312901" lon="13.131856"><ele>402.0</ele><time>2026-05-01T14:15:57.802Z</time></trkpt><trkpt lat="43.4312261" lon="13.1319605"><ele>405.0</ele><time>2026-05-01T14:15:58.802Z</time></trkpt><trkpt lat="43.4311627" lon="13.1320571"><ele>408.0</ele><time>2026-05-01T14:15:59.802Z</time></trkpt><trkpt lat="43.4311001" lon="13.132142"><ele>411.0</ele><time>2026-05-01T14:16:00.801Z</time></trkpt><trkpt lat="43.4310442" lon="13.1322309"><ele>411.0</ele><time>2026-05-01T14:16:01.801Z</time></trkpt><trkpt lat="43.4310095" lon="13.1323246"><ele>411.0</ele><time>2026-05-01T14:16:02.802Z</time></trkpt><trkpt lat="43.4309837" lon="13.1324246"><ele>411.0</ele><time>2026-05-01T14:16:03.802Z</time></trkpt><trkpt lat="43.4309674" lon="13.1325337"><ele>411.0</ele><time>2026-05-01T14:16:04.801Z</time></trkpt><trkpt lat="43.4309577" lon="13.1326472"><ele>411.0</ele><time>2026-05-01T14:16:05.801Z</time></trkpt><trkpt lat="43.430944" lon="13.1327558"><ele>411.0</ele><time>2026-05-01T14:16:06.802Z</time></trkpt><trkpt lat="43.430925" lon="13.1328606"><ele>408.20000000000005</ele><time>2026-05-01T14:16:07.801Z</time></trkpt><trkpt lat="43.4308974" lon="13.1329663"><ele>405.40000000000003</ele><time>2026-05-01T14:16:08.802Z</time></trkpt><trkpt lat="43.4308685" lon="13.1330504"><ele>402.6</ele><time>2026-05-01T14:16:09.801Z</time></trkpt><trkpt lat="43.4308097" lon="13.1331997"><ele>399.8</ele><time>2026-05-01T14:16:11.801Z</time></trkpt><trkpt lat="43.4307551" lon="13.1333486"><ele>397.0</ele><time>2026-05-01T14:16:13.802Z</time></trkpt><trkpt lat="43.4307026" lon="13.1334895"><ele>394.5</ele><time>2026-05-01T14:16:15.802Z</time></trkpt><trkpt lat="43.430642" lon="13.1336357"><ele>392.0</ele><time>2026-05-01T14:16:17.802Z</time></trkpt><trkpt lat="43.4305865" lon="13.1337754"><ele>389.5</ele><time>2026-05-01T14:16:19.802Z</time></trkpt><trkpt lat="43.4305276" lon="13.1339175"><ele>387.0</ele><time>2026-05-01T14:16:21.802Z</time></trkpt><trkpt lat="43.4304756" lon="13.134064"><ele>388.75</ele><time>2026-05-01T14:16:23.802Z</time></trkpt><trkpt lat="43.4304339" lon="13.1341953"><ele>390.5</ele><time>2026-05-01T14:16:25.802Z</time></trkpt><trkpt lat="43.4303964" lon="13.1343312"><ele>392.25</ele><time>2026-05-01T14:16:27.801Z</time></trkpt><trkpt lat="43.4303472" lon="13.1344831"><ele>394.0</ele><time>2026-05-01T14:16:29.802Z</time></trkpt><trkpt lat="43.4302964" lon="13.134641"><ele>394.0</ele><time>2026-05-01T14:16:31.802Z</time></trkpt><trkpt lat="43.4302466" lon="13.134789"><ele>394.0</ele><time>2026-05-01T14:16:33.801Z</time></trkpt><trkpt lat="43.4301972" lon="13.1349446"><ele>394.0</ele><time>2026-05-01T14:16:35.801Z</time></trkpt><trkpt lat="43.4301257" lon="13.135075"><ele>394.0</ele><time>2026-05-01T14:16:37.801Z</time></trkpt><trkpt lat="43.4300431" lon="13.1351928"><ele>393.00000000000006</ele><time>2026-05-01T14:16:39.801Z</time></trkpt><trkpt lat="43.4299644" lon="13.1353293"><ele>392.0</ele><time>2026-05-01T14:16:41.801Z</time></trkpt><trkpt lat="43.4299218" lon="13.1354003"><ele>391.0</ele><time>2026-05-01T14:16:42.802Z</time></trkpt><trkpt lat="43.4298376" lon="13.1355319"><ele>390.0</ele><time>2026-05-01T14:16:44.803Z</time></trkpt><trkpt lat="43.4297936" lon="13.1355954"><ele>389.00000000000006</ele><time>2026-05-01T14:16:45.802Z</time></trkpt><trkpt lat="43.4297556" lon="13.1356667"><ele>388.0</ele><time>2026-05-01T14:16:46.802Z</time></trkpt><trkpt lat="43.4296901" lon="13.135809"><ele>388.33333333333337</ele><time>2026-05-01T14:16:48.802Z</time></trkpt><trkpt lat="43.4296312" lon="13.1359494"><ele>388.6666666666667</ele><time>2026-05-01T14:16:50.801Z</time></trkpt><trkpt lat="43.4295897" lon="13.1360212"><ele>389.0</ele><time>2026-05-01T14:16:51.802Z</time></trkpt><trkpt lat="43.429541" lon="13.1360902"><ele>389.33333333333337</ele><time>2026-05-01T14:16:52.801Z</time></trkpt><trkpt lat="43.4294954" lon="13.1361567"><ele>389.6666666666667</ele><time>2026-05-01T14:16:53.801Z</time></trkpt><trkpt lat="43.4294478" lon="13.1362166"><ele>390.0</ele><time>2026-05-01T14:16:54.801Z</time></trkpt><trkpt lat="43.429395" lon="13.1362717"><ele>390.0</ele><time>2026-05-01T14:16:55.801Z</time></trkpt><trkpt lat="43.4293386" lon="13.1363335"><ele>390.0</ele><time>2026-05-01T14:16:56.802Z</time></trkpt><trkpt lat="43.4292875" lon="13.1363932"><ele>390.0</ele><time>2026-05-01T14:16:57.801Z</time></trkpt><trkpt lat="43.429235" lon="13.1364431"><ele>390.0</ele><time>2026-05-01T14:16:58.802Z</time></trkpt><trkpt lat="43.4291679" lon="13.1365056"><ele>390.0</ele><time>2026-05-01T14:16:59.802Z</time></trkpt><trkpt lat="43.4290826" lon="13.1366028"><ele>390.0</ele><time>2026-05-01T14:17:01.801Z</time></trkpt><trkpt lat="43.4289821" lon="13.1367088"><ele>389.42857142857144</ele><time>2026-05-01T14:17:03.802Z</time></trkpt><trkpt lat="43.4289312" lon="13.136774"><ele>388.85714285714283</ele><time>2026-05-01T14:17:04.802Z</time></trkpt><trkpt lat="43.4288834" lon="13.1368516"><ele>388.28571428571433</ele><time>2026-05-01T14:17:05.801Z</time></trkpt><trkpt lat="43.4288387" lon="13.1369377"><ele>387.7142857142857</ele><time>2026-05-01T14:17:06.801Z</time></trkpt><trkpt lat="43.4287919" lon="13.1370234"><ele>387.14285714285717</ele><time>2026-05-01T14:17:07.801Z</time></trkpt><trkpt lat="43.4287489" lon="13.1371079"><ele>386.5714285714286</ele><time>2026-05-01T14:17:08.801Z</time></trkpt><trkpt lat="43.428706" lon="13.1371902"><ele>386.0</ele><time>2026-05-01T14:17:09.802Z</time></trkpt><trkpt lat="43.4286676" lon="13.1372627"><ele>384.14285714285717</ele><time>2026-05-01T14:17:10.802Z</time></trkpt><trkpt lat="43.4286006" lon="13.1374029"><ele>382.2857142857143</ele><time>2026-05-01T14:17:12.801Z</time></trkpt><trkpt lat="43.4285697" lon="13.1374785"><ele>380.42857142857144</ele><time>2026-05-01T14:17:13.803Z</time></trkpt><trkpt lat="43.4285353" lon="13.1375515"><ele>378.57142857142856</ele><time>2026-05-01T14:17:14.801Z</time></trkpt><trkpt lat="43.4284979" lon="13.137622"><ele>376.7142857142857</ele><time>2026-05-01T14:17:15.802Z</time></trkpt><trkpt lat="43.4284574" lon="13.1376894"><ele>374.8571428571429</ele><time>2026-05-01T14:17:16.802Z</time></trkpt><trkpt lat="43.428414" lon="13.1377587"><ele>373.0</ele><time>2026-05-01T14:17:17.801Z</time></trkpt><trkpt lat="43.4283713" lon="13.1378265"><ele>373.0</ele><time>2026-05-01T14:17:18.802Z</time></trkpt><trkpt lat="43.4283281" lon="13.1378974"><ele>373.0</ele><time>2026-05-01T14:17:19.801Z</time></trkpt><trkpt lat="43.4282958" lon="13.1380588"><ele>373.0</ele><time>2026-05-01T14:17:21.801Z</time></trkpt><trkpt lat="43.4283229" lon="13.13823"><ele>373.0</ele><time>2026-05-01T14:17:23.801Z</time></trkpt><trkpt lat="43.4283371" lon="13.1383217"><ele>373.0</ele><time>2026-05-01T14:17:24.801Z</time></trkpt><trkpt lat="43.4283415" lon="13.1384131"><ele>372.8571428571429</ele><time>2026-05-01T14:17:25.802Z</time></trkpt><trkpt lat="43.4283421" lon="13.138504"><ele>372.7142857142857</ele><time>2026-05-01T14:17:26.801Z</time></trkpt><trkpt lat="43.4283381" lon="13.1385937"><ele>372.57142857142856</ele><time>2026-05-01T14:17:27.801Z</time></trkpt><trkpt lat="43.4283315" lon="13.1386805"><ele>372.42857142857144</ele><time>2026-05-01T14:17:28.801Z</time></trkpt><trkpt lat="43.4283212" lon="13.1387703"><ele>372.2857142857143</ele><time>2026-05-01T14:17:29.802Z</time></trkpt><trkpt lat="43.4283037" lon="13.1388582"><ele>372.14285714285717</ele><time>2026-05-01T14:17:30.801Z</time></trkpt><trkpt lat="43.4282852" lon="13.1389476"><ele>372.0</ele><time>2026-05-01T14:17:31.801Z</time></trkpt><trkpt lat="43.4282663" lon="13.1390337"><ele>372.6</ele><time>2026-05-01T14:17:32.802Z</time></trkpt><trkpt lat="43.4282546" lon="13.1391201"><ele>373.20000000000005</ele><time>2026-05-01T14:17:33.802Z</time></trkpt><trkpt lat="43.4282481" lon="13.1392072"><ele>373.8</ele><time>2026-05-01T14:17:34.802Z</time></trkpt><trkpt lat="43.4282393" lon="13.1393692"><ele>374.4</ele><time>2026-05-01T14:17:36.802Z</time></trkpt><trkpt lat="43.4282286" lon="13.139535"><ele>375.0</ele><time>2026-05-01T14:17:38.802Z</time></trkpt><trkpt lat="43.4282189" lon="13.1396874"><ele>375.0</ele><time>2026-05-01T14:17:40.802Z</time></trkpt><trkpt lat="43.4282256" lon="13.1398457"><ele>375.0</ele><time>2026-05-01T14:17:42.802Z</time></trkpt><trkpt lat="43.4282283" lon="13.1400047"><ele>375.0</ele><time>2026-05-01T14:17:44.802Z</time></trkpt><trkpt lat="43.4282524" lon="13.1401619"><ele>375.0</ele><time>2026-05-01T14:17:46.801Z</time></trkpt><trkpt lat="43.4282829" lon="13.1402383"><ele>375.0</ele><time>2026-05-01T14:17:47.803Z</time></trkpt><trkpt lat="43.428322" lon="13.1403109"><ele>374.0</ele><time>2026-05-01T14:17:48.802Z</time></trkpt><trkpt lat="43.4283666" lon="13.1403857"><ele>373.0</ele><time>2026-05-01T14:17:49.801Z</time></trkpt><trkpt lat="43.4284158" lon="13.1404706"><ele>372.0</ele><time>2026-05-01T14:17:50.801Z</time></trkpt><trkpt lat="43.4284594" lon="13.1405664"><ele>371.0</ele><time>2026-05-01T14:17:51.802Z</time></trkpt><trkpt lat="43.4285023" lon="13.1406704"><ele>370.0</ele><time>2026-05-01T14:17:52.801Z</time></trkpt><trkpt lat="43.4285392" lon="13.1407788"><ele>369.0</ele><time>2026-05-01T14:17:53.801Z</time></trkpt><trkpt lat="43.428575" lon="13.1408897"><ele>369.0</ele><time>2026-05-01T14:17:54.802Z</time></trkpt><trkpt lat="43.428605" lon="13.1410095"><ele>369.0</ele><time>2026-05-01T14:17:55.801Z</time></trkpt><trkpt lat="43.4286323" lon="13.1411227"><ele>369.0</ele><time>2026-05-01T14:17:56.802Z</time></trkpt><trkpt lat="43.4286657" lon="13.1412223"><ele>369.0</ele><time>2026-05-01T14:17:57.802Z</time></trkpt><trkpt lat="43.4287038" lon="13.1413145"><ele>369.0</ele><time>2026-05-01T14:17:58.802Z</time></trkpt><trkpt lat="43.4287512" lon="13.1413936"><ele>369.0</ele><time>2026-05-01T14:17:59.801Z</time></trkpt><trkpt lat="43.4288112" lon="13.1414716"><ele>367.8333333333333</ele><time>2026-05-01T14:18:00.802Z</time></trkpt><trkpt lat="43.4288796" lon="13.1415398"><ele>366.6666666666667</ele><time>2026-05-01T14:18:01.801Z</time></trkpt><trkpt lat="43.4289488" lon="13.1416081"><ele>365.5</ele><time>2026-05-01T14:18:02.802Z</time></trkpt><trkpt lat="43.4290118" lon="13.141676"><ele>364.33333333333337</ele><time>2026-05-01T14:18:03.802Z</time></trkpt><trkpt lat="43.4290695" lon="13.1417535"><ele>363.1666666666667</ele><time>2026-05-01T14:18:04.802Z</time></trkpt><trkpt lat="43.4291308" lon="13.141826"><ele>362.0</ele><time>2026-05-01T14:18:05.802Z</time></trkpt><trkpt lat="43.4291948" lon="13.1418932"><ele>362.0</ele><time>2026-05-01T14:18:06.802Z</time></trkpt><trkpt lat="43.4292618" lon="13.1419535"><ele>362.0</ele><time>2026-05-01T14:18:07.802Z</time></trkpt><trkpt lat="43.4293276" lon="13.1420117"><ele>362.0</ele><time>2026-05-01T14:18:08.803Z</time></trkpt><trkpt lat="43.4293925" lon="13.1420621"><ele>362.0</ele><time>2026-05-01T14:18:09.802Z</time></trkpt><trkpt lat="43.4294564" lon="13.142108"><ele>362.0</ele><time>2026-05-01T14:18:10.802Z</time></trkpt><trkpt lat="43.4295173" lon="13.1421553"><ele>362.0</ele><time>2026-05-01T14:18:11.802Z</time></trkpt><trkpt lat="43.429577" lon="13.1422013"><ele>362.0</ele><time>2026-05-01T14:18:12.801Z</time></trkpt><trkpt lat="43.4296408" lon="13.1422458"><ele>360.7142857142857</ele><time>2026-05-01T14:18:13.802Z</time></trkpt><trkpt lat="43.4297005" lon="13.1422971"><ele>359.42857142857144</ele><time>2026-05-01T14:18:14.801Z</time></trkpt><trkpt lat="43.4297571" lon="13.1423496"><ele>358.1428571428571</ele><time>2026-05-01T14:18:15.801Z</time></trkpt><trkpt lat="43.429808" lon="13.1424133"><ele>356.8571428571429</ele><time>2026-05-01T14:18:16.802Z</time></trkpt><trkpt lat="43.4298529" lon="13.1424895"><ele>355.5714285714286</ele><time>2026-05-01T14:18:17.802Z</time></trkpt><trkpt lat="43.4298986" lon="13.142567"><ele>354.2857142857143</ele><time>2026-05-01T14:18:18.802Z</time></trkpt><trkpt lat="43.4299403" lon="13.1426457"><ele>353.0</ele><time>2026-05-01T14:18:19.801Z</time></trkpt><trkpt lat="43.4299823" lon="13.1427246"><ele>353.0</ele><time>2026-05-01T14:18:20.802Z</time></trkpt><trkpt lat="43.4300268" lon="13.1428071"><ele>353.0</ele><time>2026-05-01T14:18:21.801Z</time></trkpt><trkpt lat="43.430069" lon="13.1428908"><ele>353.0</ele><time>2026-05-01T14:18:22.802Z</time></trkpt><trkpt lat="43.4301089" lon="13.1429744"><ele>353.0</ele><time>2026-05-01T14:18:23.802Z</time></trkpt><trkpt lat="43.4301527" lon="13.143056"><ele>353.0</ele><time>2026-05-01T14:18:24.802Z</time></trkpt><trkpt lat="43.4302016" lon="13.143136"><ele>353.0</ele><time>2026-05-01T14:18:25.802Z</time></trkpt><trkpt lat="43.4302464" lon="13.1432145"><ele>353.0</ele><time>2026-05-01T14:18:26.801Z</time></trkpt><trkpt lat="43.43029" lon="13.1432944"><ele>353.0</ele><time>2026-05-01T14:18:27.803Z</time></trkpt><trkpt lat="43.4303327" lon="13.1433673"><ele>353.0</ele><time>2026-05-01T14:18:28.802Z</time></trkpt><trkpt lat="43.4304025" lon="13.1435037"><ele>353.0</ele><time>2026-05-01T14:18:30.801Z</time></trkpt><trkpt lat="43.4304666" lon="13.1436491"><ele>353.0</ele><time>2026-05-01T14:18:32.801Z</time></trkpt><trkpt lat="43.430499" lon="13.1437278"><ele>353.0</ele><time>2026-05-01T14:18:33.802Z</time></trkpt><trkpt lat="43.4305296" lon="13.1438125"><ele>353.0</ele><time>2026-05-01T14:18:34.801Z</time></trkpt><trkpt lat="43.4305584" lon="13.1439003"><ele>350.57142857142856</ele><time>2026-05-01T14:18:35.802Z</time></trkpt><trkpt lat="43.430591" lon="13.1439926"><ele>348.14285714285717</ele><time>2026-05-01T14:18:36.801Z</time></trkpt><trkpt lat="43.4306254" lon="13.1440835"><ele>345.7142857142857</ele><time>2026-05-01T14:18:37.802Z</time></trkpt><trkpt lat="43.4306619" lon="13.1441739"><ele>343.2857142857143</ele><time>2026-05-01T14:18:38.801Z</time></trkpt><trkpt lat="43.4306952" lon="13.1442673"><ele>340.8571428571429</ele><time>2026-05-01T14:18:39.802Z</time></trkpt><trkpt lat="43.4307263" lon="13.1443571"><ele>338.42857142857144</ele><time>2026-05-01T14:18:40.802Z</time></trkpt><trkpt lat="43.43076" lon="13.1444387"><ele>336.0</ele><time>2026-05-01T14:18:41.802Z</time></trkpt><trkpt lat="43.4307942" lon="13.1445153"><ele>336.0</ele><time>2026-05-01T14:18:42.802Z</time></trkpt><trkpt lat="43.4308254" lon="13.1445949"><ele>336.0</ele><time>2026-05-01T14:18:43.801Z</time></trkpt><trkpt lat="43.4308577" lon="13.1446698"><ele>336.0</ele><time>2026-05-01T14:18:44.802Z</time></trkpt><trkpt lat="43.4308929" lon="13.1447439"><ele>336.0</ele><time>2026-05-01T14:18:45.802Z</time></trkpt><trkpt lat="43.4309308" lon="13.144815"><ele>336.0</ele><time>2026-05-01T14:18:46.802Z</time></trkpt><trkpt lat="43.4309718" lon="13.1448823"><ele>336.0</ele><time>2026-05-01T14:18:47.801Z</time></trkpt><trkpt lat="43.4310194" lon="13.1449512"><ele>336.0</ele><time>2026-05-01T14:18:48.802Z</time></trkpt><trkpt lat="43.4310718" lon="13.1450231"><ele>334.8333333333333</ele><time>2026-05-01T14:18:49.801Z</time></trkpt><trkpt lat="43.4311297" lon="13.1450934"><ele>333.6666666666667</ele><time>2026-05-01T14:18:50.801Z</time></trkpt><trkpt lat="43.4311909" lon="13.1451679"><ele>332.5</ele><time>2026-05-01T14:18:51.802Z</time></trkpt><trkpt lat="43.4312545" lon="13.1452442"><ele>331.33333333333337</ele><time>2026-05-01T14:18:52.802Z</time></trkpt><trkpt lat="43.4313227" lon="13.1453195"><ele>330.1666666666667</ele><time>2026-05-01T14:18:53.802Z</time></trkpt><trkpt lat="43.4313903" lon="13.1453877"><ele>329.0</ele><time>2026-05-01T14:18:54.801Z</time></trkpt><trkpt lat="43.4314587" lon="13.1454496"><ele>328.1666666666667</ele><time>2026-05-01T14:18:55.802Z</time></trkpt><trkpt lat="43.431526" lon="13.1455036"><ele>327.33333333333337</ele><time>2026-05-01T14:18:56.802Z</time></trkpt><trkpt lat="43.4315947" lon="13.1455525"><ele>326.5</ele><time>2026-05-01T14:18:57.801Z</time></trkpt><trkpt lat="43.4316624" lon="13.1455976"><ele>325.6666666666667</ele><time>2026-05-01T14:18:58.802Z</time></trkpt><trkpt lat="43.431737" lon="13.145642"><ele>324.8333333333333</ele><time>2026-05-01T14:18:59.802Z</time></trkpt><trkpt lat="43.4318098" lon="13.145686"><ele>324.0</ele><time>2026-05-01T14:19:00.801Z</time></trkpt><trkpt lat="43.4318825" lon="13.1457417"><ele>322.59999999999997</ele><time>2026-05-01T14:19:01.801Z</time></trkpt><trkpt lat="43.4319566" lon="13.145802"><ele>321.2</ele><time>2026-05-01T14:19:02.8Z</time></trkpt><trkpt lat="43.4320338" lon="13.1458657"><ele>319.79999999999995</ele><time>2026-05-01T14:19:03.802Z</time></trkpt><trkpt lat="43.4321119" lon="13.1459303"><ele>318.4</ele><time>2026-05-01T14:19:04.8Z</time></trkpt><trkpt lat="43.4321945" lon="13.1459881"><ele>317.0</ele><time>2026-05-01T14:19:05.801Z</time></trkpt><trkpt lat="43.4322807" lon="13.1460473"><ele>315.6</ele><time>2026-05-01T14:19:06.801Z</time></trkpt><trkpt lat="43.4323634" lon="13.1461051"><ele>314.2</ele><time>2026-05-01T14:19:07.8Z</time></trkpt><trkpt lat="43.4324495" lon="13.1461634"><ele>312.8</ele><time>2026-05-01T14:19:08.8Z</time></trkpt><trkpt lat="43.4325372" lon="13.1462263"><ele>311.4</ele><time>2026-05-01T14:19:09.801Z</time></trkpt><trkpt lat="43.4326261" lon="13.146284"><ele>310.0</ele><time>2026-05-01T14:19:10.801Z</time></trkpt><trkpt lat="43.4327115" lon="13.1463382"><ele>310.0</ele><time>2026-05-01T14:19:11.801Z</time></trkpt><trkpt lat="43.4327975" lon="13.1463864"><ele>310.0</ele><time>2026-05-01T14:19:12.801Z</time></trkpt><trkpt lat="43.4328761" lon="13.1464215"><ele>310.0</ele><time>2026-05-01T14:19:13.801Z</time></trkpt><trkpt lat="43.4329391" lon="13.1464532"><ele>310.0</ele><time>2026-05-01T14:19:14.801Z</time></trkpt><trkpt lat="43.4330282" lon="13.1465466"><ele>310.0</ele><time>2026-05-01T14:19:16.801Z</time></trkpt><trkpt lat="43.4330786" lon="13.1466806"><ele>309.2</ele><time>2026-05-01T14:19:18.801Z</time></trkpt><trkpt lat="43.4331282" lon="13.1468289"><ele>308.4</ele><time>2026-05-01T14:19:20.801Z</time></trkpt><trkpt lat="43.4331755" lon="13.1469647"><ele>307.6</ele><time>2026-05-01T14:19:22.8Z</time></trkpt><trkpt lat="43.4332221" lon="13.147089"><ele>306.8</ele><time>2026-05-01T14:19:24.8Z</time></trkpt><trkpt lat="43.4332742" lon="13.1472209"><ele>306.0</ele><time>2026-05-01T14:19:26.801Z</time></trkpt><trkpt lat="43.4333133" lon="13.1473526"><ele>304.0</ele><time>2026-05-01T14:19:28.8Z</time></trkpt><trkpt lat="43.4333469" lon="13.1474815"><ele>302.0</ele><time>2026-05-01T14:19:30.801Z</time></trkpt><trkpt lat="43.4333681" lon="13.1476201"><ele>300.0</ele><time>2026-05-01T14:19:32.801Z</time></trkpt><trkpt lat="43.4333642" lon="13.1477593"><ele>298.0</ele><time>2026-05-01T14:19:34.8Z</time></trkpt><trkpt lat="43.4333364" lon="13.1478968"><ele>296.0</ele><time>2026-05-01T14:19:36.801Z</time></trkpt><trkpt lat="43.433271" lon="13.1480185"><ele>296.0</ele><time>2026-05-01T14:19:38.801Z</time></trkpt><trkpt lat="43.4331862" lon="13.1481296"><ele>296.0</ele><time>2026-05-01T14:19:40.801Z</time></trkpt><trkpt lat="43.4331364" lon="13.1481831"><ele>296.0</ele><time>2026-05-01T14:19:41.801Z</time></trkpt><trkpt lat="43.4330549" lon="13.1482835"><ele>296.0</ele><time>2026-05-01T14:19:43.8Z</time></trkpt><trkpt lat="43.4329775" lon="13.1483756"><ele>296.0</ele><time>2026-05-01T14:19:45.8Z</time></trkpt><trkpt lat="43.4329086" lon="13.1484626"><ele>292.83333333333337</ele><time>2026-05-01T14:19:47.801Z</time></trkpt><trkpt lat="43.4328477" lon="13.1485316"><ele>289.6666666666667</ele><time>2026-05-01T14:19:49.801Z</time></trkpt><trkpt lat="43.4327899" lon="13.1485834"><ele>286.5</ele><time>2026-05-01T14:19:52.801Z</time></trkpt><trkpt lat="43.4327084" lon="13.1486291"><ele>283.3333333333333</ele><time>2026-05-01T14:19:55.801Z</time></trkpt><trkpt lat="43.4326422" lon="13.1486407"><ele>280.16666666666663</ele><time>2026-05-01T14:19:57.8Z</time></trkpt><trkpt lat="43.4325532" lon="13.1486364"><ele>277.0</ele><time>2026-05-01T14:19:59.801Z</time></trkpt><trkpt lat="43.4324721" lon="13.1486136"><ele>277.0</ele><time>2026-05-01T14:20:01.801Z</time></trkpt><trkpt lat="43.4323986" lon="13.1485816"><ele>277.0</ele><time>2026-05-01T14:20:03.801Z</time></trkpt><trkpt lat="43.4323255" lon="13.1485399"><ele>277.0</ele><time>2026-05-01T14:20:05.8Z</time></trkpt><trkpt lat="43.4322631" lon="13.1484931"><ele>277.0</ele><time>2026-05-01T14:20:07.801Z</time></trkpt><trkpt lat="43.432212" lon="13.148432"><ele>277.0</ele><time>2026-05-01T14:20:09.801Z</time></trkpt><trkpt lat="43.4321523" lon="13.1483365"><ele>277.0</ele><time>2026-05-01T14:20:12.8Z</time></trkpt><trkpt lat="43.432094" lon="13.1482766"><ele>277.16666666666663</ele><time>2026-05-01T14:20:14.801Z</time></trkpt><trkpt lat="43.4320311" lon="13.1482995"><ele>277.3333333333333</ele><time>2026-05-01T14:20:16.801Z</time></trkpt><trkpt lat="43.4319914" lon="13.1484122"><ele>277.5</ele><time>2026-05-01T14:20:19.801Z</time></trkpt><trkpt lat="43.4319781" lon="13.1485083"><ele>277.6666666666667</ele><time>2026-05-01T14:20:21.801Z</time></trkpt><trkpt lat="43.4319777" lon="13.1486129"><ele>277.83333333333337</ele><time>2026-05-01T14:20:23.8Z</time></trkpt><trkpt lat="43.431996" lon="13.1487137"><ele>278.0</ele><time>2026-05-01T14:20:25.802Z</time></trkpt><trkpt lat="43.432034" lon="13.1488206"><ele>278.0</ele><time>2026-05-01T14:20:27.801Z</time></trkpt><trkpt lat="43.4320875" lon="13.1489173"><ele>278.0</ele><time>2026-05-01T14:20:29.801Z</time></trkpt><trkpt lat="43.432159" lon="13.1490147"><ele>278.0</ele><time>2026-05-01T14:20:31.8Z</time></trkpt><trkpt lat="43.4322334" lon="13.1490999"><ele>278.0</ele><time>2026-05-01T14:20:33.801Z</time></trkpt><trkpt lat="43.4322996" lon="13.1492087"><ele>278.0</ele><time>2026-05-01T14:20:35.8Z</time></trkpt><trkpt lat="43.4323577" lon="13.1493314"><ele>277.5</ele><time>2026-05-01T14:20:37.802Z</time></trkpt><trkpt lat="43.4324021" lon="13.1494759"><ele>277.0</ele><time>2026-05-01T14:20:39.8Z</time></trkpt><trkpt lat="43.4324326" lon="13.1496412"><ele>276.5</ele><time>2026-05-01T14:20:41.801Z</time></trkpt><trkpt lat="43.4324441" lon="13.1497319"><ele>276.0</ele><time>2026-05-01T14:20:42.801Z</time></trkpt><trkpt lat="43.4324544" lon="13.1498303"><ele>275.5</ele><time>2026-05-01T14:20:43.801Z</time></trkpt><trkpt lat="43.4324667" lon="13.1499187"><ele>275.0</ele><time>2026-05-01T14:20:44.8Z</time></trkpt><trkpt lat="43.4324756" lon="13.1500107"><ele>275.0</ele><time>2026-05-01T14:20:45.801Z</time></trkpt><trkpt lat="43.4324857" lon="13.1501126"><ele>275.0</ele><time>2026-05-01T14:20:46.801Z</time></trkpt><trkpt lat="43.4324914" lon="13.1502098"><ele>275.0</ele><time>2026-05-01T14:20:47.801Z</time></trkpt><trkpt lat="43.4324986" lon="13.1503089"><ele>275.0</ele><time>2026-05-01T14:20:48.801Z</time></trkpt><trkpt lat="43.4324999" lon="13.1504023"><ele>275.0</ele><time>2026-05-01T14:20:49.8Z</time></trkpt><trkpt lat="43.432498" lon="13.1505021"><ele>275.0</ele><time>2026-05-01T14:20:50.801Z</time></trkpt><trkpt lat="43.4324946" lon="13.150609"><ele>275.0</ele><time>2026-05-01T14:20:51.801Z</time></trkpt><trkpt lat="43.4324937" lon="13.1507163"><ele>276.6666666666667</ele><time>2026-05-01T14:20:52.8Z</time></trkpt><trkpt lat="43.4324966" lon="13.1508263"><ele>278.33333333333337</ele><time>2026-05-01T14:20:53.801Z</time></trkpt><trkpt lat="43.4325046" lon="13.1509297"><ele>280.0</ele><time>2026-05-01T14:20:54.801Z</time></trkpt><trkpt lat="43.4325158" lon="13.1510407"><ele>281.6666666666667</ele><time>2026-05-01T14:20:55.8Z</time></trkpt><trkpt lat="43.4325247" lon="13.1511547"><ele>283.3333333333333</ele><time>2026-05-01T14:20:56.8Z</time></trkpt><trkpt lat="43.4325287" lon="13.1512639"><ele>285.0</ele><time>2026-05-01T14:20:57.802Z</time></trkpt><trkpt lat="43.4325257" lon="13.1513813"><ele>285.0</ele><time>2026-05-01T14:20:58.801Z</time></trkpt><trkpt lat="43.4325248" lon="13.1515254"><ele>285.0</ele><time>2026-05-01T14:20:59.8Z</time></trkpt><trkpt lat="43.4325242" lon="13.1516646"><ele>285.0</ele><time>2026-05-01T14:21:00.8Z</time></trkpt><trkpt lat="43.4325205" lon="13.1517921"><ele>285.0</ele><time>2026-05-01T14:21:01.801Z</time></trkpt><trkpt lat="43.4325173" lon="13.1519176"><ele>285.0</ele><time>2026-05-01T14:21:02.8Z</time></trkpt><trkpt lat="43.4325165" lon="13.1520393"><ele>286.8333333333333</ele><time>2026-05-01T14:21:03.8Z</time></trkpt><trkpt lat="43.4325174" lon="13.1521581"><ele>288.6666666666667</ele><time>2026-05-01T14:21:04.801Z</time></trkpt><trkpt lat="43.4325172" lon="13.1522786"><ele>290.5</ele><time>2026-05-01T14:21:05.801Z</time></trkpt><trkpt lat="43.432516" lon="13.1523979"><ele>292.33333333333337</ele><time>2026-05-01T14:21:06.8Z</time></trkpt><trkpt lat="43.4325189" lon="13.1525162"><ele>294.1666666666667</ele><time>2026-05-01T14:21:07.801Z</time></trkpt><trkpt lat="43.4325258" lon="13.152631"><ele>296.0</ele><time>2026-05-01T14:21:08.8Z</time></trkpt><trkpt lat="43.4325362" lon="13.1527252"><ele>298.0</ele><time>2026-05-01T14:21:09.8Z</time></trkpt><trkpt lat="43.4325664" lon="13.1528793"><ele>300.0</ele><time>2026-05-01T14:21:11.801Z</time></trkpt><trkpt lat="43.4326276" lon="13.1530069"><ele>302.0</ele><time>2026-05-01T14:21:13.801Z</time></trkpt><trkpt lat="43.4327164" lon="13.153103"><ele>304.0</ele><time>2026-05-01T14:21:15.8Z</time></trkpt><trkpt lat="43.4328205" lon="13.1532001"><ele>303.59999999999997</ele><time>2026-05-01T14:21:17.801Z</time></trkpt><trkpt lat="43.4329382" lon="13.1532742"><ele>303.2</ele><time>2026-05-01T14:21:19.801Z</time></trkpt><trkpt lat="43.4330065" lon="13.1533116"><ele>302.79999999999995</ele><time>2026-05-01T14:21:20.8Z</time></trkpt><trkpt lat="43.433083" lon="13.1533494"><ele>302.4</ele><time>2026-05-01T14:21:21.8Z</time></trkpt><trkpt lat="43.433162" lon="13.1533878"><ele>302.0</ele><time>2026-05-01T14:21:22.801Z</time></trkpt><trkpt lat="43.4332397" lon="13.1534262"><ele>301.6666666666667</ele><time>2026-05-01T14:21:23.801Z</time></trkpt><trkpt lat="43.4333193" lon="13.1534611"><ele>301.33333333333337</ele><time>2026-05-01T14:21:24.8Z</time></trkpt><trkpt lat="43.4333967" lon="13.1534905"><ele>301.0</ele><time>2026-05-01T14:21:25.8Z</time></trkpt><trkpt lat="43.4334774" lon="13.1535129"><ele>300.6666666666667</ele><time>2026-05-01T14:21:26.801Z</time></trkpt><trkpt lat="43.4335563" lon="13.1535286"><ele>300.3333333333333</ele><time>2026-05-01T14:21:27.801Z</time></trkpt><trkpt lat="43.4336352" lon="13.1535375"><ele>300.0</ele><time>2026-05-01T14:21:28.8Z</time></trkpt><trkpt lat="43.4337079" lon="13.1535501"><ele>300.0</ele><time>2026-05-01T14:21:29.801Z</time></trkpt><trkpt lat="43.4337812" lon="13.1535622"><ele>300.0</ele><time>2026-05-01T14:21:30.8Z</time></trkpt><trkpt lat="43.4338479" lon="13.1535805"><ele>300.0</ele><time>2026-05-01T14:21:31.801Z</time></trkpt><trkpt lat="43.433914" lon="13.153594"><ele>300.0</ele><time>2026-05-01T14:21:32.8Z</time></trkpt><trkpt lat="43.434039" lon="13.1536099"><ele>300.0</ele><time>2026-05-01T14:21:34.801Z</time></trkpt><trkpt lat="43.4341043" lon="13.1536112"><ele>300.0</ele><time>2026-05-01T14:21:35.801Z</time></trkpt><trkpt lat="43.4341739" lon="13.1536068"><ele>299.2</ele><time>2026-05-01T14:21:36.8Z</time></trkpt><trkpt lat="43.4342389" lon="13.1535945"><ele>298.4</ele><time>2026-05-01T14:21:37.8Z</time></trkpt><trkpt lat="43.4343039" lon="13.1535747"><ele>297.6</ele><time>2026-05-01T14:21:38.8Z</time></trkpt><trkpt lat="43.4343658" lon="13.1535445"><ele>296.8</ele><time>2026-05-01T14:21:39.801Z</time></trkpt><trkpt lat="43.4344827" lon="13.1534788"><ele>296.0</ele><time>2026-05-01T14:21:41.801Z</time></trkpt><trkpt lat="43.4345986" lon="13.1534121"><ele>294.42857142857144</ele><time>2026-05-01T14:21:43.801Z</time></trkpt><trkpt lat="43.4346602" lon="13.1533841"><ele>292.85714285714283</ele><time>2026-05-01T14:21:44.8Z</time></trkpt><trkpt lat="43.4347258" lon="13.1533607"><ele>291.2857142857143</ele><time>2026-05-01T14:21:45.801Z</time></trkpt><trkpt lat="43.4347947" lon="13.1533348"><ele>289.7142857142857</ele><time>2026-05-01T14:21:46.801Z</time></trkpt><trkpt lat="43.4348668" lon="13.1533116"><ele>288.14285714285717</ele><time>2026-05-01T14:21:47.801Z</time></trkpt><trkpt lat="43.4349412" lon="13.1532893"><ele>286.57142857142856</ele><time>2026-05-01T14:21:48.8Z</time></trkpt><trkpt lat="43.4350164" lon="13.1532609"><ele>285.0</ele><time>2026-05-01T14:21:49.802Z</time></trkpt><trkpt lat="43.4350928" lon="13.1532292"><ele>284.5</ele><time>2026-05-01T14:21:50.801Z</time></trkpt><trkpt lat="43.4351736" lon="13.1531991"><ele>284.0</ele><time>2026-05-01T14:21:51.801Z</time></trkpt><trkpt lat="43.4352537" lon="13.1531668"><ele>283.5</ele><time>2026-05-01T14:21:52.801Z</time></trkpt><trkpt lat="43.4353357" lon="13.1531351"><ele>283.0</ele><time>2026-05-01T14:21:53.801Z</time></trkpt><trkpt lat="43.4354164" lon="13.1531071"><ele>282.5</ele><time>2026-05-01T14:21:54.8Z</time></trkpt><trkpt lat="43.4354933" lon="13.1530769"><ele>282.0</ele><time>2026-05-01T14:21:55.802Z</time></trkpt><trkpt lat="43.4355753" lon="13.1530441"><ele>281.3333333333333</ele><time>2026-05-01T14:21:56.801Z</time></trkpt><trkpt lat="43.4356585" lon="13.1530154"><ele>280.6666666666667</ele><time>2026-05-01T14:21:57.8Z</time></trkpt><trkpt lat="43.4357386" lon="13.1529872"><ele>280.0</ele><time>2026-05-01T14:21:58.801Z</time></trkpt><trkpt lat="43.4358208" lon="13.1529599"><ele>279.33333333333337</ele><time>2026-05-01T14:21:59.802Z</time></trkpt><trkpt lat="43.4359045" lon="13.1529301"><ele>278.6666666666667</ele><time>2026-05-01T14:22:00.801Z</time></trkpt><trkpt lat="43.4359898" lon="13.1529012"><ele>278.0</ele><time>2026-05-01T14:22:01.801Z</time></trkpt><trkpt lat="43.4360764" lon="13.1528731"><ele>278.0</ele><time>2026-05-01T14:22:02.801Z</time></trkpt><trkpt lat="43.4361632" lon="13.1528455"><ele>278.0</ele><time>2026-05-01T14:22:03.801Z</time></trkpt><trkpt lat="43.4362443" lon="13.1528174"><ele>278.0</ele><time>2026-05-01T14:22:04.801Z</time></trkpt><trkpt lat="43.4363182" lon="13.1527925"><ele>278.0</ele><time>2026-05-01T14:22:05.801Z</time></trkpt><trkpt lat="43.4363877" lon="13.1527635"><ele>278.0</ele><time>2026-05-01T14:22:06.801Z</time></trkpt><trkpt lat="43.4364558" lon="13.1527321"><ele>278.0</ele><time>2026-05-01T14:22:07.8Z</time></trkpt><trkpt lat="43.4365216" lon="13.1527023"><ele>278.2857142857143</ele><time>2026-05-01T14:22:08.8Z</time></trkpt><trkpt lat="43.4365853" lon="13.1526737"><ele>278.57142857142856</ele><time>2026-05-01T14:22:09.801Z</time></trkpt><trkpt lat="43.436646" lon="13.1526431"><ele>278.8571428571429</ele><time>2026-05-01T14:22:10.802Z</time></trkpt><trkpt lat="43.4367055" lon="13.1526084"><ele>279.1428571428571</ele><time>2026-05-01T14:22:11.801Z</time></trkpt><trkpt lat="43.436769" lon="13.1525759"><ele>279.42857142857144</ele><time>2026-05-01T14:22:12.801Z</time></trkpt><trkpt lat="43.436834" lon="13.1525531"><ele>279.7142857142857</ele><time>2026-05-01T14:22:13.8Z</time></trkpt><trkpt lat="43.4369043" lon="13.1525323"><ele>280.0</ele><time>2026-05-01T14:22:14.801Z</time></trkpt><trkpt lat="43.4369751" lon="13.1525094"><ele>280.0</ele><time>2026-05-01T14:22:15.802Z</time></trkpt><trkpt lat="43.437044" lon="13.1524815"><ele>280.0</ele><time>2026-05-01T14:22:16.801Z</time></trkpt><trkpt lat="43.4371114" lon="13.1524619"><ele>280.0</ele><time>2026-05-01T14:22:17.8Z</time></trkpt><trkpt lat="43.4371763" lon="13.1524405"><ele>280.0</ele><time>2026-05-01T14:22:18.802Z</time></trkpt><trkpt lat="43.4372396" lon="13.15242"><ele>280.0</ele><time>2026-05-01T14:22:19.801Z</time></trkpt><trkpt lat="43.4373065" lon="13.1524027"><ele>280.0</ele><time>2026-05-01T14:22:20.801Z</time></trkpt><trkpt lat="43.4373697" lon="13.1523836"><ele>280.0</ele><time>2026-05-01T14:22:21.801Z</time></trkpt><trkpt lat="43.4374341" lon="13.1523628"><ele>280.2</ele><time>2026-05-01T14:22:22.8Z</time></trkpt><trkpt lat="43.4374958" lon="13.1523389"><ele>280.4</ele><time>2026-05-01T14:22:23.8Z</time></trkpt><trkpt lat="43.4376001" lon="13.1522875"><ele>280.6</ele><time>2026-05-01T14:22:25.801Z</time></trkpt><trkpt lat="43.4376942" lon="13.152253"><ele>280.8</ele><time>2026-05-01T14:22:27.802Z</time></trkpt><trkpt lat="43.4377871" lon="13.1522013"><ele>281.0</ele><time>2026-05-01T14:22:29.801Z</time></trkpt><trkpt lat="43.4378928" lon="13.152147"><ele>278.40000000000003</ele><time>2026-05-01T14:22:31.8Z</time></trkpt><trkpt lat="43.4380129" lon="13.1520944"><ele>275.8</ele><time>2026-05-01T14:22:33.8Z</time></trkpt><trkpt lat="43.4380733" lon="13.1520661"><ele>273.20000000000005</ele><time>2026-05-01T14:22:34.801Z</time></trkpt><trkpt lat="43.4381909" lon="13.1520124"><ele>270.6</ele><time>2026-05-01T14:22:36.801Z</time></trkpt><trkpt lat="43.438309" lon="13.1519641"><ele>268.0</ele><time>2026-05-01T14:22:38.8Z</time></trkpt><trkpt lat="43.4383692" lon="13.1519367"><ele>268.0</ele><time>2026-05-01T14:22:39.801Z</time></trkpt><trkpt lat="43.4384316" lon="13.1519121"><ele>268.0</ele><time>2026-05-01T14:22:40.8Z</time></trkpt><trkpt lat="43.4384924" lon="13.1518893"><ele>268.0</ele><time>2026-05-01T14:22:41.801Z</time></trkpt><trkpt lat="43.4385553" lon="13.1518615"><ele>268.0</ele><time>2026-05-01T14:22:42.8Z</time></trkpt><trkpt lat="43.4386192" lon="13.1518392"><ele>268.0</ele><time>2026-05-01T14:22:43.8Z</time></trkpt><trkpt lat="43.4386844" lon="13.1518164"><ele>268.0</ele><time>2026-05-01T14:22:44.801Z</time></trkpt><trkpt lat="43.4387508" lon="13.1517968"><ele>268.0</ele><time>2026-05-01T14:22:45.801Z</time></trkpt><trkpt lat="43.4388128" lon="13.1517743"><ele>267.16666666666663</ele><time>2026-05-01T14:22:46.8Z</time></trkpt><trkpt lat="43.4389334" lon="13.1517334"><ele>266.3333333333333</ele><time>2026-05-01T14:22:48.801Z</time></trkpt><trkpt lat="43.4389983" lon="13.151711"><ele>265.5</ele><time>2026-05-01T14:22:49.801Z</time></trkpt><trkpt lat="43.4390648" lon="13.1516886"><ele>264.6666666666667</ele><time>2026-05-01T14:22:50.801Z</time></trkpt><trkpt lat="43.4391333" lon="13.1516616"><ele>263.83333333333337</ele><time>2026-05-01T14:22:51.8Z</time></trkpt><trkpt lat="43.439204" lon="13.1516354"><ele>263.0</ele><time>2026-05-01T14:22:52.801Z</time></trkpt><trkpt lat="43.4392735" lon="13.1516144"><ele>263.0</ele><time>2026-05-01T14:22:53.8Z</time></trkpt><trkpt lat="43.4393425" lon="13.1515867"><ele>263.0</ele><time>2026-05-01T14:22:54.8Z</time></trkpt><trkpt lat="43.4394131" lon="13.1515537"><ele>263.0</ele><time>2026-05-01T14:22:55.8Z</time></trkpt><trkpt lat="43.4394855" lon="13.1515141"><ele>263.0</ele><time>2026-05-01T14:22:56.8Z</time></trkpt><trkpt lat="43.439558" lon="13.1514771"><ele>263.0</ele><time>2026-05-01T14:22:57.801Z</time></trkpt><trkpt lat="43.4396345" lon="13.1514344"><ele>263.0</ele><time>2026-05-01T14:22:58.801Z</time></trkpt><trkpt lat="43.439707" lon="13.151384"><ele>263.0</ele><time>2026-05-01T14:22:59.801Z</time></trkpt><trkpt lat="43.4397797" lon="13.1513319"><ele>263.0</ele><time>2026-05-01T14:23:00.801Z</time></trkpt><trkpt lat="43.4398545" lon="13.1512868"><ele>263.0</ele><time>2026-05-01T14:23:01.801Z</time></trkpt><trkpt lat="43.4399284" lon="13.1512375"><ele>263.0</ele><time>2026-05-01T14:23:02.801Z</time></trkpt><trkpt lat="43.4400001" lon="13.1511798"><ele>263.0</ele><time>2026-05-01T14:23:03.801Z</time></trkpt><trkpt lat="43.4400718" lon="13.1511246"><ele>263.0</ele><time>2026-05-01T14:23:04.8Z</time></trkpt><trkpt lat="43.4401516" lon="13.1510721"><ele>263.0</ele><time>2026-05-01T14:23:05.801Z</time></trkpt><trkpt lat="43.4402287" lon="13.1510192"><ele>263.0</ele><time>2026-05-01T14:23:06.801Z</time></trkpt><trkpt lat="43.4403037" lon="13.1509629"><ele>263.0</ele><time>2026-05-01T14:23:07.801Z</time></trkpt><trkpt lat="43.4403793" lon="13.1509056"><ele>263.0</ele><time>2026-05-01T14:23:08.801Z</time></trkpt><trkpt lat="43.44045" lon="13.1508496"><ele>263.0</ele><time>2026-05-01T14:23:09.802Z</time></trkpt><trkpt lat="43.4405222" lon="13.1507882"><ele>263.0</ele><time>2026-05-01T14:23:10.8Z</time></trkpt><trkpt lat="43.4405909" lon="13.1507279"><ele>263.6666666666667</ele><time>2026-05-01T14:23:11.8Z</time></trkpt><trkpt lat="43.4406577" lon="13.1506651"><ele>264.33333333333337</ele><time>2026-05-01T14:23:12.802Z</time></trkpt><trkpt lat="43.4407254" lon="13.1506141"><ele>265.0</ele><time>2026-05-01T14:23:13.801Z</time></trkpt><trkpt lat="43.4407886" lon="13.1505658"><ele>265.6666666666667</ele><time>2026-05-01T14:23:14.801Z</time></trkpt><trkpt lat="43.4408474" lon="13.1505169"><ele>266.3333333333333</ele><time>2026-05-01T14:23:15.8Z</time></trkpt><trkpt lat="43.440901" lon="13.1504658"><ele>267.0</ele><time>2026-05-01T14:23:16.801Z</time></trkpt><trkpt lat="43.4410061" lon="13.1503561"><ele>267.0</ele><time>2026-05-01T14:23:18.801Z</time></trkpt><trkpt lat="43.4410633" lon="13.1502915"><ele>267.0</ele><time>2026-05-01T14:23:19.801Z</time></trkpt><trkpt lat="43.4411205" lon="13.1502254"><ele>267.0</ele><time>2026-05-01T14:23:20.8Z</time></trkpt><trkpt lat="43.4411781" lon="13.1501638"><ele>267.0</ele><time>2026-05-01T14:23:21.802Z</time></trkpt><trkpt lat="43.4412376" lon="13.1500956"><ele>267.0</ele><time>2026-05-01T14:23:22.801Z</time></trkpt><trkpt lat="43.4412978" lon="13.150023"><ele>267.0</ele><time>2026-05-01T14:23:23.8Z</time></trkpt><trkpt lat="43.4413644" lon="13.1499493"><ele>268.0</ele><time>2026-05-01T14:23:24.801Z</time></trkpt><trkpt lat="43.4414308" lon="13.1498657"><ele>269.0</ele><time>2026-05-01T14:23:25.8Z</time></trkpt><trkpt lat="43.4414991" lon="13.1497765"><ele>270.0</ele><time>2026-05-01T14:23:26.8Z</time></trkpt><trkpt lat="43.4415715" lon="13.1496887"><ele>271.0</ele><time>2026-05-01T14:23:27.8Z</time></trkpt><trkpt lat="43.4416454" lon="13.1495939"><ele>272.0</ele><time>2026-05-01T14:23:28.801Z</time></trkpt><trkpt lat="43.4417148" lon="13.1494926"><ele>272.0</ele><time>2026-05-01T14:23:29.801Z</time></trkpt><trkpt lat="43.4417799" lon="13.1494073"><ele>272.0</ele><time>2026-05-01T14:23:30.8Z</time></trkpt><trkpt lat="43.4418459" lon="13.1493325"><ele>272.0</ele><time>2026-05-01T14:23:31.801Z</time></trkpt><trkpt lat="43.4419209" lon="13.1492711"><ele>272.0</ele><time>2026-05-01T14:23:32.801Z</time></trkpt><trkpt lat="43.4420107" lon="13.1492218"><ele>272.0</ele><time>2026-05-01T14:23:33.8Z</time></trkpt><trkpt lat="43.4421008" lon="13.1491866"><ele>272.0</ele><time>2026-05-01T14:23:34.801Z</time></trkpt><trkpt lat="43.4421737" lon="13.1491607"><ele>272.0</ele><time>2026-05-01T14:23:35.801Z</time></trkpt><trkpt lat="43.4422355" lon="13.1491311"><ele>272.0</ele><time>2026-05-01T14:23:36.8Z</time></trkpt><trkpt lat="43.4422946" lon="13.1490965"><ele>272.0</ele><time>2026-05-01T14:23:37.801Z</time></trkpt><trkpt lat="43.442392" lon="13.1490199"><ele>272.0</ele><time>2026-05-01T14:23:39.8Z</time></trkpt><trkpt lat="43.4424892" lon="13.1489356"><ele>272.0</ele><time>2026-05-01T14:23:41.801Z</time></trkpt><trkpt lat="43.4425867" lon="13.1488383"><ele>272.0</ele><time>2026-05-01T14:23:43.802Z</time></trkpt><trkpt lat="43.4426395" lon="13.1487889"><ele>272.0</ele><time>2026-05-01T14:23:44.8Z</time></trkpt><trkpt lat="43.4426933" lon="13.1487398"><ele>272.0</ele><time>2026-05-01T14:23:45.801Z</time></trkpt><trkpt lat="43.4427453" lon="13.1486876"><ele>272.0</ele><time>2026-05-01T14:23:46.801Z</time></trkpt><trkpt lat="43.44285" lon="13.1485889"><ele>272.0</ele><time>2026-05-01T14:23:48.801Z</time></trkpt><trkpt lat="43.4429079" lon="13.1485375"><ele>272.0</ele><time>2026-05-01T14:23:49.801Z</time></trkpt><trkpt lat="43.44297" lon="13.1484899"><ele>270.71428571428567</ele><time>2026-05-01T14:23:50.801Z</time></trkpt><trkpt lat="43.4430331" lon="13.1484452"><ele>269.42857142857144</ele><time>2026-05-01T14:23:51.801Z</time></trkpt><trkpt lat="43.4430984" lon="13.1484069"><ele>268.1428571428571</ele><time>2026-05-01T14:23:52.801Z</time></trkpt><trkpt lat="43.4431615" lon="13.1483733"><ele>266.85714285714283</ele><time>2026-05-01T14:23:53.802Z</time></trkpt><trkpt lat="43.4432248" lon="13.1483452"><ele>265.57142857142856</ele><time>2026-05-01T14:23:54.8Z</time></trkpt><trkpt lat="43.4432889" lon="13.1483195"><ele>264.2857142857143</ele><time>2026-05-01T14:23:55.801Z</time></trkpt><trkpt lat="43.4433509" lon="13.1482956"><ele>263.0</ele><time>2026-05-01T14:23:56.802Z</time></trkpt><trkpt lat="43.4434113" lon="13.1482659"><ele>263.0</ele><time>2026-05-01T14:23:57.8Z</time></trkpt><trkpt lat="43.4434756" lon="13.148231"><ele>263.0</ele><time>2026-05-01T14:23:58.801Z</time></trkpt><trkpt lat="43.4435396" lon="13.1481886"><ele>263.0</ele><time>2026-05-01T14:23:59.801Z</time></trkpt><trkpt lat="43.443603" lon="13.1481387"><ele>263.0</ele><time>2026-05-01T14:24:00.801Z</time></trkpt><trkpt lat="43.4436622" lon="13.1480839"><ele>263.0</ele><time>2026-05-01T14:24:01.801Z</time></trkpt><trkpt lat="43.443717" lon="13.1480255"><ele>263.0</ele><time>2026-05-01T14:24:02.8Z</time></trkpt><trkpt lat="43.4437665" lon="13.1479673"><ele>263.0</ele><time>2026-05-01T14:24:03.801Z</time></trkpt><trkpt lat="43.4438179" lon="13.1479111"><ele>261.1666666666667</ele><time>2026-05-01T14:24:04.8Z</time></trkpt><trkpt lat="43.4438714" lon="13.1478575"><ele>259.33333333333337</ele><time>2026-05-01T14:24:05.801Z</time></trkpt><trkpt lat="43.4439766" lon="13.1477611"><ele>257.5</ele><time>2026-05-01T14:24:07.801Z</time></trkpt><trkpt lat="43.4440349" lon="13.1477258"><ele>255.66666666666669</ele><time>2026-05-01T14:24:08.801Z</time></trkpt><trkpt lat="43.4440921" lon="13.1476834"><ele>253.83333333333334</ele><time>2026-05-01T14:24:09.8Z</time></trkpt><trkpt lat="43.4441489" lon="13.1476435"><ele>252.0</ele><time>2026-05-01T14:24:10.801Z</time></trkpt><trkpt lat="43.4442608" lon="13.1475735"><ele>252.0</ele><time>2026-05-01T14:24:12.801Z</time></trkpt><trkpt lat="43.4443781" lon="13.1475062"><ele>252.0</ele><time>2026-05-01T14:24:14.801Z</time></trkpt><trkpt lat="43.4444942" lon="13.1474274"><ele>252.0</ele><time>2026-05-01T14:24:16.801Z</time></trkpt><trkpt lat="43.4445539" lon="13.147386"><ele>252.0</ele><time>2026-05-01T14:24:17.801Z</time></trkpt><trkpt lat="43.4446698" lon="13.1472961"><ele>248.83333333333334</ele><time>2026-05-01T14:24:19.8Z</time></trkpt><trkpt lat="43.4447253" lon="13.1472465"><ele>245.66666666666669</ele><time>2026-05-01T14:24:20.801Z</time></trkpt><trkpt lat="43.4447792" lon="13.1471969"><ele>242.5</ele><time>2026-05-01T14:24:21.801Z</time></trkpt><trkpt lat="43.4448289" lon="13.1471436"><ele>239.33333333333334</ele><time>2026-05-01T14:24:22.8Z</time></trkpt><trkpt lat="43.4448808" lon="13.1470891"><ele>236.16666666666669</ele><time>2026-05-01T14:24:23.8Z</time></trkpt><trkpt lat="43.4449787" lon="13.1469895"><ele>233.0</ele><time>2026-05-01T14:24:25.801Z</time></trkpt><trkpt lat="43.4450838" lon="13.1469207"><ele>233.0</ele><time>2026-05-01T14:24:27.801Z</time></trkpt><trkpt lat="43.4451817" lon="13.1468622"><ele>233.0</ele><time>2026-05-01T14:24:29.801Z</time></trkpt><trkpt lat="43.4452843" lon="13.1468174"><ele>233.0</ele><time>2026-05-01T14:24:31.801Z</time></trkpt><trkpt lat="43.4453883" lon="13.1467584"><ele>233.0</ele><time>2026-05-01T14:24:33.801Z</time></trkpt><trkpt lat="43.4454995" lon="13.1466757"><ele>231.33333333333334</ele><time>2026-05-01T14:24:35.801Z</time></trkpt><trkpt lat="43.44556" lon="13.1466338"><ele>229.66666666666669</ele><time>2026-05-01T14:24:36.8Z</time></trkpt><trkpt lat="43.4456212" lon="13.1466057"><ele>228.0</ele><time>2026-05-01T14:24:37.801Z</time></trkpt><trkpt lat="43.4456881" lon="13.1465759"><ele>226.33333333333331</ele><time>2026-05-01T14:24:38.801Z</time></trkpt><trkpt lat="43.445755" lon="13.1465574"><ele>224.66666666666666</ele><time>2026-05-01T14:24:39.801Z</time></trkpt><trkpt lat="43.4458206" lon="13.1465397"><ele>223.0</ele><time>2026-05-01T14:24:40.8Z</time></trkpt><trkpt lat="43.4459418" lon="13.1465102"><ele>221.0</ele><time>2026-05-01T14:24:42.8Z</time></trkpt><trkpt lat="43.4460564" lon="13.1464791"><ele>219.0</ele><time>2026-05-01T14:24:44.801Z</time></trkpt><trkpt lat="43.4461646" lon="13.146455"><ele>217.0</ele><time>2026-05-01T14:24:46.801Z</time></trkpt><trkpt lat="43.4462623" lon="13.1463982"><ele>215.0</ele><time>2026-05-01T14:24:48.8Z</time></trkpt><trkpt lat="43.4463327" lon="13.1462977"><ele>213.0</ele><time>2026-05-01T14:24:50.8Z</time></trkpt><trkpt lat="43.4464158" lon="13.1461972"><ele>213.0</ele><time>2026-05-01T14:24:52.801Z</time></trkpt><trkpt lat="43.4465174" lon="13.1461339"><ele>213.0</ele><time>2026-05-01T14:24:54.801Z</time></trkpt><trkpt lat="43.4466255" lon="13.1460986"><ele>213.0</ele><time>2026-05-01T14:24:56.801Z</time></trkpt><trkpt lat="43.4467353" lon="13.1460812"><ele>213.0</ele><time>2026-05-01T14:24:58.801Z</time></trkpt><trkpt lat="43.4468438" lon="13.1460934"><ele>213.0</ele><time>2026-05-01T14:25:00.801Z</time></trkpt><trkpt lat="43.4469463" lon="13.1461537"><ele>213.0</ele><time>2026-05-01T14:25:02.801Z</time></trkpt><trkpt lat="43.4470235" lon="13.1462311"><ele>213.0</ele><time>2026-05-01T14:25:04.8Z</time></trkpt><trkpt lat="43.4470938" lon="13.1462678"><ele>213.0</ele><time>2026-05-01T14:25:06.8Z</time></trkpt><trkpt lat="43.4471575" lon="13.1462295"><ele>213.0</ele><time>2026-05-01T14:25:08.801Z</time></trkpt><trkpt lat="43.4472041" lon="13.1461504"><ele>213.0</ele><time>2026-05-01T14:25:10.801Z</time></trkpt><trkpt lat="43.4472456" lon="13.1460788"><ele>213.0</ele><time>2026-05-01T14:25:12.801Z</time></trkpt><trkpt lat="43.4473263" lon="13.1460443"><ele>210.33333333333334</ele><time>2026-05-01T14:25:15.801Z</time></trkpt><trkpt lat="43.4473954" lon="13.1460998"><ele>207.66666666666669</ele><time>2026-05-01T14:25:19.8Z</time></trkpt><trkpt lat="43.4474447" lon="13.1461914"><ele>205.0</ele><time>2026-05-01T14:25:23.8Z</time></trkpt><trkpt lat="43.4475099" lon="13.146232"><ele>202.33333333333334</ele><time>2026-05-01T14:25:27.8Z</time></trkpt><trkpt lat="43.447586" lon="13.1462173"><ele>199.66666666666669</ele><time>2026-05-01T14:25:31.8Z</time></trkpt><trkpt lat="43.4476495" lon="13.1462002"><ele>197.0</ele><time>2026-05-01T14:25:35.801Z</time></trkpt><trkpt lat="43.4477271" lon="13.1461678"><ele>197.00000000000003</ele><time>2026-05-01T14:25:39.801Z</time></trkpt><trkpt lat="43.4477906" lon="13.1461558"><ele>197.0</ele><time>2026-05-01T14:25:41.802Z</time></trkpt><trkpt lat="43.4478748" lon="13.1461075"><ele>197.0</ele><time>2026-05-01T14:25:43.802Z</time></trkpt><trkpt lat="43.447927" lon="13.1460131"><ele>197.0</ele><time>2026-05-01T14:25:45.8Z</time></trkpt><trkpt lat="43.4479349" lon="13.1459006"><ele>197.00000000000003</ele><time>2026-05-01T14:25:47.801Z</time></trkpt><trkpt lat="43.447908" lon="13.1457851"><ele>197.0</ele><time>2026-05-01T14:25:49.8Z</time></trkpt><trkpt lat="43.4478959" lon="13.1456864"><ele>194.83333333333334</ele><time>2026-05-01T14:25:51.801Z</time></trkpt><trkpt lat="43.447942" lon="13.1456182"><ele>192.66666666666669</ele><time>2026-05-01T14:25:53.801Z</time></trkpt><trkpt lat="43.4480225" lon="13.1456306"><ele>190.5</ele><time>2026-05-01T14:25:55.801Z</time></trkpt><trkpt lat="43.4480979" lon="13.1457155"><ele>188.33333333333334</ele><time>2026-05-01T14:25:57.801Z</time></trkpt><trkpt lat="43.4481691" lon="13.145785"><ele>186.16666666666669</ele><time>2026-05-01T14:25:59.801Z</time></trkpt><trkpt lat="43.4482255" lon="13.14585"><ele>184.0</ele><time>2026-05-01T14:26:01.8Z</time></trkpt><trkpt lat="43.4482723" lon="13.1459248"><ele>182.66666666666669</ele><time>2026-05-01T14:26:03.8Z</time></trkpt><trkpt lat="43.448306" lon="13.1460089"><ele>181.33333333333334</ele><time>2026-05-01T14:26:05.8Z</time></trkpt><trkpt lat="43.4483321" lon="13.1460985"><ele>180.0</ele><time>2026-05-01T14:26:07.801Z</time></trkpt><trkpt lat="43.4483807" lon="13.1461671"><ele>178.66666666666666</ele><time>2026-05-01T14:26:09.8Z</time></trkpt><trkpt lat="43.4484689" lon="13.1461484"><ele>177.33333333333331</ele><time>2026-05-01T14:26:12.8Z</time></trkpt><trkpt lat="43.4485417" lon="13.1461387"><ele>176.0</ele><time>2026-05-01T14:26:15.8Z</time></trkpt><trkpt lat="43.4486158" lon="13.1462162"><ele>176.0</ele><time>2026-05-01T14:26:52.801Z</time></trkpt><trkpt lat="43.4486657" lon="13.1463548"><ele>176.0</ele><time>2026-05-01T14:26:54.8Z</time></trkpt><trkpt lat="43.4487229" lon="13.1465165"><ele>176.0</ele><time>2026-05-01T14:26:56.801Z</time></trkpt><trkpt lat="43.448753" lon="13.1466029"><ele>176.0</ele><time>2026-05-01T14:26:57.801Z</time></trkpt><trkpt lat="43.4487863" lon="13.146702"><ele>176.0</ele><time>2026-05-01T14:26:58.801Z</time></trkpt><trkpt lat="43.44882" lon="13.1468101"><ele>176.33333333333331</ele><time>2026-05-01T14:26:59.8Z</time></trkpt><trkpt lat="43.4488516" lon="13.1469296"><ele>176.66666666666666</ele><time>2026-05-01T14:27:00.801Z</time></trkpt><trkpt lat="43.4488704" lon="13.1470505"><ele>177.0</ele><time>2026-05-01T14:27:01.801Z</time></trkpt><trkpt lat="43.4488729" lon="13.1471697"><ele>177.33333333333334</ele><time>2026-05-01T14:27:02.801Z</time></trkpt><trkpt lat="43.4488513" lon="13.1472864"><ele>177.66666666666669</ele><time>2026-05-01T14:27:03.801Z</time></trkpt><trkpt lat="43.4488071" lon="13.1473971"><ele>178.0</ele><time>2026-05-01T14:27:04.801Z</time></trkpt><trkpt lat="43.4487468" lon="13.1474977"><ele>178.0</ele><time>2026-05-01T14:27:05.8Z</time></trkpt><trkpt lat="43.448673" lon="13.1475929"><ele>178.0</ele><time>2026-05-01T14:27:06.801Z</time></trkpt><trkpt lat="43.4485878" lon="13.147693"><ele>178.0</ele><time>2026-05-01T14:27:07.8Z</time></trkpt><trkpt lat="43.4485024" lon="13.1478094"><ele>178.0</ele><time>2026-05-01T14:27:08.8Z</time></trkpt><trkpt lat="43.4484129" lon="13.1479113"><ele>178.0</ele><time>2026-05-01T14:27:09.801Z</time></trkpt><trkpt lat="43.4483316" lon="13.1480124"><ele>178.0</ele><time>2026-05-01T14:27:10.801Z</time></trkpt><trkpt lat="43.4482547" lon="13.148112"><ele>178.0</ele><time>2026-05-01T14:27:11.801Z</time></trkpt><trkpt lat="43.4481754" lon="13.1482048"><ele>178.0</ele><time>2026-05-01T14:27:12.8Z</time></trkpt><trkpt lat="43.4481089" lon="13.1482943"><ele>178.0</ele><time>2026-05-01T14:27:13.801Z</time></trkpt><trkpt lat="43.4480654" lon="13.1483752"><ele>178.0</ele><time>2026-05-01T14:27:14.8Z</time></trkpt><trkpt lat="43.4480441" lon="13.1484618"><ele>178.0</ele><time>2026-05-01T14:27:15.801Z</time></trkpt><trkpt lat="43.4481177" lon="13.148591"><ele>180.33333333333334</ele><time>2026-05-01T14:27:17.801Z</time></trkpt><trkpt lat="43.4481897" lon="13.1486319"><ele>182.66666666666669</ele><time>2026-05-01T14:27:18.801Z</time></trkpt><trkpt lat="43.448271" lon="13.1486674"><ele>185.0</ele><time>2026-05-01T14:27:19.801Z</time></trkpt><trkpt lat="43.4483576" lon="13.1486973"><ele>187.33333333333334</ele><time>2026-05-01T14:27:20.801Z</time></trkpt><trkpt lat="43.4484479" lon="13.1487285"><ele>189.66666666666666</ele><time>2026-05-01T14:27:21.8Z</time></trkpt><trkpt lat="43.4485436" lon="13.1487609"><ele>192.0</ele><time>2026-05-01T14:27:22.801Z</time></trkpt><trkpt lat="43.4486415" lon="13.148793"><ele>192.0</ele><time>2026-05-01T14:27:23.801Z</time></trkpt><trkpt lat="43.4487367" lon="13.1488297"><ele>192.0</ele><time>2026-05-01T14:27:24.801Z</time></trkpt><trkpt lat="43.448833" lon="13.1488646"><ele>192.0</ele><time>2026-05-01T14:27:25.801Z</time></trkpt><trkpt lat="43.4489326" lon="13.1489006"><ele>192.0</ele><time>2026-05-01T14:27:26.801Z</time></trkpt><trkpt lat="43.4490346" lon="13.1489482"><ele>192.0</ele><time>2026-05-01T14:27:27.8Z</time></trkpt><trkpt lat="43.4491461" lon="13.1490036"><ele>196.5</ele><time>2026-05-01T14:27:28.801Z</time></trkpt><trkpt lat="43.4492622" lon="13.1490504"><ele>201.0</ele><time>2026-05-01T14:27:29.801Z</time></trkpt><trkpt lat="43.4493805" lon="13.1490837"><ele>205.5</ele><time>2026-05-01T14:27:30.8Z</time></trkpt><trkpt lat="43.449498" lon="13.1490965"><ele>210.0</ele><time>2026-05-01T14:27:31.801Z</time></trkpt><trkpt lat="43.4496191" lon="13.1490961"><ele>211.0</ele><time>2026-05-01T14:27:32.801Z</time></trkpt><trkpt lat="43.4497388" lon="13.1490888"><ele>212.0</ele><time>2026-05-01T14:27:33.8Z</time></trkpt><trkpt lat="43.44986" lon="13.1490814"><ele>213.0</ele><time>2026-05-01T14:27:34.8Z</time></trkpt><trkpt lat="43.4499817" lon="13.149072"><ele>214.0</ele><time>2026-05-01T14:27:35.801Z</time></trkpt><trkpt lat="43.4501014" lon="13.1490682"><ele>214.0</ele><time>2026-05-01T14:27:36.802Z</time></trkpt><trkpt lat="43.4502172" lon="13.1490674"><ele>213.99999999999997</ele><time>2026-05-01T14:27:37.8Z</time></trkpt><trkpt lat="43.4503282" lon="13.1490724"><ele>213.99999999999997</ele><time>2026-05-01T14:27:38.8Z</time></trkpt><trkpt lat="43.4504318" lon="13.1490652"><ele>214.0</ele><time>2026-05-01T14:27:39.8Z</time></trkpt><trkpt lat="43.4505315" lon="13.1490459"><ele>214.0</ele><time>2026-05-01T14:27:40.8Z</time></trkpt><trkpt lat="43.4506254" lon="13.1490303"><ele>212.99999999999997</ele><time>2026-05-01T14:27:41.801Z</time></trkpt><trkpt lat="43.4507063" lon="13.149022"><ele>212.0</ele><time>2026-05-01T14:27:42.801Z</time></trkpt><trkpt lat="43.450778" lon="13.1490225"><ele>211.0</ele><time>2026-05-01T14:27:43.801Z</time></trkpt><trkpt lat="43.4508623" lon="13.1490818"><ele>210.0</ele><time>2026-05-01T14:27:45.801Z</time></trkpt><trkpt lat="43.4508491" lon="13.1491881"><ele>208.99999999999997</ele><time>2026-05-01T14:27:47.8Z</time></trkpt><trkpt lat="43.4507723" lon="13.1492568"><ele>208.0</ele><time>2026-05-01T14:27:49.8Z</time></trkpt><trkpt lat="43.4506763" lon="13.1493145"><ele>208.99999999999997</ele><time>2026-05-01T14:27:51.8Z</time></trkpt><trkpt lat="43.4506157" lon="13.1493505"><ele>210.0</ele><time>2026-05-01T14:27:52.799Z</time></trkpt><trkpt lat="43.4505593" lon="13.1493937"><ele>211.0</ele><time>2026-05-01T14:27:53.801Z</time></trkpt><trkpt lat="43.4505046" lon="13.1494404"><ele>212.0</ele><time>2026-05-01T14:27:54.8Z</time></trkpt><trkpt lat="43.4504069" lon="13.149536"><ele>212.99999999999997</ele><time>2026-05-01T14:27:56.8Z</time></trkpt><trkpt lat="43.4503085" lon="13.1496407"><ele>214.0</ele><time>2026-05-01T14:27:58.799Z</time></trkpt><trkpt lat="43.4502524" lon="13.1497011"><ele>214.00000000000003</ele><time>2026-05-01T14:27:59.8Z</time></trkpt><trkpt lat="43.4501947" lon="13.1497586"><ele>214.0</ele><time>2026-05-01T14:28:00.8Z</time></trkpt><trkpt lat="43.4501453" lon="13.1498259"><ele>214.0</ele><time>2026-05-01T14:28:01.799Z</time></trkpt><trkpt lat="43.4500924" lon="13.1498971"><ele>214.0</ele><time>2026-05-01T14:28:02.801Z</time></trkpt><trkpt lat="43.4500348" lon="13.1499666"><ele>214.0</ele><time>2026-05-01T14:28:03.8Z</time></trkpt><trkpt lat="43.4499741" lon="13.1500255"><ele>214.00000000000003</ele><time>2026-05-01T14:28:04.799Z</time></trkpt><trkpt lat="43.4499153" lon="13.1500865"><ele>214.0</ele><time>2026-05-01T14:28:05.8Z</time></trkpt><trkpt lat="43.4498546" lon="13.1501357"><ele>215.57142857142858</ele><time>2026-05-01T14:28:06.8Z</time></trkpt><trkpt lat="43.4497944" lon="13.1501779"><ele>217.14285714285717</ele><time>2026-05-01T14:28:07.8Z</time></trkpt><trkpt lat="43.449728" lon="13.1502195"><ele>218.71428571428572</ele><time>2026-05-01T14:28:08.8Z</time></trkpt><trkpt lat="43.4496613" lon="13.1502576"><ele>220.2857142857143</ele><time>2026-05-01T14:28:09.799Z</time></trkpt><trkpt lat="43.4495982" lon="13.150303"><ele>221.85714285714286</ele><time>2026-05-01T14:28:10.8Z</time></trkpt><trkpt lat="43.4495386" lon="13.1503497"><ele>223.42857142857147</ele><time>2026-05-01T14:28:11.799Z</time></trkpt><trkpt lat="43.4494774" lon="13.1503946"><ele>225.00000000000003</ele><time>2026-05-01T14:28:12.8Z</time></trkpt><trkpt lat="43.4494178" lon="13.1504488"><ele>225.00000000000003</ele><time>2026-05-01T14:28:13.801Z</time></trkpt><trkpt lat="43.4493599" lon="13.1505004"><ele>225.0</ele><time>2026-05-01T14:28:14.8Z</time></trkpt><trkpt lat="43.4493034" lon="13.1505563"><ele>225.00000000000003</ele><time>2026-05-01T14:28:15.8Z</time></trkpt><trkpt lat="43.4492515" lon="13.1506125"><ele>225.00000000000003</ele><time>2026-05-01T14:28:16.8Z</time></trkpt><trkpt lat="43.4491987" lon="13.1506735"><ele>225.0</ele><time>2026-05-01T14:28:17.799Z</time></trkpt><trkpt lat="43.4491457" lon="13.1507325"><ele>225.00000000000003</ele><time>2026-05-01T14:28:18.8Z</time></trkpt><trkpt lat="43.4490914" lon="13.1507865"><ele>225.00000000000003</ele><time>2026-05-01T14:28:19.799Z</time></trkpt><trkpt lat="43.4490422" lon="13.1508493"><ele>226.28571428571433</ele><time>2026-05-01T14:28:20.799Z</time></trkpt><trkpt lat="43.4489877" lon="13.1509122"><ele>227.57142857142858</ele><time>2026-05-01T14:28:21.801Z</time></trkpt><trkpt lat="43.448936" lon="13.1509806"><ele>228.8571428571429</ele><time>2026-05-01T14:28:22.799Z</time></trkpt><trkpt lat="43.4488829" lon="13.1510429"><ele>230.14285714285717</ele><time>2026-05-01T14:28:23.799Z</time></trkpt><trkpt lat="43.4488322" lon="13.1511086"><ele>231.42857142857144</ele><time>2026-05-01T14:28:24.799Z</time></trkpt><trkpt lat="43.4487825" lon="13.1511765"><ele>232.71428571428572</ele><time>2026-05-01T14:28:25.8Z</time></trkpt><trkpt lat="43.4487369" lon="13.1512427"><ele>234.0</ele><time>2026-05-01T14:28:26.801Z</time></trkpt><trkpt lat="43.4486928" lon="13.1513116"><ele>234.0</ele><time>2026-05-01T14:28:27.8Z</time></trkpt><trkpt lat="43.4486522" lon="13.1513882"><ele>234.00000000000003</ele><time>2026-05-01T14:28:28.801Z</time></trkpt><trkpt lat="43.4486108" lon="13.1514641"><ele>234.0</ele><time>2026-05-01T14:28:29.8Z</time></trkpt><trkpt lat="43.448572" lon="13.1515536"><ele>234.0</ele><time>2026-05-01T14:28:30.8Z</time></trkpt><trkpt lat="43.4485416" lon="13.1516526"><ele>234.00000000000003</ele><time>2026-05-01T14:28:31.799Z</time></trkpt><trkpt lat="43.4485113" lon="13.1517574"><ele>234.0</ele><time>2026-05-01T14:28:32.801Z</time></trkpt><trkpt lat="43.4484854" lon="13.1518558"><ele>234.0</ele><time>2026-05-01T14:28:33.8Z</time></trkpt><trkpt lat="43.4484537" lon="13.1519562"><ele>236.5</ele><time>2026-05-01T14:28:34.8Z</time></trkpt><trkpt lat="43.4484244" lon="13.1520594"><ele>239.0</ele><time>2026-05-01T14:28:35.8Z</time></trkpt><trkpt lat="43.4483959" lon="13.152161"><ele>241.5</ele><time>2026-05-01T14:28:36.8Z</time></trkpt><trkpt lat="43.4483732" lon="13.1522443"><ele>244.0</ele><time>2026-05-01T14:28:37.799Z</time></trkpt><trkpt lat="43.4483514" lon="13.1523285"><ele>246.5</ele><time>2026-05-01T14:28:38.799Z</time></trkpt><trkpt lat="43.4483265" lon="13.1524919"><ele>249.0</ele><time>2026-05-01T14:28:40.8Z</time></trkpt><trkpt lat="43.4483657" lon="13.1526431"><ele>251.16666666666666</ele><time>2026-05-01T14:28:42.799Z</time></trkpt><trkpt lat="43.4484737" lon="13.1527132"><ele>253.33333333333331</ele><time>2026-05-01T14:28:44.8Z</time></trkpt><trkpt lat="43.4486034" lon="13.1527022"><ele>255.5</ele><time>2026-05-01T14:28:46.8Z</time></trkpt><trkpt lat="43.4486681" lon="13.1526975"><ele>257.66666666666663</ele><time>2026-05-01T14:28:47.799Z</time></trkpt><trkpt lat="43.4487355" lon="13.1526985"><ele>259.8333333333333</ele><time>2026-05-01T14:28:48.799Z</time></trkpt><trkpt lat="43.4488" lon="13.1526873"><ele>262.0</ele><time>2026-05-01T14:28:49.799Z</time></trkpt><trkpt lat="43.4488939" lon="13.1526696"><ele>262.0</ele><time>2026-05-01T14:28:51.8Z</time></trkpt><trkpt lat="43.448967" lon="13.1526817"><ele>262.0</ele><time>2026-05-01T14:28:53.8Z</time></trkpt><trkpt lat="43.4489939" lon="13.1527895"><ele>262.0</ele><time>2026-05-01T14:28:56.8Z</time></trkpt><trkpt lat="43.4489519" lon="13.1528605"><ele>262.0</ele><time>2026-05-01T14:28:58.8Z</time></trkpt><trkpt lat="43.4488972" lon="13.1529273"><ele>262.0</ele><time>2026-05-01T14:29:00.8Z</time></trkpt><trkpt lat="43.4488432" lon="13.153011"><ele>262.0</ele><time>2026-05-01T14:29:02.8Z</time></trkpt><trkpt lat="43.4487806" lon="13.1530998"><ele>262.0</ele><time>2026-05-01T14:29:04.799Z</time></trkpt><trkpt lat="43.4487152" lon="13.1531969"><ele>262.0</ele><time>2026-05-01T14:29:06.799Z</time></trkpt><trkpt lat="43.4486382" lon="13.1532858"><ele>262.0</ele><time>2026-05-01T14:29:08.8Z</time></trkpt><trkpt lat="43.4485384" lon="13.1533557"><ele>262.0</ele><time>2026-05-01T14:29:10.799Z</time></trkpt><trkpt lat="43.4484361" lon="13.153408"><ele>262.0</ele><time>2026-05-01T14:29:12.801Z</time></trkpt><trkpt lat="43.448351" lon="13.1534704"><ele>264.6</ele><time>2026-05-01T14:29:14.8Z</time></trkpt><trkpt lat="43.4482736" lon="13.1535639"><ele>267.2</ele><time>2026-05-01T14:29:16.801Z</time></trkpt><trkpt lat="43.4482232" lon="13.1537012"><ele>269.8</ele><time>2026-05-01T14:29:18.8Z</time></trkpt><trkpt lat="43.4481728" lon="13.1538423"><ele>272.4</ele><time>2026-05-01T14:29:20.8Z</time></trkpt><trkpt lat="43.4481393" lon="13.1539928"><ele>275.0</ele><time>2026-05-01T14:29:22.8Z</time></trkpt><trkpt lat="43.4481348" lon="13.1540867"><ele>276.7142857142857</ele><time>2026-05-01T14:29:23.8Z</time></trkpt><trkpt lat="43.448144" lon="13.1541731"><ele>278.42857142857144</ele><time>2026-05-01T14:29:24.8Z</time></trkpt><trkpt lat="43.4481599" lon="13.1542571"><ele>280.1428571428571</ele><time>2026-05-01T14:29:25.799Z</time></trkpt><trkpt lat="43.4481787" lon="13.154341"><ele>281.8571428571429</ele><time>2026-05-01T14:29:26.8Z</time></trkpt><trkpt lat="43.448203" lon="13.1544292"><ele>283.57142857142856</ele><time>2026-05-01T14:29:27.8Z</time></trkpt><trkpt lat="43.4482228" lon="13.1545181"><ele>285.2857142857143</ele><time>2026-05-01T14:29:28.8Z</time></trkpt><trkpt lat="43.4482377" lon="13.1546094"><ele>287.0</ele><time>2026-05-01T14:29:29.8Z</time></trkpt><trkpt lat="43.4482516" lon="13.1546956"><ele>287.0</ele><time>2026-05-01T14:29:30.8Z</time></trkpt><trkpt lat="43.4482599" lon="13.1547826"><ele>287.0</ele><time>2026-05-01T14:29:31.801Z</time></trkpt><trkpt lat="43.4482697" lon="13.1548751"><ele>287.0</ele><time>2026-05-01T14:29:32.799Z</time></trkpt><trkpt lat="43.4482776" lon="13.1549686"><ele>287.0</ele><time>2026-05-01T14:29:33.801Z</time></trkpt><trkpt lat="43.4482893" lon="13.1550638"><ele>287.0</ele><time>2026-05-01T14:29:34.8Z</time></trkpt><trkpt lat="43.4483018" lon="13.1551648"><ele>287.0</ele><time>2026-05-01T14:29:35.8Z</time></trkpt><trkpt lat="43.4483122" lon="13.1552697"><ele>287.0</ele><time>2026-05-01T14:29:36.8Z</time></trkpt><trkpt lat="43.4483229" lon="13.155376"><ele>287.5</ele><time>2026-05-01T14:29:37.799Z</time></trkpt><trkpt lat="43.4483315" lon="13.1554782"><ele>288.0</ele><time>2026-05-01T14:29:38.801Z</time></trkpt><trkpt lat="43.4483337" lon="13.1555799"><ele>288.5</ele><time>2026-05-01T14:29:39.799Z</time></trkpt><trkpt lat="43.4483124" lon="13.1556779"><ele>289.0</ele><time>2026-05-01T14:29:40.799Z</time></trkpt><trkpt lat="43.4482845" lon="13.1557787"><ele>289.5</ele><time>2026-05-01T14:29:41.799Z</time></trkpt><trkpt lat="43.4482609" lon="13.155883"><ele>290.0</ele><time>2026-05-01T14:29:42.799Z</time></trkpt><trkpt lat="43.4482414" lon="13.1559885"><ele>290.1666666666667</ele><time>2026-05-01T14:29:43.799Z</time></trkpt><trkpt lat="43.4482249" lon="13.1560914"><ele>290.33333333333337</ele><time>2026-05-01T14:29:44.799Z</time></trkpt><trkpt lat="43.4482014" lon="13.1561981"><ele>290.5</ele><time>2026-05-01T14:29:45.801Z</time></trkpt><trkpt lat="43.4481785" lon="13.1563058"><ele>290.6666666666667</ele><time>2026-05-01T14:29:46.799Z</time></trkpt><trkpt lat="43.4481537" lon="13.1564235"><ele>290.8333333333333</ele><time>2026-05-01T14:29:47.8Z</time></trkpt><trkpt lat="43.4481238" lon="13.1565481"><ele>291.0</ele><time>2026-05-01T14:29:48.799Z</time></trkpt><trkpt lat="43.4480891" lon="13.1566707"><ele>291.8</ele><time>2026-05-01T14:29:49.8Z</time></trkpt><trkpt lat="43.4480499" lon="13.1567875"><ele>292.6</ele><time>2026-05-01T14:29:50.799Z</time></trkpt><trkpt lat="43.4480076" lon="13.1568971"><ele>293.4</ele><time>2026-05-01T14:29:51.799Z</time></trkpt><trkpt lat="43.4479635" lon="13.1570043"><ele>294.2</ele><time>2026-05-01T14:29:52.8Z</time></trkpt><trkpt lat="43.4479157" lon="13.1571089"><ele>295.0</ele><time>2026-05-01T14:29:53.8Z</time></trkpt><trkpt lat="43.4478727" lon="13.1572172"><ele>295.16666666666663</ele><time>2026-05-01T14:29:54.8Z</time></trkpt><trkpt lat="43.4478352" lon="13.1573339"><ele>295.3333333333333</ele><time>2026-05-01T14:29:55.8Z</time></trkpt><trkpt lat="43.4478022" lon="13.1574479"><ele>295.5</ele><time>2026-05-01T14:29:56.801Z</time></trkpt><trkpt lat="43.4477687" lon="13.1575595"><ele>295.6666666666667</ele><time>2026-05-01T14:29:57.799Z</time></trkpt><trkpt lat="43.447737" lon="13.1576678"><ele>295.83333333333337</ele><time>2026-05-01T14:29:58.801Z</time></trkpt><trkpt lat="43.4477033" lon="13.1577774"><ele>296.0</ele><time>2026-05-01T14:29:59.8Z</time></trkpt><trkpt lat="43.4476757" lon="13.1578869"><ele>296.0</ele><time>2026-05-01T14:30:00.799Z</time></trkpt><trkpt lat="43.4476498" lon="13.1580014"><ele>296.0</ele><time>2026-05-01T14:30:01.8Z</time></trkpt><trkpt lat="43.4476285" lon="13.1581104"><ele>296.0</ele><time>2026-05-01T14:30:02.799Z</time></trkpt><trkpt lat="43.4476087" lon="13.1582205"><ele>296.0</ele><time>2026-05-01T14:30:03.8Z</time></trkpt><trkpt lat="43.4476041" lon="13.158337"><ele>296.0</ele><time>2026-05-01T14:30:04.799Z</time></trkpt><trkpt lat="43.4475981" lon="13.1584596"><ele>296.0</ele><time>2026-05-01T14:30:05.8Z</time></trkpt><trkpt lat="43.4475914" lon="13.1585842"><ele>297.33333333333337</ele><time>2026-05-01T14:30:06.799Z</time></trkpt><trkpt lat="43.447581" lon="13.1587091"><ele>298.6666666666667</ele><time>2026-05-01T14:30:07.799Z</time></trkpt><trkpt lat="43.4475699" lon="13.1588264"><ele>300.0</ele><time>2026-05-01T14:30:08.799Z</time></trkpt><trkpt lat="43.44756" lon="13.1589376"><ele>301.3333333333333</ele><time>2026-05-01T14:30:09.799Z</time></trkpt><trkpt lat="43.4475425" lon="13.1590425"><ele>302.66666666666663</ele><time>2026-05-01T14:30:10.799Z</time></trkpt><trkpt lat="43.4475085" lon="13.1591431"><ele>304.0</ele><time>2026-05-01T14:30:11.8Z</time></trkpt><trkpt lat="43.4474566" lon="13.1592299"><ele>303.8333333333333</ele><time>2026-05-01T14:30:12.8Z</time></trkpt><trkpt lat="43.4473878" lon="13.1593075"><ele>303.66666666666663</ele><time>2026-05-01T14:30:13.799Z</time></trkpt><trkpt lat="43.4473108" lon="13.1593643"><ele>303.5</ele><time>2026-05-01T14:30:14.799Z</time></trkpt><trkpt lat="43.4472262" lon="13.159412"><ele>303.3333333333333</ele><time>2026-05-01T14:30:15.799Z</time></trkpt><trkpt lat="43.447144" lon="13.1594648"><ele>303.1666666666667</ele><time>2026-05-01T14:30:16.8Z</time></trkpt><trkpt lat="43.4470637" lon="13.1595214"><ele>303.0</ele><time>2026-05-01T14:30:17.8Z</time></trkpt><trkpt lat="43.4469874" lon="13.1595918"><ele>303.0</ele><time>2026-05-01T14:30:18.799Z</time></trkpt><trkpt lat="43.4469121" lon="13.1596607"><ele>303.0</ele><time>2026-05-01T14:30:19.799Z</time></trkpt><trkpt lat="43.4468382" lon="13.1597285"><ele>303.0</ele><time>2026-05-01T14:30:20.8Z</time></trkpt><trkpt lat="43.4467726" lon="13.1597979"><ele>303.0</ele><time>2026-05-01T14:30:21.801Z</time></trkpt><trkpt lat="43.4467058" lon="13.1598711"><ele>303.0</ele><time>2026-05-01T14:30:22.799Z</time></trkpt><trkpt lat="43.4466425" lon="13.1599458"><ele>303.0</ele><time>2026-05-01T14:30:23.8Z</time></trkpt><trkpt lat="43.4465823" lon="13.1600213"><ele>305.1666666666667</ele><time>2026-05-01T14:30:24.799Z</time></trkpt><trkpt lat="43.446531" lon="13.1601067"><ele>307.3333333333333</ele><time>2026-05-01T14:30:25.799Z</time></trkpt><trkpt lat="43.4464814" lon="13.1601909"><ele>309.5</ele><time>2026-05-01T14:30:26.8Z</time></trkpt><trkpt lat="43.4464296" lon="13.1602796"><ele>311.66666666666663</ele><time>2026-05-01T14:30:27.799Z</time></trkpt><trkpt lat="43.4463745" lon="13.1603724"><ele>313.8333333333333</ele><time>2026-05-01T14:30:28.8Z</time></trkpt><trkpt lat="43.4463141" lon="13.1604576"><ele>316.0</ele><time>2026-05-01T14:30:29.799Z</time></trkpt><trkpt lat="43.44625" lon="13.1605337"><ele>316.0</ele><time>2026-05-01T14:30:30.8Z</time></trkpt><trkpt lat="43.4461846" lon="13.1606036"><ele>316.0</ele><time>2026-05-01T14:30:31.8Z</time></trkpt><trkpt lat="43.4461151" lon="13.1606799"><ele>316.0</ele><time>2026-05-01T14:30:32.8Z</time></trkpt><trkpt lat="43.4460479" lon="13.1607629"><ele>316.0</ele><time>2026-05-01T14:30:33.799Z</time></trkpt><trkpt lat="43.4459797" lon="13.1608464"><ele>316.0</ele><time>2026-05-01T14:30:34.8Z</time></trkpt><trkpt lat="43.445914" lon="13.1609243"><ele>316.0</ele><time>2026-05-01T14:30:35.8Z</time></trkpt><trkpt lat="43.4458473" lon="13.1610022"><ele>318.16666666666663</ele><time>2026-05-01T14:30:36.8Z</time></trkpt><trkpt lat="43.4457825" lon="13.1610825"><ele>320.3333333333333</ele><time>2026-05-01T14:30:37.801Z</time></trkpt><trkpt lat="43.445715" lon="13.1611586"><ele>322.5</ele><time>2026-05-01T14:30:38.8Z</time></trkpt><trkpt lat="43.4456467" lon="13.1612327"><ele>324.6666666666667</ele><time>2026-05-01T14:30:39.799Z</time></trkpt><trkpt lat="43.4455805" lon="13.1613073"><ele>326.83333333333337</ele><time>2026-05-01T14:30:40.8Z</time></trkpt><trkpt lat="43.4455115" lon="13.1613852"><ele>329.0</ele><time>2026-05-01T14:30:41.8Z</time></trkpt><trkpt lat="43.4454559" lon="13.1614602"><ele>329.0</ele><time>2026-05-01T14:30:42.8Z</time></trkpt><trkpt lat="43.4454139" lon="13.1615293"><ele>329.0</ele><time>2026-05-01T14:30:43.8Z</time></trkpt><trkpt lat="43.4453604" lon="13.1616752"><ele>329.0</ele><time>2026-05-01T14:30:45.8Z</time></trkpt><trkpt lat="43.4453466" lon="13.1617642"><ele>329.0</ele><time>2026-05-01T14:30:46.8Z</time></trkpt><trkpt lat="43.4453356" lon="13.1618615"><ele>329.0</ele><time>2026-05-01T14:30:47.799Z</time></trkpt><trkpt lat="43.445329" lon="13.1619667"><ele>329.0</ele><time>2026-05-01T14:30:48.8Z</time></trkpt><trkpt lat="43.4453129" lon="13.1620775"><ele>330.5</ele><time>2026-05-01T14:30:49.799Z</time></trkpt><trkpt lat="43.4452943" lon="13.1621946"><ele>332.0</ele><time>2026-05-01T14:30:50.8Z</time></trkpt><trkpt lat="43.4452803" lon="13.1623058"><ele>333.5</ele><time>2026-05-01T14:30:51.8Z</time></trkpt><trkpt lat="43.4452575" lon="13.1624176"><ele>335.0</ele><time>2026-05-01T14:30:52.8Z</time></trkpt><trkpt lat="43.4452202" lon="13.1625284"><ele>336.5</ele><time>2026-05-01T14:30:53.8Z</time></trkpt><trkpt lat="43.4451843" lon="13.1626276"><ele>338.0</ele><time>2026-05-01T14:30:54.799Z</time></trkpt><trkpt lat="43.4451422" lon="13.1627236"><ele>340.0</ele><time>2026-05-01T14:30:55.799Z</time></trkpt><trkpt lat="43.445107" lon="13.1628206"><ele>342.0</ele><time>2026-05-01T14:30:56.8Z</time></trkpt><trkpt lat="43.4450694" lon="13.1629128"><ele>344.0</ele><time>2026-05-01T14:30:57.801Z</time></trkpt><trkpt lat="43.4450245" lon="13.163002"><ele>346.0</ele><time>2026-05-01T14:30:58.799Z</time></trkpt><trkpt lat="43.4449719" lon="13.1630866"><ele>348.0</ele><time>2026-05-01T14:30:59.799Z</time></trkpt><trkpt lat="43.4449158" lon="13.1631655"><ele>350.0</ele><time>2026-05-01T14:31:00.8Z</time></trkpt><trkpt lat="43.4448573" lon="13.1632414"><ele>349.1666666666667</ele><time>2026-05-01T14:31:01.8Z</time></trkpt><trkpt lat="43.4447952" lon="13.1633257"><ele>348.33333333333337</ele><time>2026-05-01T14:31:02.799Z</time></trkpt><trkpt lat="43.444737" lon="13.163421"><ele>347.5</ele><time>2026-05-01T14:31:03.8Z</time></trkpt><trkpt lat="43.4446889" lon="13.1635256"><ele>346.6666666666667</ele><time>2026-05-01T14:31:04.8Z</time></trkpt><trkpt lat="43.4446523" lon="13.1636417"><ele>345.8333333333333</ele><time>2026-05-01T14:31:05.8Z</time></trkpt><trkpt lat="43.4446296" lon="13.1637609"><ele>345.0</ele><time>2026-05-01T14:31:06.8Z</time></trkpt><trkpt lat="43.4446213" lon="13.1638774"><ele>345.0</ele><time>2026-05-01T14:31:07.801Z</time></trkpt><trkpt lat="43.4446224" lon="13.1639964"><ele>345.0</ele><time>2026-05-01T14:31:08.799Z</time></trkpt><trkpt lat="43.4446263" lon="13.1641198"><ele>345.0</ele><time>2026-05-01T14:31:09.8Z</time></trkpt><trkpt lat="43.4446317" lon="13.1642414"><ele>345.0</ele><time>2026-05-01T14:31:10.8Z</time></trkpt><trkpt lat="43.4446341" lon="13.1643629"><ele>345.0</ele><time>2026-05-01T14:31:11.8Z</time></trkpt><trkpt lat="43.4446346" lon="13.1644799"><ele>345.0</ele><time>2026-05-01T14:31:12.801Z</time></trkpt><trkpt lat="43.4446413" lon="13.1645944"><ele>349.2</ele><time>2026-05-01T14:31:13.8Z</time></trkpt><trkpt lat="43.4446512" lon="13.1647086"><ele>353.4</ele><time>2026-05-01T14:31:14.801Z</time></trkpt><trkpt lat="43.4446635" lon="13.1648249"><ele>357.6</ele><time>2026-05-01T14:31:15.8Z</time></trkpt><trkpt lat="43.4446818" lon="13.1649438"><ele>361.8</ele><time>2026-05-01T14:31:16.8Z</time></trkpt><trkpt lat="43.4447008" lon="13.1650686"><ele>366.0</ele><time>2026-05-01T14:31:17.8Z</time></trkpt><trkpt lat="43.4447149" lon="13.1652055"><ele>366.0</ele><time>2026-05-01T14:31:18.799Z</time></trkpt><trkpt lat="43.4447323" lon="13.1653403"><ele>366.0</ele><time>2026-05-01T14:31:19.8Z</time></trkpt><trkpt lat="43.4447487" lon="13.1654872"><ele>366.0</ele><time>2026-05-01T14:31:20.8Z</time></trkpt><trkpt lat="43.4447587" lon="13.1656339"><ele>366.0</ele><time>2026-05-01T14:31:21.799Z</time></trkpt><trkpt lat="43.4447672" lon="13.1657815"><ele>366.0</ele><time>2026-05-01T14:31:22.8Z</time></trkpt><trkpt lat="43.4447749" lon="13.1659318"><ele>366.0</ele><time>2026-05-01T14:31:23.8Z</time></trkpt><trkpt lat="43.4447819" lon="13.1660803"><ele>366.0</ele><time>2026-05-01T14:31:24.799Z</time></trkpt><trkpt lat="43.4447886" lon="13.1662141"><ele>366.0</ele><time>2026-05-01T14:31:25.8Z</time></trkpt><trkpt lat="43.4447959" lon="13.1663316"><ele>366.0</ele><time>2026-05-01T14:31:26.799Z</time></trkpt><trkpt lat="43.444792" lon="13.1664257"><ele>366.0</ele><time>2026-05-01T14:31:27.799Z</time></trkpt><trkpt lat="43.4447699" lon="13.1665486"><ele>366.0</ele><time>2026-05-01T14:31:29.799Z</time></trkpt><trkpt lat="43.4447259" lon="13.166667"><ele>366.0</ele><time>2026-05-01T14:31:31.8Z</time></trkpt><trkpt lat="43.4446905" lon="13.1667395"><ele>366.0</ele><time>2026-05-01T14:31:32.8Z</time></trkpt><trkpt lat="43.444648" lon="13.1668263"><ele>366.0</ele><time>2026-05-01T14:31:33.8Z</time></trkpt><trkpt lat="43.4446037" lon="13.1669227"><ele>366.0</ele><time>2026-05-01T14:31:34.799Z</time></trkpt><trkpt lat="43.4445588" lon="13.1670287"><ele>366.0</ele><time>2026-05-01T14:31:35.799Z</time></trkpt><trkpt lat="43.4445013" lon="13.1671357"><ele>366.8</ele><time>2026-05-01T14:31:36.8Z</time></trkpt><trkpt lat="43.4444454" lon="13.1672474"><ele>367.6</ele><time>2026-05-01T14:31:37.799Z</time></trkpt><trkpt lat="43.4443893" lon="13.1673694"><ele>368.4</ele><time>2026-05-01T14:31:38.8Z</time></trkpt><trkpt lat="43.4443311" lon="13.1674958"><ele>369.2</ele><time>2026-05-01T14:31:39.799Z</time></trkpt><trkpt lat="43.4442748" lon="13.1676248"><ele>370.0</ele><time>2026-05-01T14:31:40.8Z</time></trkpt><trkpt lat="43.4442152" lon="13.1677548"><ele>370.8</ele><time>2026-05-01T14:31:41.8Z</time></trkpt><trkpt lat="43.4441565" lon="13.1678853"><ele>371.6</ele><time>2026-05-01T14:31:42.801Z</time></trkpt><trkpt lat="43.4440994" lon="13.1680166"><ele>372.4</ele><time>2026-05-01T14:31:43.8Z</time></trkpt><trkpt lat="43.4440429" lon="13.1681502"><ele>373.2</ele><time>2026-05-01T14:31:44.8Z</time></trkpt><trkpt lat="43.4439902" lon="13.1682808"><ele>374.0</ele><time>2026-05-01T14:31:45.8Z</time></trkpt><trkpt lat="43.443943" lon="13.168417"><ele>374.0</ele><time>2026-05-01T14:31:46.8Z</time></trkpt><trkpt lat="43.443896" lon="13.1685496"><ele>374.0</ele><time>2026-05-01T14:31:47.799Z</time></trkpt><trkpt lat="43.4438443" lon="13.1686826"><ele>374.0</ele><time>2026-05-01T14:31:48.8Z</time></trkpt><trkpt lat="43.443786" lon="13.1688108"><ele>374.0</ele><time>2026-05-01T14:31:49.8Z</time></trkpt><trkpt lat="43.4437249" lon="13.1689327"><ele>374.0</ele><time>2026-05-01T14:31:50.799Z</time></trkpt><trkpt lat="43.4436566" lon="13.1690527"><ele>376.5</ele><time>2026-05-01T14:31:51.799Z</time></trkpt><trkpt lat="43.4435828" lon="13.1691722"><ele>379.0</ele><time>2026-05-01T14:31:52.799Z</time></trkpt><trkpt lat="43.4435075" lon="13.1692888"><ele>381.5</ele><time>2026-05-01T14:31:53.8Z</time></trkpt><trkpt lat="43.4434292" lon="13.1694105"><ele>384.0</ele><time>2026-05-01T14:31:54.801Z</time></trkpt><trkpt lat="43.4433545" lon="13.1695378"><ele>384.0</ele><time>2026-05-01T14:31:55.799Z</time></trkpt><trkpt lat="43.4432807" lon="13.169673"><ele>384.0</ele><time>2026-05-01T14:31:56.799Z</time></trkpt><trkpt lat="43.4432086" lon="13.1698042"><ele>384.0</ele><time>2026-05-01T14:31:57.8Z</time></trkpt><trkpt lat="43.4431358" lon="13.1699301"><ele>384.0</ele><time>2026-05-01T14:31:58.799Z</time></trkpt><trkpt lat="43.4430587" lon="13.1700586"><ele>383.75</ele><time>2026-05-01T14:31:59.799Z</time></trkpt><trkpt lat="43.4429858" lon="13.1701844"><ele>383.5</ele><time>2026-05-01T14:32:00.801Z</time></trkpt><trkpt lat="43.4429218" lon="13.170317"><ele>383.25</ele><time>2026-05-01T14:32:01.799Z</time></trkpt><trkpt lat="43.4428688" lon="13.1704557"><ele>383.0</ele><time>2026-05-01T14:32:02.8Z</time></trkpt><trkpt lat="43.4428285" lon="13.1705953"><ele>384.1666666666667</ele><time>2026-05-01T14:32:03.8Z</time></trkpt><trkpt lat="43.4427909" lon="13.1707261"><ele>385.33333333333337</ele><time>2026-05-01T14:32:04.8Z</time></trkpt><trkpt lat="43.4427534" lon="13.1708429"><ele>386.5</ele><time>2026-05-01T14:32:05.8Z</time></trkpt><trkpt lat="43.4427159" lon="13.1709466"><ele>387.6666666666667</ele><time>2026-05-01T14:32:06.8Z</time></trkpt><trkpt lat="43.4426782" lon="13.171045"><ele>388.8333333333333</ele><time>2026-05-01T14:32:07.8Z</time></trkpt><trkpt lat="43.4426327" lon="13.1711426"><ele>390.0</ele><time>2026-05-01T14:32:08.8Z</time></trkpt><trkpt lat="43.4425762" lon="13.1712386"><ele>390.0</ele><time>2026-05-01T14:32:09.799Z</time></trkpt><trkpt lat="43.4425149" lon="13.1713357"><ele>390.0</ele><time>2026-05-01T14:32:10.8Z</time></trkpt><trkpt lat="43.4424523" lon="13.1714317"><ele>390.0</ele><time>2026-05-01T14:32:11.8Z</time></trkpt><trkpt lat="43.4423912" lon="13.1715285"><ele>390.0</ele><time>2026-05-01T14:32:12.8Z</time></trkpt><trkpt lat="43.442331" lon="13.171624"><ele>390.0</ele><time>2026-05-01T14:32:13.799Z</time></trkpt><trkpt lat="43.4422677" lon="13.1717221"><ele>389.6</ele><time>2026-05-01T14:32:14.801Z</time></trkpt><trkpt lat="43.4422008" lon="13.1718256"><ele>389.2</ele><time>2026-05-01T14:32:15.8Z</time></trkpt><trkpt lat="43.442135" lon="13.1719377"><ele>388.79999999999995</ele><time>2026-05-01T14:32:16.799Z</time></trkpt><trkpt lat="43.4420699" lon="13.1720549"><ele>388.4</ele><time>2026-05-01T14:32:17.8Z</time></trkpt><trkpt lat="43.4420054" lon="13.1721818"><ele>388.0</ele><time>2026-05-01T14:32:18.8Z</time></trkpt><trkpt lat="43.4419391" lon="13.1723047"><ele>387.79999999999995</ele><time>2026-05-01T14:32:19.8Z</time></trkpt><trkpt lat="43.4418711" lon="13.1724249"><ele>387.6</ele><time>2026-05-01T14:32:20.8Z</time></trkpt><trkpt lat="43.4418045" lon="13.1725398"><ele>387.4</ele><time>2026-05-01T14:32:21.799Z</time></trkpt><trkpt lat="43.441739" lon="13.1726496"><ele>387.20000000000005</ele><time>2026-05-01T14:32:22.8Z</time></trkpt><trkpt lat="43.4416718" lon="13.1727581"><ele>387.0</ele><time>2026-05-01T14:32:23.799Z</time></trkpt><trkpt lat="43.4416041" lon="13.1728621"><ele>387.0</ele><time>2026-05-01T14:32:24.799Z</time></trkpt><trkpt lat="43.4415331" lon="13.1729623"><ele>387.0</ele><time>2026-05-01T14:32:25.799Z</time></trkpt><trkpt lat="43.4414637" lon="13.1730669"><ele>387.0</ele><time>2026-05-01T14:32:26.8Z</time></trkpt><trkpt lat="43.4413946" lon="13.1731753"><ele>387.0</ele><time>2026-05-01T14:32:27.799Z</time></trkpt><trkpt lat="43.4413336" lon="13.1732881"><ele>387.0</ele><time>2026-05-01T14:32:28.799Z</time></trkpt><trkpt lat="43.441278" lon="13.1734039"><ele>386.8</ele><time>2026-05-01T14:32:29.8Z</time></trkpt><trkpt lat="43.4412204" lon="13.1735305"><ele>386.6</ele><time>2026-05-01T14:32:30.8Z</time></trkpt><trkpt lat="43.4411631" lon="13.1736642"><ele>386.40000000000003</ele><time>2026-05-01T14:32:31.799Z</time></trkpt><trkpt lat="43.4410986" lon="13.1737956"><ele>386.20000000000005</ele><time>2026-05-01T14:32:32.799Z</time></trkpt><trkpt lat="43.4410335" lon="13.1739212"><ele>386.0</ele><time>2026-05-01T14:32:33.801Z</time></trkpt><trkpt lat="43.4409566" lon="13.174039"><ele>386.0</ele><time>2026-05-01T14:32:34.8Z</time></trkpt><trkpt lat="43.4408782" lon="13.1741509"><ele>386.0</ele><time>2026-05-01T14:32:35.799Z</time></trkpt><trkpt lat="43.4407908" lon="13.1742579"><ele>386.0</ele><time>2026-05-01T14:32:36.8Z</time></trkpt><trkpt lat="43.4406983" lon="13.1743605"><ele>386.0</ele><time>2026-05-01T14:32:37.8Z</time></trkpt><trkpt lat="43.4406066" lon="13.1744667"><ele>386.0</ele><time>2026-05-01T14:32:38.799Z</time></trkpt><trkpt lat="43.4405288" lon="13.1745833"><ele>386.0</ele><time>2026-05-01T14:32:39.8Z</time></trkpt><trkpt lat="43.4404569" lon="13.1746974"><ele>386.0</ele><time>2026-05-01T14:32:40.8Z</time></trkpt><trkpt lat="43.4403948" lon="13.1748333"><ele>386.0</ele><time>2026-05-01T14:32:41.8Z</time></trkpt><trkpt lat="43.440337" lon="13.1749778"><ele>386.25</ele><time>2026-05-01T14:32:42.8Z</time></trkpt><trkpt lat="43.4402724" lon="13.1751275"><ele>386.5</ele><time>2026-05-01T14:32:43.799Z</time></trkpt><trkpt lat="43.4402059" lon="13.1752691"><ele>386.75</ele><time>2026-05-01T14:32:44.799Z</time></trkpt><trkpt lat="43.4401364" lon="13.1753975"><ele>387.0</ele><time>2026-05-01T14:32:45.801Z</time></trkpt><trkpt lat="43.4400684" lon="13.1755145"><ele>387.0</ele><time>2026-05-01T14:32:46.8Z</time></trkpt><trkpt lat="43.4399979" lon="13.1756058"><ele>387.0</ele><time>2026-05-01T14:32:47.801Z</time></trkpt><trkpt lat="43.4399393" lon="13.1756896"><ele>387.0</ele><time>2026-05-01T14:32:48.8Z</time></trkpt><trkpt lat="43.4398932" lon="13.1757601"><ele>387.0</ele><time>2026-05-01T14:32:49.8Z</time></trkpt><trkpt lat="43.4398051" lon="13.1758733"><ele>387.0</ele><time>2026-05-01T14:32:51.8Z</time></trkpt><trkpt lat="43.4397483" lon="13.1759365"><ele>387.0</ele><time>2026-05-01T14:32:52.8Z</time></trkpt><trkpt lat="43.439678" lon="13.1760014"><ele>385.6</ele><time>2026-05-01T14:32:53.8Z</time></trkpt><trkpt lat="43.4396047" lon="13.1760778"><ele>384.20000000000005</ele><time>2026-05-01T14:32:54.8Z</time></trkpt><trkpt lat="43.4395272" lon="13.1761623"><ele>382.8</ele><time>2026-05-01T14:32:55.8Z</time></trkpt><trkpt lat="43.4394462" lon="13.1762495"><ele>381.4</ele><time>2026-05-01T14:32:56.8Z</time></trkpt><trkpt lat="43.4393551" lon="13.176335"><ele>380.0</ele><time>2026-05-01T14:32:57.8Z</time></trkpt><trkpt lat="43.4392653" lon="13.1764252"><ele>380.0</ele><time>2026-05-01T14:32:58.8Z</time></trkpt><trkpt lat="43.4391797" lon="13.1765106"><ele>380.0</ele><time>2026-05-01T14:32:59.8Z</time></trkpt><trkpt lat="43.4390964" lon="13.1765982"><ele>380.0</ele><time>2026-05-01T14:33:00.8Z</time></trkpt><trkpt lat="43.4390044" lon="13.176691"><ele>380.0</ele><time>2026-05-01T14:33:01.799Z</time></trkpt><trkpt lat="43.4389156" lon="13.1767807"><ele>380.0</ele><time>2026-05-01T14:33:02.8Z</time></trkpt><trkpt lat="43.4388262" lon="13.1768683"><ele>380.4</ele><time>2026-05-01T14:33:03.799Z</time></trkpt><trkpt lat="43.4387394" lon="13.1769553"><ele>380.8</ele><time>2026-05-01T14:33:04.8Z</time></trkpt><trkpt lat="43.4386516" lon="13.1770352"><ele>381.20000000000005</ele><time>2026-05-01T14:33:05.801Z</time></trkpt><trkpt lat="43.4385649" lon="13.1771153"><ele>381.6</ele><time>2026-05-01T14:33:06.799Z</time></trkpt><trkpt lat="43.4384772" lon="13.1772014"><ele>382.0</ele><time>2026-05-01T14:33:07.8Z</time></trkpt><trkpt lat="43.4383929" lon="13.1772873"><ele>382.0</ele><time>2026-05-01T14:33:08.8Z</time></trkpt><trkpt lat="43.4383074" lon="13.1773702"><ele>382.0</ele><time>2026-05-01T14:33:09.799Z</time></trkpt><trkpt lat="43.4382223" lon="13.1774561"><ele>382.0</ele><time>2026-05-01T14:33:10.8Z</time></trkpt><trkpt lat="43.4381357" lon="13.1775394"><ele>382.0</ele><time>2026-05-01T14:33:11.799Z</time></trkpt><trkpt lat="43.4380485" lon="13.1776232"><ele>382.0</ele><time>2026-05-01T14:33:12.8Z</time></trkpt><trkpt lat="43.4379606" lon="13.1777089"><ele>383.25</ele><time>2026-05-01T14:33:13.8Z</time></trkpt><trkpt lat="43.4378702" lon="13.1777978"><ele>384.5</ele><time>2026-05-01T14:33:14.799Z</time></trkpt><trkpt lat="43.4377793" lon="13.1778845"><ele>385.75</ele><time>2026-05-01T14:33:15.8Z</time></trkpt><trkpt lat="43.4376842" lon="13.1779729"><ele>387.0</ele><time>2026-05-01T14:33:16.799Z</time></trkpt><trkpt lat="43.4375896" lon="13.1780658"><ele>387.0</ele><time>2026-05-01T14:33:17.8Z</time></trkpt><trkpt lat="43.4374916" lon="13.1781618"><ele>387.0</ele><time>2026-05-01T14:33:18.8Z</time></trkpt><trkpt lat="43.4373951" lon="13.1782569"><ele>387.0</ele><time>2026-05-01T14:33:19.799Z</time></trkpt><trkpt lat="43.4372973" lon="13.1783514"><ele>387.0</ele><time>2026-05-01T14:33:20.8Z</time></trkpt><trkpt lat="43.4372031" lon="13.1784448"><ele>388.5</ele><time>2026-05-01T14:33:21.8Z</time></trkpt><trkpt lat="43.4371058" lon="13.1785365"><ele>390.0</ele><time>2026-05-01T14:33:22.8Z</time></trkpt><trkpt lat="43.4370094" lon="13.178625"><ele>391.5</ele><time>2026-05-01T14:33:23.8Z</time></trkpt><trkpt lat="43.4369136" lon="13.1787131"><ele>393.0</ele><time>2026-05-01T14:33:24.8Z</time></trkpt><trkpt lat="43.4368197" lon="13.1788025"><ele>393.0</ele><time>2026-05-01T14:33:25.799Z</time></trkpt><trkpt lat="43.43673" lon="13.1788988"><ele>393.0</ele><time>2026-05-01T14:33:26.8Z</time></trkpt><trkpt lat="43.4366427" lon="13.1789921"><ele>393.0</ele><time>2026-05-01T14:33:27.8Z</time></trkpt><trkpt lat="43.4365562" lon="13.1790961"><ele>393.0</ele><time>2026-05-01T14:33:28.8Z</time></trkpt><trkpt lat="43.4364745" lon="13.1792057"><ele>393.2</ele><time>2026-05-01T14:33:29.8Z</time></trkpt><trkpt lat="43.4363978" lon="13.1793173"><ele>393.4</ele><time>2026-05-01T14:33:30.8Z</time></trkpt><trkpt lat="43.436326" lon="13.1794332"><ele>393.59999999999997</ele><time>2026-05-01T14:33:31.799Z</time></trkpt><trkpt lat="43.4362568" lon="13.1795497"><ele>393.79999999999995</ele><time>2026-05-01T14:33:32.8Z</time></trkpt><trkpt lat="43.4361886" lon="13.17967"><ele>394.0</ele><time>2026-05-01T14:33:33.8Z</time></trkpt><trkpt lat="43.4361221" lon="13.1797953"><ele>395.4</ele><time>2026-05-01T14:33:34.8Z</time></trkpt><trkpt lat="43.4360583" lon="13.1799196"><ele>396.79999999999995</ele><time>2026-05-01T14:33:35.8Z</time></trkpt><trkpt lat="43.4359915" lon="13.1800426"><ele>398.20000000000005</ele><time>2026-05-01T14:33:36.799Z</time></trkpt><trkpt lat="43.4359232" lon="13.1801654"><ele>399.6</ele><time>2026-05-01T14:33:37.8Z</time></trkpt><trkpt lat="43.4358583" lon="13.1802856"><ele>401.0</ele><time>2026-05-01T14:33:38.8Z</time></trkpt><trkpt lat="43.4357948" lon="13.1804075"><ele>401.0</ele><time>2026-05-01T14:33:39.8Z</time></trkpt><trkpt lat="43.4357359" lon="13.1805321"><ele>401.0</ele><time>2026-05-01T14:33:40.799Z</time></trkpt><trkpt lat="43.4356789" lon="13.1806676"><ele>401.0</ele><time>2026-05-01T14:33:41.799Z</time></trkpt><trkpt lat="43.4356226" lon="13.1808068"><ele>401.0</ele><time>2026-05-01T14:33:42.8Z</time></trkpt><trkpt lat="43.4355647" lon="13.1809412"><ele>400.75</ele><time>2026-05-01T14:33:43.8Z</time></trkpt><trkpt lat="43.4355075" lon="13.1810786"><ele>400.5</ele><time>2026-05-01T14:33:44.801Z</time></trkpt><trkpt lat="43.435451" lon="13.1812156"><ele>400.25</ele><time>2026-05-01T14:33:45.8Z</time></trkpt><trkpt lat="43.4353963" lon="13.1813526"><ele>400.0</ele><time>2026-05-01T14:33:46.799Z</time></trkpt><trkpt lat="43.4353393" lon="13.1814878"><ele>402.75</ele><time>2026-05-01T14:33:47.799Z</time></trkpt><trkpt lat="43.4352821" lon="13.1816253"><ele>405.5</ele><time>2026-05-01T14:33:48.8Z</time></trkpt><trkpt lat="43.4352247" lon="13.181763"><ele>408.25</ele><time>2026-05-01T14:33:49.8Z</time></trkpt><trkpt lat="43.4351668" lon="13.1819008"><ele>411.0</ele><time>2026-05-01T14:33:50.799Z</time></trkpt><trkpt lat="43.435108" lon="13.1820307"><ele>411.0</ele><time>2026-05-01T14:33:51.8Z</time></trkpt><trkpt lat="43.4350443" lon="13.1821548"><ele>411.0</ele><time>2026-05-01T14:33:52.8Z</time></trkpt><trkpt lat="43.4349716" lon="13.1822688"><ele>411.0</ele><time>2026-05-01T14:33:53.8Z</time></trkpt><trkpt lat="43.4348888" lon="13.1823659"><ele>411.0</ele><time>2026-05-01T14:33:54.8Z</time></trkpt><trkpt lat="43.4348012" lon="13.1824496"><ele>411.0</ele><time>2026-05-01T14:33:55.801Z</time></trkpt><trkpt lat="43.434711" lon="13.1825229"><ele>413.75</ele><time>2026-05-01T14:33:56.799Z</time></trkpt><trkpt lat="43.4346134" lon="13.1825891"><ele>416.5</ele><time>2026-05-01T14:33:57.799Z</time></trkpt><trkpt lat="43.4345127" lon="13.1826514"><ele>419.25</ele><time>2026-05-01T14:33:58.8Z</time></trkpt><trkpt lat="43.4344072" lon="13.1827156"><ele>422.0</ele><time>2026-05-01T14:33:59.8Z</time></trkpt><trkpt lat="43.4342997" lon="13.1827823"><ele>422.0</ele><time>2026-05-01T14:34:00.799Z</time></trkpt><trkpt lat="43.4341953" lon="13.1828426"><ele>422.0</ele><time>2026-05-01T14:34:01.799Z</time></trkpt><trkpt lat="43.4340893" lon="13.182907"><ele>422.0</ele><time>2026-05-01T14:34:02.801Z</time></trkpt><trkpt lat="43.4339883" lon="13.1829676"><ele>422.0</ele><time>2026-05-01T14:34:03.8Z</time></trkpt><trkpt lat="43.4338898" lon="13.1830275"><ele>422.0</ele><time>2026-05-01T14:34:04.799Z</time></trkpt><trkpt lat="43.433792" lon="13.1830822"><ele>421.0</ele><time>2026-05-01T14:34:05.8Z</time></trkpt><trkpt lat="43.4336957" lon="13.1831387"><ele>420.0</ele><time>2026-05-01T14:34:06.799Z</time></trkpt><trkpt lat="43.4336017" lon="13.183196"><ele>419.0</ele><time>2026-05-01T14:34:07.799Z</time></trkpt><trkpt lat="43.4335072" lon="13.1832542"><ele>418.0</ele><time>2026-05-01T14:34:08.8Z</time></trkpt><trkpt lat="43.4334137" lon="13.1833102"><ele>417.0</ele><time>2026-05-01T14:34:09.799Z</time></trkpt><trkpt lat="43.4333206" lon="13.1833679"><ele>418.1666666666667</ele><time>2026-05-01T14:34:10.8Z</time></trkpt><trkpt lat="43.4332311" lon="13.1834234"><ele>419.33333333333337</ele><time>2026-05-01T14:34:11.801Z</time></trkpt><trkpt lat="43.4331476" lon="13.1834782"><ele>420.5</ele><time>2026-05-01T14:34:12.8Z</time></trkpt><trkpt lat="43.4330724" lon="13.1835347"><ele>421.6666666666667</ele><time>2026-05-01T14:34:13.8Z</time></trkpt><trkpt lat="43.4330152" lon="13.1835793"><ele>422.83333333333337</ele><time>2026-05-01T14:34:14.799Z</time></trkpt><trkpt lat="43.4329413" lon="13.1836427"><ele>424.0</ele><time>2026-05-01T14:34:16.8Z</time></trkpt><trkpt lat="43.4328781" lon="13.1836442"><ele>424.00000000000006</ele><time>2026-05-01T14:34:19.799Z</time></trkpt><trkpt lat="43.432818" lon="13.1836073"><ele>424.0</ele><time>2026-05-01T14:34:22.799Z</time></trkpt><trkpt lat="43.4327595" lon="13.1835708"><ele>424.0</ele><time>2026-05-01T14:34:24.799Z</time></trkpt><trkpt lat="43.4326723" lon="13.183499"><ele>424.0</ele><time>2026-05-01T14:34:26.799Z</time></trkpt><trkpt lat="43.4325644" lon="13.1833931"><ele>424.00000000000006</ele><time>2026-05-01T14:34:28.8Z</time></trkpt><trkpt lat="43.4324996" lon="13.1833355"><ele>424.0</ele><time>2026-05-01T14:34:29.799Z</time></trkpt><trkpt lat="43.4324284" lon="13.1832788"><ele>424.00000000000006</ele><time>2026-05-01T14:34:30.8Z</time></trkpt><trkpt lat="43.4323551" lon="13.1832147"><ele>424.0</ele><time>2026-05-01T14:34:31.799Z</time></trkpt><trkpt lat="43.4322859" lon="13.1831455"><ele>424.0</ele><time>2026-05-01T14:34:32.8Z</time></trkpt><trkpt lat="43.4322126" lon="13.1830773"><ele>424.0</ele><time>2026-05-01T14:34:33.799Z</time></trkpt><trkpt lat="43.4321359" lon="13.1830084"><ele>424.00000000000006</ele><time>2026-05-01T14:34:34.8Z</time></trkpt><trkpt lat="43.4320562" lon="13.1829402"><ele>424.0</ele><time>2026-05-01T14:34:35.799Z</time></trkpt><trkpt lat="43.4319788" lon="13.1828665"><ele>422.0</ele><time>2026-05-01T14:34:36.8Z</time></trkpt><trkpt lat="43.4319004" lon="13.1827916"><ele>420.0</ele><time>2026-05-01T14:34:37.8Z</time></trkpt><trkpt lat="43.4318198" lon="13.1827163"><ele>418.0</ele><time>2026-05-01T14:34:38.8Z</time></trkpt><trkpt lat="43.4317384" lon="13.182639"><ele>416.0</ele><time>2026-05-01T14:34:39.799Z</time></trkpt><trkpt lat="43.4316553" lon="13.1825661"><ele>414.0</ele><time>2026-05-01T14:34:40.799Z</time></trkpt><trkpt lat="43.4315677" lon="13.1824954"><ele>414.0</ele><time>2026-05-01T14:34:41.8Z</time></trkpt><trkpt lat="43.4314858" lon="13.1824171"><ele>414.0</ele><time>2026-05-01T14:34:42.799Z</time></trkpt><trkpt lat="43.4314031" lon="13.1823363"><ele>414.0</ele><time>2026-05-01T14:34:43.8Z</time></trkpt><trkpt lat="43.4313167" lon="13.1822631"><ele>414.0</ele><time>2026-05-01T14:34:44.799Z</time></trkpt><trkpt lat="43.4312316" lon="13.1821857"><ele>414.0</ele><time>2026-05-01T14:34:45.799Z</time></trkpt><trkpt lat="43.4311447" lon="13.1821074"><ele>411.79999999999995</ele><time>2026-05-01T14:34:46.8Z</time></trkpt><trkpt lat="43.4310582" lon="13.1820261"><ele>409.59999999999997</ele><time>2026-05-01T14:34:47.8Z</time></trkpt><trkpt lat="43.4309724" lon="13.1819434"><ele>407.4</ele><time>2026-05-01T14:34:48.799Z</time></trkpt><trkpt lat="43.4308835" lon="13.1818619"><ele>405.2</ele><time>2026-05-01T14:34:49.8Z</time></trkpt><trkpt lat="43.4307902" lon="13.1817819"><ele>403.0</ele><time>2026-05-01T14:34:50.8Z</time></trkpt><trkpt lat="43.4306979" lon="13.1816973"><ele>403.0</ele><time>2026-05-01T14:34:51.8Z</time></trkpt><trkpt lat="43.4306059" lon="13.1816092"><ele>403.0</ele><time>2026-05-01T14:34:52.8Z</time></trkpt><trkpt lat="43.4305112" lon="13.1815199"><ele>403.0</ele><time>2026-05-01T14:34:53.8Z</time></trkpt><trkpt lat="43.4304132" lon="13.1814351"><ele>403.0</ele><time>2026-05-01T14:34:54.8Z</time></trkpt><trkpt lat="43.4303165" lon="13.181345"><ele>400.75</ele><time>2026-05-01T14:34:55.799Z</time></trkpt><trkpt lat="43.4302199" lon="13.1812538"><ele>398.5</ele><time>2026-05-01T14:34:56.8Z</time></trkpt><trkpt lat="43.4301208" lon="13.1811632"><ele>396.25</ele><time>2026-05-01T14:34:57.799Z</time></trkpt><trkpt lat="43.4300213" lon="13.1810712"><ele>394.0</ele><time>2026-05-01T14:34:58.799Z</time></trkpt><trkpt lat="43.4299224" lon="13.1809784"><ele>394.0</ele><time>2026-05-01T14:34:59.8Z</time></trkpt><trkpt lat="43.429824" lon="13.180885"><ele>394.0</ele><time>2026-05-01T14:35:00.799Z</time></trkpt><trkpt lat="43.4297219" lon="13.1807924"><ele>394.0</ele><time>2026-05-01T14:35:01.801Z</time></trkpt><trkpt lat="43.4296224" lon="13.180697"><ele>394.0</ele><time>2026-05-01T14:35:02.8Z</time></trkpt><trkpt lat="43.4295199" lon="13.1805991"><ele>390.5</ele><time>2026-05-01T14:35:03.799Z</time></trkpt><trkpt lat="43.4294177" lon="13.1805036"><ele>387.0</ele><time>2026-05-01T14:35:04.799Z</time></trkpt><trkpt lat="43.4293154" lon="13.1804098"><ele>383.5</ele><time>2026-05-01T14:35:05.799Z</time></trkpt><trkpt lat="43.4292119" lon="13.1803128"><ele>380.0</ele><time>2026-05-01T14:35:06.801Z</time></trkpt><trkpt lat="43.4291058" lon="13.1802162"><ele>380.0</ele><time>2026-05-01T14:35:07.8Z</time></trkpt><trkpt lat="43.4290002" lon="13.1801174"><ele>380.0</ele><time>2026-05-01T14:35:08.799Z</time></trkpt><trkpt lat="43.4288938" lon="13.1800184"><ele>380.0</ele><time>2026-05-01T14:35:09.8Z</time></trkpt><trkpt lat="43.4287864" lon="13.1799202"><ele>380.0</ele><time>2026-05-01T14:35:10.799Z</time></trkpt><trkpt lat="43.4286797" lon="13.1798191"><ele>377.5</ele><time>2026-05-01T14:35:11.8Z</time></trkpt><trkpt lat="43.4285717" lon="13.1797224"><ele>375.0</ele><time>2026-05-01T14:35:12.801Z</time></trkpt><trkpt lat="43.428464" lon="13.1796314"><ele>372.5</ele><time>2026-05-01T14:35:13.799Z</time></trkpt><trkpt lat="43.4283497" lon="13.1795615"><ele>370.0</ele><time>2026-05-01T14:35:14.799Z</time></trkpt><trkpt lat="43.4282292" lon="13.1795058"><ele>370.0</ele><time>2026-05-01T14:35:15.799Z</time></trkpt><trkpt lat="43.428108" lon="13.1794628"><ele>370.0</ele><time>2026-05-01T14:35:16.8Z</time></trkpt><trkpt lat="43.4279854" lon="13.1794233"><ele>370.0</ele><time>2026-05-01T14:35:17.799Z</time></trkpt><trkpt lat="43.4278635" lon="13.1793827"><ele>370.0</ele><time>2026-05-01T14:35:18.8Z</time></trkpt><trkpt lat="43.4277402" lon="13.1793389"><ele>370.0</ele><time>2026-05-01T14:35:19.8Z</time></trkpt><trkpt lat="43.427623" lon="13.1792823"><ele>370.0</ele><time>2026-05-01T14:35:20.8Z</time></trkpt><trkpt lat="43.4275104" lon="13.1792223"><ele>370.0</ele><time>2026-05-01T14:35:21.8Z</time></trkpt><trkpt lat="43.4273972" lon="13.1791626"><ele>370.0</ele><time>2026-05-01T14:35:22.8Z</time></trkpt><trkpt lat="43.4272857" lon="13.1790959"><ele>370.0</ele><time>2026-05-01T14:35:23.799Z</time></trkpt><trkpt lat="43.427176" lon="13.179037"><ele>370.0</ele><time>2026-05-01T14:35:24.8Z</time></trkpt><trkpt lat="43.4270668" lon="13.1789714"><ele>370.0</ele><time>2026-05-01T14:35:25.8Z</time></trkpt><trkpt lat="43.4269542" lon="13.1789124"><ele>370.0</ele><time>2026-05-01T14:35:26.801Z</time></trkpt><trkpt lat="43.4268441" lon="13.1788479"><ele>368.75</ele><time>2026-05-01T14:35:27.8Z</time></trkpt><trkpt lat="43.4267325" lon="13.1787793"><ele>367.5</ele><time>2026-05-01T14:35:28.799Z</time></trkpt><trkpt lat="43.4266227" lon="13.1787032"><ele>366.25</ele><time>2026-05-01T14:35:29.798Z</time></trkpt><trkpt lat="43.4265147" lon="13.178618"><ele>365.0</ele><time>2026-05-01T14:35:30.798Z</time></trkpt><trkpt lat="43.4264151" lon="13.1785171"><ele>365.0</ele><time>2026-05-01T14:35:31.799Z</time></trkpt><trkpt lat="43.4263181" lon="13.178414"><ele>365.0</ele><time>2026-05-01T14:35:32.799Z</time></trkpt><trkpt lat="43.4262201" lon="13.178307"><ele>365.0</ele><time>2026-05-01T14:35:33.799Z</time></trkpt><trkpt lat="43.4261239" lon="13.1782059"><ele>365.0</ele><time>2026-05-01T14:35:34.798Z</time></trkpt><trkpt lat="43.4260229" lon="13.1781003"><ele>365.0</ele><time>2026-05-01T14:35:35.799Z</time></trkpt><trkpt lat="43.4259229" lon="13.1779921"><ele>365.0</ele><time>2026-05-01T14:35:36.799Z</time></trkpt><trkpt lat="43.4258263" lon="13.1778874"><ele>365.0</ele><time>2026-05-01T14:35:37.799Z</time></trkpt><trkpt lat="43.4257308" lon="13.1777885"><ele>365.0</ele><time>2026-05-01T14:35:38.799Z</time></trkpt><trkpt lat="43.4256377" lon="13.1776867"><ele>365.0</ele><time>2026-05-01T14:35:39.798Z</time></trkpt><trkpt lat="43.4255489" lon="13.1775871"><ele>365.0</ele><time>2026-05-01T14:35:40.799Z</time></trkpt><trkpt lat="43.4254666" lon="13.1774928"><ele>365.0</ele><time>2026-05-01T14:35:41.798Z</time></trkpt><trkpt lat="43.4253857" lon="13.1774105"><ele>365.0</ele><time>2026-05-01T14:35:42.798Z</time></trkpt><trkpt lat="43.4253071" lon="13.1773386"><ele>365.0</ele><time>2026-05-01T14:35:43.799Z</time></trkpt><trkpt lat="43.4252328" lon="13.1772778"><ele>365.0</ele><time>2026-05-01T14:35:44.8Z</time></trkpt><trkpt lat="43.4251742" lon="13.1772231"><ele>365.0</ele><time>2026-05-01T14:35:45.799Z</time></trkpt><trkpt lat="43.4250928" lon="13.177141"><ele>365.0</ele><time>2026-05-01T14:35:47.798Z</time></trkpt><trkpt lat="43.4250054" lon="13.1770729"><ele>365.0</ele><time>2026-05-01T14:35:49.798Z</time></trkpt><trkpt lat="43.4248805" lon="13.1770401"><ele>365.0</ele><time>2026-05-01T14:35:51.799Z</time></trkpt><trkpt lat="43.4248106" lon="13.17702"><ele>365.0</ele><time>2026-05-01T14:35:52.799Z</time></trkpt><trkpt lat="43.4247415" lon="13.1769726"><ele>365.0</ele><time>2026-05-01T14:35:53.8Z</time></trkpt><trkpt lat="43.4246788" lon="13.1769003"><ele>365.0</ele><time>2026-05-01T14:35:54.799Z</time></trkpt><trkpt lat="43.4246238" lon="13.176822"><ele>365.0</ele><time>2026-05-01T14:35:55.799Z</time></trkpt><trkpt lat="43.4245708" lon="13.1767356"><ele>365.0</ele><time>2026-05-01T14:35:56.798Z</time></trkpt><trkpt lat="43.4245265" lon="13.1766479"><ele>365.0</ele><time>2026-05-01T14:35:57.799Z</time></trkpt><trkpt lat="43.4244902" lon="13.1765609"><ele>365.1666666666667</ele><time>2026-05-01T14:35:58.799Z</time></trkpt><trkpt lat="43.4244536" lon="13.1764677"><ele>365.33333333333337</ele><time>2026-05-01T14:35:59.799Z</time></trkpt><trkpt lat="43.4244223" lon="13.1763723"><ele>365.5</ele><time>2026-05-01T14:36:00.799Z</time></trkpt><trkpt lat="43.4244023" lon="13.1762703"><ele>365.6666666666667</ele><time>2026-05-01T14:36:01.799Z</time></trkpt><trkpt lat="43.4243902" lon="13.1761663"><ele>365.8333333333333</ele><time>2026-05-01T14:36:02.799Z</time></trkpt><trkpt lat="43.4243733" lon="13.1760652"><ele>366.0</ele><time>2026-05-01T14:36:03.799Z</time></trkpt><trkpt lat="43.4243517" lon="13.1759636"><ele>366.0</ele><time>2026-05-01T14:36:04.798Z</time></trkpt><trkpt lat="43.4243215" lon="13.1758688"><ele>366.0</ele><time>2026-05-01T14:36:05.798Z</time></trkpt><trkpt lat="43.424279" lon="13.1757774"><ele>366.0</ele><time>2026-05-01T14:36:06.798Z</time></trkpt><trkpt lat="43.4242256" lon="13.1756905"><ele>366.0</ele><time>2026-05-01T14:36:07.798Z</time></trkpt><trkpt lat="43.4241663" lon="13.1756079"><ele>366.0</ele><time>2026-05-01T14:36:08.798Z</time></trkpt><trkpt lat="43.4241107" lon="13.1755233"><ele>366.0</ele><time>2026-05-01T14:36:09.8Z</time></trkpt><trkpt lat="43.4240613" lon="13.1754386"><ele>364.8333333333333</ele><time>2026-05-01T14:36:10.798Z</time></trkpt><trkpt lat="43.4240117" lon="13.1753503"><ele>363.6666666666667</ele><time>2026-05-01T14:36:11.799Z</time></trkpt><trkpt lat="43.4239632" lon="13.1752634"><ele>362.5</ele><time>2026-05-01T14:36:12.798Z</time></trkpt><trkpt lat="43.4239221" lon="13.175164"><ele>361.33333333333337</ele><time>2026-05-01T14:36:13.798Z</time></trkpt><trkpt lat="43.4238951" lon="13.175054"><ele>360.1666666666667</ele><time>2026-05-01T14:36:14.798Z</time></trkpt><trkpt lat="43.4238689" lon="13.1749464"><ele>359.0</ele><time>2026-05-01T14:36:15.799Z</time></trkpt><trkpt lat="43.4238391" lon="13.1748404"><ele>359.33333333333337</ele><time>2026-05-01T14:36:16.798Z</time></trkpt><trkpt lat="43.423804" lon="13.1747381"><ele>359.6666666666667</ele><time>2026-05-01T14:36:17.799Z</time></trkpt><trkpt lat="43.4237657" lon="13.1746424"><ele>360.0</ele><time>2026-05-01T14:36:18.799Z</time></trkpt><trkpt lat="43.4237263" lon="13.1745505"><ele>360.3333333333333</ele><time>2026-05-01T14:36:19.798Z</time></trkpt><trkpt lat="43.4236831" lon="13.1744645"><ele>360.66666666666663</ele><time>2026-05-01T14:36:20.799Z</time></trkpt><trkpt lat="43.423642" lon="13.1743766"><ele>361.0</ele><time>2026-05-01T14:36:21.799Z</time></trkpt><trkpt lat="43.4235983" lon="13.1742947"><ele>361.0</ele><time>2026-05-01T14:36:22.799Z</time></trkpt><trkpt lat="43.4235546" lon="13.1742167"><ele>361.0</ele><time>2026-05-01T14:36:23.799Z</time></trkpt><trkpt lat="43.4235131" lon="13.1741418"><ele>361.0</ele><time>2026-05-01T14:36:24.799Z</time></trkpt><trkpt lat="43.423468" lon="13.1740779"><ele>361.0</ele><time>2026-05-01T14:36:25.798Z</time></trkpt><trkpt lat="43.4234223" lon="13.1740034"><ele>361.0</ele><time>2026-05-01T14:36:26.798Z</time></trkpt><trkpt lat="43.4233814" lon="13.1739256"><ele>361.0</ele><time>2026-05-01T14:36:27.799Z</time></trkpt><trkpt lat="43.423347" lon="13.1738422"><ele>361.0</ele><time>2026-05-01T14:36:28.799Z</time></trkpt><trkpt lat="43.423317" lon="13.1737532"><ele>359.5714285714286</ele><time>2026-05-01T14:36:29.798Z</time></trkpt><trkpt lat="43.4232996" lon="13.1736534"><ele>358.1428571428571</ele><time>2026-05-01T14:36:30.798Z</time></trkpt><trkpt lat="43.4232845" lon="13.173555"><ele>356.7142857142857</ele><time>2026-05-01T14:36:31.8Z</time></trkpt><trkpt lat="43.4232566" lon="13.1734711"><ele>355.28571428571433</ele><time>2026-05-01T14:36:32.799Z</time></trkpt><trkpt lat="43.4232129" lon="13.1734016"><ele>353.8571428571429</ele><time>2026-05-01T14:36:33.798Z</time></trkpt><trkpt lat="43.4231605" lon="13.1733429"><ele>352.42857142857144</ele><time>2026-05-01T14:36:34.799Z</time></trkpt><trkpt lat="43.4231009" lon="13.1732896"><ele>351.0</ele><time>2026-05-01T14:36:35.799Z</time></trkpt><trkpt lat="43.4230337" lon="13.1732433"><ele>350.1666666666667</ele><time>2026-05-01T14:36:36.799Z</time></trkpt><trkpt lat="43.4229589" lon="13.1732178"><ele>349.3333333333333</ele><time>2026-05-01T14:36:37.799Z</time></trkpt><trkpt lat="43.422883" lon="13.1732055"><ele>348.5</ele><time>2026-05-01T14:36:38.8Z</time></trkpt><trkpt lat="43.4228096" lon="13.1732116"><ele>347.66666666666663</ele><time>2026-05-01T14:36:39.798Z</time></trkpt><trkpt lat="43.4227365" lon="13.1732331"><ele>346.8333333333333</ele><time>2026-05-01T14:36:40.799Z</time></trkpt><trkpt lat="43.4226673" lon="13.1732659"><ele>346.0</ele><time>2026-05-01T14:36:41.8Z</time></trkpt><trkpt lat="43.4226007" lon="13.1733273"><ele>346.0</ele><time>2026-05-01T14:36:42.8Z</time></trkpt><trkpt lat="43.4225434" lon="13.173394"><ele>346.0</ele><time>2026-05-01T14:36:43.799Z</time></trkpt><trkpt lat="43.4224967" lon="13.1734602"><ele>346.0</ele><time>2026-05-01T14:36:44.799Z</time></trkpt><trkpt lat="43.4223861" lon="13.1735484"><ele>346.0</ele><time>2026-05-01T14:36:46.799Z</time></trkpt><trkpt lat="43.4223252" lon="13.1735729"><ele>346.0</ele><time>2026-05-01T14:36:47.799Z</time></trkpt><trkpt lat="43.4222558" lon="13.173559"><ele>346.0</ele><time>2026-05-01T14:36:48.799Z</time></trkpt><trkpt lat="43.4221909" lon="13.1735175"><ele>344.0</ele><time>2026-05-01T14:36:49.798Z</time></trkpt><trkpt lat="43.4221203" lon="13.1734791"><ele>342.0</ele><time>2026-05-01T14:36:50.799Z</time></trkpt><trkpt lat="43.4220521" lon="13.1734383"><ele>340.0</ele><time>2026-05-01T14:36:51.8Z</time></trkpt><trkpt lat="43.4219789" lon="13.1734132"><ele>338.0</ele><time>2026-05-01T14:36:52.799Z</time></trkpt><trkpt lat="43.4219116" lon="13.1733916"><ele>336.0</ele><time>2026-05-01T14:36:53.799Z</time></trkpt><trkpt lat="43.4218494" lon="13.1733782"><ele>334.0</ele><time>2026-05-01T14:36:54.799Z</time></trkpt><trkpt lat="43.4217146" lon="13.1733773"><ele>334.0</ele><time>2026-05-01T14:36:56.799Z</time></trkpt><trkpt lat="43.4216521" lon="13.1733893"><ele>334.0</ele><time>2026-05-01T14:36:57.798Z</time></trkpt><trkpt lat="43.4215848" lon="13.1734183"><ele>334.0</ele><time>2026-05-01T14:36:58.798Z</time></trkpt><trkpt lat="43.4215192" lon="13.1734494"><ele>334.0</ele><time>2026-05-01T14:36:59.799Z</time></trkpt><trkpt lat="43.4214556" lon="13.1734798"><ele>334.0</ele><time>2026-05-01T14:37:00.799Z</time></trkpt><trkpt lat="43.4213904" lon="13.1735097"><ele>334.0</ele><time>2026-05-01T14:37:01.799Z</time></trkpt><trkpt lat="43.4213222" lon="13.1735418"><ele>334.0</ele><time>2026-05-01T14:37:02.798Z</time></trkpt><trkpt lat="43.4212504" lon="13.1735687"><ele>331.57142857142856</ele><time>2026-05-01T14:37:03.799Z</time></trkpt><trkpt lat="43.4211809" lon="13.1735883"><ele>329.14285714285717</ele><time>2026-05-01T14:37:04.798Z</time></trkpt><trkpt lat="43.4211114" lon="13.1735964"><ele>326.7142857142857</ele><time>2026-05-01T14:37:05.799Z</time></trkpt><trkpt lat="43.4210425" lon="13.1735914"><ele>324.2857142857143</ele><time>2026-05-01T14:37:06.799Z</time></trkpt><trkpt lat="43.4209759" lon="13.1735709"><ele>321.85714285714283</ele><time>2026-05-01T14:37:07.799Z</time></trkpt><trkpt lat="43.4209081" lon="13.173533"><ele>319.42857142857144</ele><time>2026-05-01T14:37:08.799Z</time></trkpt><trkpt lat="43.4208399" lon="13.1734747"><ele>317.0</ele><time>2026-05-01T14:37:09.799Z</time></trkpt><trkpt lat="43.4207729" lon="13.1734131"><ele>317.0</ele><time>2026-05-01T14:37:10.798Z</time></trkpt><trkpt lat="43.4207088" lon="13.1733489"><ele>317.0</ele><time>2026-05-01T14:37:11.799Z</time></trkpt><trkpt lat="43.4206417" lon="13.1732879"><ele>317.0</ele><time>2026-05-01T14:37:12.798Z</time></trkpt><trkpt lat="43.4205713" lon="13.1732303"><ele>317.0</ele><time>2026-05-01T14:37:13.799Z</time></trkpt><trkpt lat="43.4205004" lon="13.1731849"><ele>317.0</ele><time>2026-05-01T14:37:14.799Z</time></trkpt><trkpt lat="43.4204171" lon="13.1731455"><ele>317.0</ele><time>2026-05-01T14:37:15.798Z</time></trkpt><trkpt lat="43.4203321" lon="13.1731142"><ele>314.33333333333337</ele><time>2026-05-01T14:37:16.798Z</time></trkpt><trkpt lat="43.4202489" lon="13.1730846"><ele>311.6666666666667</ele><time>2026-05-01T14:37:17.799Z</time></trkpt><trkpt lat="43.4201709" lon="13.1730495"><ele>309.0</ele><time>2026-05-01T14:37:18.799Z</time></trkpt><trkpt lat="43.4201004" lon="13.1730029"><ele>306.3333333333333</ele><time>2026-05-01T14:37:19.8Z</time></trkpt><trkpt lat="43.4200216" lon="13.1729616"><ele>303.66666666666663</ele><time>2026-05-01T14:37:20.8Z</time></trkpt><trkpt lat="43.4199564" lon="13.1729082"><ele>301.0</ele><time>2026-05-01T14:37:21.799Z</time></trkpt><trkpt lat="43.4198925" lon="13.1728666"><ele>301.0</ele><time>2026-05-01T14:37:22.798Z</time></trkpt><trkpt lat="43.4198237" lon="13.1728187"><ele>301.0</ele><time>2026-05-01T14:37:23.799Z</time></trkpt><trkpt lat="43.4197573" lon="13.1727771"><ele>301.0</ele><time>2026-05-01T14:37:24.798Z</time></trkpt><trkpt lat="43.419693" lon="13.1727384"><ele>301.0</ele><time>2026-05-01T14:37:25.798Z</time></trkpt><trkpt lat="43.4196259" lon="13.1727003"><ele>301.0</ele><time>2026-05-01T14:37:26.798Z</time></trkpt><trkpt lat="43.4195586" lon="13.1726732"><ele>301.0</ele><time>2026-05-01T14:37:27.798Z</time></trkpt><trkpt lat="43.4194878" lon="13.1726485"><ele>301.0</ele><time>2026-05-01T14:37:28.799Z</time></trkpt><trkpt lat="43.4194114" lon="13.1726285"><ele>299.5</ele><time>2026-05-01T14:37:29.798Z</time></trkpt><trkpt lat="43.419334" lon="13.1726174"><ele>298.0</ele><time>2026-05-01T14:37:30.799Z</time></trkpt><trkpt lat="43.4192565" lon="13.17262"><ele>296.5</ele><time>2026-05-01T14:37:31.798Z</time></trkpt><trkpt lat="43.4191781" lon="13.1726303"><ele>295.0</ele><time>2026-05-01T14:37:32.799Z</time></trkpt><trkpt lat="43.4190998" lon="13.1726381"><ele>293.5</ele><time>2026-05-01T14:37:33.798Z</time></trkpt><trkpt lat="43.4190222" lon="13.1726464"><ele>292.0</ele><time>2026-05-01T14:37:34.799Z</time></trkpt><trkpt lat="43.4189483" lon="13.1726519"><ele>292.0</ele><time>2026-05-01T14:37:35.799Z</time></trkpt><trkpt lat="43.4188792" lon="13.1726435"><ele>292.0</ele><time>2026-05-01T14:37:36.799Z</time></trkpt><trkpt lat="43.4188187" lon="13.1726087"><ele>292.0</ele><time>2026-05-01T14:37:37.799Z</time></trkpt><trkpt lat="43.4187771" lon="13.1725428"><ele>292.0</ele><time>2026-05-01T14:37:38.798Z</time></trkpt><trkpt lat="43.4187449" lon="13.1724567"><ele>292.0</ele><time>2026-05-01T14:37:39.799Z</time></trkpt><trkpt lat="43.4187224" lon="13.1723562"><ele>292.0</ele><time>2026-05-01T14:37:40.799Z</time></trkpt><trkpt lat="43.418707" lon="13.1722512"><ele>292.0</ele><time>2026-05-01T14:37:41.799Z</time></trkpt><trkpt lat="43.4186909" lon="13.1721384"><ele>292.66666666666663</ele><time>2026-05-01T14:37:42.799Z</time></trkpt><trkpt lat="43.4186748" lon="13.1720235"><ele>293.3333333333333</ele><time>2026-05-01T14:37:43.798Z</time></trkpt><trkpt lat="43.4186611" lon="13.1719081"><ele>294.0</ele><time>2026-05-01T14:37:44.798Z</time></trkpt><trkpt lat="43.418649" lon="13.1718028"><ele>294.6666666666667</ele><time>2026-05-01T14:37:45.799Z</time></trkpt><trkpt lat="43.4186363" lon="13.1717046"><ele>295.33333333333337</ele><time>2026-05-01T14:37:46.799Z</time></trkpt><trkpt lat="43.4186237" lon="13.1716034"><ele>296.0</ele><time>2026-05-01T14:37:47.799Z</time></trkpt><trkpt lat="43.4186122" lon="13.1715061"><ele>296.7142857142857</ele><time>2026-05-01T14:37:48.798Z</time></trkpt><trkpt lat="43.4185951" lon="13.1714145"><ele>297.42857142857144</ele><time>2026-05-01T14:37:49.8Z</time></trkpt><trkpt lat="43.4185777" lon="13.1713197"><ele>298.1428571428571</ele><time>2026-05-01T14:37:50.798Z</time></trkpt><trkpt lat="43.4185527" lon="13.1712258"><ele>298.8571428571429</ele><time>2026-05-01T14:37:51.798Z</time></trkpt><trkpt lat="43.4185228" lon="13.1711322"><ele>299.57142857142856</ele><time>2026-05-01T14:37:52.799Z</time></trkpt><trkpt lat="43.4184908" lon="13.1710391"><ele>300.2857142857143</ele><time>2026-05-01T14:37:53.798Z</time></trkpt><trkpt lat="43.4184602" lon="13.1709516"><ele>301.0</ele><time>2026-05-01T14:37:54.799Z</time></trkpt><trkpt lat="43.4184265" lon="13.170872"><ele>301.0</ele><time>2026-05-01T14:37:55.799Z</time></trkpt><trkpt lat="43.4183637" lon="13.1707605"><ele>301.0</ele><time>2026-05-01T14:37:57.798Z</time></trkpt><trkpt lat="43.4182836" lon="13.17074"><ele>301.0</ele><time>2026-05-01T14:37:59.8Z</time></trkpt><trkpt lat="43.4182096" lon="13.1708075"><ele>301.0</ele><time>2026-05-01T14:38:01.8Z</time></trkpt><trkpt lat="43.4181385" lon="13.1709156"><ele>301.0</ele><time>2026-05-01T14:38:03.798Z</time></trkpt><trkpt lat="43.4180733" lon="13.1710335"><ele>301.0</ele><time>2026-05-01T14:38:05.798Z</time></trkpt><trkpt lat="43.4180088" lon="13.1711498"><ele>301.0</ele><time>2026-05-01T14:38:07.798Z</time></trkpt><trkpt lat="43.4179345" lon="13.1712783"><ele>301.0</ele><time>2026-05-01T14:38:09.8Z</time></trkpt><trkpt lat="43.4178936" lon="13.1713482"><ele>301.0</ele><time>2026-05-01T14:38:10.798Z</time></trkpt><trkpt lat="43.4178513" lon="13.1714193"><ele>301.0</ele><time>2026-05-01T14:38:11.799Z</time></trkpt><trkpt lat="43.4178073" lon="13.1714846"><ele>301.0</ele><time>2026-05-01T14:38:12.799Z</time></trkpt><trkpt lat="43.4177222" lon="13.1716093"><ele>303.8</ele><time>2026-05-01T14:38:14.798Z</time></trkpt><trkpt lat="43.4176433" lon="13.1716826"><ele>306.6</ele><time>2026-05-01T14:38:16.798Z</time></trkpt><trkpt lat="43.41754" lon="13.1716762"><ele>309.4</ele><time>2026-05-01T14:38:18.798Z</time></trkpt><trkpt lat="43.4174365" lon="13.1716123"><ele>312.2</ele><time>2026-05-01T14:38:20.8Z</time></trkpt><trkpt lat="43.4173216" lon="13.1715257"><ele>315.0</ele><time>2026-05-01T14:38:22.799Z</time></trkpt><trkpt lat="43.4172631" lon="13.1714786"><ele>317.2</ele><time>2026-05-01T14:38:23.799Z</time></trkpt><trkpt lat="43.4172019" lon="13.1714362"><ele>319.4</ele><time>2026-05-01T14:38:24.799Z</time></trkpt><trkpt lat="43.41714" lon="13.1713828"><ele>321.6</ele><time>2026-05-01T14:38:25.799Z</time></trkpt><trkpt lat="43.4170826" lon="13.1713289"><ele>323.8</ele><time>2026-05-01T14:38:26.799Z</time></trkpt><trkpt lat="43.416983" lon="13.1712239"><ele>326.0</ele><time>2026-05-01T14:38:28.799Z</time></trkpt><trkpt lat="43.4168949" lon="13.1710992"><ele>326.7142857142857</ele><time>2026-05-01T14:38:30.799Z</time></trkpt><trkpt lat="43.4168533" lon="13.1710324"><ele>327.4285714285714</ele><time>2026-05-01T14:38:31.799Z</time></trkpt><trkpt lat="43.416809" lon="13.1709659"><ele>328.1428571428571</ele><time>2026-05-01T14:38:32.798Z</time></trkpt><trkpt lat="43.4167657" lon="13.1708971"><ele>328.8571428571429</ele><time>2026-05-01T14:38:33.798Z</time></trkpt><trkpt lat="43.4167167" lon="13.1708284"><ele>329.57142857142856</ele><time>2026-05-01T14:38:34.799Z</time></trkpt><trkpt lat="43.4166677" lon="13.1707565"><ele>330.2857142857143</ele><time>2026-05-01T14:38:35.799Z</time></trkpt><trkpt lat="43.4166194" lon="13.1706827"><ele>331.0</ele><time>2026-05-01T14:38:36.799Z</time></trkpt><trkpt lat="43.4165722" lon="13.1706066"><ele>333.16666666666663</ele><time>2026-05-01T14:38:37.799Z</time></trkpt><trkpt lat="43.4165258" lon="13.1705317"><ele>335.3333333333333</ele><time>2026-05-01T14:38:38.799Z</time></trkpt><trkpt lat="43.4164793" lon="13.1704515"><ele>337.5</ele><time>2026-05-01T14:38:39.799Z</time></trkpt><trkpt lat="43.4164215" lon="13.1703546"><ele>339.6666666666667</ele><time>2026-05-01T14:38:40.799Z</time></trkpt><trkpt lat="43.4163614" lon="13.1702467"><ele>341.83333333333337</ele><time>2026-05-01T14:38:41.8Z</time></trkpt><trkpt lat="43.4162943" lon="13.1701373"><ele>344.0</ele><time>2026-05-01T14:38:42.798Z</time></trkpt><trkpt lat="43.4162217" lon="13.1700152"><ele>344.0</ele><time>2026-05-01T14:38:43.798Z</time></trkpt><trkpt lat="43.4161383" lon="13.1698777"><ele>344.0</ele><time>2026-05-01T14:38:44.799Z</time></trkpt><trkpt lat="43.4160552" lon="13.1697576"><ele>344.0</ele><time>2026-05-01T14:38:45.798Z</time></trkpt><trkpt lat="43.4159867" lon="13.1696521"><ele>344.0</ele><time>2026-05-01T14:38:46.8Z</time></trkpt><trkpt lat="43.4159348" lon="13.169567"><ele>344.0</ele><time>2026-05-01T14:38:47.798Z</time></trkpt><trkpt lat="43.4158983" lon="13.1694952"><ele>347.33333333333337</ele><time>2026-05-01T14:38:48.798Z</time></trkpt><trkpt lat="43.4158839" lon="13.1693777"><ele>350.6666666666667</ele><time>2026-05-01T14:38:50.799Z</time></trkpt><trkpt lat="43.415957" lon="13.1693156"><ele>354.0</ele><time>2026-05-01T14:38:52.798Z</time></trkpt><trkpt lat="43.4160542" lon="13.1692964"><ele>357.3333333333333</ele><time>2026-05-01T14:38:54.799Z</time></trkpt><trkpt lat="43.4161407" lon="13.169265"><ele>360.66666666666663</ele><time>2026-05-01T14:38:56.799Z</time></trkpt><trkpt lat="43.4162259" lon="13.1692319"><ele>364.0</ele><time>2026-05-01T14:38:58.799Z</time></trkpt><trkpt lat="43.4163136" lon="13.1691828"><ele>363.79999999999995</ele><time>2026-05-01T14:39:00.798Z</time></trkpt><trkpt lat="43.416415" lon="13.1691267"><ele>363.59999999999997</ele><time>2026-05-01T14:39:02.799Z</time></trkpt><trkpt lat="43.4165178" lon="13.1690572"><ele>363.4</ele><time>2026-05-01T14:39:04.798Z</time></trkpt><trkpt lat="43.4166314" lon="13.168978"><ele>363.2</ele><time>2026-05-01T14:39:06.799Z</time></trkpt><trkpt lat="43.4166876" lon="13.1689327"><ele>363.0</ele><time>2026-05-01T14:39:07.798Z</time></trkpt><trkpt lat="43.4167427" lon="13.1688832"><ele>364.59999999999997</ele><time>2026-05-01T14:39:08.799Z</time></trkpt><trkpt lat="43.4167961" lon="13.168832"><ele>366.2</ele><time>2026-05-01T14:39:09.799Z</time></trkpt><trkpt lat="43.416889" lon="13.1687262"><ele>367.8</ele><time>2026-05-01T14:39:11.799Z</time></trkpt><trkpt lat="43.4169412" lon="13.1685847"><ele>369.4</ele><time>2026-05-01T14:39:13.799Z</time></trkpt><trkpt lat="43.416926" lon="13.1684114"><ele>371.0</ele><time>2026-05-01T14:39:15.798Z</time></trkpt><trkpt lat="43.4168713" lon="13.1682568"><ele>369.0</ele><time>2026-05-01T14:39:17.799Z</time></trkpt><trkpt lat="43.4168278" lon="13.1681866"><ele>367.0</ele><time>2026-05-01T14:39:18.798Z</time></trkpt><trkpt lat="43.4167762" lon="13.1681219"><ele>365.0</ele><time>2026-05-01T14:39:19.799Z</time></trkpt><trkpt lat="43.4167261" lon="13.1680624"><ele>363.0</ele><time>2026-05-01T14:39:20.798Z</time></trkpt><trkpt lat="43.4166742" lon="13.1680103"><ele>361.0</ele><time>2026-05-01T14:39:21.799Z</time></trkpt><trkpt lat="43.4165805" lon="13.1679121"><ele>359.0</ele><time>2026-05-01T14:39:23.799Z</time></trkpt><trkpt lat="43.4164817" lon="13.1678193"><ele>359.0</ele><time>2026-05-01T14:39:25.799Z</time></trkpt><trkpt lat="43.416381" lon="13.1677361"><ele>359.0</ele><time>2026-05-01T14:39:27.798Z</time></trkpt><trkpt lat="43.4162741" lon="13.1676512"><ele>359.0</ele><time>2026-05-01T14:39:29.799Z</time></trkpt><trkpt lat="43.4162155" lon="13.167614"><ele>359.0</ele><time>2026-05-01T14:39:30.799Z</time></trkpt><trkpt lat="43.4161549" lon="13.1675822"><ele>359.0</ele><time>2026-05-01T14:39:31.798Z</time></trkpt><trkpt lat="43.4160912" lon="13.1675504"><ele>359.0</ele><time>2026-05-01T14:39:32.799Z</time></trkpt><trkpt lat="43.4160237" lon="13.1675194"><ele>359.83333333333337</ele><time>2026-05-01T14:39:33.799Z</time></trkpt><trkpt lat="43.4159519" lon="13.1674835"><ele>360.6666666666667</ele><time>2026-05-01T14:39:34.798Z</time></trkpt><trkpt lat="43.4158781" lon="13.1674436"><ele>361.5</ele><time>2026-05-01T14:39:35.799Z</time></trkpt><trkpt lat="43.4158025" lon="13.1673984"><ele>362.3333333333333</ele><time>2026-05-01T14:39:36.799Z</time></trkpt><trkpt lat="43.4157279" lon="13.1673478"><ele>363.16666666666663</ele><time>2026-05-01T14:39:37.799Z</time></trkpt><trkpt lat="43.4156512" lon="13.1672894"><ele>364.0</ele><time>2026-05-01T14:39:38.798Z</time></trkpt><trkpt lat="43.4155762" lon="13.1672246"><ele>364.0</ele><time>2026-05-01T14:39:39.799Z</time></trkpt><trkpt lat="43.4155032" lon="13.1671554"><ele>364.0</ele><time>2026-05-01T14:39:40.799Z</time></trkpt><trkpt lat="43.4154281" lon="13.1670847"><ele>364.0</ele><time>2026-05-01T14:39:41.798Z</time></trkpt><trkpt lat="43.4153568" lon="13.1670122"><ele>364.0</ele><time>2026-05-01T14:39:42.799Z</time></trkpt><trkpt lat="43.4152938" lon="13.1669318"><ele>364.0</ele><time>2026-05-01T14:39:43.798Z</time></trkpt><trkpt lat="43.4152377" lon="13.1668461"><ele>364.0</ele><time>2026-05-01T14:39:44.798Z</time></trkpt><trkpt lat="43.41519" lon="13.1667581"><ele>367.8333333333333</ele><time>2026-05-01T14:39:45.798Z</time></trkpt><trkpt lat="43.4151468" lon="13.1666685"><ele>371.66666666666663</ele><time>2026-05-01T14:39:46.798Z</time></trkpt><trkpt lat="43.4151047" lon="13.1665798"><ele>375.5</ele><time>2026-05-01T14:39:47.799Z</time></trkpt><trkpt lat="43.4150629" lon="13.1664911"><ele>379.3333333333333</ele><time>2026-05-01T14:39:48.798Z</time></trkpt><trkpt lat="43.4150157" lon="13.1663972"><ele>383.1666666666667</ele><time>2026-05-01T14:39:49.798Z</time></trkpt><trkpt lat="43.4149669" lon="13.1663048"><ele>387.0</ele><time>2026-05-01T14:39:50.799Z</time></trkpt><trkpt lat="43.4149199" lon="13.1662099"><ele>387.0</ele><time>2026-05-01T14:39:51.798Z</time></trkpt><trkpt lat="43.4148667" lon="13.1661194"><ele>387.0</ele><time>2026-05-01T14:39:52.798Z</time></trkpt><trkpt lat="43.4148065" lon="13.1660367"><ele>387.0</ele><time>2026-05-01T14:39:53.798Z</time></trkpt><trkpt lat="43.4147459" lon="13.1659505"><ele>387.0</ele><time>2026-05-01T14:39:54.799Z</time></trkpt><trkpt lat="43.4146851" lon="13.1658689"><ele>387.0</ele><time>2026-05-01T14:39:55.799Z</time></trkpt><trkpt lat="43.414621" lon="13.1657813"><ele>387.0</ele><time>2026-05-01T14:39:56.798Z</time></trkpt><trkpt lat="43.4145546" lon="13.1656972"><ele>390.8333333333333</ele><time>2026-05-01T14:39:57.798Z</time></trkpt><trkpt lat="43.4144864" lon="13.165618"><ele>394.66666666666663</ele><time>2026-05-01T14:39:58.798Z</time></trkpt><trkpt lat="43.4144189" lon="13.1655363"><ele>398.5</ele><time>2026-05-01T14:39:59.8Z</time></trkpt><trkpt lat="43.4143549" lon="13.1654477"><ele>402.3333333333333</ele><time>2026-05-01T14:40:00.799Z</time></trkpt><trkpt lat="43.4142994" lon="13.1653562"><ele>406.16666666666663</ele><time>2026-05-01T14:40:01.799Z</time></trkpt><trkpt lat="43.4142515" lon="13.1652555"><ele>410.0</ele><time>2026-05-01T14:40:02.8Z</time></trkpt><trkpt lat="43.4142052" lon="13.1651561"><ele>409.99999999999994</ele><time>2026-05-01T14:40:03.799Z</time></trkpt><trkpt lat="43.4141692" lon="13.1650803"><ele>410.0</ele><time>2026-05-01T14:40:04.798Z</time></trkpt><trkpt lat="43.4141033" lon="13.1650121"><ele>410.0</ele><time>2026-05-01T14:40:06.799Z</time></trkpt><trkpt lat="43.4140317" lon="13.1650533"><ele>410.0</ele><time>2026-05-01T14:40:08.799Z</time></trkpt><trkpt lat="43.4139945" lon="13.1651676"><ele>409.99999999999994</ele><time>2026-05-01T14:40:10.798Z</time></trkpt><trkpt lat="43.4139446" lon="13.1653105"><ele>410.0</ele><time>2026-05-01T14:40:12.798Z</time></trkpt><trkpt lat="43.4139028" lon="13.1653831"><ele>410.0</ele><time>2026-05-01T14:40:13.798Z</time></trkpt><trkpt lat="43.413848" lon="13.1654435"><ele>410.0</ele><time>2026-05-01T14:40:14.799Z</time></trkpt><trkpt lat="43.4137919" lon="13.1654921"><ele>410.0</ele><time>2026-05-01T14:40:15.799Z</time></trkpt><trkpt lat="43.4137357" lon="13.1655358"><ele>410.0</ele><time>2026-05-01T14:40:16.799Z</time></trkpt><trkpt lat="43.4136742" lon="13.1655735"><ele>410.0</ele><time>2026-05-01T14:40:17.798Z</time></trkpt><trkpt lat="43.4136065" lon="13.1656115"><ele>410.0</ele><time>2026-05-01T14:40:18.798Z</time></trkpt><trkpt lat="43.4135274" lon="13.1656416"><ele>410.0</ele><time>2026-05-01T14:40:19.798Z</time></trkpt><trkpt lat="43.4134456" lon="13.1656744"><ele>410.99999999999994</ele><time>2026-05-01T14:40:20.799Z</time></trkpt><trkpt lat="43.4133687" lon="13.1657084"><ele>412.0</ele><time>2026-05-01T14:40:21.798Z</time></trkpt><trkpt lat="43.413296" lon="13.1657395"><ele>413.0</ele><time>2026-05-01T14:40:22.799Z</time></trkpt><trkpt lat="43.4132241" lon="13.1657753"><ele>414.0</ele><time>2026-05-01T14:40:23.8Z</time></trkpt><trkpt lat="43.4131564" lon="13.1658154"><ele>414.99999999999994</ele><time>2026-05-01T14:40:24.799Z</time></trkpt><trkpt lat="43.413086" lon="13.1658561"><ele>416.0</ele><time>2026-05-01T14:40:25.799Z</time></trkpt><trkpt lat="43.4130179" lon="13.165903"><ele>416.7142857142857</ele><time>2026-05-01T14:40:26.799Z</time></trkpt><trkpt lat="43.4129489" lon="13.1659493"><ele>417.42857142857144</ele><time>2026-05-01T14:40:27.798Z</time></trkpt><trkpt lat="43.4128854" lon="13.1659906"><ele>418.14285714285717</ele><time>2026-05-01T14:40:28.799Z</time></trkpt><trkpt lat="43.4128186" lon="13.1660289"><ele>418.8571428571429</ele><time>2026-05-01T14:40:29.798Z</time></trkpt><trkpt lat="43.4127589" lon="13.1660731"><ele>419.57142857142856</ele><time>2026-05-01T14:40:30.799Z</time></trkpt><trkpt lat="43.4126982" lon="13.1661254"><ele>420.28571428571433</ele><time>2026-05-01T14:40:31.799Z</time></trkpt><trkpt lat="43.4126523" lon="13.1661903"><ele>421.0</ele><time>2026-05-01T14:40:32.798Z</time></trkpt><trkpt lat="43.4126092" lon="13.166276"><ele>421.00000000000006</ele><time>2026-05-01T14:40:33.799Z</time></trkpt><trkpt lat="43.412569" lon="13.1663711"><ele>421.0</ele><time>2026-05-01T14:40:34.799Z</time></trkpt><trkpt lat="43.4125303" lon="13.1664694"><ele>421.0</ele><time>2026-05-01T14:40:35.799Z</time></trkpt><trkpt lat="43.4124904" lon="13.1665669"><ele>421.0</ele><time>2026-05-01T14:40:36.799Z</time></trkpt><trkpt lat="43.4124432" lon="13.1666595"><ele>421.00000000000006</ele><time>2026-05-01T14:40:37.799Z</time></trkpt><trkpt lat="43.4123861" lon="13.1667433"><ele>421.0</ele><time>2026-05-01T14:40:38.798Z</time></trkpt><trkpt lat="43.4123224" lon="13.166822"><ele>421.00000000000006</ele><time>2026-05-01T14:40:39.798Z</time></trkpt><trkpt lat="43.4122494" lon="13.1668879"><ele>421.0</ele><time>2026-05-01T14:40:40.798Z</time></trkpt><trkpt lat="43.4121792" lon="13.1669543"><ele>421.0</ele><time>2026-05-01T14:40:41.799Z</time></trkpt><trkpt lat="43.4121184" lon="13.1670269"><ele>421.0</ele><time>2026-05-01T14:40:42.799Z</time></trkpt><trkpt lat="43.4120664" lon="13.1671002"><ele>421.00000000000006</ele><time>2026-05-01T14:40:43.798Z</time></trkpt><trkpt lat="43.4120184" lon="13.1671822"><ele>421.0</ele><time>2026-05-01T14:40:44.798Z</time></trkpt><trkpt lat="43.411964" lon="13.1672566"><ele>421.00000000000006</ele><time>2026-05-01T14:40:45.799Z</time></trkpt><trkpt lat="43.4119026" lon="13.1673191"><ele>421.0</ele><time>2026-05-01T14:40:46.799Z</time></trkpt><trkpt lat="43.4118364" lon="13.1673686"><ele>421.0</ele><time>2026-05-01T14:40:47.8Z</time></trkpt><trkpt lat="43.4117628" lon="13.1674149"><ele>421.0</ele><time>2026-05-01T14:40:48.799Z</time></trkpt><trkpt lat="43.4116904" lon="13.167444"><ele>421.00000000000006</ele><time>2026-05-01T14:40:49.799Z</time></trkpt><trkpt lat="43.411627" lon="13.1674534"><ele>421.0</ele><time>2026-05-01T14:40:50.798Z</time></trkpt><trkpt lat="43.4115145" lon="13.1673744"><ele>421.00000000000006</ele><time>2026-05-01T14:40:52.799Z</time></trkpt><trkpt lat="43.4114603" lon="13.1673086"><ele>421.0</ele><time>2026-05-01T14:40:53.799Z</time></trkpt><trkpt lat="43.4114071" lon="13.1672427"><ele>421.0</ele><time>2026-05-01T14:40:54.799Z</time></trkpt><trkpt lat="43.4113533" lon="13.1671816"><ele>421.0</ele><time>2026-05-01T14:40:55.798Z</time></trkpt><trkpt lat="43.4112986" lon="13.1671097"><ele>421.0</ele><time>2026-05-01T14:40:56.799Z</time></trkpt><trkpt lat="43.4112434" lon="13.1670423"><ele>421.00000000000006</ele><time>2026-05-01T14:40:57.8Z</time></trkpt><trkpt lat="43.41118" lon="13.1669703"><ele>421.0</ele><time>2026-05-01T14:40:58.798Z</time></trkpt><trkpt lat="43.4111233" lon="13.1669172"><ele>422.83333333333337</ele><time>2026-05-01T14:40:59.798Z</time></trkpt><trkpt lat="43.4110604" lon="13.1668857"><ele>424.6666666666667</ele><time>2026-05-01T14:41:00.799Z</time></trkpt><trkpt lat="43.4109921" lon="13.1668772"><ele>426.5</ele><time>2026-05-01T14:41:01.799Z</time></trkpt><trkpt lat="43.4109108" lon="13.1668844"><ele>428.33333333333337</ele><time>2026-05-01T14:41:02.799Z</time></trkpt><trkpt lat="43.4108259" lon="13.1668677"><ele>430.1666666666667</ele><time>2026-05-01T14:41:03.799Z</time></trkpt><trkpt lat="43.4107457" lon="13.1668159"><ele>432.0</ele><time>2026-05-01T14:41:04.799Z</time></trkpt><trkpt lat="43.4106751" lon="13.1667363"><ele>432.0</ele><time>2026-05-01T14:41:05.798Z</time></trkpt><trkpt lat="43.4106113" lon="13.1666396"><ele>432.0</ele><time>2026-05-01T14:41:06.799Z</time></trkpt><trkpt lat="43.4105488" lon="13.1665672"><ele>432.0</ele><time>2026-05-01T14:41:07.798Z</time></trkpt><trkpt lat="43.410476" lon="13.1665216"><ele>432.0</ele><time>2026-05-01T14:41:08.798Z</time></trkpt><trkpt lat="43.4103979" lon="13.1665046"><ele>432.0</ele><time>2026-05-01T14:41:09.799Z</time></trkpt><trkpt lat="43.4103315" lon="13.1665043"><ele>432.0</ele><time>2026-05-01T14:41:10.798Z</time></trkpt><trkpt lat="43.4102676" lon="13.1665143"><ele>434.1428571428571</ele><time>2026-05-01T14:41:11.799Z</time></trkpt><trkpt lat="43.4101967" lon="13.1665278"><ele>436.2857142857143</ele><time>2026-05-01T14:41:12.798Z</time></trkpt><trkpt lat="43.4101238" lon="13.1665394"><ele>438.42857142857144</ele><time>2026-05-01T14:41:13.799Z</time></trkpt><trkpt lat="43.4100531" lon="13.1665543"><ele>440.57142857142856</ele><time>2026-05-01T14:41:14.799Z</time></trkpt><trkpt lat="43.4099846" lon="13.1665603"><ele>442.7142857142857</ele><time>2026-05-01T14:41:15.798Z</time></trkpt><trkpt lat="43.4099223" lon="13.1665793"><ele>444.85714285714283</ele><time>2026-05-01T14:41:16.799Z</time></trkpt><trkpt lat="43.4098615" lon="13.1666064"><ele>447.0</ele><time>2026-05-01T14:41:17.799Z</time></trkpt><trkpt lat="43.4097996" lon="13.1666355"><ele>446.99999999999994</ele><time>2026-05-01T14:41:18.799Z</time></trkpt><trkpt lat="43.4097344" lon="13.1666682"><ele>447.0</ele><time>2026-05-01T14:41:19.798Z</time></trkpt><trkpt lat="43.409673" lon="13.1667099"><ele>447.0</ele><time>2026-05-01T14:41:20.799Z</time></trkpt><trkpt lat="43.4096175" lon="13.1667657"><ele>447.0</ele><time>2026-05-01T14:41:21.798Z</time></trkpt><trkpt lat="43.4095664" lon="13.1668412"><ele>447.0</ele><time>2026-05-01T14:41:22.799Z</time></trkpt><trkpt lat="43.409527" lon="13.1669172"><ele>446.99999999999994</ele><time>2026-05-01T14:41:23.799Z</time></trkpt><trkpt lat="43.4094937" lon="13.1669938"><ele>447.0</ele><time>2026-05-01T14:41:24.799Z</time></trkpt><trkpt lat="43.4094321" lon="13.1671487"><ele>448.0</ele><time>2026-05-01T14:41:26.799Z</time></trkpt><trkpt lat="43.4093987" lon="13.1672334"><ele>449.0</ele><time>2026-05-01T14:41:27.799Z</time></trkpt><trkpt lat="43.409358" lon="13.1673214"><ele>450.0</ele><time>2026-05-01T14:41:28.799Z</time></trkpt><trkpt lat="43.4093144" lon="13.1674132"><ele>451.0</ele><time>2026-05-01T14:41:29.799Z</time></trkpt><trkpt lat="43.4092635" lon="13.1675054"><ele>452.0</ele><time>2026-05-01T14:41:30.798Z</time></trkpt><trkpt lat="43.4092089" lon="13.1675933"><ele>453.0</ele><time>2026-05-01T14:41:31.798Z</time></trkpt><trkpt lat="43.4091473" lon="13.167671"><ele>452.99999999999994</ele><time>2026-05-01T14:41:32.799Z</time></trkpt><trkpt lat="43.4090809" lon="13.1677315"><ele>453.0</ele><time>2026-05-01T14:41:33.799Z</time></trkpt><trkpt lat="43.4090131" lon="13.1677845"><ele>452.99999999999994</ele><time>2026-05-01T14:41:34.799Z</time></trkpt><trkpt lat="43.4089488" lon="13.1678321"><ele>452.99999999999994</ele><time>2026-05-01T14:41:35.799Z</time></trkpt><trkpt lat="43.4088859" lon="13.1678778"><ele>453.0</ele><time>2026-05-01T14:41:36.799Z</time></trkpt><trkpt lat="43.4088221" lon="13.1679237"><ele>452.99999999999994</ele><time>2026-05-01T14:41:37.799Z</time></trkpt><trkpt lat="43.4087565" lon="13.167967"><ele>452.99999999999994</ele><time>2026-05-01T14:41:38.799Z</time></trkpt><trkpt lat="43.4086885" lon="13.1680032"><ele>454.5</ele><time>2026-05-01T14:41:39.798Z</time></trkpt><trkpt lat="43.4086218" lon="13.1680394"><ele>456.0</ele><time>2026-05-01T14:41:40.799Z</time></trkpt><trkpt lat="43.4085564" lon="13.1680785"><ele>457.5</ele><time>2026-05-01T14:41:41.799Z</time></trkpt><trkpt lat="43.4084965" lon="13.1681197"><ele>459.0</ele><time>2026-05-01T14:41:42.799Z</time></trkpt><trkpt lat="43.4084384" lon="13.1681692"><ele>460.5</ele><time>2026-05-01T14:41:43.798Z</time></trkpt><trkpt lat="43.4083799" lon="13.1682202"><ele>462.0</ele><time>2026-05-01T14:41:44.799Z</time></trkpt><trkpt lat="43.4082819" lon="13.1683136"><ele>462.0</ele><time>2026-05-01T14:41:46.798Z</time></trkpt><trkpt lat="43.4081913" lon="13.168394"><ele>462.0</ele><time>2026-05-01T14:41:48.8Z</time></trkpt><trkpt lat="43.4081253" lon="13.1684542"><ele>462.0</ele><time>2026-05-01T14:41:50.798Z</time></trkpt><trkpt lat="43.4080619" lon="13.1684865"><ele>462.0</ele><time>2026-05-01T14:41:52.798Z</time></trkpt><trkpt lat="43.4079955" lon="13.1685346"><ele>462.0</ele><time>2026-05-01T14:41:55.799Z</time></trkpt><trkpt lat="43.4079566" lon="13.1686345"><ele>462.0</ele><time>2026-05-01T14:41:58.798Z</time></trkpt><trkpt lat="43.4079236" lon="13.1687606"><ele>461.6</ele><time>2026-05-01T14:42:01.8Z</time></trkpt><trkpt lat="43.4078956" lon="13.1688652"><ele>461.20000000000005</ele><time>2026-05-01T14:42:03.799Z</time></trkpt><trkpt lat="43.4078553" lon="13.1689879"><ele>460.8</ele><time>2026-05-01T14:42:05.798Z</time></trkpt><trkpt lat="43.4078175" lon="13.1691215"><ele>460.4</ele><time>2026-05-01T14:42:07.798Z</time></trkpt><trkpt lat="43.4077654" lon="13.1692604"><ele>460.0</ele><time>2026-05-01T14:42:09.799Z</time></trkpt><trkpt lat="43.407712" lon="13.1694045"><ele>460.0</ele><time>2026-05-01T14:42:11.798Z</time></trkpt><trkpt lat="43.4076481" lon="13.1695477"><ele>460.0</ele><time>2026-05-01T14:42:13.799Z</time></trkpt><trkpt lat="43.4075653" lon="13.1696634"><ele>460.0</ele><time>2026-05-01T14:42:15.799Z</time></trkpt><trkpt lat="43.4074609" lon="13.1697455"><ele>460.0</ele><time>2026-05-01T14:42:17.799Z</time></trkpt><trkpt lat="43.407353" lon="13.1698158"><ele>457.0</ele><time>2026-05-01T14:42:19.798Z</time></trkpt><trkpt lat="43.4072524" lon="13.1699015"><ele>454.0</ele><time>2026-05-01T14:42:21.799Z</time></trkpt><trkpt lat="43.4072018" lon="13.1700385"><ele>451.0</ele><time>2026-05-01T14:42:23.798Z</time></trkpt><trkpt lat="43.4072478" lon="13.1701666"><ele>448.0</ele><time>2026-05-01T14:42:25.799Z</time></trkpt><trkpt lat="43.4073459" lon="13.1702715"><ele>448.00000000000006</ele><time>2026-05-01T14:42:27.799Z</time></trkpt><trkpt lat="43.4074062" lon="13.1703232"><ele>448.0</ele><time>2026-05-01T14:42:28.799Z</time></trkpt><trkpt lat="43.4074665" lon="13.1703767"><ele>448.0</ele><time>2026-05-01T14:42:29.799Z</time></trkpt><trkpt lat="43.4075311" lon="13.1704344"><ele>448.0</ele><time>2026-05-01T14:42:30.799Z</time></trkpt><trkpt lat="43.4075965" lon="13.1704864"><ele>448.00000000000006</ele><time>2026-05-01T14:42:31.798Z</time></trkpt><trkpt lat="43.4076611" lon="13.1705431"><ele>448.0</ele><time>2026-05-01T14:42:32.799Z</time></trkpt><trkpt lat="43.4077295" lon="13.1705936"><ele>448.00000000000006</ele><time>2026-05-01T14:42:33.799Z</time></trkpt><trkpt lat="43.4077973" lon="13.1706546"><ele>448.0</ele><time>2026-05-01T14:42:34.798Z</time></trkpt><trkpt lat="43.4078679" lon="13.170717"><ele>448.0</ele><time>2026-05-01T14:42:35.799Z</time></trkpt><trkpt lat="43.4079392" lon="13.1707809"><ele>448.0</ele><time>2026-05-01T14:42:36.798Z</time></trkpt><trkpt lat="43.4080136" lon="13.1708355"><ele>448.00000000000006</ele><time>2026-05-01T14:42:37.799Z</time></trkpt><trkpt lat="43.4080871" lon="13.170893"><ele>448.0</ele><time>2026-05-01T14:42:38.799Z</time></trkpt><trkpt lat="43.4081541" lon="13.1709543"><ele>443.50000000000006</ele><time>2026-05-01T14:42:39.798Z</time></trkpt><trkpt lat="43.4082151" lon="13.1710244"><ele>439.0</ele><time>2026-05-01T14:42:40.799Z</time></trkpt><trkpt lat="43.4082608" lon="13.1711093"><ele>434.5</ele><time>2026-05-01T14:42:41.798Z</time></trkpt><trkpt lat="43.4082743" lon="13.1712175"><ele>430.0</ele><time>2026-05-01T14:42:42.799Z</time></trkpt><trkpt lat="43.4082528" lon="13.1713284"><ele>425.50000000000006</ele><time>2026-05-01T14:42:43.799Z</time></trkpt><trkpt lat="43.4082138" lon="13.1714329"><ele>421.0</ele><time>2026-05-01T14:42:44.799Z</time></trkpt><trkpt lat="43.4081695" lon="13.1715373"><ele>419.83333333333337</ele><time>2026-05-01T14:42:45.799Z</time></trkpt><trkpt lat="43.4081285" lon="13.171641"><ele>418.6666666666667</ele><time>2026-05-01T14:42:46.798Z</time></trkpt><trkpt lat="43.4080917" lon="13.1717429"><ele>417.5</ele><time>2026-05-01T14:42:47.799Z</time></trkpt><trkpt lat="43.4080672" lon="13.1718486"><ele>416.33333333333337</ele><time>2026-05-01T14:42:48.798Z</time></trkpt><trkpt lat="43.4080557" lon="13.1719594"><ele>415.1666666666667</ele><time>2026-05-01T14:42:49.798Z</time></trkpt><trkpt lat="43.4080553" lon="13.1720681"><ele>414.0</ele><time>2026-05-01T14:42:50.799Z</time></trkpt><trkpt lat="43.408058" lon="13.172181"><ele>414.0</ele><time>2026-05-01T14:42:51.798Z</time></trkpt><trkpt lat="43.4080596" lon="13.1722946"><ele>414.0</ele><time>2026-05-01T14:42:52.798Z</time></trkpt><trkpt lat="43.4080651" lon="13.172411"><ele>414.0</ele><time>2026-05-01T14:42:53.798Z</time></trkpt><trkpt lat="43.4080694" lon="13.1725275"><ele>414.0</ele><time>2026-05-01T14:42:54.798Z</time></trkpt><trkpt lat="43.4080777" lon="13.1726463"><ele>414.0</ele><time>2026-05-01T14:42:55.799Z</time></trkpt><trkpt lat="43.4080821" lon="13.1727621"><ele>414.0</ele><time>2026-05-01T14:42:56.798Z</time></trkpt><trkpt lat="43.4080874" lon="13.1728847"><ele>412.6666666666667</ele><time>2026-05-01T14:42:57.799Z</time></trkpt><trkpt lat="43.4080922" lon="13.1729993"><ele>411.33333333333337</ele><time>2026-05-01T14:42:58.798Z</time></trkpt><trkpt lat="43.4081003" lon="13.1731127"><ele>410.0</ele><time>2026-05-01T14:42:59.799Z</time></trkpt><trkpt lat="43.4081121" lon="13.1732239"><ele>408.6666666666667</ele><time>2026-05-01T14:43:00.798Z</time></trkpt><trkpt lat="43.4081236" lon="13.1733305"><ele>407.33333333333337</ele><time>2026-05-01T14:43:01.798Z</time></trkpt><trkpt lat="43.4081305" lon="13.1734285"><ele>406.0</ele><time>2026-05-01T14:43:02.798Z</time></trkpt><trkpt lat="43.4081394" lon="13.1735289"><ele>404.50000000000006</ele><time>2026-05-01T14:43:03.799Z</time></trkpt><trkpt lat="43.4081436" lon="13.1736204"><ele>403.0</ele><time>2026-05-01T14:43:04.8Z</time></trkpt><trkpt lat="43.4081538" lon="13.1737105"><ele>401.5</ele><time>2026-05-01T14:43:05.799Z</time></trkpt><trkpt lat="43.408159" lon="13.1738382"><ele>400.0</ele><time>2026-05-01T14:43:07.799Z</time></trkpt><trkpt lat="43.4081046" lon="13.1739088"><ele>398.50000000000006</ele><time>2026-05-01T14:43:09.798Z</time></trkpt><trkpt lat="43.4080244" lon="13.1738977"><ele>397.0</ele><time>2026-05-01T14:43:11.798Z</time></trkpt><trkpt lat="43.407947" lon="13.1738385"><ele>396.40000000000003</ele><time>2026-05-01T14:43:13.799Z</time></trkpt><trkpt lat="43.4078512" lon="13.1737695"><ele>395.8</ele><time>2026-05-01T14:43:15.799Z</time></trkpt><trkpt lat="43.407786" lon="13.1737222"><ele>395.2</ele><time>2026-05-01T14:43:16.8Z</time></trkpt><trkpt lat="43.4077144" lon="13.1736658"><ele>394.6</ele><time>2026-05-01T14:43:17.799Z</time></trkpt><trkpt lat="43.4076294" lon="13.1736064"><ele>394.0</ele><time>2026-05-01T14:43:18.798Z</time></trkpt><trkpt lat="43.4075458" lon="13.1735425"><ele>394.0</ele><time>2026-05-01T14:43:19.798Z</time></trkpt><trkpt lat="43.4074584" lon="13.1734775"><ele>394.0</ele><time>2026-05-01T14:43:20.798Z</time></trkpt><trkpt lat="43.4073694" lon="13.1734054"><ele>394.0</ele><time>2026-05-01T14:43:21.799Z</time></trkpt><trkpt lat="43.4072809" lon="13.1733386"><ele>394.0</ele><time>2026-05-01T14:43:22.8Z</time></trkpt><trkpt lat="43.4071971" lon="13.1732821"><ele>394.0</ele><time>2026-05-01T14:43:23.799Z</time></trkpt><trkpt lat="43.4071171" lon="13.1732324"><ele>393.50000000000006</ele><time>2026-05-01T14:43:24.799Z</time></trkpt><trkpt lat="43.4070373" lon="13.173191"><ele>393.0</ele><time>2026-05-01T14:43:25.799Z</time></trkpt><trkpt lat="43.4069537" lon="13.173158"><ele>392.5</ele><time>2026-05-01T14:43:26.799Z</time></trkpt><trkpt lat="43.4068652" lon="13.1731199"><ele>392.0</ele><time>2026-05-01T14:43:27.799Z</time></trkpt><trkpt lat="43.4067881" lon="13.1730805"><ele>391.50000000000006</ele><time>2026-05-01T14:43:28.798Z</time></trkpt><trkpt lat="43.4067073" lon="13.1730368"><ele>391.0</ele><time>2026-05-01T14:43:29.798Z</time></trkpt><trkpt lat="43.406624" lon="13.1729929"><ele>392.4</ele><time>2026-05-01T14:43:30.799Z</time></trkpt><trkpt lat="43.4065413" lon="13.1729493"><ele>393.8</ele><time>2026-05-01T14:43:31.799Z</time></trkpt><trkpt lat="43.4064576" lon="13.1729134"><ele>395.2</ele><time>2026-05-01T14:43:32.798Z</time></trkpt><trkpt lat="43.4063724" lon="13.1728826"><ele>396.59999999999997</ele><time>2026-05-01T14:43:33.799Z</time></trkpt><trkpt lat="43.4062797" lon="13.1728475"><ele>398.0</ele><time>2026-05-01T14:43:34.799Z</time></trkpt><trkpt lat="43.4061724" lon="13.1728022"><ele>398.0</ele><time>2026-05-01T14:43:35.799Z</time></trkpt><trkpt lat="43.4060705" lon="13.1727453"><ele>398.0</ele><time>2026-05-01T14:43:36.8Z</time></trkpt><trkpt lat="43.4059761" lon="13.172669"><ele>398.0</ele><time>2026-05-01T14:43:37.799Z</time></trkpt><trkpt lat="43.4058747" lon="13.1725746"><ele>398.0</ele><time>2026-05-01T14:43:38.798Z</time></trkpt><trkpt lat="43.405785" lon="13.1724915"><ele>397.99999999999994</ele><time>2026-05-01T14:43:39.798Z</time></trkpt><trkpt lat="43.4057126" lon="13.172412"><ele>398.0</ele><time>2026-05-01T14:43:40.799Z</time></trkpt><trkpt lat="43.4056537" lon="13.172336"><ele>398.0</ele><time>2026-05-01T14:43:41.799Z</time></trkpt><trkpt lat="43.4056149" lon="13.1722546"><ele>398.0</ele><time>2026-05-01T14:43:42.799Z</time></trkpt><trkpt lat="43.4055994" lon="13.1721692"><ele>398.0</ele><time>2026-05-01T14:43:43.798Z</time></trkpt><trkpt lat="43.4055985" lon="13.1720814"><ele>397.99999999999994</ele><time>2026-05-01T14:43:44.8Z</time></trkpt><trkpt lat="43.4056051" lon="13.1719883"><ele>398.0</ele><time>2026-05-01T14:43:45.799Z</time></trkpt><trkpt lat="43.4056129" lon="13.1718944"><ele>397.85714285714283</ele><time>2026-05-01T14:43:46.798Z</time></trkpt><trkpt lat="43.405623" lon="13.1718006"><ele>397.7142857142857</ele><time>2026-05-01T14:43:47.799Z</time></trkpt><trkpt lat="43.4056356" lon="13.1717078"><ele>397.57142857142856</ele><time>2026-05-01T14:43:48.798Z</time></trkpt><trkpt lat="43.4056446" lon="13.1716139"><ele>397.42857142857144</ele><time>2026-05-01T14:43:49.798Z</time></trkpt><trkpt lat="43.4056554" lon="13.1715244"><ele>397.2857142857143</ele><time>2026-05-01T14:43:50.798Z</time></trkpt><trkpt lat="43.4056701" lon="13.1714353"><ele>397.1428571428571</ele><time>2026-05-01T14:43:51.799Z</time></trkpt><trkpt lat="43.4056858" lon="13.1713438"><ele>397.0</ele><time>2026-05-01T14:43:52.8Z</time></trkpt><trkpt lat="43.4057059" lon="13.1712537"><ele>397.50000000000006</ele><time>2026-05-01T14:43:53.798Z</time></trkpt><trkpt lat="43.4057296" lon="13.1711558"><ele>398.0</ele><time>2026-05-01T14:43:54.798Z</time></trkpt><trkpt lat="43.4057451" lon="13.17105"><ele>398.5</ele><time>2026-05-01T14:43:55.799Z</time></trkpt><trkpt lat="43.4057527" lon="13.1709423"><ele>399.0</ele><time>2026-05-01T14:43:56.799Z</time></trkpt><trkpt lat="43.4057603" lon="13.1708382"><ele>399.50000000000006</ele><time>2026-05-01T14:43:57.798Z</time></trkpt><trkpt lat="43.4057649" lon="13.1707254"><ele>400.0</ele><time>2026-05-01T14:43:58.799Z</time></trkpt><trkpt lat="43.4057728" lon="13.1706144"><ele>399.00000000000006</ele><time>2026-05-01T14:43:59.798Z</time></trkpt><trkpt lat="43.4057833" lon="13.1705079"><ele>398.0</ele><time>2026-05-01T14:44:00.798Z</time></trkpt><trkpt lat="43.4057963" lon="13.1704014"><ele>397.0</ele><time>2026-05-01T14:44:01.799Z</time></trkpt><trkpt lat="43.4058081" lon="13.1702948"><ele>396.0</ele><time>2026-05-01T14:44:02.799Z</time></trkpt><trkpt lat="43.4058174" lon="13.1701838"><ele>395.00000000000006</ele><time>2026-05-01T14:44:03.799Z</time></trkpt><trkpt lat="43.4058249" lon="13.1700659"><ele>394.0</ele><time>2026-05-01T14:44:04.798Z</time></trkpt><trkpt lat="43.4058286" lon="13.1699485"><ele>393.00000000000006</ele><time>2026-05-01T14:44:05.799Z</time></trkpt><trkpt lat="43.4058284" lon="13.1698334"><ele>392.0</ele><time>2026-05-01T14:44:06.799Z</time></trkpt><trkpt lat="43.4058241" lon="13.1697183"><ele>391.0</ele><time>2026-05-01T14:44:07.799Z</time></trkpt><trkpt lat="43.4058154" lon="13.1696071"><ele>390.0</ele><time>2026-05-01T14:44:08.799Z</time></trkpt><trkpt lat="43.4058087" lon="13.1694967"><ele>389.00000000000006</ele><time>2026-05-01T14:44:09.798Z</time></trkpt><trkpt lat="43.4058068" lon="13.1693856"><ele>388.0</ele><time>2026-05-01T14:44:10.8Z</time></trkpt><trkpt lat="43.4058057" lon="13.1692742"><ele>388.00000000000006</ele><time>2026-05-01T14:44:11.799Z</time></trkpt><trkpt lat="43.4058122" lon="13.1691607"><ele>388.0</ele><time>2026-05-01T14:44:12.798Z</time></trkpt><trkpt lat="43.4058225" lon="13.1690388"><ele>388.0</ele><time>2026-05-01T14:44:13.799Z</time></trkpt><trkpt lat="43.4058368" lon="13.1689123"><ele>388.0</ele><time>2026-05-01T14:44:14.799Z</time></trkpt><trkpt lat="43.4058525" lon="13.1687929"><ele>388.00000000000006</ele><time>2026-05-01T14:44:15.798Z</time></trkpt><trkpt lat="43.4058728" lon="13.1686762"><ele>388.0</ele><time>2026-05-01T14:44:16.799Z</time></trkpt><trkpt lat="43.4058885" lon="13.168562"><ele>388.1666666666667</ele><time>2026-05-01T14:44:17.799Z</time></trkpt><trkpt lat="43.4059007" lon="13.1684476"><ele>388.33333333333337</ele><time>2026-05-01T14:44:18.8Z</time></trkpt><trkpt lat="43.4059084" lon="13.1683316"><ele>388.5</ele><time>2026-05-01T14:44:19.799Z</time></trkpt><trkpt lat="43.4059158" lon="13.1682211"><ele>388.66666666666663</ele><time>2026-05-01T14:44:20.799Z</time></trkpt><trkpt lat="43.4059268" lon="13.1681095"><ele>388.8333333333333</ele><time>2026-05-01T14:44:21.799Z</time></trkpt><trkpt lat="43.4059334" lon="13.1679942"><ele>389.0</ele><time>2026-05-01T14:44:22.798Z</time></trkpt><trkpt lat="43.4059361" lon="13.1678808"><ele>389.16666666666663</ele><time>2026-05-01T14:44:23.799Z</time></trkpt><trkpt lat="43.405939" lon="13.1677721"><ele>389.3333333333333</ele><time>2026-05-01T14:44:24.798Z</time></trkpt><trkpt lat="43.405932" lon="13.167664"><ele>389.5</ele><time>2026-05-01T14:44:25.799Z</time></trkpt><trkpt lat="43.405915" lon="13.1675599"><ele>389.66666666666663</ele><time>2026-05-01T14:44:26.8Z</time></trkpt><trkpt lat="43.4058821" lon="13.1674632"><ele>389.8333333333333</ele><time>2026-05-01T14:44:27.798Z</time></trkpt><trkpt lat="43.4058299" lon="13.1673772"><ele>390.0</ele><time>2026-05-01T14:44:28.8Z</time></trkpt><trkpt lat="43.4057705" lon="13.1673061"><ele>390.57142857142856</ele><time>2026-05-01T14:44:29.798Z</time></trkpt><trkpt lat="43.405706" lon="13.1672469"><ele>391.1428571428571</ele><time>2026-05-01T14:44:30.799Z</time></trkpt><trkpt lat="43.4056411" lon="13.1672058"><ele>391.7142857142857</ele><time>2026-05-01T14:44:31.798Z</time></trkpt><trkpt lat="43.4055743" lon="13.1671818"><ele>392.2857142857143</ele><time>2026-05-01T14:44:32.799Z</time></trkpt><trkpt lat="43.405521" lon="13.1672337"><ele>392.8571428571429</ele><time>2026-05-01T14:44:33.799Z</time></trkpt><trkpt lat="43.4054666" lon="13.1672844"><ele>393.42857142857144</ele><time>2026-05-01T14:44:34.799Z</time></trkpt><trkpt lat="43.4054186" lon="13.1673666"><ele>394.0</ele><time>2026-05-01T14:44:35.798Z</time></trkpt><trkpt lat="43.4053731" lon="13.1674495"><ele>394.33333333333337</ele><time>2026-05-01T14:44:36.798Z</time></trkpt><trkpt lat="43.4053234" lon="13.1675295"><ele>394.6666666666667</ele><time>2026-05-01T14:44:37.799Z</time></trkpt><trkpt lat="43.4052721" lon="13.1676021"><ele>395.0</ele><time>2026-05-01T14:44:38.799Z</time></trkpt><trkpt lat="43.4052225" lon="13.1676707"><ele>395.33333333333337</ele><time>2026-05-01T14:44:39.799Z</time></trkpt><trkpt lat="43.4051634" lon="13.1677413"><ele>395.6666666666667</ele><time>2026-05-01T14:44:40.799Z</time></trkpt><trkpt lat="43.4051023" lon="13.1678154"><ele>396.0</ele><time>2026-05-01T14:44:41.799Z</time></trkpt><trkpt lat="43.4050368" lon="13.1678916"><ele>396.0</ele><time>2026-05-01T14:44:42.799Z</time></trkpt><trkpt lat="43.4049514" lon="13.1679835"><ele>396.0</ele><time>2026-05-01T14:44:43.799Z</time></trkpt><trkpt lat="43.4048661" lon="13.1680852"><ele>396.0</ele><time>2026-05-01T14:44:44.799Z</time></trkpt><trkpt lat="43.4047862" lon="13.1681815"><ele>396.0</ele><time>2026-05-01T14:44:45.799Z</time></trkpt><trkpt lat="43.4047101" lon="13.1682725"><ele>396.0</ele><time>2026-05-01T14:44:46.799Z</time></trkpt><trkpt lat="43.4046373" lon="13.1683662"><ele>398.4</ele><time>2026-05-01T14:44:47.799Z</time></trkpt><trkpt lat="43.4045636" lon="13.1684604"><ele>400.8</ele><time>2026-05-01T14:44:48.8Z</time></trkpt><trkpt lat="43.4044913" lon="13.1685509"><ele>403.2</ele><time>2026-05-01T14:44:49.799Z</time></trkpt><trkpt lat="43.4044172" lon="13.1686375"><ele>405.59999999999997</ele><time>2026-05-01T14:44:50.799Z</time></trkpt><trkpt lat="43.4043371" lon="13.1687191"><ele>408.0</ele><time>2026-05-01T14:44:51.798Z</time></trkpt><trkpt lat="43.4042627" lon="13.1688016"><ele>408.0</ele><time>2026-05-01T14:44:52.799Z</time></trkpt><trkpt lat="43.4041915" lon="13.1688757"><ele>408.0</ele><time>2026-05-01T14:44:53.799Z</time></trkpt><trkpt lat="43.4041291" lon="13.1689332"><ele>408.0</ele><time>2026-05-01T14:44:54.799Z</time></trkpt><trkpt lat="43.4040689" lon="13.1689673"><ele>408.0</ele><time>2026-05-01T14:44:55.799Z</time></trkpt><trkpt lat="43.4039485" lon="13.1689567"><ele>408.0</ele><time>2026-05-01T14:44:57.799Z</time></trkpt><trkpt lat="43.403889" lon="13.1689164"><ele>408.0</ele><time>2026-05-01T14:44:58.798Z</time></trkpt><trkpt lat="43.4038305" lon="13.1688603"><ele>409.8333333333333</ele><time>2026-05-01T14:44:59.799Z</time></trkpt><trkpt lat="43.4037647" lon="13.1688245"><ele>411.66666666666663</ele><time>2026-05-01T14:45:00.798Z</time></trkpt><trkpt lat="43.4036686" lon="13.1688784"><ele>413.5</ele><time>2026-05-01T14:45:02.798Z</time></trkpt><trkpt lat="43.4036594" lon="13.1689844"><ele>415.3333333333333</ele><time>2026-05-01T14:45:04.8Z</time></trkpt><trkpt lat="43.4036776" lon="13.1691108"><ele>417.16666666666663</ele><time>2026-05-01T14:45:06.798Z</time></trkpt><trkpt lat="43.4037151" lon="13.1692312"><ele>419.0</ele><time>2026-05-01T14:45:08.798Z</time></trkpt><trkpt lat="43.4037454" lon="13.169369"><ele>419.0</ele><time>2026-05-01T14:45:10.798Z</time></trkpt><trkpt lat="43.4037501" lon="13.1695157"><ele>419.0</ele><time>2026-05-01T14:45:12.8Z</time></trkpt><trkpt lat="43.4037424" lon="13.1696739"><ele>419.0</ele><time>2026-05-01T14:45:14.799Z</time></trkpt><trkpt lat="43.4037342" lon="13.1698056"><ele>419.0</ele><time>2026-05-01T14:45:16.799Z</time></trkpt><trkpt lat="43.4037178" lon="13.1698953"><ele>419.0</ele><time>2026-05-01T14:45:18.799Z</time></trkpt><trkpt lat="43.4037007" lon="13.1699953"><ele>419.79999999999995</ele><time>2026-05-01T14:45:20.799Z</time></trkpt><trkpt lat="43.403682" lon="13.1701017"><ele>420.59999999999997</ele><time>2026-05-01T14:45:22.798Z</time></trkpt><trkpt lat="43.4036432" lon="13.1702334"><ele>421.4</ele><time>2026-05-01T14:45:24.799Z</time></trkpt><trkpt lat="43.4035572" lon="13.1703775"><ele>422.2</ele><time>2026-05-01T14:45:26.8Z</time></trkpt><trkpt lat="43.4034982" lon="13.170444"><ele>423.0</ele><time>2026-05-01T14:45:27.799Z</time></trkpt><trkpt lat="43.403444" lon="13.1705063"><ele>423.0</ele><time>2026-05-01T14:45:28.799Z</time></trkpt><trkpt lat="43.4033888" lon="13.1705583"><ele>423.0</ele><time>2026-05-01T14:45:29.798Z</time></trkpt><trkpt lat="43.403331" lon="13.170613"><ele>423.0</ele><time>2026-05-01T14:45:30.799Z</time></trkpt><trkpt lat="43.4032772" lon="13.1706687"><ele>423.0</ele><time>2026-05-01T14:45:31.799Z</time></trkpt><trkpt lat="43.4032248" lon="13.1707277"><ele>423.0</ele><time>2026-05-01T14:45:32.798Z</time></trkpt><trkpt lat="43.4031739" lon="13.1707962"><ele>423.0</ele><time>2026-05-01T14:45:33.798Z</time></trkpt><trkpt lat="43.4031297" lon="13.1708786"><ele>423.0</ele><time>2026-05-01T14:45:34.799Z</time></trkpt><trkpt lat="43.4030915" lon="13.1709708"><ele>423.1666666666667</ele><time>2026-05-01T14:45:35.798Z</time></trkpt><trkpt lat="43.4030579" lon="13.1710704"><ele>423.33333333333337</ele><time>2026-05-01T14:45:36.799Z</time></trkpt><trkpt lat="43.4030273" lon="13.1711658"><ele>423.5</ele><time>2026-05-01T14:45:37.799Z</time></trkpt><trkpt lat="43.4029989" lon="13.1712609"><ele>423.6666666666667</ele><time>2026-05-01T14:45:38.799Z</time></trkpt><trkpt lat="43.402976" lon="13.1713455"><ele>423.83333333333337</ele><time>2026-05-01T14:45:39.8Z</time></trkpt><trkpt lat="43.4029263" lon="13.1714991"><ele>424.0</ele><time>2026-05-01T14:45:41.798Z</time></trkpt><trkpt lat="43.4028976" lon="13.1715833"><ele>425.6666666666667</ele><time>2026-05-01T14:45:42.799Z</time></trkpt><trkpt lat="43.4028629" lon="13.1716677"><ele>427.33333333333337</ele><time>2026-05-01T14:45:43.799Z</time></trkpt><trkpt lat="43.4028259" lon="13.1717564"><ele>429.0</ele><time>2026-05-01T14:45:44.799Z</time></trkpt><trkpt lat="43.402785" lon="13.1718417"><ele>430.66666666666663</ele><time>2026-05-01T14:45:45.799Z</time></trkpt><trkpt lat="43.4027394" lon="13.1719222"><ele>432.3333333333333</ele><time>2026-05-01T14:45:46.798Z</time></trkpt><trkpt lat="43.4026871" lon="13.1720027"><ele>434.0</ele><time>2026-05-01T14:45:47.799Z</time></trkpt><trkpt lat="43.4026271" lon="13.1720749"><ele>433.99999999999994</ele><time>2026-05-01T14:45:48.8Z</time></trkpt><trkpt lat="43.4025722" lon="13.1721368"><ele>434.0</ele><time>2026-05-01T14:45:49.798Z</time></trkpt><trkpt lat="43.402477" lon="13.1722187"><ele>434.0</ele><time>2026-05-01T14:45:51.798Z</time></trkpt><trkpt lat="43.4024197" lon="13.1722822"><ele>434.0</ele><time>2026-05-01T14:45:53.798Z</time></trkpt><trkpt lat="43.4023571" lon="13.1723535"><ele>433.99999999999994</ele><time>2026-05-01T14:45:55.799Z</time></trkpt><trkpt lat="43.402282" lon="13.172438"><ele>434.0</ele><time>2026-05-01T14:45:57.798Z</time></trkpt><trkpt lat="43.4021909" lon="13.1725314"><ele>433.6</ele><time>2026-05-01T14:45:59.799Z</time></trkpt><trkpt lat="43.402097" lon="13.1726299"><ele>433.2</ele><time>2026-05-01T14:46:01.799Z</time></trkpt><trkpt lat="43.4020052" lon="13.1727398"><ele>432.80000000000007</ele><time>2026-05-01T14:46:03.799Z</time></trkpt><trkpt lat="43.4019472" lon="13.1728032"><ele>432.40000000000003</ele><time>2026-05-01T14:46:04.798Z</time></trkpt><trkpt lat="43.4018888" lon="13.1728633"><ele>432.0</ele><time>2026-05-01T14:46:05.798Z</time></trkpt><trkpt lat="43.4018242" lon="13.1729132"><ele>432.0</ele><time>2026-05-01T14:46:06.8Z</time></trkpt><trkpt lat="43.401758" lon="13.1729587"><ele>432.0</ele><time>2026-05-01T14:46:07.799Z</time></trkpt><trkpt lat="43.4016847" lon="13.1730071"><ele>432.0</ele><time>2026-05-01T14:46:08.799Z</time></trkpt><trkpt lat="43.4016105" lon="13.1730565"><ele>432.0</ele><time>2026-05-01T14:46:09.798Z</time></trkpt><trkpt lat="43.401537" lon="13.1731013"><ele>432.0</ele><time>2026-05-01T14:46:10.798Z</time></trkpt><trkpt lat="43.4014638" lon="13.1731422"><ele>432.0</ele><time>2026-05-01T14:46:11.799Z</time></trkpt><trkpt lat="43.401389" lon="13.1731868"><ele>430.3333333333333</ele><time>2026-05-01T14:46:12.799Z</time></trkpt><trkpt lat="43.4013115" lon="13.1732341"><ele>428.66666666666663</ele><time>2026-05-01T14:46:13.798Z</time></trkpt><trkpt lat="43.4012331" lon="13.1732815"><ele>427.0</ele><time>2026-05-01T14:46:14.798Z</time></trkpt><trkpt lat="43.4011543" lon="13.173325"><ele>425.3333333333333</ele><time>2026-05-01T14:46:15.799Z</time></trkpt><trkpt lat="43.4010754" lon="13.1733728"><ele>423.66666666666663</ele><time>2026-05-01T14:46:16.797Z</time></trkpt><trkpt lat="43.4010007" lon="13.1734163"><ele>422.0</ele><time>2026-05-01T14:46:17.798Z</time></trkpt><trkpt lat="43.4009325" lon="13.1734623"><ele>421.99999999999994</ele><time>2026-05-01T14:46:18.799Z</time></trkpt><trkpt lat="43.4008656" lon="13.1735135"><ele>422.0</ele><time>2026-05-01T14:46:19.798Z</time></trkpt><trkpt lat="43.4007999" lon="13.1735701"><ele>422.0</ele><time>2026-05-01T14:46:20.798Z</time></trkpt><trkpt lat="43.4007366" lon="13.1736276"><ele>422.0</ele><time>2026-05-01T14:46:21.798Z</time></trkpt><trkpt lat="43.4006783" lon="13.1736967"><ele>421.99999999999994</ele><time>2026-05-01T14:46:22.797Z</time></trkpt><trkpt lat="43.4006264" lon="13.1737751"><ele>422.0</ele><time>2026-05-01T14:46:23.798Z</time></trkpt><trkpt lat="43.4005795" lon="13.1738635"><ele>421.99999999999994</ele><time>2026-05-01T14:46:24.798Z</time></trkpt><trkpt lat="43.4005412" lon="13.1739604"><ele>422.0</ele><time>2026-05-01T14:46:25.798Z</time></trkpt><trkpt lat="43.4005065" lon="13.1740596"><ele>422.0</ele><time>2026-05-01T14:46:26.799Z</time></trkpt><trkpt lat="43.4004748" lon="13.1741525"><ele>422.0</ele><time>2026-05-01T14:46:27.798Z</time></trkpt><trkpt lat="43.4004428" lon="13.1742371"><ele>421.99999999999994</ele><time>2026-05-01T14:46:28.798Z</time></trkpt><trkpt lat="43.4004056" lon="13.1743268"><ele>422.0</ele><time>2026-05-01T14:46:29.799Z</time></trkpt><trkpt lat="43.4003619" lon="13.1744117"><ele>422.49999999999994</ele><time>2026-05-01T14:46:30.798Z</time></trkpt><trkpt lat="43.4003082" lon="13.1744778"><ele>423.0</ele><time>2026-05-01T14:46:31.798Z</time></trkpt><trkpt lat="43.4002428" lon="13.1745125"><ele>423.5</ele><time>2026-05-01T14:46:32.798Z</time></trkpt><trkpt lat="43.4001707" lon="13.1745111"><ele>424.0</ele><time>2026-05-01T14:46:33.798Z</time></trkpt><trkpt lat="43.4001002" lon="13.1744905"><ele>424.49999999999994</ele><time>2026-05-01T14:46:34.798Z</time></trkpt><trkpt lat="43.4000374" lon="13.174466"><ele>425.0</ele><time>2026-05-01T14:46:35.798Z</time></trkpt><trkpt lat="43.3999254" lon="13.1744167"><ele>425.0</ele><time>2026-05-01T14:46:37.798Z</time></trkpt><trkpt lat="43.3998256" lon="13.174435"><ele>425.0</ele><time>2026-05-01T14:46:39.797Z</time></trkpt><trkpt lat="43.3997641" lon="13.1745546"><ele>425.0</ele><time>2026-05-01T14:46:41.797Z</time></trkpt><trkpt lat="43.3997461" lon="13.1746997"><ele>425.0</ele><time>2026-05-01T14:46:43.798Z</time></trkpt><trkpt lat="43.3997442" lon="13.1748178"><ele>425.0</ele><time>2026-05-01T14:46:45.798Z</time></trkpt><trkpt lat="43.3997899" lon="13.1749248"><ele>425.0</ele><time>2026-05-01T14:46:47.798Z</time></trkpt><trkpt lat="43.3998157" lon="13.1750325"><ele>425.0</ele><time>2026-05-01T14:46:49.798Z</time></trkpt><trkpt lat="43.3997911" lon="13.1751588"><ele>425.0</ele><time>2026-05-01T14:46:51.799Z</time></trkpt><trkpt lat="43.399738" lon="13.1752943"><ele>425.0</ele><time>2026-05-01T14:46:53.797Z</time></trkpt><trkpt lat="43.3996631" lon="13.1754217"><ele>425.0</ele><time>2026-05-01T14:46:55.798Z</time></trkpt><trkpt lat="43.3995884" lon="13.1755589"><ele>424.99999999999994</ele><time>2026-05-01T14:46:57.798Z</time></trkpt><trkpt lat="43.3995454" lon="13.1756378"><ele>425.0</ele><time>2026-05-01T14:46:58.798Z</time></trkpt><trkpt lat="43.3995004" lon="13.1757186"><ele>425.0</ele><time>2026-05-01T14:46:59.798Z</time></trkpt><trkpt lat="43.3994526" lon="13.1758024"><ele>425.0</ele><time>2026-05-01T14:47:00.799Z</time></trkpt><trkpt lat="43.3994007" lon="13.1758888"><ele>424.99999999999994</ele><time>2026-05-01T14:47:01.797Z</time></trkpt><trkpt lat="43.3993518" lon="13.1759747"><ele>425.0</ele><time>2026-05-01T14:47:02.798Z</time></trkpt><trkpt lat="43.399303" lon="13.1760576"><ele>423.7142857142857</ele><time>2026-05-01T14:47:03.797Z</time></trkpt><trkpt lat="43.3992552" lon="13.1761339"><ele>422.42857142857144</ele><time>2026-05-01T14:47:04.798Z</time></trkpt><trkpt lat="43.399205" lon="13.1762122"><ele>421.1428571428571</ele><time>2026-05-01T14:47:05.798Z</time></trkpt><trkpt lat="43.3991654" lon="13.1762939"><ele>419.8571428571429</ele><time>2026-05-01T14:47:06.798Z</time></trkpt><trkpt lat="43.399145" lon="13.176389"><ele>418.5714285714286</ele><time>2026-05-01T14:47:07.797Z</time></trkpt><trkpt lat="43.3991501" lon="13.1764903"><ele>417.2857142857143</ele><time>2026-05-01T14:47:08.797Z</time></trkpt><trkpt lat="43.3991839" lon="13.1765764"><ele>416.0</ele><time>2026-05-01T14:47:09.797Z</time></trkpt><trkpt lat="43.3992412" lon="13.1766324"><ele>413.99999999999994</ele><time>2026-05-01T14:47:10.798Z</time></trkpt><trkpt lat="43.3993092" lon="13.1766584"><ele>412.0</ele><time>2026-05-01T14:47:11.798Z</time></trkpt><trkpt lat="43.3993803" lon="13.1766697"><ele>410.0</ele><time>2026-05-01T14:47:12.797Z</time></trkpt><trkpt lat="43.3994535" lon="13.1766791"><ele>408.0</ele><time>2026-05-01T14:47:13.798Z</time></trkpt><trkpt lat="43.3995287" lon="13.1766905"><ele>405.99999999999994</ele><time>2026-05-01T14:47:14.799Z</time></trkpt><trkpt lat="43.399608" lon="13.1767041"><ele>404.0</ele><time>2026-05-01T14:47:15.798Z</time></trkpt><trkpt lat="43.399688" lon="13.1767239"><ele>402.49999999999994</ele><time>2026-05-01T14:47:16.797Z</time></trkpt><trkpt lat="43.3997686" lon="13.1767511"><ele>401.0</ele><time>2026-05-01T14:47:17.798Z</time></trkpt><trkpt lat="43.3998471" lon="13.1767962"><ele>399.5</ele><time>2026-05-01T14:47:18.797Z</time></trkpt><trkpt lat="43.3999195" lon="13.1768595"><ele>398.0</ele><time>2026-05-01T14:47:19.798Z</time></trkpt><trkpt lat="43.3999883" lon="13.1769273"><ele>396.49999999999994</ele><time>2026-05-01T14:47:20.799Z</time></trkpt><trkpt lat="43.400055" lon="13.1769998"><ele>395.0</ele><time>2026-05-01T14:47:21.798Z</time></trkpt><trkpt lat="43.4001186" lon="13.1770786"><ele>394.99999999999994</ele><time>2026-05-01T14:47:22.797Z</time></trkpt><trkpt lat="43.4001831" lon="13.1771656"><ele>395.0</ele><time>2026-05-01T14:47:23.799Z</time></trkpt><trkpt lat="43.4002464" lon="13.1772508"><ele>395.0</ele><time>2026-05-01T14:47:24.798Z</time></trkpt><trkpt lat="43.4003108" lon="13.1773335"><ele>395.0</ele><time>2026-05-01T14:47:25.798Z</time></trkpt><trkpt lat="43.4003637" lon="13.1774102"><ele>394.99999999999994</ele><time>2026-05-01T14:47:26.798Z</time></trkpt><trkpt lat="43.4004124" lon="13.177478"><ele>395.0</ele><time>2026-05-01T14:47:27.797Z</time></trkpt><trkpt lat="43.4004827" lon="13.1776081"><ele>393.49999999999994</ele><time>2026-05-01T14:47:29.797Z</time></trkpt><trkpt lat="43.4004363" lon="13.1777288"><ele>392.0</ele><time>2026-05-01T14:47:31.798Z</time></trkpt><trkpt lat="43.4003178" lon="13.1777651"><ele>390.5</ele><time>2026-05-01T14:47:33.797Z</time></trkpt><trkpt lat="43.4002466" lon="13.1777735"><ele>389.0</ele><time>2026-05-01T14:47:34.797Z</time></trkpt><trkpt lat="43.4001741" lon="13.1777747"><ele>387.49999999999994</ele><time>2026-05-01T14:47:35.798Z</time></trkpt><trkpt lat="43.4001002" lon="13.1777756"><ele>386.0</ele><time>2026-05-01T14:47:36.798Z</time></trkpt><trkpt lat="43.400024" lon="13.1777859"><ele>386.00000000000006</ele><time>2026-05-01T14:47:37.798Z</time></trkpt><trkpt lat="43.3999475" lon="13.1777876"><ele>386.0</ele><time>2026-05-01T14:47:38.797Z</time></trkpt><trkpt lat="43.3998741" lon="13.1777932"><ele>386.0</ele><time>2026-05-01T14:47:39.798Z</time></trkpt><trkpt lat="43.3998145" lon="13.1778344"><ele>386.0</ele><time>2026-05-01T14:47:40.798Z</time></trkpt><trkpt lat="43.3997693" lon="13.1779024"><ele>386.0</ele><time>2026-05-01T14:47:41.799Z</time></trkpt><trkpt lat="43.3997504" lon="13.1779941"><ele>386.00000000000006</ele><time>2026-05-01T14:47:42.798Z</time></trkpt><trkpt lat="43.3997511" lon="13.1780944"><ele>386.0</ele><time>2026-05-01T14:47:43.799Z</time></trkpt><trkpt lat="43.3997558" lon="13.1782022"><ele>384.16666666666663</ele><time>2026-05-01T14:47:44.797Z</time></trkpt><trkpt lat="43.3997593" lon="13.1783142"><ele>382.3333333333333</ele><time>2026-05-01T14:47:45.798Z</time></trkpt><trkpt lat="43.3997643" lon="13.1784308"><ele>380.5</ele><time>2026-05-01T14:47:46.797Z</time></trkpt><trkpt lat="43.3997687" lon="13.1785468"><ele>378.66666666666663</ele><time>2026-05-01T14:47:47.797Z</time></trkpt><trkpt lat="43.3997748" lon="13.1786725"><ele>376.8333333333333</ele><time>2026-05-01T14:47:48.799Z</time></trkpt><trkpt lat="43.3997817" lon="13.1788034"><ele>375.0</ele><time>2026-05-01T14:47:49.798Z</time></trkpt><trkpt lat="43.3997873" lon="13.1789358"><ele>373.2</ele><time>2026-05-01T14:47:50.799Z</time></trkpt><trkpt lat="43.3997915" lon="13.1790678"><ele>371.4</ele><time>2026-05-01T14:47:51.798Z</time></trkpt><trkpt lat="43.3997956" lon="13.1791986"><ele>369.6</ele><time>2026-05-01T14:47:52.797Z</time></trkpt><trkpt lat="43.3998034" lon="13.1793277"><ele>367.8</ele><time>2026-05-01T14:47:53.797Z</time></trkpt><trkpt lat="43.3998137" lon="13.1794603"><ele>366.0</ele><time>2026-05-01T14:47:54.797Z</time></trkpt><trkpt lat="43.3998255" lon="13.1795956"><ele>366.0</ele><time>2026-05-01T14:47:55.797Z</time></trkpt><trkpt lat="43.3998425" lon="13.1797354"><ele>366.0</ele><time>2026-05-01T14:47:56.798Z</time></trkpt><trkpt lat="43.3998618" lon="13.1798751"><ele>366.0</ele><time>2026-05-01T14:47:57.797Z</time></trkpt><trkpt lat="43.3998833" lon="13.1800217"><ele>366.0</ele><time>2026-05-01T14:47:58.799Z</time></trkpt><trkpt lat="43.3999109" lon="13.1801603"><ele>366.0</ele><time>2026-05-01T14:47:59.797Z</time></trkpt><trkpt lat="43.3999349" lon="13.180296"><ele>363.6</ele><time>2026-05-01T14:48:00.798Z</time></trkpt><trkpt lat="43.3999535" lon="13.1804343"><ele>361.20000000000005</ele><time>2026-05-01T14:48:01.798Z</time></trkpt><trkpt lat="43.3999623" lon="13.180567"><ele>358.79999999999995</ele><time>2026-05-01T14:48:02.798Z</time></trkpt><trkpt lat="43.3999517" lon="13.1806911"><ele>356.4</ele><time>2026-05-01T14:48:03.798Z</time></trkpt><trkpt lat="43.3999269" lon="13.1808115"><ele>354.0</ele><time>2026-05-01T14:48:04.797Z</time></trkpt><trkpt lat="43.3998986" lon="13.1809338"><ele>353.0</ele><time>2026-05-01T14:48:05.797Z</time></trkpt><trkpt lat="43.399863" lon="13.1810504"><ele>352.0</ele><time>2026-05-01T14:48:06.798Z</time></trkpt><trkpt lat="43.3998225" lon="13.181171"><ele>351.0</ele><time>2026-05-01T14:48:07.798Z</time></trkpt><trkpt lat="43.3997791" lon="13.1812917"><ele>350.0</ele><time>2026-05-01T14:48:08.798Z</time></trkpt><trkpt lat="43.3997374" lon="13.1814097"><ele>349.0</ele><time>2026-05-01T14:48:09.797Z</time></trkpt><trkpt lat="43.3996985" lon="13.1815294"><ele>348.4</ele><time>2026-05-01T14:48:10.799Z</time></trkpt><trkpt lat="43.3996594" lon="13.1816501"><ele>347.79999999999995</ele><time>2026-05-01T14:48:11.798Z</time></trkpt><trkpt lat="43.3996186" lon="13.1817693"><ele>347.20000000000005</ele><time>2026-05-01T14:48:12.797Z</time></trkpt><trkpt lat="43.3995766" lon="13.1818874"><ele>346.6</ele><time>2026-05-01T14:48:13.798Z</time></trkpt><trkpt lat="43.3995366" lon="13.1820061"><ele>346.0</ele><time>2026-05-01T14:48:14.798Z</time></trkpt><trkpt lat="43.3994947" lon="13.1821277"><ele>346.0</ele><time>2026-05-01T14:48:15.798Z</time></trkpt><trkpt lat="43.3994501" lon="13.1822465"><ele>346.0</ele><time>2026-05-01T14:48:16.797Z</time></trkpt><trkpt lat="43.399404" lon="13.1823672"><ele>346.0</ele><time>2026-05-01T14:48:17.798Z</time></trkpt><trkpt lat="43.3993587" lon="13.1824937"><ele>346.0</ele><time>2026-05-01T14:48:18.797Z</time></trkpt><trkpt lat="43.3993058" lon="13.182615"><ele>346.0</ele><time>2026-05-01T14:48:19.798Z</time></trkpt><trkpt lat="43.3992494" lon="13.1827363"><ele>344.20000000000005</ele><time>2026-05-01T14:48:20.798Z</time></trkpt><trkpt lat="43.3991921" lon="13.1828618"><ele>342.40000000000003</ele><time>2026-05-01T14:48:21.798Z</time></trkpt><trkpt lat="43.3991318" lon="13.1829866"><ele>340.6</ele><time>2026-05-01T14:48:22.798Z</time></trkpt><trkpt lat="43.3990748" lon="13.1831116"><ele>338.8</ele><time>2026-05-01T14:48:23.799Z</time></trkpt><trkpt lat="43.3990176" lon="13.1832347"><ele>337.0</ele><time>2026-05-01T14:48:24.798Z</time></trkpt><trkpt lat="43.398961" lon="13.183359"><ele>335.20000000000005</ele><time>2026-05-01T14:48:25.798Z</time></trkpt><trkpt lat="43.3989049" lon="13.1834762"><ele>333.4</ele><time>2026-05-01T14:48:26.798Z</time></trkpt><trkpt lat="43.3988527" lon="13.1835923"><ele>331.6</ele><time>2026-05-01T14:48:27.798Z</time></trkpt><trkpt lat="43.3988097" lon="13.1837138"><ele>329.79999999999995</ele><time>2026-05-01T14:48:28.797Z</time></trkpt><trkpt lat="43.3987741" lon="13.183839"><ele>328.0</ele><time>2026-05-01T14:48:29.798Z</time></trkpt><trkpt lat="43.3987365" lon="13.1839641"><ele>326.0</ele><time>2026-05-01T14:48:30.798Z</time></trkpt><trkpt lat="43.398698" lon="13.1840893"><ele>324.0</ele><time>2026-05-01T14:48:31.797Z</time></trkpt><trkpt lat="43.3986561" lon="13.1842196"><ele>322.0</ele><time>2026-05-01T14:48:32.797Z</time></trkpt><trkpt lat="43.3986153" lon="13.18435"><ele>320.0</ele><time>2026-05-01T14:48:33.799Z</time></trkpt><trkpt lat="43.3985757" lon="13.18448"><ele>318.0</ele><time>2026-05-01T14:48:34.798Z</time></trkpt><trkpt lat="43.3985351" lon="13.1846111"><ele>318.0</ele><time>2026-05-01T14:48:35.798Z</time></trkpt><trkpt lat="43.398503" lon="13.1847359"><ele>318.0</ele><time>2026-05-01T14:48:36.797Z</time></trkpt><trkpt lat="43.3984908" lon="13.1848513"><ele>318.0</ele><time>2026-05-01T14:48:37.797Z</time></trkpt><trkpt lat="43.3985021" lon="13.1849506"><ele>318.0</ele><time>2026-05-01T14:48:38.798Z</time></trkpt><trkpt lat="43.3985331" lon="13.1850327"><ele>318.0</ele><time>2026-05-01T14:48:39.798Z</time></trkpt><trkpt lat="43.398613" lon="13.1851325"><ele>318.0</ele><time>2026-05-01T14:48:41.798Z</time></trkpt><trkpt lat="43.3986183" lon="13.18524"><ele>315.6666666666667</ele><time>2026-05-01T14:48:44.798Z</time></trkpt><trkpt lat="43.3985319" lon="13.1852639"><ele>313.3333333333333</ele><time>2026-05-01T14:48:46.798Z</time></trkpt><trkpt lat="43.3984104" lon="13.1853057"><ele>311.0</ele><time>2026-05-01T14:48:48.798Z</time></trkpt><trkpt lat="43.3983504" lon="13.1853431"><ele>308.66666666666663</ele><time>2026-05-01T14:48:49.797Z</time></trkpt><trkpt lat="43.3982894" lon="13.1853923"><ele>306.3333333333333</ele><time>2026-05-01T14:48:50.799Z</time></trkpt><trkpt lat="43.3982276" lon="13.1854428"><ele>304.0</ele><time>2026-05-01T14:48:51.798Z</time></trkpt><trkpt lat="43.3981629" lon="13.1854882"><ele>304.0</ele><time>2026-05-01T14:48:52.798Z</time></trkpt><trkpt lat="43.3980994" lon="13.1855282"><ele>304.0</ele><time>2026-05-01T14:48:53.799Z</time></trkpt><trkpt lat="43.398032" lon="13.185556"><ele>304.0</ele><time>2026-05-01T14:48:54.798Z</time></trkpt><trkpt lat="43.3979645" lon="13.1855781"><ele>304.0</ele><time>2026-05-01T14:48:55.798Z</time></trkpt><trkpt lat="43.3978915" lon="13.1855912"><ele>304.0</ele><time>2026-05-01T14:48:56.797Z</time></trkpt><trkpt lat="43.3978183" lon="13.1855967"><ele>304.0</ele><time>2026-05-01T14:48:57.797Z</time></trkpt><trkpt lat="43.3977422" lon="13.1855853"><ele>304.0</ele><time>2026-05-01T14:48:58.799Z</time></trkpt><trkpt lat="43.3976706" lon="13.1855546"><ele>304.0</ele><time>2026-05-01T14:48:59.798Z</time></trkpt><trkpt lat="43.3975917" lon="13.1855101"><ele>304.0</ele><time>2026-05-01T14:49:00.798Z</time></trkpt><trkpt lat="43.3975036" lon="13.1854537"><ele>304.0</ele><time>2026-05-01T14:49:01.798Z</time></trkpt><trkpt lat="43.3974119" lon="13.185394"><ele>304.0</ele><time>2026-05-01T14:49:02.798Z</time></trkpt><trkpt lat="43.3973164" lon="13.1853348"><ele>304.0</ele><time>2026-05-01T14:49:03.797Z</time></trkpt><trkpt lat="43.3972288" lon="13.1852691"><ele>303.0</ele><time>2026-05-01T14:49:04.797Z</time></trkpt><trkpt lat="43.3971439" lon="13.1851979"><ele>302.0</ele><time>2026-05-01T14:49:05.798Z</time></trkpt><trkpt lat="43.3970667" lon="13.1851156"><ele>301.0</ele><time>2026-05-01T14:49:06.797Z</time></trkpt><trkpt lat="43.3969988" lon="13.1850277"><ele>300.0</ele><time>2026-05-01T14:49:07.798Z</time></trkpt><trkpt lat="43.3969384" lon="13.1849269"><ele>299.0</ele><time>2026-05-01T14:49:08.798Z</time></trkpt><trkpt lat="43.396883" lon="13.1848158"><ele>299.0</ele><time>2026-05-01T14:49:09.798Z</time></trkpt><trkpt lat="43.3968289" lon="13.1847012"><ele>299.0</ele><time>2026-05-01T14:49:10.798Z</time></trkpt><trkpt lat="43.3967729" lon="13.1845888"><ele>299.0</ele><time>2026-05-01T14:49:11.798Z</time></trkpt><trkpt lat="43.3967168" lon="13.1844774"><ele>299.0</ele><time>2026-05-01T14:49:12.798Z</time></trkpt><trkpt lat="43.3966631" lon="13.1843644"><ele>299.0</ele><time>2026-05-01T14:49:13.798Z</time></trkpt><trkpt lat="43.3966105" lon="13.1842564"><ele>299.0</ele><time>2026-05-01T14:49:14.798Z</time></trkpt><trkpt lat="43.3965608" lon="13.1841357"><ele>299.0</ele><time>2026-05-01T14:49:15.798Z</time></trkpt><trkpt lat="43.3965178" lon="13.1840048"><ele>299.0</ele><time>2026-05-01T14:49:16.798Z</time></trkpt><trkpt lat="43.3964736" lon="13.1838686"><ele>299.0</ele><time>2026-05-01T14:49:17.797Z</time></trkpt><trkpt lat="43.3964222" lon="13.1837283"><ele>299.0</ele><time>2026-05-01T14:49:18.799Z</time></trkpt><trkpt lat="43.3963726" lon="13.1835862"><ele>296.25</ele><time>2026-05-01T14:49:19.797Z</time></trkpt><trkpt lat="43.3963122" lon="13.1834554"><ele>293.5</ele><time>2026-05-01T14:49:20.798Z</time></trkpt><trkpt lat="43.39626" lon="13.1833109"><ele>290.75</ele><time>2026-05-01T14:49:21.798Z</time></trkpt><trkpt lat="43.3962098" lon="13.1831631"><ele>288.0</ele><time>2026-05-01T14:49:22.797Z</time></trkpt><trkpt lat="43.3961627" lon="13.1830185"><ele>288.0</ele><time>2026-05-01T14:49:23.798Z</time></trkpt><trkpt lat="43.3961045" lon="13.1828737"><ele>288.0</ele><time>2026-05-01T14:49:24.797Z</time></trkpt><trkpt lat="43.3960447" lon="13.1827292"><ele>288.0</ele><time>2026-05-01T14:49:25.798Z</time></trkpt><trkpt lat="43.3959916" lon="13.1825737"><ele>288.0</ele><time>2026-05-01T14:49:26.798Z</time></trkpt><trkpt lat="43.395956" lon="13.1824087"><ele>290.0</ele><time>2026-05-01T14:49:27.797Z</time></trkpt><trkpt lat="43.395936" lon="13.1822335"><ele>292.0</ele><time>2026-05-01T14:49:28.798Z</time></trkpt><trkpt lat="43.3959211" lon="13.1820576"><ele>294.0</ele><time>2026-05-01T14:49:29.798Z</time></trkpt><trkpt lat="43.3959134" lon="13.181867"><ele>296.0</ele><time>2026-05-01T14:49:30.798Z</time></trkpt><trkpt lat="43.3959099" lon="13.1816538"><ele>297.25</ele><time>2026-05-01T14:49:31.798Z</time></trkpt><trkpt lat="43.3959155" lon="13.1814513"><ele>298.5</ele><time>2026-05-01T14:49:32.797Z</time></trkpt><trkpt lat="43.3959306" lon="13.1812565"><ele>299.75</ele><time>2026-05-01T14:49:33.798Z</time></trkpt><trkpt lat="43.3959412" lon="13.1810673"><ele>301.0</ele><time>2026-05-01T14:49:34.797Z</time></trkpt><trkpt lat="43.3959472" lon="13.1808917"><ele>301.0</ele><time>2026-05-01T14:49:35.798Z</time></trkpt><trkpt lat="43.395925" lon="13.1807363"><ele>301.0</ele><time>2026-05-01T14:49:36.797Z</time></trkpt><trkpt lat="43.3959087" lon="13.1805956"><ele>301.0</ele><time>2026-05-01T14:49:37.798Z</time></trkpt><trkpt lat="43.3958828" lon="13.1804652"><ele>301.0</ele><time>2026-05-01T14:49:38.798Z</time></trkpt><trkpt lat="43.395854" lon="13.1803448"><ele>301.0</ele><time>2026-05-01T14:49:39.799Z</time></trkpt><trkpt lat="43.3958194" lon="13.1802333"><ele>301.8333333333333</ele><time>2026-05-01T14:49:40.798Z</time></trkpt><trkpt lat="43.3957799" lon="13.1801213"><ele>302.66666666666663</ele><time>2026-05-01T14:49:41.798Z</time></trkpt><trkpt lat="43.3957409" lon="13.1800064"><ele>303.5</ele><time>2026-05-01T14:49:42.798Z</time></trkpt><trkpt lat="43.3956987" lon="13.179906"><ele>304.3333333333333</ele><time>2026-05-01T14:49:43.798Z</time></trkpt><trkpt lat="43.3956549" lon="13.1798014"><ele>305.1666666666667</ele><time>2026-05-01T14:49:44.798Z</time></trkpt><trkpt lat="43.3956051" lon="13.1797157"><ele>306.0</ele><time>2026-05-01T14:49:45.798Z</time></trkpt><trkpt lat="43.3955405" lon="13.1796334"><ele>303.0</ele><time>2026-05-01T14:49:46.797Z</time></trkpt><trkpt lat="43.3954869" lon="13.1795451"><ele>300.0</ele><time>2026-05-01T14:49:47.799Z</time></trkpt><trkpt lat="43.3954289" lon="13.1794499"><ele>297.0</ele><time>2026-05-01T14:49:48.799Z</time></trkpt><trkpt lat="43.3953674" lon="13.1793595"><ele>294.0</ele><time>2026-05-01T14:49:49.798Z</time></trkpt><trkpt lat="43.3953065" lon="13.1792725"><ele>291.0</ele><time>2026-05-01T14:49:50.798Z</time></trkpt><trkpt lat="43.3952455" lon="13.1791842"><ele>288.0</ele><time>2026-05-01T14:49:51.798Z</time></trkpt><trkpt lat="43.3951813" lon="13.1790958"><ele>289.2</ele><time>2026-05-01T14:49:52.797Z</time></trkpt><trkpt lat="43.3951154" lon="13.1790089"><ele>290.4</ele><time>2026-05-01T14:49:53.798Z</time></trkpt><trkpt lat="43.3950466" lon="13.1789217"><ele>291.59999999999997</ele><time>2026-05-01T14:49:54.798Z</time></trkpt><trkpt lat="43.3949769" lon="13.1788358"><ele>292.8</ele><time>2026-05-01T14:49:55.799Z</time></trkpt><trkpt lat="43.3949107" lon="13.1787486"><ele>294.0</ele><time>2026-05-01T14:49:56.798Z</time></trkpt><trkpt lat="43.3948436" lon="13.1786568"><ele>294.0</ele><time>2026-05-01T14:49:57.797Z</time></trkpt><trkpt lat="43.3947717" lon="13.1785629"><ele>294.0</ele><time>2026-05-01T14:49:58.799Z</time></trkpt><trkpt lat="43.3947" lon="13.178463"><ele>294.0</ele><time>2026-05-01T14:49:59.798Z</time></trkpt><trkpt lat="43.3946245" lon="13.1783566"><ele>294.0</ele><time>2026-05-01T14:50:00.798Z</time></trkpt><trkpt lat="43.3945497" lon="13.1782408"><ele>294.0</ele><time>2026-05-01T14:50:01.798Z</time></trkpt><trkpt lat="43.3944786" lon="13.178119"><ele>292.0</ele><time>2026-05-01T14:50:02.797Z</time></trkpt><trkpt lat="43.3944099" lon="13.177994"><ele>290.0</ele><time>2026-05-01T14:50:03.798Z</time></trkpt><trkpt lat="43.3943435" lon="13.1778659"><ele>288.0</ele><time>2026-05-01T14:50:04.797Z</time></trkpt><trkpt lat="43.3942804" lon="13.1777434"><ele>286.0</ele><time>2026-05-01T14:50:05.798Z</time></trkpt><trkpt lat="43.3942182" lon="13.1776234"><ele>284.0</ele><time>2026-05-01T14:50:06.797Z</time></trkpt><trkpt lat="43.3941614" lon="13.1775002"><ele>284.0</ele><time>2026-05-01T14:50:07.797Z</time></trkpt><trkpt lat="43.3941162" lon="13.1773673"><ele>284.0</ele><time>2026-05-01T14:50:08.798Z</time></trkpt><trkpt lat="43.3940834" lon="13.1772249"><ele>284.0</ele><time>2026-05-01T14:50:09.797Z</time></trkpt><trkpt lat="43.3940605" lon="13.1770735"><ele>284.0</ele><time>2026-05-01T14:50:10.797Z</time></trkpt><trkpt lat="43.3940304" lon="13.1769189"><ele>284.0</ele><time>2026-05-01T14:50:11.797Z</time></trkpt><trkpt lat="43.3939774" lon="13.1767734"><ele>283.75</ele><time>2026-05-01T14:50:12.797Z</time></trkpt><trkpt lat="43.3939105" lon="13.1766454"><ele>283.5</ele><time>2026-05-01T14:50:13.798Z</time></trkpt><trkpt lat="43.3938334" lon="13.1765288"><ele>283.25</ele><time>2026-05-01T14:50:14.797Z</time></trkpt><trkpt lat="43.3937579" lon="13.1764122"><ele>283.0</ele><time>2026-05-01T14:50:15.798Z</time></trkpt><trkpt lat="43.3936873" lon="13.1762892"><ele>283.0</ele><time>2026-05-01T14:50:16.798Z</time></trkpt><trkpt lat="43.3936155" lon="13.1761648"><ele>283.0</ele><time>2026-05-01T14:50:17.798Z</time></trkpt><trkpt lat="43.3935457" lon="13.1760389"><ele>283.0</ele><time>2026-05-01T14:50:18.799Z</time></trkpt><trkpt lat="43.3934746" lon="13.1759115"><ele>283.0</ele><time>2026-05-01T14:50:19.798Z</time></trkpt><trkpt lat="43.3934062" lon="13.1757902"><ele>284.2</ele><time>2026-05-01T14:50:20.798Z</time></trkpt><trkpt lat="43.3933386" lon="13.1756726"><ele>285.4</ele><time>2026-05-01T14:50:21.797Z</time></trkpt><trkpt lat="43.3932731" lon="13.1755546"><ele>286.59999999999997</ele><time>2026-05-01T14:50:22.798Z</time></trkpt><trkpt lat="43.3932129" lon="13.1754306"><ele>287.8</ele><time>2026-05-01T14:50:23.798Z</time></trkpt><trkpt lat="43.3931479" lon="13.1753094"><ele>289.0</ele><time>2026-05-01T14:50:24.797Z</time></trkpt><trkpt lat="43.3930787" lon="13.1751951"><ele>289.0</ele><time>2026-05-01T14:50:25.798Z</time></trkpt><trkpt lat="43.3930078" lon="13.1750764"><ele>289.0</ele><time>2026-05-01T14:50:26.797Z</time></trkpt><trkpt lat="43.392937" lon="13.1749567"><ele>289.0</ele><time>2026-05-01T14:50:27.797Z</time></trkpt><trkpt lat="43.3928679" lon="13.174837"><ele>289.0</ele><time>2026-05-01T14:50:28.799Z</time></trkpt><trkpt lat="43.3928022" lon="13.1747174"><ele>289.0</ele><time>2026-05-01T14:50:29.798Z</time></trkpt><trkpt lat="43.3927375" lon="13.174596"><ele>288.4</ele><time>2026-05-01T14:50:30.798Z</time></trkpt><trkpt lat="43.3926761" lon="13.1744764"><ele>287.79999999999995</ele><time>2026-05-01T14:50:31.798Z</time></trkpt><trkpt lat="43.3926184" lon="13.174355"><ele>287.20000000000005</ele><time>2026-05-01T14:50:32.798Z</time></trkpt><trkpt lat="43.3925543" lon="13.1742322"><ele>286.6</ele><time>2026-05-01T14:50:33.798Z</time></trkpt><trkpt lat="43.3924849" lon="13.17411"><ele>286.0</ele><time>2026-05-01T14:50:34.797Z</time></trkpt><trkpt lat="43.3924113" lon="13.1739856"><ele>285.5</ele><time>2026-05-01T14:50:35.799Z</time></trkpt><trkpt lat="43.3923395" lon="13.1738591"><ele>285.0</ele><time>2026-05-01T14:50:36.797Z</time></trkpt><trkpt lat="43.3922701" lon="13.1737279"><ele>284.5</ele><time>2026-05-01T14:50:37.798Z</time></trkpt><trkpt lat="43.3922012" lon="13.173595"><ele>284.0</ele><time>2026-05-01T14:50:38.798Z</time></trkpt><trkpt lat="43.3921189" lon="13.1734599"><ele>284.0</ele><time>2026-05-01T14:50:39.798Z</time></trkpt><trkpt lat="43.3920186" lon="13.1733137"><ele>284.0</ele><time>2026-05-01T14:50:40.797Z</time></trkpt><trkpt lat="43.3919011" lon="13.173157"><ele>284.0</ele><time>2026-05-01T14:50:41.797Z</time></trkpt><trkpt lat="43.3917789" lon="13.1729912"><ele>289.6666666666667</ele><time>2026-05-01T14:50:42.798Z</time></trkpt><trkpt lat="43.3916496" lon="13.1728188"><ele>295.3333333333333</ele><time>2026-05-01T14:50:43.797Z</time></trkpt><trkpt lat="43.3915271" lon="13.1726524"><ele>301.0</ele><time>2026-05-01T14:50:44.798Z</time></trkpt><trkpt lat="43.3913996" lon="13.1724866"><ele>301.3333333333333</ele><time>2026-05-01T14:50:45.798Z</time></trkpt><trkpt lat="43.3912638" lon="13.1723262"><ele>301.6666666666667</ele><time>2026-05-01T14:50:46.797Z</time></trkpt><trkpt lat="43.3911168" lon="13.1721762"><ele>302.0</ele><time>2026-05-01T14:50:47.797Z</time></trkpt><trkpt lat="43.3909675" lon="13.1720443"><ele>302.0</ele><time>2026-05-01T14:50:48.798Z</time></trkpt><trkpt lat="43.3908268" lon="13.1719275"><ele>302.0</ele><time>2026-05-01T14:50:49.798Z</time></trkpt><trkpt lat="43.3906936" lon="13.1718185"><ele>302.0</ele><time>2026-05-01T14:50:50.798Z</time></trkpt><trkpt lat="43.3905665" lon="13.1717227"><ele>303.0</ele><time>2026-05-01T14:50:51.798Z</time></trkpt><trkpt lat="43.3904452" lon="13.1716449"><ele>304.0</ele><time>2026-05-01T14:50:52.799Z</time></trkpt><trkpt lat="43.3903307" lon="13.1715872"><ele>305.0</ele><time>2026-05-01T14:50:53.798Z</time></trkpt><trkpt lat="43.3902284" lon="13.1715443"><ele>306.0</ele><time>2026-05-01T14:50:54.797Z</time></trkpt><trkpt lat="43.3901368" lon="13.1715011"><ele>306.0</ele><time>2026-05-01T14:50:55.797Z</time></trkpt><trkpt lat="43.3900414" lon="13.1714404"><ele>306.0</ele><time>2026-05-01T14:50:56.798Z</time></trkpt><trkpt lat="43.3899479" lon="13.1713654"><ele>306.0</ele><time>2026-05-01T14:50:57.797Z</time></trkpt><trkpt lat="43.3898502" lon="13.1712799"><ele>306.0</ele><time>2026-05-01T14:50:58.797Z</time></trkpt><trkpt lat="43.3897523" lon="13.1711839"><ele>306.0</ele><time>2026-05-01T14:50:59.798Z</time></trkpt><trkpt lat="43.3896574" lon="13.1710783"><ele>305.5</ele><time>2026-05-01T14:51:00.797Z</time></trkpt><trkpt lat="43.3895647" lon="13.1709705"><ele>305.0</ele><time>2026-05-01T14:51:01.798Z</time></trkpt><trkpt lat="43.3894774" lon="13.1708628"><ele>304.5</ele><time>2026-05-01T14:51:02.797Z</time></trkpt><trkpt lat="43.389397" lon="13.1707602"><ele>304.0</ele><time>2026-05-01T14:51:03.797Z</time></trkpt><trkpt lat="43.3893162" lon="13.1706588"><ele>304.0</ele><time>2026-05-01T14:51:04.798Z</time></trkpt><trkpt lat="43.3892344" lon="13.170553"><ele>304.0</ele><time>2026-05-01T14:51:05.797Z</time></trkpt><trkpt lat="43.3891549" lon="13.1704449"><ele>304.0</ele><time>2026-05-01T14:51:06.798Z</time></trkpt><trkpt lat="43.3890772" lon="13.1703364"><ele>304.0</ele><time>2026-05-01T14:51:07.799Z</time></trkpt><trkpt lat="43.3890012" lon="13.1702247"><ele>304.0</ele><time>2026-05-01T14:51:08.797Z</time></trkpt><trkpt lat="43.3889249" lon="13.1701109"><ele>304.0</ele><time>2026-05-01T14:51:09.797Z</time></trkpt><trkpt lat="43.3888468" lon="13.1699991"><ele>304.0</ele><time>2026-05-01T14:51:10.797Z</time></trkpt><trkpt lat="43.3887688" lon="13.1698836"><ele>304.0</ele><time>2026-05-01T14:51:11.798Z</time></trkpt><trkpt lat="43.3886932" lon="13.169768"><ele>304.0</ele><time>2026-05-01T14:51:12.798Z</time></trkpt><trkpt lat="43.3886182" lon="13.1696468"><ele>301.75</ele><time>2026-05-01T14:51:13.798Z</time></trkpt><trkpt lat="43.3885477" lon="13.1695258"><ele>299.5</ele><time>2026-05-01T14:51:14.798Z</time></trkpt><trkpt lat="43.3884787" lon="13.1694037"><ele>297.25</ele><time>2026-05-01T14:51:15.798Z</time></trkpt><trkpt lat="43.3884152" lon="13.1692718"><ele>295.0</ele><time>2026-05-01T14:51:16.797Z</time></trkpt><trkpt lat="43.3883539" lon="13.1691408"><ele>299.0</ele><time>2026-05-01T14:51:17.797Z</time></trkpt><trkpt lat="43.388291" lon="13.1690074"><ele>303.0</ele><time>2026-05-01T14:51:18.797Z</time></trkpt><trkpt lat="43.388224" lon="13.168877"><ele>307.0</ele><time>2026-05-01T14:51:19.797Z</time></trkpt><trkpt lat="43.3881547" lon="13.1687509"><ele>311.0</ele><time>2026-05-01T14:51:20.798Z</time></trkpt><trkpt lat="43.3880892" lon="13.1686275"><ele>311.0</ele><time>2026-05-01T14:51:21.798Z</time></trkpt><trkpt lat="43.3880275" lon="13.1685035"><ele>311.0</ele><time>2026-05-01T14:51:22.798Z</time></trkpt><trkpt lat="43.3879662" lon="13.1683801"><ele>311.0</ele><time>2026-05-01T14:51:23.798Z</time></trkpt><trkpt lat="43.3879055" lon="13.1682614"><ele>311.0</ele><time>2026-05-01T14:51:24.798Z</time></trkpt><trkpt lat="43.3878464" lon="13.1681512"><ele>311.0</ele><time>2026-05-01T14:51:25.797Z</time></trkpt><trkpt lat="43.3877935" lon="13.1680463"><ele>309.33333333333337</ele><time>2026-05-01T14:51:26.798Z</time></trkpt><trkpt lat="43.3877439" lon="13.167954"><ele>307.6666666666667</ele><time>2026-05-01T14:51:27.798Z</time></trkpt><trkpt lat="43.3876987" lon="13.1678684"><ele>306.0</ele><time>2026-05-01T14:51:28.798Z</time></trkpt><trkpt lat="43.3876322" lon="13.1677425"><ele>304.3333333333333</ele><time>2026-05-01T14:51:30.798Z</time></trkpt><trkpt lat="43.3875909" lon="13.1676483"><ele>302.66666666666663</ele><time>2026-05-01T14:51:32.798Z</time></trkpt><trkpt lat="43.3875583" lon="13.1675447"><ele>301.0</ele><time>2026-05-01T14:51:35.798Z</time></trkpt><trkpt lat="43.387532" lon="13.1674512"><ele>303.2</ele><time>2026-05-01T14:51:37.797Z</time></trkpt><trkpt lat="43.3874964" lon="13.1673127"><ele>305.40000000000003</ele><time>2026-05-01T14:51:39.797Z</time></trkpt><trkpt lat="43.3874729" lon="13.1672192"><ele>307.6</ele><time>2026-05-01T14:51:40.797Z</time></trkpt><trkpt lat="43.3874453" lon="13.1671121"><ele>309.8</ele><time>2026-05-01T14:51:41.799Z</time></trkpt><trkpt lat="43.3874135" lon="13.1669877"><ele>312.0</ele><time>2026-05-01T14:51:42.798Z</time></trkpt><trkpt lat="43.3873817" lon="13.1668522"><ele>312.0</ele><time>2026-05-01T14:51:43.798Z</time></trkpt><trkpt lat="43.3873505" lon="13.1667189"><ele>312.0</ele><time>2026-05-01T14:51:44.799Z</time></trkpt><trkpt lat="43.3873187" lon="13.1665926"><ele>312.0</ele><time>2026-05-01T14:51:45.797Z</time></trkpt><trkpt lat="43.3872902" lon="13.1664753"><ele>312.0</ele><time>2026-05-01T14:51:46.798Z</time></trkpt><trkpt lat="43.38727" lon="13.1663736"><ele>312.0</ele><time>2026-05-01T14:51:47.797Z</time></trkpt><trkpt lat="43.3872612" lon="13.1662849"><ele>312.0</ele><time>2026-05-01T14:51:48.799Z</time></trkpt><trkpt lat="43.3872679" lon="13.1661969"><ele>311.7142857142857</ele><time>2026-05-01T14:51:49.797Z</time></trkpt><trkpt lat="43.3872918" lon="13.1661147"><ele>311.4285714285714</ele><time>2026-05-01T14:51:50.797Z</time></trkpt><trkpt lat="43.3873306" lon="13.1660429"><ele>311.1428571428571</ele><time>2026-05-01T14:51:51.797Z</time></trkpt><trkpt lat="43.3873833" lon="13.1659845"><ele>310.8571428571429</ele><time>2026-05-01T14:51:52.799Z</time></trkpt><trkpt lat="43.3874465" lon="13.1659462"><ele>310.57142857142856</ele><time>2026-05-01T14:51:53.797Z</time></trkpt><trkpt lat="43.3875194" lon="13.1659233"><ele>310.2857142857143</ele><time>2026-05-01T14:51:54.798Z</time></trkpt><trkpt lat="43.3875917" lon="13.1658928"><ele>310.0</ele><time>2026-05-01T14:51:55.797Z</time></trkpt><trkpt lat="43.387657" lon="13.1658517"><ele>310.0</ele><time>2026-05-01T14:51:56.798Z</time></trkpt><trkpt lat="43.3877187" lon="13.1657987"><ele>310.0</ele><time>2026-05-01T14:51:57.797Z</time></trkpt><trkpt lat="43.3877764" lon="13.1657383"><ele>310.0</ele><time>2026-05-01T14:51:58.798Z</time></trkpt><trkpt lat="43.3878369" lon="13.1656802"><ele>310.0</ele><time>2026-05-01T14:51:59.797Z</time></trkpt><trkpt lat="43.3878924" lon="13.1656334"><ele>310.0</ele><time>2026-05-01T14:52:00.798Z</time></trkpt><trkpt lat="43.3880035" lon="13.165584"><ele>310.0</ele><time>2026-05-01T14:52:02.798Z</time></trkpt><trkpt lat="43.3881193" lon="13.165584"><ele>311.66666666666663</ele><time>2026-05-01T14:52:04.798Z</time></trkpt><trkpt lat="43.3881861" lon="13.1655981"><ele>313.3333333333333</ele><time>2026-05-01T14:52:05.797Z</time></trkpt><trkpt lat="43.38826" lon="13.1656158"><ele>315.0</ele><time>2026-05-01T14:52:06.798Z</time></trkpt><trkpt lat="43.388341" lon="13.1656312"><ele>316.6666666666667</ele><time>2026-05-01T14:52:07.798Z</time></trkpt><trkpt lat="43.3884283" lon="13.1656357"><ele>318.33333333333337</ele><time>2026-05-01T14:52:08.798Z</time></trkpt><trkpt lat="43.3885193" lon="13.1656189"><ele>320.0</ele><time>2026-05-01T14:52:09.798Z</time></trkpt><trkpt lat="43.3886148" lon="13.1655755"><ele>320.0</ele><time>2026-05-01T14:52:10.798Z</time></trkpt><trkpt lat="43.3887004" lon="13.1655015"><ele>320.0</ele><time>2026-05-01T14:52:11.798Z</time></trkpt><trkpt lat="43.3887693" lon="13.1654002"><ele>320.0</ele><time>2026-05-01T14:52:12.798Z</time></trkpt><trkpt lat="43.3888193" lon="13.1652858"><ele>320.0</ele><time>2026-05-01T14:52:13.797Z</time></trkpt><trkpt lat="43.3888399" lon="13.1651556"><ele>320.0</ele><time>2026-05-01T14:52:14.798Z</time></trkpt><trkpt lat="43.3888305" lon="13.1650191"><ele>320.0</ele><time>2026-05-01T14:52:15.798Z</time></trkpt><trkpt lat="43.388793" lon="13.1648914"><ele>320.0</ele><time>2026-05-01T14:52:16.799Z</time></trkpt><trkpt lat="43.3887288" lon="13.1647736"><ele>320.0</ele><time>2026-05-01T14:52:17.798Z</time></trkpt><trkpt lat="43.3886488" lon="13.1646851"><ele>320.0</ele><time>2026-05-01T14:52:18.797Z</time></trkpt><trkpt lat="43.3885482" lon="13.1646344"><ele>320.0</ele><time>2026-05-01T14:52:19.797Z</time></trkpt><trkpt lat="43.3884385" lon="13.1646275"><ele>328.5</ele><time>2026-05-01T14:52:20.797Z</time></trkpt><trkpt lat="43.3883311" lon="13.1646493"><ele>337.0</ele><time>2026-05-01T14:52:21.797Z</time></trkpt><trkpt lat="43.3882239" lon="13.1646913"><ele>345.5</ele><time>2026-05-01T14:52:22.797Z</time></trkpt><trkpt lat="43.388114" lon="13.1647369"><ele>354.0</ele><time>2026-05-01T14:52:23.797Z</time></trkpt><trkpt lat="43.3880034" lon="13.1647908"><ele>354.0</ele><time>2026-05-01T14:52:24.798Z</time></trkpt><trkpt lat="43.3878922" lon="13.1648445"><ele>354.0</ele><time>2026-05-01T14:52:25.798Z</time></trkpt><trkpt lat="43.3877798" lon="13.1649029"><ele>354.0</ele><time>2026-05-01T14:52:26.798Z</time></trkpt><trkpt lat="43.3876659" lon="13.1649522"><ele>354.0</ele><time>2026-05-01T14:52:27.798Z</time></trkpt><trkpt lat="43.3875586" lon="13.1649954"><ele>347.2</ele><time>2026-05-01T14:52:28.798Z</time></trkpt><trkpt lat="43.3874554" lon="13.1650232"><ele>340.4</ele><time>2026-05-01T14:52:29.798Z</time></trkpt><trkpt lat="43.3873525" lon="13.1650288"><ele>333.6</ele><time>2026-05-01T14:52:30.798Z</time></trkpt><trkpt lat="43.3872475" lon="13.1650068"><ele>326.8</ele><time>2026-05-01T14:52:31.798Z</time></trkpt><trkpt lat="43.3871466" lon="13.1649512"><ele>320.0</ele><time>2026-05-01T14:52:32.797Z</time></trkpt><trkpt lat="43.3870544" lon="13.1648767"><ele>321.8</ele><time>2026-05-01T14:52:33.797Z</time></trkpt><trkpt lat="43.3869731" lon="13.1647927"><ele>323.6</ele><time>2026-05-01T14:52:34.797Z</time></trkpt><trkpt lat="43.3868919" lon="13.1647059"><ele>325.4</ele><time>2026-05-01T14:52:35.798Z</time></trkpt><trkpt lat="43.3868106" lon="13.1646061"><ele>327.2</ele><time>2026-05-01T14:52:36.797Z</time></trkpt><trkpt lat="43.386727" lon="13.1645043"><ele>329.0</ele><time>2026-05-01T14:52:37.798Z</time></trkpt><trkpt lat="43.386644" lon="13.1643937"><ele>329.0</ele><time>2026-05-01T14:52:38.797Z</time></trkpt><trkpt lat="43.386567" lon="13.1642697"><ele>329.0</ele><time>2026-05-01T14:52:39.797Z</time></trkpt><trkpt lat="43.3865006" lon="13.1641293"><ele>329.0</ele><time>2026-05-01T14:52:40.799Z</time></trkpt><trkpt lat="43.3864384" lon="13.1639727"><ele>329.0</ele><time>2026-05-01T14:52:41.797Z</time></trkpt><trkpt lat="43.3863766" lon="13.1638002"><ele>327.5</ele><time>2026-05-01T14:52:42.798Z</time></trkpt><trkpt lat="43.386312" lon="13.1636232"><ele>326.0</ele><time>2026-05-01T14:52:43.799Z</time></trkpt><trkpt lat="43.3862406" lon="13.1634539"><ele>324.5</ele><time>2026-05-01T14:52:44.798Z</time></trkpt><trkpt lat="43.3861595" lon="13.163301"><ele>323.0</ele><time>2026-05-01T14:52:45.797Z</time></trkpt><trkpt lat="43.3860687" lon="13.1631707"><ele>330.25</ele><time>2026-05-01T14:52:46.799Z</time></trkpt><trkpt lat="43.3859684" lon="13.1630614"><ele>337.5</ele><time>2026-05-01T14:52:47.797Z</time></trkpt><trkpt lat="43.3858606" lon="13.1629732"><ele>344.75</ele><time>2026-05-01T14:52:48.799Z</time></trkpt><trkpt lat="43.3857527" lon="13.1628924"><ele>352.0</ele><time>2026-05-01T14:52:49.798Z</time></trkpt><trkpt lat="43.3856533" lon="13.1628019"><ele>352.0</ele><time>2026-05-01T14:52:50.797Z</time></trkpt><trkpt lat="43.3855601" lon="13.1627011"><ele>352.0</ele><time>2026-05-01T14:52:51.798Z</time></trkpt><trkpt lat="43.3854786" lon="13.1625865"><ele>352.0</ele><time>2026-05-01T14:52:52.798Z</time></trkpt><trkpt lat="43.3854033" lon="13.162462"><ele>352.0</ele><time>2026-05-01T14:52:53.797Z</time></trkpt><trkpt lat="43.3853349" lon="13.1623325"><ele>351.40000000000003</ele><time>2026-05-01T14:52:54.798Z</time></trkpt><trkpt lat="43.3852713" lon="13.1622096"><ele>350.8</ele><time>2026-05-01T14:52:55.798Z</time></trkpt><trkpt lat="43.385208" lon="13.1620912"><ele>350.2</ele><time>2026-05-01T14:52:56.799Z</time></trkpt><trkpt lat="43.3851442" lon="13.1619641"><ele>349.6</ele><time>2026-05-01T14:52:57.798Z</time></trkpt><trkpt lat="43.3850713" lon="13.1618485"><ele>349.0</ele><time>2026-05-01T14:52:58.798Z</time></trkpt><trkpt lat="43.3849839" lon="13.1617505"><ele>349.0</ele><time>2026-05-01T14:52:59.798Z</time></trkpt><trkpt lat="43.3848892" lon="13.1616707"><ele>349.0</ele><time>2026-05-01T14:53:00.798Z</time></trkpt><trkpt lat="43.3847961" lon="13.1616022"><ele>349.0</ele><time>2026-05-01T14:53:01.798Z</time></trkpt><trkpt lat="43.3847007" lon="13.1615429"><ele>349.0</ele><time>2026-05-01T14:53:02.798Z</time></trkpt><trkpt lat="43.3846156" lon="13.1614909"><ele>349.0</ele><time>2026-05-01T14:53:03.799Z</time></trkpt><trkpt lat="43.384535" lon="13.1614437"><ele>350.0</ele><time>2026-05-01T14:53:04.797Z</time></trkpt><trkpt lat="43.3844586" lon="13.1613863"><ele>351.0</ele><time>2026-05-01T14:53:05.799Z</time></trkpt><trkpt lat="43.3843825" lon="13.1613225"><ele>352.0</ele><time>2026-05-01T14:53:06.798Z</time></trkpt><trkpt lat="43.3843099" lon="13.1612501"><ele>353.0</ele><time>2026-05-01T14:53:07.797Z</time></trkpt><trkpt lat="43.3842447" lon="13.1611623"><ele>354.0</ele><time>2026-05-01T14:53:08.798Z</time></trkpt><trkpt lat="43.3841866" lon="13.1610654"><ele>355.0</ele><time>2026-05-01T14:53:09.798Z</time></trkpt><trkpt lat="43.384139" lon="13.1609521"><ele>355.0</ele><time>2026-05-01T14:53:10.798Z</time></trkpt><trkpt lat="43.3840932" lon="13.1608397"><ele>355.0</ele><time>2026-05-01T14:53:11.798Z</time></trkpt><trkpt lat="43.3840401" lon="13.1607297"><ele>355.0</ele><time>2026-05-01T14:53:12.798Z</time></trkpt><trkpt lat="43.3839774" lon="13.1606251"><ele>355.0</ele><time>2026-05-01T14:53:13.798Z</time></trkpt><trkpt lat="43.3839041" lon="13.1605293"><ele>355.0</ele><time>2026-05-01T14:53:14.798Z</time></trkpt><trkpt lat="43.383823" lon="13.1604479"><ele>355.4</ele><time>2026-05-01T14:53:15.798Z</time></trkpt><trkpt lat="43.3837344" lon="13.1603773"><ele>355.8</ele><time>2026-05-01T14:53:16.798Z</time></trkpt><trkpt lat="43.3836445" lon="13.1603132"><ele>356.20000000000005</ele><time>2026-05-01T14:53:17.798Z</time></trkpt><trkpt lat="43.3835503" lon="13.1602493"><ele>356.6</ele><time>2026-05-01T14:53:18.798Z</time></trkpt><trkpt lat="43.3834575" lon="13.1601896"><ele>357.0</ele><time>2026-05-01T14:53:19.798Z</time></trkpt><trkpt lat="43.3833607" lon="13.1601297"><ele>357.0</ele><time>2026-05-01T14:53:20.798Z</time></trkpt><trkpt lat="43.3832639" lon="13.1600662"><ele>357.0</ele><time>2026-05-01T14:53:21.797Z</time></trkpt><trkpt lat="43.3831672" lon="13.1599954"><ele>357.0</ele><time>2026-05-01T14:53:22.798Z</time></trkpt><trkpt lat="43.3830774" lon="13.1599097"><ele>357.0</ele><time>2026-05-01T14:53:23.797Z</time></trkpt><trkpt lat="43.3829948" lon="13.159813"><ele>357.0</ele><time>2026-05-01T14:53:24.798Z</time></trkpt><trkpt lat="43.3829215" lon="13.1597002"><ele>357.0</ele><time>2026-05-01T14:53:25.798Z</time></trkpt><trkpt lat="43.3828642" lon="13.1595707"><ele>357.0</ele><time>2026-05-01T14:53:26.797Z</time></trkpt><trkpt lat="43.382833" lon="13.1594304"><ele>357.0</ele><time>2026-05-01T14:53:27.798Z</time></trkpt><trkpt lat="43.3828158" lon="13.1592906"><ele>357.0</ele><time>2026-05-01T14:53:28.797Z</time></trkpt><trkpt lat="43.3828012" lon="13.1591501"><ele>357.0</ele><time>2026-05-01T14:53:29.798Z</time></trkpt><trkpt lat="43.3827841" lon="13.1590037"><ele>357.0</ele><time>2026-05-01T14:53:30.797Z</time></trkpt><trkpt lat="43.3827565" lon="13.1588574"><ele>357.0</ele><time>2026-05-01T14:53:31.798Z</time></trkpt><trkpt lat="43.3827158" lon="13.1587156"><ele>357.0</ele><time>2026-05-01T14:53:32.798Z</time></trkpt><trkpt lat="43.382663" lon="13.1585818"><ele>357.0</ele><time>2026-05-01T14:53:33.798Z</time></trkpt><trkpt lat="43.3826031" lon="13.1584509"><ele>357.0</ele><time>2026-05-01T14:53:34.799Z</time></trkpt><trkpt lat="43.3825398" lon="13.1583196"><ele>359.6</ele><time>2026-05-01T14:53:35.798Z</time></trkpt><trkpt lat="43.3824778" lon="13.1581875"><ele>362.20000000000005</ele><time>2026-05-01T14:53:36.797Z</time></trkpt><trkpt lat="43.3824281" lon="13.1580496"><ele>364.8</ele><time>2026-05-01T14:53:37.797Z</time></trkpt><trkpt lat="43.3823914" lon="13.157909"><ele>367.4</ele><time>2026-05-01T14:53:38.798Z</time></trkpt><trkpt lat="43.3823645" lon="13.1577669"><ele>370.0</ele><time>2026-05-01T14:53:39.797Z</time></trkpt><trkpt lat="43.3823452" lon="13.1576256"><ele>370.0</ele><time>2026-05-01T14:53:40.797Z</time></trkpt><trkpt lat="43.3823226" lon="13.1574831"><ele>370.0</ele><time>2026-05-01T14:53:41.798Z</time></trkpt><trkpt lat="43.3822921" lon="13.1573452"><ele>370.0</ele><time>2026-05-01T14:53:42.797Z</time></trkpt><trkpt lat="43.3822541" lon="13.157214"><ele>370.0</ele><time>2026-05-01T14:53:43.798Z</time></trkpt><trkpt lat="43.3821966" lon="13.1571013"><ele>370.0</ele><time>2026-05-01T14:53:44.798Z</time></trkpt><trkpt lat="43.382122" lon="13.157009"><ele>366.6</ele><time>2026-05-01T14:53:45.797Z</time></trkpt><trkpt lat="43.3820349" lon="13.1569334"><ele>363.2</ele><time>2026-05-01T14:53:46.798Z</time></trkpt><trkpt lat="43.3819421" lon="13.1568682"><ele>359.79999999999995</ele><time>2026-05-01T14:53:47.798Z</time></trkpt><trkpt lat="43.3818497" lon="13.1568073"><ele>356.4</ele><time>2026-05-01T14:53:48.797Z</time></trkpt><trkpt lat="43.3817639" lon="13.15673"><ele>353.0</ele><time>2026-05-01T14:53:49.799Z</time></trkpt><trkpt lat="43.3816909" lon="13.1566334"><ele>355.59999999999997</ele><time>2026-05-01T14:53:50.798Z</time></trkpt><trkpt lat="43.3816336" lon="13.1565202"><ele>358.2</ele><time>2026-05-01T14:53:51.798Z</time></trkpt><trkpt lat="43.381591" lon="13.156391"><ele>360.8</ele><time>2026-05-01T14:53:52.797Z</time></trkpt><trkpt lat="43.3815593" lon="13.1562607"><ele>363.4</ele><time>2026-05-01T14:53:53.798Z</time></trkpt><trkpt lat="43.3815285" lon="13.1561299"><ele>366.0</ele><time>2026-05-01T14:53:54.797Z</time></trkpt><trkpt lat="43.3814892" lon="13.156004"><ele>366.0</ele><time>2026-05-01T14:53:55.797Z</time></trkpt><trkpt lat="43.381435" lon="13.1558787"><ele>366.0</ele><time>2026-05-01T14:53:56.798Z</time></trkpt><trkpt lat="43.3813672" lon="13.1557611"><ele>366.0</ele><time>2026-05-01T14:53:57.798Z</time></trkpt><trkpt lat="43.3812896" lon="13.1556607"><ele>366.0</ele><time>2026-05-01T14:53:58.798Z</time></trkpt><trkpt lat="43.3812099" lon="13.1555677"><ele>366.0</ele><time>2026-05-01T14:53:59.798Z</time></trkpt><trkpt lat="43.381129" lon="13.1554731"><ele>364.20000000000005</ele><time>2026-05-01T14:54:00.798Z</time></trkpt><trkpt lat="43.3810518" lon="13.1553671"><ele>362.40000000000003</ele><time>2026-05-01T14:54:01.798Z</time></trkpt><trkpt lat="43.3809802" lon="13.1552566"><ele>360.6</ele><time>2026-05-01T14:54:02.797Z</time></trkpt><trkpt lat="43.3809105" lon="13.155143"><ele>358.8</ele><time>2026-05-01T14:54:03.798Z</time></trkpt><trkpt lat="43.3808455" lon="13.1550229"><ele>357.0</ele><time>2026-05-01T14:54:04.797Z</time></trkpt><trkpt lat="43.3807857" lon="13.1549031"><ele>354.0</ele><time>2026-05-01T14:54:05.797Z</time></trkpt><trkpt lat="43.3807306" lon="13.1547831"><ele>351.0</ele><time>2026-05-01T14:54:06.797Z</time></trkpt><trkpt lat="43.3806764" lon="13.154662"><ele>348.0</ele><time>2026-05-01T14:54:07.798Z</time></trkpt><trkpt lat="43.3806211" lon="13.1545396"><ele>345.0</ele><time>2026-05-01T14:54:08.798Z</time></trkpt><trkpt lat="43.3805657" lon="13.1544221"><ele>342.0</ele><time>2026-05-01T14:54:09.797Z</time></trkpt><trkpt lat="43.3805128" lon="13.1543081"><ele>342.0</ele><time>2026-05-01T14:54:10.798Z</time></trkpt><trkpt lat="43.3804619" lon="13.1541955"><ele>342.0</ele><time>2026-05-01T14:54:11.797Z</time></trkpt><trkpt lat="43.380414" lon="13.1540848"><ele>342.0</ele><time>2026-05-01T14:54:12.798Z</time></trkpt><trkpt lat="43.3803654" lon="13.153973"><ele>342.0</ele><time>2026-05-01T14:54:13.798Z</time></trkpt><trkpt lat="43.3803149" lon="13.1538588"><ele>342.0</ele><time>2026-05-01T14:54:14.798Z</time></trkpt><trkpt lat="43.380265" lon="13.1537433"><ele>344.6</ele><time>2026-05-01T14:54:15.798Z</time></trkpt><trkpt lat="43.3802141" lon="13.1536221"><ele>347.20000000000005</ele><time>2026-05-01T14:54:16.797Z</time></trkpt><trkpt lat="43.3801616" lon="13.1534963"><ele>349.8</ele><time>2026-05-01T14:54:17.798Z</time></trkpt><trkpt lat="43.3801081" lon="13.1533682"><ele>352.4</ele><time>2026-05-01T14:54:18.797Z</time></trkpt><trkpt lat="43.3800552" lon="13.1532384"><ele>355.0</ele><time>2026-05-01T14:54:19.798Z</time></trkpt><trkpt lat="43.3800028" lon="13.1531089"><ele>359.0</ele><time>2026-05-01T14:54:20.798Z</time></trkpt><trkpt lat="43.3799516" lon="13.1529764"><ele>363.0</ele><time>2026-05-01T14:54:21.798Z</time></trkpt><trkpt lat="43.3798991" lon="13.1528417"><ele>367.0</ele><time>2026-05-01T14:54:22.798Z</time></trkpt><trkpt lat="43.3798487" lon="13.1527113"><ele>371.0</ele><time>2026-05-01T14:54:23.798Z</time></trkpt><trkpt lat="43.3798013" lon="13.1525834"><ele>375.0</ele><time>2026-05-01T14:54:24.797Z</time></trkpt><trkpt lat="43.3797551" lon="13.1524644"><ele>378.3333333333333</ele><time>2026-05-01T14:54:25.797Z</time></trkpt><trkpt lat="43.3797157" lon="13.1523594"><ele>381.66666666666663</ele><time>2026-05-01T14:54:26.797Z</time></trkpt><trkpt lat="43.3796786" lon="13.1522671"><ele>385.0</ele><time>2026-05-01T14:54:27.798Z</time></trkpt><trkpt lat="43.3796266" lon="13.1521404"><ele>388.3333333333333</ele><time>2026-05-01T14:54:29.797Z</time></trkpt><trkpt lat="43.3795866" lon="13.1520557"><ele>391.66666666666663</ele><time>2026-05-01T14:54:31.798Z</time></trkpt><trkpt lat="43.3795001" lon="13.1519819"><ele>395.0</ele><time>2026-05-01T14:54:33.797Z</time></trkpt><trkpt lat="43.3793954" lon="13.1518773"><ele>389.8333333333333</ele><time>2026-05-01T14:54:35.798Z</time></trkpt><trkpt lat="43.3793509" lon="13.151804"><ele>384.66666666666663</ele><time>2026-05-01T14:54:36.797Z</time></trkpt><trkpt lat="43.3793127" lon="13.1517138"><ele>379.5</ele><time>2026-05-01T14:54:37.797Z</time></trkpt><trkpt lat="43.3792763" lon="13.1516178"><ele>374.3333333333333</ele><time>2026-05-01T14:54:38.797Z</time></trkpt><trkpt lat="43.3792343" lon="13.1515158"><ele>369.16666666666663</ele><time>2026-05-01T14:54:39.798Z</time></trkpt><trkpt lat="43.3791906" lon="13.1514174"><ele>364.0</ele><time>2026-05-01T14:54:40.798Z</time></trkpt><trkpt lat="43.3791495" lon="13.1513136"><ele>364.0</ele><time>2026-05-01T14:54:41.797Z</time></trkpt><trkpt lat="43.3791089" lon="13.1512083"><ele>364.0</ele><time>2026-05-01T14:54:42.798Z</time></trkpt><trkpt lat="43.3790605" lon="13.151105"><ele>364.0</ele><time>2026-05-01T14:54:43.797Z</time></trkpt><trkpt lat="43.3790009" lon="13.1510082"><ele>364.0</ele><time>2026-05-01T14:54:44.797Z</time></trkpt><trkpt lat="43.3789317" lon="13.150919"><ele>364.0</ele><time>2026-05-01T14:54:45.798Z</time></trkpt><trkpt lat="43.3788513" lon="13.1508422"><ele>359.0</ele><time>2026-05-01T14:54:46.798Z</time></trkpt><trkpt lat="43.3787617" lon="13.1507829"><ele>354.0</ele><time>2026-05-01T14:54:47.798Z</time></trkpt><trkpt lat="43.3786642" lon="13.1507349"><ele>349.0</ele><time>2026-05-01T14:54:48.797Z</time></trkpt><trkpt lat="43.37856" lon="13.1506969"><ele>344.0</ele><time>2026-05-01T14:54:49.798Z</time></trkpt><trkpt lat="43.3784512" lon="13.1506703"><ele>339.0</ele><time>2026-05-01T14:54:50.797Z</time></trkpt><trkpt lat="43.3783474" lon="13.1506599"><ele>339.0</ele><time>2026-05-01T14:54:51.797Z</time></trkpt><trkpt lat="43.3782395" lon="13.1506617"><ele>339.0</ele><time>2026-05-01T14:54:52.798Z</time></trkpt><trkpt lat="43.3781336" lon="13.1506821"><ele>339.0</ele><time>2026-05-01T14:54:53.797Z</time></trkpt><trkpt lat="43.3780285" lon="13.150713"><ele>339.0</ele><time>2026-05-01T14:54:54.798Z</time></trkpt><trkpt lat="43.377927" lon="13.1507522"><ele>339.0</ele><time>2026-05-01T14:54:55.797Z</time></trkpt><trkpt lat="43.3778278" lon="13.1508136"><ele>336.0</ele><time>2026-05-01T14:54:56.798Z</time></trkpt><trkpt lat="43.3777279" lon="13.1508851"><ele>333.0</ele><time>2026-05-01T14:54:57.797Z</time></trkpt><trkpt lat="43.3776296" lon="13.1509613"><ele>330.0</ele><time>2026-05-01T14:54:58.798Z</time></trkpt><trkpt lat="43.3775308" lon="13.1510391"><ele>327.0</ele><time>2026-05-01T14:54:59.798Z</time></trkpt><trkpt lat="43.3774358" lon="13.1511198"><ele>327.0</ele><time>2026-05-01T14:55:00.797Z</time></trkpt><trkpt lat="43.3773466" lon="13.1512033"><ele>327.0</ele><time>2026-05-01T14:55:01.798Z</time></trkpt><trkpt lat="43.3772533" lon="13.1512794"><ele>327.0</ele><time>2026-05-01T14:55:02.798Z</time></trkpt><trkpt lat="43.3771589" lon="13.1513499"><ele>327.0</ele><time>2026-05-01T14:55:03.797Z</time></trkpt><trkpt lat="43.3770658" lon="13.1514314"><ele>327.0</ele><time>2026-05-01T14:55:04.797Z</time></trkpt><trkpt lat="43.3769718" lon="13.1515084"><ele>330.6</ele><time>2026-05-01T14:55:05.797Z</time></trkpt><trkpt lat="43.3768777" lon="13.151586"><ele>334.20000000000005</ele><time>2026-05-01T14:55:06.798Z</time></trkpt><trkpt lat="43.3767831" lon="13.1516616"><ele>337.8</ele><time>2026-05-01T14:55:07.798Z</time></trkpt><trkpt lat="43.3766889" lon="13.1517371"><ele>341.4</ele><time>2026-05-01T14:55:08.797Z</time></trkpt><trkpt lat="43.3765969" lon="13.1518136"><ele>345.0</ele><time>2026-05-01T14:55:09.798Z</time></trkpt><trkpt lat="43.3765017" lon="13.151891"><ele>345.0</ele><time>2026-05-01T14:55:10.797Z</time></trkpt><trkpt lat="43.3764089" lon="13.1519704"><ele>345.0</ele><time>2026-05-01T14:55:11.798Z</time></trkpt><trkpt lat="43.3763164" lon="13.1520455"><ele>345.0</ele><time>2026-05-01T14:55:12.798Z</time></trkpt><trkpt lat="43.3762186" lon="13.1521185"><ele>345.0</ele><time>2026-05-01T14:55:13.797Z</time></trkpt><trkpt lat="43.3761199" lon="13.152187"><ele>345.0</ele><time>2026-05-01T14:55:14.798Z</time></trkpt><trkpt lat="43.3760184" lon="13.1522564"><ele>348.4</ele><time>2026-05-01T14:55:15.797Z</time></trkpt><trkpt lat="43.3759233" lon="13.1523208"><ele>351.8</ele><time>2026-05-01T14:55:16.797Z</time></trkpt><trkpt lat="43.3758384" lon="13.1523783"><ele>355.20000000000005</ele><time>2026-05-01T14:55:17.798Z</time></trkpt><trkpt lat="43.3757547" lon="13.1524337"><ele>358.6</ele><time>2026-05-01T14:55:18.798Z</time></trkpt><trkpt lat="43.3756696" lon="13.1524894"><ele>362.0</ele><time>2026-05-01T14:55:19.797Z</time></trkpt><trkpt lat="43.3755655" lon="13.1525595"><ele>361.8</ele><time>2026-05-01T14:55:20.798Z</time></trkpt><trkpt lat="43.3754786" lon="13.1526166"><ele>361.6</ele><time>2026-05-01T14:55:21.797Z</time></trkpt><trkpt lat="43.3754073" lon="13.1526664"><ele>361.40000000000003</ele><time>2026-05-01T14:55:22.798Z</time></trkpt><trkpt lat="43.3753361" lon="13.1527162"><ele>361.20000000000005</ele><time>2026-05-01T14:55:23.798Z</time></trkpt><trkpt lat="43.3751996" lon="13.1528109"><ele>361.0</ele><time>2026-05-01T14:55:25.798Z</time></trkpt><trkpt lat="43.3751066" lon="13.1528742"><ele>361.0</ele><time>2026-05-01T14:55:27.798Z</time></trkpt><trkpt lat="43.3750054" lon="13.1529454"><ele>361.0</ele><time>2026-05-01T14:55:29.799Z</time></trkpt><trkpt lat="43.3749135" lon="13.1530106"><ele>361.0</ele><time>2026-05-01T14:55:31.798Z</time></trkpt><trkpt lat="43.3748218" lon="13.1530698"><ele>361.0</ele><time>2026-05-01T14:55:33.798Z</time></trkpt><trkpt lat="43.374746" lon="13.1531171"><ele>361.0</ele><time>2026-05-01T14:55:35.797Z</time></trkpt><trkpt lat="43.374684" lon="13.1531537"><ele>358.8333333333333</ele><time>2026-05-01T14:55:37.798Z</time></trkpt><trkpt lat="43.3746187" lon="13.1531962"><ele>356.66666666666663</ele><time>2026-05-01T14:55:39.797Z</time></trkpt><trkpt lat="43.3745516" lon="13.1532475"><ele>354.5</ele><time>2026-05-01T14:55:41.798Z</time></trkpt><trkpt lat="43.3744798" lon="13.1532933"><ele>352.3333333333333</ele><time>2026-05-01T14:55:43.798Z</time></trkpt><trkpt lat="43.3744103" lon="13.1533386"><ele>350.1666666666667</ele><time>2026-05-01T14:55:45.797Z</time></trkpt><trkpt lat="43.3743306" lon="13.1533856"><ele>348.0</ele><time>2026-05-01T14:55:47.797Z</time></trkpt><trkpt lat="43.3742355" lon="13.1534526"><ele>348.0</ele><time>2026-05-01T14:55:49.797Z</time></trkpt><trkpt lat="43.3741779" lon="13.1534928"><ele>348.0</ele><time>2026-05-01T14:55:50.798Z</time></trkpt><trkpt lat="43.3741106" lon="13.1535324"><ele>348.0</ele><time>2026-05-01T14:55:51.797Z</time></trkpt><trkpt lat="43.3740412" lon="13.153578"><ele>348.0</ele><time>2026-05-01T14:55:52.798Z</time></trkpt><trkpt lat="43.37397" lon="13.1536256"><ele>348.0</ele><time>2026-05-01T14:55:53.798Z</time></trkpt><trkpt lat="43.3738946" lon="13.1536696"><ele>348.0</ele><time>2026-05-01T14:55:54.798Z</time></trkpt><trkpt lat="43.3738209" lon="13.1537159"><ele>345.6666666666667</ele><time>2026-05-01T14:55:55.799Z</time></trkpt><trkpt lat="43.3737477" lon="13.1537628"><ele>343.3333333333333</ele><time>2026-05-01T14:55:56.798Z</time></trkpt><trkpt lat="43.3736741" lon="13.1538043"><ele>341.0</ele><time>2026-05-01T14:55:57.799Z</time></trkpt><trkpt lat="43.3736058" lon="13.153849"><ele>338.66666666666663</ele><time>2026-05-01T14:55:58.798Z</time></trkpt><trkpt lat="43.3735374" lon="13.1538978"><ele>336.3333333333333</ele><time>2026-05-01T14:55:59.797Z</time></trkpt><trkpt lat="43.3734633" lon="13.1539399"><ele>334.0</ele><time>2026-05-01T14:56:00.798Z</time></trkpt><trkpt lat="43.3733887" lon="13.1539866"><ele>334.0</ele><time>2026-05-01T14:56:01.798Z</time></trkpt><trkpt lat="43.3733078" lon="13.154034"><ele>334.0</ele><time>2026-05-01T14:56:02.798Z</time></trkpt><trkpt lat="43.3732221" lon="13.1540812"><ele>334.0</ele><time>2026-05-01T14:56:03.797Z</time></trkpt><trkpt lat="43.3731373" lon="13.1541202"><ele>334.0</ele><time>2026-05-01T14:56:04.797Z</time></trkpt><trkpt lat="43.373052" lon="13.154163"><ele>334.0</ele><time>2026-05-01T14:56:05.797Z</time></trkpt><trkpt lat="43.3729671" lon="13.1542059"><ele>332.6</ele><time>2026-05-01T14:56:06.798Z</time></trkpt><trkpt lat="43.3728791" lon="13.1542461"><ele>331.2</ele><time>2026-05-01T14:56:07.797Z</time></trkpt><trkpt lat="43.3727913" lon="13.1542806"><ele>329.8</ele><time>2026-05-01T14:56:08.797Z</time></trkpt><trkpt lat="43.372702" lon="13.1543153"><ele>328.40000000000003</ele><time>2026-05-01T14:56:09.799Z</time></trkpt><trkpt lat="43.3726081" lon="13.1543458"><ele>327.0</ele><time>2026-05-01T14:56:10.797Z</time></trkpt><trkpt lat="43.3725112" lon="13.1543723"><ele>327.0</ele><time>2026-05-01T14:56:11.798Z</time></trkpt><trkpt lat="43.3724169" lon="13.1543976"><ele>327.0</ele><time>2026-05-01T14:56:12.798Z</time></trkpt><trkpt lat="43.3723145" lon="13.1544142"><ele>327.0</ele><time>2026-05-01T14:56:13.799Z</time></trkpt><trkpt lat="43.3722071" lon="13.1544265"><ele>327.0</ele><time>2026-05-01T14:56:14.798Z</time></trkpt><trkpt lat="43.3720923" lon="13.154432"><ele>327.0</ele><time>2026-05-01T14:56:15.797Z</time></trkpt><trkpt lat="43.3719742" lon="13.1544301"><ele>327.25</ele><time>2026-05-01T14:56:16.797Z</time></trkpt><trkpt lat="43.3718501" lon="13.1544231"><ele>327.5</ele><time>2026-05-01T14:56:17.797Z</time></trkpt><trkpt lat="43.3717298" lon="13.1544163"><ele>327.75</ele><time>2026-05-01T14:56:18.798Z</time></trkpt><trkpt lat="43.3716117" lon="13.1544085"><ele>328.0</ele><time>2026-05-01T14:56:19.798Z</time></trkpt><trkpt lat="43.3714964" lon="13.1543989"><ele>328.0</ele><time>2026-05-01T14:56:20.797Z</time></trkpt><trkpt lat="43.3713829" lon="13.1543811"><ele>328.0</ele><time>2026-05-01T14:56:21.798Z</time></trkpt><trkpt lat="43.37127" lon="13.1543675"><ele>328.0</ele><time>2026-05-01T14:56:22.797Z</time></trkpt><trkpt lat="43.3711588" lon="13.1543519"><ele>328.0</ele><time>2026-05-01T14:56:23.798Z</time></trkpt><trkpt lat="43.3710501" lon="13.1543316"><ele>328.0</ele><time>2026-05-01T14:56:24.798Z</time></trkpt><trkpt lat="43.3709414" lon="13.1543178"><ele>330.5</ele><time>2026-05-01T14:56:25.798Z</time></trkpt><trkpt lat="43.3708317" lon="13.1543056"><ele>333.0</ele><time>2026-05-01T14:56:26.798Z</time></trkpt><trkpt lat="43.3707203" lon="13.1542915"><ele>335.5</ele><time>2026-05-01T14:56:27.797Z</time></trkpt><trkpt lat="43.3706065" lon="13.1542735"><ele>338.0</ele><time>2026-05-01T14:56:28.797Z</time></trkpt><trkpt lat="43.3704925" lon="13.1542586"><ele>341.25</ele><time>2026-05-01T14:56:29.797Z</time></trkpt><trkpt lat="43.3703771" lon="13.1542445"><ele>344.5</ele><time>2026-05-01T14:56:30.798Z</time></trkpt><trkpt lat="43.3702612" lon="13.1542313"><ele>347.75</ele><time>2026-05-01T14:56:31.799Z</time></trkpt><trkpt lat="43.3701447" lon="13.1542181"><ele>351.0</ele><time>2026-05-01T14:56:32.797Z</time></trkpt><trkpt lat="43.3700306" lon="13.1542024"><ele>351.0</ele><time>2026-05-01T14:56:33.798Z</time></trkpt><trkpt lat="43.3699176" lon="13.1541871"><ele>351.0</ele><time>2026-05-01T14:56:34.798Z</time></trkpt><trkpt lat="43.3698046" lon="13.1541738"><ele>351.0</ele><time>2026-05-01T14:56:35.798Z</time></trkpt><trkpt lat="43.3696921" lon="13.1541602"><ele>351.0</ele><time>2026-05-01T14:56:36.798Z</time></trkpt><trkpt lat="43.369589" lon="13.1541545"><ele>351.0</ele><time>2026-05-01T14:56:37.798Z</time></trkpt><trkpt lat="43.3694883" lon="13.1541463"><ele>353.0</ele><time>2026-05-01T14:56:38.798Z</time></trkpt><trkpt lat="43.3693971" lon="13.1541262"><ele>355.0</ele><time>2026-05-01T14:56:39.798Z</time></trkpt><trkpt lat="43.3693065" lon="13.1541167"><ele>357.0</ele><time>2026-05-01T14:56:40.798Z</time></trkpt><trkpt lat="43.3692252" lon="13.1541129"><ele>359.0</ele><time>2026-05-01T14:56:41.797Z</time></trkpt><trkpt lat="43.3691455" lon="13.1541027"><ele>361.0</ele><time>2026-05-01T14:56:42.797Z</time></trkpt><trkpt lat="43.3690725" lon="13.1540917"><ele>363.0</ele><time>2026-05-01T14:56:43.797Z</time></trkpt><trkpt lat="43.3690077" lon="13.1540823"><ele>363.0</ele><time>2026-05-01T14:56:44.797Z</time></trkpt><trkpt lat="43.3689052" lon="13.1540675"><ele>363.0</ele><time>2026-05-01T14:56:46.799Z</time></trkpt><trkpt lat="43.3689611" lon="13.1541173"><ele>363.0</ele><time>2026-05-01T14:56:55.797Z</time></trkpt><trkpt lat="43.3690485" lon="13.1541334"><ele>363.0</ele><time>2026-05-01T14:57:06.798Z</time></trkpt><trkpt lat="43.3691641" lon="13.1541234"><ele>363.0</ele><time>2026-05-01T14:57:08.798Z</time></trkpt><trkpt lat="43.3692743" lon="13.1541328"><ele>363.0</ele><time>2026-05-01T14:57:10.797Z</time></trkpt><trkpt lat="43.3693793" lon="13.1541498"><ele>363.0</ele><time>2026-05-01T14:57:12.797Z</time></trkpt><trkpt lat="43.3694447" lon="13.1541833"><ele>363.0</ele><time>2026-05-01T14:57:14.798Z</time></trkpt><trkpt lat="43.3694374" lon="13.1542909"><ele>363.0</ele><time>2026-05-01T14:57:17.798Z</time></trkpt><trkpt lat="43.369376" lon="13.1543178"><ele>363.0</ele><time>2026-05-01T14:57:19.798Z</time></trkpt><trkpt lat="43.3692939" lon="13.1543517"><ele>363.0</ele><time>2026-05-01T14:57:22.797Z</time></trkpt><trkpt lat="43.3693466" lon="13.1542977"><ele>363.0</ele><time>2026-05-01T15:02:11.796Z</time></trkpt><trkpt lat="43.3694146" lon="13.1543086"><ele>363.0</ele><time>2026-05-01T15:02:18.796Z</time></trkpt><trkpt lat="43.3694753" lon="13.1543379"><ele>363.0</ele><time>2026-05-01T15:02:25.796Z</time></trkpt><trkpt lat="43.3695371" lon="13.1543603"><ele>363.0</ele><time>2026-05-01T15:02:35.847Z</time></trkpt><trkpt lat="43.3694938" lon="13.154295"><ele>363.0</ele><time>2026-05-01T15:03:34.797Z</time></trkpt><trkpt lat="43.3695686" lon="13.1542971"><ele>363.0</ele><time>2026-05-01T15:05:23.797Z</time></trkpt><trkpt lat="43.3695058" lon="13.1542793"><ele>363.0</ele><time>2026-05-01T15:07:56.797Z</time></trkpt></trkseg><trkseg><trkpt lat="43.3693069" lon="13.1543008"><ele>363.0</ele><time>2026-05-01T15:54:01.797Z</time></trkpt><trkpt lat="43.3693992" lon="13.1543106"><ele>363.0</ele><time>2026-05-01T15:54:03.796Z</time></trkpt><trkpt lat="43.369467" lon="13.1542569"><ele>363.0</ele><time>2026-05-01T15:54:05.798Z</time></trkpt><trkpt lat="43.3695129" lon="13.1541943"><ele>363.0</ele><time>2026-05-01T15:54:08.796Z</time></trkpt><trkpt lat="43.36949" lon="13.1541031"><ele>363.0</ele><time>2026-05-01T15:54:16.797Z</time></trkpt><trkpt lat="43.3694145" lon="13.1541072"><ele>363.0</ele><time>2026-05-01T15:54:17.797Z</time></trkpt><trkpt lat="43.3693068" lon="13.1541069"><ele>362.99999999999994</ele><time>2026-05-01T15:54:19.796Z</time></trkpt><trkpt lat="43.3692417" lon="13.1541091"><ele>363.0</ele><time>2026-05-01T15:54:20.796Z</time></trkpt><trkpt lat="43.369171" lon="13.1541052"><ele>363.0</ele><time>2026-05-01T15:54:21.797Z</time></trkpt><trkpt lat="43.3691011" lon="13.1540965"><ele>363.0</ele><time>2026-05-01T15:54:22.797Z</time></trkpt><trkpt lat="43.3690302" lon="13.1540881"><ele>363.0</ele><time>2026-05-01T15:54:23.797Z</time></trkpt><trkpt lat="43.3689619" lon="13.1540838"><ele>362.99999999999994</ele><time>2026-05-01T15:54:24.798Z</time></trkpt><trkpt lat="43.3688877" lon="13.1540782"><ele>363.0</ele><time>2026-05-01T15:54:25.798Z</time></trkpt><trkpt lat="43.3688138" lon="13.1540692"><ele>365.1666666666667</ele><time>2026-05-01T15:54:26.796Z</time></trkpt><trkpt lat="43.3687376" lon="13.1540584"><ele>367.3333333333333</ele><time>2026-05-01T15:54:27.796Z</time></trkpt><trkpt lat="43.3686585" lon="13.1540501"><ele>369.5</ele><time>2026-05-01T15:54:28.796Z</time></trkpt><trkpt lat="43.3685812" lon="13.1540462"><ele>371.66666666666663</ele><time>2026-05-01T15:54:29.797Z</time></trkpt><trkpt lat="43.3685023" lon="13.1540382"><ele>373.8333333333333</ele><time>2026-05-01T15:54:30.797Z</time></trkpt><trkpt lat="43.3684177" lon="13.1540302"><ele>376.0</ele><time>2026-05-01T15:54:31.796Z</time></trkpt><trkpt lat="43.3683318" lon="13.1540111"><ele>378.4</ele><time>2026-05-01T15:54:32.797Z</time></trkpt><trkpt lat="43.3682386" lon="13.1539866"><ele>380.8</ele><time>2026-05-01T15:54:33.797Z</time></trkpt><trkpt lat="43.3681447" lon="13.153949"><ele>383.2</ele><time>2026-05-01T15:54:34.797Z</time></trkpt><trkpt lat="43.3680552" lon="13.1538995"><ele>385.59999999999997</ele><time>2026-05-01T15:54:35.797Z</time></trkpt><trkpt lat="43.3679671" lon="13.1538357"><ele>388.0</ele><time>2026-05-01T15:54:36.797Z</time></trkpt><trkpt lat="43.367887" lon="13.1537617"><ele>389.79999999999995</ele><time>2026-05-01T15:54:37.797Z</time></trkpt><trkpt lat="43.3678043" lon="13.153697"><ele>391.6</ele><time>2026-05-01T15:54:38.797Z</time></trkpt><trkpt lat="43.3677142" lon="13.1536487"><ele>393.4</ele><time>2026-05-01T15:54:39.797Z</time></trkpt><trkpt lat="43.3676253" lon="13.1536301"><ele>395.20000000000005</ele><time>2026-05-01T15:54:40.797Z</time></trkpt><trkpt lat="43.3675366" lon="13.1536439"><ele>397.0</ele><time>2026-05-01T15:54:41.796Z</time></trkpt><trkpt lat="43.3674484" lon="13.1536719"><ele>397.00000000000006</ele><time>2026-05-01T15:54:42.796Z</time></trkpt><trkpt lat="43.3673645" lon="13.1537113"><ele>397.0</ele><time>2026-05-01T15:54:43.796Z</time></trkpt><trkpt lat="43.3672779" lon="13.1537359"><ele>397.0</ele><time>2026-05-01T15:54:44.797Z</time></trkpt><trkpt lat="43.367188" lon="13.1537361"><ele>397.0</ele><time>2026-05-01T15:54:45.796Z</time></trkpt><trkpt lat="43.3671024" lon="13.1537033"><ele>397.00000000000006</ele><time>2026-05-01T15:54:46.797Z</time></trkpt><trkpt lat="43.3670274" lon="13.1536338"><ele>397.0</ele><time>2026-05-01T15:54:47.796Z</time></trkpt><trkpt lat="43.3669662" lon="13.1535352"><ele>397.8</ele><time>2026-05-01T15:54:48.796Z</time></trkpt><trkpt lat="43.3669098" lon="13.1534249"><ele>398.6</ele><time>2026-05-01T15:54:49.797Z</time></trkpt><trkpt lat="43.3668541" lon="13.1533033"><ele>399.40000000000003</ele><time>2026-05-01T15:54:50.797Z</time></trkpt><trkpt lat="43.3667951" lon="13.1531721"><ele>400.20000000000005</ele><time>2026-05-01T15:54:51.797Z</time></trkpt><trkpt lat="43.3667382" lon="13.153036"><ele>401.0</ele><time>2026-05-01T15:54:52.796Z</time></trkpt><trkpt lat="43.3666768" lon="13.1529053"><ele>401.0</ele><time>2026-05-01T15:54:53.796Z</time></trkpt><trkpt lat="43.3666082" lon="13.1527804"><ele>401.0</ele><time>2026-05-01T15:54:54.797Z</time></trkpt><trkpt lat="43.3665304" lon="13.1526649"><ele>401.0</ele><time>2026-05-01T15:54:55.797Z</time></trkpt><trkpt lat="43.366439" lon="13.1525724"><ele>401.0</ele><time>2026-05-01T15:54:56.797Z</time></trkpt><trkpt lat="43.3663405" lon="13.1525084"><ele>400.0</ele><time>2026-05-01T15:54:57.796Z</time></trkpt><trkpt lat="43.3662361" lon="13.1524612"><ele>399.0</ele><time>2026-05-01T15:54:58.797Z</time></trkpt><trkpt lat="43.3661295" lon="13.1524289"><ele>398.0</ele><time>2026-05-01T15:54:59.798Z</time></trkpt><trkpt lat="43.3660191" lon="13.1523922"><ele>397.0</ele><time>2026-05-01T15:55:00.796Z</time></trkpt><trkpt lat="43.3659048" lon="13.1523532"><ele>397.0</ele><time>2026-05-01T15:55:01.796Z</time></trkpt><trkpt lat="43.3657886" lon="13.152319"><ele>397.0</ele><time>2026-05-01T15:55:02.797Z</time></trkpt><trkpt lat="43.3656731" lon="13.1522831"><ele>397.0</ele><time>2026-05-01T15:55:03.796Z</time></trkpt><trkpt lat="43.3655604" lon="13.1522471"><ele>397.0</ele><time>2026-05-01T15:55:04.797Z</time></trkpt><trkpt lat="43.3654466" lon="13.1522"><ele>398.75</ele><time>2026-05-01T15:55:05.797Z</time></trkpt><trkpt lat="43.3653367" lon="13.1521473"><ele>400.5</ele><time>2026-05-01T15:55:06.796Z</time></trkpt><trkpt lat="43.3652287" lon="13.1520859"><ele>402.25</ele><time>2026-05-01T15:55:07.797Z</time></trkpt><trkpt lat="43.3651253" lon="13.1520159"><ele>404.0</ele><time>2026-05-01T15:55:08.796Z</time></trkpt><trkpt lat="43.3650296" lon="13.1519344"><ele>404.0</ele><time>2026-05-01T15:55:09.796Z</time></trkpt><trkpt lat="43.3649376" lon="13.1518434"><ele>404.0</ele><time>2026-05-01T15:55:10.797Z</time></trkpt><trkpt lat="43.3648518" lon="13.1517442"><ele>404.0</ele><time>2026-05-01T15:55:11.798Z</time></trkpt><trkpt lat="43.3647736" lon="13.1516367"><ele>404.0</ele><time>2026-05-01T15:55:12.797Z</time></trkpt><trkpt lat="43.3647066" lon="13.1515206"><ele>404.0</ele><time>2026-05-01T15:55:13.797Z</time></trkpt><trkpt lat="43.364648" lon="13.1513948"><ele>405.79999999999995</ele><time>2026-05-01T15:55:14.797Z</time></trkpt><trkpt lat="43.3645896" lon="13.1512638"><ele>407.59999999999997</ele><time>2026-05-01T15:55:15.797Z</time></trkpt><trkpt lat="43.3645187" lon="13.1511461"><ele>409.4</ele><time>2026-05-01T15:55:16.798Z</time></trkpt><trkpt lat="43.3644381" lon="13.1510517"><ele>411.2</ele><time>2026-05-01T15:55:17.796Z</time></trkpt><trkpt lat="43.3643473" lon="13.1509925"><ele>413.0</ele><time>2026-05-01T15:55:18.797Z</time></trkpt><trkpt lat="43.364248" lon="13.1509729"><ele>413.0</ele><time>2026-05-01T15:55:19.797Z</time></trkpt><trkpt lat="43.3641475" lon="13.15097"><ele>413.0</ele><time>2026-05-01T15:55:20.797Z</time></trkpt><trkpt lat="43.3640399" lon="13.1509751"><ele>413.0</ele><time>2026-05-01T15:55:21.796Z</time></trkpt><trkpt lat="43.3639295" lon="13.1509788"><ele>413.0</ele><time>2026-05-01T15:55:22.796Z</time></trkpt><trkpt lat="43.3638211" lon="13.1509791"><ele>413.0</ele><time>2026-05-01T15:55:23.797Z</time></trkpt><trkpt lat="43.3637163" lon="13.1509739"><ele>412.79999999999995</ele><time>2026-05-01T15:55:24.797Z</time></trkpt><trkpt lat="43.363608" lon="13.1509754"><ele>412.6</ele><time>2026-05-01T15:55:25.797Z</time></trkpt><trkpt lat="43.3635016" lon="13.1509734"><ele>412.4</ele><time>2026-05-01T15:55:26.796Z</time></trkpt><trkpt lat="43.3633956" lon="13.1509711"><ele>412.20000000000005</ele><time>2026-05-01T15:55:27.797Z</time></trkpt><trkpt lat="43.3632935" lon="13.150976"><ele>412.0</ele><time>2026-05-01T15:55:28.796Z</time></trkpt><trkpt lat="43.3631873" lon="13.1509836"><ele>412.0</ele><time>2026-05-01T15:55:29.798Z</time></trkpt><trkpt lat="43.3630791" lon="13.1509868"><ele>412.0</ele><time>2026-05-01T15:55:30.797Z</time></trkpt><trkpt lat="43.3629709" lon="13.1509888"><ele>412.0</ele><time>2026-05-01T15:55:31.796Z</time></trkpt><trkpt lat="43.3628628" lon="13.150994"><ele>412.0</ele><time>2026-05-01T15:55:32.797Z</time></trkpt><trkpt lat="43.3627585" lon="13.1510022"><ele>412.0</ele><time>2026-05-01T15:55:33.797Z</time></trkpt><trkpt lat="43.3626568" lon="13.1510173"><ele>411.8</ele><time>2026-05-01T15:55:34.797Z</time></trkpt><trkpt lat="43.3625585" lon="13.1510386"><ele>411.6</ele><time>2026-05-01T15:55:35.796Z</time></trkpt><trkpt lat="43.3624619" lon="13.1510656"><ele>411.40000000000003</ele><time>2026-05-01T15:55:36.797Z</time></trkpt><trkpt lat="43.3623643" lon="13.1510895"><ele>411.20000000000005</ele><time>2026-05-01T15:55:37.797Z</time></trkpt><trkpt lat="43.3622689" lon="13.1511132"><ele>411.0</ele><time>2026-05-01T15:55:38.796Z</time></trkpt><trkpt lat="43.3621732" lon="13.1511419"><ele>410.6</ele><time>2026-05-01T15:55:39.796Z</time></trkpt><trkpt lat="43.3620841" lon="13.1511733"><ele>410.20000000000005</ele><time>2026-05-01T15:55:40.797Z</time></trkpt><trkpt lat="43.3619923" lon="13.1512042"><ele>409.79999999999995</ele><time>2026-05-01T15:55:41.796Z</time></trkpt><trkpt lat="43.3619011" lon="13.1512341"><ele>409.4</ele><time>2026-05-01T15:55:42.797Z</time></trkpt><trkpt lat="43.3618048" lon="13.1512627"><ele>409.0</ele><time>2026-05-01T15:55:43.796Z</time></trkpt><trkpt lat="43.3617079" lon="13.1512919"><ele>409.0</ele><time>2026-05-01T15:55:44.796Z</time></trkpt><trkpt lat="43.361611" lon="13.1513199"><ele>409.0</ele><time>2026-05-01T15:55:45.796Z</time></trkpt><trkpt lat="43.361509" lon="13.1513488"><ele>409.0</ele><time>2026-05-01T15:55:46.796Z</time></trkpt><trkpt lat="43.3614091" lon="13.1513773"><ele>409.0</ele><time>2026-05-01T15:55:47.797Z</time></trkpt><trkpt lat="43.3613099" lon="13.1514141"><ele>409.0</ele><time>2026-05-01T15:55:48.797Z</time></trkpt><trkpt lat="43.3612092" lon="13.1514505"><ele>409.0</ele><time>2026-05-01T15:55:49.796Z</time></trkpt><trkpt lat="43.3611099" lon="13.1514857"><ele>409.0</ele><time>2026-05-01T15:55:50.796Z</time></trkpt><trkpt lat="43.3610183" lon="13.1515222"><ele>409.0</ele><time>2026-05-01T15:55:51.797Z</time></trkpt><trkpt lat="43.3609256" lon="13.1515542"><ele>409.0</ele><time>2026-05-01T15:55:52.796Z</time></trkpt><trkpt lat="43.3608333" lon="13.1515848"><ele>409.0</ele><time>2026-05-01T15:55:53.796Z</time></trkpt><trkpt lat="43.3607477" lon="13.1516032"><ele>409.00000000000006</ele><time>2026-05-01T15:55:54.796Z</time></trkpt><trkpt lat="43.3606607" lon="13.1516067"><ele>409.0</ele><time>2026-05-01T15:55:55.795Z</time></trkpt><trkpt lat="43.360576" lon="13.1516002"><ele>409.0</ele><time>2026-05-01T15:55:56.796Z</time></trkpt><trkpt lat="43.3604915" lon="13.1515808"><ele>409.0</ele><time>2026-05-01T15:55:57.796Z</time></trkpt><trkpt lat="43.3604075" lon="13.1515465"><ele>409.00000000000006</ele><time>2026-05-01T15:55:58.796Z</time></trkpt><trkpt lat="43.3603213" lon="13.1514974"><ele>409.0</ele><time>2026-05-01T15:55:59.796Z</time></trkpt><trkpt lat="43.360227" lon="13.1514406"><ele>409.2</ele><time>2026-05-01T15:56:00.795Z</time></trkpt><trkpt lat="43.3601355" lon="13.1513814"><ele>409.4</ele><time>2026-05-01T15:56:01.795Z</time></trkpt><trkpt lat="43.3600353" lon="13.1513232"><ele>409.6</ele><time>2026-05-01T15:56:02.795Z</time></trkpt><trkpt lat="43.3599342" lon="13.1512628"><ele>409.8</ele><time>2026-05-01T15:56:03.797Z</time></trkpt><trkpt lat="43.3598364" lon="13.151201"><ele>410.0</ele><time>2026-05-01T15:56:04.796Z</time></trkpt><trkpt lat="43.3597397" lon="13.1511341"><ele>410.5</ele><time>2026-05-01T15:56:05.796Z</time></trkpt><trkpt lat="43.359632" lon="13.1510702"><ele>411.0</ele><time>2026-05-01T15:56:06.796Z</time></trkpt><trkpt lat="43.359531" lon="13.1510016"><ele>411.5</ele><time>2026-05-01T15:56:07.796Z</time></trkpt><trkpt lat="43.3594281" lon="13.1509224"><ele>412.0</ele><time>2026-05-01T15:56:08.796Z</time></trkpt><trkpt lat="43.3593419" lon="13.1508288"><ele>412.0</ele><time>2026-05-01T15:56:09.795Z</time></trkpt><trkpt lat="43.3592634" lon="13.1507086"><ele>412.0</ele><time>2026-05-01T15:56:10.796Z</time></trkpt><trkpt lat="43.359195" lon="13.1505845"><ele>412.0</ele><time>2026-05-01T15:56:11.796Z</time></trkpt><trkpt lat="43.3591287" lon="13.150464"><ele>412.0</ele><time>2026-05-01T15:56:12.795Z</time></trkpt><trkpt lat="43.359063" lon="13.1503419"><ele>412.40000000000003</ele><time>2026-05-01T15:56:13.796Z</time></trkpt><trkpt lat="43.3589987" lon="13.1502218"><ele>412.8</ele><time>2026-05-01T15:56:14.795Z</time></trkpt><trkpt lat="43.3589307" lon="13.1501101"><ele>413.2</ele><time>2026-05-01T15:56:15.795Z</time></trkpt><trkpt lat="43.3588667" lon="13.1500011"><ele>413.6</ele><time>2026-05-01T15:56:16.795Z</time></trkpt><trkpt lat="43.3588049" lon="13.1498928"><ele>414.0</ele><time>2026-05-01T15:56:17.796Z</time></trkpt><trkpt lat="43.3587425" lon="13.1497852"><ele>414.0</ele><time>2026-05-01T15:56:18.796Z</time></trkpt><trkpt lat="43.3586814" lon="13.1496778"><ele>414.0</ele><time>2026-05-01T15:56:19.796Z</time></trkpt><trkpt lat="43.3586222" lon="13.1495799"><ele>414.0</ele><time>2026-05-01T15:56:20.796Z</time></trkpt><trkpt lat="43.3585574" lon="13.1494875"><ele>414.0</ele><time>2026-05-01T15:56:21.797Z</time></trkpt><trkpt lat="43.3584849" lon="13.1494019"><ele>414.0</ele><time>2026-05-01T15:56:22.795Z</time></trkpt><trkpt lat="43.3584026" lon="13.1493222"><ele>414.0</ele><time>2026-05-01T15:56:23.796Z</time></trkpt><trkpt lat="43.3583117" lon="13.149259"><ele>414.0</ele><time>2026-05-01T15:56:24.796Z</time></trkpt><trkpt lat="43.3582234" lon="13.1492077"><ele>414.0</ele><time>2026-05-01T15:56:25.796Z</time></trkpt><trkpt lat="43.3581347" lon="13.1491579"><ele>414.0</ele><time>2026-05-01T15:56:26.796Z</time></trkpt><trkpt lat="43.3580438" lon="13.1491128"><ele>414.0</ele><time>2026-05-01T15:56:27.796Z</time></trkpt><trkpt lat="43.3579523" lon="13.1490605"><ele>415.0</ele><time>2026-05-01T15:56:28.795Z</time></trkpt><trkpt lat="43.3578631" lon="13.1490201"><ele>416.0</ele><time>2026-05-01T15:56:29.795Z</time></trkpt><trkpt lat="43.3577713" lon="13.1489737"><ele>417.0</ele><time>2026-05-01T15:56:30.796Z</time></trkpt><trkpt lat="43.3576796" lon="13.1489218"><ele>418.0</ele><time>2026-05-01T15:56:31.796Z</time></trkpt><trkpt lat="43.3575892" lon="13.148854"><ele>419.0</ele><time>2026-05-01T15:56:32.796Z</time></trkpt><trkpt lat="43.3575048" lon="13.1487602"><ele>419.0</ele><time>2026-05-01T15:56:33.796Z</time></trkpt><trkpt lat="43.3574269" lon="13.1486528"><ele>419.0</ele><time>2026-05-01T15:56:34.796Z</time></trkpt><trkpt lat="43.3573519" lon="13.148542"><ele>419.0</ele><time>2026-05-01T15:56:35.796Z</time></trkpt><trkpt lat="43.3572806" lon="13.1484212"><ele>419.0</ele><time>2026-05-01T15:56:36.796Z</time></trkpt><trkpt lat="43.3572068" lon="13.1482965"><ele>420.25</ele><time>2026-05-01T15:56:37.797Z</time></trkpt><trkpt lat="43.3571353" lon="13.1481696"><ele>421.5</ele><time>2026-05-01T15:56:38.797Z</time></trkpt><trkpt lat="43.3570644" lon="13.1480396"><ele>422.75</ele><time>2026-05-01T15:56:39.796Z</time></trkpt><trkpt lat="43.3569932" lon="13.1479059"><ele>424.0</ele><time>2026-05-01T15:56:40.796Z</time></trkpt><trkpt lat="43.3569201" lon="13.1477654"><ele>424.0</ele><time>2026-05-01T15:56:41.796Z</time></trkpt><trkpt lat="43.3568535" lon="13.1476282"><ele>424.0</ele><time>2026-05-01T15:56:42.795Z</time></trkpt><trkpt lat="43.35678" lon="13.1474885"><ele>424.0</ele><time>2026-05-01T15:56:43.796Z</time></trkpt><trkpt lat="43.3567065" lon="13.1473516"><ele>424.0</ele><time>2026-05-01T15:56:44.795Z</time></trkpt><trkpt lat="43.3566272" lon="13.1472221"><ele>423.5</ele><time>2026-05-01T15:56:45.795Z</time></trkpt><trkpt lat="43.3565436" lon="13.1470993"><ele>423.0</ele><time>2026-05-01T15:56:46.796Z</time></trkpt><trkpt lat="43.3564519" lon="13.1469876"><ele>422.5</ele><time>2026-05-01T15:56:47.796Z</time></trkpt><trkpt lat="43.3563566" lon="13.1468861"><ele>422.0</ele><time>2026-05-01T15:56:48.796Z</time></trkpt><trkpt lat="43.3562639" lon="13.1467914"><ele>422.8</ele><time>2026-05-01T15:56:49.797Z</time></trkpt><trkpt lat="43.3561688" lon="13.146706"><ele>423.6</ele><time>2026-05-01T15:56:50.796Z</time></trkpt><trkpt lat="43.3560745" lon="13.1466275"><ele>424.40000000000003</ele><time>2026-05-01T15:56:51.796Z</time></trkpt><trkpt lat="43.3559763" lon="13.1465525"><ele>425.20000000000005</ele><time>2026-05-01T15:56:52.795Z</time></trkpt><trkpt lat="43.3558783" lon="13.1464858"><ele>426.0</ele><time>2026-05-01T15:56:53.795Z</time></trkpt><trkpt lat="43.3557815" lon="13.1464218"><ele>426.0</ele><time>2026-05-01T15:56:54.795Z</time></trkpt><trkpt lat="43.3556851" lon="13.1463617"><ele>426.0</ele><time>2026-05-01T15:56:55.795Z</time></trkpt><trkpt lat="43.3555884" lon="13.1463028"><ele>426.0</ele><time>2026-05-01T15:56:56.796Z</time></trkpt><trkpt lat="43.3554918" lon="13.1462417"><ele>426.0</ele><time>2026-05-01T15:56:57.796Z</time></trkpt><trkpt lat="43.3554" lon="13.1461792"><ele>426.0</ele><time>2026-05-01T15:56:58.795Z</time></trkpt><trkpt lat="43.3553073" lon="13.1461191"><ele>427.5</ele><time>2026-05-01T15:56:59.795Z</time></trkpt><trkpt lat="43.3552214" lon="13.1460607"><ele>429.0</ele><time>2026-05-01T15:57:00.796Z</time></trkpt><trkpt lat="43.3551438" lon="13.1460045"><ele>430.5</ele><time>2026-05-01T15:57:01.795Z</time></trkpt><trkpt lat="43.355074" lon="13.1459566"><ele>432.0</ele><time>2026-05-01T15:57:02.796Z</time></trkpt><trkpt lat="43.3550094" lon="13.1459021"><ele>433.5</ele><time>2026-05-01T15:57:03.796Z</time></trkpt><trkpt lat="43.3549421" lon="13.1458468"><ele>435.0</ele><time>2026-05-01T15:57:04.796Z</time></trkpt><trkpt lat="43.3548762" lon="13.1457848"><ele>435.0</ele><time>2026-05-01T15:57:05.796Z</time></trkpt><trkpt lat="43.35481" lon="13.1457213"><ele>435.0</ele><time>2026-05-01T15:57:06.795Z</time></trkpt><trkpt lat="43.3547486" lon="13.1456654"><ele>435.0</ele><time>2026-05-01T15:57:07.795Z</time></trkpt><trkpt lat="43.3546906" lon="13.1456143"><ele>435.0</ele><time>2026-05-01T15:57:08.795Z</time></trkpt><trkpt lat="43.3546368" lon="13.1455604"><ele>435.0</ele><time>2026-05-01T15:57:09.797Z</time></trkpt><trkpt lat="43.3545474" lon="13.1454745"><ele>435.0</ele><time>2026-05-01T15:57:11.795Z</time></trkpt><trkpt lat="43.3544531" lon="13.1453749"><ele>435.8</ele><time>2026-05-01T15:57:13.796Z</time></trkpt><trkpt lat="43.3543621" lon="13.1452714"><ele>436.6</ele><time>2026-05-01T15:57:15.795Z</time></trkpt><trkpt lat="43.3542704" lon="13.1451633"><ele>437.4</ele><time>2026-05-01T15:57:17.795Z</time></trkpt><trkpt lat="43.3541799" lon="13.1450627"><ele>438.2</ele><time>2026-05-01T15:57:19.796Z</time></trkpt><trkpt lat="43.3541306" lon="13.1450006"><ele>439.0</ele><time>2026-05-01T15:57:20.796Z</time></trkpt><trkpt lat="43.3540829" lon="13.14494"><ele>439.79999999999995</ele><time>2026-05-01T15:57:21.796Z</time></trkpt><trkpt lat="43.3539878" lon="13.1448254"><ele>440.59999999999997</ele><time>2026-05-01T15:57:23.796Z</time></trkpt><trkpt lat="43.3539377" lon="13.1447638"><ele>441.4</ele><time>2026-05-01T15:57:24.796Z</time></trkpt><trkpt lat="43.3538503" lon="13.1446579"><ele>442.2</ele><time>2026-05-01T15:57:26.795Z</time></trkpt><trkpt lat="43.3537476" lon="13.1445763"><ele>443.0</ele><time>2026-05-01T15:57:28.796Z</time></trkpt><trkpt lat="43.3536437" lon="13.1445185"><ele>442.99999999999994</ele><time>2026-05-01T15:57:30.796Z</time></trkpt><trkpt lat="43.3535277" lon="13.1444836"><ele>443.0</ele><time>2026-05-01T15:57:32.796Z</time></trkpt><trkpt lat="43.3534459" lon="13.1444694"><ele>443.0</ele><time>2026-05-01T15:57:34.795Z</time></trkpt><trkpt lat="43.3533736" lon="13.1444606"><ele>443.0</ele><time>2026-05-01T15:57:36.796Z</time></trkpt><trkpt lat="43.3532953" lon="13.1444585"><ele>442.99999999999994</ele><time>2026-05-01T15:57:38.796Z</time></trkpt><trkpt lat="43.3532078" lon="13.1444459"><ele>443.0</ele><time>2026-05-01T15:57:40.796Z</time></trkpt><trkpt lat="43.3531058" lon="13.1444214"><ele>445.0</ele><time>2026-05-01T15:57:42.797Z</time></trkpt><trkpt lat="43.3530025" lon="13.1444006"><ele>446.99999999999994</ele><time>2026-05-01T15:57:44.796Z</time></trkpt><trkpt lat="43.3528967" lon="13.1443899"><ele>448.99999999999994</ele><time>2026-05-01T15:57:46.796Z</time></trkpt><trkpt lat="43.3528004" lon="13.1443916"><ele>451.0</ele><time>2026-05-01T15:57:48.795Z</time></trkpt><trkpt lat="43.3527028" lon="13.1443902"><ele>453.0</ele><time>2026-05-01T15:57:50.795Z</time></trkpt><trkpt lat="43.3526046" lon="13.144382"><ele>453.0</ele><time>2026-05-01T15:57:52.796Z</time></trkpt><trkpt lat="43.3525055" lon="13.1443699"><ele>452.99999999999994</ele><time>2026-05-01T15:57:54.795Z</time></trkpt><trkpt lat="43.3524083" lon="13.1443611"><ele>452.99999999999994</ele><time>2026-05-01T15:57:56.795Z</time></trkpt><trkpt lat="43.3523529" lon="13.1444373"><ele>453.0</ele><time>2026-05-01T15:57:58.796Z</time></trkpt><trkpt lat="43.3523637" lon="13.1445726"><ele>453.0</ele><time>2026-05-01T15:58:00.796Z</time></trkpt><trkpt lat="43.352368" lon="13.1447101"><ele>453.0</ele><time>2026-05-01T15:58:02.796Z</time></trkpt><trkpt lat="43.3523552" lon="13.1448363"><ele>452.99999999999994</ele><time>2026-05-01T15:58:04.796Z</time></trkpt><trkpt lat="43.3523295" lon="13.1449625"><ele>452.99999999999994</ele><time>2026-05-01T15:58:06.796Z</time></trkpt><trkpt lat="43.3523089" lon="13.1450976"><ele>453.0</ele><time>2026-05-01T15:58:08.796Z</time></trkpt><trkpt lat="43.3522717" lon="13.1452584"><ele>453.0</ele><time>2026-05-01T15:58:10.796Z</time></trkpt><trkpt lat="43.352245" lon="13.1453448"><ele>452.59999999999997</ele><time>2026-05-01T15:58:11.796Z</time></trkpt><trkpt lat="43.35222" lon="13.1454323"><ele>452.19999999999993</ele><time>2026-05-01T15:58:12.795Z</time></trkpt><trkpt lat="43.3521948" lon="13.1455204"><ele>451.8</ele><time>2026-05-01T15:58:13.795Z</time></trkpt><trkpt lat="43.3521714" lon="13.1456039"><ele>451.4</ele><time>2026-05-01T15:58:14.796Z</time></trkpt><trkpt lat="43.3521268" lon="13.1457613"><ele>451.0</ele><time>2026-05-01T15:58:16.797Z</time></trkpt><trkpt lat="43.3520961" lon="13.1459301"><ele>449.00000000000006</ele><time>2026-05-01T15:58:18.795Z</time></trkpt><trkpt lat="43.3520781" lon="13.1460213"><ele>447.0</ele><time>2026-05-01T15:58:19.796Z</time></trkpt><trkpt lat="43.3520619" lon="13.1461194"><ele>445.0</ele><time>2026-05-01T15:58:20.796Z</time></trkpt><trkpt lat="43.3520489" lon="13.1462269"><ele>443.0</ele><time>2026-05-01T15:58:21.796Z</time></trkpt><trkpt lat="43.3520385" lon="13.1463382"><ele>441.00000000000006</ele><time>2026-05-01T15:58:22.797Z</time></trkpt><trkpt lat="43.3520365" lon="13.1464496"><ele>439.0</ele><time>2026-05-01T15:58:23.796Z</time></trkpt><trkpt lat="43.3520433" lon="13.1465596"><ele>438.85714285714283</ele><time>2026-05-01T15:58:24.796Z</time></trkpt><trkpt lat="43.3520621" lon="13.146658"><ele>438.71428571428567</ele><time>2026-05-01T15:58:25.795Z</time></trkpt><trkpt lat="43.3520892" lon="13.1467499"><ele>438.57142857142856</ele><time>2026-05-01T15:58:26.795Z</time></trkpt><trkpt lat="43.352131" lon="13.1468358"><ele>438.42857142857144</ele><time>2026-05-01T15:58:27.795Z</time></trkpt><trkpt lat="43.3521791" lon="13.1469118"><ele>438.2857142857143</ele><time>2026-05-01T15:58:28.795Z</time></trkpt><trkpt lat="43.3522282" lon="13.1469835"><ele>438.14285714285717</ele><time>2026-05-01T15:58:29.797Z</time></trkpt><trkpt lat="43.3522818" lon="13.1470522"><ele>438.0</ele><time>2026-05-01T15:58:30.795Z</time></trkpt><trkpt lat="43.3523333" lon="13.147125"><ele>438.0</ele><time>2026-05-01T15:58:31.796Z</time></trkpt><trkpt lat="43.3523839" lon="13.1471978"><ele>438.0</ele><time>2026-05-01T15:58:32.796Z</time></trkpt><trkpt lat="43.3524334" lon="13.1472713"><ele>438.0</ele><time>2026-05-01T15:58:33.795Z</time></trkpt><trkpt lat="43.3524803" lon="13.1473452"><ele>438.0</ele><time>2026-05-01T15:58:34.796Z</time></trkpt><trkpt lat="43.3525261" lon="13.1474275"><ele>438.0</ele><time>2026-05-01T15:58:35.795Z</time></trkpt><trkpt lat="43.3525655" lon="13.1475213"><ele>438.0</ele><time>2026-05-01T15:58:36.796Z</time></trkpt><trkpt lat="43.3525921" lon="13.1476236"><ele>436.5</ele><time>2026-05-01T15:58:37.795Z</time></trkpt><trkpt lat="43.3525921" lon="13.1477291"><ele>435.0</ele><time>2026-05-01T15:58:38.795Z</time></trkpt><trkpt lat="43.3525688" lon="13.147824"><ele>433.5</ele><time>2026-05-01T15:58:39.796Z</time></trkpt><trkpt lat="43.352529" lon="13.1479064"><ele>432.0</ele><time>2026-05-01T15:58:40.796Z</time></trkpt><trkpt lat="43.3524736" lon="13.147977"><ele>430.5</ele><time>2026-05-01T15:58:41.795Z</time></trkpt><trkpt lat="43.3524067" lon="13.1480426"><ele>429.0</ele><time>2026-05-01T15:58:42.797Z</time></trkpt><trkpt lat="43.3523368" lon="13.1481109"><ele>429.0</ele><time>2026-05-01T15:58:43.795Z</time></trkpt><trkpt lat="43.3522679" lon="13.1481754"><ele>429.0</ele><time>2026-05-01T15:58:44.796Z</time></trkpt><trkpt lat="43.3522027" lon="13.148247"><ele>429.0</ele><time>2026-05-01T15:58:45.796Z</time></trkpt><trkpt lat="43.3521378" lon="13.1483217"><ele>429.0</ele><time>2026-05-01T15:58:46.796Z</time></trkpt><trkpt lat="43.3520767" lon="13.1483961"><ele>429.0</ele><time>2026-05-01T15:58:47.797Z</time></trkpt><trkpt lat="43.3520135" lon="13.148472"><ele>429.0</ele><time>2026-05-01T15:58:48.795Z</time></trkpt><trkpt lat="43.3519512" lon="13.1485473"><ele>427.42857142857144</ele><time>2026-05-01T15:58:49.796Z</time></trkpt><trkpt lat="43.3518911" lon="13.1486189"><ele>425.8571428571429</ele><time>2026-05-01T15:58:50.797Z</time></trkpt><trkpt lat="43.3518369" lon="13.1486934"><ele>424.2857142857143</ele><time>2026-05-01T15:58:51.795Z</time></trkpt><trkpt lat="43.3517849" lon="13.1487744"><ele>422.7142857142857</ele><time>2026-05-01T15:58:52.796Z</time></trkpt><trkpt lat="43.3517345" lon="13.1488519"><ele>421.1428571428571</ele><time>2026-05-01T15:58:53.795Z</time></trkpt><trkpt lat="43.35169" lon="13.1489304"><ele>419.57142857142856</ele><time>2026-05-01T15:58:54.796Z</time></trkpt><trkpt lat="43.3516515" lon="13.1490047"><ele>418.0</ele><time>2026-05-01T15:58:55.796Z</time></trkpt><trkpt lat="43.3516006" lon="13.149139"><ele>418.0</ele><time>2026-05-01T15:58:57.795Z</time></trkpt><trkpt lat="43.351536" lon="13.1492178"><ele>418.0</ele><time>2026-05-01T15:58:59.796Z</time></trkpt><trkpt lat="43.3514691" lon="13.149158"><ele>418.0</ele><time>2026-05-01T15:59:01.795Z</time></trkpt><trkpt lat="43.3514568" lon="13.1490209"><ele>418.0</ele><time>2026-05-01T15:59:03.795Z</time></trkpt><trkpt lat="43.3514512" lon="13.1488604"><ele>418.0</ele><time>2026-05-01T15:59:05.796Z</time></trkpt><trkpt lat="43.3514441" lon="13.1486816"><ele>417.7142857142857</ele><time>2026-05-01T15:59:07.795Z</time></trkpt><trkpt lat="43.3514376" lon="13.1485835"><ele>417.42857142857144</ele><time>2026-05-01T15:59:08.795Z</time></trkpt><trkpt lat="43.3514219" lon="13.1484934"><ele>417.1428571428571</ele><time>2026-05-01T15:59:09.795Z</time></trkpt><trkpt lat="43.3513912" lon="13.1484122"><ele>416.8571428571429</ele><time>2026-05-01T15:59:10.796Z</time></trkpt><trkpt lat="43.3513395" lon="13.1483494"><ele>416.5714285714286</ele><time>2026-05-01T15:59:11.797Z</time></trkpt><trkpt lat="43.3512774" lon="13.1482994"><ele>416.2857142857143</ele><time>2026-05-01T15:59:12.795Z</time></trkpt><trkpt lat="43.3512107" lon="13.1482488"><ele>416.0</ele><time>2026-05-01T15:59:13.795Z</time></trkpt><trkpt lat="43.3511465" lon="13.1482027"><ele>414.8333333333333</ele><time>2026-05-01T15:59:14.796Z</time></trkpt><trkpt lat="43.3510809" lon="13.1481608"><ele>413.66666666666663</ele><time>2026-05-01T15:59:15.796Z</time></trkpt><trkpt lat="43.3510145" lon="13.1481189"><ele>412.5</ele><time>2026-05-01T15:59:16.796Z</time></trkpt><trkpt lat="43.350944" lon="13.1480814"><ele>411.33333333333337</ele><time>2026-05-01T15:59:17.796Z</time></trkpt><trkpt lat="43.3508775" lon="13.1480431"><ele>410.1666666666667</ele><time>2026-05-01T15:59:18.796Z</time></trkpt><trkpt lat="43.3508174" lon="13.1480074"><ele>409.0</ele><time>2026-05-01T15:59:19.796Z</time></trkpt><trkpt lat="43.3507039" lon="13.1479693"><ele>409.00000000000006</ele><time>2026-05-01T15:59:21.796Z</time></trkpt><trkpt lat="43.3506121" lon="13.1480621"><ele>409.0</ele><time>2026-05-01T15:59:23.796Z</time></trkpt><trkpt lat="43.3505972" lon="13.1481472"><ele>409.0</ele><time>2026-05-01T15:59:24.796Z</time></trkpt><trkpt lat="43.350603" lon="13.1482528"><ele>409.0</ele><time>2026-05-01T15:59:25.796Z</time></trkpt><trkpt lat="43.3506144" lon="13.1483548"><ele>409.00000000000006</ele><time>2026-05-01T15:59:26.795Z</time></trkpt><trkpt lat="43.3506322" lon="13.1484607"><ele>409.0</ele><time>2026-05-01T15:59:27.795Z</time></trkpt><trkpt lat="43.3506517" lon="13.1485682"><ele>408.00000000000006</ele><time>2026-05-01T15:59:28.796Z</time></trkpt><trkpt lat="43.3506735" lon="13.1486808"><ele>407.0</ele><time>2026-05-01T15:59:29.795Z</time></trkpt><trkpt lat="43.3506888" lon="13.1487963"><ele>406.0</ele><time>2026-05-01T15:59:30.796Z</time></trkpt><trkpt lat="43.3506971" lon="13.1489148"><ele>405.0</ele><time>2026-05-01T15:59:31.795Z</time></trkpt><trkpt lat="43.3506952" lon="13.1490306"><ele>404.00000000000006</ele><time>2026-05-01T15:59:32.795Z</time></trkpt><trkpt lat="43.3506878" lon="13.1491472"><ele>403.0</ele><time>2026-05-01T15:59:33.796Z</time></trkpt><trkpt lat="43.350674" lon="13.1492641"><ele>402.00000000000006</ele><time>2026-05-01T15:59:34.796Z</time></trkpt><trkpt lat="43.3506616" lon="13.1493735"><ele>401.0</ele><time>2026-05-01T15:59:35.797Z</time></trkpt><trkpt lat="43.350653" lon="13.1494875"><ele>400.0</ele><time>2026-05-01T15:59:36.795Z</time></trkpt><trkpt lat="43.3506444" lon="13.1496089"><ele>399.0</ele><time>2026-05-01T15:59:37.796Z</time></trkpt><trkpt lat="43.3506353" lon="13.1497303"><ele>398.00000000000006</ele><time>2026-05-01T15:59:38.795Z</time></trkpt><trkpt lat="43.3506301" lon="13.1498515"><ele>397.0</ele><time>2026-05-01T15:59:39.795Z</time></trkpt><trkpt lat="43.3506291" lon="13.1499741"><ele>396.6666666666667</ele><time>2026-05-01T15:59:40.795Z</time></trkpt><trkpt lat="43.3506333" lon="13.1500959"><ele>396.33333333333337</ele><time>2026-05-01T15:59:41.796Z</time></trkpt><trkpt lat="43.3506368" lon="13.1502121"><ele>396.0</ele><time>2026-05-01T15:59:42.795Z</time></trkpt><trkpt lat="43.3506442" lon="13.150327"><ele>395.66666666666663</ele><time>2026-05-01T15:59:43.795Z</time></trkpt><trkpt lat="43.3506326" lon="13.1504407"><ele>395.3333333333333</ele><time>2026-05-01T15:59:44.796Z</time></trkpt><trkpt lat="43.3506118" lon="13.1505576"><ele>395.0</ele><time>2026-05-01T15:59:45.796Z</time></trkpt><trkpt lat="43.3505373" lon="13.1506607"><ele>391.8</ele><time>2026-05-01T15:59:46.796Z</time></trkpt><trkpt lat="43.350454" lon="13.1507483"><ele>388.6</ele><time>2026-05-01T15:59:47.795Z</time></trkpt><trkpt lat="43.3503565" lon="13.15082"><ele>385.4</ele><time>2026-05-01T15:59:48.796Z</time></trkpt><trkpt lat="43.3502718" lon="13.1509012"><ele>382.2</ele><time>2026-05-01T15:59:49.796Z</time></trkpt><trkpt lat="43.3501914" lon="13.1509696"><ele>379.0</ele><time>2026-05-01T15:59:50.796Z</time></trkpt><trkpt lat="43.3501065" lon="13.1510359"><ele>379.0</ele><time>2026-05-01T15:59:51.796Z</time></trkpt><trkpt lat="43.3500296" lon="13.1511033"><ele>379.0</ele><time>2026-05-01T15:59:52.796Z</time></trkpt><trkpt lat="43.3499511" lon="13.1511727"><ele>379.0</ele><time>2026-05-01T15:59:53.795Z</time></trkpt><trkpt lat="43.349872" lon="13.1512445"><ele>379.0</ele><time>2026-05-01T15:59:54.797Z</time></trkpt><trkpt lat="43.3498064" lon="13.1513214"><ele>379.0</ele><time>2026-05-01T15:59:55.796Z</time></trkpt><trkpt lat="43.3497619" lon="13.1514144"><ele>379.0</ele><time>2026-05-01T15:59:56.796Z</time></trkpt><trkpt lat="43.3497402" lon="13.1515236"><ele>379.0</ele><time>2026-05-01T15:59:57.796Z</time></trkpt><trkpt lat="43.349737" lon="13.1516364"><ele>379.0</ele><time>2026-05-01T15:59:58.795Z</time></trkpt><trkpt lat="43.3497465" lon="13.1517543"><ele>379.0</ele><time>2026-05-01T15:59:59.796Z</time></trkpt><trkpt lat="43.3497619" lon="13.1518692"><ele>379.0</ele><time>2026-05-01T16:00:00.795Z</time></trkpt><trkpt lat="43.3497876" lon="13.1519777"><ele>379.0</ele><time>2026-05-01T16:00:01.796Z</time></trkpt><trkpt lat="43.3498167" lon="13.1520823"><ele>379.0</ele><time>2026-05-01T16:00:02.796Z</time></trkpt><trkpt lat="43.3498499" lon="13.1521787"><ele>379.0</ele><time>2026-05-01T16:00:03.796Z</time></trkpt><trkpt lat="43.3498839" lon="13.1522778"><ele>379.0</ele><time>2026-05-01T16:00:04.795Z</time></trkpt><trkpt lat="43.3499117" lon="13.1523832"><ele>379.0</ele><time>2026-05-01T16:00:05.796Z</time></trkpt><trkpt lat="43.3499238" lon="13.1524949"><ele>379.0</ele><time>2026-05-01T16:00:06.795Z</time></trkpt><trkpt lat="43.3499138" lon="13.1526161"><ele>379.0</ele><time>2026-05-01T16:00:07.796Z</time></trkpt><trkpt lat="43.349887" lon="13.1527372"><ele>379.0</ele><time>2026-05-01T16:00:08.796Z</time></trkpt><trkpt lat="43.3498494" lon="13.1528516"><ele>378.0</ele><time>2026-05-01T16:00:09.796Z</time></trkpt><trkpt lat="43.3498122" lon="13.1529618"><ele>377.0</ele><time>2026-05-01T16:00:10.795Z</time></trkpt><trkpt lat="43.3497864" lon="13.153082"><ele>376.0</ele><time>2026-05-01T16:00:11.796Z</time></trkpt><trkpt lat="43.3497803" lon="13.153197"><ele>375.0</ele><time>2026-05-01T16:00:12.796Z</time></trkpt><trkpt lat="43.3498017" lon="13.1533067"><ele>374.0</ele><time>2026-05-01T16:00:13.796Z</time></trkpt><trkpt lat="43.3498475" lon="13.1533954"><ele>373.0</ele><time>2026-05-01T16:00:14.795Z</time></trkpt><trkpt lat="43.3499199" lon="13.153447"><ele>370.8333333333333</ele><time>2026-05-01T16:00:15.797Z</time></trkpt><trkpt lat="43.3499967" lon="13.1534527"><ele>368.66666666666663</ele><time>2026-05-01T16:00:16.796Z</time></trkpt><trkpt lat="43.3500763" lon="13.1534391"><ele>366.5</ele><time>2026-05-01T16:00:17.796Z</time></trkpt><trkpt lat="43.3501528" lon="13.1534208"><ele>364.3333333333333</ele><time>2026-05-01T16:00:18.795Z</time></trkpt><trkpt lat="43.3502268" lon="13.1534018"><ele>362.1666666666667</ele><time>2026-05-01T16:00:19.795Z</time></trkpt><trkpt lat="43.3503008" lon="13.15339"><ele>360.0</ele><time>2026-05-01T16:00:20.796Z</time></trkpt><trkpt lat="43.3503694" lon="13.1533882"><ele>360.0</ele><time>2026-05-01T16:00:21.795Z</time></trkpt><trkpt lat="43.3504342" lon="13.1533948"><ele>360.0</ele><time>2026-05-01T16:00:22.795Z</time></trkpt><trkpt lat="43.3505439" lon="13.1534678"><ele>360.0</ele><time>2026-05-01T16:00:24.796Z</time></trkpt><trkpt lat="43.3505899" lon="13.1536188"><ele>360.0</ele><time>2026-05-01T16:00:26.795Z</time></trkpt><trkpt lat="43.3505773" lon="13.1537063"><ele>360.0</ele><time>2026-05-01T16:00:27.795Z</time></trkpt><trkpt lat="43.3505355" lon="13.1537845"><ele>360.0</ele><time>2026-05-01T16:00:28.796Z</time></trkpt><trkpt lat="43.3504739" lon="13.1538476"><ele>360.0</ele><time>2026-05-01T16:00:29.796Z</time></trkpt><trkpt lat="43.3504016" lon="13.1538893"><ele>360.0</ele><time>2026-05-01T16:00:30.796Z</time></trkpt><trkpt lat="43.3503201" lon="13.15391"><ele>360.0</ele><time>2026-05-01T16:00:31.796Z</time></trkpt><trkpt lat="43.350234" lon="13.1539173"><ele>360.0</ele><time>2026-05-01T16:00:32.796Z</time></trkpt><trkpt lat="43.3501407" lon="13.15392"><ele>360.0</ele><time>2026-05-01T16:00:33.796Z</time></trkpt><trkpt lat="43.3500485" lon="13.1539289"><ele>360.0</ele><time>2026-05-01T16:00:34.796Z</time></trkpt><trkpt lat="43.3499565" lon="13.153959"><ele>360.0</ele><time>2026-05-01T16:00:35.796Z</time></trkpt><trkpt lat="43.3498634" lon="13.1539944"><ele>360.0</ele><time>2026-05-01T16:00:36.797Z</time></trkpt><trkpt lat="43.3497706" lon="13.1540393"><ele>360.0</ele><time>2026-05-01T16:00:37.795Z</time></trkpt><trkpt lat="43.3496759" lon="13.1540944"><ele>360.0</ele><time>2026-05-01T16:00:38.797Z</time></trkpt><trkpt lat="43.3495867" lon="13.1541647"><ele>360.0</ele><time>2026-05-01T16:00:39.795Z</time></trkpt><trkpt lat="43.349504" lon="13.1542424"><ele>356.6</ele><time>2026-05-01T16:00:40.795Z</time></trkpt><trkpt lat="43.3494263" lon="13.1543379"><ele>353.2</ele><time>2026-05-01T16:00:41.795Z</time></trkpt><trkpt lat="43.3493551" lon="13.1544386"><ele>349.79999999999995</ele><time>2026-05-01T16:00:42.795Z</time></trkpt><trkpt lat="43.3492971" lon="13.1545451"><ele>346.4</ele><time>2026-05-01T16:00:43.796Z</time></trkpt><trkpt lat="43.3492499" lon="13.1546548"><ele>343.0</ele><time>2026-05-01T16:00:44.796Z</time></trkpt><trkpt lat="43.3492096" lon="13.1547711"><ele>341.4</ele><time>2026-05-01T16:00:45.797Z</time></trkpt><trkpt lat="43.3491769" lon="13.1548887"><ele>339.79999999999995</ele><time>2026-05-01T16:00:46.796Z</time></trkpt><trkpt lat="43.3491468" lon="13.1550091"><ele>338.2</ele><time>2026-05-01T16:00:47.796Z</time></trkpt><trkpt lat="43.3491133" lon="13.1551376"><ele>336.6</ele><time>2026-05-01T16:00:48.795Z</time></trkpt><trkpt lat="43.349076" lon="13.1552725"><ele>335.0</ele><time>2026-05-01T16:00:49.797Z</time></trkpt><trkpt lat="43.3490378" lon="13.155409"><ele>335.0</ele><time>2026-05-01T16:00:50.796Z</time></trkpt><trkpt lat="43.3490024" lon="13.155549"><ele>335.0</ele><time>2026-05-01T16:00:51.795Z</time></trkpt><trkpt lat="43.348964" lon="13.1556919"><ele>335.0</ele><time>2026-05-01T16:00:52.795Z</time></trkpt><trkpt lat="43.3489267" lon="13.1558295"><ele>335.0</ele><time>2026-05-01T16:00:53.796Z</time></trkpt><trkpt lat="43.3488907" lon="13.1559654"><ele>335.0</ele><time>2026-05-01T16:00:54.795Z</time></trkpt><trkpt lat="43.348864" lon="13.1561081"><ele>334.5</ele><time>2026-05-01T16:00:55.795Z</time></trkpt><trkpt lat="43.3488421" lon="13.1562612"><ele>334.0</ele><time>2026-05-01T16:00:56.795Z</time></trkpt><trkpt lat="43.3488271" lon="13.1564177"><ele>333.5</ele><time>2026-05-01T16:00:57.795Z</time></trkpt><trkpt lat="43.3488182" lon="13.1565746"><ele>333.0</ele><time>2026-05-01T16:00:58.796Z</time></trkpt><trkpt lat="43.348818" lon="13.1567286"><ele>333.0</ele><time>2026-05-01T16:00:59.795Z</time></trkpt><trkpt lat="43.3488254" lon="13.1568789"><ele>333.0</ele><time>2026-05-01T16:01:00.796Z</time></trkpt><trkpt lat="43.3488416" lon="13.1570302"><ele>333.0</ele><time>2026-05-01T16:01:01.795Z</time></trkpt><trkpt lat="43.348862" lon="13.1571735"><ele>333.0</ele><time>2026-05-01T16:01:02.795Z</time></trkpt><trkpt lat="43.348887" lon="13.1573111"><ele>333.0</ele><time>2026-05-01T16:01:03.795Z</time></trkpt><trkpt lat="43.3489183" lon="13.1574472"><ele>334.79999999999995</ele><time>2026-05-01T16:01:04.796Z</time></trkpt><trkpt lat="43.3489528" lon="13.1575768"><ele>336.6</ele><time>2026-05-01T16:01:05.796Z</time></trkpt><trkpt lat="43.3489903" lon="13.1577122"><ele>338.4</ele><time>2026-05-01T16:01:06.796Z</time></trkpt><trkpt lat="43.3490255" lon="13.1578511"><ele>340.20000000000005</ele><time>2026-05-01T16:01:07.795Z</time></trkpt><trkpt lat="43.3490493" lon="13.1579912"><ele>342.0</ele><time>2026-05-01T16:01:08.796Z</time></trkpt><trkpt lat="43.3490574" lon="13.1581329"><ele>343.0</ele><time>2026-05-01T16:01:09.796Z</time></trkpt><trkpt lat="43.3490408" lon="13.158272"><ele>344.0</ele><time>2026-05-01T16:01:10.796Z</time></trkpt><trkpt lat="43.3489986" lon="13.1583955"><ele>345.0</ele><time>2026-05-01T16:01:11.795Z</time></trkpt><trkpt lat="43.3489389" lon="13.158504"><ele>346.0</ele><time>2026-05-01T16:01:12.795Z</time></trkpt><trkpt lat="43.3488591" lon="13.1585895"><ele>347.0</ele><time>2026-05-01T16:01:13.795Z</time></trkpt><trkpt lat="43.348783" lon="13.1586408"><ele>347.0</ele><time>2026-05-01T16:01:14.796Z</time></trkpt><trkpt lat="43.3487126" lon="13.1586775"><ele>347.0</ele><time>2026-05-01T16:01:15.795Z</time></trkpt><trkpt lat="43.3486416" lon="13.1587046"><ele>347.0</ele><time>2026-05-01T16:01:16.796Z</time></trkpt><trkpt lat="43.3485825" lon="13.1587476"><ele>347.0</ele><time>2026-05-01T16:01:17.796Z</time></trkpt><trkpt lat="43.3484941" lon="13.1588464"><ele>347.0</ele><time>2026-05-01T16:01:19.797Z</time></trkpt><trkpt lat="43.3484385" lon="13.1588871"><ele>347.0</ele><time>2026-05-01T16:01:20.796Z</time></trkpt><trkpt lat="43.3483707" lon="13.158917"><ele>347.0</ele><time>2026-05-01T16:01:21.795Z</time></trkpt><trkpt lat="43.3482968" lon="13.1589305"><ele>347.0</ele><time>2026-05-01T16:01:22.797Z</time></trkpt><trkpt lat="43.3482225" lon="13.1589465"><ele>347.0</ele><time>2026-05-01T16:01:23.795Z</time></trkpt><trkpt lat="43.3481408" lon="13.1589602"><ele>347.0</ele><time>2026-05-01T16:01:24.796Z</time></trkpt><trkpt lat="43.3480561" lon="13.1589874"><ele>347.0</ele><time>2026-05-01T16:01:25.795Z</time></trkpt><trkpt lat="43.3479714" lon="13.1590135"><ele>347.0</ele><time>2026-05-01T16:01:26.796Z</time></trkpt><trkpt lat="43.3478854" lon="13.1590444"><ele>346.5714285714286</ele><time>2026-05-01T16:01:27.796Z</time></trkpt><trkpt lat="43.3478003" lon="13.1590827"><ele>346.1428571428571</ele><time>2026-05-01T16:01:28.796Z</time></trkpt><trkpt lat="43.3477208" lon="13.1591058"><ele>345.7142857142857</ele><time>2026-05-01T16:01:29.796Z</time></trkpt><trkpt lat="43.3476531" lon="13.1591015"><ele>345.28571428571433</ele><time>2026-05-01T16:01:30.795Z</time></trkpt><trkpt lat="43.3475975" lon="13.1590591"><ele>344.8571428571429</ele><time>2026-05-01T16:01:31.796Z</time></trkpt><trkpt lat="43.3475565" lon="13.1589918"><ele>344.42857142857144</ele><time>2026-05-01T16:01:32.797Z</time></trkpt><trkpt lat="43.3475129" lon="13.158913"><ele>344.0</ele><time>2026-05-01T16:01:33.797Z</time></trkpt><trkpt lat="43.3474599" lon="13.1588217"><ele>344.0</ele><time>2026-05-01T16:01:34.796Z</time></trkpt><trkpt lat="43.347409" lon="13.1587247"><ele>344.0</ele><time>2026-05-01T16:01:35.795Z</time></trkpt><trkpt lat="43.3473563" lon="13.1586294"><ele>344.0</ele><time>2026-05-01T16:01:36.797Z</time></trkpt><trkpt lat="43.3473051" lon="13.1585365"><ele>344.0</ele><time>2026-05-01T16:01:37.795Z</time></trkpt><trkpt lat="43.347264" lon="13.1584582"><ele>344.0</ele><time>2026-05-01T16:01:38.796Z</time></trkpt><trkpt lat="43.3472084" lon="13.1583706"><ele>344.0</ele><time>2026-05-01T16:01:40.796Z</time></trkpt><trkpt lat="43.3471221" lon="13.1583834"><ele>346.0</ele><time>2026-05-01T16:01:43.796Z</time></trkpt><trkpt lat="43.3470478" lon="13.1585071"><ele>348.0</ele><time>2026-05-01T16:01:45.795Z</time></trkpt><trkpt lat="43.3469928" lon="13.1585772"><ele>350.0</ele><time>2026-05-01T16:01:46.796Z</time></trkpt><trkpt lat="43.3469361" lon="13.1586487"><ele>352.0</ele><time>2026-05-01T16:01:47.795Z</time></trkpt><trkpt lat="43.3468692" lon="13.1587336"><ele>354.0</ele><time>2026-05-01T16:01:48.795Z</time></trkpt><trkpt lat="43.3467936" lon="13.1588311"><ele>354.0</ele><time>2026-05-01T16:01:49.795Z</time></trkpt><trkpt lat="43.3467133" lon="13.1589177"><ele>354.0</ele><time>2026-05-01T16:01:50.796Z</time></trkpt><trkpt lat="43.3466363" lon="13.1590003"><ele>354.0</ele><time>2026-05-01T16:01:51.795Z</time></trkpt><trkpt lat="43.3465596" lon="13.1590817"><ele>354.0</ele><time>2026-05-01T16:01:52.795Z</time></trkpt><trkpt lat="43.3464801" lon="13.1591456"><ele>354.0</ele><time>2026-05-01T16:01:53.795Z</time></trkpt><trkpt lat="43.3464077" lon="13.1592056"><ele>355.0</ele><time>2026-05-01T16:01:54.797Z</time></trkpt><trkpt lat="43.3463376" lon="13.1592507"><ele>356.0</ele><time>2026-05-01T16:01:55.796Z</time></trkpt><trkpt lat="43.3462488" lon="13.1593106"><ele>357.0</ele><time>2026-05-01T16:01:57.796Z</time></trkpt><trkpt lat="43.3462309" lon="13.1594324"><ele>358.0</ele><time>2026-05-01T16:01:59.795Z</time></trkpt><trkpt lat="43.346223" lon="13.1596083"><ele>359.0</ele><time>2026-05-01T16:02:01.795Z</time></trkpt><trkpt lat="43.3462178" lon="13.1597093"><ele>359.0</ele><time>2026-05-01T16:02:02.796Z</time></trkpt><trkpt lat="43.3462144" lon="13.1598082"><ele>359.0</ele><time>2026-05-01T16:02:03.795Z</time></trkpt><trkpt lat="43.3462058" lon="13.1599081"><ele>359.0</ele><time>2026-05-01T16:02:04.795Z</time></trkpt><trkpt lat="43.3461904" lon="13.1600125"><ele>359.0</ele><time>2026-05-01T16:02:05.795Z</time></trkpt><trkpt lat="43.3461647" lon="13.1601157"><ele>359.0</ele><time>2026-05-01T16:02:06.795Z</time></trkpt><trkpt lat="43.3461436" lon="13.1602215"><ele>359.0</ele><time>2026-05-01T16:02:07.795Z</time></trkpt><trkpt lat="43.3461187" lon="13.1603212"><ele>360.14285714285717</ele><time>2026-05-01T16:02:08.796Z</time></trkpt><trkpt lat="43.3460897" lon="13.1604212"><ele>361.28571428571433</ele><time>2026-05-01T16:02:09.795Z</time></trkpt><trkpt lat="43.3460455" lon="13.1605046"><ele>362.42857142857144</ele><time>2026-05-01T16:02:10.796Z</time></trkpt><trkpt lat="43.3460019" lon="13.160587"><ele>363.57142857142856</ele><time>2026-05-01T16:02:11.796Z</time></trkpt><trkpt lat="43.3459536" lon="13.1606517"><ele>364.7142857142857</ele><time>2026-05-01T16:02:12.795Z</time></trkpt><trkpt lat="43.3458996" lon="13.1607119"><ele>365.85714285714283</ele><time>2026-05-01T16:02:13.796Z</time></trkpt><trkpt lat="43.3458429" lon="13.160766"><ele>367.0</ele><time>2026-05-01T16:02:14.796Z</time></trkpt><trkpt lat="43.3457737" lon="13.1607978"><ele>367.4285714285714</ele><time>2026-05-01T16:02:15.795Z</time></trkpt><trkpt lat="43.3457062" lon="13.1608309"><ele>367.8571428571429</ele><time>2026-05-01T16:02:16.796Z</time></trkpt><trkpt lat="43.3456323" lon="13.1608632"><ele>368.2857142857143</ele><time>2026-05-01T16:02:17.795Z</time></trkpt><trkpt lat="43.3455557" lon="13.160888"><ele>368.71428571428567</ele><time>2026-05-01T16:02:18.796Z</time></trkpt><trkpt lat="43.3454821" lon="13.1609132"><ele>369.1428571428571</ele><time>2026-05-01T16:02:19.796Z</time></trkpt><trkpt lat="43.3454104" lon="13.1609287"><ele>369.57142857142856</ele><time>2026-05-01T16:02:20.795Z</time></trkpt><trkpt lat="43.3453409" lon="13.1609452"><ele>370.0</ele><time>2026-05-01T16:02:21.795Z</time></trkpt><trkpt lat="43.3452727" lon="13.1609526"><ele>371.5</ele><time>2026-05-01T16:02:22.797Z</time></trkpt><trkpt lat="43.3452067" lon="13.1609549"><ele>373.0</ele><time>2026-05-01T16:02:23.796Z</time></trkpt><trkpt lat="43.3451393" lon="13.160957"><ele>374.5</ele><time>2026-05-01T16:02:24.796Z</time></trkpt><trkpt lat="43.3450687" lon="13.1609545"><ele>376.0</ele><time>2026-05-01T16:02:25.795Z</time></trkpt><trkpt lat="43.3450035" lon="13.160951"><ele>377.5</ele><time>2026-05-01T16:02:26.796Z</time></trkpt><trkpt lat="43.3448881" lon="13.1609981"><ele>379.0</ele><time>2026-05-01T16:02:28.796Z</time></trkpt><trkpt lat="43.3448432" lon="13.1611372"><ele>379.0</ele><time>2026-05-01T16:02:30.797Z</time></trkpt><trkpt lat="43.3448566" lon="13.161315"><ele>379.0</ele><time>2026-05-01T16:02:32.795Z</time></trkpt><trkpt lat="43.3448803" lon="13.1614097"><ele>379.0</ele><time>2026-05-01T16:02:33.795Z</time></trkpt><trkpt lat="43.3449096" lon="13.16151"><ele>379.0</ele><time>2026-05-01T16:02:34.795Z</time></trkpt><trkpt lat="43.3449415" lon="13.1616086"><ele>379.0</ele><time>2026-05-01T16:02:35.796Z</time></trkpt><trkpt lat="43.3449741" lon="13.1617008"><ele>379.0</ele><time>2026-05-01T16:02:36.795Z</time></trkpt><trkpt lat="43.3450052" lon="13.1617863"><ele>381.0</ele><time>2026-05-01T16:02:37.796Z</time></trkpt><trkpt lat="43.345023" lon="13.1618756"><ele>383.0</ele><time>2026-05-01T16:02:38.796Z</time></trkpt><trkpt lat="43.3450171" lon="13.1619784"><ele>385.0</ele><time>2026-05-01T16:02:39.795Z</time></trkpt><trkpt lat="43.3450004" lon="13.1620776"><ele>387.0</ele><time>2026-05-01T16:02:40.795Z</time></trkpt><trkpt lat="43.3449765" lon="13.1621677"><ele>389.00000000000006</ele><time>2026-05-01T16:02:41.796Z</time></trkpt><trkpt lat="43.3449473" lon="13.1622483"><ele>391.0</ele><time>2026-05-01T16:02:42.795Z</time></trkpt><trkpt lat="43.3448756" lon="13.1623693"><ele>392.0</ele><time>2026-05-01T16:02:44.796Z</time></trkpt><trkpt lat="43.344783" lon="13.1624723"><ele>393.0</ele><time>2026-05-01T16:02:46.796Z</time></trkpt><trkpt lat="43.3446756" lon="13.1625553"><ele>394.0</ele><time>2026-05-01T16:02:48.795Z</time></trkpt><trkpt lat="43.3445713" lon="13.1626374"><ele>395.0</ele><time>2026-05-01T16:02:50.796Z</time></trkpt><trkpt lat="43.344504" lon="13.162686"><ele>396.0</ele><time>2026-05-01T16:02:51.796Z</time></trkpt><trkpt lat="43.3444354" lon="13.1627447"><ele>397.5</ele><time>2026-05-01T16:02:52.797Z</time></trkpt><trkpt lat="43.344371" lon="13.1628045"><ele>399.0</ele><time>2026-05-01T16:02:53.795Z</time></trkpt><trkpt lat="43.3443119" lon="13.1628675"><ele>400.5</ele><time>2026-05-01T16:02:54.796Z</time></trkpt><trkpt lat="43.3442555" lon="13.162937"><ele>402.0</ele><time>2026-05-01T16:02:55.796Z</time></trkpt><trkpt lat="43.3441964" lon="13.1630142"><ele>403.5</ele><time>2026-05-01T16:02:56.795Z</time></trkpt><trkpt lat="43.3441374" lon="13.1630886"><ele>405.0</ele><time>2026-05-01T16:02:57.796Z</time></trkpt><trkpt lat="43.3440774" lon="13.1631653"><ele>405.99999999999994</ele><time>2026-05-01T16:02:58.795Z</time></trkpt><trkpt lat="43.3440228" lon="13.1632403"><ele>407.0</ele><time>2026-05-01T16:02:59.797Z</time></trkpt><trkpt lat="43.3439719" lon="13.1633169"><ele>408.0</ele><time>2026-05-01T16:03:00.795Z</time></trkpt><trkpt lat="43.3439323" lon="13.1634001"><ele>409.0</ele><time>2026-05-01T16:03:01.796Z</time></trkpt><trkpt lat="43.3439074" lon="13.1634884"><ele>410.0</ele><time>2026-05-01T16:03:02.795Z</time></trkpt><trkpt lat="43.3438939" lon="13.163589"><ele>410.99999999999994</ele><time>2026-05-01T16:03:03.796Z</time></trkpt><trkpt lat="43.3438922" lon="13.163693"><ele>412.0</ele><time>2026-05-01T16:03:04.796Z</time></trkpt><trkpt lat="43.3438985" lon="13.1637959"><ele>411.99999999999994</ele><time>2026-05-01T16:03:05.796Z</time></trkpt><trkpt lat="43.343906" lon="13.1638998"><ele>412.0</ele><time>2026-05-01T16:03:06.796Z</time></trkpt><trkpt lat="43.3439138" lon="13.164006"><ele>412.0</ele><time>2026-05-01T16:03:07.796Z</time></trkpt><trkpt lat="43.3439271" lon="13.164107"><ele>412.0</ele><time>2026-05-01T16:03:08.796Z</time></trkpt><trkpt lat="43.3439507" lon="13.1642009"><ele>412.0</ele><time>2026-05-01T16:03:09.796Z</time></trkpt><trkpt lat="43.343972" lon="13.1642969"><ele>411.99999999999994</ele><time>2026-05-01T16:03:10.796Z</time></trkpt><trkpt lat="43.3439953" lon="13.1643918"><ele>412.0</ele><time>2026-05-01T16:03:11.795Z</time></trkpt><trkpt lat="43.3440076" lon="13.1644831"><ele>413.85714285714283</ele><time>2026-05-01T16:03:12.796Z</time></trkpt><trkpt lat="43.3440036" lon="13.1645739"><ele>415.7142857142857</ele><time>2026-05-01T16:03:13.796Z</time></trkpt><trkpt lat="43.3439939" lon="13.1646642"><ele>417.57142857142856</ele><time>2026-05-01T16:03:14.796Z</time></trkpt><trkpt lat="43.3439728" lon="13.1647536"><ele>419.42857142857144</ele><time>2026-05-01T16:03:15.795Z</time></trkpt><trkpt lat="43.3439477" lon="13.1648417"><ele>421.2857142857143</ele><time>2026-05-01T16:03:16.795Z</time></trkpt><trkpt lat="43.3439133" lon="13.1649331"><ele>423.1428571428571</ele><time>2026-05-01T16:03:17.796Z</time></trkpt><trkpt lat="43.3438812" lon="13.1650167"><ele>425.0</ele><time>2026-05-01T16:03:18.796Z</time></trkpt><trkpt lat="43.3438441" lon="13.1651033"><ele>426.1428571428571</ele><time>2026-05-01T16:03:19.796Z</time></trkpt><trkpt lat="43.3438111" lon="13.1651913"><ele>427.2857142857143</ele><time>2026-05-01T16:03:20.797Z</time></trkpt><trkpt lat="43.3437791" lon="13.1652854"><ele>428.42857142857144</ele><time>2026-05-01T16:03:21.795Z</time></trkpt><trkpt lat="43.3437358" lon="13.1653682"><ele>429.57142857142856</ele><time>2026-05-01T16:03:22.796Z</time></trkpt><trkpt lat="43.3436992" lon="13.165447"><ele>430.7142857142857</ele><time>2026-05-01T16:03:23.797Z</time></trkpt><trkpt lat="43.3436689" lon="13.1655286"><ele>431.85714285714283</ele><time>2026-05-01T16:03:24.796Z</time></trkpt><trkpt lat="43.3436384" lon="13.1656099"><ele>433.0</ele><time>2026-05-01T16:03:25.796Z</time></trkpt><trkpt lat="43.3436041" lon="13.1656929"><ele>436.00000000000006</ele><time>2026-05-01T16:03:26.797Z</time></trkpt><trkpt lat="43.3435703" lon="13.1657751"><ele>439.0</ele><time>2026-05-01T16:03:27.796Z</time></trkpt><trkpt lat="43.3435365" lon="13.1658535"><ele>442.0</ele><time>2026-05-01T16:03:28.795Z</time></trkpt><trkpt lat="43.3434759" lon="13.1659976"><ele>445.0</ele><time>2026-05-01T16:03:30.795Z</time></trkpt><trkpt lat="43.3434423" lon="13.1660878"><ele>448.00000000000006</ele><time>2026-05-01T16:03:31.796Z</time></trkpt><trkpt lat="43.3434053" lon="13.1661746"><ele>451.0</ele><time>2026-05-01T16:03:32.797Z</time></trkpt><trkpt lat="43.3433725" lon="13.1662591"><ele>451.00000000000006</ele><time>2026-05-01T16:03:33.796Z</time></trkpt><trkpt lat="43.3433341" lon="13.1663465"><ele>451.0</ele><time>2026-05-01T16:03:34.796Z</time></trkpt><trkpt lat="43.3432934" lon="13.1664335"><ele>451.0</ele><time>2026-05-01T16:03:35.795Z</time></trkpt><trkpt lat="43.3432449" lon="13.1665274"><ele>451.0</ele><time>2026-05-01T16:03:36.795Z</time></trkpt><trkpt lat="43.3431971" lon="13.1666205"><ele>451.00000000000006</ele><time>2026-05-01T16:03:37.796Z</time></trkpt><trkpt lat="43.3431528" lon="13.1667131"><ele>451.0</ele><time>2026-05-01T16:03:38.795Z</time></trkpt><trkpt lat="43.3431178" lon="13.1668036"><ele>453.00000000000006</ele><time>2026-05-01T16:03:39.796Z</time></trkpt><trkpt lat="43.3431004" lon="13.1669042"><ele>455.0</ele><time>2026-05-01T16:03:40.796Z</time></trkpt><trkpt lat="43.3431" lon="13.1670048"><ele>457.0</ele><time>2026-05-01T16:03:41.795Z</time></trkpt><trkpt lat="43.343118" lon="13.1671022"><ele>459.0</ele><time>2026-05-01T16:03:42.795Z</time></trkpt><trkpt lat="43.3431465" lon="13.1672023"><ele>461.00000000000006</ele><time>2026-05-01T16:03:43.796Z</time></trkpt><trkpt lat="43.3431768" lon="13.1673113"><ele>463.0</ele><time>2026-05-01T16:03:44.796Z</time></trkpt><trkpt lat="43.3431956" lon="13.167417"><ele>464.1428571428571</ele><time>2026-05-01T16:03:45.796Z</time></trkpt><trkpt lat="43.3432032" lon="13.1675133"><ele>465.2857142857142</ele><time>2026-05-01T16:03:46.796Z</time></trkpt><trkpt lat="43.3432044" lon="13.1676014"><ele>466.42857142857144</ele><time>2026-05-01T16:03:47.796Z</time></trkpt><trkpt lat="43.3432101" lon="13.1676908"><ele>467.57142857142856</ele><time>2026-05-01T16:03:48.796Z</time></trkpt><trkpt lat="43.3432146" lon="13.1677834"><ele>468.7142857142857</ele><time>2026-05-01T16:03:49.796Z</time></trkpt><trkpt lat="43.3432198" lon="13.167881"><ele>469.8571428571429</ele><time>2026-05-01T16:03:50.795Z</time></trkpt><trkpt lat="43.3432292" lon="13.167987"><ele>471.00000000000006</ele><time>2026-05-01T16:03:51.796Z</time></trkpt><trkpt lat="43.3432404" lon="13.1681005"><ele>470.8333333333333</ele><time>2026-05-01T16:03:52.795Z</time></trkpt><trkpt lat="43.3432527" lon="13.1682126"><ele>470.66666666666663</ele><time>2026-05-01T16:03:53.795Z</time></trkpt><trkpt lat="43.3432673" lon="13.1683303"><ele>470.5</ele><time>2026-05-01T16:03:54.796Z</time></trkpt><trkpt lat="43.3432822" lon="13.1684359"><ele>470.3333333333333</ele><time>2026-05-01T16:03:55.795Z</time></trkpt><trkpt lat="43.3432961" lon="13.1685423"><ele>470.16666666666663</ele><time>2026-05-01T16:03:56.796Z</time></trkpt><trkpt lat="43.3433082" lon="13.1686511"><ele>470.0</ele><time>2026-05-01T16:03:57.795Z</time></trkpt><trkpt lat="43.3433229" lon="13.1687517"><ele>469.99999999999994</ele><time>2026-05-01T16:03:58.796Z</time></trkpt><trkpt lat="43.3433305" lon="13.1688407"><ele>470.0</ele><time>2026-05-01T16:03:59.796Z</time></trkpt><trkpt lat="43.3433259" lon="13.1689424"><ele>470.0</ele><time>2026-05-01T16:04:00.795Z</time></trkpt><trkpt lat="43.3433074" lon="13.1690541"><ele>470.0</ele><time>2026-05-01T16:04:01.795Z</time></trkpt><trkpt lat="43.3432824" lon="13.169168"><ele>469.99999999999994</ele><time>2026-05-01T16:04:02.796Z</time></trkpt><trkpt lat="43.343251" lon="13.1692825"><ele>470.0</ele><time>2026-05-01T16:04:03.796Z</time></trkpt><trkpt lat="43.3432145" lon="13.1693849"><ele>469.66666666666663</ele><time>2026-05-01T16:04:04.796Z</time></trkpt><trkpt lat="43.3431766" lon="13.1694879"><ele>469.3333333333333</ele><time>2026-05-01T16:04:05.795Z</time></trkpt><trkpt lat="43.3431418" lon="13.1695927"><ele>469.0</ele><time>2026-05-01T16:04:06.796Z</time></trkpt><trkpt lat="43.3431138" lon="13.1697025"><ele>468.66666666666663</ele><time>2026-05-01T16:04:07.796Z</time></trkpt><trkpt lat="43.3430941" lon="13.1698157"><ele>468.3333333333333</ele><time>2026-05-01T16:04:08.796Z</time></trkpt><trkpt lat="43.3430765" lon="13.1699327"><ele>468.0</ele><time>2026-05-01T16:04:09.797Z</time></trkpt><trkpt lat="43.3430614" lon="13.1700453"><ele>467.8333333333333</ele><time>2026-05-01T16:04:10.796Z</time></trkpt><trkpt lat="43.3430506" lon="13.1701508"><ele>467.66666666666663</ele><time>2026-05-01T16:04:11.795Z</time></trkpt><trkpt lat="43.3430515" lon="13.1702489"><ele>467.5</ele><time>2026-05-01T16:04:12.795Z</time></trkpt><trkpt lat="43.3430752" lon="13.1703509"><ele>467.3333333333333</ele><time>2026-05-01T16:04:13.797Z</time></trkpt><trkpt lat="43.3431136" lon="13.1704512"><ele>467.16666666666663</ele><time>2026-05-01T16:04:14.795Z</time></trkpt><trkpt lat="43.343162" lon="13.1705551"><ele>467.0</ele><time>2026-05-01T16:04:15.795Z</time></trkpt><trkpt lat="43.3432072" lon="13.1706619"><ele>467.3333333333333</ele><time>2026-05-01T16:04:16.796Z</time></trkpt><trkpt lat="43.3432556" lon="13.1707684"><ele>467.66666666666663</ele><time>2026-05-01T16:04:17.796Z</time></trkpt><trkpt lat="43.3433034" lon="13.1708698"><ele>468.0</ele><time>2026-05-01T16:04:18.796Z</time></trkpt><trkpt lat="43.3433389" lon="13.1709682"><ele>468.33333333333337</ele><time>2026-05-01T16:04:19.796Z</time></trkpt><trkpt lat="43.3433721" lon="13.1710792"><ele>468.6666666666667</ele><time>2026-05-01T16:04:20.795Z</time></trkpt><trkpt lat="43.3433987" lon="13.1711972"><ele>469.0</ele><time>2026-05-01T16:04:21.796Z</time></trkpt><trkpt lat="43.3434203" lon="13.1713227"><ele>469.0</ele><time>2026-05-01T16:04:22.796Z</time></trkpt><trkpt lat="43.3434378" lon="13.1714497"><ele>469.0</ele><time>2026-05-01T16:04:23.796Z</time></trkpt><trkpt lat="43.3434582" lon="13.1715812"><ele>469.0</ele><time>2026-05-01T16:04:24.795Z</time></trkpt><trkpt lat="43.3434744" lon="13.1717155"><ele>469.0</ele><time>2026-05-01T16:04:25.796Z</time></trkpt><trkpt lat="43.3434869" lon="13.1718504"><ele>469.0</ele><time>2026-05-01T16:04:26.796Z</time></trkpt><trkpt lat="43.3434988" lon="13.171978"><ele>469.00000000000006</ele><time>2026-05-01T16:04:27.795Z</time></trkpt><trkpt lat="43.3435092" lon="13.1721038"><ele>469.0</ele><time>2026-05-01T16:04:28.796Z</time></trkpt><trkpt lat="43.343517" lon="13.1722218"><ele>469.0</ele><time>2026-05-01T16:04:29.795Z</time></trkpt><trkpt lat="43.3435261" lon="13.1723372"><ele>469.0</ele><time>2026-05-01T16:04:30.797Z</time></trkpt><trkpt lat="43.3435302" lon="13.172461"><ele>469.00000000000006</ele><time>2026-05-01T16:04:31.795Z</time></trkpt><trkpt lat="43.3435301" lon="13.172582"><ele>469.0</ele><time>2026-05-01T16:04:32.796Z</time></trkpt><trkpt lat="43.343527" lon="13.1727103"><ele>467.6</ele><time>2026-05-01T16:04:33.796Z</time></trkpt><trkpt lat="43.3435254" lon="13.1728371"><ele>466.2</ele><time>2026-05-01T16:04:34.797Z</time></trkpt><trkpt lat="43.3435197" lon="13.1729667"><ele>464.80000000000007</ele><time>2026-05-01T16:04:35.795Z</time></trkpt><trkpt lat="43.3435162" lon="13.1731003"><ele>463.40000000000003</ele><time>2026-05-01T16:04:36.796Z</time></trkpt><trkpt lat="43.3435122" lon="13.1732286"><ele>462.0</ele><time>2026-05-01T16:04:37.796Z</time></trkpt><trkpt lat="43.3435089" lon="13.1733618"><ele>462.1666666666667</ele><time>2026-05-01T16:04:38.795Z</time></trkpt><trkpt lat="43.3435104" lon="13.1734975"><ele>462.33333333333337</ele><time>2026-05-01T16:04:39.796Z</time></trkpt><trkpt lat="43.3435114" lon="13.1736326"><ele>462.5</ele><time>2026-05-01T16:04:40.796Z</time></trkpt><trkpt lat="43.3435197" lon="13.1737571"><ele>462.6666666666667</ele><time>2026-05-01T16:04:41.795Z</time></trkpt><trkpt lat="43.3435335" lon="13.1738667"><ele>462.83333333333337</ele><time>2026-05-01T16:04:42.797Z</time></trkpt><trkpt lat="43.343554" lon="13.1739722"><ele>463.0</ele><time>2026-05-01T16:04:43.796Z</time></trkpt><trkpt lat="43.3435814" lon="13.1740662"><ele>463.00000000000006</ele><time>2026-05-01T16:04:44.796Z</time></trkpt><trkpt lat="43.3436122" lon="13.1741519"><ele>463.0</ele><time>2026-05-01T16:04:45.796Z</time></trkpt><trkpt lat="43.3436365" lon="13.1742901"><ele>463.0</ele><time>2026-05-01T16:04:47.796Z</time></trkpt><trkpt lat="43.343603" lon="13.174397"><ele>463.0</ele><time>2026-05-01T16:04:49.796Z</time></trkpt><trkpt lat="43.3435576" lon="13.1745012"><ele>463.00000000000006</ele><time>2026-05-01T16:04:51.796Z</time></trkpt><trkpt lat="43.3435079" lon="13.1746229"><ele>463.0</ele><time>2026-05-01T16:04:53.796Z</time></trkpt><trkpt lat="43.3434552" lon="13.1747781"><ele>463.0</ele><time>2026-05-01T16:04:55.795Z</time></trkpt><trkpt lat="43.3434072" lon="13.1748501"><ele>462.99999999999994</ele><time>2026-05-01T16:04:56.796Z</time></trkpt><trkpt lat="43.3433579" lon="13.1749183"><ele>463.0</ele><time>2026-05-01T16:04:57.796Z</time></trkpt><trkpt lat="43.3433119" lon="13.1749869"><ele>463.0</ele><time>2026-05-01T16:04:58.795Z</time></trkpt><trkpt lat="43.3432749" lon="13.1750632"><ele>462.99999999999994</ele><time>2026-05-01T16:04:59.796Z</time></trkpt><trkpt lat="43.3432425" lon="13.1751457"><ele>463.0</ele><time>2026-05-01T16:05:00.796Z</time></trkpt><trkpt lat="43.3432167" lon="13.1752356"><ele>463.0</ele><time>2026-05-01T16:05:01.796Z</time></trkpt><trkpt lat="43.3431809" lon="13.1753224"><ele>463.2857142857143</ele><time>2026-05-01T16:05:02.795Z</time></trkpt><trkpt lat="43.3431321" lon="13.1754006"><ele>463.57142857142856</ele><time>2026-05-01T16:05:03.796Z</time></trkpt><trkpt lat="43.3430742" lon="13.1754683"><ele>463.85714285714283</ele><time>2026-05-01T16:05:04.795Z</time></trkpt><trkpt lat="43.3430057" lon="13.1755104"><ele>464.1428571428571</ele><time>2026-05-01T16:05:05.796Z</time></trkpt><trkpt lat="43.3429379" lon="13.1755385"><ele>464.42857142857144</ele><time>2026-05-01T16:05:06.796Z</time></trkpt><trkpt lat="43.3428724" lon="13.1755602"><ele>464.71428571428567</ele><time>2026-05-01T16:05:07.796Z</time></trkpt><trkpt lat="43.3428095" lon="13.175587"><ele>465.0</ele><time>2026-05-01T16:05:08.796Z</time></trkpt><trkpt lat="43.3427498" lon="13.1756334"><ele>464.0</ele><time>2026-05-01T16:05:09.796Z</time></trkpt><trkpt lat="43.3427023" lon="13.1756963"><ele>463.0</ele><time>2026-05-01T16:05:10.796Z</time></trkpt><trkpt lat="43.3426505" lon="13.1758529"><ele>462.0</ele><time>2026-05-01T16:05:12.796Z</time></trkpt><trkpt lat="43.342641" lon="13.175949"><ele>461.0</ele><time>2026-05-01T16:05:13.796Z</time></trkpt><trkpt lat="43.3426335" lon="13.1760444"><ele>460.0</ele><time>2026-05-01T16:05:14.795Z</time></trkpt><trkpt lat="43.3426297" lon="13.1761415"><ele>459.0</ele><time>2026-05-01T16:05:15.795Z</time></trkpt><trkpt lat="43.3426275" lon="13.1762398"><ele>459.0</ele><time>2026-05-01T16:05:16.796Z</time></trkpt><trkpt lat="43.3426221" lon="13.1763358"><ele>459.0</ele><time>2026-05-01T16:05:17.795Z</time></trkpt><trkpt lat="43.3426052" lon="13.1764281"><ele>459.0</ele><time>2026-05-01T16:05:18.797Z</time></trkpt><trkpt lat="43.3425823" lon="13.1765158"><ele>459.0</ele><time>2026-05-01T16:05:19.796Z</time></trkpt><trkpt lat="43.3425117" lon="13.176667"><ele>459.0</ele><time>2026-05-01T16:05:21.795Z</time></trkpt><trkpt lat="43.3424658" lon="13.1767473"><ele>459.0</ele><time>2026-05-01T16:05:22.796Z</time></trkpt><trkpt lat="43.3424265" lon="13.1768291"><ele>458.8333333333333</ele><time>2026-05-01T16:05:23.797Z</time></trkpt><trkpt lat="43.3423818" lon="13.1769191"><ele>458.66666666666663</ele><time>2026-05-01T16:05:24.797Z</time></trkpt><trkpt lat="43.3423373" lon="13.1770138"><ele>458.5</ele><time>2026-05-01T16:05:25.796Z</time></trkpt><trkpt lat="43.3422972" lon="13.1771003"><ele>458.3333333333333</ele><time>2026-05-01T16:05:26.795Z</time></trkpt><trkpt lat="43.3422442" lon="13.1772209"><ele>458.16666666666663</ele><time>2026-05-01T16:05:27.795Z</time></trkpt><trkpt lat="43.3421988" lon="13.1773273"><ele>458.0</ele><time>2026-05-01T16:05:28.795Z</time></trkpt><trkpt lat="43.3421484" lon="13.1774369"><ele>457.99999999999994</ele><time>2026-05-01T16:05:29.796Z</time></trkpt><trkpt lat="43.3421003" lon="13.1775425"><ele>458.0</ele><time>2026-05-01T16:05:30.796Z</time></trkpt><trkpt lat="43.342053" lon="13.1776413"><ele>458.0</ele><time>2026-05-01T16:05:31.795Z</time></trkpt><trkpt lat="43.3420062" lon="13.1777405"><ele>458.0</ele><time>2026-05-01T16:05:32.796Z</time></trkpt><trkpt lat="43.341964" lon="13.1778344"><ele>457.99999999999994</ele><time>2026-05-01T16:05:33.796Z</time></trkpt><trkpt lat="43.3419311" lon="13.1779327"><ele>458.0</ele><time>2026-05-01T16:05:34.796Z</time></trkpt><trkpt lat="43.3419056" lon="13.1780256"><ele>458.0</ele><time>2026-05-01T16:05:35.795Z</time></trkpt><trkpt lat="43.3418862" lon="13.1781196"><ele>458.0</ele><time>2026-05-01T16:05:36.795Z</time></trkpt><trkpt lat="43.3418744" lon="13.1782163"><ele>458.0</ele><time>2026-05-01T16:05:37.795Z</time></trkpt><trkpt lat="43.3418722" lon="13.1783134"><ele>458.0</ele><time>2026-05-01T16:05:38.796Z</time></trkpt><trkpt lat="43.341881" lon="13.1784101"><ele>458.0</ele><time>2026-05-01T16:05:39.796Z</time></trkpt><trkpt lat="43.3419016" lon="13.1785065"><ele>458.0</ele><time>2026-05-01T16:05:40.797Z</time></trkpt><trkpt lat="43.3419268" lon="13.1786032"><ele>458.0</ele><time>2026-05-01T16:05:41.796Z</time></trkpt><trkpt lat="43.3419543" lon="13.1786976"><ele>458.57142857142856</ele><time>2026-05-01T16:05:42.796Z</time></trkpt><trkpt lat="43.3419778" lon="13.1787913"><ele>459.14285714285717</ele><time>2026-05-01T16:05:43.797Z</time></trkpt><trkpt lat="43.3419957" lon="13.1788856"><ele>459.7142857142857</ele><time>2026-05-01T16:05:44.796Z</time></trkpt><trkpt lat="43.3420038" lon="13.1789848"><ele>460.2857142857143</ele><time>2026-05-01T16:05:45.796Z</time></trkpt><trkpt lat="43.3420019" lon="13.1790894"><ele>460.8571428571429</ele><time>2026-05-01T16:05:46.797Z</time></trkpt><trkpt lat="43.3419991" lon="13.1791885"><ele>461.42857142857144</ele><time>2026-05-01T16:05:47.796Z</time></trkpt><trkpt lat="43.3420092" lon="13.1792819"><ele>462.0</ele><time>2026-05-01T16:05:48.796Z</time></trkpt><trkpt lat="43.342029" lon="13.1793705"><ele>462.5</ele><time>2026-05-01T16:05:49.795Z</time></trkpt><trkpt lat="43.3420825" lon="13.1795134"><ele>463.0</ele><time>2026-05-01T16:05:51.796Z</time></trkpt><trkpt lat="43.3421338" lon="13.1796595"><ele>463.5</ele><time>2026-05-01T16:05:53.796Z</time></trkpt><trkpt lat="43.3421833" lon="13.1797969"><ele>464.0</ele><time>2026-05-01T16:05:55.795Z</time></trkpt><trkpt lat="43.342218" lon="13.1799468"><ele>469.0</ele><time>2026-05-01T16:05:57.795Z</time></trkpt><trkpt lat="43.3422715" lon="13.1800919"><ele>474.0</ele><time>2026-05-01T16:05:59.796Z</time></trkpt><trkpt lat="43.3423352" lon="13.1802248"><ele>479.0</ele><time>2026-05-01T16:06:01.795Z</time></trkpt><trkpt lat="43.3423831" lon="13.1803739"><ele>484.0</ele><time>2026-05-01T16:06:03.796Z</time></trkpt><trkpt lat="43.342389" lon="13.1805471"><ele>484.0</ele><time>2026-05-01T16:06:05.795Z</time></trkpt><trkpt lat="43.3423715" lon="13.1806387"><ele>483.99999999999994</ele><time>2026-05-01T16:06:06.795Z</time></trkpt><trkpt lat="43.3423472" lon="13.1807252"><ele>484.0</ele><time>2026-05-01T16:06:07.796Z</time></trkpt><trkpt lat="43.3423171" lon="13.1808109"><ele>484.0</ele><time>2026-05-01T16:06:08.796Z</time></trkpt><trkpt lat="43.34228" lon="13.1809006"><ele>483.99999999999994</ele><time>2026-05-01T16:06:09.796Z</time></trkpt><trkpt lat="43.3422466" lon="13.1809904"><ele>484.0</ele><time>2026-05-01T16:06:10.795Z</time></trkpt><trkpt lat="43.3422138" lon="13.1810837"><ele>484.0</ele><time>2026-05-01T16:06:11.795Z</time></trkpt><trkpt lat="43.342183" lon="13.1811702"><ele>484.4285714285714</ele><time>2026-05-01T16:06:12.796Z</time></trkpt><trkpt lat="43.3421542" lon="13.1812733"><ele>484.8571428571428</ele><time>2026-05-01T16:06:13.797Z</time></trkpt><trkpt lat="43.3421329" lon="13.1813581"><ele>485.2857142857143</ele><time>2026-05-01T16:06:14.796Z</time></trkpt><trkpt lat="43.3421094" lon="13.1814601"><ele>485.71428571428567</ele><time>2026-05-01T16:06:15.796Z</time></trkpt><trkpt lat="43.3420864" lon="13.1815582"><ele>486.1428571428571</ele><time>2026-05-01T16:06:16.796Z</time></trkpt><trkpt lat="43.3420576" lon="13.1816572"><ele>486.57142857142856</ele><time>2026-05-01T16:06:17.795Z</time></trkpt><trkpt lat="43.3420097" lon="13.1817281"><ele>487.0</ele><time>2026-05-01T16:06:18.795Z</time></trkpt><trkpt lat="43.3419444" lon="13.1817721"><ele>487.00000000000006</ele><time>2026-05-01T16:06:19.796Z</time></trkpt><trkpt lat="43.3418716" lon="13.1817956"><ele>487.0</ele><time>2026-05-01T16:06:20.795Z</time></trkpt><trkpt lat="43.3417928" lon="13.1818082"><ele>487.0</ele><time>2026-05-01T16:06:21.796Z</time></trkpt><trkpt lat="43.3417151" lon="13.1818166"><ele>487.0</ele><time>2026-05-01T16:06:22.796Z</time></trkpt><trkpt lat="43.3416425" lon="13.1818229"><ele>487.00000000000006</ele><time>2026-05-01T16:06:23.795Z</time></trkpt><trkpt lat="43.3415746" lon="13.1818328"><ele>487.0</ele><time>2026-05-01T16:06:24.796Z</time></trkpt><trkpt lat="43.3414918" lon="13.1818667"><ele>487.00000000000006</ele><time>2026-05-01T16:06:26.796Z</time></trkpt><trkpt lat="43.341477" lon="13.1819828"><ele>487.0</ele><time>2026-05-01T16:06:29.796Z</time></trkpt><trkpt lat="43.3415409" lon="13.1820321"><ele>487.0</ele><time>2026-05-01T16:06:31.796Z</time></trkpt><trkpt lat="43.3416461" lon="13.1820424"><ele>487.0</ele><time>2026-05-01T16:06:33.797Z</time></trkpt><trkpt lat="43.3417094" lon="13.1820585"><ele>487.00000000000006</ele><time>2026-05-01T16:06:34.795Z</time></trkpt><trkpt lat="43.3417809" lon="13.1820844"><ele>487.0</ele><time>2026-05-01T16:06:35.794Z</time></trkpt><trkpt lat="43.3418563" lon="13.1821137"><ele>487.00000000000006</ele><time>2026-05-01T16:06:36.794Z</time></trkpt><trkpt lat="43.341941" lon="13.1821338"><ele>487.0</ele><time>2026-05-01T16:06:37.794Z</time></trkpt><trkpt lat="43.3420294" lon="13.1821509"><ele>487.0</ele><time>2026-05-01T16:06:38.795Z</time></trkpt><trkpt lat="43.3421147" lon="13.1821663"><ele>487.0</ele><time>2026-05-01T16:06:39.795Z</time></trkpt><trkpt lat="43.3421911" lon="13.1822019"><ele>487.00000000000006</ele><time>2026-05-01T16:06:40.794Z</time></trkpt><trkpt lat="43.3422664" lon="13.1822562"><ele>487.0</ele><time>2026-05-01T16:06:41.795Z</time></trkpt><trkpt lat="43.3423386" lon="13.1823188"><ele>489.6666666666667</ele><time>2026-05-01T16:06:42.795Z</time></trkpt><trkpt lat="43.3424086" lon="13.1823855"><ele>492.33333333333337</ele><time>2026-05-01T16:06:43.796Z</time></trkpt><trkpt lat="43.3424832" lon="13.1824434"><ele>495.0</ele><time>2026-05-01T16:06:44.794Z</time></trkpt><trkpt lat="43.3425451" lon="13.1824878"><ele>497.66666666666663</ele><time>2026-05-01T16:06:45.794Z</time></trkpt><trkpt lat="43.3426005" lon="13.1825386"><ele>500.3333333333333</ele><time>2026-05-01T16:06:46.794Z</time></trkpt><trkpt lat="43.3426622" lon="13.1825999"><ele>503.0</ele><time>2026-05-01T16:06:47.795Z</time></trkpt><trkpt lat="43.3427319" lon="13.1826506"><ele>503.0</ele><time>2026-05-01T16:06:48.795Z</time></trkpt><trkpt lat="43.3428134" lon="13.1826869"><ele>502.99999999999994</ele><time>2026-05-01T16:06:49.795Z</time></trkpt><trkpt lat="43.3429086" lon="13.1827035"><ele>502.99999999999994</ele><time>2026-05-01T16:06:50.794Z</time></trkpt><trkpt lat="43.343014" lon="13.1827141"><ele>503.0</ele><time>2026-05-01T16:06:51.795Z</time></trkpt><trkpt lat="43.3431121" lon="13.1827114"><ele>503.0</ele><time>2026-05-01T16:06:52.794Z</time></trkpt><trkpt lat="43.3432016" lon="13.182698"><ele>504.59999999999997</ele><time>2026-05-01T16:06:53.796Z</time></trkpt><trkpt lat="43.3432833" lon="13.1826661"><ele>506.19999999999993</ele><time>2026-05-01T16:06:54.795Z</time></trkpt><trkpt lat="43.3433611" lon="13.1826039"><ele>507.8</ele><time>2026-05-01T16:06:55.796Z</time></trkpt><trkpt lat="43.3434278" lon="13.1825193"><ele>509.4</ele><time>2026-05-01T16:06:56.794Z</time></trkpt><trkpt lat="43.3434887" lon="13.1824157"><ele>511.0</ele><time>2026-05-01T16:06:57.796Z</time></trkpt><trkpt lat="43.3435473" lon="13.1822988"><ele>511.0</ele><time>2026-05-01T16:06:58.794Z</time></trkpt><trkpt lat="43.3435991" lon="13.1821804"><ele>511.0</ele><time>2026-05-01T16:06:59.796Z</time></trkpt><trkpt lat="43.3436375" lon="13.1820515"><ele>511.0</ele><time>2026-05-01T16:07:00.795Z</time></trkpt><trkpt lat="43.3436625" lon="13.181916"><ele>511.0</ele><time>2026-05-01T16:07:01.795Z</time></trkpt><trkpt lat="43.3436772" lon="13.1817832"><ele>511.0</ele><time>2026-05-01T16:07:02.795Z</time></trkpt><trkpt lat="43.3436884" lon="13.181652"><ele>511.0</ele><time>2026-05-01T16:07:03.794Z</time></trkpt><trkpt lat="43.3437071" lon="13.1815207"><ele>511.0</ele><time>2026-05-01T16:07:04.795Z</time></trkpt><trkpt lat="43.3437342" lon="13.1813946"><ele>511.0</ele><time>2026-05-01T16:07:05.794Z</time></trkpt><trkpt lat="43.3437639" lon="13.1812677"><ele>511.0</ele><time>2026-05-01T16:07:06.795Z</time></trkpt><trkpt lat="43.3437946" lon="13.1811466"><ele>511.0</ele><time>2026-05-01T16:07:07.795Z</time></trkpt><trkpt lat="43.3438245" lon="13.1810335"><ele>510.33333333333337</ele><time>2026-05-01T16:07:08.795Z</time></trkpt><trkpt lat="43.3438509" lon="13.1809336"><ele>509.6666666666667</ele><time>2026-05-01T16:07:09.796Z</time></trkpt><trkpt lat="43.3438729" lon="13.1808404"><ele>509.0</ele><time>2026-05-01T16:07:10.794Z</time></trkpt><trkpt lat="43.3439219" lon="13.1807024"><ele>508.33333333333337</ele><time>2026-05-01T16:07:12.796Z</time></trkpt><trkpt lat="43.3439826" lon="13.1806623"><ele>507.6666666666667</ele><time>2026-05-01T16:07:14.794Z</time></trkpt><trkpt lat="43.3440313" lon="13.1807278"><ele>507.0</ele><time>2026-05-01T16:07:16.794Z</time></trkpt><trkpt lat="43.3440154" lon="13.1808667"><ele>511.6666666666667</ele><time>2026-05-01T16:07:18.794Z</time></trkpt><trkpt lat="43.3439991" lon="13.1809595"><ele>516.3333333333334</ele><time>2026-05-01T16:07:19.795Z</time></trkpt><trkpt lat="43.3439855" lon="13.1810691"><ele>521.0</ele><time>2026-05-01T16:07:20.795Z</time></trkpt><trkpt lat="43.3439698" lon="13.1811841"><ele>525.6666666666667</ele><time>2026-05-01T16:07:21.795Z</time></trkpt><trkpt lat="43.3439548" lon="13.1813064"><ele>530.3333333333334</ele><time>2026-05-01T16:07:22.795Z</time></trkpt><trkpt lat="43.3439352" lon="13.1814314"><ele>535.0</ele><time>2026-05-01T16:07:23.795Z</time></trkpt><trkpt lat="43.3439145" lon="13.1815584"><ele>535.4</ele><time>2026-05-01T16:07:24.795Z</time></trkpt><trkpt lat="43.3439002" lon="13.1816936"><ele>535.8</ele><time>2026-05-01T16:07:25.794Z</time></trkpt><trkpt lat="43.3439056" lon="13.1818303"><ele>536.2</ele><time>2026-05-01T16:07:26.794Z</time></trkpt><trkpt lat="43.3439199" lon="13.1819729"><ele>536.6</ele><time>2026-05-01T16:07:27.794Z</time></trkpt><trkpt lat="43.3439395" lon="13.1821136"><ele>537.0</ele><time>2026-05-01T16:07:28.794Z</time></trkpt><trkpt lat="43.343958" lon="13.1822559"><ele>537.0</ele><time>2026-05-01T16:07:29.795Z</time></trkpt><trkpt lat="43.3439757" lon="13.182399"><ele>537.0</ele><time>2026-05-01T16:07:30.795Z</time></trkpt><trkpt lat="43.3439922" lon="13.1825373"><ele>537.0</ele><time>2026-05-01T16:07:31.794Z</time></trkpt><trkpt lat="43.3440076" lon="13.1826774"><ele>537.0</ele><time>2026-05-01T16:07:32.795Z</time></trkpt><trkpt lat="43.3440214" lon="13.1828238"><ele>537.0</ele><time>2026-05-01T16:07:33.795Z</time></trkpt><trkpt lat="43.3440354" lon="13.1829682"><ele>537.0</ele><time>2026-05-01T16:07:34.795Z</time></trkpt><trkpt lat="43.3440372" lon="13.1831133"><ele>537.0</ele><time>2026-05-01T16:07:35.796Z</time></trkpt><trkpt lat="43.3440244" lon="13.1832596"><ele>537.0</ele><time>2026-05-01T16:07:36.795Z</time></trkpt><trkpt lat="43.3439889" lon="13.1834077"><ele>537.0</ele><time>2026-05-01T16:07:37.794Z</time></trkpt><trkpt lat="43.3439411" lon="13.1835454"><ele>537.0</ele><time>2026-05-01T16:07:38.794Z</time></trkpt><trkpt lat="43.3438894" lon="13.1836701"><ele>538.25</ele><time>2026-05-01T16:07:39.794Z</time></trkpt><trkpt lat="43.343852" lon="13.1838321"><ele>539.5</ele><time>2026-05-01T16:07:40.794Z</time></trkpt><trkpt lat="43.3438111" lon="13.1839742"><ele>540.75</ele><time>2026-05-01T16:07:41.794Z</time></trkpt><trkpt lat="43.3438601" lon="13.1841187"><ele>542.0</ele><time>2026-05-01T16:07:42.795Z</time></trkpt><trkpt lat="43.3438939" lon="13.1842482"><ele>542.0</ele><time>2026-05-01T16:07:43.795Z</time></trkpt><trkpt lat="43.3439425" lon="13.1843694"><ele>542.0</ele><time>2026-05-01T16:07:44.794Z</time></trkpt><trkpt lat="43.3440028" lon="13.1844915"><ele>542.0</ele><time>2026-05-01T16:07:45.795Z</time></trkpt><trkpt lat="43.3440708" lon="13.1846079"><ele>542.0</ele><time>2026-05-01T16:07:46.795Z</time></trkpt><trkpt lat="43.3441494" lon="13.1847123"><ele>542.0</ele><time>2026-05-01T16:07:47.795Z</time></trkpt><trkpt lat="43.344237" lon="13.1848022"><ele>541.4</ele><time>2026-05-01T16:07:48.794Z</time></trkpt><trkpt lat="43.3443256" lon="13.18488"><ele>540.8000000000001</ele><time>2026-05-01T16:07:49.795Z</time></trkpt><trkpt lat="43.344417" lon="13.1849576"><ele>540.2</ele><time>2026-05-01T16:07:50.794Z</time></trkpt><trkpt lat="43.3445061" lon="13.1850363"><ele>539.6</ele><time>2026-05-01T16:07:51.795Z</time></trkpt><trkpt lat="43.3445915" lon="13.185116"><ele>539.0</ele><time>2026-05-01T16:07:52.795Z</time></trkpt><trkpt lat="43.3446676" lon="13.1852013"><ele>539.6</ele><time>2026-05-01T16:07:53.795Z</time></trkpt><trkpt lat="43.3447369" lon="13.1852972"><ele>540.2</ele><time>2026-05-01T16:07:54.795Z</time></trkpt><trkpt lat="43.3447978" lon="13.1853975"><ele>540.8000000000001</ele><time>2026-05-01T16:07:55.795Z</time></trkpt><trkpt lat="43.3448498" lon="13.1855035"><ele>541.4</ele><time>2026-05-01T16:07:56.795Z</time></trkpt><trkpt lat="43.3449026" lon="13.1856183"><ele>542.0</ele><time>2026-05-01T16:07:57.795Z</time></trkpt><trkpt lat="43.3449609" lon="13.1857461"><ele>542.0</ele><time>2026-05-01T16:07:58.794Z</time></trkpt><trkpt lat="43.3450226" lon="13.185883"><ele>542.0</ele><time>2026-05-01T16:07:59.794Z</time></trkpt><trkpt lat="43.3450898" lon="13.1860256"><ele>542.0</ele><time>2026-05-01T16:08:00.795Z</time></trkpt><trkpt lat="43.3451573" lon="13.1861769"><ele>542.0</ele><time>2026-05-01T16:08:01.795Z</time></trkpt><trkpt lat="43.3452253" lon="13.1863421"><ele>541.5</ele><time>2026-05-01T16:08:02.794Z</time></trkpt><trkpt lat="43.345288" lon="13.1865151"><ele>541.0</ele><time>2026-05-01T16:08:03.794Z</time></trkpt><trkpt lat="43.3453367" lon="13.1866915"><ele>540.5</ele><time>2026-05-01T16:08:04.795Z</time></trkpt><trkpt lat="43.3453796" lon="13.1868623"><ele>540.0</ele><time>2026-05-01T16:08:05.795Z</time></trkpt><trkpt lat="43.3454174" lon="13.1870301"><ele>540.0</ele><time>2026-05-01T16:08:06.795Z</time></trkpt><trkpt lat="43.3454454" lon="13.1872024"><ele>540.0</ele><time>2026-05-01T16:08:07.795Z</time></trkpt><trkpt lat="43.3454605" lon="13.1873835"><ele>540.0</ele><time>2026-05-01T16:08:08.795Z</time></trkpt><trkpt lat="43.3454666" lon="13.1875646"><ele>540.0</ele><time>2026-05-01T16:08:09.795Z</time></trkpt><trkpt lat="43.3454723" lon="13.1877395"><ele>539.75</ele><time>2026-05-01T16:08:10.795Z</time></trkpt><trkpt lat="43.3454735" lon="13.1879075"><ele>539.5</ele><time>2026-05-01T16:08:11.794Z</time></trkpt><trkpt lat="43.3454729" lon="13.1880676"><ele>539.25</ele><time>2026-05-01T16:08:12.796Z</time></trkpt><trkpt lat="43.3454705" lon="13.1882276"><ele>539.0</ele><time>2026-05-01T16:08:13.795Z</time></trkpt><trkpt lat="43.3454639" lon="13.1883882"><ele>541.6</ele><time>2026-05-01T16:08:14.794Z</time></trkpt><trkpt lat="43.3454427" lon="13.1885393"><ele>544.2</ele><time>2026-05-01T16:08:15.794Z</time></trkpt><trkpt lat="43.3454018" lon="13.188678"><ele>546.8000000000001</ele><time>2026-05-01T16:08:16.795Z</time></trkpt><trkpt lat="43.345349" lon="13.1888048"><ele>549.4</ele><time>2026-05-01T16:08:17.795Z</time></trkpt><trkpt lat="43.3452872" lon="13.1889305"><ele>552.0</ele><time>2026-05-01T16:08:18.795Z</time></trkpt><trkpt lat="43.3452276" lon="13.1890385"><ele>553.4</ele><time>2026-05-01T16:08:19.794Z</time></trkpt><trkpt lat="43.3451719" lon="13.189149"><ele>554.8000000000001</ele><time>2026-05-01T16:08:20.795Z</time></trkpt><trkpt lat="43.3451281" lon="13.1892739"><ele>556.2</ele><time>2026-05-01T16:08:21.794Z</time></trkpt><trkpt lat="43.3450976" lon="13.1894126"><ele>557.6</ele><time>2026-05-01T16:08:22.796Z</time></trkpt><trkpt lat="43.345074" lon="13.1895524"><ele>559.0</ele><time>2026-05-01T16:08:23.795Z</time></trkpt><trkpt lat="43.3450466" lon="13.1896897"><ele>559.0</ele><time>2026-05-01T16:08:24.795Z</time></trkpt><trkpt lat="43.3450088" lon="13.1898297"><ele>559.0</ele><time>2026-05-01T16:08:25.795Z</time></trkpt><trkpt lat="43.3449672" lon="13.1899581"><ele>559.0</ele><time>2026-05-01T16:08:26.796Z</time></trkpt><trkpt lat="43.344921" lon="13.1900874"><ele>559.0</ele><time>2026-05-01T16:08:27.796Z</time></trkpt><trkpt lat="43.3448739" lon="13.1902153"><ele>559.0</ele><time>2026-05-01T16:08:28.794Z</time></trkpt><trkpt lat="43.3448363" lon="13.1903528"><ele>560.0</ele><time>2026-05-01T16:08:29.795Z</time></trkpt><trkpt lat="43.3448092" lon="13.1904969"><ele>561.0</ele><time>2026-05-01T16:08:30.794Z</time></trkpt><trkpt lat="43.3447953" lon="13.190647"><ele>562.0</ele><time>2026-05-01T16:08:31.795Z</time></trkpt><trkpt lat="43.3447793" lon="13.1908005"><ele>563.0</ele><time>2026-05-01T16:08:32.795Z</time></trkpt><trkpt lat="43.3447591" lon="13.1909533"><ele>564.0</ele><time>2026-05-01T16:08:33.796Z</time></trkpt><trkpt lat="43.3447357" lon="13.1911055"><ele>563.0</ele><time>2026-05-01T16:08:34.795Z</time></trkpt><trkpt lat="43.3447061" lon="13.1912607"><ele>562.0</ele><time>2026-05-01T16:08:35.795Z</time></trkpt><trkpt lat="43.3446748" lon="13.1914086"><ele>561.0</ele><time>2026-05-01T16:08:36.794Z</time></trkpt><trkpt lat="43.344651" lon="13.1915541"><ele>560.0</ele><time>2026-05-01T16:08:37.795Z</time></trkpt><trkpt lat="43.344636" lon="13.1916985"><ele>559.0</ele><time>2026-05-01T16:08:38.795Z</time></trkpt><trkpt lat="43.3446334" lon="13.1918438"><ele>559.0</ele><time>2026-05-01T16:08:39.795Z</time></trkpt><trkpt lat="43.3446439" lon="13.1919855"><ele>559.0</ele><time>2026-05-01T16:08:40.795Z</time></trkpt><trkpt lat="43.344665" lon="13.1921264"><ele>559.0</ele><time>2026-05-01T16:08:41.795Z</time></trkpt><trkpt lat="43.3446947" lon="13.1922618"><ele>559.0</ele><time>2026-05-01T16:08:42.795Z</time></trkpt><trkpt lat="43.3447252" lon="13.1923939"><ele>559.0</ele><time>2026-05-01T16:08:43.795Z</time></trkpt><trkpt lat="43.3447604" lon="13.1925228"><ele>561.0</ele><time>2026-05-01T16:08:44.794Z</time></trkpt><trkpt lat="43.3447924" lon="13.1926427"><ele>563.0</ele><time>2026-05-01T16:08:45.796Z</time></trkpt><trkpt lat="43.344824" lon="13.1927531"><ele>565.0</ele><time>2026-05-01T16:08:46.796Z</time></trkpt><trkpt lat="43.3448434" lon="13.1928641"><ele>567.0</ele><time>2026-05-01T16:08:47.795Z</time></trkpt><trkpt lat="43.3448589" lon="13.1929771"><ele>569.0</ele><time>2026-05-01T16:08:48.795Z</time></trkpt><trkpt lat="43.3448691" lon="13.1930921"><ele>571.0</ele><time>2026-05-01T16:08:49.794Z</time></trkpt><trkpt lat="43.3448616" lon="13.1931934"><ele>571.0</ele><time>2026-05-01T16:08:50.794Z</time></trkpt><trkpt lat="43.3448242" lon="13.1932711"><ele>571.0</ele><time>2026-05-01T16:08:51.796Z</time></trkpt><trkpt lat="43.344763" lon="13.1933117"><ele>571.0</ele><time>2026-05-01T16:08:52.795Z</time></trkpt><trkpt lat="43.3446942" lon="13.1932999"><ele>571.0</ele><time>2026-05-01T16:08:53.795Z</time></trkpt><trkpt lat="43.3446312" lon="13.1932329"><ele>571.0</ele><time>2026-05-01T16:08:54.794Z</time></trkpt><trkpt lat="43.3445759" lon="13.1931368"><ele>571.0</ele><time>2026-05-01T16:08:55.795Z</time></trkpt><trkpt lat="43.3445252" lon="13.1930298"><ele>571.0</ele><time>2026-05-01T16:08:56.795Z</time></trkpt><trkpt lat="43.3444745" lon="13.1929168"><ele>571.0</ele><time>2026-05-01T16:08:57.794Z</time></trkpt><trkpt lat="43.3444138" lon="13.1928036"><ele>571.0</ele><time>2026-05-01T16:08:58.795Z</time></trkpt><trkpt lat="43.3443439" lon="13.1926858"><ele>571.0</ele><time>2026-05-01T16:08:59.795Z</time></trkpt><trkpt lat="43.3442726" lon="13.192569"><ele>571.0</ele><time>2026-05-01T16:09:00.794Z</time></trkpt><trkpt lat="43.3441987" lon="13.1924526"><ele>571.0</ele><time>2026-05-01T16:09:01.795Z</time></trkpt><trkpt lat="43.3441165" lon="13.1923543"><ele>571.0</ele><time>2026-05-01T16:09:02.794Z</time></trkpt><trkpt lat="43.3440267" lon="13.1922766"><ele>571.0</ele><time>2026-05-01T16:09:03.795Z</time></trkpt><trkpt lat="43.3439262" lon="13.1922329"><ele>571.0</ele><time>2026-05-01T16:09:04.794Z</time></trkpt><trkpt lat="43.3438241" lon="13.1922151"><ele>571.0</ele><time>2026-05-01T16:09:05.795Z</time></trkpt><trkpt lat="43.3437177" lon="13.1922149"><ele>571.6666666666667</ele><time>2026-05-01T16:09:06.795Z</time></trkpt><trkpt lat="43.3436121" lon="13.19222"><ele>572.3333333333334</ele><time>2026-05-01T16:09:07.795Z</time></trkpt><trkpt lat="43.343525" lon="13.1922108"><ele>573.0</ele><time>2026-05-01T16:09:08.794Z</time></trkpt><trkpt lat="43.3434458" lon="13.1922163"><ele>573.6666666666666</ele><time>2026-05-01T16:09:09.794Z</time></trkpt><trkpt lat="43.3433846" lon="13.192263"><ele>574.3333333333333</ele><time>2026-05-01T16:09:10.794Z</time></trkpt><trkpt lat="43.3433476" lon="13.1923927"><ele>575.0</ele><time>2026-05-01T16:09:12.795Z</time></trkpt><trkpt lat="43.3434035" lon="13.1924906"><ele>575.0</ele><time>2026-05-01T16:09:14.795Z</time></trkpt><trkpt lat="43.3435124" lon="13.1925966"><ele>575.0</ele><time>2026-05-01T16:09:16.795Z</time></trkpt><trkpt lat="43.3435772" lon="13.1926561"><ele>575.0</ele><time>2026-05-01T16:09:17.795Z</time></trkpt><trkpt lat="43.343645" lon="13.1927149"><ele>575.0</ele><time>2026-05-01T16:09:18.794Z</time></trkpt><trkpt lat="43.3437186" lon="13.1927785"><ele>575.0</ele><time>2026-05-01T16:09:19.795Z</time></trkpt><trkpt lat="43.343785" lon="13.1928458"><ele>575.0</ele><time>2026-05-01T16:09:20.795Z</time></trkpt><trkpt lat="43.3438494" lon="13.1929126"><ele>575.0</ele><time>2026-05-01T16:09:21.795Z</time></trkpt><trkpt lat="43.3439177" lon="13.1929799"><ele>575.0</ele><time>2026-05-01T16:09:22.795Z</time></trkpt><trkpt lat="43.3439815" lon="13.1930434"><ele>575.0</ele><time>2026-05-01T16:09:23.795Z</time></trkpt><trkpt lat="43.3440382" lon="13.1931008"><ele>575.0</ele><time>2026-05-01T16:09:24.794Z</time></trkpt><trkpt lat="43.3440908" lon="13.1931954"><ele>575.0</ele><time>2026-05-01T16:09:26.794Z</time></trkpt><trkpt lat="43.3440425" lon="13.1932748"><ele>575.0</ele><time>2026-05-01T16:09:29.794Z</time></trkpt><trkpt lat="43.3439789" lon="13.1932202"><ele>575.0</ele><time>2026-05-01T16:09:31.795Z</time></trkpt><trkpt lat="43.3438763" lon="13.1931124"><ele>575.0</ele><time>2026-05-01T16:09:33.794Z</time></trkpt><trkpt lat="43.3438123" lon="13.193065"><ele>575.0</ele><time>2026-05-01T16:09:34.795Z</time></trkpt><trkpt lat="43.3437372" lon="13.193034"><ele>575.0</ele><time>2026-05-01T16:09:35.795Z</time></trkpt><trkpt lat="43.3436535" lon="13.1930195"><ele>575.0</ele><time>2026-05-01T16:09:36.795Z</time></trkpt><trkpt lat="43.3435615" lon="13.1930177"><ele>575.0</ele><time>2026-05-01T16:09:37.795Z</time></trkpt><trkpt lat="43.3434587" lon="13.1930204"><ele>575.0</ele><time>2026-05-01T16:09:38.795Z</time></trkpt><trkpt lat="43.3433509" lon="13.1930292"><ele>575.0</ele><time>2026-05-01T16:09:39.794Z</time></trkpt><trkpt lat="43.3432394" lon="13.1930413"><ele>575.0</ele><time>2026-05-01T16:09:40.795Z</time></trkpt><trkpt lat="43.3431198" lon="13.1930512"><ele>575.0</ele><time>2026-05-01T16:09:41.795Z</time></trkpt><trkpt lat="43.3429959" lon="13.1930596"><ele>573.5</ele><time>2026-05-01T16:09:42.795Z</time></trkpt><trkpt lat="43.3428672" lon="13.1930807"><ele>572.0</ele><time>2026-05-01T16:09:43.795Z</time></trkpt><trkpt lat="43.3427357" lon="13.1931147"><ele>570.5</ele><time>2026-05-01T16:09:44.795Z</time></trkpt><trkpt lat="43.3426032" lon="13.1931664"><ele>569.0</ele><time>2026-05-01T16:09:45.794Z</time></trkpt><trkpt lat="43.3424742" lon="13.1932338"><ele>573.5</ele><time>2026-05-01T16:09:46.795Z</time></trkpt><trkpt lat="43.342346" lon="13.1932942"><ele>578.0</ele><time>2026-05-01T16:09:47.795Z</time></trkpt><trkpt lat="43.3422123" lon="13.1933194"><ele>582.5</ele><time>2026-05-01T16:09:48.795Z</time></trkpt><trkpt lat="43.3420787" lon="13.1933232"><ele>587.0</ele><time>2026-05-01T16:09:49.794Z</time></trkpt><trkpt lat="43.3419442" lon="13.1933146"><ele>587.0</ele><time>2026-05-01T16:09:50.795Z</time></trkpt><trkpt lat="43.3418126" lon="13.1932998"><ele>587.0</ele><time>2026-05-01T16:09:51.795Z</time></trkpt><trkpt lat="43.3416804" lon="13.1932854"><ele>587.0</ele><time>2026-05-01T16:09:52.795Z</time></trkpt><trkpt lat="43.3415462" lon="13.1932629"><ele>587.0</ele><time>2026-05-01T16:09:53.795Z</time></trkpt><trkpt lat="43.3414087" lon="13.1932359"><ele>586.25</ele><time>2026-05-01T16:09:54.795Z</time></trkpt><trkpt lat="43.3412704" lon="13.1931994"><ele>585.5</ele><time>2026-05-01T16:09:55.795Z</time></trkpt><trkpt lat="43.3411281" lon="13.1931671"><ele>584.75</ele><time>2026-05-01T16:09:56.795Z</time></trkpt><trkpt lat="43.3409831" lon="13.1931499"><ele>584.0</ele><time>2026-05-01T16:09:57.795Z</time></trkpt><trkpt lat="43.3408461" lon="13.1931443"><ele>581.25</ele><time>2026-05-01T16:09:58.794Z</time></trkpt><trkpt lat="43.3407165" lon="13.1931477"><ele>578.5</ele><time>2026-05-01T16:09:59.794Z</time></trkpt><trkpt lat="43.3405907" lon="13.1931652"><ele>575.75</ele><time>2026-05-01T16:10:00.795Z</time></trkpt><trkpt lat="43.3404687" lon="13.1931986"><ele>573.0</ele><time>2026-05-01T16:10:01.795Z</time></trkpt><trkpt lat="43.3403496" lon="13.1932412"><ele>573.0</ele><time>2026-05-01T16:10:02.794Z</time></trkpt><trkpt lat="43.3402331" lon="13.1932843"><ele>573.0</ele><time>2026-05-01T16:10:03.795Z</time></trkpt><trkpt lat="43.3401172" lon="13.1933272"><ele>573.0</ele><time>2026-05-01T16:10:04.795Z</time></trkpt><trkpt lat="43.340004" lon="13.1933699"><ele>573.0</ele><time>2026-05-01T16:10:05.794Z</time></trkpt><trkpt lat="43.3398941" lon="13.1934133"><ele>573.0</ele><time>2026-05-01T16:10:06.795Z</time></trkpt><trkpt lat="43.339791" lon="13.1934537"><ele>573.0</ele><time>2026-05-01T16:10:07.794Z</time></trkpt><trkpt lat="43.3396872" lon="13.1935008"><ele>573.0</ele><time>2026-05-01T16:10:08.795Z</time></trkpt><trkpt lat="43.339582" lon="13.1935441"><ele>573.0</ele><time>2026-05-01T16:10:09.796Z</time></trkpt><trkpt lat="43.339477" lon="13.1935863"><ele>573.0</ele><time>2026-05-01T16:10:10.794Z</time></trkpt><trkpt lat="43.3393729" lon="13.1936264"><ele>572.0</ele><time>2026-05-01T16:10:11.794Z</time></trkpt><trkpt lat="43.3392667" lon="13.1936607"><ele>571.0</ele><time>2026-05-01T16:10:12.794Z</time></trkpt><trkpt lat="43.3391584" lon="13.1936797"><ele>570.0</ele><time>2026-05-01T16:10:13.794Z</time></trkpt><trkpt lat="43.3390488" lon="13.193681"><ele>569.0</ele><time>2026-05-01T16:10:14.796Z</time></trkpt><trkpt lat="43.3389338" lon="13.1936671"><ele>568.0</ele><time>2026-05-01T16:10:15.795Z</time></trkpt><trkpt lat="43.3388183" lon="13.1936408"><ele>567.6</ele><time>2026-05-01T16:10:16.795Z</time></trkpt><trkpt lat="43.3387045" lon="13.1936114"><ele>567.1999999999999</ele><time>2026-05-01T16:10:17.795Z</time></trkpt><trkpt lat="43.3385916" lon="13.1935857"><ele>566.8</ele><time>2026-05-01T16:10:18.794Z</time></trkpt><trkpt lat="43.3384799" lon="13.1935739"><ele>566.4</ele><time>2026-05-01T16:10:19.794Z</time></trkpt><trkpt lat="43.3383745" lon="13.1935766"><ele>566.0</ele><time>2026-05-01T16:10:20.795Z</time></trkpt><trkpt lat="43.338273" lon="13.1935923"><ele>566.0</ele><time>2026-05-01T16:10:21.795Z</time></trkpt><trkpt lat="43.3381714" lon="13.1936106"><ele>566.0</ele><time>2026-05-01T16:10:22.794Z</time></trkpt><trkpt lat="43.3380698" lon="13.1936198"><ele>566.0</ele><time>2026-05-01T16:10:23.796Z</time></trkpt><trkpt lat="43.3379713" lon="13.1936102"><ele>566.0</ele><time>2026-05-01T16:10:24.795Z</time></trkpt><trkpt lat="43.3378742" lon="13.1935852"><ele>566.0</ele><time>2026-05-01T16:10:25.794Z</time></trkpt><trkpt lat="43.3377768" lon="13.1935551"><ele>566.4</ele><time>2026-05-01T16:10:26.795Z</time></trkpt><trkpt lat="43.3376774" lon="13.1935376"><ele>566.8</ele><time>2026-05-01T16:10:27.795Z</time></trkpt><trkpt lat="43.3375753" lon="13.1935447"><ele>567.1999999999999</ele><time>2026-05-01T16:10:28.795Z</time></trkpt><trkpt lat="43.3374754" lon="13.1935757"><ele>567.6</ele><time>2026-05-01T16:10:29.794Z</time></trkpt><trkpt lat="43.3373777" lon="13.1936272"><ele>568.0</ele><time>2026-05-01T16:10:30.796Z</time></trkpt><trkpt lat="43.3372847" lon="13.1936863"><ele>567.1999999999999</ele><time>2026-05-01T16:10:31.794Z</time></trkpt><trkpt lat="43.3371884" lon="13.1937431"><ele>566.4</ele><time>2026-05-01T16:10:32.795Z</time></trkpt><trkpt lat="43.3370894" lon="13.1937908"><ele>565.5999999999999</ele><time>2026-05-01T16:10:33.795Z</time></trkpt><trkpt lat="43.3369857" lon="13.1938287"><ele>564.8</ele><time>2026-05-01T16:10:34.794Z</time></trkpt><trkpt lat="43.3368816" lon="13.1938427"><ele>564.0</ele><time>2026-05-01T16:10:35.795Z</time></trkpt><trkpt lat="43.3367772" lon="13.1938294"><ele>564.0</ele><time>2026-05-01T16:10:36.794Z</time></trkpt><trkpt lat="43.3366812" lon="13.1937858"><ele>564.0</ele><time>2026-05-01T16:10:37.795Z</time></trkpt><trkpt lat="43.3365917" lon="13.1937285"><ele>564.0</ele><time>2026-05-01T16:10:38.794Z</time></trkpt><trkpt lat="43.3365023" lon="13.1936611"><ele>564.0</ele><time>2026-05-01T16:10:39.795Z</time></trkpt><trkpt lat="43.3364152" lon="13.1935904"><ele>564.0</ele><time>2026-05-01T16:10:40.795Z</time></trkpt><trkpt lat="43.3363319" lon="13.1935161"><ele>562.0</ele><time>2026-05-01T16:10:41.795Z</time></trkpt><trkpt lat="43.3362437" lon="13.1934434"><ele>560.0</ele><time>2026-05-01T16:10:42.795Z</time></trkpt><trkpt lat="43.3361544" lon="13.1933711"><ele>558.0</ele><time>2026-05-01T16:10:43.795Z</time></trkpt><trkpt lat="43.3360572" lon="13.1932996"><ele>556.0</ele><time>2026-05-01T16:10:44.794Z</time></trkpt><trkpt lat="43.3359543" lon="13.1932368"><ele>554.0</ele><time>2026-05-01T16:10:45.794Z</time></trkpt><trkpt lat="43.3358489" lon="13.1931802"><ele>554.2</ele><time>2026-05-01T16:10:46.794Z</time></trkpt><trkpt lat="43.3357447" lon="13.1931267"><ele>554.4</ele><time>2026-05-01T16:10:47.795Z</time></trkpt><trkpt lat="43.3356423" lon="13.1930705"><ele>554.6</ele><time>2026-05-01T16:10:48.795Z</time></trkpt><trkpt lat="43.3355417" lon="13.1930206"><ele>554.8</ele><time>2026-05-01T16:10:49.794Z</time></trkpt><trkpt lat="43.3354412" lon="13.1929736"><ele>555.0</ele><time>2026-05-01T16:10:50.795Z</time></trkpt><trkpt lat="43.3353429" lon="13.1929337"><ele>555.0</ele><time>2026-05-01T16:10:51.794Z</time></trkpt><trkpt lat="43.335244" lon="13.1929118"><ele>555.0</ele><time>2026-05-01T16:10:52.794Z</time></trkpt><trkpt lat="43.3351422" lon="13.1929035"><ele>555.0</ele><time>2026-05-01T16:10:53.795Z</time></trkpt><trkpt lat="43.3350366" lon="13.1929143"><ele>555.0</ele><time>2026-05-01T16:10:54.795Z</time></trkpt><trkpt lat="43.3349277" lon="13.1929365"><ele>555.0</ele><time>2026-05-01T16:10:55.794Z</time></trkpt><trkpt lat="43.3348196" lon="13.1929609"><ele>554.0</ele><time>2026-05-01T16:10:56.795Z</time></trkpt><trkpt lat="43.3347074" lon="13.1929879"><ele>553.0</ele><time>2026-05-01T16:10:57.795Z</time></trkpt><trkpt lat="43.3345952" lon="13.1930174"><ele>552.0</ele><time>2026-05-01T16:10:58.795Z</time></trkpt><trkpt lat="43.334483" lon="13.1930417"><ele>551.0</ele><time>2026-05-01T16:10:59.795Z</time></trkpt><trkpt lat="43.3343723" lon="13.1930612"><ele>551.0</ele><time>2026-05-01T16:11:00.794Z</time></trkpt><trkpt lat="43.3342584" lon="13.1930858"><ele>551.0</ele><time>2026-05-01T16:11:01.795Z</time></trkpt><trkpt lat="43.3341445" lon="13.1931091"><ele>551.0</ele><time>2026-05-01T16:11:02.794Z</time></trkpt><trkpt lat="43.334028" lon="13.193131"><ele>551.0</ele><time>2026-05-01T16:11:03.795Z</time></trkpt><trkpt lat="43.3339175" lon="13.1931562"><ele>549.5</ele><time>2026-05-01T16:11:04.795Z</time></trkpt><trkpt lat="43.3338015" lon="13.1931817"><ele>548.0</ele><time>2026-05-01T16:11:05.795Z</time></trkpt><trkpt lat="43.3336831" lon="13.1932046"><ele>546.5</ele><time>2026-05-01T16:11:06.795Z</time></trkpt><trkpt lat="43.3335639" lon="13.1932286"><ele>545.0</ele><time>2026-05-01T16:11:07.794Z</time></trkpt><trkpt lat="43.3334426" lon="13.1932561"><ele>545.0</ele><time>2026-05-01T16:11:08.795Z</time></trkpt><trkpt lat="43.3333218" lon="13.1932799"><ele>545.0</ele><time>2026-05-01T16:11:09.796Z</time></trkpt><trkpt lat="43.3331999" lon="13.1932976"><ele>545.0</ele><time>2026-05-01T16:11:10.796Z</time></trkpt><trkpt lat="43.3330781" lon="13.1933033"><ele>545.0</ele><time>2026-05-01T16:11:11.794Z</time></trkpt><trkpt lat="43.3329556" lon="13.1932896"><ele>544.25</ele><time>2026-05-01T16:11:12.795Z</time></trkpt><trkpt lat="43.332837" lon="13.1932566"><ele>543.5</ele><time>2026-05-01T16:11:13.796Z</time></trkpt><trkpt lat="43.3327176" lon="13.19322"><ele>542.75</ele><time>2026-05-01T16:11:14.794Z</time></trkpt><trkpt lat="43.3325966" lon="13.1931745"><ele>542.0</ele><time>2026-05-01T16:11:15.795Z</time></trkpt><trkpt lat="43.332473" lon="13.1931288"><ele>540.5</ele><time>2026-05-01T16:11:16.795Z</time></trkpt><trkpt lat="43.3323514" lon="13.1930785"><ele>539.0</ele><time>2026-05-01T16:11:17.794Z</time></trkpt><trkpt lat="43.3322299" lon="13.1930266"><ele>537.5</ele><time>2026-05-01T16:11:18.794Z</time></trkpt><trkpt lat="43.3321025" lon="13.192973"><ele>536.0</ele><time>2026-05-01T16:11:19.794Z</time></trkpt><trkpt lat="43.3319709" lon="13.1929202"><ele>536.0</ele><time>2026-05-01T16:11:20.794Z</time></trkpt><trkpt lat="43.3318377" lon="13.1928622"><ele>536.0</ele><time>2026-05-01T16:11:21.794Z</time></trkpt><trkpt lat="43.3317048" lon="13.1928023"><ele>536.0</ele><time>2026-05-01T16:11:22.794Z</time></trkpt><trkpt lat="43.3315644" lon="13.1927434"><ele>536.0</ele><time>2026-05-01T16:11:23.795Z</time></trkpt><trkpt lat="43.3314246" lon="13.1926829"><ele>536.75</ele><time>2026-05-01T16:11:24.794Z</time></trkpt><trkpt lat="43.3312904" lon="13.1926167"><ele>537.5</ele><time>2026-05-01T16:11:25.794Z</time></trkpt><trkpt lat="43.3311646" lon="13.1925547"><ele>538.25</ele><time>2026-05-01T16:11:26.794Z</time></trkpt><trkpt lat="43.3310373" lon="13.1925008"><ele>539.0</ele><time>2026-05-01T16:11:27.794Z</time></trkpt><trkpt lat="43.3309165" lon="13.1924499"><ele>539.0</ele><time>2026-05-01T16:11:28.795Z</time></trkpt><trkpt lat="43.3307989" lon="13.1924027"><ele>539.0</ele><time>2026-05-01T16:11:29.794Z</time></trkpt><trkpt lat="43.3306811" lon="13.1923714"><ele>539.0</ele><time>2026-05-01T16:11:30.795Z</time></trkpt><trkpt lat="43.3305604" lon="13.1923711"><ele>539.0</ele><time>2026-05-01T16:11:31.795Z</time></trkpt><trkpt lat="43.3304421" lon="13.1924086"><ele>541.0</ele><time>2026-05-01T16:11:32.794Z</time></trkpt><trkpt lat="43.3303315" lon="13.1924829"><ele>543.0</ele><time>2026-05-01T16:11:33.795Z</time></trkpt><trkpt lat="43.3302279" lon="13.1925783"><ele>545.0</ele><time>2026-05-01T16:11:34.795Z</time></trkpt><trkpt lat="43.3301325" lon="13.1926899"><ele>547.0</ele><time>2026-05-01T16:11:35.795Z</time></trkpt><trkpt lat="43.3300504" lon="13.1928159"><ele>547.0</ele><time>2026-05-01T16:11:36.794Z</time></trkpt><trkpt lat="43.329985" lon="13.1929604"><ele>547.0</ele><time>2026-05-01T16:11:37.795Z</time></trkpt><trkpt lat="43.3299356" lon="13.1931153"><ele>547.0</ele><time>2026-05-01T16:11:38.795Z</time></trkpt><trkpt lat="43.329891" lon="13.1932707"><ele>547.0</ele><time>2026-05-01T16:11:39.794Z</time></trkpt><trkpt lat="43.3298376" lon="13.1934218"><ele>548.0</ele><time>2026-05-01T16:11:40.796Z</time></trkpt><trkpt lat="43.3297635" lon="13.193562"><ele>549.0</ele><time>2026-05-01T16:11:41.795Z</time></trkpt><trkpt lat="43.3296597" lon="13.1936777"><ele>550.0</ele><time>2026-05-01T16:11:42.794Z</time></trkpt><trkpt lat="43.3295346" lon="13.1937676"><ele>551.0</ele><time>2026-05-01T16:11:43.796Z</time></trkpt><trkpt lat="43.3293956" lon="13.1938248"><ele>551.0</ele><time>2026-05-01T16:11:44.794Z</time></trkpt><trkpt lat="43.3292566" lon="13.1938338"><ele>551.0</ele><time>2026-05-01T16:11:45.795Z</time></trkpt><trkpt lat="43.3291376" lon="13.193791"><ele>551.0</ele><time>2026-05-01T16:11:46.795Z</time></trkpt><trkpt lat="43.3290425" lon="13.1936966"><ele>551.0</ele><time>2026-05-01T16:11:47.795Z</time></trkpt><trkpt lat="43.3289689" lon="13.1935752"><ele>551.0</ele><time>2026-05-01T16:11:48.795Z</time></trkpt><trkpt lat="43.3288993" lon="13.1934443"><ele>551.0</ele><time>2026-05-01T16:11:49.796Z</time></trkpt><trkpt lat="43.3288203" lon="13.1933353"><ele>551.0</ele><time>2026-05-01T16:11:50.794Z</time></trkpt><trkpt lat="43.3287326" lon="13.1932429"><ele>551.0</ele><time>2026-05-01T16:11:51.795Z</time></trkpt><trkpt lat="43.3286298" lon="13.1931806"><ele>550.75</ele><time>2026-05-01T16:11:52.795Z</time></trkpt><trkpt lat="43.3285164" lon="13.193131"><ele>550.5</ele><time>2026-05-01T16:11:53.795Z</time></trkpt><trkpt lat="43.3283937" lon="13.1930857"><ele>550.25</ele><time>2026-05-01T16:11:54.795Z</time></trkpt><trkpt lat="43.3282725" lon="13.1930266"><ele>550.0</ele><time>2026-05-01T16:11:55.795Z</time></trkpt><trkpt lat="43.3281708" lon="13.1929272"><ele>550.0</ele><time>2026-05-01T16:11:56.795Z</time></trkpt><trkpt lat="43.328089" lon="13.1927922"><ele>550.0</ele><time>2026-05-01T16:11:57.794Z</time></trkpt><trkpt lat="43.3280256" lon="13.192633"><ele>550.0</ele><time>2026-05-01T16:11:58.794Z</time></trkpt><trkpt lat="43.3279729" lon="13.1924526"><ele>550.0</ele><time>2026-05-01T16:11:59.795Z</time></trkpt><trkpt lat="43.327915" lon="13.1922544"><ele>546.3333333333334</ele><time>2026-05-01T16:12:00.794Z</time></trkpt><trkpt lat="43.3278411" lon="13.192046"><ele>542.6666666666666</ele><time>2026-05-01T16:12:01.794Z</time></trkpt><trkpt lat="43.3277677" lon="13.1918405"><ele>539.0</ele><time>2026-05-01T16:12:02.794Z</time></trkpt><trkpt lat="43.3276833" lon="13.191647"><ele>541.0</ele><time>2026-05-01T16:12:03.795Z</time></trkpt><trkpt lat="43.3275865" lon="13.1914671"><ele>543.0</ele><time>2026-05-01T16:12:04.795Z</time></trkpt><trkpt lat="43.3274844" lon="13.1912929"><ele>545.0</ele><time>2026-05-01T16:12:05.795Z</time></trkpt><trkpt lat="43.3273814" lon="13.1911269"><ele>545.0</ele><time>2026-05-01T16:12:06.794Z</time></trkpt><trkpt lat="43.3272735" lon="13.1909773"><ele>545.0</ele><time>2026-05-01T16:12:07.794Z</time></trkpt><trkpt lat="43.32716" lon="13.1908445"><ele>545.0</ele><time>2026-05-01T16:12:08.796Z</time></trkpt><trkpt lat="43.3270464" lon="13.1907145"><ele>543.75</ele><time>2026-05-01T16:12:09.794Z</time></trkpt><trkpt lat="43.3269332" lon="13.190591"><ele>542.5</ele><time>2026-05-01T16:12:10.794Z</time></trkpt><trkpt lat="43.3268174" lon="13.1904746"><ele>541.25</ele><time>2026-05-01T16:12:11.796Z</time></trkpt><trkpt lat="43.3266997" lon="13.1903599"><ele>540.0</ele><time>2026-05-01T16:12:12.794Z</time></trkpt><trkpt lat="43.3265805" lon="13.1902484"><ele>540.0</ele><time>2026-05-01T16:12:13.795Z</time></trkpt><trkpt lat="43.3264641" lon="13.1901334"><ele>540.0</ele><time>2026-05-01T16:12:14.794Z</time></trkpt><trkpt lat="43.326345" lon="13.190017"><ele>540.0</ele><time>2026-05-01T16:12:15.795Z</time></trkpt><trkpt lat="43.3262223" lon="13.1898991"><ele>540.0</ele><time>2026-05-01T16:12:16.795Z</time></trkpt><trkpt lat="43.3260983" lon="13.1897816"><ele>538.3333333333334</ele><time>2026-05-01T16:12:17.795Z</time></trkpt><trkpt lat="43.325965" lon="13.1896775"><ele>536.6666666666667</ele><time>2026-05-01T16:12:18.795Z</time></trkpt><trkpt lat="43.3258242" lon="13.1895965"><ele>535.0</ele><time>2026-05-01T16:12:19.794Z</time></trkpt><trkpt lat="43.325679" lon="13.1895371"><ele>533.0</ele><time>2026-05-01T16:12:20.794Z</time></trkpt><trkpt lat="43.3255366" lon="13.1894857"><ele>531.0</ele><time>2026-05-01T16:12:21.795Z</time></trkpt><trkpt lat="43.3253943" lon="13.1894368"><ele>529.0</ele><time>2026-05-01T16:12:22.795Z</time></trkpt><trkpt lat="43.3252612" lon="13.1893853"><ele>527.0</ele><time>2026-05-01T16:12:23.795Z</time></trkpt><trkpt lat="43.3251383" lon="13.1893457"><ele>527.0</ele><time>2026-05-01T16:12:24.795Z</time></trkpt><trkpt lat="43.3250203" lon="13.1893224"><ele>527.0</ele><time>2026-05-01T16:12:25.795Z</time></trkpt><trkpt lat="43.3249067" lon="13.1893026"><ele>527.0</ele><time>2026-05-01T16:12:26.795Z</time></trkpt><trkpt lat="43.3247989" lon="13.1892749"><ele>527.0</ele><time>2026-05-01T16:12:27.795Z</time></trkpt><trkpt lat="43.3246959" lon="13.1892363"><ele>525.0</ele><time>2026-05-01T16:12:28.795Z</time></trkpt><trkpt lat="43.3245978" lon="13.189183"><ele>523.0</ele><time>2026-05-01T16:12:29.795Z</time></trkpt><trkpt lat="43.3245115" lon="13.1891011"><ele>521.0</ele><time>2026-05-01T16:12:30.795Z</time></trkpt><trkpt lat="43.3244433" lon="13.1889967"><ele>519.0</ele><time>2026-05-01T16:12:31.796Z</time></trkpt><trkpt lat="43.3243959" lon="13.1888763"><ele>517.0</ele><time>2026-05-01T16:12:32.794Z</time></trkpt><trkpt lat="43.3243562" lon="13.1887519"><ele>517.0</ele><time>2026-05-01T16:12:33.795Z</time></trkpt><trkpt lat="43.3243143" lon="13.1886338"><ele>517.0</ele><time>2026-05-01T16:12:34.795Z</time></trkpt><trkpt lat="43.324257" lon="13.1885253"><ele>517.0</ele><time>2026-05-01T16:12:35.796Z</time></trkpt><trkpt lat="43.3241836" lon="13.1884353"><ele>517.0</ele><time>2026-05-01T16:12:36.795Z</time></trkpt><trkpt lat="43.3240941" lon="13.188359"><ele>517.0</ele><time>2026-05-01T16:12:37.794Z</time></trkpt><trkpt lat="43.3239976" lon="13.1882873"><ele>517.0</ele><time>2026-05-01T16:12:38.794Z</time></trkpt><trkpt lat="43.3239005" lon="13.1882192"><ele>517.0</ele><time>2026-05-01T16:12:39.796Z</time></trkpt><trkpt lat="43.3238021" lon="13.1881527"><ele>517.0</ele><time>2026-05-01T16:12:40.795Z</time></trkpt><trkpt lat="43.3237092" lon="13.1880829"><ele>517.0</ele><time>2026-05-01T16:12:41.795Z</time></trkpt><trkpt lat="43.3236181" lon="13.1879955"><ele>517.0</ele><time>2026-05-01T16:12:42.795Z</time></trkpt><trkpt lat="43.3235373" lon="13.1878846"><ele>516.2</ele><time>2026-05-01T16:12:43.795Z</time></trkpt><trkpt lat="43.3234732" lon="13.1877566"><ele>515.4000000000001</ele><time>2026-05-01T16:12:44.794Z</time></trkpt><trkpt lat="43.3234165" lon="13.1876201"><ele>514.5999999999999</ele><time>2026-05-01T16:12:45.795Z</time></trkpt><trkpt lat="43.323352" lon="13.1874992"><ele>513.8</ele><time>2026-05-01T16:12:46.795Z</time></trkpt><trkpt lat="43.3232718" lon="13.1874038"><ele>513.0</ele><time>2026-05-01T16:12:47.794Z</time></trkpt><trkpt lat="43.3231733" lon="13.1873372"><ele>513.0</ele><time>2026-05-01T16:12:48.795Z</time></trkpt><trkpt lat="43.3230668" lon="13.1873081"><ele>513.0</ele><time>2026-05-01T16:12:49.794Z</time></trkpt><trkpt lat="43.3229549" lon="13.1872867"><ele>513.0</ele><time>2026-05-01T16:12:50.795Z</time></trkpt><trkpt lat="43.3228396" lon="13.1872619"><ele>513.0</ele><time>2026-05-01T16:12:51.794Z</time></trkpt><trkpt lat="43.3227215" lon="13.1872421"><ele>511.0</ele><time>2026-05-01T16:12:52.795Z</time></trkpt><trkpt lat="43.322601" lon="13.1872191"><ele>509.0</ele><time>2026-05-01T16:12:53.794Z</time></trkpt><trkpt lat="43.3224802" lon="13.1871983"><ele>507.0</ele><time>2026-05-01T16:12:54.795Z</time></trkpt><trkpt lat="43.3223573" lon="13.1871787"><ele>505.0</ele><time>2026-05-01T16:12:55.795Z</time></trkpt><trkpt lat="43.322235" lon="13.1871634"><ele>504.75</ele><time>2026-05-01T16:12:56.794Z</time></trkpt><trkpt lat="43.3221125" lon="13.1871479"><ele>504.5</ele><time>2026-05-01T16:12:57.795Z</time></trkpt><trkpt lat="43.3219909" lon="13.1871282"><ele>504.25</ele><time>2026-05-01T16:12:58.795Z</time></trkpt><trkpt lat="43.3218686" lon="13.1871053"><ele>504.0</ele><time>2026-05-01T16:12:59.796Z</time></trkpt><trkpt lat="43.3217474" lon="13.1870711"><ele>504.0</ele><time>2026-05-01T16:13:00.795Z</time></trkpt><trkpt lat="43.3216335" lon="13.1870069"><ele>504.0</ele><time>2026-05-01T16:13:01.796Z</time></trkpt><trkpt lat="43.3215257" lon="13.1869154"><ele>504.0</ele><time>2026-05-01T16:13:02.795Z</time></trkpt><trkpt lat="43.3214293" lon="13.1868013"><ele>504.0</ele><time>2026-05-01T16:13:03.795Z</time></trkpt><trkpt lat="43.3213376" lon="13.1866647"><ele>504.75</ele><time>2026-05-01T16:13:04.795Z</time></trkpt><trkpt lat="43.3212428" lon="13.1865162"><ele>505.5</ele><time>2026-05-01T16:13:05.795Z</time></trkpt><trkpt lat="43.3211513" lon="13.1863546"><ele>506.25</ele><time>2026-05-01T16:13:06.795Z</time></trkpt><trkpt lat="43.3210682" lon="13.1861809"><ele>507.0</ele><time>2026-05-01T16:13:07.794Z</time></trkpt><trkpt lat="43.3209983" lon="13.1859911"><ele>507.0</ele><time>2026-05-01T16:13:08.795Z</time></trkpt><trkpt lat="43.3209425" lon="13.1857963"><ele>507.0</ele><time>2026-05-01T16:13:09.794Z</time></trkpt><trkpt lat="43.3208908" lon="13.1855986"><ele>507.0</ele><time>2026-05-01T16:13:10.794Z</time></trkpt><trkpt lat="43.3208281" lon="13.1854085"><ele>505.66666666666663</ele><time>2026-05-01T16:13:11.794Z</time></trkpt><trkpt lat="43.3207526" lon="13.1852235"><ele>504.3333333333333</ele><time>2026-05-01T16:13:12.794Z</time></trkpt><trkpt lat="43.3206726" lon="13.1850426"><ele>503.0</ele><time>2026-05-01T16:13:13.795Z</time></trkpt><trkpt lat="43.3205889" lon="13.1848734"><ele>502.5</ele><time>2026-05-01T16:13:14.794Z</time></trkpt><trkpt lat="43.3205039" lon="13.1847158"><ele>502.0</ele><time>2026-05-01T16:13:15.795Z</time></trkpt><trkpt lat="43.3204122" lon="13.1845715"><ele>501.5</ele><time>2026-05-01T16:13:16.794Z</time></trkpt><trkpt lat="43.3203096" lon="13.1844548"><ele>501.0</ele><time>2026-05-01T16:13:17.794Z</time></trkpt><trkpt lat="43.3201875" lon="13.1843692"><ele>501.0</ele><time>2026-05-01T16:13:18.795Z</time></trkpt><trkpt lat="43.3200532" lon="13.1843189"><ele>501.0</ele><time>2026-05-01T16:13:19.795Z</time></trkpt><trkpt lat="43.3199096" lon="13.184295"><ele>501.0</ele><time>2026-05-01T16:13:20.795Z</time></trkpt><trkpt lat="43.3197583" lon="13.1842835"><ele>501.0</ele><time>2026-05-01T16:13:21.795Z</time></trkpt><trkpt lat="43.3196036" lon="13.1842707"><ele>501.0</ele><time>2026-05-01T16:13:22.795Z</time></trkpt><trkpt lat="43.3194502" lon="13.184256"><ele>501.0</ele><time>2026-05-01T16:13:23.794Z</time></trkpt><trkpt lat="43.3192939" lon="13.184242"><ele>501.0</ele><time>2026-05-01T16:13:24.795Z</time></trkpt><trkpt lat="43.3191432" lon="13.1842319"><ele>501.0</ele><time>2026-05-01T16:13:25.795Z</time></trkpt><trkpt lat="43.3189959" lon="13.1842255"><ele>501.0</ele><time>2026-05-01T16:13:26.794Z</time></trkpt><trkpt lat="43.3188577" lon="13.1842066"><ele>501.0</ele><time>2026-05-01T16:13:27.795Z</time></trkpt><trkpt lat="43.3187395" lon="13.1841623"><ele>501.0</ele><time>2026-05-01T16:13:28.794Z</time></trkpt><trkpt lat="43.318647" lon="13.1840812"><ele>501.0</ele><time>2026-05-01T16:13:29.794Z</time></trkpt><trkpt lat="43.3185793" lon="13.1839498"><ele>501.0</ele><time>2026-05-01T16:13:30.795Z</time></trkpt><trkpt lat="43.3185423" lon="13.1837931"><ele>501.0</ele><time>2026-05-01T16:13:31.795Z</time></trkpt><trkpt lat="43.318522" lon="13.1836267"><ele>501.0</ele><time>2026-05-01T16:13:32.795Z</time></trkpt><trkpt lat="43.3184984" lon="13.1834507"><ele>501.0</ele><time>2026-05-01T16:13:33.795Z</time></trkpt><trkpt lat="43.31845" lon="13.1832774"><ele>501.0</ele><time>2026-05-01T16:13:34.795Z</time></trkpt><trkpt lat="43.3183861" lon="13.1831128"><ele>501.0</ele><time>2026-05-01T16:13:35.795Z</time></trkpt><trkpt lat="43.3183042" lon="13.182961"><ele>501.0</ele><time>2026-05-01T16:13:36.795Z</time></trkpt><trkpt lat="43.318205" lon="13.1828261"><ele>501.0</ele><time>2026-05-01T16:13:37.795Z</time></trkpt><trkpt lat="43.3180899" lon="13.1827143"><ele>501.0</ele><time>2026-05-01T16:13:38.796Z</time></trkpt><trkpt lat="43.3179579" lon="13.1826257"><ele>501.0</ele><time>2026-05-01T16:13:39.795Z</time></trkpt><trkpt lat="43.3178154" lon="13.1825473"><ele>501.0</ele><time>2026-05-01T16:13:40.794Z</time></trkpt><trkpt lat="43.3176741" lon="13.1824691"><ele>501.0</ele><time>2026-05-01T16:13:41.796Z</time></trkpt><trkpt lat="43.3175338" lon="13.1823951"><ele>501.0</ele><time>2026-05-01T16:13:42.795Z</time></trkpt><trkpt lat="43.317398" lon="13.1823295"><ele>501.0</ele><time>2026-05-01T16:13:43.795Z</time></trkpt><trkpt lat="43.3172655" lon="13.1822637"><ele>501.0</ele><time>2026-05-01T16:13:44.795Z</time></trkpt><trkpt lat="43.3171369" lon="13.1821832"><ele>498.25</ele><time>2026-05-01T16:13:45.794Z</time></trkpt><trkpt lat="43.317025" lon="13.1820731"><ele>495.5</ele><time>2026-05-01T16:13:46.795Z</time></trkpt><trkpt lat="43.3169319" lon="13.1819429"><ele>492.75</ele><time>2026-05-01T16:13:47.796Z</time></trkpt><trkpt lat="43.3168403" lon="13.1818151"><ele>490.0</ele><time>2026-05-01T16:13:48.795Z</time></trkpt><trkpt lat="43.3167258" lon="13.1817179"><ele>490.0</ele><time>2026-05-01T16:13:49.794Z</time></trkpt><trkpt lat="43.3165955" lon="13.1816594"><ele>490.0</ele><time>2026-05-01T16:13:50.794Z</time></trkpt><trkpt lat="43.316456" lon="13.1816388"><ele>490.0</ele><time>2026-05-01T16:13:51.794Z</time></trkpt><trkpt lat="43.3163097" lon="13.1816446"><ele>490.0</ele><time>2026-05-01T16:13:52.795Z</time></trkpt><trkpt lat="43.3161617" lon="13.1816433"><ele>490.25</ele><time>2026-05-01T16:13:53.794Z</time></trkpt><trkpt lat="43.3160174" lon="13.1816345"><ele>490.5</ele><time>2026-05-01T16:13:54.795Z</time></trkpt><trkpt lat="43.3158793" lon="13.1816348"><ele>490.75</ele><time>2026-05-01T16:13:55.795Z</time></trkpt><trkpt lat="43.3157441" lon="13.1816445"><ele>491.0</ele><time>2026-05-01T16:13:56.795Z</time></trkpt><trkpt lat="43.3156113" lon="13.1816804"><ele>491.0</ele><time>2026-05-01T16:13:57.794Z</time></trkpt><trkpt lat="43.3154875" lon="13.1817495"><ele>491.0</ele><time>2026-05-01T16:13:58.796Z</time></trkpt><trkpt lat="43.3153697" lon="13.1818335"><ele>491.0</ele><time>2026-05-01T16:13:59.794Z</time></trkpt><trkpt lat="43.3152519" lon="13.1819222"><ele>491.0</ele><time>2026-05-01T16:14:00.795Z</time></trkpt><trkpt lat="43.3151382" lon="13.1819925"><ele>490.99999999999994</ele><time>2026-05-01T16:14:01.795Z</time></trkpt><trkpt lat="43.3150346" lon="13.1820411"><ele>491.0</ele><time>2026-05-01T16:14:02.794Z</time></trkpt><trkpt lat="43.3149448" lon="13.1820435"><ele>491.0</ele><time>2026-05-01T16:14:03.795Z</time></trkpt><trkpt lat="43.314871" lon="13.1819987"><ele>491.0</ele><time>2026-05-01T16:14:04.796Z</time></trkpt><trkpt lat="43.3148322" lon="13.1819015"><ele>490.99999999999994</ele><time>2026-05-01T16:14:05.795Z</time></trkpt><trkpt lat="43.3148348" lon="13.1817812"><ele>491.0</ele><time>2026-05-01T16:14:06.796Z</time></trkpt><trkpt lat="43.3148591" lon="13.1816539"><ele>491.0</ele><time>2026-05-01T16:14:07.795Z</time></trkpt><trkpt lat="43.3148823" lon="13.1815182"><ele>491.0</ele><time>2026-05-01T16:14:08.795Z</time></trkpt><trkpt lat="43.314889" lon="13.1813741"><ele>491.0</ele><time>2026-05-01T16:14:09.794Z</time></trkpt><trkpt lat="43.3148657" lon="13.1812242"><ele>491.0</ele><time>2026-05-01T16:14:10.795Z</time></trkpt><trkpt lat="43.3148273" lon="13.1810816"><ele>491.0</ele><time>2026-05-01T16:14:11.794Z</time></trkpt><trkpt lat="43.3147873" lon="13.1809199"><ele>488.0</ele><time>2026-05-01T16:14:12.794Z</time></trkpt><trkpt lat="43.3147601" lon="13.1807552"><ele>485.0</ele><time>2026-05-01T16:14:13.796Z</time></trkpt><trkpt lat="43.3147453" lon="13.1805908"><ele>482.0</ele><time>2026-05-01T16:14:14.795Z</time></trkpt><trkpt lat="43.314738" lon="13.1804321"><ele>479.0</ele><time>2026-05-01T16:14:15.795Z</time></trkpt><trkpt lat="43.3147344" lon="13.1802751"><ele>479.0</ele><time>2026-05-01T16:14:16.794Z</time></trkpt><trkpt lat="43.3147183" lon="13.1801213"><ele>479.0</ele><time>2026-05-01T16:14:17.794Z</time></trkpt><trkpt lat="43.3146859" lon="13.1799736"><ele>479.0</ele><time>2026-05-01T16:14:18.795Z</time></trkpt><trkpt lat="43.3146323" lon="13.1798375"><ele>479.0</ele><time>2026-05-01T16:14:19.796Z</time></trkpt><trkpt lat="43.3145534" lon="13.1797147"><ele>476.5</ele><time>2026-05-01T16:14:20.794Z</time></trkpt><trkpt lat="43.3144607" lon="13.1795998"><ele>474.0</ele><time>2026-05-01T16:14:21.795Z</time></trkpt><trkpt lat="43.3143617" lon="13.1794923"><ele>471.5</ele><time>2026-05-01T16:14:22.795Z</time></trkpt><trkpt lat="43.3142527" lon="13.1793898"><ele>469.0</ele><time>2026-05-01T16:14:23.794Z</time></trkpt><trkpt lat="43.3141412" lon="13.1792863"><ele>469.0</ele><time>2026-05-01T16:14:24.795Z</time></trkpt><trkpt lat="43.3140287" lon="13.1791766"><ele>469.0</ele><time>2026-05-01T16:14:25.795Z</time></trkpt><trkpt lat="43.3139092" lon="13.1790673"><ele>469.0</ele><time>2026-05-01T16:14:26.795Z</time></trkpt><trkpt lat="43.3137956" lon="13.1789505"><ele>469.0</ele><time>2026-05-01T16:14:27.796Z</time></trkpt><trkpt lat="43.313677" lon="13.1788319"><ele>468.25</ele><time>2026-05-01T16:14:28.795Z</time></trkpt><trkpt lat="43.3135634" lon="13.1787067"><ele>467.5</ele><time>2026-05-01T16:14:29.795Z</time></trkpt><trkpt lat="43.3134493" lon="13.1785771"><ele>466.75</ele><time>2026-05-01T16:14:30.795Z</time></trkpt><trkpt lat="43.3133373" lon="13.1784459"><ele>466.0</ele><time>2026-05-01T16:14:31.795Z</time></trkpt><trkpt lat="43.3132282" lon="13.1783167"><ele>466.0</ele><time>2026-05-01T16:14:32.794Z</time></trkpt><trkpt lat="43.3131171" lon="13.178191"><ele>466.0</ele><time>2026-05-01T16:14:33.795Z</time></trkpt><trkpt lat="43.3130113" lon="13.1780685"><ele>466.0</ele><time>2026-05-01T16:14:34.795Z</time></trkpt><trkpt lat="43.3129118" lon="13.1779511"><ele>466.0</ele><time>2026-05-01T16:14:35.795Z</time></trkpt><trkpt lat="43.312818" lon="13.1778404"><ele>466.25</ele><time>2026-05-01T16:14:36.795Z</time></trkpt><trkpt lat="43.3127169" lon="13.1777513"><ele>466.5</ele><time>2026-05-01T16:14:37.794Z</time></trkpt><trkpt lat="43.3126069" lon="13.1776975"><ele>466.75</ele><time>2026-05-01T16:14:38.796Z</time></trkpt><trkpt lat="43.3124937" lon="13.1776677"><ele>467.0</ele><time>2026-05-01T16:14:39.794Z</time></trkpt><trkpt lat="43.3123806" lon="13.1776464"><ele>467.0</ele><time>2026-05-01T16:14:40.794Z</time></trkpt><trkpt lat="43.3122708" lon="13.1776458"><ele>467.00000000000006</ele><time>2026-05-01T16:14:41.794Z</time></trkpt><trkpt lat="43.3121643" lon="13.1776657"><ele>467.00000000000006</ele><time>2026-05-01T16:14:42.793Z</time></trkpt><trkpt lat="43.3120589" lon="13.1776682"><ele>467.0</ele><time>2026-05-01T16:14:43.795Z</time></trkpt><trkpt lat="43.311964" lon="13.1776279"><ele>467.0</ele><time>2026-05-01T16:14:44.794Z</time></trkpt><trkpt lat="43.3118748" lon="13.1775576"><ele>466.99999999999994</ele><time>2026-05-01T16:14:45.795Z</time></trkpt><trkpt lat="43.3118057" lon="13.1774588"><ele>467.0</ele><time>2026-05-01T16:14:46.795Z</time></trkpt><trkpt lat="43.3117484" lon="13.1773619"><ele>467.0</ele><time>2026-05-01T16:14:47.795Z</time></trkpt><trkpt lat="43.3116803" lon="13.1772939"><ele>467.0</ele><time>2026-05-01T16:14:48.794Z</time></trkpt><trkpt lat="43.3116044" lon="13.1772771"><ele>466.99999999999994</ele><time>2026-05-01T16:14:49.796Z</time></trkpt><trkpt lat="43.3115403" lon="13.177317"><ele>467.0</ele><time>2026-05-01T16:14:50.795Z</time></trkpt><trkpt lat="43.3114867" lon="13.177395"><ele>465.66666666666663</ele><time>2026-05-01T16:14:51.795Z</time></trkpt><trkpt lat="43.3114397" lon="13.1774859"><ele>464.3333333333333</ele><time>2026-05-01T16:14:52.794Z</time></trkpt><trkpt lat="43.3113911" lon="13.1775728"><ele>463.0</ele><time>2026-05-01T16:14:53.796Z</time></trkpt><trkpt lat="43.3113453" lon="13.1776601"><ele>461.66666666666663</ele><time>2026-05-01T16:14:54.794Z</time></trkpt><trkpt lat="43.3112934" lon="13.1777403"><ele>460.3333333333333</ele><time>2026-05-01T16:14:55.794Z</time></trkpt><trkpt lat="43.3112379" lon="13.1778154"><ele>459.0</ele><time>2026-05-01T16:14:56.795Z</time></trkpt><trkpt lat="43.3111763" lon="13.177878"><ele>457.3333333333333</ele><time>2026-05-01T16:14:57.794Z</time></trkpt><trkpt lat="43.3111063" lon="13.1779166"><ele>455.66666666666663</ele><time>2026-05-01T16:14:58.795Z</time></trkpt><trkpt lat="43.3110322" lon="13.1779409"><ele>454.0</ele><time>2026-05-01T16:14:59.794Z</time></trkpt><trkpt lat="43.3109503" lon="13.1779508"><ele>452.3333333333333</ele><time>2026-05-01T16:15:00.795Z</time></trkpt><trkpt lat="43.3108669" lon="13.1779653"><ele>450.66666666666663</ele><time>2026-05-01T16:15:01.796Z</time></trkpt><trkpt lat="43.3107794" lon="13.177988"><ele>449.0</ele><time>2026-05-01T16:15:02.796Z</time></trkpt><trkpt lat="43.3106911" lon="13.178025"><ele>449.0</ele><time>2026-05-01T16:15:03.795Z</time></trkpt><trkpt lat="43.3105959" lon="13.178062"><ele>449.0</ele><time>2026-05-01T16:15:04.795Z</time></trkpt><trkpt lat="43.3104979" lon="13.1781058"><ele>449.0</ele><time>2026-05-01T16:15:05.795Z</time></trkpt><trkpt lat="43.3103962" lon="13.1781533"><ele>449.0</ele><time>2026-05-01T16:15:06.794Z</time></trkpt><trkpt lat="43.310296" lon="13.1781987"><ele>449.0</ele><time>2026-05-01T16:15:07.794Z</time></trkpt><trkpt lat="43.3101937" lon="13.1782502"><ele>448.0</ele><time>2026-05-01T16:15:08.794Z</time></trkpt><trkpt lat="43.3100927" lon="13.1783032"><ele>447.0</ele><time>2026-05-01T16:15:09.794Z</time></trkpt><trkpt lat="43.309987" lon="13.1783589"><ele>446.0</ele><time>2026-05-01T16:15:10.794Z</time></trkpt><trkpt lat="43.3098763" lon="13.1784214"><ele>445.0</ele><time>2026-05-01T16:15:11.795Z</time></trkpt><trkpt lat="43.3097617" lon="13.1784822"><ele>441.5</ele><time>2026-05-01T16:15:12.794Z</time></trkpt><trkpt lat="43.3096454" lon="13.1785544"><ele>438.0</ele><time>2026-05-01T16:15:13.794Z</time></trkpt><trkpt lat="43.3095299" lon="13.1786234"><ele>434.5</ele><time>2026-05-01T16:15:14.796Z</time></trkpt><trkpt lat="43.3094168" lon="13.1787051"><ele>431.0</ele><time>2026-05-01T16:15:15.794Z</time></trkpt><trkpt lat="43.3093043" lon="13.178797"><ele>431.0</ele><time>2026-05-01T16:15:16.794Z</time></trkpt><trkpt lat="43.3091907" lon="13.178892"><ele>431.0</ele><time>2026-05-01T16:15:17.796Z</time></trkpt><trkpt lat="43.3090796" lon="13.1789747"><ele>431.0</ele><time>2026-05-01T16:15:18.795Z</time></trkpt><trkpt lat="43.3089654" lon="13.1790472"><ele>431.0</ele><time>2026-05-01T16:15:19.795Z</time></trkpt><trkpt lat="43.3088485" lon="13.1791193"><ele>430.5</ele><time>2026-05-01T16:15:20.794Z</time></trkpt><trkpt lat="43.3087273" lon="13.1791916"><ele>430.0</ele><time>2026-05-01T16:15:21.795Z</time></trkpt><trkpt lat="43.3086007" lon="13.1792644"><ele>429.5</ele><time>2026-05-01T16:15:22.795Z</time></trkpt><trkpt lat="43.3084721" lon="13.1793377"><ele>429.0</ele><time>2026-05-01T16:15:23.795Z</time></trkpt><trkpt lat="43.308347" lon="13.1794107"><ele>429.0</ele><time>2026-05-01T16:15:24.794Z</time></trkpt><trkpt lat="43.3082231" lon="13.1794961"><ele>429.0</ele><time>2026-05-01T16:15:25.795Z</time></trkpt><trkpt lat="43.3081058" lon="13.1795962"><ele>429.0</ele><time>2026-05-01T16:15:26.795Z</time></trkpt><trkpt lat="43.3079947" lon="13.1797048"><ele>429.0</ele><time>2026-05-01T16:15:27.795Z</time></trkpt><trkpt lat="43.3078857" lon="13.1798138"><ele>426.75</ele><time>2026-05-01T16:15:28.795Z</time></trkpt><trkpt lat="43.3077781" lon="13.1799209"><ele>424.5</ele><time>2026-05-01T16:15:29.795Z</time></trkpt><trkpt lat="43.3076704" lon="13.1800284"><ele>422.25</ele><time>2026-05-01T16:15:30.795Z</time></trkpt><trkpt lat="43.3075702" lon="13.1801448"><ele>420.0</ele><time>2026-05-01T16:15:31.795Z</time></trkpt><trkpt lat="43.3074771" lon="13.1802691"><ele>420.0</ele><time>2026-05-01T16:15:32.795Z</time></trkpt><trkpt lat="43.3073913" lon="13.1804013"><ele>420.0</ele><time>2026-05-01T16:15:33.796Z</time></trkpt><trkpt lat="43.3073062" lon="13.1805371"><ele>420.0</ele><time>2026-05-01T16:15:34.794Z</time></trkpt><trkpt lat="43.30721" lon="13.1806639"><ele>420.0</ele><time>2026-05-01T16:15:35.794Z</time></trkpt><trkpt lat="43.3070994" lon="13.1807642"><ele>419.5</ele><time>2026-05-01T16:15:36.795Z</time></trkpt><trkpt lat="43.3069747" lon="13.1808425"><ele>419.0</ele><time>2026-05-01T16:15:37.795Z</time></trkpt><trkpt lat="43.3068489" lon="13.1809048"><ele>418.5</ele><time>2026-05-01T16:15:38.795Z</time></trkpt><trkpt lat="43.3067176" lon="13.1809529"><ele>418.0</ele><time>2026-05-01T16:15:39.795Z</time></trkpt><trkpt lat="43.3065839" lon="13.1809879"><ele>418.0</ele><time>2026-05-01T16:15:40.795Z</time></trkpt><trkpt lat="43.3064538" lon="13.1810249"><ele>418.0</ele><time>2026-05-01T16:15:41.795Z</time></trkpt><trkpt lat="43.3063232" lon="13.1810541"><ele>418.0</ele><time>2026-05-01T16:15:42.795Z</time></trkpt><trkpt lat="43.3061952" lon="13.1810635"><ele>418.0</ele><time>2026-05-01T16:15:43.795Z</time></trkpt><trkpt lat="43.3060678" lon="13.1810558"><ele>415.0</ele><time>2026-05-01T16:15:44.795Z</time></trkpt><trkpt lat="43.30594" lon="13.1810574"><ele>412.0</ele><time>2026-05-01T16:15:45.795Z</time></trkpt><trkpt lat="43.305809" lon="13.1810801"><ele>409.0</ele><time>2026-05-01T16:15:46.794Z</time></trkpt><trkpt lat="43.3056765" lon="13.1811226"><ele>406.0</ele><time>2026-05-01T16:15:47.795Z</time></trkpt><trkpt lat="43.3055519" lon="13.1811822"><ele>402.75</ele><time>2026-05-01T16:15:48.795Z</time></trkpt><trkpt lat="43.3054271" lon="13.1812534"><ele>399.5</ele><time>2026-05-01T16:15:49.795Z</time></trkpt><trkpt lat="43.3053023" lon="13.1813322"><ele>396.25</ele><time>2026-05-01T16:15:50.795Z</time></trkpt><trkpt lat="43.3051804" lon="13.1814041"><ele>393.0</ele><time>2026-05-01T16:15:51.794Z</time></trkpt><trkpt lat="43.3050605" lon="13.1814823"><ele>394.0</ele><time>2026-05-01T16:15:52.794Z</time></trkpt><trkpt lat="43.3049377" lon="13.1815577"><ele>395.0</ele><time>2026-05-01T16:15:53.794Z</time></trkpt><trkpt lat="43.304803" lon="13.181618"><ele>396.0</ele><time>2026-05-01T16:15:54.795Z</time></trkpt><trkpt lat="43.3046634" lon="13.1816644"><ele>397.0</ele><time>2026-05-01T16:15:55.794Z</time></trkpt><trkpt lat="43.3045179" lon="13.1816961"><ele>397.0</ele><time>2026-05-01T16:15:56.794Z</time></trkpt><trkpt lat="43.3043725" lon="13.181716"><ele>397.0</ele><time>2026-05-01T16:15:57.795Z</time></trkpt><trkpt lat="43.3042331" lon="13.181735"><ele>397.0</ele><time>2026-05-01T16:15:58.795Z</time></trkpt><trkpt lat="43.3040954" lon="13.1817555"><ele>397.0</ele><time>2026-05-01T16:15:59.795Z</time></trkpt><trkpt lat="43.3039593" lon="13.1817785"><ele>395.40000000000003</ele><time>2026-05-01T16:16:00.794Z</time></trkpt><trkpt lat="43.3038325" lon="13.1818027"><ele>393.8</ele><time>2026-05-01T16:16:01.795Z</time></trkpt><trkpt lat="43.3037193" lon="13.1818421"><ele>392.2</ele><time>2026-05-01T16:16:02.795Z</time></trkpt><trkpt lat="43.3036256" lon="13.1819088"><ele>390.6</ele><time>2026-05-01T16:16:03.795Z</time></trkpt><trkpt lat="43.3035616" lon="13.1820105"><ele>389.0</ele><time>2026-05-01T16:16:04.795Z</time></trkpt><trkpt lat="43.3035315" lon="13.1821319"><ele>389.0</ele><time>2026-05-01T16:16:05.795Z</time></trkpt><trkpt lat="43.303535" lon="13.1822596"><ele>389.0</ele><time>2026-05-01T16:16:06.795Z</time></trkpt><trkpt lat="43.3035433" lon="13.1823879"><ele>389.0</ele><time>2026-05-01T16:16:07.795Z</time></trkpt><trkpt lat="43.3035371" lon="13.1825173"><ele>389.0</ele><time>2026-05-01T16:16:08.794Z</time></trkpt><trkpt lat="43.3034927" lon="13.1826428"><ele>389.0</ele><time>2026-05-01T16:16:09.794Z</time></trkpt><trkpt lat="43.3034162" lon="13.1827424"><ele>388.79999999999995</ele><time>2026-05-01T16:16:10.795Z</time></trkpt><trkpt lat="43.3033217" lon="13.1828123"><ele>388.59999999999997</ele><time>2026-05-01T16:16:11.796Z</time></trkpt><trkpt lat="43.3032191" lon="13.1828583"><ele>388.4</ele><time>2026-05-01T16:16:12.795Z</time></trkpt><trkpt lat="43.3031128" lon="13.1828828"><ele>388.2</ele><time>2026-05-01T16:16:13.795Z</time></trkpt><trkpt lat="43.3030078" lon="13.1828834"><ele>388.0</ele><time>2026-05-01T16:16:14.795Z</time></trkpt><trkpt lat="43.3029023" lon="13.1828632"><ele>388.0</ele><time>2026-05-01T16:16:15.795Z</time></trkpt><trkpt lat="43.3028014" lon="13.182809"><ele>388.0</ele><time>2026-05-01T16:16:16.795Z</time></trkpt><trkpt lat="43.3027124" lon="13.1827213"><ele>388.0</ele><time>2026-05-01T16:16:17.794Z</time></trkpt><trkpt lat="43.3026366" lon="13.1826079"><ele>388.0</ele><time>2026-05-01T16:16:18.794Z</time></trkpt><trkpt lat="43.3025744" lon="13.1824738"><ele>388.0</ele><time>2026-05-01T16:16:19.795Z</time></trkpt><trkpt lat="43.3025172" lon="13.18233"><ele>386.5</ele><time>2026-05-01T16:16:20.794Z</time></trkpt><trkpt lat="43.3024621" lon="13.1821814"><ele>385.0</ele><time>2026-05-01T16:16:21.795Z</time></trkpt><trkpt lat="43.3024088" lon="13.1820293"><ele>383.5</ele><time>2026-05-01T16:16:22.795Z</time></trkpt><trkpt lat="43.3023537" lon="13.1818719"><ele>382.0</ele><time>2026-05-01T16:16:23.794Z</time></trkpt><trkpt lat="43.3022991" lon="13.1817105"><ele>382.0</ele><time>2026-05-01T16:16:24.795Z</time></trkpt><trkpt lat="43.3022433" lon="13.1815478"><ele>382.0</ele><time>2026-05-01T16:16:25.795Z</time></trkpt><trkpt lat="43.3021878" lon="13.1813835"><ele>382.0</ele><time>2026-05-01T16:16:26.794Z</time></trkpt><trkpt lat="43.3021335" lon="13.1812222"><ele>382.0</ele><time>2026-05-01T16:16:27.795Z</time></trkpt><trkpt lat="43.3020784" lon="13.1810605"><ele>382.0</ele><time>2026-05-01T16:16:28.795Z</time></trkpt><trkpt lat="43.3020227" lon="13.1808985"><ele>382.0</ele><time>2026-05-01T16:16:29.796Z</time></trkpt><trkpt lat="43.3019652" lon="13.1807341"><ele>382.0</ele><time>2026-05-01T16:16:30.794Z</time></trkpt><trkpt lat="43.3019059" lon="13.180568"><ele>382.0</ele><time>2026-05-01T16:16:31.795Z</time></trkpt><trkpt lat="43.3018389" lon="13.1804134"><ele>380.0</ele><time>2026-05-01T16:16:32.794Z</time></trkpt><trkpt lat="43.301758" lon="13.1802715"><ele>378.0</ele><time>2026-05-01T16:16:33.794Z</time></trkpt><trkpt lat="43.3016612" lon="13.1801573"><ele>376.0</ele><time>2026-05-01T16:16:34.796Z</time></trkpt><trkpt lat="43.3015467" lon="13.1800803"><ele>374.0</ele><time>2026-05-01T16:16:35.795Z</time></trkpt><trkpt lat="43.3014292" lon="13.1800381"><ele>372.5</ele><time>2026-05-01T16:16:36.794Z</time></trkpt><trkpt lat="43.3013049" lon="13.180034"><ele>371.0</ele><time>2026-05-01T16:16:37.794Z</time></trkpt><trkpt lat="43.3011796" lon="13.1800627"><ele>369.5</ele><time>2026-05-01T16:16:38.795Z</time></trkpt><trkpt lat="43.3010541" lon="13.18011"><ele>368.0</ele><time>2026-05-01T16:16:39.795Z</time></trkpt><trkpt lat="43.300931" lon="13.1801753"><ele>368.0</ele><time>2026-05-01T16:16:40.795Z</time></trkpt><trkpt lat="43.3008104" lon="13.1802514"><ele>368.0</ele><time>2026-05-01T16:16:41.794Z</time></trkpt><trkpt lat="43.3006922" lon="13.1803428"><ele>368.0</ele><time>2026-05-01T16:16:42.795Z</time></trkpt><trkpt lat="43.3005816" lon="13.1804435"><ele>368.0</ele><time>2026-05-01T16:16:43.795Z</time></trkpt><trkpt lat="43.3004783" lon="13.18055"><ele>367.5</ele><time>2026-05-01T16:16:44.795Z</time></trkpt><trkpt lat="43.3003719" lon="13.1806455"><ele>367.0</ele><time>2026-05-01T16:16:45.795Z</time></trkpt><trkpt lat="43.3002595" lon="13.1807251"><ele>366.5</ele><time>2026-05-01T16:16:46.795Z</time></trkpt><trkpt lat="43.3001365" lon="13.1807753"><ele>366.0</ele><time>2026-05-01T16:16:47.794Z</time></trkpt><trkpt lat="43.3000059" lon="13.1808008"><ele>366.0</ele><time>2026-05-01T16:16:48.795Z</time></trkpt><trkpt lat="43.2998759" lon="13.1807973"><ele>366.0</ele><time>2026-05-01T16:16:49.795Z</time></trkpt><trkpt lat="43.2997441" lon="13.180774"><ele>366.0</ele><time>2026-05-01T16:16:50.794Z</time></trkpt><trkpt lat="43.2996094" lon="13.1807399"><ele>366.0</ele><time>2026-05-01T16:16:51.794Z</time></trkpt><trkpt lat="43.2994759" lon="13.1806967"><ele>363.0</ele><time>2026-05-01T16:16:52.795Z</time></trkpt><trkpt lat="43.2993456" lon="13.1806362"><ele>360.0</ele><time>2026-05-01T16:16:53.794Z</time></trkpt><trkpt lat="43.2992143" lon="13.1805618"><ele>357.0</ele><time>2026-05-01T16:16:54.794Z</time></trkpt><trkpt lat="43.2990842" lon="13.180486"><ele>354.0</ele><time>2026-05-01T16:16:55.794Z</time></trkpt><trkpt lat="43.2989499" lon="13.1804178"><ele>353.5</ele><time>2026-05-01T16:16:56.794Z</time></trkpt><trkpt lat="43.2988137" lon="13.1803677"><ele>353.0</ele><time>2026-05-01T16:16:57.796Z</time></trkpt><trkpt lat="43.2986753" lon="13.1803423"><ele>352.5</ele><time>2026-05-01T16:16:58.795Z</time></trkpt><trkpt lat="43.2985355" lon="13.1803355"><ele>352.0</ele><time>2026-05-01T16:16:59.795Z</time></trkpt><trkpt lat="43.2984023" lon="13.1803347"><ele>352.0</ele><time>2026-05-01T16:17:00.794Z</time></trkpt><trkpt lat="43.2982691" lon="13.1803331"><ele>352.0</ele><time>2026-05-01T16:17:01.795Z</time></trkpt><trkpt lat="43.2981385" lon="13.1803283"><ele>352.0</ele><time>2026-05-01T16:17:02.794Z</time></trkpt><trkpt lat="43.2980089" lon="13.1803216"><ele>352.0</ele><time>2026-05-01T16:17:03.795Z</time></trkpt><trkpt lat="43.2978797" lon="13.1803198"><ele>351.25</ele><time>2026-05-01T16:17:04.796Z</time></trkpt><trkpt lat="43.2977466" lon="13.1803194"><ele>350.5</ele><time>2026-05-01T16:17:05.794Z</time></trkpt><trkpt lat="43.2976132" lon="13.1803103"><ele>349.75</ele><time>2026-05-01T16:17:06.795Z</time></trkpt><trkpt lat="43.2974781" lon="13.1802876"><ele>349.0</ele><time>2026-05-01T16:17:07.795Z</time></trkpt><trkpt lat="43.2973424" lon="13.1802527"><ele>349.0</ele><time>2026-05-01T16:17:08.795Z</time></trkpt><trkpt lat="43.2972048" lon="13.1802064"><ele>349.0</ele><time>2026-05-01T16:17:09.794Z</time></trkpt><trkpt lat="43.2970682" lon="13.1801557"><ele>349.0</ele><time>2026-05-01T16:17:10.796Z</time></trkpt><trkpt lat="43.2969279" lon="13.1801023"><ele>349.0</ele><time>2026-05-01T16:17:11.795Z</time></trkpt><trkpt lat="43.2967835" lon="13.1800479"><ele>349.0</ele><time>2026-05-01T16:17:12.795Z</time></trkpt><trkpt lat="43.2966431" lon="13.1799931"><ele>349.0</ele><time>2026-05-01T16:17:13.795Z</time></trkpt><trkpt lat="43.2965009" lon="13.1799377"><ele>349.0</ele><time>2026-05-01T16:17:14.795Z</time></trkpt><trkpt lat="43.2963603" lon="13.1798847"><ele>349.0</ele><time>2026-05-01T16:17:15.794Z</time></trkpt><trkpt lat="43.2962192" lon="13.1798323"><ele>348.5</ele><time>2026-05-01T16:17:16.794Z</time></trkpt><trkpt lat="43.2960774" lon="13.1797823"><ele>348.0</ele><time>2026-05-01T16:17:17.794Z</time></trkpt><trkpt lat="43.295936" lon="13.1797382"><ele>347.5</ele><time>2026-05-01T16:17:18.794Z</time></trkpt><trkpt lat="43.2957936" lon="13.1797138"><ele>347.0</ele><time>2026-05-01T16:17:19.795Z</time></trkpt><trkpt lat="43.2956548" lon="13.1797106"><ele>346.0</ele><time>2026-05-01T16:17:20.794Z</time></trkpt><trkpt lat="43.2955192" lon="13.1797355"><ele>345.0</ele><time>2026-05-01T16:17:21.794Z</time></trkpt><trkpt lat="43.2953877" lon="13.1797869"><ele>344.0</ele><time>2026-05-01T16:17:22.795Z</time></trkpt><trkpt lat="43.2952597" lon="13.1798567"><ele>343.0</ele><time>2026-05-01T16:17:23.795Z</time></trkpt><trkpt lat="43.2951343" lon="13.1799419"><ele>342.0</ele><time>2026-05-01T16:17:24.795Z</time></trkpt><trkpt lat="43.2950112" lon="13.1800366"><ele>341.0</ele><time>2026-05-01T16:17:25.794Z</time></trkpt><trkpt lat="43.2948887" lon="13.180128"><ele>340.0</ele><time>2026-05-01T16:17:26.795Z</time></trkpt><trkpt lat="43.2947657" lon="13.1802214"><ele>339.0</ele><time>2026-05-01T16:17:27.795Z</time></trkpt><trkpt lat="43.2946437" lon="13.1803137"><ele>339.0</ele><time>2026-05-01T16:17:28.794Z</time></trkpt><trkpt lat="43.2945282" lon="13.1803996"><ele>339.0</ele><time>2026-05-01T16:17:29.794Z</time></trkpt><trkpt lat="43.2944141" lon="13.1804874"><ele>339.0</ele><time>2026-05-01T16:17:30.795Z</time></trkpt><trkpt lat="43.294302" lon="13.1805822"><ele>339.0</ele><time>2026-05-01T16:17:31.796Z</time></trkpt><trkpt lat="43.2941892" lon="13.1806724"><ele>338.75</ele><time>2026-05-01T16:17:32.794Z</time></trkpt><trkpt lat="43.2940744" lon="13.1807643"><ele>338.5</ele><time>2026-05-01T16:17:33.795Z</time></trkpt><trkpt lat="43.293957" lon="13.180854"><ele>338.25</ele><time>2026-05-01T16:17:34.795Z</time></trkpt><trkpt lat="43.2938428" lon="13.1809456"><ele>338.0</ele><time>2026-05-01T16:17:35.794Z</time></trkpt><trkpt lat="43.2937272" lon="13.1810394"><ele>337.5</ele><time>2026-05-01T16:17:36.795Z</time></trkpt><trkpt lat="43.2936069" lon="13.1811272"><ele>337.0</ele><time>2026-05-01T16:17:37.794Z</time></trkpt><trkpt lat="43.2934827" lon="13.1811947"><ele>336.5</ele><time>2026-05-01T16:17:38.795Z</time></trkpt><trkpt lat="43.2933539" lon="13.1812375"><ele>336.0</ele><time>2026-05-01T16:17:39.794Z</time></trkpt><trkpt lat="43.2932171" lon="13.1812394"><ele>334.75</ele><time>2026-05-01T16:17:40.796Z</time></trkpt><trkpt lat="43.2930849" lon="13.181215"><ele>333.5</ele><time>2026-05-01T16:17:41.795Z</time></trkpt><trkpt lat="43.2929503" lon="13.181171"><ele>332.25</ele><time>2026-05-01T16:17:42.795Z</time></trkpt><trkpt lat="43.2928203" lon="13.1811317"><ele>331.0</ele><time>2026-05-01T16:17:43.794Z</time></trkpt><trkpt lat="43.2926901" lon="13.1810881"><ele>331.0</ele><time>2026-05-01T16:17:44.795Z</time></trkpt><trkpt lat="43.2925631" lon="13.1810293"><ele>331.0</ele><time>2026-05-01T16:17:45.795Z</time></trkpt><trkpt lat="43.292452" lon="13.1809386"><ele>331.0</ele><time>2026-05-01T16:17:46.795Z</time></trkpt><trkpt lat="43.2923571" lon="13.1808274"><ele>331.0</ele><time>2026-05-01T16:17:47.796Z</time></trkpt><trkpt lat="43.2922527" lon="13.1807368"><ele>332.5</ele><time>2026-05-01T16:17:48.795Z</time></trkpt><trkpt lat="43.2921409" lon="13.1806975"><ele>334.0</ele><time>2026-05-01T16:17:49.794Z</time></trkpt><trkpt lat="43.292025" lon="13.1807063"><ele>335.5</ele><time>2026-05-01T16:17:50.795Z</time></trkpt><trkpt lat="43.2919213" lon="13.1807686"><ele>337.0</ele><time>2026-05-01T16:17:51.795Z</time></trkpt><trkpt lat="43.2918281" lon="13.1808613"><ele>337.0</ele><time>2026-05-01T16:17:52.795Z</time></trkpt><trkpt lat="43.2917345" lon="13.1809651"><ele>337.0</ele><time>2026-05-01T16:17:53.795Z</time></trkpt><trkpt lat="43.291633" lon="13.181066"><ele>337.0</ele><time>2026-05-01T16:17:54.796Z</time></trkpt><trkpt lat="43.2915204" lon="13.1811299"><ele>337.0</ele><time>2026-05-01T16:17:55.795Z</time></trkpt><trkpt lat="43.2913997" lon="13.1811839"><ele>339.0</ele><time>2026-05-01T16:17:56.795Z</time></trkpt><trkpt lat="43.2912778" lon="13.1812207"><ele>341.0</ele><time>2026-05-01T16:17:57.795Z</time></trkpt><trkpt lat="43.2911532" lon="13.181249"><ele>343.0</ele><time>2026-05-01T16:17:58.794Z</time></trkpt><trkpt lat="43.2910206" lon="13.1812756"><ele>345.0</ele><time>2026-05-01T16:17:59.795Z</time></trkpt><trkpt lat="43.2908846" lon="13.1812977"><ele>345.0</ele><time>2026-05-01T16:18:00.795Z</time></trkpt><trkpt lat="43.2907499" lon="13.1813356"><ele>345.0</ele><time>2026-05-01T16:18:01.795Z</time></trkpt><trkpt lat="43.2906244" lon="13.1814104"><ele>345.0</ele><time>2026-05-01T16:18:02.794Z</time></trkpt><trkpt lat="43.2905121" lon="13.181511"><ele>345.0</ele><time>2026-05-01T16:18:03.795Z</time></trkpt><trkpt lat="43.2904149" lon="13.1816368"><ele>342.0</ele><time>2026-05-01T16:18:04.794Z</time></trkpt><trkpt lat="43.2903195" lon="13.1817636"><ele>339.0</ele><time>2026-05-01T16:18:05.795Z</time></trkpt><trkpt lat="43.2902158" lon="13.1818718"><ele>336.0</ele><time>2026-05-01T16:18:06.795Z</time></trkpt><trkpt lat="43.2900995" lon="13.1819434"><ele>333.0</ele><time>2026-05-01T16:18:07.795Z</time></trkpt><trkpt lat="43.2899747" lon="13.1819914"><ele>333.0</ele><time>2026-05-01T16:18:08.795Z</time></trkpt><trkpt lat="43.2898429" lon="13.182013"><ele>333.0</ele><time>2026-05-01T16:18:09.794Z</time></trkpt><trkpt lat="43.2897118" lon="13.1820224"><ele>333.0</ele><time>2026-05-01T16:18:10.794Z</time></trkpt><trkpt lat="43.2895763" lon="13.1820275"><ele>333.0</ele><time>2026-05-01T16:18:11.794Z</time></trkpt><trkpt lat="43.289445" lon="13.182032"><ele>333.75</ele><time>2026-05-01T16:18:12.794Z</time></trkpt><trkpt lat="43.2893119" lon="13.1820272"><ele>334.5</ele><time>2026-05-01T16:18:13.794Z</time></trkpt><trkpt lat="43.2891798" lon="13.1820128"><ele>335.25</ele><time>2026-05-01T16:18:14.795Z</time></trkpt><trkpt lat="43.2890466" lon="13.1819845"><ele>336.0</ele><time>2026-05-01T16:18:15.795Z</time></trkpt><trkpt lat="43.288917" lon="13.1819501"><ele>334.25</ele><time>2026-05-01T16:18:16.795Z</time></trkpt><trkpt lat="43.2887892" lon="13.1819126"><ele>332.5</ele><time>2026-05-01T16:18:17.795Z</time></trkpt><trkpt lat="43.2886665" lon="13.1818683"><ele>330.75</ele><time>2026-05-01T16:18:18.794Z</time></trkpt><trkpt lat="43.2885465" lon="13.1818246"><ele>329.0</ele><time>2026-05-01T16:18:19.795Z</time></trkpt><trkpt lat="43.2884307" lon="13.1817723"><ele>329.0</ele><time>2026-05-01T16:18:20.795Z</time></trkpt><trkpt lat="43.2883177" lon="13.1817153"><ele>329.0</ele><time>2026-05-01T16:18:21.795Z</time></trkpt><trkpt lat="43.2882101" lon="13.1816487"><ele>329.0</ele><time>2026-05-01T16:18:22.795Z</time></trkpt><trkpt lat="43.2880997" lon="13.181583"><ele>329.0</ele><time>2026-05-01T16:18:23.795Z</time></trkpt><trkpt lat="43.2879832" lon="13.1815172"><ele>331.75</ele><time>2026-05-01T16:18:24.794Z</time></trkpt><trkpt lat="43.2878654" lon="13.1814616"><ele>334.5</ele><time>2026-05-01T16:18:25.795Z</time></trkpt><trkpt lat="43.2877424" lon="13.1814263"><ele>337.25</ele><time>2026-05-01T16:18:26.795Z</time></trkpt><trkpt lat="43.2876157" lon="13.1814071"><ele>340.0</ele><time>2026-05-01T16:18:27.794Z</time></trkpt><trkpt lat="43.2874873" lon="13.1813983"><ele>340.0</ele><time>2026-05-01T16:18:28.795Z</time></trkpt><trkpt lat="43.2873593" lon="13.1813915"><ele>340.0</ele><time>2026-05-01T16:18:29.795Z</time></trkpt><trkpt lat="43.28723" lon="13.181383"><ele>340.0</ele><time>2026-05-01T16:18:30.795Z</time></trkpt><trkpt lat="43.2871028" lon="13.1813732"><ele>340.0</ele><time>2026-05-01T16:18:31.794Z</time></trkpt><trkpt lat="43.2869713" lon="13.1813551"><ele>340.5</ele><time>2026-05-01T16:18:32.795Z</time></trkpt><trkpt lat="43.2868373" lon="13.1813419"><ele>341.0</ele><time>2026-05-01T16:18:33.796Z</time></trkpt><trkpt lat="43.2867047" lon="13.1813293"><ele>341.5</ele><time>2026-05-01T16:18:34.794Z</time></trkpt><trkpt lat="43.2865727" lon="13.1813187"><ele>342.0</ele><time>2026-05-01T16:18:35.794Z</time></trkpt><trkpt lat="43.2864411" lon="13.1813114"><ele>341.5</ele><time>2026-05-01T16:18:36.795Z</time></trkpt><trkpt lat="43.2863064" lon="13.1813017"><ele>341.0</ele><time>2026-05-01T16:18:37.795Z</time></trkpt><trkpt lat="43.2861748" lon="13.1812834"><ele>340.5</ele><time>2026-05-01T16:18:38.796Z</time></trkpt><trkpt lat="43.2860444" lon="13.1812655"><ele>340.0</ele><time>2026-05-01T16:18:39.795Z</time></trkpt><trkpt lat="43.2859159" lon="13.1812498"><ele>340.0</ele><time>2026-05-01T16:18:40.795Z</time></trkpt><trkpt lat="43.2857883" lon="13.1812386"><ele>340.0</ele><time>2026-05-01T16:18:41.794Z</time></trkpt><trkpt lat="43.2856588" lon="13.181226"><ele>340.0</ele><time>2026-05-01T16:18:42.795Z</time></trkpt><trkpt lat="43.2855319" lon="13.1812125"><ele>340.0</ele><time>2026-05-01T16:18:43.795Z</time></trkpt><trkpt lat="43.2854087" lon="13.1812042"><ele>339.5</ele><time>2026-05-01T16:18:44.795Z</time></trkpt><trkpt lat="43.2852829" lon="13.1812099"><ele>339.0</ele><time>2026-05-01T16:18:45.794Z</time></trkpt><trkpt lat="43.2851613" lon="13.18124"><ele>338.5</ele><time>2026-05-01T16:18:46.795Z</time></trkpt><trkpt lat="43.2850454" lon="13.1812893"><ele>338.0</ele><time>2026-05-01T16:18:47.795Z</time></trkpt><trkpt lat="43.2849315" lon="13.1813513"><ele>338.0</ele><time>2026-05-01T16:18:48.795Z</time></trkpt><trkpt lat="43.2848205" lon="13.1814163"><ele>338.0</ele><time>2026-05-01T16:18:49.796Z</time></trkpt><trkpt lat="43.2847102" lon="13.1814773"><ele>338.0</ele><time>2026-05-01T16:18:50.795Z</time></trkpt><trkpt lat="43.2845982" lon="13.1815388"><ele>338.0</ele><time>2026-05-01T16:18:51.795Z</time></trkpt><trkpt lat="43.2844868" lon="13.1815993"><ele>334.0</ele><time>2026-05-01T16:18:52.796Z</time></trkpt><trkpt lat="43.2843725" lon="13.1816668"><ele>330.0</ele><time>2026-05-01T16:18:53.795Z</time></trkpt><trkpt lat="43.284254" lon="13.1817317"><ele>326.0</ele><time>2026-05-01T16:18:54.796Z</time></trkpt><trkpt lat="43.2841377" lon="13.181796"><ele>322.0</ele><time>2026-05-01T16:18:55.795Z</time></trkpt><trkpt lat="43.2840244" lon="13.181856"><ele>321.0</ele><time>2026-05-01T16:18:56.795Z</time></trkpt><trkpt lat="43.2839118" lon="13.18192"><ele>320.0</ele><time>2026-05-01T16:18:57.795Z</time></trkpt><trkpt lat="43.283802" lon="13.1819826"><ele>319.0</ele><time>2026-05-01T16:18:58.796Z</time></trkpt><trkpt lat="43.2836909" lon="13.1820405"><ele>318.0</ele><time>2026-05-01T16:18:59.794Z</time></trkpt><trkpt lat="43.2835784" lon="13.1821011"><ele>318.0</ele><time>2026-05-01T16:19:00.796Z</time></trkpt><trkpt lat="43.2834654" lon="13.1821683"><ele>318.0</ele><time>2026-05-01T16:19:01.794Z</time></trkpt><trkpt lat="43.2833518" lon="13.1822299"><ele>318.0</ele><time>2026-05-01T16:19:02.795Z</time></trkpt><trkpt lat="43.2832385" lon="13.1822914"><ele>318.0</ele><time>2026-05-01T16:19:03.796Z</time></trkpt><trkpt lat="43.2831256" lon="13.1823528"><ele>316.75</ele><time>2026-05-01T16:19:04.794Z</time></trkpt><trkpt lat="43.2830119" lon="13.182415"><ele>315.5</ele><time>2026-05-01T16:19:05.795Z</time></trkpt><trkpt lat="43.2828991" lon="13.1824734"><ele>314.25</ele><time>2026-05-01T16:19:06.796Z</time></trkpt><trkpt lat="43.2827851" lon="13.1825312"><ele>313.0</ele><time>2026-05-01T16:19:07.794Z</time></trkpt><trkpt lat="43.2826757" lon="13.1825944"><ele>313.0</ele><time>2026-05-01T16:19:08.795Z</time></trkpt><trkpt lat="43.2825653" lon="13.1826568"><ele>313.0</ele><time>2026-05-01T16:19:09.795Z</time></trkpt><trkpt lat="43.2824504" lon="13.1827157"><ele>313.0</ele><time>2026-05-01T16:19:10.794Z</time></trkpt><trkpt lat="43.2823366" lon="13.1827769"><ele>313.0</ele><time>2026-05-01T16:19:11.794Z</time></trkpt><trkpt lat="43.2822255" lon="13.182833"><ele>311.0</ele><time>2026-05-01T16:19:12.794Z</time></trkpt><trkpt lat="43.2821195" lon="13.1828892"><ele>309.0</ele><time>2026-05-01T16:19:13.796Z</time></trkpt><trkpt lat="43.2820161" lon="13.1829465"><ele>307.0</ele><time>2026-05-01T16:19:14.795Z</time></trkpt><trkpt lat="43.2819179" lon="13.1830093"><ele>305.0</ele><time>2026-05-01T16:19:15.795Z</time></trkpt><trkpt lat="43.281829" lon="13.1830846"><ele>303.0</ele><time>2026-05-01T16:19:16.794Z</time></trkpt><trkpt lat="43.2817539" lon="13.1831814"><ele>303.0</ele><time>2026-05-01T16:19:17.794Z</time></trkpt><trkpt lat="43.2816967" lon="13.1832892"><ele>303.0</ele><time>2026-05-01T16:19:18.795Z</time></trkpt><trkpt lat="43.2816517" lon="13.1834069"><ele>303.0</ele><time>2026-05-01T16:19:19.795Z</time></trkpt><trkpt lat="43.281612" lon="13.1835292"><ele>303.0</ele><time>2026-05-01T16:19:20.795Z</time></trkpt><trkpt lat="43.2815724" lon="13.1836481"><ele>303.0</ele><time>2026-05-01T16:19:21.795Z</time></trkpt><trkpt lat="43.2815333" lon="13.1837654"><ele>303.0</ele><time>2026-05-01T16:19:22.794Z</time></trkpt><trkpt lat="43.2814976" lon="13.183884"><ele>303.0</ele><time>2026-05-01T16:19:23.795Z</time></trkpt><trkpt lat="43.2814605" lon="13.1840016"><ele>303.0</ele><time>2026-05-01T16:19:24.794Z</time></trkpt><trkpt lat="43.2814176" lon="13.1841103"><ele>303.0</ele><time>2026-05-01T16:19:25.796Z</time></trkpt><trkpt lat="43.2813596" lon="13.1842157"><ele>303.0</ele><time>2026-05-01T16:19:26.795Z</time></trkpt><trkpt lat="43.2812827" lon="13.1843037"><ele>301.4</ele><time>2026-05-01T16:19:27.795Z</time></trkpt><trkpt lat="43.2811902" lon="13.1843572"><ele>299.8</ele><time>2026-05-01T16:19:28.795Z</time></trkpt><trkpt lat="43.2810899" lon="13.1843883"><ele>298.2</ele><time>2026-05-01T16:19:29.795Z</time></trkpt><trkpt lat="43.2809909" lon="13.1844058"><ele>296.6</ele><time>2026-05-01T16:19:30.795Z</time></trkpt><trkpt lat="43.2808947" lon="13.1844102"><ele>295.0</ele><time>2026-05-01T16:19:31.796Z</time></trkpt><trkpt lat="43.2807993" lon="13.184412"><ele>295.0</ele><time>2026-05-01T16:19:32.795Z</time></trkpt><trkpt lat="43.280705" lon="13.1844156"><ele>295.0</ele><time>2026-05-01T16:19:33.794Z</time></trkpt><trkpt lat="43.2806122" lon="13.1844332"><ele>295.0</ele><time>2026-05-01T16:19:34.796Z</time></trkpt><trkpt lat="43.2805204" lon="13.1844666"><ele>295.0</ele><time>2026-05-01T16:19:35.795Z</time></trkpt><trkpt lat="43.2804305" lon="13.1845148"><ele>295.0</ele><time>2026-05-01T16:19:36.795Z</time></trkpt><trkpt lat="43.2803456" lon="13.184566"><ele>294.16666666666663</ele><time>2026-05-01T16:19:37.795Z</time></trkpt><trkpt lat="43.2802624" lon="13.1846241"><ele>293.3333333333333</ele><time>2026-05-01T16:19:38.794Z</time></trkpt><trkpt lat="43.280184" lon="13.184688"><ele>292.5</ele><time>2026-05-01T16:19:39.794Z</time></trkpt><trkpt lat="43.2801194" lon="13.1847708"><ele>291.6666666666667</ele><time>2026-05-01T16:19:40.794Z</time></trkpt><trkpt lat="43.2800695" lon="13.1848641"><ele>290.83333333333337</ele><time>2026-05-01T16:19:41.795Z</time></trkpt><trkpt lat="43.2800825" lon="13.1849873"><ele>290.0</ele><time>2026-05-01T16:19:42.794Z</time></trkpt><trkpt lat="43.2801016" lon="13.1850878"><ele>289.83333333333337</ele><time>2026-05-01T16:19:43.795Z</time></trkpt><trkpt lat="43.2801436" lon="13.1852187"><ele>289.6666666666667</ele><time>2026-05-01T16:19:45.795Z</time></trkpt><trkpt lat="43.2801458" lon="13.1853098"><ele>289.5</ele><time>2026-05-01T16:19:47.796Z</time></trkpt><trkpt lat="43.2800969" lon="13.1853819"><ele>289.3333333333333</ele><time>2026-05-01T16:19:49.795Z</time></trkpt><trkpt lat="43.2799994" lon="13.1853719"><ele>289.16666666666663</ele><time>2026-05-01T16:19:51.795Z</time></trkpt><trkpt lat="43.2799117" lon="13.1852874"><ele>289.0</ele><time>2026-05-01T16:19:53.795Z</time></trkpt><trkpt lat="43.279893" lon="13.1852033"><ele>289.0</ele><time>2026-05-01T16:19:54.795Z</time></trkpt><trkpt lat="43.2798866" lon="13.1851142"><ele>289.0</ele><time>2026-05-01T16:19:55.795Z</time></trkpt><trkpt lat="43.2798605" lon="13.1849505"><ele>289.0</ele><time>2026-05-01T16:19:57.795Z</time></trkpt><trkpt lat="43.2797945" lon="13.1848187"><ele>289.0</ele><time>2026-05-01T16:19:59.795Z</time></trkpt><trkpt lat="43.2797453" lon="13.1847643"><ele>289.0</ele><time>2026-05-01T16:20:00.796Z</time></trkpt><trkpt lat="43.2796857" lon="13.1847195"><ele>289.0</ele><time>2026-05-01T16:20:01.796Z</time></trkpt><trkpt lat="43.2796161" lon="13.1846867"><ele>291.16666666666663</ele><time>2026-05-01T16:20:02.795Z</time></trkpt><trkpt lat="43.2795414" lon="13.1846481"><ele>293.3333333333333</ele><time>2026-05-01T16:20:03.795Z</time></trkpt><trkpt lat="43.2794631" lon="13.1846072"><ele>295.5</ele><time>2026-05-01T16:20:04.795Z</time></trkpt><trkpt lat="43.2793811" lon="13.1845694"><ele>297.6666666666667</ele><time>2026-05-01T16:20:05.794Z</time></trkpt><trkpt lat="43.279292" lon="13.1845425"><ele>299.83333333333337</ele><time>2026-05-01T16:20:06.794Z</time></trkpt><trkpt lat="43.2791958" lon="13.1845477"><ele>302.0</ele><time>2026-05-01T16:20:07.794Z</time></trkpt><trkpt lat="43.2790993" lon="13.1845825"><ele>302.0</ele><time>2026-05-01T16:20:08.794Z</time></trkpt><trkpt lat="43.279" lon="13.1846308"><ele>302.0</ele><time>2026-05-01T16:20:09.794Z</time></trkpt><trkpt lat="43.2789023" lon="13.1846824"><ele>302.0</ele><time>2026-05-01T16:20:10.795Z</time></trkpt><trkpt lat="43.2787995" lon="13.1847311"><ele>302.0</ele><time>2026-05-01T16:20:11.795Z</time></trkpt><trkpt lat="43.2786959" lon="13.1847757"><ele>302.0</ele><time>2026-05-01T16:20:12.795Z</time></trkpt><trkpt lat="43.2785932" lon="13.1848277"><ele>302.0</ele><time>2026-05-01T16:20:13.794Z</time></trkpt><trkpt lat="43.2784904" lon="13.1848825"><ele>302.0</ele><time>2026-05-01T16:20:14.795Z</time></trkpt><trkpt lat="43.278386" lon="13.1849252"><ele>302.0</ele><time>2026-05-01T16:20:15.795Z</time></trkpt><trkpt lat="43.278277" lon="13.1849599"><ele>302.0</ele><time>2026-05-01T16:20:16.795Z</time></trkpt><trkpt lat="43.2781678" lon="13.1849818"><ele>302.0</ele><time>2026-05-01T16:20:17.794Z</time></trkpt><trkpt lat="43.2780567" lon="13.184992"><ele>302.0</ele><time>2026-05-01T16:20:18.795Z</time></trkpt><trkpt lat="43.2779421" lon="13.1849994"><ele>302.0</ele><time>2026-05-01T16:20:19.795Z</time></trkpt><trkpt lat="43.2778224" lon="13.1850055"><ele>302.0</ele><time>2026-05-01T16:20:20.795Z</time></trkpt><trkpt lat="43.2777033" lon="13.1850103"><ele>302.0</ele><time>2026-05-01T16:20:21.795Z</time></trkpt><trkpt lat="43.2775929" lon="13.1850087"><ele>302.0</ele><time>2026-05-01T16:20:22.794Z</time></trkpt><trkpt lat="43.2774885" lon="13.185007"><ele>302.0</ele><time>2026-05-01T16:20:23.794Z</time></trkpt><trkpt lat="43.2774025" lon="13.1849946"><ele>302.0</ele><time>2026-05-01T16:20:24.796Z</time></trkpt><trkpt lat="43.2773225" lon="13.1849838"><ele>302.0</ele><time>2026-05-01T16:20:25.794Z</time></trkpt><trkpt lat="43.2772545" lon="13.1849669"><ele>302.0</ele><time>2026-05-01T16:20:26.794Z</time></trkpt><trkpt lat="43.277182" lon="13.1849495"><ele>302.0</ele><time>2026-05-01T16:20:27.794Z</time></trkpt><trkpt lat="43.2771015" lon="13.184935"><ele>300.8</ele><time>2026-05-01T16:20:28.795Z</time></trkpt><trkpt lat="43.2770149" lon="13.1849062"><ele>299.6</ele><time>2026-05-01T16:20:29.794Z</time></trkpt><trkpt lat="43.2769231" lon="13.1848733"><ele>298.40000000000003</ele><time>2026-05-01T16:20:30.795Z</time></trkpt><trkpt lat="43.2768276" lon="13.1848411"><ele>297.2</ele><time>2026-05-01T16:20:31.795Z</time></trkpt><trkpt lat="43.2767319" lon="13.1848049"><ele>296.0</ele><time>2026-05-01T16:20:32.794Z</time></trkpt><trkpt lat="43.2766374" lon="13.1847654"><ele>298.0</ele><time>2026-05-01T16:20:33.796Z</time></trkpt><trkpt lat="43.2765363" lon="13.1847263"><ele>300.0</ele><time>2026-05-01T16:20:34.794Z</time></trkpt><trkpt lat="43.276437" lon="13.1846846"><ele>302.0</ele><time>2026-05-01T16:20:35.796Z</time></trkpt><trkpt lat="43.2763349" lon="13.1846452"><ele>304.0</ele><time>2026-05-01T16:20:36.795Z</time></trkpt><trkpt lat="43.2762353" lon="13.1846041"><ele>306.0</ele><time>2026-05-01T16:20:37.795Z</time></trkpt><trkpt lat="43.2761382" lon="13.1845617"><ele>306.0</ele><time>2026-05-01T16:20:38.794Z</time></trkpt><trkpt lat="43.2760389" lon="13.1845295"><ele>306.0</ele><time>2026-05-01T16:20:39.794Z</time></trkpt><trkpt lat="43.2759363" lon="13.1844997"><ele>306.0</ele><time>2026-05-01T16:20:40.795Z</time></trkpt><trkpt lat="43.2758327" lon="13.1845204"><ele>306.0</ele><time>2026-05-01T16:20:41.794Z</time></trkpt><trkpt lat="43.2757299" lon="13.1845574"><ele>306.0</ele><time>2026-05-01T16:20:42.795Z</time></trkpt><trkpt lat="43.2756395" lon="13.1846376"><ele>305.6</ele><time>2026-05-01T16:20:43.794Z</time></trkpt><trkpt lat="43.2755392" lon="13.1847114"><ele>305.20000000000005</ele><time>2026-05-01T16:20:44.794Z</time></trkpt><trkpt lat="43.2754433" lon="13.184785"><ele>304.79999999999995</ele><time>2026-05-01T16:20:45.794Z</time></trkpt><trkpt lat="43.2753514" lon="13.184865"><ele>304.4</ele><time>2026-05-01T16:20:46.795Z</time></trkpt><trkpt lat="43.2752584" lon="13.1849389"><ele>304.0</ele><time>2026-05-01T16:20:47.795Z</time></trkpt><trkpt lat="43.275167" lon="13.1850107"><ele>304.0</ele><time>2026-05-01T16:20:48.795Z</time></trkpt><trkpt lat="43.2750753" lon="13.1850819"><ele>304.0</ele><time>2026-05-01T16:20:49.794Z</time></trkpt><trkpt lat="43.2749832" lon="13.1851537"><ele>304.0</ele><time>2026-05-01T16:20:50.796Z</time></trkpt><trkpt lat="43.274889" lon="13.1852266"><ele>304.0</ele><time>2026-05-01T16:20:51.796Z</time></trkpt><trkpt lat="43.2747955" lon="13.1853067"><ele>304.0</ele><time>2026-05-01T16:20:52.795Z</time></trkpt><trkpt lat="43.2747008" lon="13.1853856"><ele>304.0</ele><time>2026-05-01T16:20:53.796Z</time></trkpt><trkpt lat="43.2746037" lon="13.1854618"><ele>304.0</ele><time>2026-05-01T16:20:54.796Z</time></trkpt><trkpt lat="43.2745108" lon="13.1855464"><ele>304.0</ele><time>2026-05-01T16:20:55.795Z</time></trkpt><trkpt lat="43.27442" lon="13.185622"><ele>304.0</ele><time>2026-05-01T16:20:56.796Z</time></trkpt><trkpt lat="43.2743243" lon="13.1856956"><ele>304.0</ele><time>2026-05-01T16:20:57.795Z</time></trkpt><trkpt lat="43.2742308" lon="13.1857733"><ele>302.5</ele><time>2026-05-01T16:20:58.795Z</time></trkpt><trkpt lat="43.2741336" lon="13.1858503"><ele>301.0</ele><time>2026-05-01T16:20:59.795Z</time></trkpt><trkpt lat="43.2740339" lon="13.18593"><ele>299.5</ele><time>2026-05-01T16:21:00.795Z</time></trkpt><trkpt lat="43.2739363" lon="13.1860143"><ele>298.0</ele><time>2026-05-01T16:21:01.794Z</time></trkpt><trkpt lat="43.2738318" lon="13.1860984"><ele>301.25</ele><time>2026-05-01T16:21:02.794Z</time></trkpt><trkpt lat="43.2737257" lon="13.1861865"><ele>304.5</ele><time>2026-05-01T16:21:03.794Z</time></trkpt><trkpt lat="43.273621" lon="13.1862769"><ele>307.75</ele><time>2026-05-01T16:21:04.794Z</time></trkpt><trkpt lat="43.2735164" lon="13.1863603"><ele>311.0</ele><time>2026-05-01T16:21:05.794Z</time></trkpt><trkpt lat="43.2734069" lon="13.1864534"><ele>308.0</ele><time>2026-05-01T16:21:06.795Z</time></trkpt><trkpt lat="43.2732982" lon="13.1865469"><ele>305.0</ele><time>2026-05-01T16:21:07.795Z</time></trkpt><trkpt lat="43.273187" lon="13.1866389"><ele>302.0</ele><time>2026-05-01T16:21:08.795Z</time></trkpt><trkpt lat="43.273077" lon="13.186729"><ele>299.0</ele><time>2026-05-01T16:21:09.795Z</time></trkpt><trkpt lat="43.2729633" lon="13.186823"><ele>299.0</ele><time>2026-05-01T16:21:10.794Z</time></trkpt><trkpt lat="43.2728471" lon="13.1869213"><ele>299.0</ele><time>2026-05-01T16:21:11.794Z</time></trkpt><trkpt lat="43.2727266" lon="13.1870201"><ele>299.0</ele><time>2026-05-01T16:21:12.795Z</time></trkpt><trkpt lat="43.2726089" lon="13.1871228"><ele>299.0</ele><time>2026-05-01T16:21:13.794Z</time></trkpt><trkpt lat="43.2724895" lon="13.1872219"><ele>299.0</ele><time>2026-05-01T16:21:14.795Z</time></trkpt><trkpt lat="43.2723668" lon="13.1873204"><ele>299.0</ele><time>2026-05-01T16:21:15.794Z</time></trkpt><trkpt lat="43.2722362" lon="13.1874061"><ele>299.0</ele><time>2026-05-01T16:21:16.794Z</time></trkpt><trkpt lat="43.2721013" lon="13.1874839"><ele>299.0</ele><time>2026-05-01T16:21:17.795Z</time></trkpt><trkpt lat="43.2719684" lon="13.187553"><ele>297.25</ele><time>2026-05-01T16:21:18.795Z</time></trkpt><trkpt lat="43.2718362" lon="13.1876189"><ele>295.5</ele><time>2026-05-01T16:21:19.794Z</time></trkpt><trkpt lat="43.2717123" lon="13.1876804"><ele>293.75</ele><time>2026-05-01T16:21:20.795Z</time></trkpt><trkpt lat="43.2715916" lon="13.1877402"><ele>292.0</ele><time>2026-05-01T16:21:21.794Z</time></trkpt><trkpt lat="43.2714719" lon="13.1877948"><ele>295.0</ele><time>2026-05-01T16:21:22.795Z</time></trkpt><trkpt lat="43.2713578" lon="13.1878508"><ele>298.0</ele><time>2026-05-01T16:21:23.795Z</time></trkpt><trkpt lat="43.2712462" lon="13.1879038"><ele>301.0</ele><time>2026-05-01T16:21:24.795Z</time></trkpt><trkpt lat="43.2711382" lon="13.1879584"><ele>304.0</ele><time>2026-05-01T16:21:25.794Z</time></trkpt><trkpt lat="43.2710326" lon="13.1880136"><ele>304.0</ele><time>2026-05-01T16:21:26.794Z</time></trkpt><trkpt lat="43.2709332" lon="13.1880774"><ele>304.0</ele><time>2026-05-01T16:21:27.795Z</time></trkpt><trkpt lat="43.2708387" lon="13.1881633"><ele>304.0</ele><time>2026-05-01T16:21:28.795Z</time></trkpt><trkpt lat="43.2707501" lon="13.1882639"><ele>304.0</ele><time>2026-05-01T16:21:29.794Z</time></trkpt><trkpt lat="43.2706703" lon="13.188389"><ele>306.75</ele><time>2026-05-01T16:21:30.794Z</time></trkpt><trkpt lat="43.2706017" lon="13.1885252"><ele>309.5</ele><time>2026-05-01T16:21:31.795Z</time></trkpt><trkpt lat="43.2705374" lon="13.188663"><ele>312.25</ele><time>2026-05-01T16:21:32.794Z</time></trkpt><trkpt lat="43.2704664" lon="13.1887839"><ele>315.0</ele><time>2026-05-01T16:21:33.795Z</time></trkpt><trkpt lat="43.2703852" lon="13.188897"><ele>315.0</ele><time>2026-05-01T16:21:34.795Z</time></trkpt><trkpt lat="43.2702991" lon="13.1890077"><ele>315.0</ele><time>2026-05-01T16:21:35.794Z</time></trkpt><trkpt lat="43.2702058" lon="13.1891119"><ele>315.0</ele><time>2026-05-01T16:21:36.795Z</time></trkpt><trkpt lat="43.2701081" lon="13.1892092"><ele>315.0</ele><time>2026-05-01T16:21:37.795Z</time></trkpt><trkpt lat="43.2700099" lon="13.1893019"><ele>313.25</ele><time>2026-05-01T16:21:38.795Z</time></trkpt><trkpt lat="43.2699046" lon="13.1893965"><ele>311.5</ele><time>2026-05-01T16:21:39.795Z</time></trkpt><trkpt lat="43.2697953" lon="13.18949"><ele>309.75</ele><time>2026-05-01T16:21:40.795Z</time></trkpt><trkpt lat="43.2696825" lon="13.1895791"><ele>308.0</ele><time>2026-05-01T16:21:41.795Z</time></trkpt><trkpt lat="43.2695727" lon="13.189664"><ele>308.0</ele><time>2026-05-01T16:21:42.796Z</time></trkpt><trkpt lat="43.2694585" lon="13.1897451"><ele>308.0</ele><time>2026-05-01T16:21:43.794Z</time></trkpt><trkpt lat="43.269346" lon="13.1898235"><ele>308.0</ele><time>2026-05-01T16:21:44.795Z</time></trkpt><trkpt lat="43.2692337" lon="13.1898886"><ele>308.0</ele><time>2026-05-01T16:21:45.794Z</time></trkpt><trkpt lat="43.2691178" lon="13.1899367"><ele>300.25</ele><time>2026-05-01T16:21:46.795Z</time></trkpt><trkpt lat="43.2690013" lon="13.1899685"><ele>292.5</ele><time>2026-05-01T16:21:47.794Z</time></trkpt><trkpt lat="43.2688853" lon="13.18998"><ele>284.75</ele><time>2026-05-01T16:21:48.795Z</time></trkpt><trkpt lat="43.2687714" lon="13.1899727"><ele>277.0</ele><time>2026-05-01T16:21:49.794Z</time></trkpt><trkpt lat="43.2686557" lon="13.1899345"><ele>276.75</ele><time>2026-05-01T16:21:50.796Z</time></trkpt><trkpt lat="43.2685419" lon="13.1898891"><ele>276.5</ele><time>2026-05-01T16:21:51.795Z</time></trkpt><trkpt lat="43.2684326" lon="13.1898465"><ele>276.25</ele><time>2026-05-01T16:21:52.795Z</time></trkpt><trkpt lat="43.2683197" lon="13.1898146"><ele>276.0</ele><time>2026-05-01T16:21:53.795Z</time></trkpt><trkpt lat="43.2682004" lon="13.1898007"><ele>279.0</ele><time>2026-05-01T16:21:54.795Z</time></trkpt><trkpt lat="43.2680814" lon="13.1898121"><ele>282.0</ele><time>2026-05-01T16:21:55.794Z</time></trkpt><trkpt lat="43.2679666" lon="13.1898481"><ele>285.0</ele><time>2026-05-01T16:21:56.795Z</time></trkpt><trkpt lat="43.2678543" lon="13.1899108"><ele>288.0</ele><time>2026-05-01T16:21:57.795Z</time></trkpt><trkpt lat="43.2677504" lon="13.1899984"><ele>288.0</ele><time>2026-05-01T16:21:58.795Z</time></trkpt><trkpt lat="43.2676601" lon="13.1901094"><ele>288.0</ele><time>2026-05-01T16:21:59.795Z</time></trkpt><trkpt lat="43.2675727" lon="13.190231"><ele>288.0</ele><time>2026-05-01T16:22:00.795Z</time></trkpt><trkpt lat="43.2674781" lon="13.1903429"><ele>288.0</ele><time>2026-05-01T16:22:01.795Z</time></trkpt><trkpt lat="43.2673833" lon="13.1904586"><ele>288.0</ele><time>2026-05-01T16:22:02.795Z</time></trkpt><trkpt lat="43.2672822" lon="13.1905656"><ele>288.0</ele><time>2026-05-01T16:22:03.795Z</time></trkpt><trkpt lat="43.2671734" lon="13.1906707"><ele>288.0</ele><time>2026-05-01T16:22:04.795Z</time></trkpt><trkpt lat="43.2670705" lon="13.1907765"><ele>288.0</ele><time>2026-05-01T16:22:05.795Z</time></trkpt><trkpt lat="43.26697" lon="13.1908697"><ele>285.6</ele><time>2026-05-01T16:22:06.794Z</time></trkpt><trkpt lat="43.2668711" lon="13.1909656"><ele>283.20000000000005</ele><time>2026-05-01T16:22:07.794Z</time></trkpt><trkpt lat="43.2667767" lon="13.191048"><ele>280.8</ele><time>2026-05-01T16:22:08.796Z</time></trkpt><trkpt lat="43.266689" lon="13.1911276"><ele>278.40000000000003</ele><time>2026-05-01T16:22:09.795Z</time></trkpt><trkpt lat="43.2666087" lon="13.1911918"><ele>276.0</ele><time>2026-05-01T16:22:10.794Z</time></trkpt><trkpt lat="43.2665356" lon="13.1912537"><ele>276.0</ele><time>2026-05-01T16:22:11.794Z</time></trkpt><trkpt lat="43.2664657" lon="13.1913065"><ele>276.0</ele><time>2026-05-01T16:22:12.795Z</time></trkpt><trkpt lat="43.2663973" lon="13.1913497"><ele>276.0</ele><time>2026-05-01T16:22:13.796Z</time></trkpt><trkpt lat="43.2663302" lon="13.1913912"><ele>276.0</ele><time>2026-05-01T16:22:14.794Z</time></trkpt><trkpt lat="43.2662606" lon="13.1914346"><ele>276.0</ele><time>2026-05-01T16:22:15.796Z</time></trkpt><trkpt lat="43.2661862" lon="13.1914841"><ele>276.0</ele><time>2026-05-01T16:22:16.795Z</time></trkpt><trkpt lat="43.266109" lon="13.1915308"><ele>273.5</ele><time>2026-05-01T16:22:17.795Z</time></trkpt><trkpt lat="43.2660291" lon="13.191577"><ele>271.0</ele><time>2026-05-01T16:22:18.794Z</time></trkpt><trkpt lat="43.2659508" lon="13.1916241"><ele>268.5</ele><time>2026-05-01T16:22:19.796Z</time></trkpt><trkpt lat="43.2658778" lon="13.191667"><ele>266.0</ele><time>2026-05-01T16:22:20.795Z</time></trkpt><trkpt lat="43.2658043" lon="13.1917042"><ele>263.5</ele><time>2026-05-01T16:22:21.795Z</time></trkpt><trkpt lat="43.2657302" lon="13.1917445"><ele>261.0</ele><time>2026-05-01T16:22:22.794Z</time></trkpt><trkpt lat="43.2656607" lon="13.191789"><ele>260.3333333333333</ele><time>2026-05-01T16:22:23.794Z</time></trkpt><trkpt lat="43.2655902" lon="13.1918283"><ele>259.6666666666667</ele><time>2026-05-01T16:22:24.796Z</time></trkpt><trkpt lat="43.2655212" lon="13.1918702"><ele>259.0</ele><time>2026-05-01T16:22:25.795Z</time></trkpt><trkpt lat="43.2654498" lon="13.1919144"><ele>258.33333333333337</ele><time>2026-05-01T16:22:26.795Z</time></trkpt><trkpt lat="43.265379" lon="13.1919596"><ele>257.6666666666667</ele><time>2026-05-01T16:22:27.794Z</time></trkpt><trkpt lat="43.2653032" lon="13.1920049"><ele>257.0</ele><time>2026-05-01T16:22:28.794Z</time></trkpt><trkpt lat="43.2652311" lon="13.1920492"><ele>257.0</ele><time>2026-05-01T16:22:29.795Z</time></trkpt><trkpt lat="43.2651556" lon="13.1920965"><ele>257.0</ele><time>2026-05-01T16:22:30.794Z</time></trkpt><trkpt lat="43.2650786" lon="13.1921409"><ele>257.0</ele><time>2026-05-01T16:22:31.795Z</time></trkpt><trkpt lat="43.2650015" lon="13.1921875"><ele>257.0</ele><time>2026-05-01T16:22:32.795Z</time></trkpt><trkpt lat="43.2649255" lon="13.1922261"><ele>257.0</ele><time>2026-05-01T16:22:33.795Z</time></trkpt><trkpt lat="43.2648444" lon="13.1922759"><ele>257.0</ele><time>2026-05-01T16:22:34.794Z</time></trkpt><trkpt lat="43.2647618" lon="13.1923259"><ele>256.6</ele><time>2026-05-01T16:22:35.795Z</time></trkpt><trkpt lat="43.264678" lon="13.1923734"><ele>256.2</ele><time>2026-05-01T16:22:36.795Z</time></trkpt><trkpt lat="43.2645902" lon="13.1924249"><ele>255.8</ele><time>2026-05-01T16:22:37.795Z</time></trkpt><trkpt lat="43.2645051" lon="13.1924786"><ele>255.4</ele><time>2026-05-01T16:22:38.794Z</time></trkpt><trkpt lat="43.2644224" lon="13.1925398"><ele>255.0</ele><time>2026-05-01T16:22:39.795Z</time></trkpt><trkpt lat="43.2643395" lon="13.192605"><ele>255.0</ele><time>2026-05-01T16:22:40.795Z</time></trkpt><trkpt lat="43.2642585" lon="13.1926763"><ele>255.0</ele><time>2026-05-01T16:22:41.795Z</time></trkpt><trkpt lat="43.2641846" lon="13.1927516"><ele>255.0</ele><time>2026-05-01T16:22:42.795Z</time></trkpt><trkpt lat="43.2641141" lon="13.1928239"><ele>255.0</ele><time>2026-05-01T16:22:43.795Z</time></trkpt><trkpt lat="43.2640477" lon="13.1928887"><ele>255.0</ele><time>2026-05-01T16:22:44.795Z</time></trkpt><trkpt lat="43.2639841" lon="13.1929556"><ele>255.0</ele><time>2026-05-01T16:22:45.794Z</time></trkpt><trkpt lat="43.2639181" lon="13.1930166"><ele>255.33333333333334</ele><time>2026-05-01T16:22:46.795Z</time></trkpt><trkpt lat="43.2638526" lon="13.19308"><ele>255.66666666666669</ele><time>2026-05-01T16:22:47.795Z</time></trkpt><trkpt lat="43.2637874" lon="13.1931486"><ele>256.0</ele><time>2026-05-01T16:22:48.796Z</time></trkpt><trkpt lat="43.2637173" lon="13.1932185"><ele>256.33333333333337</ele><time>2026-05-01T16:22:49.795Z</time></trkpt><trkpt lat="43.2636431" lon="13.1932885"><ele>256.6666666666667</ele><time>2026-05-01T16:22:50.795Z</time></trkpt><trkpt lat="43.2635671" lon="13.1933607"><ele>257.0</ele><time>2026-05-01T16:22:51.794Z</time></trkpt><trkpt lat="43.2634924" lon="13.1934364"><ele>257.0</ele><time>2026-05-01T16:22:52.795Z</time></trkpt><trkpt lat="43.2634159" lon="13.1935127"><ele>257.0</ele><time>2026-05-01T16:22:53.794Z</time></trkpt><trkpt lat="43.2633335" lon="13.1935768"><ele>257.0</ele><time>2026-05-01T16:22:54.794Z</time></trkpt><trkpt lat="43.2632476" lon="13.1936342"><ele>257.0</ele><time>2026-05-01T16:22:55.795Z</time></trkpt><trkpt lat="43.2631525" lon="13.1936737"><ele>257.0</ele><time>2026-05-01T16:22:56.794Z</time></trkpt><trkpt lat="43.2630554" lon="13.193701"><ele>258.1666666666667</ele><time>2026-05-01T16:22:57.795Z</time></trkpt><trkpt lat="43.2629588" lon="13.1937225"><ele>259.33333333333337</ele><time>2026-05-01T16:22:58.794Z</time></trkpt><trkpt lat="43.262866" lon="13.1937391"><ele>260.5</ele><time>2026-05-01T16:22:59.795Z</time></trkpt><trkpt lat="43.2627818" lon="13.1937534"><ele>261.6666666666667</ele><time>2026-05-01T16:23:00.794Z</time></trkpt><trkpt lat="43.2627015" lon="13.1937701"><ele>262.8333333333333</ele><time>2026-05-01T16:23:01.795Z</time></trkpt><trkpt lat="43.2626167" lon="13.1937844"><ele>264.0</ele><time>2026-05-01T16:23:02.795Z</time></trkpt><trkpt lat="43.2625289" lon="13.1937979"><ele>264.0</ele><time>2026-05-01T16:23:03.794Z</time></trkpt><trkpt lat="43.2624395" lon="13.1938092"><ele>264.0</ele><time>2026-05-01T16:23:04.795Z</time></trkpt><trkpt lat="43.2623448" lon="13.1938247"><ele>264.0</ele><time>2026-05-01T16:23:05.795Z</time></trkpt><trkpt lat="43.2622479" lon="13.1938383"><ele>264.0</ele><time>2026-05-01T16:23:06.795Z</time></trkpt><trkpt lat="43.2621455" lon="13.1938523"><ele>264.0</ele><time>2026-05-01T16:23:07.794Z</time></trkpt><trkpt lat="43.2620378" lon="13.19387"><ele>264.8</ele><time>2026-05-01T16:23:08.795Z</time></trkpt><trkpt lat="43.2619309" lon="13.1938908"><ele>265.59999999999997</ele><time>2026-05-01T16:23:09.794Z</time></trkpt><trkpt lat="43.2618251" lon="13.193906"><ele>266.4</ele><time>2026-05-01T16:23:10.795Z</time></trkpt><trkpt lat="43.2617194" lon="13.1939259"><ele>267.2</ele><time>2026-05-01T16:23:11.794Z</time></trkpt><trkpt lat="43.2616138" lon="13.1939488"><ele>268.0</ele><time>2026-05-01T16:23:12.796Z</time></trkpt><trkpt lat="43.2615034" lon="13.1939758"><ele>266.0</ele><time>2026-05-01T16:23:13.796Z</time></trkpt><trkpt lat="43.2613931" lon="13.1940131"><ele>264.0</ele><time>2026-05-01T16:23:14.796Z</time></trkpt><trkpt lat="43.2612877" lon="13.1940546"><ele>262.0</ele><time>2026-05-01T16:23:15.794Z</time></trkpt><trkpt lat="43.2611862" lon="13.1940963"><ele>260.0</ele><time>2026-05-01T16:23:16.796Z</time></trkpt><trkpt lat="43.2610871" lon="13.1941381"><ele>258.0</ele><time>2026-05-01T16:23:17.795Z</time></trkpt><trkpt lat="43.2609884" lon="13.194183"><ele>258.0</ele><time>2026-05-01T16:23:18.795Z</time></trkpt><trkpt lat="43.2608941" lon="13.1942296"><ele>258.0</ele><time>2026-05-01T16:23:19.795Z</time></trkpt><trkpt lat="43.2608006" lon="13.1942726"><ele>258.0</ele><time>2026-05-01T16:23:20.794Z</time></trkpt><trkpt lat="43.2607063" lon="13.1943165"><ele>258.0</ele><time>2026-05-01T16:23:21.795Z</time></trkpt><trkpt lat="43.2606093" lon="13.1943616"><ele>258.0</ele><time>2026-05-01T16:23:22.794Z</time></trkpt><trkpt lat="43.260514" lon="13.1944075"><ele>257.6</ele><time>2026-05-01T16:23:23.795Z</time></trkpt><trkpt lat="43.2604143" lon="13.1944536"><ele>257.20000000000005</ele><time>2026-05-01T16:23:24.795Z</time></trkpt><trkpt lat="43.2603124" lon="13.1945013"><ele>256.8</ele><time>2026-05-01T16:23:25.796Z</time></trkpt><trkpt lat="43.2602092" lon="13.1945509"><ele>256.40000000000003</ele><time>2026-05-01T16:23:26.795Z</time></trkpt><trkpt lat="43.260105" lon="13.1946021"><ele>256.0</ele><time>2026-05-01T16:23:27.795Z</time></trkpt><trkpt lat="43.2600019" lon="13.1946534"><ele>256.0</ele><time>2026-05-01T16:23:28.795Z</time></trkpt><trkpt lat="43.2598953" lon="13.1946993"><ele>256.0</ele><time>2026-05-01T16:23:29.796Z</time></trkpt><trkpt lat="43.2597855" lon="13.1947459"><ele>256.0</ele><time>2026-05-01T16:23:30.795Z</time></trkpt><trkpt lat="43.2596749" lon="13.1947752"><ele>256.0</ele><time>2026-05-01T16:23:31.794Z</time></trkpt><trkpt lat="43.2595589" lon="13.1947851"><ele>256.5</ele><time>2026-05-01T16:23:32.795Z</time></trkpt><trkpt lat="43.2594453" lon="13.1947801"><ele>257.0</ele><time>2026-05-01T16:23:33.795Z</time></trkpt><trkpt lat="43.2593272" lon="13.1947713"><ele>257.5</ele><time>2026-05-01T16:23:34.795Z</time></trkpt><trkpt lat="43.2592153" lon="13.194755"><ele>258.0</ele><time>2026-05-01T16:23:35.794Z</time></trkpt><trkpt lat="43.2591057" lon="13.1947367"><ele>258.0</ele><time>2026-05-01T16:23:36.794Z</time></trkpt><trkpt lat="43.2589989" lon="13.1947229"><ele>258.0</ele><time>2026-05-01T16:23:37.795Z</time></trkpt><trkpt lat="43.2588927" lon="13.1947119"><ele>258.0</ele><time>2026-05-01T16:23:38.794Z</time></trkpt><trkpt lat="43.2587868" lon="13.194701"><ele>258.0</ele><time>2026-05-01T16:23:39.795Z</time></trkpt><trkpt lat="43.2586817" lon="13.1946904"><ele>258.0</ele><time>2026-05-01T16:23:40.795Z</time></trkpt><trkpt lat="43.2585756" lon="13.1946783"><ele>258.4</ele><time>2026-05-01T16:23:41.795Z</time></trkpt><trkpt lat="43.2584669" lon="13.1946617"><ele>258.8</ele><time>2026-05-01T16:23:42.794Z</time></trkpt><trkpt lat="43.2583557" lon="13.194645"><ele>259.2</ele><time>2026-05-01T16:23:43.795Z</time></trkpt><trkpt lat="43.2582466" lon="13.194631"><ele>259.6</ele><time>2026-05-01T16:23:44.795Z</time></trkpt><trkpt lat="43.2581408" lon="13.1946202"><ele>260.0</ele><time>2026-05-01T16:23:45.795Z</time></trkpt><trkpt lat="43.2580368" lon="13.194606"><ele>260.0</ele><time>2026-05-01T16:23:46.794Z</time></trkpt><trkpt lat="43.2579364" lon="13.1945917"><ele>260.0</ele><time>2026-05-01T16:23:47.794Z</time></trkpt><trkpt lat="43.2578348" lon="13.1945729"><ele>260.0</ele><time>2026-05-01T16:23:48.795Z</time></trkpt><trkpt lat="43.2577316" lon="13.1945537"><ele>260.0</ele><time>2026-05-01T16:23:49.794Z</time></trkpt><trkpt lat="43.2576292" lon="13.1945293"><ele>260.0</ele><time>2026-05-01T16:23:50.795Z</time></trkpt><trkpt lat="43.2575287" lon="13.1944966"><ele>260.0</ele><time>2026-05-01T16:23:51.794Z</time></trkpt><trkpt lat="43.2574343" lon="13.1944586"><ele>260.0</ele><time>2026-05-01T16:23:52.794Z</time></trkpt><trkpt lat="43.2573439" lon="13.1944154"><ele>260.0</ele><time>2026-05-01T16:23:53.795Z</time></trkpt><trkpt lat="43.2572542" lon="13.1943687"><ele>260.0</ele><time>2026-05-01T16:23:54.795Z</time></trkpt><trkpt lat="43.2571679" lon="13.1943243"><ele>260.0</ele><time>2026-05-01T16:23:55.794Z</time></trkpt><trkpt lat="43.25708" lon="13.1942819"><ele>259.2</ele><time>2026-05-01T16:23:56.796Z</time></trkpt><trkpt lat="43.2569932" lon="13.1942361"><ele>258.4</ele><time>2026-05-01T16:23:57.795Z</time></trkpt><trkpt lat="43.2569052" lon="13.1941914"><ele>257.6</ele><time>2026-05-01T16:23:58.795Z</time></trkpt><trkpt lat="43.2568151" lon="13.1941461"><ele>256.8</ele><time>2026-05-01T16:23:59.795Z</time></trkpt><trkpt lat="43.2567253" lon="13.1940994"><ele>256.0</ele><time>2026-05-01T16:24:00.795Z</time></trkpt><trkpt lat="43.2566344" lon="13.194051"><ele>256.2</ele><time>2026-05-01T16:24:01.795Z</time></trkpt><trkpt lat="43.2565449" lon="13.1940029"><ele>256.40000000000003</ele><time>2026-05-01T16:24:02.795Z</time></trkpt><trkpt lat="43.2564524" lon="13.1939529"><ele>256.6</ele><time>2026-05-01T16:24:03.795Z</time></trkpt><trkpt lat="43.2563604" lon="13.1939043"><ele>256.8</ele><time>2026-05-01T16:24:04.795Z</time></trkpt><trkpt lat="43.2562692" lon="13.193853"><ele>257.0</ele><time>2026-05-01T16:24:05.795Z</time></trkpt><trkpt lat="43.2561772" lon="13.193802"><ele>257.0</ele><time>2026-05-01T16:24:06.795Z</time></trkpt><trkpt lat="43.2560833" lon="13.1937576"><ele>257.0</ele><time>2026-05-01T16:24:07.795Z</time></trkpt><trkpt lat="43.25599" lon="13.1937087"><ele>257.0</ele><time>2026-05-01T16:24:08.795Z</time></trkpt><trkpt lat="43.2558974" lon="13.1936572"><ele>257.0</ele><time>2026-05-01T16:24:09.795Z</time></trkpt><trkpt lat="43.2558014" lon="13.1936097"><ele>257.0</ele><time>2026-05-01T16:24:10.795Z</time></trkpt><trkpt lat="43.2557039" lon="13.1935598"><ele>257.0</ele><time>2026-05-01T16:24:11.795Z</time></trkpt><trkpt lat="43.2556044" lon="13.1935115"><ele>257.0</ele><time>2026-05-01T16:24:12.795Z</time></trkpt><trkpt lat="43.255503" lon="13.1934605"><ele>257.0</ele><time>2026-05-01T16:24:13.794Z</time></trkpt><trkpt lat="43.2554011" lon="13.1934034"><ele>257.0</ele><time>2026-05-01T16:24:14.795Z</time></trkpt><trkpt lat="43.2552974" lon="13.1933458"><ele>257.0</ele><time>2026-05-01T16:24:15.796Z</time></trkpt><trkpt lat="43.2551917" lon="13.1932854"><ele>257.0</ele><time>2026-05-01T16:24:16.795Z</time></trkpt><trkpt lat="43.2550821" lon="13.1932281"><ele>257.0</ele><time>2026-05-01T16:24:17.796Z</time></trkpt><trkpt lat="43.2549783" lon="13.1931636"><ele>257.0</ele><time>2026-05-01T16:24:18.796Z</time></trkpt><trkpt lat="43.2548666" lon="13.1931061"><ele>257.0</ele><time>2026-05-01T16:24:19.794Z</time></trkpt><trkpt lat="43.2547531" lon="13.1930489"><ele>257.0</ele><time>2026-05-01T16:24:20.795Z</time></trkpt><trkpt lat="43.2546425" lon="13.1929919"><ele>257.0</ele><time>2026-05-01T16:24:21.794Z</time></trkpt><trkpt lat="43.2545332" lon="13.1929374"><ele>257.0</ele><time>2026-05-01T16:24:22.794Z</time></trkpt><trkpt lat="43.2544261" lon="13.1928837"><ele>257.0</ele><time>2026-05-01T16:24:23.795Z</time></trkpt><trkpt lat="43.2543224" lon="13.1928255"><ele>257.0</ele><time>2026-05-01T16:24:24.796Z</time></trkpt><trkpt lat="43.2542179" lon="13.1927657"><ele>257.0</ele><time>2026-05-01T16:24:25.794Z</time></trkpt><trkpt lat="43.2541099" lon="13.1927119"><ele>257.0</ele><time>2026-05-01T16:24:26.795Z</time></trkpt><trkpt lat="43.2540011" lon="13.1926545"><ele>257.0</ele><time>2026-05-01T16:24:27.794Z</time></trkpt><trkpt lat="43.2538935" lon="13.1925971"><ele>256.25</ele><time>2026-05-01T16:24:28.795Z</time></trkpt><trkpt lat="43.2537857" lon="13.19254"><ele>255.5</ele><time>2026-05-01T16:24:29.795Z</time></trkpt><trkpt lat="43.2536756" lon="13.1924781"><ele>254.75</ele><time>2026-05-01T16:24:30.795Z</time></trkpt><trkpt lat="43.2535646" lon="13.1924196"><ele>254.0</ele><time>2026-05-01T16:24:31.795Z</time></trkpt><trkpt lat="43.2534526" lon="13.1923592"><ele>254.5</ele><time>2026-05-01T16:24:32.796Z</time></trkpt><trkpt lat="43.2533421" lon="13.1922974"><ele>255.0</ele><time>2026-05-01T16:24:33.795Z</time></trkpt><trkpt lat="43.2532301" lon="13.1922333"><ele>255.5</ele><time>2026-05-01T16:24:34.794Z</time></trkpt><trkpt lat="43.2531185" lon="13.192174"><ele>256.0</ele><time>2026-05-01T16:24:35.796Z</time></trkpt><trkpt lat="43.2530038" lon="13.192114"><ele>256.0</ele><time>2026-05-01T16:24:36.795Z</time></trkpt><trkpt lat="43.2528847" lon="13.1920516"><ele>256.0</ele><time>2026-05-01T16:24:37.796Z</time></trkpt><trkpt lat="43.2527684" lon="13.1919856"><ele>256.0</ele><time>2026-05-01T16:24:38.795Z</time></trkpt><trkpt lat="43.2526511" lon="13.1919245"><ele>256.0</ele><time>2026-05-01T16:24:39.796Z</time></trkpt><trkpt lat="43.2525321" lon="13.1918619"><ele>256.0</ele><time>2026-05-01T16:24:40.794Z</time></trkpt><trkpt lat="43.2524076" lon="13.1917986"><ele>256.0</ele><time>2026-05-01T16:24:41.794Z</time></trkpt><trkpt lat="43.2522823" lon="13.1917328"><ele>256.0</ele><time>2026-05-01T16:24:42.795Z</time></trkpt><trkpt lat="43.252154" lon="13.1916675"><ele>256.0</ele><time>2026-05-01T16:24:43.795Z</time></trkpt><trkpt lat="43.2520231" lon="13.1916009"><ele>256.0</ele><time>2026-05-01T16:24:44.795Z</time></trkpt><trkpt lat="43.2518972" lon="13.1915322"><ele>256.0</ele><time>2026-05-01T16:24:45.795Z</time></trkpt><trkpt lat="43.2517694" lon="13.1914619"><ele>256.0</ele><time>2026-05-01T16:24:46.794Z</time></trkpt><trkpt lat="43.2516391" lon="13.1913897"><ele>256.0</ele><time>2026-05-01T16:24:47.795Z</time></trkpt><trkpt lat="43.2515085" lon="13.1913199"><ele>256.0</ele><time>2026-05-01T16:24:48.795Z</time></trkpt><trkpt lat="43.2513766" lon="13.191247"><ele>256.0</ele><time>2026-05-01T16:24:49.794Z</time></trkpt><trkpt lat="43.2512459" lon="13.1911759"><ele>256.0</ele><time>2026-05-01T16:24:50.795Z</time></trkpt><trkpt lat="43.2511152" lon="13.1911066"><ele>256.0</ele><time>2026-05-01T16:24:51.795Z</time></trkpt><trkpt lat="43.2509799" lon="13.1910408"><ele>256.0</ele><time>2026-05-01T16:24:52.794Z</time></trkpt><trkpt lat="43.2508506" lon="13.1909686"><ele>256.0</ele><time>2026-05-01T16:24:53.795Z</time></trkpt><trkpt lat="43.2507162" lon="13.1909018"><ele>256.0</ele><time>2026-05-01T16:24:54.794Z</time></trkpt><trkpt lat="43.2505787" lon="13.190833"><ele>256.0</ele><time>2026-05-01T16:24:55.795Z</time></trkpt><trkpt lat="43.2504415" lon="13.1907631"><ele>255.5</ele><time>2026-05-01T16:24:56.795Z</time></trkpt><trkpt lat="43.2503068" lon="13.1906901"><ele>255.0</ele><time>2026-05-01T16:24:57.795Z</time></trkpt><trkpt lat="43.2501684" lon="13.1906207"><ele>254.5</ele><time>2026-05-01T16:24:58.794Z</time></trkpt><trkpt lat="43.2500285" lon="13.1905514"><ele>254.0</ele><time>2026-05-01T16:24:59.794Z</time></trkpt><trkpt lat="43.2498891" lon="13.1904771"><ele>254.0</ele><time>2026-05-01T16:25:00.795Z</time></trkpt><trkpt lat="43.2497452" lon="13.1904051"><ele>254.0</ele><time>2026-05-01T16:25:01.795Z</time></trkpt><trkpt lat="43.2496033" lon="13.1903298"><ele>254.0</ele><time>2026-05-01T16:25:02.795Z</time></trkpt><trkpt lat="43.2494612" lon="13.1902539"><ele>254.0</ele><time>2026-05-01T16:25:03.795Z</time></trkpt><trkpt lat="43.249318" lon="13.190175"><ele>254.0</ele><time>2026-05-01T16:25:04.794Z</time></trkpt><trkpt lat="43.2491759" lon="13.1901"><ele>254.0</ele><time>2026-05-01T16:25:05.795Z</time></trkpt><trkpt lat="43.2490319" lon="13.1900304"><ele>254.0</ele><time>2026-05-01T16:25:06.795Z</time></trkpt><trkpt lat="43.2488859" lon="13.1899568"><ele>254.0</ele><time>2026-05-01T16:25:07.794Z</time></trkpt><trkpt lat="43.2487444" lon="13.1898821"><ele>254.0</ele><time>2026-05-01T16:25:08.795Z</time></trkpt><trkpt lat="43.2486066" lon="13.1898072"><ele>254.0</ele><time>2026-05-01T16:25:09.795Z</time></trkpt><trkpt lat="43.2484663" lon="13.1897305"><ele>254.0</ele><time>2026-05-01T16:25:10.794Z</time></trkpt><trkpt lat="43.2483268" lon="13.1896556"><ele>254.0</ele><time>2026-05-01T16:25:11.794Z</time></trkpt><trkpt lat="43.2481856" lon="13.1895753"><ele>254.66666666666669</ele><time>2026-05-01T16:25:12.795Z</time></trkpt><trkpt lat="43.2480435" lon="13.1894986"><ele>255.33333333333331</ele><time>2026-05-01T16:25:13.794Z</time></trkpt><trkpt lat="43.2478969" lon="13.1894225"><ele>256.0</ele><time>2026-05-01T16:25:14.795Z</time></trkpt><trkpt lat="43.24775" lon="13.1893445"><ele>256.0</ele><time>2026-05-01T16:25:15.795Z</time></trkpt><trkpt lat="43.2475986" lon="13.1892636"><ele>256.0</ele><time>2026-05-01T16:25:16.795Z</time></trkpt><trkpt lat="43.2474423" lon="13.1891796"><ele>256.0</ele><time>2026-05-01T16:25:17.795Z</time></trkpt><trkpt lat="43.2472834" lon="13.1890961"><ele>255.66666666666666</ele><time>2026-05-01T16:25:18.795Z</time></trkpt><trkpt lat="43.2471172" lon="13.1890093"><ele>255.33333333333331</ele><time>2026-05-01T16:25:19.794Z</time></trkpt><trkpt lat="43.2469515" lon="13.1889199"><ele>255.0</ele><time>2026-05-01T16:25:20.794Z</time></trkpt><trkpt lat="43.2467924" lon="13.1888338"><ele>255.0</ele><time>2026-05-01T16:25:21.794Z</time></trkpt><trkpt lat="43.2466379" lon="13.1887426"><ele>255.0</ele><time>2026-05-01T16:25:22.794Z</time></trkpt><trkpt lat="43.2464854" lon="13.1886573"><ele>255.0</ele><time>2026-05-01T16:25:23.794Z</time></trkpt><trkpt lat="43.2463332" lon="13.1885801"><ele>256.0</ele><time>2026-05-01T16:25:24.796Z</time></trkpt><trkpt lat="43.2461827" lon="13.1885049"><ele>257.0</ele><time>2026-05-01T16:25:25.795Z</time></trkpt><trkpt lat="43.2460408" lon="13.1884305"><ele>258.0</ele><time>2026-05-01T16:25:26.794Z</time></trkpt><trkpt lat="43.2459002" lon="13.188354"><ele>258.0</ele><time>2026-05-01T16:25:27.795Z</time></trkpt><trkpt lat="43.2457603" lon="13.1882805"><ele>258.0</ele><time>2026-05-01T16:25:28.796Z</time></trkpt><trkpt lat="43.2456237" lon="13.1882118"><ele>258.0</ele><time>2026-05-01T16:25:29.795Z</time></trkpt><trkpt lat="43.2454878" lon="13.1881395"><ele>258.0</ele><time>2026-05-01T16:25:30.795Z</time></trkpt><trkpt lat="43.2453551" lon="13.1880667"><ele>260.0</ele><time>2026-05-01T16:25:31.795Z</time></trkpt><trkpt lat="43.2452234" lon="13.1879944"><ele>262.0</ele><time>2026-05-01T16:25:32.794Z</time></trkpt><trkpt lat="43.2450937" lon="13.1879248"><ele>264.0</ele><time>2026-05-01T16:25:33.795Z</time></trkpt><trkpt lat="43.2449633" lon="13.1878606"><ele>266.0</ele><time>2026-05-01T16:25:34.795Z</time></trkpt><trkpt lat="43.2448349" lon="13.1877955"><ele>265.75</ele><time>2026-05-01T16:25:35.794Z</time></trkpt><trkpt lat="43.24471" lon="13.1877288"><ele>265.5</ele><time>2026-05-01T16:25:36.796Z</time></trkpt><trkpt lat="43.2445846" lon="13.1876589"><ele>265.25</ele><time>2026-05-01T16:25:37.795Z</time></trkpt><trkpt lat="43.2444632" lon="13.1875945"><ele>265.0</ele><time>2026-05-01T16:25:38.795Z</time></trkpt><trkpt lat="43.2443448" lon="13.1875282"><ele>265.0</ele><time>2026-05-01T16:25:39.795Z</time></trkpt><trkpt lat="43.2442294" lon="13.1874662"><ele>265.0</ele><time>2026-05-01T16:25:40.795Z</time></trkpt><trkpt lat="43.2441172" lon="13.1874081"><ele>265.0</ele><time>2026-05-01T16:25:41.795Z</time></trkpt><trkpt lat="43.2440123" lon="13.1873488"><ele>265.0</ele><time>2026-05-01T16:25:42.795Z</time></trkpt><trkpt lat="43.2439118" lon="13.1872943"><ele>265.6</ele><time>2026-05-01T16:25:43.794Z</time></trkpt><trkpt lat="43.2438137" lon="13.1872415"><ele>266.2</ele><time>2026-05-01T16:25:44.795Z</time></trkpt><trkpt lat="43.2437147" lon="13.1871901"><ele>266.8</ele><time>2026-05-01T16:25:45.795Z</time></trkpt><trkpt lat="43.2436154" lon="13.1871408"><ele>267.4</ele><time>2026-05-01T16:25:46.795Z</time></trkpt><trkpt lat="43.2435161" lon="13.1870913"><ele>268.0</ele><time>2026-05-01T16:25:47.795Z</time></trkpt><trkpt lat="43.2434117" lon="13.1870398"><ele>268.0</ele><time>2026-05-01T16:25:48.795Z</time></trkpt><trkpt lat="43.2433086" lon="13.1869837"><ele>268.0</ele><time>2026-05-01T16:25:49.795Z</time></trkpt><trkpt lat="43.2432003" lon="13.186935"><ele>268.0</ele><time>2026-05-01T16:25:50.794Z</time></trkpt><trkpt lat="43.2430917" lon="13.1868993"><ele>268.0</ele><time>2026-05-01T16:25:51.796Z</time></trkpt><trkpt lat="43.2429805" lon="13.1868674"><ele>267.6</ele><time>2026-05-01T16:25:52.794Z</time></trkpt><trkpt lat="43.2428694" lon="13.1868405"><ele>267.20000000000005</ele><time>2026-05-01T16:25:53.794Z</time></trkpt><trkpt lat="43.2427636" lon="13.1868221"><ele>266.8</ele><time>2026-05-01T16:25:54.794Z</time></trkpt><trkpt lat="43.2426565" lon="13.1868159"><ele>266.40000000000003</ele><time>2026-05-01T16:25:55.794Z</time></trkpt><trkpt lat="43.2425557" lon="13.1868195"><ele>266.0</ele><time>2026-05-01T16:25:56.794Z</time></trkpt><trkpt lat="43.2424638" lon="13.1868255"><ele>266.0</ele><time>2026-05-01T16:25:57.795Z</time></trkpt><trkpt lat="43.2423668" lon="13.1868426"><ele>266.0</ele><time>2026-05-01T16:25:58.794Z</time></trkpt><trkpt lat="43.2422678" lon="13.1868575"><ele>266.0</ele><time>2026-05-01T16:25:59.795Z</time></trkpt><trkpt lat="43.2421679" lon="13.1868765"><ele>266.0</ele><time>2026-05-01T16:26:00.795Z</time></trkpt><trkpt lat="43.2420634" lon="13.1869036"><ele>266.0</ele><time>2026-05-01T16:26:01.796Z</time></trkpt><trkpt lat="43.2419571" lon="13.1869304"><ele>266.5</ele><time>2026-05-01T16:26:02.795Z</time></trkpt><trkpt lat="43.2418459" lon="13.1869582"><ele>267.0</ele><time>2026-05-01T16:26:03.795Z</time></trkpt><trkpt lat="43.2417342" lon="13.1869872"><ele>267.5</ele><time>2026-05-01T16:26:04.795Z</time></trkpt><trkpt lat="43.2416204" lon="13.1870173"><ele>268.0</ele><time>2026-05-01T16:26:05.795Z</time></trkpt><trkpt lat="43.2415044" lon="13.1870474"><ele>267.8</ele><time>2026-05-01T16:26:06.795Z</time></trkpt><trkpt lat="43.2413934" lon="13.1870777"><ele>267.6</ele><time>2026-05-01T16:26:07.794Z</time></trkpt><trkpt lat="43.2412823" lon="13.1871053"><ele>267.4</ele><time>2026-05-01T16:26:08.796Z</time></trkpt><trkpt lat="43.2411755" lon="13.1871349"><ele>267.2</ele><time>2026-05-01T16:26:09.795Z</time></trkpt><trkpt lat="43.2410681" lon="13.1871642"><ele>267.0</ele><time>2026-05-01T16:26:10.795Z</time></trkpt><trkpt lat="43.240962" lon="13.187192"><ele>267.0</ele><time>2026-05-01T16:26:11.795Z</time></trkpt><trkpt lat="43.2408517" lon="13.1872201"><ele>267.0</ele><time>2026-05-01T16:26:12.796Z</time></trkpt><trkpt lat="43.2407432" lon="13.1872525"><ele>267.0</ele><time>2026-05-01T16:26:13.795Z</time></trkpt><trkpt lat="43.2406377" lon="13.1872838"><ele>267.0</ele><time>2026-05-01T16:26:14.794Z</time></trkpt><trkpt lat="43.2405278" lon="13.187319"><ele>267.0</ele><time>2026-05-01T16:26:15.794Z</time></trkpt><trkpt lat="43.2404241" lon="13.1873662"><ele>265.5</ele><time>2026-05-01T16:26:16.794Z</time></trkpt><trkpt lat="43.2403212" lon="13.1874196"><ele>264.0</ele><time>2026-05-01T16:26:17.794Z</time></trkpt><trkpt lat="43.2402137" lon="13.1874781"><ele>262.5</ele><time>2026-05-01T16:26:18.795Z</time></trkpt><trkpt lat="43.2401067" lon="13.1875519"><ele>261.0</ele><time>2026-05-01T16:26:19.795Z</time></trkpt><trkpt lat="43.2399998" lon="13.1876354"><ele>261.0</ele><time>2026-05-01T16:26:20.794Z</time></trkpt><trkpt lat="43.2398982" lon="13.1877283"><ele>261.0</ele><time>2026-05-01T16:26:21.794Z</time></trkpt><trkpt lat="43.2397988" lon="13.1878297"><ele>261.0</ele><time>2026-05-01T16:26:22.795Z</time></trkpt><trkpt lat="43.2397005" lon="13.187934"><ele>261.0</ele><time>2026-05-01T16:26:23.796Z</time></trkpt><trkpt lat="43.2396012" lon="13.1880437"><ele>260.0</ele><time>2026-05-01T16:26:24.795Z</time></trkpt><trkpt lat="43.2395055" lon="13.1881564"><ele>259.0</ele><time>2026-05-01T16:26:25.794Z</time></trkpt><trkpt lat="43.2394039" lon="13.1882678"><ele>258.0</ele><time>2026-05-01T16:26:26.795Z</time></trkpt><trkpt lat="43.2393013" lon="13.1883771"><ele>257.0</ele><time>2026-05-01T16:26:27.795Z</time></trkpt><trkpt lat="43.2392034" lon="13.188482"><ele>257.0</ele><time>2026-05-01T16:26:28.795Z</time></trkpt><trkpt lat="43.2391093" lon="13.1885827"><ele>257.0</ele><time>2026-05-01T16:26:29.795Z</time></trkpt><trkpt lat="43.2390174" lon="13.1886844"><ele>257.0</ele><time>2026-05-01T16:26:30.794Z</time></trkpt><trkpt lat="43.2389254" lon="13.1887859"><ele>257.0</ele><time>2026-05-01T16:26:31.794Z</time></trkpt><trkpt lat="43.2388349" lon="13.1888875"><ele>256.25</ele><time>2026-05-01T16:26:32.796Z</time></trkpt><trkpt lat="43.2387432" lon="13.188993"><ele>255.5</ele><time>2026-05-01T16:26:33.794Z</time></trkpt><trkpt lat="43.2386492" lon="13.1890987"><ele>254.75</ele><time>2026-05-01T16:26:34.794Z</time></trkpt><trkpt lat="43.2385529" lon="13.1891971"><ele>254.0</ele><time>2026-05-01T16:26:35.796Z</time></trkpt><trkpt lat="43.2384562" lon="13.1892914"><ele>254.0</ele><time>2026-05-01T16:26:36.794Z</time></trkpt><trkpt lat="43.2383605" lon="13.1893666"><ele>253.99999999999997</ele><time>2026-05-01T16:26:37.795Z</time></trkpt><trkpt lat="43.2382678" lon="13.1894285"><ele>253.99999999999997</ele><time>2026-05-01T16:26:38.794Z</time></trkpt><trkpt lat="43.2381774" lon="13.189481"><ele>254.0</ele><time>2026-05-01T16:26:39.794Z</time></trkpt><trkpt lat="43.2380896" lon="13.189524"><ele>254.0</ele><time>2026-05-01T16:26:40.796Z</time></trkpt><trkpt lat="43.2380045" lon="13.1895542"><ele>252.83333333333334</ele><time>2026-05-01T16:26:41.794Z</time></trkpt><trkpt lat="43.2379239" lon="13.1895751"><ele>251.66666666666669</ele><time>2026-05-01T16:26:42.796Z</time></trkpt><trkpt lat="43.2378414" lon="13.1895885"><ele>250.5</ele><time>2026-05-01T16:26:43.795Z</time></trkpt><trkpt lat="43.237759" lon="13.1895963"><ele>249.33333333333331</ele><time>2026-05-01T16:26:44.794Z</time></trkpt><trkpt lat="43.2376805" lon="13.1895868"><ele>248.16666666666666</ele><time>2026-05-01T16:26:45.794Z</time></trkpt><trkpt lat="43.2376094" lon="13.1895707"><ele>247.0</ele><time>2026-05-01T16:26:46.794Z</time></trkpt><trkpt lat="43.2375103" lon="13.1895321"><ele>247.0</ele><time>2026-05-01T16:26:48.796Z</time></trkpt><trkpt lat="43.2374263" lon="13.1894594"><ele>247.0</ele><time>2026-05-01T16:26:50.794Z</time></trkpt><trkpt lat="43.2373641" lon="13.1892885"><ele>247.0</ele><time>2026-05-01T16:26:52.794Z</time></trkpt><trkpt lat="43.2373336" lon="13.189178"><ele>247.0</ele><time>2026-05-01T16:26:53.796Z</time></trkpt><trkpt lat="43.2373056" lon="13.1890514"><ele>247.0</ele><time>2026-05-01T16:26:54.795Z</time></trkpt><trkpt lat="43.2372678" lon="13.1889155"><ele>246.0</ele><time>2026-05-01T16:26:55.794Z</time></trkpt><trkpt lat="43.2372173" lon="13.1887751"><ele>245.0</ele><time>2026-05-01T16:26:56.794Z</time></trkpt><trkpt lat="43.2371553" lon="13.1886282"><ele>244.0</ele><time>2026-05-01T16:26:57.794Z</time></trkpt><trkpt lat="43.2370874" lon="13.1884586"><ele>243.0</ele><time>2026-05-01T16:26:58.795Z</time></trkpt><trkpt lat="43.2370247" lon="13.1882762"><ele>243.66666666666669</ele><time>2026-05-01T16:26:59.795Z</time></trkpt><trkpt lat="43.2369712" lon="13.188084"><ele>244.33333333333334</ele><time>2026-05-01T16:27:00.796Z</time></trkpt><trkpt lat="43.2369239" lon="13.1878862"><ele>245.0</ele><time>2026-05-01T16:27:01.795Z</time></trkpt><trkpt lat="43.2368801" lon="13.1876901"><ele>245.0</ele><time>2026-05-01T16:27:02.794Z</time></trkpt><trkpt lat="43.2368397" lon="13.1874932"><ele>245.0</ele><time>2026-05-01T16:27:03.795Z</time></trkpt><trkpt lat="43.2368057" lon="13.1873031"><ele>245.0</ele><time>2026-05-01T16:27:04.795Z</time></trkpt><trkpt lat="43.2367733" lon="13.1871253"><ele>245.0</ele><time>2026-05-01T16:27:05.795Z</time></trkpt><trkpt lat="43.2367398" lon="13.1869528"><ele>245.8</ele><time>2026-05-01T16:27:06.795Z</time></trkpt><trkpt lat="43.2367071" lon="13.1867886"><ele>246.6</ele><time>2026-05-01T16:27:07.795Z</time></trkpt><trkpt lat="43.2366749" lon="13.1866365"><ele>247.39999999999998</ele><time>2026-05-01T16:27:08.795Z</time></trkpt><trkpt lat="43.2366557" lon="13.186491"><ele>248.2</ele><time>2026-05-01T16:27:09.795Z</time></trkpt><trkpt lat="43.2366502" lon="13.186371"><ele>249.0</ele><time>2026-05-01T16:27:10.795Z</time></trkpt><trkpt lat="43.236655" lon="13.1862801"><ele>249.39999999999998</ele><time>2026-05-01T16:27:11.795Z</time></trkpt><trkpt lat="43.2366626" lon="13.1861538"><ele>249.79999999999998</ele><time>2026-05-01T16:27:13.795Z</time></trkpt><trkpt lat="43.2366069" lon="13.1860336"><ele>250.20000000000002</ele><time>2026-05-01T16:27:15.795Z</time></trkpt><trkpt lat="43.2365414" lon="13.1859978"><ele>250.60000000000002</ele><time>2026-05-01T16:27:16.795Z</time></trkpt><trkpt lat="43.2364562" lon="13.1859756"><ele>251.0</ele><time>2026-05-01T16:27:17.796Z</time></trkpt><trkpt lat="43.2363579" lon="13.185958"><ele>248.75</ele><time>2026-05-01T16:27:18.794Z</time></trkpt><trkpt lat="43.2362463" lon="13.1859379"><ele>246.5</ele><time>2026-05-01T16:27:19.794Z</time></trkpt><trkpt lat="43.2361275" lon="13.1859173"><ele>244.25</ele><time>2026-05-01T16:27:20.795Z</time></trkpt><trkpt lat="43.2360058" lon="13.1858925"><ele>242.0</ele><time>2026-05-01T16:27:21.794Z</time></trkpt><trkpt lat="43.2358772" lon="13.1858726"><ele>242.0</ele><time>2026-05-01T16:27:22.795Z</time></trkpt><trkpt lat="43.235743" lon="13.1858489"><ele>242.0</ele><time>2026-05-01T16:27:23.794Z</time></trkpt><trkpt lat="43.2356121" lon="13.18582"><ele>242.0</ele><time>2026-05-01T16:27:24.794Z</time></trkpt><trkpt lat="43.2354839" lon="13.185791"><ele>242.0</ele><time>2026-05-01T16:27:25.794Z</time></trkpt><trkpt lat="43.2353592" lon="13.1857616"><ele>240.0</ele><time>2026-05-01T16:27:26.795Z</time></trkpt><trkpt lat="43.2352396" lon="13.1857351"><ele>238.0</ele><time>2026-05-01T16:27:27.795Z</time></trkpt><trkpt lat="43.235129" lon="13.1857098"><ele>236.0</ele><time>2026-05-01T16:27:28.794Z</time></trkpt><trkpt lat="43.2350193" lon="13.1856887"><ele>234.0</ele><time>2026-05-01T16:27:29.795Z</time></trkpt><trkpt lat="43.2349142" lon="13.1856667"><ele>234.0</ele><time>2026-05-01T16:27:30.794Z</time></trkpt><trkpt lat="43.2348137" lon="13.1856436"><ele>234.0</ele><time>2026-05-01T16:27:31.794Z</time></trkpt><trkpt lat="43.2347172" lon="13.1856224"><ele>234.0</ele><time>2026-05-01T16:27:32.795Z</time></trkpt><trkpt lat="43.2346335" lon="13.1855987"><ele>234.0</ele><time>2026-05-01T16:27:33.795Z</time></trkpt><trkpt lat="43.2345688" lon="13.1855742"><ele>234.0</ele><time>2026-05-01T16:27:34.795Z</time></trkpt><trkpt lat="43.2344997" lon="13.185528"><ele>234.0</ele><time>2026-05-01T16:27:37.794Z</time></trkpt><trkpt lat="43.2344423" lon="13.1854142"><ele>234.0</ele><time>2026-05-01T16:27:39.796Z</time></trkpt><trkpt lat="43.2344218" lon="13.1853236"><ele>234.00000000000003</ele><time>2026-05-01T16:27:40.795Z</time></trkpt><trkpt lat="43.2344023" lon="13.1852206"><ele>234.0</ele><time>2026-05-01T16:27:41.794Z</time></trkpt><trkpt lat="43.2343849" lon="13.18512"><ele>234.0</ele><time>2026-05-01T16:27:42.795Z</time></trkpt><trkpt lat="43.2343671" lon="13.185028"><ele>234.00000000000003</ele><time>2026-05-01T16:27:43.794Z</time></trkpt><trkpt lat="43.2343459" lon="13.1849357"><ele>234.0</ele><time>2026-05-01T16:27:44.796Z</time></trkpt><trkpt lat="43.2343297" lon="13.184839"><ele>234.0</ele><time>2026-05-01T16:27:45.795Z</time></trkpt><trkpt lat="43.234314" lon="13.1847546"><ele>234.0</ele><time>2026-05-01T16:27:46.795Z</time></trkpt><trkpt lat="43.2342751" lon="13.1846382"><ele>234.0</ele><time>2026-05-01T16:27:48.795Z</time></trkpt><trkpt lat="43.2342117" lon="13.1845915"><ele>234.0</ele><time>2026-05-01T16:27:50.795Z</time></trkpt><trkpt lat="43.2341851" lon="13.1844931"><ele>234.0</ele><time>2026-05-01T16:27:53.795Z</time></trkpt><trkpt lat="43.2341617" lon="13.1844024"><ele>234.0</ele><time>2026-05-01T16:27:56.795Z</time></trkpt><trkpt lat="43.2341305" lon="13.1845423"><ele>234.0</ele><time>2026-05-01T16:37:17.794Z</time></trkpt><trkpt lat="43.234163" lon="13.1846201"><ele>234.0</ele><time>2026-05-01T16:37:20.794Z</time></trkpt><trkpt lat="43.2342453" lon="13.1845965"><ele>234.0</ele><time>2026-05-01T16:37:33.795Z</time></trkpt><trkpt lat="43.2343016" lon="13.1845245"><ele>234.0</ele><time>2026-05-01T16:37:35.793Z</time></trkpt><trkpt lat="43.2343389" lon="13.1843753"><ele>234.0</ele><time>2026-05-01T16:37:37.793Z</time></trkpt><trkpt lat="43.2343467" lon="13.1842788"><ele>234.0</ele><time>2026-05-01T16:37:38.793Z</time></trkpt><trkpt lat="43.2343537" lon="13.1841706"><ele>234.0</ele><time>2026-05-01T16:37:39.794Z</time></trkpt><trkpt lat="43.234361" lon="13.184057"><ele>234.79999999999998</ele><time>2026-05-01T16:37:40.795Z</time></trkpt><trkpt lat="43.234372" lon="13.1839319"><ele>235.59999999999997</ele><time>2026-05-01T16:37:41.794Z</time></trkpt><trkpt lat="43.2343853" lon="13.1838033"><ele>236.4</ele><time>2026-05-01T16:37:42.794Z</time></trkpt><trkpt lat="43.2343994" lon="13.1836746"><ele>237.2</ele><time>2026-05-01T16:37:43.793Z</time></trkpt><trkpt lat="43.2344092" lon="13.183545"><ele>238.0</ele><time>2026-05-01T16:37:44.793Z</time></trkpt><trkpt lat="43.2344148" lon="13.1834084"><ele>238.0</ele><time>2026-05-01T16:37:45.794Z</time></trkpt><trkpt lat="43.2344205" lon="13.1832678"><ele>238.0</ele><time>2026-05-01T16:37:46.793Z</time></trkpt><trkpt lat="43.234419" lon="13.1831221"><ele>238.0</ele><time>2026-05-01T16:37:47.793Z</time></trkpt><trkpt lat="43.2344125" lon="13.1829726"><ele>238.0</ele><time>2026-05-01T16:37:48.794Z</time></trkpt><trkpt lat="43.2344036" lon="13.1828263"><ele>238.0</ele><time>2026-05-01T16:37:49.794Z</time></trkpt><trkpt lat="43.2343905" lon="13.1826822"><ele>238.2</ele><time>2026-05-01T16:37:50.794Z</time></trkpt><trkpt lat="43.2343744" lon="13.182533"><ele>238.4</ele><time>2026-05-01T16:37:51.795Z</time></trkpt><trkpt lat="43.2343588" lon="13.1823877"><ele>238.59999999999997</ele><time>2026-05-01T16:37:52.794Z</time></trkpt><trkpt lat="43.2343453" lon="13.182247"><ele>238.79999999999998</ele><time>2026-05-01T16:37:53.793Z</time></trkpt><trkpt lat="43.2343321" lon="13.1821173"><ele>239.0</ele><time>2026-05-01T16:37:54.794Z</time></trkpt><trkpt lat="43.2343151" lon="13.1819995"><ele>239.16666666666669</ele><time>2026-05-01T16:37:55.793Z</time></trkpt><trkpt lat="43.2342915" lon="13.1818934"><ele>239.33333333333334</ele><time>2026-05-01T16:37:56.794Z</time></trkpt><trkpt lat="43.2342634" lon="13.1818073"><ele>239.5</ele><time>2026-05-01T16:37:57.793Z</time></trkpt><trkpt lat="43.2342161" lon="13.1817133"><ele>239.66666666666669</ele><time>2026-05-01T16:37:59.795Z</time></trkpt><trkpt lat="43.2341404" lon="13.1816812"><ele>239.83333333333334</ele><time>2026-05-01T16:38:01.793Z</time></trkpt><trkpt lat="43.2340665" lon="13.1817062"><ele>240.0</ele><time>2026-05-01T16:38:03.794Z</time></trkpt><trkpt lat="43.2340014" lon="13.1817279"><ele>238.83333333333334</ele><time>2026-05-01T16:38:04.793Z</time></trkpt><trkpt lat="43.2339026" lon="13.1817468"><ele>237.66666666666669</ele><time>2026-05-01T16:38:06.793Z</time></trkpt><trkpt lat="43.233787" lon="13.1817352"><ele>236.5</ele><time>2026-05-01T16:38:08.793Z</time></trkpt><trkpt lat="43.2337199" lon="13.1817204"><ele>235.33333333333334</ele><time>2026-05-01T16:38:09.794Z</time></trkpt><trkpt lat="43.233652" lon="13.1816941"><ele>234.16666666666669</ele><time>2026-05-01T16:38:10.794Z</time></trkpt><trkpt lat="43.2335949" lon="13.1816391"><ele>233.0</ele><time>2026-05-01T16:38:11.794Z</time></trkpt><trkpt lat="43.2335501" lon="13.1815608"><ele>233.50000000000003</ele><time>2026-05-01T16:38:12.793Z</time></trkpt><trkpt lat="43.2335131" lon="13.1814754"><ele>234.0</ele><time>2026-05-01T16:38:13.793Z</time></trkpt><trkpt lat="43.2334762" lon="13.1813801"><ele>234.5</ele><time>2026-05-01T16:38:14.794Z</time></trkpt><trkpt lat="43.2334379" lon="13.1812846"><ele>235.0</ele><time>2026-05-01T16:38:15.795Z</time></trkpt><trkpt lat="43.2333996" lon="13.181187"><ele>235.50000000000003</ele><time>2026-05-01T16:38:16.794Z</time></trkpt><trkpt lat="43.2333602" lon="13.1810871"><ele>236.0</ele><time>2026-05-01T16:38:17.793Z</time></trkpt><trkpt lat="43.2333123" lon="13.1809921"><ele>236.0</ele><time>2026-05-01T16:38:18.794Z</time></trkpt><trkpt lat="43.233245" lon="13.1809178"><ele>236.00000000000003</ele><time>2026-05-01T16:38:19.794Z</time></trkpt><trkpt lat="43.2331649" lon="13.1808637"><ele>236.00000000000003</ele><time>2026-05-01T16:38:20.793Z</time></trkpt><trkpt lat="43.2330806" lon="13.180822"><ele>236.0</ele><time>2026-05-01T16:38:21.794Z</time></trkpt><trkpt lat="43.2329882" lon="13.1807892"><ele>236.0</ele><time>2026-05-01T16:38:22.794Z</time></trkpt><trkpt lat="43.2328957" lon="13.180766"><ele>235.60000000000002</ele><time>2026-05-01T16:38:23.793Z</time></trkpt><trkpt lat="43.2327997" lon="13.1807477"><ele>235.20000000000002</ele><time>2026-05-01T16:38:24.794Z</time></trkpt><trkpt lat="43.2327056" lon="13.1807267"><ele>234.79999999999998</ele><time>2026-05-01T16:38:25.794Z</time></trkpt><trkpt lat="43.2326118" lon="13.1807034"><ele>234.39999999999998</ele><time>2026-05-01T16:38:26.794Z</time></trkpt><trkpt lat="43.232518" lon="13.1806849"><ele>234.0</ele><time>2026-05-01T16:38:27.793Z</time></trkpt><trkpt lat="43.2324285" lon="13.1806652"><ele>234.0</ele><time>2026-05-01T16:38:28.794Z</time></trkpt><trkpt lat="43.2323423" lon="13.1806503"><ele>234.0</ele><time>2026-05-01T16:38:29.794Z</time></trkpt><trkpt lat="43.2322522" lon="13.1806366"><ele>234.0</ele><time>2026-05-01T16:38:30.793Z</time></trkpt><trkpt lat="43.2321719" lon="13.1806171"><ele>234.0</ele><time>2026-05-01T16:38:31.793Z</time></trkpt><trkpt lat="43.2320976" lon="13.1805984"><ele>234.0</ele><time>2026-05-01T16:38:32.794Z</time></trkpt><trkpt lat="43.2320256" lon="13.1805839"><ele>234.0</ele><time>2026-05-01T16:38:33.794Z</time></trkpt><trkpt lat="43.2319624" lon="13.1805704"><ele>234.39999999999998</ele><time>2026-05-01T16:38:34.793Z</time></trkpt><trkpt lat="43.2318544" lon="13.1805424"><ele>234.79999999999998</ele><time>2026-05-01T16:38:36.794Z</time></trkpt><trkpt lat="43.2318082" lon="13.1804764"><ele>235.20000000000002</ele><time>2026-05-01T16:38:38.794Z</time></trkpt><trkpt lat="43.2318163" lon="13.1803469"><ele>235.60000000000002</ele><time>2026-05-01T16:38:40.793Z</time></trkpt><trkpt lat="43.2318682" lon="13.1801941"><ele>236.0</ele><time>2026-05-01T16:38:42.794Z</time></trkpt><trkpt lat="43.2319285" lon="13.1800353"><ele>236.0</ele><time>2026-05-01T16:38:44.794Z</time></trkpt><trkpt lat="43.2319599" lon="13.1799558"><ele>236.0</ele><time>2026-05-01T16:38:45.793Z</time></trkpt><trkpt lat="43.2319855" lon="13.1798637"><ele>236.0</ele><time>2026-05-01T16:38:46.793Z</time></trkpt><trkpt lat="43.2320021" lon="13.1797674"><ele>236.0</ele><time>2026-05-01T16:38:47.795Z</time></trkpt><trkpt lat="43.2320102" lon="13.1796655"><ele>236.0</ele><time>2026-05-01T16:38:48.793Z</time></trkpt><trkpt lat="43.2320084" lon="13.1795635"><ele>236.0</ele><time>2026-05-01T16:38:49.793Z</time></trkpt><trkpt lat="43.2319929" lon="13.1794631"><ele>236.0</ele><time>2026-05-01T16:38:50.793Z</time></trkpt><trkpt lat="43.2319672" lon="13.1793587"><ele>235.16666666666669</ele><time>2026-05-01T16:38:51.794Z</time></trkpt><trkpt lat="43.2319304" lon="13.179256"><ele>234.33333333333334</ele><time>2026-05-01T16:38:52.794Z</time></trkpt><trkpt lat="43.2318831" lon="13.1791602"><ele>233.5</ele><time>2026-05-01T16:38:53.793Z</time></trkpt><trkpt lat="43.2318229" lon="13.1790696"><ele>232.66666666666669</ele><time>2026-05-01T16:38:54.793Z</time></trkpt><trkpt lat="43.2317624" lon="13.1789868"><ele>231.83333333333334</ele><time>2026-05-01T16:38:55.793Z</time></trkpt><trkpt lat="43.2317018" lon="13.1789087"><ele>231.0</ele><time>2026-05-01T16:38:56.794Z</time></trkpt><trkpt lat="43.2316384" lon="13.1788265"><ele>230.60000000000002</ele><time>2026-05-01T16:38:57.794Z</time></trkpt><trkpt lat="43.2315788" lon="13.1787329"><ele>230.20000000000002</ele><time>2026-05-01T16:38:58.794Z</time></trkpt><trkpt lat="43.2315154" lon="13.1786418"><ele>229.79999999999998</ele><time>2026-05-01T16:38:59.794Z</time></trkpt><trkpt lat="43.231443" lon="13.1785577"><ele>229.39999999999998</ele><time>2026-05-01T16:39:00.794Z</time></trkpt><trkpt lat="43.231377" lon="13.1784695"><ele>229.0</ele><time>2026-05-01T16:39:01.794Z</time></trkpt><trkpt lat="43.2313173" lon="13.1783841"><ele>228.99999999999997</ele><time>2026-05-01T16:39:02.793Z</time></trkpt><trkpt lat="43.2312596" lon="13.1783013"><ele>229.0</ele><time>2026-05-01T16:39:03.793Z</time></trkpt><trkpt lat="43.2312005" lon="13.1782191"><ele>229.0</ele><time>2026-05-01T16:39:04.795Z</time></trkpt><trkpt lat="43.2311348" lon="13.1781452"><ele>229.0</ele><time>2026-05-01T16:39:05.793Z</time></trkpt><trkpt lat="43.2310665" lon="13.1780797"><ele>228.99999999999997</ele><time>2026-05-01T16:39:06.793Z</time></trkpt><trkpt lat="43.2309968" lon="13.1780334"><ele>229.0</ele><time>2026-05-01T16:39:07.795Z</time></trkpt><trkpt lat="43.2309244" lon="13.1780025"><ele>228.83333333333331</ele><time>2026-05-01T16:39:08.794Z</time></trkpt><trkpt lat="43.2308481" lon="13.1779854"><ele>228.66666666666666</ele><time>2026-05-01T16:39:09.793Z</time></trkpt><trkpt lat="43.2307715" lon="13.1779813"><ele>228.5</ele><time>2026-05-01T16:39:10.793Z</time></trkpt><trkpt lat="43.2306939" lon="13.1779955"><ele>228.33333333333331</ele><time>2026-05-01T16:39:11.794Z</time></trkpt><trkpt lat="43.2306192" lon="13.1780265"><ele>228.16666666666666</ele><time>2026-05-01T16:39:12.794Z</time></trkpt><trkpt lat="43.2305499" lon="13.1780676"><ele>228.0</ele><time>2026-05-01T16:39:13.794Z</time></trkpt><trkpt lat="43.2304851" lon="13.1781076"><ele>228.0</ele><time>2026-05-01T16:39:14.794Z</time></trkpt><trkpt lat="43.2304193" lon="13.1781505"><ele>228.0</ele><time>2026-05-01T16:39:15.794Z</time></trkpt><trkpt lat="43.230351" lon="13.1781943"><ele>228.0</ele><time>2026-05-01T16:39:16.794Z</time></trkpt><trkpt lat="43.230277" lon="13.1782312"><ele>228.0</ele><time>2026-05-01T16:39:17.794Z</time></trkpt><trkpt lat="43.2302009" lon="13.1782412"><ele>228.0</ele><time>2026-05-01T16:39:18.793Z</time></trkpt><trkpt lat="43.2301235" lon="13.1782313"><ele>228.0</ele><time>2026-05-01T16:39:19.793Z</time></trkpt><trkpt lat="43.2300477" lon="13.1782172"><ele>228.0</ele><time>2026-05-01T16:39:20.795Z</time></trkpt><trkpt lat="43.2299817" lon="13.1781988"><ele>228.0</ele><time>2026-05-01T16:39:21.794Z</time></trkpt><trkpt lat="43.2298833" lon="13.1781324"><ele>228.0</ele><time>2026-05-01T16:39:23.794Z</time></trkpt><trkpt lat="43.2298451" lon="13.1779954"><ele>228.0</ele><time>2026-05-01T16:39:25.794Z</time></trkpt><trkpt lat="43.229843" lon="13.1778997"><ele>228.0</ele><time>2026-05-01T16:39:26.793Z</time></trkpt><trkpt lat="43.2298412" lon="13.1777983"><ele>228.0</ele><time>2026-05-01T16:39:27.793Z</time></trkpt><trkpt lat="43.2298397" lon="13.1776906"><ele>228.0</ele><time>2026-05-01T16:39:28.793Z</time></trkpt><trkpt lat="43.2298347" lon="13.1775715"><ele>228.0</ele><time>2026-05-01T16:39:29.794Z</time></trkpt><trkpt lat="43.2298291" lon="13.1774413"><ele>228.0</ele><time>2026-05-01T16:39:30.793Z</time></trkpt><trkpt lat="43.2298194" lon="13.1773052"><ele>228.0</ele><time>2026-05-01T16:39:31.794Z</time></trkpt><trkpt lat="43.2298061" lon="13.1771672"><ele>228.0</ele><time>2026-05-01T16:39:32.793Z</time></trkpt><trkpt lat="43.2297951" lon="13.1770299"><ele>230.2</ele><time>2026-05-01T16:39:33.794Z</time></trkpt><trkpt lat="43.2297853" lon="13.1768889"><ele>232.4</ele><time>2026-05-01T16:39:34.794Z</time></trkpt><trkpt lat="43.2297697" lon="13.1767462"><ele>234.59999999999997</ele><time>2026-05-01T16:39:35.794Z</time></trkpt><trkpt lat="43.2297505" lon="13.1766045"><ele>236.79999999999998</ele><time>2026-05-01T16:39:36.793Z</time></trkpt><trkpt lat="43.2297321" lon="13.1764682"><ele>239.0</ele><time>2026-05-01T16:39:37.794Z</time></trkpt><trkpt lat="43.2297138" lon="13.1763388"><ele>239.33333333333334</ele><time>2026-05-01T16:39:38.794Z</time></trkpt><trkpt lat="43.2296968" lon="13.1762096"><ele>239.66666666666669</ele><time>2026-05-01T16:39:39.793Z</time></trkpt><trkpt lat="43.229679" lon="13.1760943"><ele>240.0</ele><time>2026-05-01T16:39:40.795Z</time></trkpt><trkpt lat="43.2296654" lon="13.1759951"><ele>240.33333333333331</ele><time>2026-05-01T16:39:41.793Z</time></trkpt><trkpt lat="43.2296381" lon="13.1758796"><ele>240.66666666666666</ele><time>2026-05-01T16:39:43.794Z</time></trkpt><trkpt lat="43.229563" lon="13.175861"><ele>241.0</ele><time>2026-05-01T16:39:45.793Z</time></trkpt><trkpt lat="43.2294759" lon="13.1758738"><ele>241.0</ele><time>2026-05-01T16:39:47.793Z</time></trkpt><trkpt lat="43.2293783" lon="13.1758813"><ele>241.00000000000003</ele><time>2026-05-01T16:39:49.794Z</time></trkpt><trkpt lat="43.2292837" lon="13.1758773"><ele>241.00000000000003</ele><time>2026-05-01T16:39:51.793Z</time></trkpt><trkpt lat="43.2291856" lon="13.1758804"><ele>241.0</ele><time>2026-05-01T16:39:53.793Z</time></trkpt><trkpt lat="43.2290785" lon="13.1758773"><ele>241.0</ele><time>2026-05-01T16:39:55.793Z</time></trkpt><trkpt lat="43.2289713" lon="13.1758906"><ele>241.99999999999997</ele><time>2026-05-01T16:39:57.795Z</time></trkpt><trkpt lat="43.2288589" lon="13.175895"><ele>243.0</ele><time>2026-05-01T16:39:59.794Z</time></trkpt><trkpt lat="43.228772" lon="13.1758718"><ele>244.0</ele><time>2026-05-01T16:40:01.794Z</time></trkpt><trkpt lat="43.2286982" lon="13.1758359"><ele>245.0</ele><time>2026-05-01T16:40:03.794Z</time></trkpt><trkpt lat="43.2286478" lon="13.1757675"><ele>245.99999999999997</ele><time>2026-05-01T16:40:05.794Z</time></trkpt><trkpt lat="43.2286159" lon="13.1756762"><ele>247.0</ele><time>2026-05-01T16:40:08.794Z</time></trkpt><trkpt lat="43.2285816" lon="13.1755681"><ele>246.99999999999997</ele><time>2026-05-01T16:40:11.795Z</time></trkpt><trkpt lat="43.2285382" lon="13.1754665"><ele>247.0</ele><time>2026-05-01T16:40:14.794Z</time></trkpt><trkpt lat="43.2284871" lon="13.1753555"><ele>247.0</ele><time>2026-05-01T16:40:17.794Z</time></trkpt><trkpt lat="43.2284521" lon="13.1752733"><ele>247.0</ele><time>2026-05-01T16:40:19.794Z</time></trkpt><trkpt lat="43.2284144" lon="13.1751716"><ele>246.99999999999997</ele><time>2026-05-01T16:40:21.793Z</time></trkpt><trkpt lat="43.2283839" lon="13.175041"><ele>247.0</ele><time>2026-05-01T16:40:23.794Z</time></trkpt><trkpt lat="43.2283725" lon="13.1749004"><ele>246.8</ele><time>2026-05-01T16:40:25.795Z</time></trkpt><trkpt lat="43.2283741" lon="13.174755"><ele>246.6</ele><time>2026-05-01T16:40:27.793Z</time></trkpt><trkpt lat="43.2283772" lon="13.1746182"><ele>246.40000000000003</ele><time>2026-05-01T16:40:29.794Z</time></trkpt><trkpt lat="43.2283675" lon="13.1744714"><ele>246.20000000000002</ele><time>2026-05-01T16:40:31.794Z</time></trkpt><trkpt lat="43.2283426" lon="13.1743293"><ele>246.0</ele><time>2026-05-01T16:40:33.794Z</time></trkpt><trkpt lat="43.2283202" lon="13.1741848"><ele>246.0</ele><time>2026-05-01T16:40:35.795Z</time></trkpt><trkpt lat="43.2283133" lon="13.1740372"><ele>246.0</ele><time>2026-05-01T16:40:37.795Z</time></trkpt><trkpt lat="43.2282942" lon="13.1738935"><ele>246.0</ele><time>2026-05-01T16:40:39.794Z</time></trkpt><trkpt lat="43.2282684" lon="13.1737246"><ele>246.0</ele><time>2026-05-01T16:40:41.794Z</time></trkpt><trkpt lat="43.2282448" lon="13.1735615"><ele>245.5</ele><time>2026-05-01T16:40:43.795Z</time></trkpt><trkpt lat="43.2282211" lon="13.173395"><ele>245.0</ele><time>2026-05-01T16:40:45.794Z</time></trkpt><trkpt lat="43.2282083" lon="13.1732357"><ele>244.5</ele><time>2026-05-01T16:40:47.794Z</time></trkpt><trkpt lat="43.2281818" lon="13.1730726"><ele>244.0</ele><time>2026-05-01T16:40:49.795Z</time></trkpt><trkpt lat="43.228147" lon="13.1729112"><ele>246.0</ele><time>2026-05-01T16:40:51.795Z</time></trkpt><trkpt lat="43.228105" lon="13.172757"><ele>247.99999999999997</ele><time>2026-05-01T16:40:53.794Z</time></trkpt><trkpt lat="43.2280829" lon="13.1726008"><ele>249.99999999999997</ele><time>2026-05-01T16:40:55.793Z</time></trkpt><trkpt lat="43.228063" lon="13.1725175"><ele>252.0</ele><time>2026-05-01T16:40:56.794Z</time></trkpt><trkpt lat="43.2280367" lon="13.1723693"><ele>254.0</ele><time>2026-05-01T16:40:58.793Z</time></trkpt><trkpt lat="43.2280156" lon="13.1722468"><ele>254.00000000000003</ele><time>2026-05-01T16:41:00.793Z</time></trkpt><trkpt lat="43.2280172" lon="13.1721323"><ele>254.0</ele><time>2026-05-01T16:41:03.794Z</time></trkpt><trkpt lat="43.2280238" lon="13.1720443"><ele>254.0</ele><time>2026-05-01T16:41:06.794Z</time></trkpt><trkpt lat="43.2280214" lon="13.1719578"><ele>254.0</ele><time>2026-05-01T16:41:11.794Z</time></trkpt><trkpt lat="43.2279548" lon="13.1719234"><ele>254.00000000000003</ele><time>2026-05-01T16:41:13.793Z</time></trkpt><trkpt lat="43.2278521" lon="13.1718977"><ele>254.0</ele><time>2026-05-01T16:41:15.794Z</time></trkpt><trkpt lat="43.2277603" lon="13.1718587"><ele>254.00000000000003</ele><time>2026-05-01T16:41:17.793Z</time></trkpt><trkpt lat="43.2276462" lon="13.1718353"><ele>254.0</ele><time>2026-05-01T16:41:19.793Z</time></trkpt><trkpt lat="43.2275229" lon="13.1718214"><ele>254.0</ele><time>2026-05-01T16:41:21.795Z</time></trkpt><trkpt lat="43.2274577" lon="13.171808"><ele>254.0</ele><time>2026-05-01T16:41:22.794Z</time></trkpt><trkpt lat="43.2273917" lon="13.1717986"><ele>254.00000000000003</ele><time>2026-05-01T16:41:23.793Z</time></trkpt><trkpt lat="43.2273244" lon="13.1717987"><ele>254.0</ele><time>2026-05-01T16:41:24.794Z</time></trkpt><trkpt lat="43.2272601" lon="13.1718002"><ele>254.85714285714286</ele><time>2026-05-01T16:41:25.794Z</time></trkpt><trkpt lat="43.2271936" lon="13.1718045"><ele>255.71428571428572</ele><time>2026-05-01T16:41:26.795Z</time></trkpt><trkpt lat="43.2271273" lon="13.1718139"><ele>256.57142857142856</ele><time>2026-05-01T16:41:27.793Z</time></trkpt><trkpt lat="43.2270603" lon="13.1718318"><ele>257.42857142857144</ele><time>2026-05-01T16:41:28.794Z</time></trkpt><trkpt lat="43.226991" lon="13.1718551"><ele>258.2857142857143</ele><time>2026-05-01T16:41:29.795Z</time></trkpt><trkpt lat="43.2269235" lon="13.1718926"><ele>259.14285714285717</ele><time>2026-05-01T16:41:30.793Z</time></trkpt><trkpt lat="43.2268535" lon="13.171933"><ele>260.0</ele><time>2026-05-01T16:41:31.793Z</time></trkpt><trkpt lat="43.2267855" lon="13.1719778"><ele>260.0</ele><time>2026-05-01T16:41:32.795Z</time></trkpt><trkpt lat="43.2267104" lon="13.1720205"><ele>260.0</ele><time>2026-05-01T16:41:33.794Z</time></trkpt><trkpt lat="43.2266325" lon="13.1720623"><ele>260.0</ele><time>2026-05-01T16:41:34.794Z</time></trkpt><trkpt lat="43.2265542" lon="13.1721068"><ele>260.0</ele><time>2026-05-01T16:41:35.794Z</time></trkpt><trkpt lat="43.2264743" lon="13.1721548"><ele>260.0</ele><time>2026-05-01T16:41:36.794Z</time></trkpt><trkpt lat="43.2263933" lon="13.1722104"><ele>260.0</ele><time>2026-05-01T16:41:37.793Z</time></trkpt><trkpt lat="43.2263132" lon="13.1722693"><ele>260.83333333333337</ele><time>2026-05-01T16:41:38.795Z</time></trkpt><trkpt lat="43.2262335" lon="13.1723316"><ele>261.6666666666667</ele><time>2026-05-01T16:41:39.793Z</time></trkpt><trkpt lat="43.2261576" lon="13.1723852"><ele>262.5</ele><time>2026-05-01T16:41:40.794Z</time></trkpt><trkpt lat="43.2260904" lon="13.1724393"><ele>263.3333333333333</ele><time>2026-05-01T16:41:41.794Z</time></trkpt><trkpt lat="43.2260273" lon="13.1724872"><ele>264.16666666666663</ele><time>2026-05-01T16:41:42.794Z</time></trkpt><trkpt lat="43.2259677" lon="13.1725352"><ele>265.0</ele><time>2026-05-01T16:41:43.793Z</time></trkpt><trkpt lat="43.2259076" lon="13.1725767"><ele>266.16666666666663</ele><time>2026-05-01T16:41:44.794Z</time></trkpt><trkpt lat="43.2258007" lon="13.1726553"><ele>267.3333333333333</ele><time>2026-05-01T16:41:46.794Z</time></trkpt><trkpt lat="43.2257431" lon="13.1727035"><ele>268.5</ele><time>2026-05-01T16:41:47.793Z</time></trkpt><trkpt lat="43.2256866" lon="13.1727475"><ele>269.6666666666667</ele><time>2026-05-01T16:41:48.793Z</time></trkpt><trkpt lat="43.2256291" lon="13.172792"><ele>270.83333333333337</ele><time>2026-05-01T16:41:49.795Z</time></trkpt><trkpt lat="43.2255757" lon="13.1728417"><ele>272.0</ele><time>2026-05-01T16:41:50.793Z</time></trkpt><trkpt lat="43.2255197" lon="13.172889"><ele>271.99999999999994</ele><time>2026-05-01T16:41:51.794Z</time></trkpt><trkpt lat="43.2254658" lon="13.1729372"><ele>272.0</ele><time>2026-05-01T16:41:52.794Z</time></trkpt><trkpt lat="43.2253661" lon="13.1730389"><ele>272.0</ele><time>2026-05-01T16:41:54.793Z</time></trkpt><trkpt lat="43.2253156" lon="13.173091"><ele>272.0</ele><time>2026-05-01T16:41:55.794Z</time></trkpt><trkpt lat="43.2252614" lon="13.1731427"><ele>272.0</ele><time>2026-05-01T16:41:56.794Z</time></trkpt><trkpt lat="43.225209" lon="13.1731956"><ele>271.99999999999994</ele><time>2026-05-01T16:41:57.794Z</time></trkpt><trkpt lat="43.2251579" lon="13.1732516"><ele>272.0</ele><time>2026-05-01T16:41:58.794Z</time></trkpt><trkpt lat="43.2251075" lon="13.1733128"><ele>272.99999999999994</ele><time>2026-05-01T16:41:59.794Z</time></trkpt><trkpt lat="43.2250592" lon="13.1733848"><ele>274.0</ele><time>2026-05-01T16:42:00.793Z</time></trkpt><trkpt lat="43.225016" lon="13.1734628"><ele>275.0</ele><time>2026-05-01T16:42:01.795Z</time></trkpt><trkpt lat="43.2249767" lon="13.1735478"><ele>276.0</ele><time>2026-05-01T16:42:02.793Z</time></trkpt><trkpt lat="43.2249443" lon="13.1736411"><ele>277.0</ele><time>2026-05-01T16:42:03.793Z</time></trkpt><trkpt lat="43.2249108" lon="13.1737328"><ele>277.99999999999994</ele><time>2026-05-01T16:42:04.793Z</time></trkpt><trkpt lat="43.2248814" lon="13.1738272"><ele>279.0</ele><time>2026-05-01T16:42:05.794Z</time></trkpt><trkpt lat="43.2248517" lon="13.1739169"><ele>279.0</ele><time>2026-05-01T16:42:06.795Z</time></trkpt><trkpt lat="43.2248217" lon="13.1740043"><ele>279.0</ele><time>2026-05-01T16:42:07.794Z</time></trkpt><trkpt lat="43.2247894" lon="13.174088"><ele>279.0</ele><time>2026-05-01T16:42:08.794Z</time></trkpt><trkpt lat="43.2247163" lon="13.1742355"><ele>279.0</ele><time>2026-05-01T16:42:10.794Z</time></trkpt><trkpt lat="43.2246648" lon="13.1743039"><ele>279.0</ele><time>2026-05-01T16:42:11.794Z</time></trkpt><trkpt lat="43.2246009" lon="13.1743643"><ele>279.0</ele><time>2026-05-01T16:42:12.793Z</time></trkpt><trkpt lat="43.2245339" lon="13.1744104"><ele>279.4285714285714</ele><time>2026-05-01T16:42:13.793Z</time></trkpt><trkpt lat="43.2244669" lon="13.1744481"><ele>279.85714285714283</ele><time>2026-05-01T16:42:14.793Z</time></trkpt><trkpt lat="43.2244007" lon="13.1744795"><ele>280.2857142857143</ele><time>2026-05-01T16:42:15.794Z</time></trkpt><trkpt lat="43.2243371" lon="13.174518"><ele>280.71428571428567</ele><time>2026-05-01T16:42:16.794Z</time></trkpt><trkpt lat="43.2242736" lon="13.1745597"><ele>281.1428571428571</ele><time>2026-05-01T16:42:17.794Z</time></trkpt><trkpt lat="43.2242151" lon="13.1746061"><ele>281.57142857142856</ele><time>2026-05-01T16:42:18.794Z</time></trkpt><trkpt lat="43.2241599" lon="13.1746602"><ele>282.0</ele><time>2026-05-01T16:42:19.794Z</time></trkpt><trkpt lat="43.2241092" lon="13.1747212"><ele>282.0</ele><time>2026-05-01T16:42:20.795Z</time></trkpt><trkpt lat="43.22407" lon="13.174791"><ele>282.0</ele><time>2026-05-01T16:42:21.793Z</time></trkpt><trkpt lat="43.2240368" lon="13.1748663"><ele>282.0</ele><time>2026-05-01T16:42:22.793Z</time></trkpt><trkpt lat="43.2240085" lon="13.1749459"><ele>282.0</ele><time>2026-05-01T16:42:23.794Z</time></trkpt><trkpt lat="43.2239796" lon="13.1750324"><ele>282.0</ele><time>2026-05-01T16:42:24.794Z</time></trkpt><trkpt lat="43.2239549" lon="13.17512"><ele>282.0</ele><time>2026-05-01T16:42:25.794Z</time></trkpt><trkpt lat="43.223952" lon="13.1752293"><ele>282.0</ele><time>2026-05-01T16:42:26.793Z</time></trkpt><trkpt lat="43.2239541" lon="13.175338"><ele>283.1666666666667</ele><time>2026-05-01T16:42:27.794Z</time></trkpt><trkpt lat="43.2239621" lon="13.1754508"><ele>284.3333333333333</ele><time>2026-05-01T16:42:28.793Z</time></trkpt><trkpt lat="43.2239661" lon="13.1755601"><ele>285.5</ele><time>2026-05-01T16:42:29.792Z</time></trkpt><trkpt lat="43.2239783" lon="13.1756742"><ele>286.66666666666663</ele><time>2026-05-01T16:42:30.792Z</time></trkpt><trkpt lat="43.2239871" lon="13.1757743"><ele>287.8333333333333</ele><time>2026-05-01T16:42:31.794Z</time></trkpt><trkpt lat="43.2239945" lon="13.175871"><ele>289.0</ele><time>2026-05-01T16:42:32.794Z</time></trkpt><trkpt lat="43.224003" lon="13.1759637"><ele>291.8571428571429</ele><time>2026-05-01T16:42:33.792Z</time></trkpt><trkpt lat="43.2240158" lon="13.1760578"><ele>294.7142857142857</ele><time>2026-05-01T16:42:34.793Z</time></trkpt><trkpt lat="43.2240288" lon="13.17615"><ele>297.57142857142856</ele><time>2026-05-01T16:42:35.792Z</time></trkpt><trkpt lat="43.2240469" lon="13.1762516"><ele>300.42857142857144</ele><time>2026-05-01T16:42:36.793Z</time></trkpt><trkpt lat="43.2240666" lon="13.1763595"><ele>303.2857142857143</ele><time>2026-05-01T16:42:37.793Z</time></trkpt><trkpt lat="43.2240771" lon="13.1764645"><ele>306.14285714285717</ele><time>2026-05-01T16:42:38.793Z</time></trkpt><trkpt lat="43.2240816" lon="13.176565"><ele>309.0</ele><time>2026-05-01T16:42:39.793Z</time></trkpt><trkpt lat="43.224084" lon="13.176663"><ele>310.59999999999997</ele><time>2026-05-01T16:42:40.793Z</time></trkpt><trkpt lat="43.2240836" lon="13.1768372"><ele>312.2</ele><time>2026-05-01T16:42:42.793Z</time></trkpt><trkpt lat="43.2240788" lon="13.176924"><ele>313.79999999999995</ele><time>2026-05-01T16:42:43.793Z</time></trkpt><trkpt lat="43.2240571" lon="13.1770867"><ele>315.4</ele><time>2026-05-01T16:42:45.793Z</time></trkpt><trkpt lat="43.2240361" lon="13.1772301"><ele>317.0</ele><time>2026-05-01T16:42:47.793Z</time></trkpt><trkpt lat="43.2240153" lon="13.1773709"><ele>316.5</ele><time>2026-05-01T16:42:49.793Z</time></trkpt><trkpt lat="43.2239735" lon="13.1774444"><ele>316.0</ele><time>2026-05-01T16:42:50.792Z</time></trkpt><trkpt lat="43.2239189" lon="13.177516"><ele>315.5</ele><time>2026-05-01T16:42:51.793Z</time></trkpt><trkpt lat="43.2238492" lon="13.1775852"><ele>315.0</ele><time>2026-05-01T16:42:52.793Z</time></trkpt><trkpt lat="43.2237724" lon="13.1776588"><ele>314.5</ele><time>2026-05-01T16:42:53.792Z</time></trkpt><trkpt lat="43.2236917" lon="13.1777314"><ele>314.0</ele><time>2026-05-01T16:42:54.792Z</time></trkpt><trkpt lat="43.2236142" lon="13.1778053"><ele>314.0</ele><time>2026-05-01T16:42:55.792Z</time></trkpt><trkpt lat="43.2235328" lon="13.1778728"><ele>314.0</ele><time>2026-05-01T16:42:56.792Z</time></trkpt><trkpt lat="43.2234496" lon="13.1779253"><ele>314.0</ele><time>2026-05-01T16:42:57.792Z</time></trkpt><trkpt lat="43.2233649" lon="13.1779875"><ele>314.0</ele><time>2026-05-01T16:42:58.794Z</time></trkpt><trkpt lat="43.2232794" lon="13.1780505"><ele>314.0</ele><time>2026-05-01T16:42:59.793Z</time></trkpt><trkpt lat="43.2231863" lon="13.1781138"><ele>313.8</ele><time>2026-05-01T16:43:00.793Z</time></trkpt><trkpt lat="43.2230995" lon="13.1781728"><ele>313.59999999999997</ele><time>2026-05-01T16:43:01.792Z</time></trkpt><trkpt lat="43.2230012" lon="13.1782235"><ele>313.4</ele><time>2026-05-01T16:43:02.792Z</time></trkpt><trkpt lat="43.222905" lon="13.1782683"><ele>313.2</ele><time>2026-05-01T16:43:03.792Z</time></trkpt><trkpt lat="43.2228086" lon="13.1783061"><ele>313.0</ele><time>2026-05-01T16:43:04.792Z</time></trkpt><trkpt lat="43.2227138" lon="13.178344"><ele>315.2</ele><time>2026-05-01T16:43:05.793Z</time></trkpt><trkpt lat="43.2226249" lon="13.1783928"><ele>317.4</ele><time>2026-05-01T16:43:06.792Z</time></trkpt><trkpt lat="43.2225523" lon="13.1784644"><ele>319.59999999999997</ele><time>2026-05-01T16:43:07.793Z</time></trkpt><trkpt lat="43.2224978" lon="13.1785674"><ele>321.8</ele><time>2026-05-01T16:43:08.794Z</time></trkpt><trkpt lat="43.2224596" lon="13.1786878"><ele>324.0</ele><time>2026-05-01T16:43:09.793Z</time></trkpt><trkpt lat="43.2224359" lon="13.1788157"><ele>324.0</ele><time>2026-05-01T16:43:10.792Z</time></trkpt><trkpt lat="43.2224143" lon="13.1789501"><ele>324.0</ele><time>2026-05-01T16:43:11.793Z</time></trkpt><trkpt lat="43.2223857" lon="13.1790851"><ele>324.0</ele><time>2026-05-01T16:43:12.792Z</time></trkpt><trkpt lat="43.2223524" lon="13.1792341"><ele>324.0</ele><time>2026-05-01T16:43:13.792Z</time></trkpt><trkpt lat="43.2223222" lon="13.1793928"><ele>324.0</ele><time>2026-05-01T16:43:14.793Z</time></trkpt><trkpt lat="43.2222991" lon="13.1795528"><ele>324.4</ele><time>2026-05-01T16:43:15.792Z</time></trkpt><trkpt lat="43.222296" lon="13.1797053"><ele>324.79999999999995</ele><time>2026-05-01T16:43:16.794Z</time></trkpt><trkpt lat="43.2223233" lon="13.1798428"><ele>325.20000000000005</ele><time>2026-05-01T16:43:17.793Z</time></trkpt><trkpt lat="43.2223734" lon="13.179968"><ele>325.6</ele><time>2026-05-01T16:43:18.792Z</time></trkpt><trkpt lat="43.2224395" lon="13.1800788"><ele>326.0</ele><time>2026-05-01T16:43:19.793Z</time></trkpt><trkpt lat="43.2224958" lon="13.1801895"><ele>327.8</ele><time>2026-05-01T16:43:20.793Z</time></trkpt><trkpt lat="43.222516" lon="13.1803132"><ele>329.6</ele><time>2026-05-01T16:43:21.792Z</time></trkpt><trkpt lat="43.2225131" lon="13.1804404"><ele>331.4</ele><time>2026-05-01T16:43:22.793Z</time></trkpt><trkpt lat="43.2225045" lon="13.1805694"><ele>333.2</ele><time>2026-05-01T16:43:23.793Z</time></trkpt><trkpt lat="43.2224956" lon="13.1807061"><ele>335.0</ele><time>2026-05-01T16:43:24.792Z</time></trkpt><trkpt lat="43.2224821" lon="13.1808453"><ele>337.6</ele><time>2026-05-01T16:43:25.793Z</time></trkpt><trkpt lat="43.2224733" lon="13.1809874"><ele>340.2</ele><time>2026-05-01T16:43:26.793Z</time></trkpt><trkpt lat="43.2224786" lon="13.1811377"><ele>342.79999999999995</ele><time>2026-05-01T16:43:27.792Z</time></trkpt><trkpt lat="43.2224964" lon="13.1812828"><ele>345.4</ele><time>2026-05-01T16:43:28.793Z</time></trkpt><trkpt lat="43.2225172" lon="13.1814185"><ele>348.0</ele><time>2026-05-01T16:43:29.792Z</time></trkpt><trkpt lat="43.2225419" lon="13.1815359"><ele>349.3333333333333</ele><time>2026-05-01T16:43:30.793Z</time></trkpt><trkpt lat="43.2225517" lon="13.1816417"><ele>350.6666666666667</ele><time>2026-05-01T16:43:31.792Z</time></trkpt><trkpt lat="43.2225458" lon="13.1817307"><ele>352.0</ele><time>2026-05-01T16:43:32.793Z</time></trkpt><trkpt lat="43.2225338" lon="13.1818188"><ele>353.33333333333337</ele><time>2026-05-01T16:43:33.794Z</time></trkpt><trkpt lat="43.2225146" lon="13.1819025"><ele>354.6666666666667</ele><time>2026-05-01T16:43:34.793Z</time></trkpt><trkpt lat="43.2224919" lon="13.1819895"><ele>356.0</ele><time>2026-05-01T16:43:35.792Z</time></trkpt><trkpt lat="43.2224356" lon="13.1821302"><ele>356.0</ele><time>2026-05-01T16:43:37.793Z</time></trkpt><trkpt lat="43.2223778" lon="13.1822467"><ele>356.0</ele><time>2026-05-01T16:43:39.793Z</time></trkpt><trkpt lat="43.2223056" lon="13.1823505"><ele>356.0</ele><time>2026-05-01T16:43:41.793Z</time></trkpt><trkpt lat="43.2222207" lon="13.1824242"><ele>356.0</ele><time>2026-05-01T16:43:43.793Z</time></trkpt><trkpt lat="43.2221611" lon="13.182483"><ele>356.0</ele><time>2026-05-01T16:43:45.792Z</time></trkpt><trkpt lat="43.2220983" lon="13.1825359"><ele>357.8</ele><time>2026-05-01T16:43:47.792Z</time></trkpt><trkpt lat="43.2220382" lon="13.1825657"><ele>359.6</ele><time>2026-05-01T16:43:49.793Z</time></trkpt><trkpt lat="43.2219506" lon="13.1826002"><ele>361.4</ele><time>2026-05-01T16:43:51.792Z</time></trkpt><trkpt lat="43.2218527" lon="13.1826266"><ele>363.2</ele><time>2026-05-01T16:43:53.793Z</time></trkpt><trkpt lat="43.2217544" lon="13.1826294"><ele>365.0</ele><time>2026-05-01T16:43:55.793Z</time></trkpt><trkpt lat="43.2216429" lon="13.1826256"><ele>365.0</ele><time>2026-05-01T16:43:57.793Z</time></trkpt><trkpt lat="43.2215315" lon="13.1826221"><ele>365.0</ele><time>2026-05-01T16:43:59.793Z</time></trkpt><trkpt lat="43.2214095" lon="13.1826637"><ele>365.0</ele><time>2026-05-01T16:44:01.792Z</time></trkpt><trkpt lat="43.2213437" lon="13.1827102"><ele>365.0</ele><time>2026-05-01T16:44:02.792Z</time></trkpt><trkpt lat="43.2212689" lon="13.1827747"><ele>365.0</ele><time>2026-05-01T16:44:03.793Z</time></trkpt><trkpt lat="43.2211944" lon="13.1828525"><ele>366.6666666666667</ele><time>2026-05-01T16:44:04.793Z</time></trkpt><trkpt lat="43.221126" lon="13.1829373"><ele>368.33333333333337</ele><time>2026-05-01T16:44:05.792Z</time></trkpt><trkpt lat="43.2210714" lon="13.1830287"><ele>370.0</ele><time>2026-05-01T16:44:06.793Z</time></trkpt><trkpt lat="43.2210268" lon="13.1831224"><ele>371.6666666666667</ele><time>2026-05-01T16:44:07.793Z</time></trkpt><trkpt lat="43.2209871" lon="13.1832167"><ele>373.3333333333333</ele><time>2026-05-01T16:44:08.794Z</time></trkpt><trkpt lat="43.2209512" lon="13.1833095"><ele>375.0</ele><time>2026-05-01T16:44:09.793Z</time></trkpt><trkpt lat="43.2209154" lon="13.1834006"><ele>375.0</ele><time>2026-05-01T16:44:10.792Z</time></trkpt><trkpt lat="43.220881" lon="13.1834791"><ele>375.0</ele><time>2026-05-01T16:44:11.792Z</time></trkpt><trkpt lat="43.2208358" lon="13.183568"><ele>375.0</ele><time>2026-05-01T16:44:12.792Z</time></trkpt><trkpt lat="43.2207915" lon="13.1836695"><ele>375.0</ele><time>2026-05-01T16:44:13.792Z</time></trkpt><trkpt lat="43.2207383" lon="13.1837797"><ele>375.0</ele><time>2026-05-01T16:44:14.794Z</time></trkpt><trkpt lat="43.2206827" lon="13.18389"><ele>375.0</ele><time>2026-05-01T16:44:15.792Z</time></trkpt><trkpt lat="43.2206264" lon="13.1840062"><ele>377.0</ele><time>2026-05-01T16:44:16.793Z</time></trkpt><trkpt lat="43.2205687" lon="13.1841291"><ele>379.0</ele><time>2026-05-01T16:44:17.793Z</time></trkpt><trkpt lat="43.2205099" lon="13.1842565"><ele>381.0</ele><time>2026-05-01T16:44:18.794Z</time></trkpt><trkpt lat="43.2204445" lon="13.1843856"><ele>383.0</ele><time>2026-05-01T16:44:19.793Z</time></trkpt><trkpt lat="43.2203833" lon="13.1845118"><ele>385.0</ele><time>2026-05-01T16:44:20.793Z</time></trkpt><trkpt lat="43.2203245" lon="13.1846305"><ele>385.00000000000006</ele><time>2026-05-01T16:44:21.792Z</time></trkpt><trkpt lat="43.2202723" lon="13.1847368"><ele>385.0</ele><time>2026-05-01T16:44:22.793Z</time></trkpt><trkpt lat="43.2202239" lon="13.1848371"><ele>385.0</ele><time>2026-05-01T16:44:23.792Z</time></trkpt><trkpt lat="43.2201864" lon="13.184919"><ele>385.0</ele><time>2026-05-01T16:44:24.792Z</time></trkpt><trkpt lat="43.2201395" lon="13.1850423"><ele>385.00000000000006</ele><time>2026-05-01T16:44:26.792Z</time></trkpt><trkpt lat="43.2201586" lon="13.1851544"><ele>385.0</ele><time>2026-05-01T16:44:28.794Z</time></trkpt><trkpt lat="43.2202419" lon="13.185273"><ele>384.7142857142857</ele><time>2026-05-01T16:44:30.792Z</time></trkpt><trkpt lat="43.2202882" lon="13.185338"><ele>384.42857142857144</ele><time>2026-05-01T16:44:31.793Z</time></trkpt><trkpt lat="43.220335" lon="13.1854094"><ele>384.1428571428571</ele><time>2026-05-01T16:44:32.792Z</time></trkpt><trkpt lat="43.2203897" lon="13.1854746"><ele>383.8571428571429</ele><time>2026-05-01T16:44:33.793Z</time></trkpt><trkpt lat="43.2204427" lon="13.1855479"><ele>383.57142857142856</ele><time>2026-05-01T16:44:34.793Z</time></trkpt><trkpt lat="43.2204931" lon="13.1856236"><ele>383.2857142857143</ele><time>2026-05-01T16:44:35.793Z</time></trkpt><trkpt lat="43.220554" lon="13.185691"><ele>383.0</ele><time>2026-05-01T16:44:36.792Z</time></trkpt><trkpt lat="43.2206158" lon="13.1857625"><ele>380.33333333333337</ele><time>2026-05-01T16:44:37.793Z</time></trkpt><trkpt lat="43.2206859" lon="13.185821"><ele>377.6666666666667</ele><time>2026-05-01T16:44:38.794Z</time></trkpt><trkpt lat="43.2207596" lon="13.1858523"><ele>375.0</ele><time>2026-05-01T16:44:39.792Z</time></trkpt><trkpt lat="43.2208331" lon="13.1858559"><ele>372.3333333333333</ele><time>2026-05-01T16:44:40.793Z</time></trkpt><trkpt lat="43.2209154" lon="13.1858478"><ele>369.66666666666663</ele><time>2026-05-01T16:44:41.793Z</time></trkpt><trkpt lat="43.2210052" lon="13.1858375"><ele>367.0</ele><time>2026-05-01T16:44:42.792Z</time></trkpt><trkpt lat="43.2210976" lon="13.1858323"><ele>367.0</ele><time>2026-05-01T16:44:43.792Z</time></trkpt><trkpt lat="43.2211892" lon="13.1858207"><ele>367.0</ele><time>2026-05-01T16:44:44.793Z</time></trkpt><trkpt lat="43.2212803" lon="13.18581"><ele>367.0</ele><time>2026-05-01T16:44:45.793Z</time></trkpt><trkpt lat="43.22137" lon="13.1858026"><ele>367.0</ele><time>2026-05-01T16:44:46.793Z</time></trkpt><trkpt lat="43.2214565" lon="13.1857967"><ele>367.0</ele><time>2026-05-01T16:44:47.792Z</time></trkpt><trkpt lat="43.2215404" lon="13.1857989"><ele>367.0</ele><time>2026-05-01T16:44:48.794Z</time></trkpt><trkpt lat="43.2216111" lon="13.1858167"><ele>364.8333333333333</ele><time>2026-05-01T16:44:49.792Z</time></trkpt><trkpt lat="43.2216701" lon="13.1858561"><ele>362.66666666666663</ele><time>2026-05-01T16:44:50.793Z</time></trkpt><trkpt lat="43.2217416" lon="13.1859915"><ele>360.5</ele><time>2026-05-01T16:44:52.794Z</time></trkpt><trkpt lat="43.2217535" lon="13.1860808"><ele>358.3333333333333</ele><time>2026-05-01T16:44:53.793Z</time></trkpt><trkpt lat="43.2217495" lon="13.1861739"><ele>356.1666666666667</ele><time>2026-05-01T16:44:54.792Z</time></trkpt><trkpt lat="43.2217319" lon="13.186274"><ele>354.0</ele><time>2026-05-01T16:44:55.793Z</time></trkpt><trkpt lat="43.2217061" lon="13.1863744"><ele>354.0</ele><time>2026-05-01T16:44:56.792Z</time></trkpt><trkpt lat="43.2216764" lon="13.186477"><ele>354.0</ele><time>2026-05-01T16:44:57.793Z</time></trkpt><trkpt lat="43.2216444" lon="13.1865774"><ele>354.0</ele><time>2026-05-01T16:44:58.793Z</time></trkpt><trkpt lat="43.2216149" lon="13.1866803"><ele>354.0</ele><time>2026-05-01T16:44:59.792Z</time></trkpt><trkpt lat="43.2215823" lon="13.1867813"><ele>354.0</ele><time>2026-05-01T16:45:00.793Z</time></trkpt><trkpt lat="43.2215467" lon="13.1868819"><ele>354.0</ele><time>2026-05-01T16:45:01.794Z</time></trkpt><trkpt lat="43.2215154" lon="13.1869688"><ele>354.6666666666667</ele><time>2026-05-01T16:45:02.792Z</time></trkpt><trkpt lat="43.221486" lon="13.1870623"><ele>355.3333333333333</ele><time>2026-05-01T16:45:03.793Z</time></trkpt><trkpt lat="43.2214569" lon="13.1871552"><ele>356.0</ele><time>2026-05-01T16:45:04.794Z</time></trkpt><trkpt lat="43.2214117" lon="13.1872356"><ele>356.66666666666663</ele><time>2026-05-01T16:45:05.792Z</time></trkpt><trkpt lat="43.2213676" lon="13.1873099"><ele>357.3333333333333</ele><time>2026-05-01T16:45:06.792Z</time></trkpt><trkpt lat="43.2213654" lon="13.1874334"><ele>358.0</ele><time>2026-05-01T16:45:08.793Z</time></trkpt><trkpt lat="43.2214391" lon="13.1874191"><ele>356.3333333333333</ele><time>2026-05-01T16:45:09.793Z</time></trkpt><trkpt lat="43.2215231" lon="13.1873382"><ele>354.66666666666663</ele><time>2026-05-01T16:45:11.792Z</time></trkpt><trkpt lat="43.2215799" lon="13.1872629"><ele>353.0</ele><time>2026-05-01T16:45:12.792Z</time></trkpt><trkpt lat="43.2216375" lon="13.1871784"><ele>351.3333333333333</ele><time>2026-05-01T16:45:13.793Z</time></trkpt><trkpt lat="43.2216973" lon="13.1870993"><ele>349.6666666666667</ele><time>2026-05-01T16:45:14.792Z</time></trkpt><trkpt lat="43.2217623" lon="13.1870153"><ele>348.0</ele><time>2026-05-01T16:45:15.793Z</time></trkpt><trkpt lat="43.2218215" lon="13.1869224"><ele>348.0</ele><time>2026-05-01T16:45:16.794Z</time></trkpt><trkpt lat="43.2218861" lon="13.1868365"><ele>348.0</ele><time>2026-05-01T16:45:17.793Z</time></trkpt><trkpt lat="43.2219448" lon="13.1867386"><ele>348.0</ele><time>2026-05-01T16:45:18.794Z</time></trkpt><trkpt lat="43.2220026" lon="13.1866451"><ele>348.0</ele><time>2026-05-01T16:45:19.792Z</time></trkpt><trkpt lat="43.222056" lon="13.186547"><ele>348.0</ele><time>2026-05-01T16:45:20.793Z</time></trkpt><trkpt lat="43.2221105" lon="13.1864454"><ele>349.2</ele><time>2026-05-01T16:45:21.793Z</time></trkpt><trkpt lat="43.2221622" lon="13.1863568"><ele>350.4</ele><time>2026-05-01T16:45:22.792Z</time></trkpt><trkpt lat="43.222231" lon="13.1862504"><ele>351.59999999999997</ele><time>2026-05-01T16:45:23.792Z</time></trkpt><trkpt lat="43.2223078" lon="13.1861859"><ele>352.79999999999995</ele><time>2026-05-01T16:45:24.793Z</time></trkpt><trkpt lat="43.222386" lon="13.1861258"><ele>354.0</ele><time>2026-05-01T16:45:25.793Z</time></trkpt><trkpt lat="43.2224661" lon="13.1860684"><ele>349.8333333333333</ele><time>2026-05-01T16:45:26.792Z</time></trkpt><trkpt lat="43.2225436" lon="13.1860091"><ele>345.6666666666667</ele><time>2026-05-01T16:45:27.793Z</time></trkpt><trkpt lat="43.2226211" lon="13.1859429"><ele>341.5</ele><time>2026-05-01T16:45:28.793Z</time></trkpt><trkpt lat="43.2226989" lon="13.1858718"><ele>337.33333333333337</ele><time>2026-05-01T16:45:29.793Z</time></trkpt><trkpt lat="43.2227655" lon="13.185793"><ele>333.1666666666667</ele><time>2026-05-01T16:45:30.793Z</time></trkpt><trkpt lat="43.2228284" lon="13.1857116"><ele>329.0</ele><time>2026-05-01T16:45:31.792Z</time></trkpt><trkpt lat="43.2228739" lon="13.185641"><ele>329.0</ele><time>2026-05-01T16:45:32.793Z</time></trkpt><trkpt lat="43.2229337" lon="13.185515"><ele>329.0</ele><time>2026-05-01T16:45:34.792Z</time></trkpt><trkpt lat="43.2229957" lon="13.1855436"><ele>329.0</ele><time>2026-05-01T16:45:36.792Z</time></trkpt><trkpt lat="43.2229943" lon="13.1856562"><ele>329.0</ele><time>2026-05-01T16:45:38.793Z</time></trkpt><trkpt lat="43.2229641" lon="13.1858163"><ele>329.0</ele><time>2026-05-01T16:45:40.793Z</time></trkpt><trkpt lat="43.2229374" lon="13.1859158"><ele>328.83333333333337</ele><time>2026-05-01T16:45:41.793Z</time></trkpt><trkpt lat="43.2229028" lon="13.1860174"><ele>328.6666666666667</ele><time>2026-05-01T16:45:42.793Z</time></trkpt><trkpt lat="43.2228624" lon="13.1861167"><ele>328.5</ele><time>2026-05-01T16:45:43.792Z</time></trkpt><trkpt lat="43.2228181" lon="13.1862118"><ele>328.3333333333333</ele><time>2026-05-01T16:45:44.792Z</time></trkpt><trkpt lat="43.2227696" lon="13.1863067"><ele>328.16666666666663</ele><time>2026-05-01T16:45:45.794Z</time></trkpt><trkpt lat="43.2227287" lon="13.1864072"><ele>328.0</ele><time>2026-05-01T16:45:46.793Z</time></trkpt><trkpt lat="43.2226916" lon="13.1865048"><ele>324.8333333333333</ele><time>2026-05-01T16:45:47.792Z</time></trkpt><trkpt lat="43.2226566" lon="13.1866052"><ele>321.66666666666663</ele><time>2026-05-01T16:45:48.793Z</time></trkpt><trkpt lat="43.2226328" lon="13.1867063"><ele>318.5</ele><time>2026-05-01T16:45:49.792Z</time></trkpt><trkpt lat="43.2226138" lon="13.1868113"><ele>315.3333333333333</ele><time>2026-05-01T16:45:50.792Z</time></trkpt><trkpt lat="43.2226032" lon="13.1869204"><ele>312.1666666666667</ele><time>2026-05-01T16:45:51.792Z</time></trkpt><trkpt lat="43.2226051" lon="13.1870317"><ele>309.0</ele><time>2026-05-01T16:45:52.793Z</time></trkpt><trkpt lat="43.2226229" lon="13.1871479"><ele>309.0</ele><time>2026-05-01T16:45:53.792Z</time></trkpt><trkpt lat="43.2226634" lon="13.1872555"><ele>309.0</ele><time>2026-05-01T16:45:54.793Z</time></trkpt><trkpt lat="43.2227127" lon="13.1873421"><ele>309.0</ele><time>2026-05-01T16:45:55.793Z</time></trkpt><trkpt lat="43.2227813" lon="13.1874042"><ele>309.0</ele><time>2026-05-01T16:45:56.792Z</time></trkpt><trkpt lat="43.2228577" lon="13.18744"><ele>309.0</ele><time>2026-05-01T16:45:57.792Z</time></trkpt><trkpt lat="43.2229399" lon="13.1874494"><ele>309.0</ele><time>2026-05-01T16:45:58.793Z</time></trkpt><trkpt lat="43.2230238" lon="13.1874404"><ele>308.4</ele><time>2026-05-01T16:45:59.792Z</time></trkpt><trkpt lat="43.2231092" lon="13.1874075"><ele>307.79999999999995</ele><time>2026-05-01T16:46:00.793Z</time></trkpt><trkpt lat="43.2231932" lon="13.1873685"><ele>307.20000000000005</ele><time>2026-05-01T16:46:01.793Z</time></trkpt><trkpt lat="43.2232806" lon="13.1873173"><ele>306.6</ele><time>2026-05-01T16:46:02.794Z</time></trkpt><trkpt lat="43.2233775" lon="13.1872619"><ele>306.0</ele><time>2026-05-01T16:46:03.793Z</time></trkpt><trkpt lat="43.2234717" lon="13.1872104"><ele>301.8</ele><time>2026-05-01T16:46:04.792Z</time></trkpt><trkpt lat="43.2235668" lon="13.1871634"><ele>297.6</ele><time>2026-05-01T16:46:05.793Z</time></trkpt><trkpt lat="43.2236645" lon="13.1871153"><ele>293.4</ele><time>2026-05-01T16:46:06.792Z</time></trkpt><trkpt lat="43.2237675" lon="13.187071"><ele>289.2</ele><time>2026-05-01T16:46:07.792Z</time></trkpt><trkpt lat="43.2238701" lon="13.1870285"><ele>285.0</ele><time>2026-05-01T16:46:08.792Z</time></trkpt><trkpt lat="43.2239733" lon="13.1869863"><ele>282.2</ele><time>2026-05-01T16:46:09.793Z</time></trkpt><trkpt lat="43.2240773" lon="13.1869393"><ele>279.4</ele><time>2026-05-01T16:46:10.793Z</time></trkpt><trkpt lat="43.2241793" lon="13.1868877"><ele>276.6</ele><time>2026-05-01T16:46:11.793Z</time></trkpt><trkpt lat="43.22428" lon="13.1868352"><ele>273.8</ele><time>2026-05-01T16:46:12.793Z</time></trkpt><trkpt lat="43.2243807" lon="13.1867867"><ele>271.0</ele><time>2026-05-01T16:46:13.793Z</time></trkpt><trkpt lat="43.2244774" lon="13.1867342"><ele>271.0</ele><time>2026-05-01T16:46:14.793Z</time></trkpt><trkpt lat="43.2245685" lon="13.1866826"><ele>271.0</ele><time>2026-05-01T16:46:15.794Z</time></trkpt><trkpt lat="43.224659" lon="13.1866382"><ele>271.0</ele><time>2026-05-01T16:46:16.793Z</time></trkpt><trkpt lat="43.224746" lon="13.1865945"><ele>271.0</ele><time>2026-05-01T16:46:17.793Z</time></trkpt><trkpt lat="43.2248345" lon="13.1865529"><ele>271.0</ele><time>2026-05-01T16:46:18.793Z</time></trkpt><trkpt lat="43.2249232" lon="13.1865128"><ele>271.8</ele><time>2026-05-01T16:46:19.792Z</time></trkpt><trkpt lat="43.2250114" lon="13.1864859"><ele>272.6</ele><time>2026-05-01T16:46:20.794Z</time></trkpt><trkpt lat="43.2251" lon="13.1864747"><ele>273.4</ele><time>2026-05-01T16:46:21.793Z</time></trkpt><trkpt lat="43.2251922" lon="13.1864811"><ele>274.2</ele><time>2026-05-01T16:46:22.793Z</time></trkpt><trkpt lat="43.2252846" lon="13.1864953"><ele>275.0</ele><time>2026-05-01T16:46:23.793Z</time></trkpt><trkpt lat="43.2253787" lon="13.1865085"><ele>272.6</ele><time>2026-05-01T16:46:24.792Z</time></trkpt><trkpt lat="43.225476" lon="13.1865156"><ele>270.2</ele><time>2026-05-01T16:46:25.792Z</time></trkpt><trkpt lat="43.2255711" lon="13.1865252"><ele>267.8</ele><time>2026-05-01T16:46:26.792Z</time></trkpt><trkpt lat="43.2256635" lon="13.1865409"><ele>265.4</ele><time>2026-05-01T16:46:27.793Z</time></trkpt><trkpt lat="43.2257572" lon="13.1865536"><ele>263.0</ele><time>2026-05-01T16:46:28.792Z</time></trkpt><trkpt lat="43.225852" lon="13.1865644"><ele>260.8</ele><time>2026-05-01T16:46:29.793Z</time></trkpt><trkpt lat="43.22595" lon="13.1865809"><ele>258.6</ele><time>2026-05-01T16:46:30.792Z</time></trkpt><trkpt lat="43.2260472" lon="13.1865938"><ele>256.4</ele><time>2026-05-01T16:46:31.794Z</time></trkpt><trkpt lat="43.2261435" lon="13.1866181"><ele>254.2</ele><time>2026-05-01T16:46:32.793Z</time></trkpt><trkpt lat="43.226234" lon="13.186646"><ele>252.0</ele><time>2026-05-01T16:46:33.793Z</time></trkpt><trkpt lat="43.226323" lon="13.1866739"><ele>252.0</ele><time>2026-05-01T16:46:34.794Z</time></trkpt><trkpt lat="43.2264128" lon="13.1866975"><ele>252.0</ele><time>2026-05-01T16:46:35.792Z</time></trkpt><trkpt lat="43.2265015" lon="13.1867221"><ele>252.0</ele><time>2026-05-01T16:46:36.793Z</time></trkpt><trkpt lat="43.2265864" lon="13.1867515"><ele>252.0</ele><time>2026-05-01T16:46:37.793Z</time></trkpt><trkpt lat="43.2266698" lon="13.1867785"><ele>252.0</ele><time>2026-05-01T16:46:38.793Z</time></trkpt><trkpt lat="43.2267515" lon="13.1868064"><ele>252.0</ele><time>2026-05-01T16:46:39.794Z</time></trkpt><trkpt lat="43.2268271" lon="13.1868478"><ele>250.33333333333334</ele><time>2026-05-01T16:46:40.793Z</time></trkpt><trkpt lat="43.2268908" lon="13.1869018"><ele>248.66666666666669</ele><time>2026-05-01T16:46:41.793Z</time></trkpt><trkpt lat="43.2269302" lon="13.1869699"><ele>247.0</ele><time>2026-05-01T16:46:42.793Z</time></trkpt><trkpt lat="43.2269566" lon="13.1870848"><ele>245.33333333333334</ele><time>2026-05-01T16:46:44.793Z</time></trkpt><trkpt lat="43.2269424" lon="13.1871916"><ele>243.66666666666669</ele><time>2026-05-01T16:46:59.793Z</time></trkpt><trkpt lat="43.2268919" lon="13.1873"><ele>242.0</ele><time>2026-05-01T16:47:01.793Z</time></trkpt><trkpt lat="43.2268092" lon="13.1874422"><ele>242.00000000000003</ele><time>2026-05-01T16:47:03.793Z</time></trkpt><trkpt lat="43.2267633" lon="13.1875264"><ele>242.0</ele><time>2026-05-01T16:47:04.794Z</time></trkpt><trkpt lat="43.2267154" lon="13.187616"><ele>242.0</ele><time>2026-05-01T16:47:05.792Z</time></trkpt><trkpt lat="43.2266616" lon="13.1877131"><ele>242.0</ele><time>2026-05-01T16:47:06.793Z</time></trkpt><trkpt lat="43.2266015" lon="13.1878076"><ele>242.00000000000003</ele><time>2026-05-01T16:47:07.793Z</time></trkpt><trkpt lat="43.226541" lon="13.1879084"><ele>242.0</ele><time>2026-05-01T16:47:08.793Z</time></trkpt><trkpt lat="43.2264843" lon="13.1880158"><ele>243.6</ele><time>2026-05-01T16:47:09.793Z</time></trkpt><trkpt lat="43.2264235" lon="13.1881292"><ele>245.2</ele><time>2026-05-01T16:47:10.792Z</time></trkpt><trkpt lat="43.2263603" lon="13.1882443"><ele>246.8</ele><time>2026-05-01T16:47:11.792Z</time></trkpt><trkpt lat="43.2262889" lon="13.188364"><ele>248.4</ele><time>2026-05-01T16:47:12.792Z</time></trkpt><trkpt lat="43.2262206" lon="13.1884948"><ele>250.0</ele><time>2026-05-01T16:47:13.793Z</time></trkpt><trkpt lat="43.2261491" lon="13.1886305"><ele>250.0</ele><time>2026-05-01T16:47:14.794Z</time></trkpt><trkpt lat="43.2260759" lon="13.1887634"><ele>250.0</ele><time>2026-05-01T16:47:15.793Z</time></trkpt><trkpt lat="43.2260055" lon="13.1888898"><ele>250.0</ele><time>2026-05-01T16:47:16.792Z</time></trkpt><trkpt lat="43.2259351" lon="13.1890155"><ele>250.0</ele><time>2026-05-01T16:47:17.794Z</time></trkpt><trkpt lat="43.2258678" lon="13.1891415"><ele>249.8</ele><time>2026-05-01T16:47:18.794Z</time></trkpt><trkpt lat="43.2257987" lon="13.1892625"><ele>249.6</ele><time>2026-05-01T16:47:19.794Z</time></trkpt><trkpt lat="43.2257328" lon="13.1893852"><ele>249.39999999999998</ele><time>2026-05-01T16:47:20.793Z</time></trkpt><trkpt lat="43.2256656" lon="13.1895027"><ele>249.2</ele><time>2026-05-01T16:47:21.792Z</time></trkpt><trkpt lat="43.2256001" lon="13.1896158"><ele>249.0</ele><time>2026-05-01T16:47:22.792Z</time></trkpt><trkpt lat="43.2255368" lon="13.1897294"><ele>251.39999999999998</ele><time>2026-05-01T16:47:23.792Z</time></trkpt><trkpt lat="43.2254747" lon="13.1898446"><ele>253.79999999999998</ele><time>2026-05-01T16:47:24.793Z</time></trkpt><trkpt lat="43.2254118" lon="13.1899642"><ele>256.20000000000005</ele><time>2026-05-01T16:47:25.793Z</time></trkpt><trkpt lat="43.2253458" lon="13.1900824"><ele>258.6</ele><time>2026-05-01T16:47:26.793Z</time></trkpt><trkpt lat="43.2252726" lon="13.1901971"><ele>261.0</ele><time>2026-05-01T16:47:27.792Z</time></trkpt><trkpt lat="43.2251991" lon="13.1903144"><ele>261.0</ele><time>2026-05-01T16:47:28.793Z</time></trkpt><trkpt lat="43.2251237" lon="13.19044"><ele>261.0</ele><time>2026-05-01T16:47:29.792Z</time></trkpt><trkpt lat="43.2250514" lon="13.1905693"><ele>261.0</ele><time>2026-05-01T16:47:30.792Z</time></trkpt><trkpt lat="43.2249776" lon="13.1907018"><ele>261.0</ele><time>2026-05-01T16:47:31.793Z</time></trkpt><trkpt lat="43.2249035" lon="13.1908335"><ele>260.25</ele><time>2026-05-01T16:47:32.794Z</time></trkpt><trkpt lat="43.2248306" lon="13.1909654"><ele>259.5</ele><time>2026-05-01T16:47:33.792Z</time></trkpt><trkpt lat="43.2247557" lon="13.191093"><ele>258.75</ele><time>2026-05-01T16:47:34.793Z</time></trkpt><trkpt lat="43.2246854" lon="13.1912173"><ele>258.0</ele><time>2026-05-01T16:47:35.793Z</time></trkpt><trkpt lat="43.2246194" lon="13.1913363"><ele>260.0</ele><time>2026-05-01T16:47:36.792Z</time></trkpt><trkpt lat="43.2245598" lon="13.1914545"><ele>262.0</ele><time>2026-05-01T16:47:37.793Z</time></trkpt><trkpt lat="43.2245127" lon="13.1915764"><ele>264.0</ele><time>2026-05-01T16:47:38.792Z</time></trkpt><trkpt lat="43.2244851" lon="13.1917122"><ele>266.0</ele><time>2026-05-01T16:47:39.792Z</time></trkpt><trkpt lat="43.2244832" lon="13.1918569"><ele>268.0</ele><time>2026-05-01T16:47:40.793Z</time></trkpt><trkpt lat="43.2245015" lon="13.1920034"><ele>268.0</ele><time>2026-05-01T16:47:41.793Z</time></trkpt><trkpt lat="43.2245406" lon="13.1921459"><ele>268.0</ele><time>2026-05-01T16:47:42.793Z</time></trkpt><trkpt lat="43.2245966" lon="13.1922815"><ele>268.0</ele><time>2026-05-01T16:47:43.793Z</time></trkpt><trkpt lat="43.2246664" lon="13.1924011"><ele>268.0</ele><time>2026-05-01T16:47:44.793Z</time></trkpt><trkpt lat="43.2247555" lon="13.192491"><ele>268.0</ele><time>2026-05-01T16:47:45.793Z</time></trkpt><trkpt lat="43.2248544" lon="13.1925476"><ele>267.6</ele><time>2026-05-01T16:47:46.793Z</time></trkpt><trkpt lat="43.2249626" lon="13.1925806"><ele>267.20000000000005</ele><time>2026-05-01T16:47:47.792Z</time></trkpt><trkpt lat="43.2250734" lon="13.1926008"><ele>266.8</ele><time>2026-05-01T16:47:48.793Z</time></trkpt><trkpt lat="43.2251852" lon="13.1926132"><ele>266.40000000000003</ele><time>2026-05-01T16:47:49.792Z</time></trkpt><trkpt lat="43.2252955" lon="13.1926218"><ele>266.0</ele><time>2026-05-01T16:47:50.793Z</time></trkpt><trkpt lat="43.2254014" lon="13.1926319"><ele>266.0</ele><time>2026-05-01T16:47:51.793Z</time></trkpt><trkpt lat="43.2255063" lon="13.1926587"><ele>266.0</ele><time>2026-05-01T16:47:52.793Z</time></trkpt><trkpt lat="43.2256014" lon="13.1927091"><ele>266.0</ele><time>2026-05-01T16:47:53.793Z</time></trkpt><trkpt lat="43.2256828" lon="13.1927978"><ele>266.0</ele><time>2026-05-01T16:47:54.793Z</time></trkpt><trkpt lat="43.2257375" lon="13.192921"><ele>266.0</ele><time>2026-05-01T16:47:55.793Z</time></trkpt><trkpt lat="43.2257598" lon="13.1930651"><ele>265.75</ele><time>2026-05-01T16:47:56.793Z</time></trkpt><trkpt lat="43.225756" lon="13.1932181"><ele>265.5</ele><time>2026-05-01T16:47:57.793Z</time></trkpt><trkpt lat="43.2257278" lon="13.1933704"><ele>265.25</ele><time>2026-05-01T16:47:58.793Z</time></trkpt><trkpt lat="43.2256756" lon="13.1935113"><ele>265.0</ele><time>2026-05-01T16:47:59.793Z</time></trkpt><trkpt lat="43.2256039" lon="13.1936261"><ele>267.2</ele><time>2026-05-01T16:48:00.792Z</time></trkpt><trkpt lat="43.2255099" lon="13.1936958"><ele>269.4</ele><time>2026-05-01T16:48:01.793Z</time></trkpt><trkpt lat="43.2254094" lon="13.1937202"><ele>271.6</ele><time>2026-05-01T16:48:02.793Z</time></trkpt><trkpt lat="43.2253074" lon="13.1937081"><ele>273.8</ele><time>2026-05-01T16:48:03.793Z</time></trkpt><trkpt lat="43.2252045" lon="13.1936737"><ele>276.0</ele><time>2026-05-01T16:48:04.793Z</time></trkpt><trkpt lat="43.225098" lon="13.1936279"><ele>276.0</ele><time>2026-05-01T16:48:05.792Z</time></trkpt><trkpt lat="43.2249854" lon="13.1935808"><ele>276.0</ele><time>2026-05-01T16:48:06.793Z</time></trkpt><trkpt lat="43.2248703" lon="13.1935257"><ele>276.0</ele><time>2026-05-01T16:48:07.792Z</time></trkpt><trkpt lat="43.2247491" lon="13.1934732"><ele>276.0</ele><time>2026-05-01T16:48:08.793Z</time></trkpt><trkpt lat="43.224626" lon="13.1934268"><ele>278.0</ele><time>2026-05-01T16:48:09.793Z</time></trkpt><trkpt lat="43.2245062" lon="13.1933881"><ele>280.0</ele><time>2026-05-01T16:48:10.793Z</time></trkpt><trkpt lat="43.2243876" lon="13.1933613"><ele>282.0</ele><time>2026-05-01T16:48:11.792Z</time></trkpt><trkpt lat="43.2242701" lon="13.1933597"><ele>284.0</ele><time>2026-05-01T16:48:12.792Z</time></trkpt><trkpt lat="43.2241504" lon="13.1933855"><ele>284.0</ele><time>2026-05-01T16:48:13.793Z</time></trkpt><trkpt lat="43.2240329" lon="13.1934298"><ele>284.0</ele><time>2026-05-01T16:48:14.793Z</time></trkpt><trkpt lat="43.2239201" lon="13.1934915"><ele>284.0</ele><time>2026-05-01T16:48:15.793Z</time></trkpt><trkpt lat="43.2238081" lon="13.1935712"><ele>284.0</ele><time>2026-05-01T16:48:16.793Z</time></trkpt><trkpt lat="43.2236936" lon="13.1936441"><ele>284.5</ele><time>2026-05-01T16:48:17.792Z</time></trkpt><trkpt lat="43.2235726" lon="13.1937129"><ele>285.0</ele><time>2026-05-01T16:48:18.792Z</time></trkpt><trkpt lat="43.2234538" lon="13.1937815"><ele>285.5</ele><time>2026-05-01T16:48:19.793Z</time></trkpt><trkpt lat="43.223334" lon="13.193834"><ele>286.0</ele><time>2026-05-01T16:48:20.793Z</time></trkpt><trkpt lat="43.2232109" lon="13.1938628"><ele>289.0</ele><time>2026-05-01T16:48:21.792Z</time></trkpt><trkpt lat="43.2230901" lon="13.1938657"><ele>292.0</ele><time>2026-05-01T16:48:22.793Z</time></trkpt><trkpt lat="43.2229721" lon="13.1938538"><ele>295.0</ele><time>2026-05-01T16:48:23.792Z</time></trkpt><trkpt lat="43.2228608" lon="13.193825"><ele>298.0</ele><time>2026-05-01T16:48:24.792Z</time></trkpt><trkpt lat="43.222755" lon="13.1937731"><ele>298.0</ele><time>2026-05-01T16:48:25.792Z</time></trkpt><trkpt lat="43.2226514" lon="13.1937089"><ele>298.0</ele><time>2026-05-01T16:48:26.792Z</time></trkpt><trkpt lat="43.222558" lon="13.1936365"><ele>298.0</ele><time>2026-05-01T16:48:27.792Z</time></trkpt><trkpt lat="43.2224797" lon="13.1935645"><ele>298.0</ele><time>2026-05-01T16:48:28.793Z</time></trkpt><trkpt lat="43.2224141" lon="13.1934977"><ele>298.0</ele><time>2026-05-01T16:48:29.793Z</time></trkpt><trkpt lat="43.2223475" lon="13.1934699"><ele>298.0</ele><time>2026-05-01T16:48:30.792Z</time></trkpt><trkpt lat="43.2222838" lon="13.193486"><ele>298.0</ele><time>2026-05-01T16:48:31.793Z</time></trkpt><trkpt lat="43.2222419" lon="13.1935606"><ele>298.0</ele><time>2026-05-01T16:48:32.793Z</time></trkpt><trkpt lat="43.2222305" lon="13.1937367"><ele>298.0</ele><time>2026-05-01T16:48:34.793Z</time></trkpt><trkpt lat="43.2223227" lon="13.1937855"><ele>298.0</ele><time>2026-05-01T16:48:35.792Z</time></trkpt><trkpt lat="43.2223811" lon="13.1938591"><ele>298.0</ele><time>2026-05-01T16:48:36.793Z</time></trkpt><trkpt lat="43.2224466" lon="13.1939359"><ele>299.8</ele><time>2026-05-01T16:48:37.793Z</time></trkpt><trkpt lat="43.2225017" lon="13.1940341"><ele>301.6</ele><time>2026-05-01T16:48:38.792Z</time></trkpt><trkpt lat="43.2225411" lon="13.1941453"><ele>303.4</ele><time>2026-05-01T16:48:39.793Z</time></trkpt><trkpt lat="43.222572" lon="13.1942628"><ele>305.2</ele><time>2026-05-01T16:48:40.792Z</time></trkpt><trkpt lat="43.2225885" lon="13.1943868"><ele>307.0</ele><time>2026-05-01T16:48:41.794Z</time></trkpt><trkpt lat="43.2226064" lon="13.1945058"><ele>307.0</ele><time>2026-05-01T16:48:42.792Z</time></trkpt><trkpt lat="43.2226315" lon="13.1946227"><ele>307.0</ele><time>2026-05-01T16:48:43.793Z</time></trkpt><trkpt lat="43.2226631" lon="13.1947409"><ele>307.0</ele><time>2026-05-01T16:48:44.793Z</time></trkpt><trkpt lat="43.222708" lon="13.1948581"><ele>307.0</ele><time>2026-05-01T16:48:45.793Z</time></trkpt><trkpt lat="43.2227666" lon="13.1949775"><ele>307.0</ele><time>2026-05-01T16:48:46.794Z</time></trkpt><trkpt lat="43.2228312" lon="13.1951061"><ele>308.5</ele><time>2026-05-01T16:48:47.793Z</time></trkpt><trkpt lat="43.2228881" lon="13.1952413"><ele>310.0</ele><time>2026-05-01T16:48:48.793Z</time></trkpt><trkpt lat="43.2229431" lon="13.1953738"><ele>311.5</ele><time>2026-05-01T16:48:49.793Z</time></trkpt><trkpt lat="43.2229988" lon="13.1955102"><ele>313.0</ele><time>2026-05-01T16:48:50.793Z</time></trkpt><trkpt lat="43.2230574" lon="13.1956522"><ele>314.0</ele><time>2026-05-01T16:48:51.794Z</time></trkpt><trkpt lat="43.2231146" lon="13.1957996"><ele>315.0</ele><time>2026-05-01T16:48:52.792Z</time></trkpt><trkpt lat="43.2231708" lon="13.195937"><ele>316.0</ele><time>2026-05-01T16:48:53.792Z</time></trkpt><trkpt lat="43.2232201" lon="13.1960672"><ele>317.0</ele><time>2026-05-01T16:48:54.792Z</time></trkpt><trkpt lat="43.2232637" lon="13.1961852"><ele>318.0</ele><time>2026-05-01T16:48:55.792Z</time></trkpt><trkpt lat="43.2233007" lon="13.1962939"><ele>317.8333333333333</ele><time>2026-05-01T16:48:56.792Z</time></trkpt><trkpt lat="43.2233266" lon="13.1963981"><ele>317.6666666666667</ele><time>2026-05-01T16:48:57.793Z</time></trkpt><trkpt lat="43.2233481" lon="13.1965371"><ele>317.5</ele><time>2026-05-01T16:48:59.793Z</time></trkpt><trkpt lat="43.2233868" lon="13.1966108"><ele>317.33333333333337</ele><time>2026-05-01T16:49:01.792Z</time></trkpt><trkpt lat="43.2234444" lon="13.1965755"><ele>317.1666666666667</ele><time>2026-05-01T16:49:03.792Z</time></trkpt><trkpt lat="43.223519" lon="13.1965576"><ele>317.0</ele><time>2026-05-01T16:49:05.792Z</time></trkpt><trkpt lat="43.2236057" lon="13.1966241"><ele>317.0</ele><time>2026-05-01T16:49:07.793Z</time></trkpt><trkpt lat="43.2236971" lon="13.1967407"><ele>317.0</ele><time>2026-05-01T16:49:09.793Z</time></trkpt><trkpt lat="43.2237465" lon="13.1968083"><ele>317.0</ele><time>2026-05-01T16:49:10.793Z</time></trkpt><trkpt lat="43.2237879" lon="13.1968882"><ele>317.0</ele><time>2026-05-01T16:49:11.792Z</time></trkpt><trkpt lat="43.2238293" lon="13.1969904"><ele>317.0</ele><time>2026-05-01T16:49:12.794Z</time></trkpt><trkpt lat="43.2238765" lon="13.1971122"><ele>317.0</ele><time>2026-05-01T16:49:13.793Z</time></trkpt><trkpt lat="43.2239291" lon="13.1972023"><ele>317.0</ele><time>2026-05-01T16:49:14.794Z</time></trkpt><trkpt lat="43.22398" lon="13.1973048"><ele>317.0</ele><time>2026-05-01T16:49:15.792Z</time></trkpt><trkpt lat="43.2240363" lon="13.1974031"><ele>317.0</ele><time>2026-05-01T16:49:16.792Z</time></trkpt><trkpt lat="43.2241061" lon="13.1975034"><ele>317.0</ele><time>2026-05-01T16:49:17.793Z</time></trkpt><trkpt lat="43.2241774" lon="13.1975898"><ele>316.6666666666667</ele><time>2026-05-01T16:49:18.792Z</time></trkpt><trkpt lat="43.2242499" lon="13.1976771"><ele>316.33333333333337</ele><time>2026-05-01T16:49:19.792Z</time></trkpt><trkpt lat="43.2243136" lon="13.1977477"><ele>316.0</ele><time>2026-05-01T16:49:20.792Z</time></trkpt><trkpt lat="43.2243787" lon="13.1978283"><ele>315.6666666666667</ele><time>2026-05-01T16:49:21.794Z</time></trkpt><trkpt lat="43.2244279" lon="13.1978961"><ele>315.3333333333333</ele><time>2026-05-01T16:49:22.793Z</time></trkpt><trkpt lat="43.2244888" lon="13.1979792"><ele>315.0</ele><time>2026-05-01T16:49:23.793Z</time></trkpt><trkpt lat="43.2245393" lon="13.1980773"><ele>314.6666666666667</ele><time>2026-05-01T16:49:24.793Z</time></trkpt><trkpt lat="43.2245929" lon="13.1981758"><ele>314.3333333333333</ele><time>2026-05-01T16:49:25.793Z</time></trkpt><trkpt lat="43.2246452" lon="13.1982764"><ele>314.0</ele><time>2026-05-01T16:49:26.793Z</time></trkpt><trkpt lat="43.2247007" lon="13.1983735"><ele>313.66666666666663</ele><time>2026-05-01T16:49:27.793Z</time></trkpt><trkpt lat="43.2247584" lon="13.1984691"><ele>313.3333333333333</ele><time>2026-05-01T16:49:28.792Z</time></trkpt><trkpt lat="43.2248215" lon="13.1985454"><ele>313.0</ele><time>2026-05-01T16:49:29.792Z</time></trkpt><trkpt lat="43.2248854" lon="13.1986282"><ele>312.66666666666663</ele><time>2026-05-01T16:49:30.793Z</time></trkpt><trkpt lat="43.2249429" lon="13.1987126"><ele>312.3333333333333</ele><time>2026-05-01T16:49:31.793Z</time></trkpt><trkpt lat="43.2249934" lon="13.1987823"><ele>312.0</ele><time>2026-05-01T16:49:32.792Z</time></trkpt><trkpt lat="43.2250539" lon="13.1988633"><ele>311.6666666666667</ele><time>2026-05-01T16:49:33.793Z</time></trkpt><trkpt lat="43.225111" lon="13.1989419"><ele>311.33333333333337</ele><time>2026-05-01T16:49:34.792Z</time></trkpt><trkpt lat="43.2251612" lon="13.1990019"><ele>311.0</ele><time>2026-05-01T16:49:35.792Z</time></trkpt><trkpt lat="43.2252483" lon="13.1991321"><ele>311.8</ele><time>2026-05-01T16:49:37.793Z</time></trkpt><trkpt lat="43.2253105" lon="13.1992699"><ele>312.6</ele><time>2026-05-01T16:49:39.793Z</time></trkpt><trkpt lat="43.225365" lon="13.1994089"><ele>313.4</ele><time>2026-05-01T16:49:41.792Z</time></trkpt><trkpt lat="43.2254022" lon="13.199513"><ele>314.2</ele><time>2026-05-01T16:49:43.793Z</time></trkpt><trkpt lat="43.2254714" lon="13.1995069"><ele>315.0</ele><time>2026-05-01T16:49:46.794Z</time></trkpt><trkpt lat="43.2255113" lon="13.1994229"><ele>315.0</ele><time>2026-05-01T16:49:49.792Z</time></trkpt></trkseg></trk></gpx>